<?xml version="1.0" encoding="UTF-8" standalone="no" ?>
<gpx xmlns="http://www.topografix.com/GPX/1/1" xmlns:xsi="http://www.w3.org/2001/XMLSchema-instance" xsi:schemaLocation="http://www.topografix.com/GPX/1/1 http://www.topografix.com/GPX/1/1/gpx.xsd" version="1.1" creator="VisuGPX - https://www.visugpx.com">
  <metadata>
    <name>tour de bretagne</name>
    <desc><![CDATA[tracé 2008]]></desc>
  </metadata>
  <trk>
    <name><![CDATA[Grandchamp A Baudequibreizh on GPSies.com]]></name>
    <trkseg>
      <trkpt lat="47.75899" lon="-2.84404">
        <ele>126.3</ele>
        <time>2008-01-18T19:35:56Z</time>
      </trkpt>
      <trkpt lat="47.75929" lon="-2.84481">
        <ele>125.3</ele>
        <time>2008-01-18T19:36:20Z</time>
      </trkpt>
      <trkpt lat="47.75993" lon="-2.84402">
        <ele>123.6</ele>
        <time>2008-01-18T19:36:54Z</time>
      </trkpt>
      <trkpt lat="47.7612" lon="-2.84342">
        <ele>112.1</ele>
        <time>2008-01-18T19:37:47Z</time>
      </trkpt>
      <trkpt lat="47.76211" lon="-2.84344">
        <ele>103.3</ele>
        <time>2008-01-18T19:38:23Z</time>
      </trkpt>
      <trkpt lat="47.76252" lon="-2.84646">
        <ele>108.6</ele>
        <time>2008-01-18T19:39:46Z</time>
      </trkpt>
      <trkpt lat="47.76533" lon="-2.84473">
        <ele>85.6</ele>
        <time>2008-01-18T19:41:48Z</time>
      </trkpt>
      <trkpt lat="47.76602" lon="-2.84462">
        <ele>84.1</ele>
        <time>2008-01-18T19:42:16Z</time>
      </trkpt>
      <trkpt lat="47.7667" lon="-2.84455">
        <ele>82.6</ele>
        <time>2008-01-18T19:42:43Z</time>
      </trkpt>
      <trkpt lat="47.76736" lon="-2.84419">
        <ele>81.2</ele>
        <time>2008-01-18T19:43:11Z</time>
      </trkpt>
      <trkpt lat="47.76908" lon="-2.84362">
        <ele>75.8</ele>
        <time>2008-01-18T19:44:22Z</time>
      </trkpt>
      <trkpt lat="47.77058" lon="-2.84385">
        <ele>70.3</ele>
        <time>2008-01-18T19:45:22Z</time>
      </trkpt>
      <trkpt lat="47.77129" lon="-2.84458">
        <ele>68.6</ele>
        <time>2008-01-18T19:45:56Z</time>
      </trkpt>
      <trkpt lat="47.77229" lon="-2.84588">
        <ele>64.4</ele>
        <time>2008-01-18T19:46:50Z</time>
      </trkpt>
      <trkpt lat="47.77305" lon="-2.84683">
        <ele>60.6</ele>
        <time>2008-01-18T19:47:30Z</time>
      </trkpt>
      <trkpt lat="47.77376" lon="-2.84723">
        <ele>57.4</ele>
        <time>2008-01-18T19:48:00Z</time>
      </trkpt>
      <trkpt lat="47.77394" lon="-2.84793">
        <ele>53.7</ele>
        <time>2008-01-18T19:48:20Z</time>
      </trkpt>
      <trkpt lat="47.77423" lon="-2.84939">
        <ele>52.8</ele>
        <time>2008-01-18T19:49:01Z</time>
      </trkpt>
      <trkpt lat="47.77472" lon="-2.84971">
        <ele>50.6</ele>
        <time>2008-01-18T19:49:22Z</time>
      </trkpt>
      <trkpt lat="47.77491" lon="-2.85159">
        <ele>50.6</ele>
        <time>2008-01-18T19:50:14Z</time>
      </trkpt>
      <trkpt lat="47.77462" lon="-2.853">
        <ele>52.6</ele>
        <time>2008-01-18T19:50:53Z</time>
      </trkpt>
      <trkpt lat="47.77573" lon="-2.85349">
        <ele>49.8</ele>
        <time>2008-01-18T19:51:40Z</time>
      </trkpt>
      <trkpt lat="47.77644" lon="-2.85432">
        <ele>55.7</ele>
        <time>2008-01-18T19:52:16Z</time>
      </trkpt>
      <trkpt lat="47.77719" lon="-2.85613">
        <ele>55.9</ele>
        <time>2008-01-18T19:53:13Z</time>
      </trkpt>
      <trkpt lat="47.77784" lon="-2.85767">
        <ele>56.5</ele>
        <time>2008-01-18T19:54:02Z</time>
      </trkpt>
      <trkpt lat="47.7792" lon="-2.85691">
        <ele>60.8</ele>
        <time>2008-01-18T19:55:00Z</time>
      </trkpt>
      <trkpt lat="47.77988" lon="-2.8561">
        <ele>60.6</ele>
        <time>2008-01-18T19:55:35Z</time>
      </trkpt>
      <trkpt lat="47.7807" lon="-2.85512">
        <ele>63.5</ele>
        <time>2008-01-18T19:56:17Z</time>
      </trkpt>
      <trkpt lat="47.78068" lon="-2.85371">
        <ele>61.5</ele>
        <time>2008-01-18T19:56:55Z</time>
      </trkpt>
      <trkpt lat="47.78058" lon="-2.85285">
        <ele>62.5</ele>
        <time>2008-01-18T19:57:19Z</time>
      </trkpt>
      <trkpt lat="47.78057" lon="-2.85212">
        <ele>63.5</ele>
        <time>2008-01-18T19:57:38Z</time>
      </trkpt>
      <trkpt lat="47.78043" lon="-2.85126">
        <ele>64.8</ele>
        <time>2008-01-18T19:58:02Z</time>
      </trkpt>
      <trkpt lat="47.78093" lon="-2.8481">
        <ele>69.2</ele>
        <time>2008-01-18T19:59:30Z</time>
      </trkpt>
      <trkpt lat="47.78183" lon="-2.8481">
        <ele>70.4</ele>
        <time>2008-01-18T20:00:05Z</time>
      </trkpt>
      <trkpt lat="47.7824" lon="-2.84608">
        <ele>71.4</ele>
        <time>2008-01-18T20:01:04Z</time>
      </trkpt>
      <trkpt lat="47.78511" lon="-2.84227">
        <ele>77.9</ele>
        <time>2008-01-18T20:03:34Z</time>
      </trkpt>
      <trkpt lat="47.78629" lon="-2.84332">
        <ele>71.8</ele>
        <time>2008-01-18T20:04:29Z</time>
      </trkpt>
      <trkpt lat="47.78693" lon="-2.84418">
        <ele>65.5</ele>
        <time>2008-01-18T20:05:03Z</time>
      </trkpt>
      <trkpt lat="47.78791" lon="-2.84538">
        <ele>67.3</ele>
        <time>2008-01-18T20:05:54Z</time>
      </trkpt>
      <trkpt lat="47.78892" lon="-2.84674">
        <ele>73.2</ele>
        <time>2008-01-18T20:06:48Z</time>
      </trkpt>
      <trkpt lat="47.7896" lon="-2.84869">
        <ele>77</ele>
        <time>2008-01-18T20:07:48Z</time>
      </trkpt>
      <trkpt lat="47.79247" lon="-2.84875">
        <ele>78.1</ele>
        <time>2008-01-18T20:09:43Z</time>
      </trkpt>
      <trkpt lat="47.79262" lon="-2.85066">
        <ele>76.2</ele>
        <time>2008-01-18T20:10:34Z</time>
      </trkpt>
      <trkpt lat="47.79271" lon="-2.85251">
        <ele>76.1</ele>
        <time>2008-01-18T20:11:24Z</time>
      </trkpt>
      <trkpt lat="47.79318" lon="-2.85541">
        <ele>80.6</ele>
        <time>2008-01-18T20:12:44Z</time>
      </trkpt>
      <trkpt lat="47.79392" lon="-2.85521">
        <ele>89</ele>
        <time>2008-01-18T20:13:15Z</time>
      </trkpt>
      <trkpt lat="47.79433" lon="-2.85391">
        <ele>95.6</ele>
        <time>2008-01-18T20:13:53Z</time>
      </trkpt>
      <trkpt lat="47.79531" lon="-2.85344">
        <ele>108.4</ele>
        <time>2008-01-18T20:14:34Z</time>
      </trkpt>
      <trkpt lat="47.79643" lon="-2.85394">
        <ele>120.9</ele>
        <time>2008-01-18T20:15:21Z</time>
      </trkpt>
      <trkpt lat="47.79743" lon="-2.85469">
        <ele>133.3</ele>
        <time>2008-01-18T20:16:06Z</time>
      </trkpt>
      <trkpt lat="47.79798" lon="-2.85454">
        <ele>137.5</ele>
        <time>2008-01-18T20:16:28Z</time>
      </trkpt>
      <trkpt lat="47.798" lon="-2.85668">
        <ele>141.1</ele>
        <time>2008-01-18T20:17:26Z</time>
      </trkpt>
      <trkpt lat="47.79759" lon="-2.85673">
        <ele>138.6</ele>
        <time>2008-01-18T20:17:42Z</time>
      </trkpt>
      <trkpt lat="47.79718" lon="-2.85616">
        <ele>134.1</ele>
        <time>2008-01-18T20:18:05Z</time>
      </trkpt>
      <trkpt lat="47.79669" lon="-2.85628">
        <ele>128.7</ele>
        <time>2008-01-18T20:18:25Z</time>
      </trkpt>
      <trkpt lat="47.79635" lon="-2.85621">
        <ele>125.3</ele>
        <time>2008-01-18T20:18:38Z</time>
      </trkpt>
      <trkpt lat="47.79562" lon="-2.8564">
        <ele>117</ele>
        <time>2008-01-18T20:19:08Z</time>
      </trkpt>
      <trkpt lat="47.79487" lon="-2.8566">
        <ele>104.8</ele>
        <time>2008-01-18T20:19:38Z</time>
      </trkpt>
      <trkpt lat="47.7942" lon="-2.85794">
        <ele>90.9</ele>
        <time>2008-01-18T20:20:23Z</time>
      </trkpt>
      <trkpt lat="47.79431" lon="-2.85956">
        <ele>89.6</ele>
        <time>2008-01-18T20:21:07Z</time>
      </trkpt>
      <trkpt lat="47.79448" lon="-2.86416">
        <ele>92</ele>
        <time>2008-01-18T20:23:11Z</time>
      </trkpt>
      <trkpt lat="47.79465" lon="-2.86661">
        <ele>89.1</ele>
        <time>2008-01-18T20:24:17Z</time>
      </trkpt>
      <trkpt lat="47.79497" lon="-2.86929">
        <ele>85.1</ele>
        <time>2008-01-18T20:25:30Z</time>
      </trkpt>
      <trkpt lat="47.79496" lon="-2.86957">
        <ele>83.9</ele>
        <time>2008-01-18T20:25:38Z</time>
      </trkpt>
      <trkpt lat="47.79526" lon="-2.87006">
        <ele>86.8</ele>
        <time>2008-01-18T20:25:56Z</time>
      </trkpt>
      <trkpt lat="47.79544" lon="-2.87073">
        <ele>86.6</ele>
        <time>2008-01-18T20:26:15Z</time>
      </trkpt>
      <trkpt lat="47.79597" lon="-2.87114">
        <ele>91.5</ele>
        <time>2008-01-18T20:26:39Z</time>
      </trkpt>
      <trkpt lat="47.79641" lon="-2.87138">
        <ele>96.2</ele>
        <time>2008-01-18T20:26:57Z</time>
      </trkpt>
      <trkpt lat="47.79623" lon="-2.87074">
        <ele>97.7</ele>
        <time>2008-01-18T20:27:16Z</time>
      </trkpt>
      <trkpt lat="47.79686" lon="-2.87061">
        <ele>110.3</ele>
        <time>2008-01-18T20:27:42Z</time>
      </trkpt>
      <trkpt lat="47.79804" lon="-2.87004">
        <ele>124.4</ele>
        <time>2008-01-18T20:28:31Z</time>
      </trkpt>
      <trkpt lat="47.80175" lon="-2.86917">
        <ele>142.4</ele>
        <time>2008-01-18T20:31:02Z</time>
      </trkpt>
      <trkpt lat="47.8036" lon="-2.86865">
        <ele>140.1</ele>
        <time>2008-01-18T20:32:17Z</time>
      </trkpt>
      <trkpt lat="47.80495" lon="-2.86778">
        <ele>137.8</ele>
        <time>2008-01-18T20:33:16Z</time>
      </trkpt>
      <trkpt lat="47.8067" lon="-2.86751">
        <ele>139.2</ele>
        <time>2008-01-18T20:34:27Z</time>
      </trkpt>
      <trkpt lat="47.8092" lon="-2.88301">
        <ele>154.6</ele>
        <time>2008-01-18T20:41:35Z</time>
      </trkpt>
      <trkpt lat="47.80975" lon="-2.88439">
        <ele>151.7</ele>
        <time>2008-01-18T20:42:18Z</time>
      </trkpt>
      <trkpt lat="47.80876" lon="-2.88559">
        <ele>155.5</ele>
        <time>2008-01-18T20:43:10Z</time>
      </trkpt>
      <trkpt lat="47.80952" lon="-2.88976">
        <ele>152.6</ele>
        <time>2008-01-18T20:45:06Z</time>
      </trkpt>
      <trkpt lat="47.80724" lon="-2.8912">
        <ele>159</ele>
        <time>2008-01-18T20:46:45Z</time>
      </trkpt>
      <trkpt lat="47.80695" lon="-2.89183">
        <ele>158.4</ele>
        <time>2008-01-18T20:47:05Z</time>
      </trkpt>
      <trkpt lat="47.80624" lon="-2.89277">
        <ele>156.5</ele>
        <time>2008-01-18T20:47:43Z</time>
      </trkpt>
      <trkpt lat="47.8059" lon="-2.89294">
        <ele>154.7</ele>
        <time>2008-01-18T20:47:57Z</time>
      </trkpt>
      <trkpt lat="47.80604" lon="-2.89527">
        <ele>145.9</ele>
        <time>2008-01-18T20:49:00Z</time>
      </trkpt>
      <trkpt lat="47.80567" lon="-2.89645">
        <ele>135</ele>
        <time>2008-01-18T20:49:35Z</time>
      </trkpt>
      <trkpt lat="47.80474" lon="-2.89684">
        <ele>121.2</ele>
        <time>2008-01-18T20:50:14Z</time>
      </trkpt>
      <trkpt lat="47.80419" lon="-2.89651">
        <ele>121.4</ele>
        <time>2008-01-18T20:50:38Z</time>
      </trkpt>
      <trkpt lat="47.80332" lon="-2.89683">
        <ele>105.4</ele>
        <time>2008-01-18T20:51:14Z</time>
      </trkpt>
      <trkpt lat="47.80325" lon="-2.89719">
        <ele>108</ele>
        <time>2008-01-18T20:51:24Z</time>
      </trkpt>
      <trkpt lat="47.8033" lon="-2.89765">
        <ele>113</ele>
        <time>2008-01-18T20:51:36Z</time>
      </trkpt>
      <trkpt lat="47.80364" lon="-2.89757">
        <ele>111.9</ele>
        <time>2008-01-18T20:51:50Z</time>
      </trkpt>
      <trkpt lat="47.80394" lon="-2.89791">
        <ele>118.2</ele>
        <time>2008-01-18T20:52:05Z</time>
      </trkpt>
      <trkpt lat="47.80369" lon="-2.89849">
        <ele>126.8</ele>
        <time>2008-01-18T20:52:24Z</time>
      </trkpt>
      <trkpt lat="47.80323" lon="-2.89913">
        <ele>125.8</ele>
        <time>2008-01-18T20:52:49Z</time>
      </trkpt>
      <trkpt lat="47.80315" lon="-2.89987">
        <ele>125.9</ele>
        <time>2008-01-18T20:53:09Z</time>
      </trkpt>
      <trkpt lat="47.80334" lon="-2.90039">
        <ele>128.7</ele>
        <time>2008-01-18T20:53:25Z</time>
      </trkpt>
      <trkpt lat="47.80374" lon="-2.90151">
        <ele>136.4</ele>
        <time>2008-01-18T20:53:59Z</time>
      </trkpt>
      <trkpt lat="47.80523" lon="-2.90439">
        <ele>148.4</ele>
        <time>2008-01-18T20:55:37Z</time>
      </trkpt>
      <trkpt lat="47.8053" lon="-2.90507">
        <ele>149.4</ele>
        <time>2008-01-18T20:55:55Z</time>
      </trkpt>
      <trkpt lat="47.80456" lon="-2.90557">
        <ele>146.4</ele>
        <time>2008-01-18T20:56:28Z</time>
      </trkpt>
      <trkpt lat="47.80406" lon="-2.90673">
        <ele>143.9</ele>
        <time>2008-01-18T20:57:05Z</time>
      </trkpt>
      <trkpt lat="47.80361" lon="-2.9077">
        <ele>140.5</ele>
        <time>2008-01-18T20:57:37Z</time>
      </trkpt>
      <trkpt lat="47.80297" lon="-2.90885">
        <ele>130.8</ele>
        <time>2008-01-18T20:58:17Z</time>
      </trkpt>
      <trkpt lat="47.80314" lon="-2.91071">
        <ele>130.1</ele>
        <time>2008-01-18T20:59:07Z</time>
      </trkpt>
      <trkpt lat="47.80247" lon="-2.91084">
        <ele>117.5</ele>
        <time>2008-01-18T20:59:34Z</time>
      </trkpt>
      <trkpt lat="47.8021" lon="-2.91074">
        <ele>111.3</ele>
        <time>2008-01-18T20:59:49Z</time>
      </trkpt>
      <trkpt lat="47.80183" lon="-2.91169">
        <ele>103.5</ele>
        <time>2008-01-18T21:00:17Z</time>
      </trkpt>
      <trkpt lat="47.80156" lon="-2.91286">
        <ele>97.8</ele>
        <time>2008-01-18T21:00:50Z</time>
      </trkpt>
      <trkpt lat="47.80123" lon="-2.91402">
        <ele>88.9</ele>
        <time>2008-01-18T21:01:24Z</time>
      </trkpt>
      <trkpt lat="47.80142" lon="-2.91525">
        <ele>88</ele>
        <time>2008-01-18T21:01:58Z</time>
      </trkpt>
      <trkpt lat="47.80213" lon="-2.9186">
        <ele>77.7</ele>
        <time>2008-01-18T21:03:32Z</time>
      </trkpt>
      <trkpt lat="47.80203" lon="-2.92037">
        <ele>74.4</ele>
        <time>2008-01-18T21:04:20Z</time>
      </trkpt>
      <trkpt lat="47.80162" lon="-2.922">
        <ele>69.8</ele>
        <time>2008-01-18T21:05:07Z</time>
      </trkpt>
      <trkpt lat="47.80222" lon="-2.92353">
        <ele>66.4</ele>
        <time>2008-01-18T21:05:55Z</time>
      </trkpt>
      <trkpt lat="47.80136" lon="-2.9262">
        <ele>58.6</ele>
        <time>2008-01-18T21:07:14Z</time>
      </trkpt>
      <trkpt lat="47.80154" lon="-2.92919">
        <ele>58.6</ele>
        <time>2008-01-18T21:08:35Z</time>
      </trkpt>
      <trkpt lat="47.80349" lon="-2.93073">
        <ele>80.6</ele>
        <time>2008-01-18T21:10:03Z</time>
      </trkpt>
      <trkpt lat="47.8038" lon="-2.93209">
        <ele>74.4</ele>
        <time>2008-01-18T21:10:42Z</time>
      </trkpt>
      <trkpt lat="47.80491" lon="-2.93394">
        <ele>81</ele>
        <time>2008-01-18T21:11:49Z</time>
      </trkpt>
      <trkpt lat="47.80639" lon="-2.93369">
        <ele>102.6</ele>
        <time>2008-01-18T21:12:49Z</time>
      </trkpt>
      <trkpt lat="47.80825" lon="-2.93314">
        <ele>120.7</ele>
        <time>2008-01-18T21:14:04Z</time>
      </trkpt>
      <trkpt lat="47.80891" lon="-2.93191">
        <ele>125</ele>
        <time>2008-01-18T21:14:47Z</time>
      </trkpt>
      <trkpt lat="47.81113" lon="-2.93219">
        <ele>126.9</ele>
        <time>2008-01-18T21:16:16Z</time>
      </trkpt>
      <trkpt lat="47.81291" lon="-2.93311">
        <ele>128.4</ele>
        <time>2008-01-18T21:17:31Z</time>
      </trkpt>
      <trkpt lat="47.81337" lon="-2.93356">
        <ele>127.6</ele>
        <time>2008-01-18T21:17:53Z</time>
      </trkpt>
      <trkpt lat="47.81383" lon="-2.93484">
        <ele>129</ele>
        <time>2008-01-18T21:18:32Z</time>
      </trkpt>
      <trkpt lat="47.81421" lon="-2.93535">
        <ele>130.8</ele>
        <time>2008-01-18T21:18:53Z</time>
      </trkpt>
      <trkpt lat="47.81599" lon="-2.93573">
        <ele>133.9</ele>
        <time>2008-01-18T21:20:05Z</time>
      </trkpt>
      <trkpt lat="47.81824" lon="-2.93753">
        <ele>139.5</ele>
        <time>2008-01-18T21:21:47Z</time>
      </trkpt>
      <trkpt lat="47.81862" lon="-2.93707">
        <ele>140.9</ele>
        <time>2008-01-18T21:22:07Z</time>
      </trkpt>
      <trkpt lat="47.81972" lon="-2.93771">
        <ele>141.4</ele>
        <time>2008-01-18T21:22:54Z</time>
      </trkpt>
      <trkpt lat="47.82072" lon="-2.93613">
        <ele>143</ele>
        <time>2008-01-18T21:23:52Z</time>
      </trkpt>
      <trkpt lat="47.8226" lon="-2.9361">
        <ele>140.6</ele>
        <time>2008-01-18T21:25:08Z</time>
      </trkpt>
      <trkpt lat="47.82451" lon="-2.94068">
        <ele>136</ele>
        <time>2008-01-18T21:27:32Z</time>
      </trkpt>
      <trkpt lat="47.82467" lon="-2.94206">
        <ele>136</ele>
        <time>2008-01-18T21:28:10Z</time>
      </trkpt>
      <trkpt lat="47.8262" lon="-2.94951">
        <ele>137</ele>
        <time>2008-01-18T21:31:39Z</time>
      </trkpt>
      <trkpt lat="47.82702" lon="-2.9525">
        <ele>137</ele>
        <time>2008-01-18T21:33:06Z</time>
      </trkpt>
      <trkpt lat="47.82784" lon="-2.95447">
        <ele>134.6</ele>
        <time>2008-01-18T21:34:09Z</time>
      </trkpt>
      <trkpt lat="47.82942" lon="-2.95783">
        <ele>128.8</ele>
        <time>2008-01-18T21:35:59Z</time>
      </trkpt>
      <trkpt lat="47.82974" lon="-2.95938">
        <ele>127.2</ele>
        <time>2008-01-18T21:36:42Z</time>
      </trkpt>
      <trkpt lat="47.82978" lon="-2.96049">
        <ele>125.9</ele>
        <time>2008-01-18T21:37:12Z</time>
      </trkpt>
      <trkpt lat="47.83023" lon="-2.96251">
        <ele>126</ele>
        <time>2008-01-18T21:38:09Z</time>
      </trkpt>
      <trkpt lat="47.82945" lon="-2.96769">
        <ele>120</ele>
        <time>2008-01-18T21:40:32Z</time>
      </trkpt>
      <trkpt lat="47.82893" lon="-2.97018">
        <ele>122.1</ele>
        <time>2008-01-18T21:41:42Z</time>
      </trkpt>
      <trkpt lat="47.82669" lon="-2.97285">
        <ele>109.5</ele>
        <time>2008-01-18T21:43:37Z</time>
      </trkpt>
      <trkpt lat="47.82528" lon="-2.97456">
        <ele>91.9</ele>
        <time>2008-01-18T21:44:50Z</time>
      </trkpt>
      <trkpt lat="47.8252" lon="-2.97542">
        <ele>90.2</ele>
        <time>2008-01-18T21:45:13Z</time>
      </trkpt>
      <trkpt lat="47.82496" lon="-2.97542">
        <ele>90.7</ele>
        <time>2008-01-18T21:45:23Z</time>
      </trkpt>
      <trkpt lat="47.82428" lon="-2.97458">
        <ele>89.2</ele>
        <time>2008-01-18T21:45:58Z</time>
      </trkpt>
      <trkpt lat="47.82327" lon="-2.97391">
        <ele>89.9</ele>
        <time>2008-01-18T21:46:42Z</time>
      </trkpt>
      <trkpt lat="47.82252" lon="-2.97303">
        <ele>83.6</ele>
        <time>2008-01-18T21:47:20Z</time>
      </trkpt>
      <trkpt lat="47.82167" lon="-2.97257">
        <ele>80.6</ele>
        <time>2008-01-18T21:47:57Z</time>
      </trkpt>
      <trkpt lat="47.82075" lon="-2.97191">
        <ele>76.1</ele>
        <time>2008-01-18T21:48:38Z</time>
      </trkpt>
      <trkpt lat="47.82017" lon="-2.97118">
        <ele>73.9</ele>
        <time>2008-01-18T21:49:08Z</time>
      </trkpt>
      <trkpt lat="47.81958" lon="-2.97131">
        <ele>72.4</ele>
        <time>2008-01-18T21:49:32Z</time>
      </trkpt>
      <trkpt lat="47.81913" lon="-2.97148">
        <ele>77.8</ele>
        <time>2008-01-18T21:49:50Z</time>
      </trkpt>
      <trkpt lat="47.81871" lon="-2.97217">
        <ele>86.5</ele>
        <time>2008-01-18T21:50:16Z</time>
      </trkpt>
      <trkpt lat="47.81821" lon="-2.97272">
        <ele>94.7</ele>
        <time>2008-01-18T21:50:40Z</time>
      </trkpt>
      <trkpt lat="47.81783" lon="-2.97283">
        <ele>98.5</ele>
        <time>2008-01-18T21:50:56Z</time>
      </trkpt>
      <trkpt lat="47.81691" lon="-2.97247">
        <ele>98</ele>
        <time>2008-01-18T21:51:34Z</time>
      </trkpt>
      <trkpt lat="47.81639" lon="-2.97219">
        <ele>98.9</ele>
        <time>2008-01-18T21:51:56Z</time>
      </trkpt>
      <trkpt lat="47.81606" lon="-2.97195">
        <ele>101</ele>
        <time>2008-01-18T21:52:11Z</time>
      </trkpt>
      <trkpt lat="47.81659" lon="-2.97602">
        <ele>115</ele>
        <time>2008-01-18T21:54:02Z</time>
      </trkpt>
      <trkpt lat="47.81667" lon="-2.97738">
        <ele>112.3</ele>
        <time>2008-01-18T21:54:39Z</time>
      </trkpt>
      <trkpt lat="47.81641" lon="-2.97861">
        <ele>113.7</ele>
        <time>2008-01-18T21:55:14Z</time>
      </trkpt>
      <trkpt lat="47.81669" lon="-2.98011">
        <ele>117.4</ele>
        <time>2008-01-18T21:55:55Z</time>
      </trkpt>
      <trkpt lat="47.81734" lon="-2.98328">
        <ele>122.1</ele>
        <time>2008-01-18T21:57:24Z</time>
      </trkpt>
      <trkpt lat="47.81723" lon="-2.98368">
        <ele>122.7</ele>
        <time>2008-01-18T21:57:36Z</time>
      </trkpt>
      <trkpt lat="47.81797" lon="-2.9869">
        <ele>121.6</ele>
        <time>2008-01-18T21:59:07Z</time>
      </trkpt>
      <trkpt lat="47.81776" lon="-2.98706">
        <ele>121.3</ele>
        <time>2008-01-18T21:59:17Z</time>
      </trkpt>
      <trkpt lat="47.81804" lon="-2.98835">
        <ele>118.9</ele>
        <time>2008-01-18T21:59:54Z</time>
      </trkpt>
      <trkpt lat="47.82451" lon="-2.98978">
        <ele>118</ele>
        <time>2008-01-18T22:04:15Z</time>
      </trkpt>
      <trkpt lat="47.82551" lon="-2.98998">
        <ele>116.7</ele>
        <time>2008-01-18T22:04:56Z</time>
      </trkpt>
      <trkpt lat="47.82651" lon="-2.99082">
        <ele>118.4</ele>
        <time>2008-01-18T22:05:42Z</time>
      </trkpt>
      <trkpt lat="47.82754" lon="-2.99216">
        <ele>119.7</ele>
        <time>2008-01-18T22:06:36Z</time>
      </trkpt>
      <trkpt lat="47.82904" lon="-2.99353">
        <ele>123.9</ele>
        <time>2008-01-18T22:07:47Z</time>
      </trkpt>
      <trkpt lat="47.83034" lon="-2.99416">
        <ele>123.7</ele>
        <time>2008-01-18T22:08:42Z</time>
      </trkpt>
      <trkpt lat="47.83063" lon="-2.99543">
        <ele>120.2</ele>
        <time>2008-01-18T22:09:18Z</time>
      </trkpt>
      <trkpt lat="47.83061" lon="-2.99681">
        <ele>117.7</ele>
        <time>2008-01-18T22:09:55Z</time>
      </trkpt>
      <trkpt lat="47.83093" lon="-2.99888">
        <ele>117.8</ele>
        <time>2008-01-18T22:10:52Z</time>
      </trkpt>
      <trkpt lat="47.83098" lon="-3.00056">
        <ele>115.1</ele>
        <time>2008-01-18T22:11:37Z</time>
      </trkpt>
      <trkpt lat="47.82934" lon="-3.00116">
        <ele>107.4</ele>
        <time>2008-01-18T22:12:45Z</time>
      </trkpt>
      <trkpt lat="47.82839" lon="-3.00114">
        <ele>104.9</ele>
        <time>2008-01-18T22:13:23Z</time>
      </trkpt>
      <trkpt lat="47.82781" lon="-3.00509">
        <ele>105.1</ele>
        <time>2008-01-18T22:15:12Z</time>
      </trkpt>
      <trkpt lat="47.82864" lon="-3.00808">
        <ele>112.5</ele>
        <time>2008-01-18T22:16:39Z</time>
      </trkpt>
      <trkpt lat="47.82728" lon="-3.0108">
        <ele>117.6</ele>
        <time>2008-01-18T22:18:10Z</time>
      </trkpt>
      <trkpt lat="47.82982" lon="-3.01187">
        <ele>112.5</ele>
        <time>2008-01-18T22:19:56Z</time>
      </trkpt>
      <trkpt lat="47.82917" lon="-3.01622">
        <ele>119.4</ele>
        <time>2008-01-18T22:21:56Z</time>
      </trkpt>
      <trkpt lat="47.82594" lon="-3.01494">
        <ele>121</ele>
        <time>2008-01-18T22:24:10Z</time>
      </trkpt>
      <trkpt lat="47.82604" lon="-3.02183">
        <ele>111</ele>
        <time>2008-01-18T22:27:15Z</time>
      </trkpt>
      <trkpt lat="47.82658" lon="-3.02786">
        <ele>93.3</ele>
        <time>2008-01-18T22:29:58Z</time>
      </trkpt>
      <trkpt lat="47.82717" lon="-3.02783">
        <ele>95.7</ele>
        <time>2008-01-18T22:30:22Z</time>
      </trkpt>
      <trkpt lat="47.82885" lon="-3.02712">
        <ele>104.9</ele>
        <time>2008-01-18T22:31:32Z</time>
      </trkpt>
      <trkpt lat="47.83552" lon="-3.02439">
        <ele>114.6</ele>
        <time>2008-01-18T22:36:09Z</time>
      </trkpt>
      <trkpt lat="47.83583" lon="-3.02415">
        <ele>116.1</ele>
        <time>2008-01-18T22:36:23Z</time>
      </trkpt>
      <trkpt lat="47.8365" lon="-3.02436">
        <ele>117.6</ele>
        <time>2008-01-18T22:36:50Z</time>
      </trkpt>
      <trkpt lat="47.83831" lon="-3.02156">
        <ele>117.9</ele>
        <time>2008-01-18T22:38:35Z</time>
      </trkpt>
      <trkpt lat="47.83963" lon="-3.02581">
        <ele>117</ele>
        <time>2008-01-18T22:40:40Z</time>
      </trkpt>
      <trkpt lat="47.841" lon="-3.02789">
        <ele>116</ele>
        <time>2008-01-18T22:41:59Z</time>
      </trkpt>
      <trkpt lat="47.8422" lon="-3.02924">
        <ele>116</ele>
        <time>2008-01-18T22:42:59Z</time>
      </trkpt>
      <trkpt lat="47.84323" lon="-3.0318">
        <ele>107.1</ele>
        <time>2008-01-18T22:44:19Z</time>
      </trkpt>
      <trkpt lat="47.84439" lon="-3.03272">
        <ele>109.6</ele>
        <time>2008-01-18T22:45:12Z</time>
      </trkpt>
      <trkpt lat="47.84558" lon="-3.03364">
        <ele>110.3</ele>
        <time>2008-01-18T22:46:05Z</time>
      </trkpt>
      <trkpt lat="47.84635" lon="-3.03375">
        <ele>111</ele>
        <time>2008-01-18T22:46:36Z</time>
      </trkpt>
      <trkpt lat="47.84709" lon="-3.03323">
        <ele>110.2</ele>
        <time>2008-01-18T22:47:09Z</time>
      </trkpt>
      <trkpt lat="47.84821" lon="-3.03267">
        <ele>103.3</ele>
        <time>2008-01-18T22:47:56Z</time>
      </trkpt>
      <trkpt lat="47.84833" lon="-3.03054">
        <ele>104.1</ele>
        <time>2008-01-18T22:48:54Z</time>
      </trkpt>
      <trkpt lat="47.8486" lon="-3.02922">
        <ele>97</ele>
        <time>2008-01-18T22:49:31Z</time>
      </trkpt>
      <trkpt lat="47.84951" lon="-3.03044">
        <ele>93.1</ele>
        <time>2008-01-18T22:50:20Z</time>
      </trkpt>
      <trkpt lat="47.84998" lon="-3.0307">
        <ele>92.2</ele>
        <time>2008-01-18T22:50:40Z</time>
      </trkpt>
      <trkpt lat="47.85118" lon="-3.02922">
        <ele>98</ele>
        <time>2008-01-18T22:51:42Z</time>
      </trkpt>
      <trkpt lat="47.85236" lon="-3.02805">
        <ele>93.2</ele>
        <time>2008-01-18T22:52:39Z</time>
      </trkpt>
      <trkpt lat="47.85514" lon="-3.02642">
        <ele>85.3</ele>
        <time>2008-01-18T22:54:39Z</time>
      </trkpt>
      <trkpt lat="47.85617" lon="-3.03238">
        <ele>86.4</ele>
        <time>2008-01-18T22:57:24Z</time>
      </trkpt>
      <trkpt lat="47.85655" lon="-3.0338">
        <ele>86.7</ele>
        <time>2008-01-18T22:58:05Z</time>
      </trkpt>
      <trkpt lat="47.87225" lon="-3.03413">
        <ele>41.5</ele>
        <time>2008-01-18T23:08:34Z</time>
      </trkpt>
    </trkseg>
  </trk>
  <trk>
    <name><![CDATA[fusion]]></name>
    <trkseg>
      <trkpt lat="48.61822" lon="-3.50317">
        <ele>122.7</ele>
      </trkpt>
      <trkpt lat="48.61876" lon="-3.50469">
        <ele>113.8</ele>
      </trkpt>
      <trkpt lat="48.61897" lon="-3.50706">
        <ele>104.9</ele>
      </trkpt>
      <trkpt lat="48.61916" lon="-3.51088">
        <ele>106.8</ele>
      </trkpt>
      <trkpt lat="48.62053" lon="-3.51169">
        <ele>109.2</ele>
      </trkpt>
      <trkpt lat="48.6215" lon="-3.51155">
        <ele>110.2</ele>
      </trkpt>
      <trkpt lat="48.62223" lon="-3.51114">
        <ele>109.8</ele>
      </trkpt>
      <trkpt lat="48.62301" lon="-3.51196">
        <ele>110.6</ele>
      </trkpt>
      <trkpt lat="48.62355" lon="-3.51208">
        <ele>104.7</ele>
      </trkpt>
      <trkpt lat="48.62356" lon="-3.51374">
        <ele>99.2</ele>
      </trkpt>
      <trkpt lat="48.62428" lon="-3.51512">
        <ele>94.6</ele>
      </trkpt>
      <trkpt lat="48.62497" lon="-3.51458">
        <ele>87.6</ele>
      </trkpt>
      <trkpt lat="48.62573" lon="-3.51446">
        <ele>89.7</ele>
      </trkpt>
      <trkpt lat="48.62669" lon="-3.51394">
        <ele>105</ele>
      </trkpt>
      <trkpt lat="48.62666" lon="-3.51501">
        <ele>107</ele>
      </trkpt>
      <trkpt lat="48.62829" lon="-3.51627">
        <ele>115.2</ele>
      </trkpt>
      <trkpt lat="48.62907" lon="-3.51636">
        <ele>115.2</ele>
      </trkpt>
      <trkpt lat="48.62933" lon="-3.51888">
        <ele>109.6</ele>
      </trkpt>
      <trkpt lat="48.62809" lon="-3.51908">
        <ele>101.2</ele>
      </trkpt>
      <trkpt lat="48.62756" lon="-3.51994">
        <ele>95.5</ele>
      </trkpt>
      <trkpt lat="48.62668" lon="-3.51988">
        <ele>85.1</ele>
      </trkpt>
      <trkpt lat="48.62434" lon="-3.52075">
        <ele>110.8</ele>
      </trkpt>
      <trkpt lat="48.62355" lon="-3.52192">
        <ele>113.4</ele>
      </trkpt>
      <trkpt lat="48.62112" lon="-3.52248">
        <ele>123.5</ele>
      </trkpt>
      <trkpt lat="48.61848" lon="-3.52428">
        <ele>131.6</ele>
      </trkpt>
      <trkpt lat="48.61858" lon="-3.52668">
        <ele>125.7</ele>
      </trkpt>
      <trkpt lat="48.61944" lon="-3.52912">
        <ele>100.3</ele>
      </trkpt>
      <trkpt lat="48.62055" lon="-3.53403">
        <ele>112.3</ele>
      </trkpt>
      <trkpt lat="48.62023" lon="-3.53667">
        <ele>102.2</ele>
      </trkpt>
      <trkpt lat="48.62079" lon="-3.53781">
        <ele>108.4</ele>
      </trkpt>
      <trkpt lat="48.62389" lon="-3.53791">
        <ele>105.8</ele>
      </trkpt>
      <trkpt lat="48.62523" lon="-3.53426">
        <ele>86.2</ele>
      </trkpt>
      <trkpt lat="48.62584" lon="-3.53379">
        <ele>88</ele>
      </trkpt>
      <trkpt lat="48.62606" lon="-3.53318">
        <ele>91.4</ele>
      </trkpt>
      <trkpt lat="48.62684" lon="-3.53253">
        <ele>93.7</ele>
      </trkpt>
      <trkpt lat="48.62809" lon="-3.52996">
        <ele>79.5</ele>
      </trkpt>
      <trkpt lat="48.62861" lon="-3.53005">
        <ele>76.1</ele>
      </trkpt>
      <trkpt lat="48.62985" lon="-3.53063">
        <ele>84.8</ele>
      </trkpt>
      <trkpt lat="48.63061" lon="-3.52999">
        <ele>88.8</ele>
      </trkpt>
      <trkpt lat="48.63102" lon="-3.5294">
        <ele>89.8</ele>
      </trkpt>
      <trkpt lat="48.63236" lon="-3.52927">
        <ele>97.4</ele>
      </trkpt>
      <trkpt lat="48.63279" lon="-3.52975">
        <ele>98.4</ele>
      </trkpt>
      <trkpt lat="48.63276" lon="-3.53225">
        <ele>91.5</ele>
      </trkpt>
      <trkpt lat="48.63335" lon="-3.53211">
        <ele>86.7</ele>
      </trkpt>
      <trkpt lat="48.6338" lon="-3.53486">
        <ele>98.9</ele>
      </trkpt>
      <trkpt lat="48.63332" lon="-3.53543">
        <ele>97.7</ele>
      </trkpt>
      <trkpt lat="48.63311" lon="-3.53682">
        <ele>95.5</ele>
      </trkpt>
      <trkpt lat="48.63358" lon="-3.5379">
        <ele>93.9</ele>
      </trkpt>
      <trkpt lat="48.63373" lon="-3.53934">
        <ele>91.2</ele>
      </trkpt>
      <trkpt lat="48.63276" lon="-3.54074">
        <ele>77.8</ele>
      </trkpt>
      <trkpt lat="48.63271" lon="-3.54239">
        <ele>69.2</ele>
      </trkpt>
      <trkpt lat="48.63334" lon="-3.54299">
        <ele>73.5</ele>
      </trkpt>
      <trkpt lat="48.63382" lon="-3.54402">
        <ele>73.9</ele>
      </trkpt>
      <trkpt lat="48.63438" lon="-3.54439">
        <ele>77</ele>
      </trkpt>
      <trkpt lat="48.63546" lon="-3.54734">
        <ele>72.4</ele>
      </trkpt>
      <trkpt lat="48.63615" lon="-3.5481">
        <ele>70.5</ele>
      </trkpt>
      <trkpt lat="48.63802" lon="-3.5484">
        <ele>74.5</ele>
      </trkpt>
      <trkpt lat="48.6387" lon="-3.54897">
        <ele>73.2</ele>
      </trkpt>
      <trkpt lat="48.63955" lon="-3.54888">
        <ele>78.6</ele>
      </trkpt>
      <trkpt lat="48.64002" lon="-3.54857">
        <ele>79.8</ele>
      </trkpt>
      <trkpt lat="48.64156" lon="-3.55193">
        <ele>74.4</ele>
      </trkpt>
      <trkpt lat="48.64268" lon="-3.55293">
        <ele>66.5</ele>
      </trkpt>
      <trkpt lat="48.64344" lon="-3.55359">
        <ele>60.4</ele>
      </trkpt>
      <trkpt lat="48.64529" lon="-3.55278">
        <ele>59</ele>
      </trkpt>
      <trkpt lat="48.64709" lon="-3.55361">
        <ele>53.4</ele>
      </trkpt>
      <trkpt lat="48.64867" lon="-3.55354">
        <ele>50.4</ele>
      </trkpt>
      <trkpt lat="48.64928" lon="-3.55235">
        <ele>59.3</ele>
      </trkpt>
      <trkpt lat="48.65246" lon="-3.55163">
        <ele>83.5</ele>
      </trkpt>
      <trkpt lat="48.6533" lon="-3.55041">
        <ele>91.2</ele>
      </trkpt>
      <trkpt lat="48.65584" lon="-3.54997">
        <ele>104.7</ele>
      </trkpt>
      <trkpt lat="48.65568" lon="-3.5475">
        <ele>110</ele>
      </trkpt>
      <trkpt lat="48.6572" lon="-3.54739">
        <ele>106.2</ele>
      </trkpt>
      <trkpt lat="48.65805" lon="-3.54645">
        <ele>105.4</ele>
      </trkpt>
      <trkpt lat="48.65836" lon="-3.54664">
        <ele>104.4</ele>
      </trkpt>
      <trkpt lat="48.65883" lon="-3.54645">
        <ele>105.8</ele>
      </trkpt>
      <trkpt lat="48.66086" lon="-3.54594">
        <ele>105</ele>
      </trkpt>
      <trkpt lat="48.66229" lon="-3.54582">
        <ele>101.2</ele>
      </trkpt>
      <trkpt lat="48.6625" lon="-3.54682">
        <ele>97.9</ele>
      </trkpt>
      <trkpt lat="48.66512" lon="-3.54667">
        <ele>102.9</ele>
      </trkpt>
      <trkpt lat="48.66627" lon="-3.54851">
        <ele>101.4</ele>
      </trkpt>
      <trkpt lat="48.66612" lon="-3.55142">
        <ele>93.6</ele>
      </trkpt>
      <trkpt lat="48.66455" lon="-3.55437">
        <ele>92</ele>
      </trkpt>
      <trkpt lat="48.66491" lon="-3.55617">
        <ele>92.6</ele>
      </trkpt>
      <trkpt lat="48.66429" lon="-3.55742">
        <ele>84.1</ele>
      </trkpt>
      <trkpt lat="48.66475" lon="-3.56006">
        <ele>51.1</ele>
      </trkpt>
      <trkpt lat="48.66351" lon="-3.56147">
        <ele>46.3</ele>
      </trkpt>
      <trkpt lat="48.66167" lon="-3.56229">
        <ele>37.4</ele>
      </trkpt>
      <trkpt lat="48.66199" lon="-3.56296">
        <ele>36</ele>
      </trkpt>
      <trkpt lat="48.66287" lon="-3.56277">
        <ele>34.1</ele>
      </trkpt>
      <trkpt lat="48.66381" lon="-3.56246">
        <ele>33.5</ele>
      </trkpt>
      <trkpt lat="48.66462" lon="-3.56338">
        <ele>55.2</ele>
      </trkpt>
      <trkpt lat="48.66549" lon="-3.56465">
        <ele>60.5</ele>
      </trkpt>
      <trkpt lat="48.66555" lon="-3.56601">
        <ele>62.4</ele>
      </trkpt>
      <trkpt lat="48.66333" lon="-3.56489">
        <ele>86.2</ele>
      </trkpt>
      <trkpt lat="48.66221" lon="-3.56661">
        <ele>102.8</ele>
      </trkpt>
      <trkpt lat="48.66074" lon="-3.56709">
        <ele>103.4</ele>
      </trkpt>
      <trkpt lat="48.66007" lon="-3.56637">
        <ele>104.9</ele>
      </trkpt>
      <trkpt lat="48.65543" lon="-3.5679">
        <ele>95.2</ele>
      </trkpt>
      <trkpt lat="48.65522" lon="-3.56963">
        <ele>98.7</ele>
      </trkpt>
      <trkpt lat="48.65556" lon="-3.56976">
        <ele>99.1</ele>
      </trkpt>
      <trkpt lat="48.6548" lon="-3.57343">
        <ele>79.8</ele>
      </trkpt>
      <trkpt lat="48.65544" lon="-3.57477">
        <ele>62.6</ele>
      </trkpt>
      <trkpt lat="48.65539" lon="-3.5756">
        <ele>64.4</ele>
      </trkpt>
      <trkpt lat="48.65725" lon="-3.57673">
        <ele>22.6</ele>
      </trkpt>
      <trkpt lat="48.65707" lon="-3.57734">
        <ele>23.1</ele>
      </trkpt>
      <trkpt lat="48.6587" lon="-3.57967">
        <ele>51.9</ele>
      </trkpt>
      <trkpt lat="48.66001" lon="-3.5822">
        <ele>80.1</ele>
      </trkpt>
      <trkpt lat="48.66068" lon="-3.5835">
        <ele>84.9</ele>
      </trkpt>
      <trkpt lat="48.66246" lon="-3.58414">
        <ele>83</ele>
      </trkpt>
      <trkpt lat="48.6641" lon="-3.58355">
        <ele>82.3</ele>
      </trkpt>
      <trkpt lat="48.6653" lon="-3.5832">
        <ele>88.9</ele>
      </trkpt>
      <trkpt lat="48.66513" lon="-3.58558">
        <ele>94</ele>
      </trkpt>
      <trkpt lat="48.66552" lon="-3.58689">
        <ele>94.6</ele>
      </trkpt>
      <trkpt lat="48.66676" lon="-3.5885">
        <ele>86.6</ele>
      </trkpt>
      <trkpt lat="48.66682" lon="-3.59016">
        <ele>82.2</ele>
      </trkpt>
      <trkpt lat="48.66602" lon="-3.59344">
        <ele>46.4</ele>
      </trkpt>
      <trkpt lat="48.6663" lon="-3.59567">
        <ele>16.9</ele>
      </trkpt>
      <trkpt lat="48.66628" lon="-3.59733">
        <ele>11.8</ele>
      </trkpt>
      <trkpt lat="48.66808" lon="-3.59821">
        <ele>8</ele>
      </trkpt>
      <trkpt lat="48.66802" lon="-3.60446">
        <ele>20.6</ele>
      </trkpt>
      <trkpt lat="48.66898" lon="-3.60722">
        <ele>13.7</ele>
      </trkpt>
      <trkpt lat="48.66953" lon="-3.61245">
        <ele>28.7</ele>
      </trkpt>
      <trkpt lat="48.66816" lon="-3.61722">
        <ele>43.3</ele>
      </trkpt>
      <trkpt lat="48.67313" lon="-3.6174">
        <ele>42.1</ele>
      </trkpt>
      <trkpt lat="48.67497" lon="-3.61868">
        <ele>43.1</ele>
      </trkpt>
      <trkpt lat="48.67738" lon="-3.62083">
        <ele>49.2</ele>
      </trkpt>
      <trkpt lat="48.68039" lon="-3.61961">
        <ele>61</ele>
      </trkpt>
      <trkpt lat="48.68075" lon="-3.62083">
        <ele>60.5</ele>
      </trkpt>
      <trkpt lat="48.68113" lon="-3.62337">
        <ele>54.4</ele>
      </trkpt>
      <trkpt lat="48.68054" lon="-3.62832">
        <ele>40.8</ele>
      </trkpt>
      <trkpt lat="48.68026" lon="-3.63367">
        <ele>36.4</ele>
      </trkpt>
      <trkpt lat="48.68032" lon="-3.63568">
        <ele>32</ele>
      </trkpt>
      <trkpt lat="48.67727" lon="-3.63659">
        <ele>30.7</ele>
      </trkpt>
      <trkpt lat="48.67442" lon="-3.63549">
        <ele>20.7</ele>
      </trkpt>
      <trkpt lat="48.67269" lon="-3.63431">
        <ele>20.6</ele>
      </trkpt>
      <trkpt lat="48.67112" lon="-3.63422">
        <ele>7.9</ele>
      </trkpt>
      <trkpt lat="48.67112" lon="-3.63422">
        <ele>7.9</ele>
      </trkpt>
      <trkpt lat="48.66899" lon="-3.63603">
        <ele>23.9</ele>
      </trkpt>
      <trkpt lat="48.66822" lon="-3.63643">
        <ele>24.2</ele>
      </trkpt>
      <trkpt lat="48.66769" lon="-3.63686">
        <ele>22.4</ele>
      </trkpt>
      <trkpt lat="48.6663" lon="-3.63612">
        <ele>30.3</ele>
      </trkpt>
      <trkpt lat="48.6647" lon="-3.63584">
        <ele>35</ele>
      </trkpt>
      <trkpt lat="48.66251" lon="-3.6351">
        <ele>42.4</ele>
      </trkpt>
      <trkpt lat="48.66016" lon="-3.636">
        <ele>37.7</ele>
      </trkpt>
      <trkpt lat="48.66033" lon="-3.63855">
        <ele>35.1</ele>
      </trkpt>
      <trkpt lat="48.65706" lon="-3.63798">
        <ele>33.1</ele>
      </trkpt>
      <trkpt lat="48.65425" lon="-3.64075">
        <ele>20.1</ele>
      </trkpt>
      <trkpt lat="48.65288" lon="-3.64406">
        <ele>38.8</ele>
      </trkpt>
      <trkpt lat="48.65009" lon="-3.64008">
        <ele>37.9</ele>
      </trkpt>
      <trkpt lat="48.65162" lon="-3.63839">
        <ele>21.9</ele>
      </trkpt>
      <trkpt lat="48.64863" lon="-3.63663">
        <ele>29.4</ele>
      </trkpt>
      <trkpt lat="48.64611" lon="-3.63655">
        <ele>32.5</ele>
      </trkpt>
      <trkpt lat="48.64577" lon="-3.63719">
        <ele>30.3</ele>
      </trkpt>
      <trkpt lat="48.64439" lon="-3.63663">
        <ele>34.4</ele>
      </trkpt>
      <trkpt lat="48.64384" lon="-3.63682">
        <ele>33.2</ele>
      </trkpt>
      <trkpt lat="48.64329" lon="-3.63998">
        <ele>46.2</ele>
      </trkpt>
      <trkpt lat="48.63717" lon="-3.64122">
        <ele>44.6</ele>
      </trkpt>
      <trkpt lat="48.63826" lon="-3.6477">
        <ele>47.3</ele>
      </trkpt>
      <trkpt lat="48.63547" lon="-3.64747">
        <ele>49.1</ele>
      </trkpt>
      <trkpt lat="48.63359" lon="-3.64676">
        <ele>52.3</ele>
      </trkpt>
      <trkpt lat="48.63267" lon="-3.64841">
        <ele>49.5</ele>
      </trkpt>
      <trkpt lat="48.63237" lon="-3.64985">
        <ele>42.2</ele>
      </trkpt>
      <trkpt lat="48.62892" lon="-3.65286">
        <ele>36.3</ele>
      </trkpt>
      <trkpt lat="48.62593" lon="-3.65129">
        <ele>41.1</ele>
      </trkpt>
      <trkpt lat="48.62471" lon="-3.6491">
        <ele>54.5</ele>
      </trkpt>
      <trkpt lat="48.6228" lon="-3.64918">
        <ele>54.3</ele>
      </trkpt>
      <trkpt lat="48.6229" lon="-3.64593">
        <ele>65.2</ele>
      </trkpt>
      <trkpt lat="48.62167" lon="-3.64266">
        <ele>87</ele>
      </trkpt>
      <trkpt lat="48.62029" lon="-3.6411">
        <ele>97.4</ele>
      </trkpt>
      <trkpt lat="48.62036" lon="-3.64364">
        <ele>92.4</ele>
      </trkpt>
      <trkpt lat="48.61948" lon="-3.64456">
        <ele>91.2</ele>
      </trkpt>
      <trkpt lat="48.61916" lon="-3.64623">
        <ele>82.2</ele>
      </trkpt>
      <trkpt lat="48.61916" lon="-3.64746">
        <ele>71.6</ele>
      </trkpt>
      <trkpt lat="48.61814" lon="-3.65183">
        <ele>39.3</ele>
      </trkpt>
      <trkpt lat="48.61507" lon="-3.65044">
        <ele>69.9</ele>
      </trkpt>
      <trkpt lat="48.61312" lon="-3.65061">
        <ele>54.6</ele>
      </trkpt>
      <trkpt lat="48.61168" lon="-3.6485">
        <ele>77.5</ele>
      </trkpt>
      <trkpt lat="48.61245" lon="-3.64653">
        <ele>94.5</ele>
      </trkpt>
      <trkpt lat="48.61248" lon="-3.64482">
        <ele>97.9</ele>
      </trkpt>
      <trkpt lat="48.6137" lon="-3.64429">
        <ele>106.9</ele>
      </trkpt>
      <trkpt lat="48.61311" lon="-3.64241">
        <ele>94.9</ele>
      </trkpt>
      <trkpt lat="48.61367" lon="-3.64102">
        <ele>92</ele>
      </trkpt>
      <trkpt lat="48.61366" lon="-3.63872">
        <ele>101.1</ele>
      </trkpt>
      <trkpt lat="48.61211" lon="-3.63592">
        <ele>90.7</ele>
      </trkpt>
      <trkpt lat="48.61132" lon="-3.63568">
        <ele>87.4</ele>
      </trkpt>
      <trkpt lat="48.61052" lon="-3.63491">
        <ele>92</ele>
      </trkpt>
      <trkpt lat="48.60905" lon="-3.63527">
        <ele>91</ele>
      </trkpt>
      <trkpt lat="48.60752" lon="-3.63358">
        <ele>94.9</ele>
      </trkpt>
      <trkpt lat="48.60701" lon="-3.63211">
        <ele>92.6</ele>
      </trkpt>
      <trkpt lat="48.60579" lon="-3.63124">
        <ele>104.9</ele>
      </trkpt>
      <trkpt lat="48.60353" lon="-3.63035">
        <ele>106.5</ele>
      </trkpt>
      <trkpt lat="48.6044" lon="-3.62612">
        <ele>124.6</ele>
      </trkpt>
      <trkpt lat="48.60565" lon="-3.62494">
        <ele>120.8</ele>
      </trkpt>
      <trkpt lat="48.60763" lon="-3.62053">
        <ele>123</ele>
      </trkpt>
      <trkpt lat="48.60685" lon="-3.61869">
        <ele>122.5</ele>
      </trkpt>
      <trkpt lat="48.60324" lon="-3.61906">
        <ele>121.2</ele>
      </trkpt>
      <trkpt lat="48.59698" lon="-3.622">
        <ele>113.9</ele>
      </trkpt>
      <trkpt lat="48.5959" lon="-3.62163">
        <ele>121.2</ele>
      </trkpt>
      <trkpt lat="48.59555" lon="-3.61813">
        <ele>122.9</ele>
      </trkpt>
      <trkpt lat="48.59819" lon="-3.61604">
        <ele>119.4</ele>
      </trkpt>
      <trkpt lat="48.59975" lon="-3.6152">
        <ele>123.8</ele>
      </trkpt>
      <trkpt lat="48.60138" lon="-3.61354">
        <ele>130.5</ele>
      </trkpt>
      <trkpt lat="48.60153" lon="-3.61252">
        <ele>131</ele>
      </trkpt>
      <trkpt lat="48.6026" lon="-3.61119">
        <ele>131</ele>
      </trkpt>
      <trkpt lat="48.60155" lon="-3.61013">
        <ele>129.4</ele>
      </trkpt>
      <trkpt lat="48.60074" lon="-3.60449">
        <ele>111.6</ele>
      </trkpt>
      <trkpt lat="48.59958" lon="-3.60304">
        <ele>105.7</ele>
      </trkpt>
      <trkpt lat="48.59919" lon="-3.60114">
        <ele>91</ele>
      </trkpt>
      <trkpt lat="48.59852" lon="-3.59994">
        <ele>98.5</ele>
      </trkpt>
      <trkpt lat="48.59625" lon="-3.60076">
        <ele>95.1</ele>
      </trkpt>
      <trkpt lat="48.59485" lon="-3.59762">
        <ele>100.1</ele>
      </trkpt>
      <trkpt lat="48.59132" lon="-3.59654">
        <ele>125.1</ele>
      </trkpt>
      <trkpt lat="48.591" lon="-3.59586">
        <ele>129.7</ele>
      </trkpt>
      <trkpt lat="48.59019" lon="-3.59577">
        <ele>132.3</ele>
      </trkpt>
      <trkpt lat="48.58978" lon="-3.59627">
        <ele>131.2</ele>
      </trkpt>
      <trkpt lat="48.58887" lon="-3.59962">
        <ele>136.4</ele>
      </trkpt>
      <trkpt lat="48.58836" lon="-3.60146">
        <ele>133.9</ele>
      </trkpt>
      <trkpt lat="48.5869" lon="-3.60159">
        <ele>125.2</ele>
      </trkpt>
      <trkpt lat="48.58553" lon="-3.60041">
        <ele>137.6</ele>
      </trkpt>
      <trkpt lat="48.58453" lon="-3.59899">
        <ele>144.7</ele>
      </trkpt>
      <trkpt lat="48.58313" lon="-3.5978">
        <ele>145.3</ele>
      </trkpt>
      <trkpt lat="48.58188" lon="-3.59722">
        <ele>144.9</ele>
      </trkpt>
      <trkpt lat="48.58067" lon="-3.59732">
        <ele>141</ele>
      </trkpt>
      <trkpt lat="48.57903" lon="-3.59782">
        <ele>151.6</ele>
      </trkpt>
      <trkpt lat="48.57733" lon="-3.59616">
        <ele>154.2</ele>
      </trkpt>
      <trkpt lat="48.57666" lon="-3.59613">
        <ele>147</ele>
      </trkpt>
      <trkpt lat="48.57681" lon="-3.59679">
        <ele>146.3</ele>
      </trkpt>
      <trkpt lat="48.57548" lon="-3.59819">
        <ele>153.3</ele>
      </trkpt>
      <trkpt lat="48.57622" lon="-3.5997">
        <ele>147</ele>
      </trkpt>
      <trkpt lat="48.57719" lon="-3.60102">
        <ele>139.5</ele>
      </trkpt>
      <trkpt lat="48.57885" lon="-3.60403">
        <ele>137.5</ele>
      </trkpt>
      <trkpt lat="48.57884" lon="-3.60418">
        <ele>139.3</ele>
      </trkpt>
      <trkpt lat="48.5789" lon="-3.60424">
        <ele>139.6</ele>
      </trkpt>
      <trkpt lat="48.57885" lon="-3.60394">
        <ele>136.5</ele>
      </trkpt>
      <trkpt lat="48.57742" lon="-3.60543">
        <ele>161.3</ele>
      </trkpt>
      <trkpt lat="48.57478" lon="-3.6066">
        <ele>174</ele>
      </trkpt>
      <trkpt lat="48.57401" lon="-3.60811">
        <ele>173.9</ele>
      </trkpt>
      <trkpt lat="48.57243" lon="-3.60934">
        <ele>175.6</ele>
      </trkpt>
      <trkpt lat="48.57175" lon="-3.61136">
        <ele>172.5</ele>
      </trkpt>
      <trkpt lat="48.57175" lon="-3.61584">
        <ele>142.9</ele>
      </trkpt>
      <trkpt lat="48.57006" lon="-3.61614">
        <ele>152.3</ele>
      </trkpt>
      <trkpt lat="48.56919" lon="-3.61711">
        <ele>157.3</ele>
      </trkpt>
      <trkpt lat="48.56765" lon="-3.61703">
        <ele>163.4</ele>
      </trkpt>
      <trkpt lat="48.56596" lon="-3.61646">
        <ele>160.1</ele>
      </trkpt>
      <trkpt lat="48.56488" lon="-3.61545">
        <ele>154.9</ele>
      </trkpt>
      <trkpt lat="48.56268" lon="-3.61486">
        <ele>160.9</ele>
      </trkpt>
      <trkpt lat="48.56144" lon="-3.61647">
        <ele>152.5</ele>
      </trkpt>
      <trkpt lat="48.56032" lon="-3.61668">
        <ele>144.1</ele>
      </trkpt>
      <trkpt lat="48.55934" lon="-3.617">
        <ele>141</ele>
      </trkpt>
      <trkpt lat="48.55804" lon="-3.61719">
        <ele>147.3</ele>
      </trkpt>
      <trkpt lat="48.55792" lon="-3.61577">
        <ele>163.3</ele>
      </trkpt>
      <trkpt lat="48.5584" lon="-3.61373">
        <ele>187.3</ele>
      </trkpt>
      <trkpt lat="48.55784" lon="-3.61348">
        <ele>199</ele>
      </trkpt>
      <trkpt lat="48.55764" lon="-3.61223">
        <ele>211.8</ele>
      </trkpt>
      <trkpt lat="48.55688" lon="-3.61195">
        <ele>225.3</ele>
      </trkpt>
      <trkpt lat="48.55645" lon="-3.61157">
        <ele>231.3</ele>
      </trkpt>
      <trkpt lat="48.55456" lon="-3.61105">
        <ele>243.9</ele>
      </trkpt>
      <trkpt lat="48.55417" lon="-3.60931">
        <ele>243.4</ele>
      </trkpt>
      <trkpt lat="48.55307" lon="-3.60884">
        <ele>243.6</ele>
      </trkpt>
      <trkpt lat="48.55323" lon="-3.60768">
        <ele>243</ele>
      </trkpt>
      <trkpt lat="48.55391" lon="-3.60377">
        <ele>245.3</ele>
      </trkpt>
      <trkpt lat="48.54963" lon="-3.60256">
        <ele>246.4</ele>
      </trkpt>
      <trkpt lat="48.5459" lon="-3.60106">
        <ele>247.1</ele>
      </trkpt>
      <trkpt lat="48.54568" lon="-3.59714">
        <ele>235.2</ele>
      </trkpt>
      <trkpt lat="48.54438" lon="-3.59464">
        <ele>233.1</ele>
      </trkpt>
      <trkpt lat="48.54452" lon="-3.59315">
        <ele>217.9</ele>
      </trkpt>
      <trkpt lat="48.54398" lon="-3.59299">
        <ele>214.2</ele>
      </trkpt>
      <trkpt lat="48.54424" lon="-3.59157">
        <ele>207.1</ele>
      </trkpt>
      <trkpt lat="48.5416" lon="-3.59336">
        <ele>203.6</ele>
      </trkpt>
      <trkpt lat="48.5401" lon="-3.59216">
        <ele>202.4</ele>
      </trkpt>
      <trkpt lat="48.53916" lon="-3.59367">
        <ele>205.2</ele>
      </trkpt>
      <trkpt lat="48.53796" lon="-3.59348">
        <ele>212.7</ele>
      </trkpt>
      <trkpt lat="48.536" lon="-3.59399">
        <ele>230.6</ele>
      </trkpt>
      <trkpt lat="48.53421" lon="-3.59363">
        <ele>236.9</ele>
      </trkpt>
      <trkpt lat="48.53319" lon="-3.59391">
        <ele>236</ele>
      </trkpt>
      <trkpt lat="48.53031" lon="-3.59456">
        <ele>229</ele>
      </trkpt>
      <trkpt lat="48.52941" lon="-3.59333">
        <ele>226.8</ele>
      </trkpt>
      <trkpt lat="48.52797" lon="-3.59351">
        <ele>223.4</ele>
      </trkpt>
      <trkpt lat="48.52706" lon="-3.59306">
        <ele>215.6</ele>
      </trkpt>
      <trkpt lat="48.52652" lon="-3.59223">
        <ele>219.5</ele>
      </trkpt>
      <trkpt lat="48.52416" lon="-3.59172">
        <ele>233.7</ele>
      </trkpt>
      <trkpt lat="48.52344" lon="-3.59114">
        <ele>233.4</ele>
      </trkpt>
      <trkpt lat="48.52276" lon="-3.59101">
        <ele>227.8</ele>
      </trkpt>
      <trkpt lat="48.52181" lon="-3.59062">
        <ele>225.4</ele>
      </trkpt>
      <trkpt lat="48.52011" lon="-3.58979">
        <ele>218.5</ele>
      </trkpt>
      <trkpt lat="48.51849" lon="-3.58966">
        <ele>212.8</ele>
      </trkpt>
      <trkpt lat="48.51778" lon="-3.58879">
        <ele>207.8</ele>
      </trkpt>
      <trkpt lat="48.51817" lon="-3.58543">
        <ele>193.7</ele>
      </trkpt>
      <trkpt lat="48.51767" lon="-3.58537">
        <ele>194.9</ele>
      </trkpt>
      <trkpt lat="48.51732" lon="-3.58379">
        <ele>192.6</ele>
      </trkpt>
      <trkpt lat="48.51765" lon="-3.58304">
        <ele>191.9</ele>
      </trkpt>
      <trkpt lat="48.51793" lon="-3.58059">
        <ele>197.4</ele>
      </trkpt>
      <trkpt lat="48.51708" lon="-3.57499">
        <ele>188.7</ele>
      </trkpt>
      <trkpt lat="48.51533" lon="-3.57562">
        <ele>183.5</ele>
      </trkpt>
      <trkpt lat="48.51351" lon="-3.57474">
        <ele>188.5</ele>
      </trkpt>
      <trkpt lat="48.51221" lon="-3.57352">
        <ele>207.2</ele>
      </trkpt>
      <trkpt lat="48.51135" lon="-3.57449">
        <ele>195.4</ele>
      </trkpt>
      <trkpt lat="48.50815" lon="-3.57778">
        <ele>198</ele>
      </trkpt>
      <trkpt lat="48.50525" lon="-3.57822">
        <ele>195.2</ele>
      </trkpt>
      <trkpt lat="48.50531" lon="-3.57906">
        <ele>196.1</ele>
      </trkpt>
      <trkpt lat="48.50397" lon="-3.57983">
        <ele>199.9</ele>
      </trkpt>
      <trkpt lat="48.50392" lon="-3.58144">
        <ele>190.1</ele>
      </trkpt>
      <trkpt lat="48.50354" lon="-3.58183">
        <ele>191.3</ele>
      </trkpt>
      <trkpt lat="48.50281" lon="-3.58408">
        <ele>196.4</ele>
      </trkpt>
      <trkpt lat="48.50155" lon="-3.58862">
        <ele>194.2</ele>
      </trkpt>
      <trkpt lat="48.50236" lon="-3.58983">
        <ele>189</ele>
      </trkpt>
      <trkpt lat="48.50087" lon="-3.59196">
        <ele>190.8</ele>
      </trkpt>
      <trkpt lat="48.50093" lon="-3.59274">
        <ele>196.7</ele>
      </trkpt>
      <trkpt lat="48.50063" lon="-3.59489">
        <ele>216.5</ele>
      </trkpt>
      <trkpt lat="48.50108" lon="-3.59659">
        <ele>236.1</ele>
      </trkpt>
      <trkpt lat="48.50255" lon="-3.59915">
        <ele>232.9</ele>
      </trkpt>
      <trkpt lat="48.50251" lon="-3.59988">
        <ele>230.3</ele>
      </trkpt>
      <trkpt lat="48.50281" lon="-3.60078">
        <ele>225.1</ele>
      </trkpt>
      <trkpt lat="48.50403" lon="-3.60131">
        <ele>234.2</ele>
      </trkpt>
      <trkpt lat="48.50442" lon="-3.60311">
        <ele>236.2</ele>
      </trkpt>
      <trkpt lat="48.50304" lon="-3.6087">
        <ele>247.1</ele>
      </trkpt>
      <trkpt lat="48.50494" lon="-3.6073">
        <ele>249.1</ele>
      </trkpt>
      <trkpt lat="48.50649" lon="-3.60939">
        <ele>235.6</ele>
      </trkpt>
      <trkpt lat="48.50762" lon="-3.60958">
        <ele>229.3</ele>
      </trkpt>
      <trkpt lat="48.50863" lon="-3.60954">
        <ele>221</ele>
      </trkpt>
      <trkpt lat="48.5084" lon="-3.61127">
        <ele>213.8</ele>
      </trkpt>
      <trkpt lat="48.5075" lon="-3.61204">
        <ele>211.5</ele>
      </trkpt>
      <trkpt lat="48.50807" lon="-3.616">
        <ele>198.5</ele>
      </trkpt>
      <trkpt lat="48.50763" lon="-3.61547">
        <ele>203.6</ele>
      </trkpt>
      <trkpt lat="48.5059" lon="-3.61726">
        <ele>228.7</ele>
      </trkpt>
      <trkpt lat="48.50585" lon="-3.61886">
        <ele>229.3</ele>
      </trkpt>
      <trkpt lat="48.5065" lon="-3.61893">
        <ele>225.2</ele>
      </trkpt>
      <trkpt lat="48.50596" lon="-3.62107">
        <ele>224.7</ele>
      </trkpt>
      <trkpt lat="48.50475" lon="-3.62127">
        <ele>220</ele>
      </trkpt>
      <trkpt lat="48.50388" lon="-3.62491">
        <ele>233.7</ele>
      </trkpt>
      <trkpt lat="48.50246" lon="-3.62528">
        <ele>242.1</ele>
      </trkpt>
      <trkpt lat="48.50315" lon="-3.62639">
        <ele>240</ele>
      </trkpt>
      <trkpt lat="48.50373" lon="-3.62889">
        <ele>238.2</ele>
      </trkpt>
      <trkpt lat="48.49962" lon="-3.62818">
        <ele>237.3</ele>
      </trkpt>
      <trkpt lat="48.49712" lon="-3.62751">
        <ele>241.7</ele>
      </trkpt>
      <trkpt lat="48.49543" lon="-3.62838">
        <ele>230.8</ele>
      </trkpt>
      <trkpt lat="48.49493" lon="-3.62936">
        <ele>224.9</ele>
      </trkpt>
      <trkpt lat="48.49118" lon="-3.63058">
        <ele>228.8</ele>
      </trkpt>
      <trkpt lat="48.49133" lon="-3.63278">
        <ele>226.9</ele>
      </trkpt>
      <trkpt lat="48.4893" lon="-3.63454">
        <ele>241</ele>
      </trkpt>
      <trkpt lat="48.4883" lon="-3.63434">
        <ele>236.9</ele>
      </trkpt>
      <trkpt lat="48.48755" lon="-3.63459">
        <ele>230.2</ele>
      </trkpt>
      <trkpt lat="48.48745" lon="-3.63535">
        <ele>224.1</ele>
      </trkpt>
      <trkpt lat="48.4862" lon="-3.63566">
        <ele>211.7</ele>
      </trkpt>
      <trkpt lat="48.48682" lon="-3.63738">
        <ele>212.7</ele>
      </trkpt>
      <trkpt lat="48.48653" lon="-3.63861">
        <ele>215.2</ele>
      </trkpt>
      <trkpt lat="48.48715" lon="-3.63917">
        <ele>208.3</ele>
      </trkpt>
      <trkpt lat="48.48714" lon="-3.63965">
        <ele>204.5</ele>
      </trkpt>
      <trkpt lat="48.48656" lon="-3.64008">
        <ele>203.9</ele>
      </trkpt>
      <trkpt lat="48.48649" lon="-3.64148">
        <ele>195.4</ele>
      </trkpt>
      <trkpt lat="48.48558" lon="-3.64312">
        <ele>199.6</ele>
      </trkpt>
      <trkpt lat="48.48443" lon="-3.64527">
        <ele>196.5</ele>
      </trkpt>
      <trkpt lat="48.48374" lon="-3.64452">
        <ele>215.2</ele>
      </trkpt>
      <trkpt lat="48.48272" lon="-3.64503">
        <ele>214.1</ele>
      </trkpt>
      <trkpt lat="48.48315" lon="-3.64751">
        <ele>199</ele>
      </trkpt>
      <trkpt lat="48.48325" lon="-3.65056">
        <ele>198</ele>
      </trkpt>
      <trkpt lat="48.484" lon="-3.65244">
        <ele>205.2</ele>
      </trkpt>
      <trkpt lat="48.48358" lon="-3.65671">
        <ele>216.9</ele>
      </trkpt>
      <trkpt lat="48.4837" lon="-3.66062">
        <ele>232.6</ele>
      </trkpt>
      <trkpt lat="48.48666" lon="-3.66043">
        <ele>247.5</ele>
      </trkpt>
      <trkpt lat="48.48755" lon="-3.65888">
        <ele>245.4</ele>
      </trkpt>
      <trkpt lat="48.4882" lon="-3.65886">
        <ele>245.6</ele>
      </trkpt>
      <trkpt lat="48.48801" lon="-3.66175">
        <ele>248.6</ele>
      </trkpt>
      <trkpt lat="48.48909" lon="-3.6628">
        <ele>239.3</ele>
      </trkpt>
      <trkpt lat="48.48966" lon="-3.66375">
        <ele>232.1</ele>
      </trkpt>
      <trkpt lat="48.49007" lon="-3.66515">
        <ele>231.6</ele>
      </trkpt>
      <trkpt lat="48.48996" lon="-3.66651">
        <ele>237</ele>
      </trkpt>
      <trkpt lat="48.49026" lon="-3.6679">
        <ele>244.2</ele>
      </trkpt>
      <trkpt lat="48.48948" lon="-3.66976">
        <ele>252.4</ele>
      </trkpt>
      <trkpt lat="48.48875" lon="-3.67154">
        <ele>259.4</ele>
      </trkpt>
      <trkpt lat="48.48765" lon="-3.67077">
        <ele>267</ele>
      </trkpt>
      <trkpt lat="48.48659" lon="-3.6693">
        <ele>267.5</ele>
      </trkpt>
      <trkpt lat="48.48611" lon="-3.67201">
        <ele>277.9</ele>
      </trkpt>
      <trkpt lat="48.48571" lon="-3.67294">
        <ele>280.3</ele>
      </trkpt>
      <trkpt lat="48.48594" lon="-3.67526">
        <ele>272.6</ele>
      </trkpt>
      <trkpt lat="48.48585" lon="-3.67568">
        <ele>272.6</ele>
      </trkpt>
      <trkpt lat="48.48336" lon="-3.67427">
        <ele>253.9</ele>
      </trkpt>
      <trkpt lat="48.48122" lon="-3.67496">
        <ele>237.4</ele>
      </trkpt>
      <trkpt lat="48.48064" lon="-3.67688">
        <ele>240.8</ele>
      </trkpt>
      <trkpt lat="48.4794" lon="-3.67654">
        <ele>218.9</ele>
      </trkpt>
      <trkpt lat="48.47918" lon="-3.67895">
        <ele>221.9</ele>
      </trkpt>
      <trkpt lat="48.47865" lon="-3.68171">
        <ele>240.3</ele>
      </trkpt>
      <trkpt lat="48.47808" lon="-3.6811">
        <ele>237.4</ele>
      </trkpt>
      <trkpt lat="48.4777" lon="-3.68145">
        <ele>235.7</ele>
      </trkpt>
      <trkpt lat="48.47673" lon="-3.68392">
        <ele>222.1</ele>
      </trkpt>
      <trkpt lat="48.4777" lon="-3.68461">
        <ele>222.6</ele>
      </trkpt>
      <trkpt lat="48.47693" lon="-3.68958">
        <ele>222.1</ele>
      </trkpt>
      <trkpt lat="48.47921" lon="-3.69052">
        <ele>240.7</ele>
      </trkpt>
      <trkpt lat="48.48043" lon="-3.6914">
        <ele>242.7</ele>
      </trkpt>
      <trkpt lat="48.4824" lon="-3.69126">
        <ele>252.7</ele>
      </trkpt>
      <trkpt lat="48.48169" lon="-3.6937">
        <ele>248.3</ele>
      </trkpt>
      <trkpt lat="48.48282" lon="-3.69456">
        <ele>261.9</ele>
      </trkpt>
      <trkpt lat="48.48427" lon="-3.6956">
        <ele>274.8</ele>
      </trkpt>
      <trkpt lat="48.48378" lon="-3.69832">
        <ele>291.5</ele>
      </trkpt>
      <trkpt lat="48.48529" lon="-3.69908">
        <ele>297.6</ele>
      </trkpt>
      <trkpt lat="48.48644" lon="-3.70008">
        <ele>296.2</ele>
      </trkpt>
      <trkpt lat="48.48654" lon="-3.70049">
        <ele>295.8</ele>
      </trkpt>
      <trkpt lat="48.49234" lon="-3.7034">
        <ele>239.4</ele>
      </trkpt>
      <trkpt lat="48.49201" lon="-3.70623">
        <ele>237.5</ele>
      </trkpt>
      <trkpt lat="48.49197" lon="-3.70872">
        <ele>229.2</ele>
      </trkpt>
      <trkpt lat="48.49093" lon="-3.70996">
        <ele>228.1</ele>
      </trkpt>
      <trkpt lat="48.48916" lon="-3.71">
        <ele>242.1</ele>
      </trkpt>
      <trkpt lat="48.48813" lon="-3.71338">
        <ele>252.4</ele>
      </trkpt>
      <trkpt lat="48.48651" lon="-3.71417">
        <ele>259</ele>
      </trkpt>
      <trkpt lat="48.48464" lon="-3.7191">
        <ele>254.8</ele>
      </trkpt>
      <trkpt lat="48.4866" lon="-3.7188">
        <ele>241.7</ele>
      </trkpt>
      <trkpt lat="48.48903" lon="-3.72113">
        <ele>217</ele>
      </trkpt>
      <trkpt lat="48.49036" lon="-3.72163">
        <ele>218.5</ele>
      </trkpt>
      <trkpt lat="48.49217" lon="-3.72442">
        <ele>230.9</ele>
      </trkpt>
      <trkpt lat="48.49691" lon="-3.72783">
        <ele>191.8</ele>
      </trkpt>
      <trkpt lat="48.50153" lon="-3.72933">
        <ele>167.2</ele>
      </trkpt>
      <trkpt lat="48.50194" lon="-3.72782">
        <ele>165.9</ele>
      </trkpt>
      <trkpt lat="48.50238" lon="-3.72719">
        <ele>162.9</ele>
      </trkpt>
      <trkpt lat="48.50297" lon="-3.72662">
        <ele>160</ele>
      </trkpt>
      <trkpt lat="48.50757" lon="-3.72853">
        <ele>159.7</ele>
      </trkpt>
      <trkpt lat="48.50738" lon="-3.72933">
        <ele>159.1</ele>
      </trkpt>
      <trkpt lat="48.50777" lon="-3.73128">
        <ele>153.9</ele>
      </trkpt>
      <trkpt lat="48.50803" lon="-3.73315">
        <ele>154.3</ele>
      </trkpt>
      <trkpt lat="48.50703" lon="-3.73503">
        <ele>144</ele>
      </trkpt>
      <trkpt lat="48.50654" lon="-3.73507">
        <ele>144.8</ele>
      </trkpt>
      <trkpt lat="48.50583" lon="-3.73894">
        <ele>160</ele>
      </trkpt>
      <trkpt lat="48.50428" lon="-3.74265">
        <ele>172.8</ele>
      </trkpt>
      <trkpt lat="48.50367" lon="-3.74695">
        <ele>173</ele>
      </trkpt>
      <trkpt lat="48.50411" lon="-3.74715">
        <ele>173.3</ele>
      </trkpt>
      <trkpt lat="48.50462" lon="-3.75295">
        <ele>154.9</ele>
      </trkpt>
      <trkpt lat="48.50517" lon="-3.75414">
        <ele>147</ele>
      </trkpt>
      <trkpt lat="48.50481" lon="-3.75483">
        <ele>140.9</ele>
      </trkpt>
      <trkpt lat="48.5051" lon="-3.75549">
        <ele>137.9</ele>
      </trkpt>
      <trkpt lat="48.50638" lon="-3.75511">
        <ele>143.6</ele>
      </trkpt>
      <trkpt lat="48.50766" lon="-3.7555">
        <ele>140</ele>
      </trkpt>
      <trkpt lat="48.51071" lon="-3.75717">
        <ele>122.6</ele>
      </trkpt>
      <trkpt lat="48.5126" lon="-3.75933">
        <ele>120.7</ele>
      </trkpt>
      <trkpt lat="48.51409" lon="-3.76131">
        <ele>114.7</ele>
      </trkpt>
      <trkpt lat="48.51563" lon="-3.76285">
        <ele>115.7</ele>
      </trkpt>
      <trkpt lat="48.517" lon="-3.76321">
        <ele>114.8</ele>
      </trkpt>
      <trkpt lat="48.51835" lon="-3.76322">
        <ele>114.3</ele>
      </trkpt>
      <trkpt lat="48.51999" lon="-3.76366">
        <ele>110.7</ele>
      </trkpt>
      <trkpt lat="48.52112" lon="-3.76462">
        <ele>110.4</ele>
      </trkpt>
      <trkpt lat="48.52139" lon="-3.76387">
        <ele>116.1</ele>
      </trkpt>
      <trkpt lat="48.52137" lon="-3.76424">
        <ele>114.5</ele>
      </trkpt>
      <trkpt lat="48.52395" lon="-3.76597">
        <ele>116.4</ele>
      </trkpt>
      <trkpt lat="48.52755" lon="-3.76429">
        <ele>109.1</ele>
      </trkpt>
      <trkpt lat="48.52964" lon="-3.76178">
        <ele>105.8</ele>
      </trkpt>
      <trkpt lat="48.53075" lon="-3.76218">
        <ele>101.2</ele>
      </trkpt>
      <trkpt lat="48.5327" lon="-3.76347">
        <ele>96.1</ele>
      </trkpt>
      <trkpt lat="48.53464" lon="-3.76257">
        <ele>83.7</ele>
      </trkpt>
      <trkpt lat="48.53538" lon="-3.76272">
        <ele>76.9</ele>
      </trkpt>
      <trkpt lat="48.5373" lon="-3.76423">
        <ele>93.8</ele>
      </trkpt>
      <trkpt lat="48.53917" lon="-3.76466">
        <ele>84.3</ele>
      </trkpt>
      <trkpt lat="48.53999" lon="-3.76537">
        <ele>90.9</ele>
      </trkpt>
      <trkpt lat="48.54075" lon="-3.76814">
        <ele>93.1</ele>
      </trkpt>
      <trkpt lat="48.54142" lon="-3.76916">
        <ele>86.9</ele>
      </trkpt>
      <trkpt lat="48.54557" lon="-3.77198">
        <ele>87.2</ele>
      </trkpt>
      <trkpt lat="48.54653" lon="-3.77427">
        <ele>79.1</ele>
      </trkpt>
      <trkpt lat="48.54781" lon="-3.77659">
        <ele>75.5</ele>
      </trkpt>
      <trkpt lat="48.5494" lon="-3.77858">
        <ele>73.4</ele>
      </trkpt>
      <trkpt lat="48.55136" lon="-3.78124">
        <ele>59.8</ele>
      </trkpt>
      <trkpt lat="48.55202" lon="-3.78349">
        <ele>57.4</ele>
      </trkpt>
      <trkpt lat="48.55471" lon="-3.78788">
        <ele>53</ele>
      </trkpt>
      <trkpt lat="48.55677" lon="-3.79166">
        <ele>43.1</ele>
      </trkpt>
      <trkpt lat="48.55864" lon="-3.79334">
        <ele>41.3</ele>
      </trkpt>
      <trkpt lat="48.5595" lon="-3.79503">
        <ele>34.3</ele>
      </trkpt>
      <trkpt lat="48.56032" lon="-3.7964">
        <ele>32.7</ele>
      </trkpt>
      <trkpt lat="48.56133" lon="-3.79747">
        <ele>27.9</ele>
      </trkpt>
      <trkpt lat="48.56255" lon="-3.79784">
        <ele>26.4</ele>
      </trkpt>
      <trkpt lat="48.56414" lon="-3.79807">
        <ele>27</ele>
      </trkpt>
      <trkpt lat="48.56552" lon="-3.79884">
        <ele>28.7</ele>
      </trkpt>
      <trkpt lat="48.56618" lon="-3.79895">
        <ele>29.7</ele>
      </trkpt>
      <trkpt lat="48.5668" lon="-3.79899">
        <ele>23.1</ele>
      </trkpt>
      <trkpt lat="48.56686" lon="-3.79988">
        <ele>19.9</ele>
      </trkpt>
      <trkpt lat="48.56723" lon="-3.80046">
        <ele>19</ele>
      </trkpt>
      <trkpt lat="48.5701" lon="-3.80293">
        <ele>22.4</ele>
      </trkpt>
      <trkpt lat="48.57079" lon="-3.80461">
        <ele>20.4</ele>
      </trkpt>
      <trkpt lat="48.57103" lon="-3.8077">
        <ele>37.4</ele>
      </trkpt>
      <trkpt lat="48.57222" lon="-3.81018">
        <ele>43.5</ele>
      </trkpt>
      <trkpt lat="48.57359" lon="-3.81179">
        <ele>40</ele>
      </trkpt>
      <trkpt lat="48.57524" lon="-3.81504">
        <ele>44.3</ele>
      </trkpt>
      <trkpt lat="48.57785" lon="-3.81746">
        <ele>60.1</ele>
      </trkpt>
      <trkpt lat="48.5769" lon="-3.81979">
        <ele>46.1</ele>
      </trkpt>
      <trkpt lat="48.57657" lon="-3.82193">
        <ele>27.4</ele>
      </trkpt>
      <trkpt lat="48.57694" lon="-3.82499">
        <ele>8.8</ele>
      </trkpt>
      <trkpt lat="48.57629" lon="-3.82631">
        <ele>11.9</ele>
      </trkpt>
      <trkpt lat="48.57712" lon="-3.82729">
        <ele>7.6</ele>
      </trkpt>
      <trkpt lat="48.57655" lon="-3.8279">
        <ele>10.4</ele>
      </trkpt>
      <trkpt lat="48.57826" lon="-3.8297">
        <ele>20.3</ele>
      </trkpt>
      <trkpt lat="48.58025" lon="-3.83126">
        <ele>17</ele>
      </trkpt>
      <trkpt lat="48.58131" lon="-3.83305">
        <ele>12.2</ele>
      </trkpt>
      <trkpt lat="48.58387" lon="-3.83546">
        <ele>6.3</ele>
      </trkpt>
      <trkpt lat="48.58379" lon="-3.8362">
        <ele>10.4</ele>
      </trkpt>
      <trkpt lat="48.58515" lon="-3.83744">
        <ele>17</ele>
      </trkpt>
      <trkpt lat="48.58639" lon="-3.83818">
        <ele>17.9</ele>
      </trkpt>
      <trkpt lat="48.58698" lon="-3.83875">
        <ele>13.6</ele>
      </trkpt>
      <trkpt lat="48.58721" lon="-3.83895">
        <ele>20.9</ele>
      </trkpt>
      <trkpt lat="48.58715" lon="-3.8382">
        <ele>9.5</ele>
      </trkpt>
      <trkpt lat="48.58417" lon="-3.83628">
        <ele>8.7</ele>
      </trkpt>
      <trkpt lat="48.58419" lon="-3.83536">
        <ele>5</ele>
      </trkpt>
      <trkpt lat="48.58167" lon="-3.83306">
        <ele>7</ele>
      </trkpt>
      <trkpt lat="48.58176" lon="-3.83226">
        <ele>3.4</ele>
      </trkpt>
      <trkpt lat="48.57961" lon="-3.82972">
        <ele>6.2</ele>
      </trkpt>
      <trkpt lat="48.57788" lon="-3.82793">
        <ele>5.5</ele>
      </trkpt>
      <trkpt lat="48.57603" lon="-3.82512">
        <ele>10.7</ele>
      </trkpt>
      <trkpt lat="48.57533" lon="-3.82181">
        <ele>11.8</ele>
      </trkpt>
      <trkpt lat="48.57489" lon="-3.82248">
        <ele>20.8</ele>
      </trkpt>
      <trkpt lat="48.57377" lon="-3.82203">
        <ele>21.7</ele>
      </trkpt>
      <trkpt lat="48.57247" lon="-3.82287">
        <ele>33.6</ele>
      </trkpt>
      <trkpt lat="48.57161" lon="-3.82225">
        <ele>45.5</ele>
      </trkpt>
      <trkpt lat="48.56941" lon="-3.82217">
        <ele>79.7</ele>
      </trkpt>
      <trkpt lat="48.56709" lon="-3.82332">
        <ele>88.3</ele>
      </trkpt>
      <trkpt lat="48.56387" lon="-3.8229">
        <ele>79.7</ele>
      </trkpt>
      <trkpt lat="48.56281" lon="-3.82329">
        <ele>91</ele>
      </trkpt>
      <trkpt lat="48.55966" lon="-3.82186">
        <ele>91</ele>
      </trkpt>
      <trkpt lat="48.55668" lon="-3.82025">
        <ele>92</ele>
      </trkpt>
      <trkpt lat="48.55589" lon="-3.8227">
        <ele>91</ele>
      </trkpt>
      <trkpt lat="48.55238" lon="-3.82049">
        <ele>93.5</ele>
      </trkpt>
      <trkpt lat="48.55384" lon="-3.82395">
        <ele>80.5</ele>
      </trkpt>
      <trkpt lat="48.553" lon="-3.82634">
        <ele>73.3</ele>
      </trkpt>
      <trkpt lat="48.55279" lon="-3.82815">
        <ele>67.6</ele>
      </trkpt>
      <trkpt lat="48.55226" lon="-3.8272">
        <ele>61.1</ele>
      </trkpt>
      <trkpt lat="48.55165" lon="-3.82794">
        <ele>53.2</ele>
      </trkpt>
      <trkpt lat="48.55067" lon="-3.82824">
        <ele>49</ele>
      </trkpt>
      <trkpt lat="48.54929" lon="-3.82817">
        <ele>39.8</ele>
      </trkpt>
      <trkpt lat="48.54743" lon="-3.82679">
        <ele>37</ele>
      </trkpt>
      <trkpt lat="48.5461" lon="-3.82616">
        <ele>28.7</ele>
      </trkpt>
      <trkpt lat="48.54418" lon="-3.82525">
        <ele>35.5</ele>
      </trkpt>
      <trkpt lat="48.54302" lon="-3.82491">
        <ele>34.6</ele>
      </trkpt>
      <trkpt lat="48.54189" lon="-3.8239">
        <ele>38.8</ele>
      </trkpt>
      <trkpt lat="48.54144" lon="-3.82368">
        <ele>38.9</ele>
      </trkpt>
      <trkpt lat="48.54089" lon="-3.82443">
        <ele>36.1</ele>
      </trkpt>
      <trkpt lat="48.53978" lon="-3.82572">
        <ele>51.8</ele>
      </trkpt>
      <trkpt lat="48.53899" lon="-3.82566">
        <ele>57.8</ele>
      </trkpt>
      <trkpt lat="48.53811" lon="-3.82519">
        <ele>77.6</ele>
      </trkpt>
      <trkpt lat="48.53717" lon="-3.82474">
        <ele>91.3</ele>
      </trkpt>
      <trkpt lat="48.53593" lon="-3.82441">
        <ele>105.5</ele>
      </trkpt>
      <trkpt lat="48.53484" lon="-3.82358">
        <ele>105.6</ele>
      </trkpt>
      <trkpt lat="48.53241" lon="-3.82284">
        <ele>114.8</ele>
      </trkpt>
      <trkpt lat="48.53042" lon="-3.82251">
        <ele>116</ele>
      </trkpt>
      <trkpt lat="48.52799" lon="-3.82182">
        <ele>118</ele>
      </trkpt>
      <trkpt lat="48.52382" lon="-3.82135">
        <ele>122</ele>
      </trkpt>
      <trkpt lat="48.52625" lon="-3.8189">
        <ele>109.9</ele>
      </trkpt>
      <trkpt lat="48.52784" lon="-3.81592">
        <ele>101</ele>
      </trkpt>
      <trkpt lat="48.52894" lon="-3.81476">
        <ele>89.5</ele>
      </trkpt>
      <trkpt lat="48.53126" lon="-3.81368">
        <ele>67</ele>
      </trkpt>
      <trkpt lat="48.53236" lon="-3.8129">
        <ele>60</ele>
      </trkpt>
      <trkpt lat="48.52983" lon="-3.81043">
        <ele>68.2</ele>
      </trkpt>
      <trkpt lat="48.52931" lon="-3.80921">
        <ele>74.6</ele>
      </trkpt>
      <trkpt lat="48.52698" lon="-3.80795">
        <ele>90.7</ele>
      </trkpt>
      <trkpt lat="48.52635" lon="-3.8071">
        <ele>94.6</ele>
      </trkpt>
      <trkpt lat="48.52734" lon="-3.80589">
        <ele>74.4</ele>
      </trkpt>
      <trkpt lat="48.52757" lon="-3.80625">
        <ele>74.2</ele>
      </trkpt>
      <trkpt lat="48.52791" lon="-3.80579">
        <ele>70.8</ele>
      </trkpt>
      <trkpt lat="48.5289" lon="-3.80224">
        <ele>97.3</ele>
      </trkpt>
      <trkpt lat="48.53" lon="-3.79805">
        <ele>115.5</ele>
      </trkpt>
      <trkpt lat="48.53135" lon="-3.79421">
        <ele>122.3</ele>
      </trkpt>
      <trkpt lat="48.52364" lon="-3.79011">
        <ele>98.3</ele>
      </trkpt>
      <trkpt lat="48.52348" lon="-3.79176">
        <ele>92.8</ele>
      </trkpt>
      <trkpt lat="48.52406" lon="-3.79251">
        <ele>87.2</ele>
      </trkpt>
      <trkpt lat="48.52235" lon="-3.79719">
        <ele>102.2</ele>
      </trkpt>
      <trkpt lat="48.52156" lon="-3.79719">
        <ele>111.8</ele>
      </trkpt>
      <trkpt lat="48.52123" lon="-3.7976">
        <ele>114</ele>
      </trkpt>
      <trkpt lat="48.5205" lon="-3.79772">
        <ele>120.6</ele>
      </trkpt>
      <trkpt lat="48.52012" lon="-3.79836">
        <ele>123</ele>
      </trkpt>
      <trkpt lat="48.51892" lon="-3.79858">
        <ele>131.5</ele>
      </trkpt>
      <trkpt lat="48.51926" lon="-3.79943">
        <ele>128.9</ele>
      </trkpt>
      <trkpt lat="48.51744" lon="-3.80194">
        <ele>129</ele>
      </trkpt>
      <trkpt lat="48.51413" lon="-3.80274">
        <ele>115.3</ele>
      </trkpt>
      <trkpt lat="48.51418" lon="-3.80397">
        <ele>108.7</ele>
      </trkpt>
      <trkpt lat="48.5137" lon="-3.80448">
        <ele>110.1</ele>
      </trkpt>
      <trkpt lat="48.51419" lon="-3.80668">
        <ele>117</ele>
      </trkpt>
      <trkpt lat="48.51372" lon="-3.80771">
        <ele>122.2</ele>
      </trkpt>
      <trkpt lat="48.51282" lon="-3.80686">
        <ele>124.4</ele>
      </trkpt>
      <trkpt lat="48.51167" lon="-3.8056">
        <ele>124.6</ele>
      </trkpt>
      <trkpt lat="48.5109" lon="-3.8048">
        <ele>130.7</ele>
      </trkpt>
      <trkpt lat="48.51027" lon="-3.8034">
        <ele>132.7</ele>
      </trkpt>
      <trkpt lat="48.51026" lon="-3.80174">
        <ele>137.2</ele>
      </trkpt>
      <trkpt lat="48.50871" lon="-3.80081">
        <ele>157.1</ele>
      </trkpt>
      <trkpt lat="48.50778" lon="-3.79799">
        <ele>160</ele>
      </trkpt>
      <trkpt lat="48.50671" lon="-3.79545">
        <ele>169.4</ele>
      </trkpt>
      <trkpt lat="48.50764" lon="-3.79454">
        <ele>167.9</ele>
      </trkpt>
      <trkpt lat="48.50901" lon="-3.78999">
        <ele>163.9</ele>
      </trkpt>
      <trkpt lat="48.50781" lon="-3.79049">
        <ele>169.6</ele>
      </trkpt>
      <trkpt lat="48.50658" lon="-3.78946">
        <ele>169.1</ele>
      </trkpt>
      <trkpt lat="48.50502" lon="-3.78986">
        <ele>175.2</ele>
      </trkpt>
      <trkpt lat="48.50484" lon="-3.78926">
        <ele>174</ele>
      </trkpt>
      <trkpt lat="48.50157" lon="-3.78779">
        <ele>159.7</ele>
      </trkpt>
      <trkpt lat="48.50072" lon="-3.78931">
        <ele>157.4</ele>
      </trkpt>
      <trkpt lat="48.49985" lon="-3.78952">
        <ele>159.3</ele>
      </trkpt>
      <trkpt lat="48.49928" lon="-3.78935">
        <ele>160.7</ele>
      </trkpt>
      <trkpt lat="48.49593" lon="-3.78805">
        <ele>172.5</ele>
      </trkpt>
      <trkpt lat="48.49537" lon="-3.78862">
        <ele>173</ele>
      </trkpt>
      <trkpt lat="48.49532" lon="-3.79078">
        <ele>175.1</ele>
      </trkpt>
      <trkpt lat="48.49495" lon="-3.79281">
        <ele>175.5</ele>
      </trkpt>
      <trkpt lat="48.49557" lon="-3.79647">
        <ele>169.8</ele>
      </trkpt>
      <trkpt lat="48.49348" lon="-3.79649">
        <ele>147.7</ele>
      </trkpt>
      <trkpt lat="48.49456" lon="-3.79924">
        <ele>143.7</ele>
      </trkpt>
      <trkpt lat="48.49558" lon="-3.79973">
        <ele>144.5</ele>
      </trkpt>
      <trkpt lat="48.49577" lon="-3.80115">
        <ele>143.8</ele>
      </trkpt>
      <trkpt lat="48.49622" lon="-3.8013">
        <ele>143.3</ele>
      </trkpt>
      <trkpt lat="48.49645" lon="-3.80292">
        <ele>158.5</ele>
      </trkpt>
      <trkpt lat="48.49704" lon="-3.80526">
        <ele>168.3</ele>
      </trkpt>
      <trkpt lat="48.49386" lon="-3.80556">
        <ele>168.1</ele>
      </trkpt>
      <trkpt lat="48.49337" lon="-3.80598">
        <ele>166.4</ele>
      </trkpt>
      <trkpt lat="48.49329" lon="-3.80703">
        <ele>168.3</ele>
      </trkpt>
      <trkpt lat="48.49313" lon="-3.80776">
        <ele>170.7</ele>
      </trkpt>
      <trkpt lat="48.4926" lon="-3.80758">
        <ele>168.7</ele>
      </trkpt>
      <trkpt lat="48.49063" lon="-3.80787">
        <ele>177.4</ele>
      </trkpt>
      <trkpt lat="48.49034" lon="-3.80189">
        <ele>145.2</ele>
      </trkpt>
      <trkpt lat="48.4901" lon="-3.79806">
        <ele>163</ele>
      </trkpt>
      <trkpt lat="48.48911" lon="-3.7969">
        <ele>159.2</ele>
      </trkpt>
      <trkpt lat="48.48849" lon="-3.79703">
        <ele>157.4</ele>
      </trkpt>
      <trkpt lat="48.48682" lon="-3.79697">
        <ele>167.2</ele>
      </trkpt>
      <trkpt lat="48.48655" lon="-3.7987">
        <ele>171.1</ele>
      </trkpt>
      <trkpt lat="48.48517" lon="-3.80098">
        <ele>185.6</ele>
      </trkpt>
      <trkpt lat="48.48374" lon="-3.80082">
        <ele>195.2</ele>
      </trkpt>
      <trkpt lat="48.48317" lon="-3.80132">
        <ele>200.5</ele>
      </trkpt>
      <trkpt lat="48.48412" lon="-3.80432">
        <ele>181.7</ele>
      </trkpt>
      <trkpt lat="48.48379" lon="-3.8055">
        <ele>176.2</ele>
      </trkpt>
      <trkpt lat="48.48464" lon="-3.80648">
        <ele>182.7</ele>
      </trkpt>
      <trkpt lat="48.48533" lon="-3.8088">
        <ele>198.5</ele>
      </trkpt>
      <trkpt lat="48.48537" lon="-3.80996">
        <ele>200.1</ele>
      </trkpt>
      <trkpt lat="48.48615" lon="-3.81256">
        <ele>200.6</ele>
      </trkpt>
      <trkpt lat="48.48608" lon="-3.81387">
        <ele>197.8</ele>
      </trkpt>
      <trkpt lat="48.48608" lon="-3.81475">
        <ele>196.9</ele>
      </trkpt>
      <trkpt lat="48.4855" lon="-3.81696">
        <ele>194.2</ele>
      </trkpt>
      <trkpt lat="48.48462" lon="-3.81733">
        <ele>191.9</ele>
      </trkpt>
      <trkpt lat="48.48419" lon="-3.81864">
        <ele>188</ele>
      </trkpt>
      <trkpt lat="48.48454" lon="-3.81979">
        <ele>183.9</ele>
      </trkpt>
      <trkpt lat="48.48442" lon="-3.82154">
        <ele>173</ele>
      </trkpt>
      <trkpt lat="48.48321" lon="-3.82144">
        <ele>181.8</ele>
      </trkpt>
      <trkpt lat="48.48246" lon="-3.82061">
        <ele>182.1</ele>
      </trkpt>
      <trkpt lat="48.48188" lon="-3.81934">
        <ele>185.1</ele>
      </trkpt>
      <trkpt lat="48.48181" lon="-3.81825">
        <ele>187</ele>
      </trkpt>
      <trkpt lat="48.48156" lon="-3.81896">
        <ele>186.6</ele>
      </trkpt>
      <trkpt lat="48.48133" lon="-3.81966">
        <ele>189.6</ele>
      </trkpt>
      <trkpt lat="48.48065" lon="-3.82005">
        <ele>197.4</ele>
      </trkpt>
      <trkpt lat="48.48047" lon="-3.81895">
        <ele>196.7</ele>
      </trkpt>
      <trkpt lat="48.47973" lon="-3.81855">
        <ele>202.5</ele>
      </trkpt>
      <trkpt lat="48.47873" lon="-3.81829">
        <ele>202.2</ele>
      </trkpt>
      <trkpt lat="48.47854" lon="-3.81732">
        <ele>209.2</ele>
      </trkpt>
      <trkpt lat="48.47821" lon="-3.8166">
        <ele>214</ele>
      </trkpt>
      <trkpt lat="48.47768" lon="-3.81593">
        <ele>218.6</ele>
      </trkpt>
      <trkpt lat="48.47645" lon="-3.81538">
        <ele>213.2</ele>
      </trkpt>
      <trkpt lat="48.47516" lon="-3.81534">
        <ele>204.8</ele>
      </trkpt>
      <trkpt lat="48.47499" lon="-3.8143">
        <ele>206.3</ele>
      </trkpt>
      <trkpt lat="48.47462" lon="-3.81364">
        <ele>205.6</ele>
      </trkpt>
      <trkpt lat="48.47413" lon="-3.81399">
        <ele>202.9</ele>
      </trkpt>
      <trkpt lat="48.47339" lon="-3.81397">
        <ele>201.2</ele>
      </trkpt>
      <trkpt lat="48.47327" lon="-3.81344">
        <ele>203.4</ele>
      </trkpt>
      <trkpt lat="48.47168" lon="-3.81289">
        <ele>211.4</ele>
      </trkpt>
      <trkpt lat="48.47065" lon="-3.81318">
        <ele>223.2</ele>
      </trkpt>
      <trkpt lat="48.4697" lon="-3.81449">
        <ele>218.3</ele>
      </trkpt>
      <trkpt lat="48.46837" lon="-3.81422">
        <ele>218</ele>
      </trkpt>
      <trkpt lat="48.46645" lon="-3.81318">
        <ele>219.2</ele>
      </trkpt>
      <trkpt lat="48.4648" lon="-3.81163">
        <ele>199.3</ele>
      </trkpt>
      <trkpt lat="48.4646" lon="-3.81199">
        <ele>199.3</ele>
      </trkpt>
      <trkpt lat="48.46423" lon="-3.81156">
        <ele>195.2</ele>
      </trkpt>
      <trkpt lat="48.46413" lon="-3.81105">
        <ele>195.3</ele>
      </trkpt>
      <trkpt lat="48.46366" lon="-3.81028">
        <ele>197.6</ele>
      </trkpt>
      <trkpt lat="48.46367" lon="-3.80906">
        <ele>204.6</ele>
      </trkpt>
      <trkpt lat="48.46437" lon="-3.80731">
        <ele>212.9</ele>
      </trkpt>
      <trkpt lat="48.46471" lon="-3.80651">
        <ele>214.5</ele>
      </trkpt>
      <trkpt lat="48.46522" lon="-3.80399">
        <ele>199.6</ele>
      </trkpt>
      <trkpt lat="48.46515" lon="-3.80238">
        <ele>190.7</ele>
      </trkpt>
      <trkpt lat="48.46463" lon="-3.80108">
        <ele>184.2</ele>
      </trkpt>
      <trkpt lat="48.46357" lon="-3.79946">
        <ele>177.8</ele>
      </trkpt>
      <trkpt lat="48.46202" lon="-3.79781">
        <ele>173.9</ele>
      </trkpt>
      <trkpt lat="48.45934" lon="-3.79245">
        <ele>199.7</ele>
      </trkpt>
      <trkpt lat="48.45904" lon="-3.79039">
        <ele>210.2</ele>
      </trkpt>
      <trkpt lat="48.45811" lon="-3.79017">
        <ele>213.3</ele>
      </trkpt>
      <trkpt lat="48.4562" lon="-3.78829">
        <ele>216</ele>
      </trkpt>
      <trkpt lat="48.45541" lon="-3.78718">
        <ele>220.4</ele>
      </trkpt>
      <trkpt lat="48.45495" lon="-3.78769">
        <ele>216.7</ele>
      </trkpt>
      <trkpt lat="48.45423" lon="-3.78718">
        <ele>216.3</ele>
      </trkpt>
      <trkpt lat="48.45456" lon="-3.78609">
        <ele>221.4</ele>
      </trkpt>
      <trkpt lat="48.45537" lon="-3.78503">
        <ele>226.6</ele>
      </trkpt>
      <trkpt lat="48.45528" lon="-3.78367">
        <ele>227.3</ele>
      </trkpt>
      <trkpt lat="48.45615" lon="-3.78357">
        <ele>224.8</ele>
      </trkpt>
      <trkpt lat="48.45637" lon="-3.78108">
        <ele>229.7</ele>
      </trkpt>
      <trkpt lat="48.45612" lon="-3.78017">
        <ele>232.8</ele>
      </trkpt>
      <trkpt lat="48.45635" lon="-3.77796">
        <ele>235</ele>
      </trkpt>
      <trkpt lat="48.4568" lon="-3.77598">
        <ele>235.7</ele>
      </trkpt>
      <trkpt lat="48.45445" lon="-3.77693">
        <ele>230.8</ele>
      </trkpt>
      <trkpt lat="48.45034" lon="-3.77692">
        <ele>232.8</ele>
      </trkpt>
      <trkpt lat="48.45045" lon="-3.77902">
        <ele>233.4</ele>
      </trkpt>
      <trkpt lat="48.44878" lon="-3.78004">
        <ele>239</ele>
      </trkpt>
      <trkpt lat="48.44564" lon="-3.78331">
        <ele>248</ele>
      </trkpt>
      <trkpt lat="48.4447" lon="-3.78381">
        <ele>247</ele>
      </trkpt>
      <trkpt lat="48.44471" lon="-3.78465">
        <ele>246.5</ele>
      </trkpt>
      <trkpt lat="48.44395" lon="-3.78799">
        <ele>245.6</ele>
      </trkpt>
      <trkpt lat="48.44306" lon="-3.79009">
        <ele>246.1</ele>
      </trkpt>
      <trkpt lat="48.44301" lon="-3.79113">
        <ele>247</ele>
      </trkpt>
      <trkpt lat="48.44146" lon="-3.7935">
        <ele>248.5</ele>
      </trkpt>
      <trkpt lat="48.44034" lon="-3.79594">
        <ele>259.2</ele>
      </trkpt>
      <trkpt lat="48.43958" lon="-3.79988">
        <ele>265.6</ele>
      </trkpt>
      <trkpt lat="48.43887" lon="-3.80241">
        <ele>268.4</ele>
      </trkpt>
      <trkpt lat="48.43764" lon="-3.80484">
        <ele>263</ele>
      </trkpt>
      <trkpt lat="48.43758" lon="-3.80615">
        <ele>266.6</ele>
      </trkpt>
      <trkpt lat="48.43719" lon="-3.80845">
        <ele>272.6</ele>
      </trkpt>
      <trkpt lat="48.43691" lon="-3.80916">
        <ele>273.8</ele>
      </trkpt>
      <trkpt lat="48.43562" lon="-3.81431">
        <ele>273</ele>
      </trkpt>
      <trkpt lat="48.4344" lon="-3.81521">
        <ele>274.1</ele>
      </trkpt>
      <trkpt lat="48.43328" lon="-3.81589">
        <ele>277</ele>
      </trkpt>
      <trkpt lat="48.43591" lon="-3.81766">
        <ele>268.3</ele>
      </trkpt>
      <trkpt lat="48.43805" lon="-3.81886">
        <ele>270.5</ele>
      </trkpt>
      <trkpt lat="48.4399" lon="-3.82043">
        <ele>255.9</ele>
      </trkpt>
      <trkpt lat="48.44132" lon="-3.82182">
        <ele>245.1</ele>
      </trkpt>
      <trkpt lat="48.44179" lon="-3.82333">
        <ele>236.8</ele>
      </trkpt>
      <trkpt lat="48.44287" lon="-3.82607">
        <ele>223.9</ele>
      </trkpt>
      <trkpt lat="48.44504" lon="-3.82831">
        <ele>217.1</ele>
      </trkpt>
      <trkpt lat="48.44548" lon="-3.82802">
        <ele>217.1</ele>
      </trkpt>
      <trkpt lat="48.44627" lon="-3.8292">
        <ele>213.5</ele>
      </trkpt>
      <trkpt lat="48.44621" lon="-3.83082">
        <ele>204.6</ele>
      </trkpt>
      <trkpt lat="48.44742" lon="-3.83168">
        <ele>197.7</ele>
      </trkpt>
      <trkpt lat="48.44669" lon="-3.83337">
        <ele>189.1</ele>
      </trkpt>
      <trkpt lat="48.44597" lon="-3.83359">
        <ele>191.4</ele>
      </trkpt>
      <trkpt lat="48.44547" lon="-3.83465">
        <ele>196.3</ele>
      </trkpt>
      <trkpt lat="48.44781" lon="-3.83769">
        <ele>200.8</ele>
      </trkpt>
      <trkpt lat="48.44667" lon="-3.83966">
        <ele>203.4</ele>
      </trkpt>
      <trkpt lat="48.44568" lon="-3.84066">
        <ele>198</ele>
      </trkpt>
      <trkpt lat="48.446" lon="-3.84124">
        <ele>202.4</ele>
      </trkpt>
      <trkpt lat="48.44665" lon="-3.84308">
        <ele>209.3</ele>
      </trkpt>
      <trkpt lat="48.44772" lon="-3.84375">
        <ele>216.9</ele>
      </trkpt>
      <trkpt lat="48.44784" lon="-3.84424">
        <ele>216.1</ele>
      </trkpt>
      <trkpt lat="48.44899" lon="-3.84614">
        <ele>241.4</ele>
      </trkpt>
      <trkpt lat="48.44989" lon="-3.84713">
        <ele>253.5</ele>
      </trkpt>
      <trkpt lat="48.451" lon="-3.84739">
        <ele>255.1</ele>
      </trkpt>
      <trkpt lat="48.45012" lon="-3.84916">
        <ele>244.5</ele>
      </trkpt>
      <trkpt lat="48.45068" lon="-3.85058">
        <ele>247.9</ele>
      </trkpt>
      <trkpt lat="48.45149" lon="-3.85091">
        <ele>253.4</ele>
      </trkpt>
      <trkpt lat="48.45193" lon="-3.85249">
        <ele>256</ele>
      </trkpt>
      <trkpt lat="48.45329" lon="-3.85397">
        <ele>256.6</ele>
      </trkpt>
      <trkpt lat="48.45446" lon="-3.85621">
        <ele>252.2</ele>
      </trkpt>
      <trkpt lat="48.45488" lon="-3.85639">
        <ele>255</ele>
      </trkpt>
      <trkpt lat="48.45524" lon="-3.85722">
        <ele>256.9</ele>
      </trkpt>
      <trkpt lat="48.45525" lon="-3.85786">
        <ele>257</ele>
      </trkpt>
      <trkpt lat="48.45513" lon="-3.85846">
        <ele>254.5</ele>
      </trkpt>
      <trkpt lat="48.45364" lon="-3.8593">
        <ele>242.3</ele>
      </trkpt>
      <trkpt lat="48.45475" lon="-3.8618">
        <ele>240.7</ele>
      </trkpt>
      <trkpt lat="48.45322" lon="-3.86451">
        <ele>236.2</ele>
      </trkpt>
      <trkpt lat="48.45" lon="-3.86562">
        <ele>239.8</ele>
      </trkpt>
      <trkpt lat="48.44929" lon="-3.86452">
        <ele>244.2</ele>
      </trkpt>
      <trkpt lat="48.44819" lon="-3.86581">
        <ele>251.1</ele>
      </trkpt>
      <trkpt lat="48.44798" lon="-3.86727">
        <ele>254</ele>
      </trkpt>
      <trkpt lat="48.44659" lon="-3.86785">
        <ele>255.9</ele>
      </trkpt>
      <trkpt lat="48.44501" lon="-3.86767">
        <ele>249</ele>
      </trkpt>
      <trkpt lat="48.44391" lon="-3.86878">
        <ele>249</ele>
      </trkpt>
      <trkpt lat="48.4428" lon="-3.86835">
        <ele>245.7</ele>
      </trkpt>
      <trkpt lat="48.44146" lon="-3.86826">
        <ele>259.8</ele>
      </trkpt>
      <trkpt lat="48.44028" lon="-3.86663">
        <ele>271.3</ele>
      </trkpt>
      <trkpt lat="48.43946" lon="-3.86985">
        <ele>282.4</ele>
      </trkpt>
      <trkpt lat="48.43944" lon="-3.87141">
        <ele>289.5</ele>
      </trkpt>
      <trkpt lat="48.43981" lon="-3.87301">
        <ele>294.6</ele>
      </trkpt>
      <trkpt lat="48.44062" lon="-3.87478">
        <ele>286.3</ele>
      </trkpt>
      <trkpt lat="48.44099" lon="-3.87607">
        <ele>275.8</ele>
      </trkpt>
      <trkpt lat="48.44105" lon="-3.87817">
        <ele>266.9</ele>
      </trkpt>
      <trkpt lat="48.43969" lon="-3.87866">
        <ele>260.2</ele>
      </trkpt>
      <trkpt lat="48.43897" lon="-3.87953">
        <ele>256.5</ele>
      </trkpt>
      <trkpt lat="48.43861" lon="-3.88036">
        <ele>253.8</ele>
      </trkpt>
      <trkpt lat="48.43958" lon="-3.88139">
        <ele>260.7</ele>
      </trkpt>
      <trkpt lat="48.44022" lon="-3.8814">
        <ele>265.1</ele>
      </trkpt>
      <trkpt lat="48.44091" lon="-3.88213">
        <ele>268.9</ele>
      </trkpt>
      <trkpt lat="48.4411" lon="-3.88184">
        <ele>270</ele>
      </trkpt>
      <trkpt lat="48.44122" lon="-3.88425">
        <ele>261.1</ele>
      </trkpt>
      <trkpt lat="48.44093" lon="-3.88591">
        <ele>256.5</ele>
      </trkpt>
      <trkpt lat="48.43998" lon="-3.88806">
        <ele>253.3</ele>
      </trkpt>
      <trkpt lat="48.43963" lon="-3.88755">
        <ele>249.7</ele>
      </trkpt>
      <trkpt lat="48.43895" lon="-3.88656">
        <ele>244.5</ele>
      </trkpt>
      <trkpt lat="48.43844" lon="-3.8865">
        <ele>242.2</ele>
      </trkpt>
      <trkpt lat="48.43793" lon="-3.88673">
        <ele>241.8</ele>
      </trkpt>
      <trkpt lat="48.4371" lon="-3.8867">
        <ele>236.4</ele>
      </trkpt>
      <trkpt lat="48.43594" lon="-3.88677">
        <ele>230.9</ele>
      </trkpt>
      <trkpt lat="48.43497" lon="-3.88683">
        <ele>228.9</ele>
      </trkpt>
      <trkpt lat="48.43495" lon="-3.88719">
        <ele>228.3</ele>
      </trkpt>
      <trkpt lat="48.4349" lon="-3.8882">
        <ele>226.8</ele>
      </trkpt>
      <trkpt lat="48.43422" lon="-3.88812">
        <ele>226.8</ele>
      </trkpt>
      <trkpt lat="48.43341" lon="-3.88915">
        <ele>227.2</ele>
      </trkpt>
      <trkpt lat="48.43202" lon="-3.88935">
        <ele>231.2</ele>
      </trkpt>
      <trkpt lat="48.4305" lon="-3.8907">
        <ele>230.7</ele>
      </trkpt>
      <trkpt lat="48.42916" lon="-3.88948">
        <ele>234.3</ele>
      </trkpt>
      <trkpt lat="48.42823" lon="-3.88901">
        <ele>242</ele>
      </trkpt>
      <trkpt lat="48.42822" lon="-3.88826">
        <ele>246.6</ele>
      </trkpt>
      <trkpt lat="48.42846" lon="-3.88859">
        <ele>242.9</ele>
      </trkpt>
      <trkpt lat="48.42935" lon="-3.88758">
        <ele>242</ele>
      </trkpt>
      <trkpt lat="48.43004" lon="-3.88722">
        <ele>239.8</ele>
      </trkpt>
      <trkpt lat="48.43033" lon="-3.88637">
        <ele>241.3</ele>
      </trkpt>
      <trkpt lat="48.42971" lon="-3.88447">
        <ele>256.1</ele>
      </trkpt>
      <trkpt lat="48.42918" lon="-3.88495">
        <ele>256.6</ele>
      </trkpt>
      <trkpt lat="48.42838" lon="-3.88448">
        <ele>263.6</ele>
      </trkpt>
      <trkpt lat="48.42819" lon="-3.88408">
        <ele>265.5</ele>
      </trkpt>
      <trkpt lat="48.42588" lon="-3.88245">
        <ele>281.5</ele>
      </trkpt>
      <trkpt lat="48.42249" lon="-3.87785">
        <ele>305.5</ele>
      </trkpt>
      <trkpt lat="48.42157" lon="-3.87636">
        <ele>311.5</ele>
      </trkpt>
      <trkpt lat="48.4204" lon="-3.8752">
        <ele>322.9</ele>
      </trkpt>
      <trkpt lat="48.42013" lon="-3.87293">
        <ele>331.3</ele>
      </trkpt>
      <trkpt lat="48.41905" lon="-3.87423">
        <ele>350.3</ele>
      </trkpt>
      <trkpt lat="48.41643" lon="-3.87168">
        <ele>368</ele>
      </trkpt>
      <trkpt lat="48.41588" lon="-3.87441">
        <ele>374.9</ele>
      </trkpt>
      <trkpt lat="48.41444" lon="-3.87911">
        <ele>374.6</ele>
      </trkpt>
      <trkpt lat="48.41361" lon="-3.88375">
        <ele>368.7</ele>
      </trkpt>
      <trkpt lat="48.41258" lon="-3.88568">
        <ele>361</ele>
      </trkpt>
      <trkpt lat="48.41209" lon="-3.88686">
        <ele>357.6</ele>
      </trkpt>
      <trkpt lat="48.41101" lon="-3.88806">
        <ele>346.9</ele>
      </trkpt>
      <trkpt lat="48.41105" lon="-3.88945">
        <ele>345.9</ele>
      </trkpt>
      <trkpt lat="48.41142" lon="-3.89279">
        <ele>349.5</ele>
      </trkpt>
      <trkpt lat="48.41042" lon="-3.89572">
        <ele>346.6</ele>
      </trkpt>
      <trkpt lat="48.40955" lon="-3.89733">
        <ele>347.7</ele>
      </trkpt>
      <trkpt lat="48.40974" lon="-3.89794">
        <ele>350.5</ele>
      </trkpt>
      <trkpt lat="48.41048" lon="-3.89904">
        <ele>353.4</ele>
      </trkpt>
      <trkpt lat="48.4107" lon="-3.90011">
        <ele>354.9</ele>
      </trkpt>
      <trkpt lat="48.41008" lon="-3.9018">
        <ele>349.9</ele>
      </trkpt>
      <trkpt lat="48.40904" lon="-3.9037">
        <ele>349.6</ele>
      </trkpt>
      <trkpt lat="48.40706" lon="-3.90715">
        <ele>361.6</ele>
      </trkpt>
      <trkpt lat="48.40566" lon="-3.91028">
        <ele>371.6</ele>
      </trkpt>
      <trkpt lat="48.40495" lon="-3.91137">
        <ele>359.2</ele>
      </trkpt>
      <trkpt lat="48.40441" lon="-3.91311">
        <ele>353.7</ele>
      </trkpt>
      <trkpt lat="48.40347" lon="-3.91523">
        <ele>349.7</ele>
      </trkpt>
      <trkpt lat="48.40317" lon="-3.91871">
        <ele>343.4</ele>
      </trkpt>
      <trkpt lat="48.4022" lon="-3.92196">
        <ele>342.3</ele>
      </trkpt>
      <trkpt lat="48.40092" lon="-3.92438">
        <ele>341.2</ele>
      </trkpt>
      <trkpt lat="48.39773" lon="-3.93134">
        <ele>357.4</ele>
      </trkpt>
      <trkpt lat="48.39537" lon="-3.9389">
        <ele>357.3</ele>
      </trkpt>
      <trkpt lat="48.39464" lon="-3.94043">
        <ele>353.1</ele>
      </trkpt>
      <trkpt lat="48.39281" lon="-3.94398">
        <ele>323.2</ele>
      </trkpt>
      <trkpt lat="48.39227" lon="-3.94489">
        <ele>321.3</ele>
      </trkpt>
      <trkpt lat="48.3917" lon="-3.94604">
        <ele>321.8</ele>
      </trkpt>
      <trkpt lat="48.39103" lon="-3.94715">
        <ele>325.8</ele>
      </trkpt>
      <trkpt lat="48.39003" lon="-3.94649">
        <ele>306.2</ele>
      </trkpt>
      <trkpt lat="48.38749" lon="-3.94465">
        <ele>287.1</ele>
      </trkpt>
      <trkpt lat="48.38676" lon="-3.94402">
        <ele>288.5</ele>
      </trkpt>
      <trkpt lat="48.38489" lon="-3.94438">
        <ele>293.9</ele>
      </trkpt>
      <trkpt lat="48.38305" lon="-3.94425">
        <ele>300.9</ele>
      </trkpt>
      <trkpt lat="48.38192" lon="-3.94544">
        <ele>306.4</ele>
      </trkpt>
      <trkpt lat="48.37888" lon="-3.94918">
        <ele>333.4</ele>
      </trkpt>
      <trkpt lat="48.37735" lon="-3.95042">
        <ele>345.4</ele>
      </trkpt>
      <trkpt lat="48.37666" lon="-3.95101">
        <ele>350</ele>
      </trkpt>
      <trkpt lat="48.37495" lon="-3.95171">
        <ele>368.8</ele>
      </trkpt>
      <trkpt lat="48.36863" lon="-3.95539">
        <ele>370.2</ele>
      </trkpt>
      <trkpt lat="48.36607" lon="-3.95545">
        <ele>355.5</ele>
      </trkpt>
      <trkpt lat="48.36574" lon="-3.95484">
        <ele>349.5</ele>
      </trkpt>
      <trkpt lat="48.36517" lon="-3.95511">
        <ele>343</ele>
      </trkpt>
      <trkpt lat="48.36473" lon="-3.95678">
        <ele>336.2</ele>
      </trkpt>
      <trkpt lat="48.36406" lon="-3.95751">
        <ele>329.5</ele>
      </trkpt>
      <trkpt lat="48.3631" lon="-3.95895">
        <ele>325.4</ele>
      </trkpt>
      <trkpt lat="48.36095" lon="-3.96063">
        <ele>318</ele>
      </trkpt>
      <trkpt lat="48.3591" lon="-3.96108">
        <ele>310.9</ele>
      </trkpt>
      <trkpt lat="48.35697" lon="-3.96055">
        <ele>300.1</ele>
      </trkpt>
      <trkpt lat="48.35637" lon="-3.96116">
        <ele>299.8</ele>
      </trkpt>
      <trkpt lat="48.35514" lon="-3.95959">
        <ele>303.7</ele>
      </trkpt>
      <trkpt lat="48.35437" lon="-3.95756">
        <ele>315.9</ele>
      </trkpt>
      <trkpt lat="48.35321" lon="-3.95478">
        <ele>328</ele>
      </trkpt>
      <trkpt lat="48.35313" lon="-3.95393">
        <ele>328.4</ele>
      </trkpt>
      <trkpt lat="48.35136" lon="-3.94989">
        <ele>334.8</ele>
      </trkpt>
      <trkpt lat="48.35106" lon="-3.94864">
        <ele>340.8</ele>
      </trkpt>
      <trkpt lat="48.35059" lon="-3.94723">
        <ele>356.5</ele>
      </trkpt>
      <trkpt lat="48.34899" lon="-3.94572">
        <ele>354.5</ele>
      </trkpt>
      <trkpt lat="48.3486" lon="-3.94401">
        <ele>344.7</ele>
      </trkpt>
      <trkpt lat="48.34874" lon="-3.94319">
        <ele>338.2</ele>
      </trkpt>
      <trkpt lat="48.34793" lon="-3.94366">
        <ele>332.2</ele>
      </trkpt>
      <trkpt lat="48.34782" lon="-3.94315">
        <ele>329.4</ele>
      </trkpt>
      <trkpt lat="48.34775" lon="-3.94212">
        <ele>324.8</ele>
      </trkpt>
      <trkpt lat="48.3471" lon="-3.94092">
        <ele>320.4</ele>
      </trkpt>
      <trkpt lat="48.34255" lon="-3.94251">
        <ele>297.4</ele>
      </trkpt>
      <trkpt lat="48.34249" lon="-3.94362">
        <ele>297.3</ele>
      </trkpt>
      <trkpt lat="48.34304" lon="-3.94483">
        <ele>289.2</ele>
      </trkpt>
      <trkpt lat="48.34304" lon="-3.94558">
        <ele>286.5</ele>
      </trkpt>
      <trkpt lat="48.34347" lon="-3.94698">
        <ele>281.2</ele>
      </trkpt>
      <trkpt lat="48.34368" lon="-3.94853">
        <ele>275.7</ele>
      </trkpt>
      <trkpt lat="48.34385" lon="-3.95085">
        <ele>267.5</ele>
      </trkpt>
      <trkpt lat="48.34372" lon="-3.95185">
        <ele>263.4</ele>
      </trkpt>
      <trkpt lat="48.34387" lon="-3.96314">
        <ele>235.2</ele>
      </trkpt>
      <trkpt lat="48.34449" lon="-3.9693">
        <ele>227.1</ele>
      </trkpt>
      <trkpt lat="48.34482" lon="-3.96972">
        <ele>228.2</ele>
      </trkpt>
      <trkpt lat="48.34488" lon="-3.97034">
        <ele>227.9</ele>
      </trkpt>
      <trkpt lat="48.34463" lon="-3.97162">
        <ele>229.6</ele>
      </trkpt>
      <trkpt lat="48.34422" lon="-3.97202">
        <ele>227.7</ele>
      </trkpt>
      <trkpt lat="48.34385" lon="-3.97353">
        <ele>224.8</ele>
      </trkpt>
      <trkpt lat="48.34504" lon="-3.97577">
        <ele>217.6</ele>
      </trkpt>
      <trkpt lat="48.34502" lon="-3.97737">
        <ele>220.8</ele>
      </trkpt>
      <trkpt lat="48.34525" lon="-3.98024">
        <ele>227.9</ele>
      </trkpt>
      <trkpt lat="48.34566" lon="-3.98139">
        <ele>229.8</ele>
      </trkpt>
      <trkpt lat="48.34736" lon="-3.97948">
        <ele>242.2</ele>
      </trkpt>
      <trkpt lat="48.3481" lon="-3.97959">
        <ele>245.9</ele>
      </trkpt>
      <trkpt lat="48.34877" lon="-3.98086">
        <ele>245.8</ele>
      </trkpt>
      <trkpt lat="48.34925" lon="-3.98153">
        <ele>244.4</ele>
      </trkpt>
      <trkpt lat="48.35026" lon="-3.98127">
        <ele>246.1</ele>
      </trkpt>
      <trkpt lat="48.35162" lon="-3.98279">
        <ele>238.7</ele>
      </trkpt>
      <trkpt lat="48.35133" lon="-3.98675">
        <ele>235.1</ele>
      </trkpt>
      <trkpt lat="48.35106" lon="-3.98996">
        <ele>219.3</ele>
      </trkpt>
      <trkpt lat="48.35033" lon="-3.99227">
        <ele>204.2</ele>
      </trkpt>
      <trkpt lat="48.34986" lon="-3.99526">
        <ele>186.1</ele>
      </trkpt>
      <trkpt lat="48.34949" lon="-3.99632">
        <ele>179.4</ele>
      </trkpt>
      <trkpt lat="48.34895" lon="-3.99653">
        <ele>174.6</ele>
      </trkpt>
      <trkpt lat="48.3496" lon="-3.9982">
        <ele>169.2</ele>
      </trkpt>
      <trkpt lat="48.34996" lon="-3.99963">
        <ele>162.4</ele>
      </trkpt>
      <trkpt lat="48.3507" lon="-4.00057">
        <ele>154.9</ele>
      </trkpt>
      <trkpt lat="48.35109" lon="-4.00163">
        <ele>155.1</ele>
      </trkpt>
      <trkpt lat="48.34982" lon="-4.00425">
        <ele>162.9</ele>
      </trkpt>
      <trkpt lat="48.34869" lon="-4.00398">
        <ele>150.1</ele>
      </trkpt>
      <trkpt lat="48.34808" lon="-4.00438">
        <ele>150.2</ele>
      </trkpt>
      <trkpt lat="48.34632" lon="-4.00471">
        <ele>157.6</ele>
      </trkpt>
      <trkpt lat="48.34523" lon="-4.00498">
        <ele>154.5</ele>
      </trkpt>
      <trkpt lat="48.34481" lon="-4.0034">
        <ele>150.9</ele>
      </trkpt>
      <trkpt lat="48.34317" lon="-4.00442">
        <ele>162</ele>
      </trkpt>
      <trkpt lat="48.34196" lon="-4.00603">
        <ele>173.2</ele>
      </trkpt>
      <trkpt lat="48.34062" lon="-4.00659">
        <ele>181.9</ele>
      </trkpt>
      <trkpt lat="48.33908" lon="-4.00627">
        <ele>191.2</ele>
      </trkpt>
      <trkpt lat="48.33826" lon="-4.00667">
        <ele>188.9</ele>
      </trkpt>
      <trkpt lat="48.33745" lon="-4.00596">
        <ele>198.9</ele>
      </trkpt>
      <trkpt lat="48.33787" lon="-4.00328">
        <ele>221.6</ele>
      </trkpt>
      <trkpt lat="48.33764" lon="-4.00338">
        <ele>222.2</ele>
      </trkpt>
      <trkpt lat="48.3353" lon="-4.00405">
        <ele>236.9</ele>
      </trkpt>
      <trkpt lat="48.33236" lon="-4.00392">
        <ele>254.2</ele>
      </trkpt>
      <trkpt lat="48.32982" lon="-4.00273">
        <ele>249.6</ele>
      </trkpt>
      <trkpt lat="48.32808" lon="-3.99878">
        <ele>209.4</ele>
      </trkpt>
      <trkpt lat="48.32802" lon="-3.9969">
        <ele>201.5</ele>
      </trkpt>
      <trkpt lat="48.32766" lon="-3.99507">
        <ele>186.9</ele>
      </trkpt>
      <trkpt lat="48.32612" lon="-3.99268">
        <ele>176.9</ele>
      </trkpt>
      <trkpt lat="48.32625" lon="-3.99186">
        <ele>183.4</ele>
      </trkpt>
      <trkpt lat="48.32413" lon="-3.99018">
        <ele>177.7</ele>
      </trkpt>
      <trkpt lat="48.32302" lon="-3.98825">
        <ele>171.7</ele>
      </trkpt>
      <trkpt lat="48.32166" lon="-3.98704">
        <ele>161</ele>
      </trkpt>
      <trkpt lat="48.31912" lon="-3.98809">
        <ele>162.5</ele>
      </trkpt>
      <trkpt lat="48.31914" lon="-3.98796">
        <ele>162.5</ele>
      </trkpt>
      <trkpt lat="48.31649" lon="-3.9859">
        <ele>148.9</ele>
      </trkpt>
      <trkpt lat="48.3145" lon="-3.9828">
        <ele>146.5</ele>
      </trkpt>
      <trkpt lat="48.31397" lon="-3.98377">
        <ele>153.8</ele>
      </trkpt>
      <trkpt lat="48.31154" lon="-3.98362">
        <ele>152.8</ele>
      </trkpt>
      <trkpt lat="48.31086" lon="-3.98445">
        <ele>158.4</ele>
      </trkpt>
      <trkpt lat="48.30946" lon="-3.98719">
        <ele>149.4</ele>
      </trkpt>
      <trkpt lat="48.3078" lon="-3.98983">
        <ele>144.2</ele>
      </trkpt>
      <trkpt lat="48.30637" lon="-3.9904">
        <ele>146.4</ele>
      </trkpt>
      <trkpt lat="48.30623" lon="-3.99146">
        <ele>145.1</ele>
      </trkpt>
      <trkpt lat="48.30397" lon="-3.99552">
        <ele>104.5</ele>
      </trkpt>
      <trkpt lat="48.3025" lon="-3.99687">
        <ele>79.8</ele>
      </trkpt>
      <trkpt lat="48.30167" lon="-3.99839">
        <ele>65.8</ele>
      </trkpt>
      <trkpt lat="48.30095" lon="-4.00029">
        <ele>62.9</ele>
      </trkpt>
      <trkpt lat="48.30077" lon="-4.00115">
        <ele>60.3</ele>
      </trkpt>
      <trkpt lat="48.30026" lon="-4.00248">
        <ele>62.7</ele>
      </trkpt>
      <trkpt lat="48.3007" lon="-4.00269">
        <ele>63.7</ele>
      </trkpt>
      <trkpt lat="48.30128" lon="-4.00348">
        <ele>66.7</ele>
      </trkpt>
      <trkpt lat="48.30181" lon="-4.00321">
        <ele>64.2</ele>
      </trkpt>
      <trkpt lat="48.30255" lon="-4.00359">
        <ele>63.5</ele>
      </trkpt>
      <trkpt lat="48.30315" lon="-4.0035">
        <ele>62.8</ele>
      </trkpt>
      <trkpt lat="48.30404" lon="-4.00361">
        <ele>66.5</ele>
      </trkpt>
      <trkpt lat="48.3067" lon="-4.00265">
        <ele>69.2</ele>
      </trkpt>
      <trkpt lat="48.30736" lon="-4.00289">
        <ele>71.8</ele>
      </trkpt>
      <trkpt lat="48.3091" lon="-4.00414">
        <ele>82.7</ele>
      </trkpt>
      <trkpt lat="48.30956" lon="-4.00346">
        <ele>82</ele>
      </trkpt>
      <trkpt lat="48.30994" lon="-4.00283">
        <ele>75.5</ele>
      </trkpt>
      <trkpt lat="48.31015" lon="-4.00085">
        <ele>69.1</ele>
      </trkpt>
      <trkpt lat="48.31208" lon="-4.00011">
        <ele>72.7</ele>
      </trkpt>
      <trkpt lat="48.31275" lon="-4.00019">
        <ele>71.7</ele>
      </trkpt>
      <trkpt lat="48.31356" lon="-4.0009">
        <ele>73.3</ele>
      </trkpt>
      <trkpt lat="48.31446" lon="-4.00116">
        <ele>76</ele>
      </trkpt>
      <trkpt lat="48.31479" lon="-4.00171">
        <ele>76.3</ele>
      </trkpt>
      <trkpt lat="48.31574" lon="-4.00206">
        <ele>77.5</ele>
      </trkpt>
      <trkpt lat="48.31684" lon="-4.003">
        <ele>82.4</ele>
      </trkpt>
      <trkpt lat="48.31774" lon="-4.00433">
        <ele>85</ele>
      </trkpt>
      <trkpt lat="48.31808" lon="-4.00586">
        <ele>88.7</ele>
      </trkpt>
      <trkpt lat="48.31866" lon="-4.0068">
        <ele>90.8</ele>
      </trkpt>
      <trkpt lat="48.31852" lon="-4.00764">
        <ele>95.9</ele>
      </trkpt>
      <trkpt lat="48.31855" lon="-4.00759">
        <ele>95.7</ele>
      </trkpt>
      <trkpt lat="48.31973" lon="-4.00879">
        <ele>106</ele>
      </trkpt>
      <trkpt lat="48.32128" lon="-4.00934">
        <ele>107.2</ele>
      </trkpt>
      <trkpt lat="48.32196" lon="-4.01041">
        <ele>114.7</ele>
      </trkpt>
      <trkpt lat="48.32274" lon="-4.01161">
        <ele>122.8</ele>
      </trkpt>
      <trkpt lat="48.32362" lon="-4.01165">
        <ele>109</ele>
      </trkpt>
      <trkpt lat="48.32438" lon="-4.01127">
        <ele>111.3</ele>
      </trkpt>
      <trkpt lat="48.32547" lon="-4.01147">
        <ele>115.4</ele>
      </trkpt>
      <trkpt lat="48.32634" lon="-4.01205">
        <ele>124.9</ele>
      </trkpt>
      <trkpt lat="48.32696" lon="-4.01257">
        <ele>136.7</ele>
      </trkpt>
      <trkpt lat="48.32699" lon="-4.01386">
        <ele>140.8</ele>
      </trkpt>
      <trkpt lat="48.32434" lon="-4.01945">
        <ele>215</ele>
      </trkpt>
      <trkpt lat="48.32354" lon="-4.02054">
        <ele>228.8</ele>
      </trkpt>
      <trkpt lat="48.32252" lon="-4.02234">
        <ele>229.3</ele>
      </trkpt>
      <trkpt lat="48.3199" lon="-4.02548">
        <ele>220.3</ele>
      </trkpt>
      <trkpt lat="48.31974" lon="-4.02844">
        <ele>235.4</ele>
      </trkpt>
      <trkpt lat="48.31903" lon="-4.02953">
        <ele>233.8</ele>
      </trkpt>
      <trkpt lat="48.31815" lon="-4.0324">
        <ele>242.2</ele>
      </trkpt>
      <trkpt lat="48.31929" lon="-4.03673">
        <ele>252</ele>
      </trkpt>
      <trkpt lat="48.31983" lon="-4.04083">
        <ele>263.4</ele>
      </trkpt>
      <trkpt lat="48.31989" lon="-4.04528">
        <ele>269.3</ele>
      </trkpt>
      <trkpt lat="48.32389" lon="-4.05172">
        <ele>286.1</ele>
      </trkpt>
      <trkpt lat="48.32247" lon="-4.05263">
        <ele>283.9</ele>
      </trkpt>
      <trkpt lat="48.32002" lon="-4.05656">
        <ele>277.4</ele>
      </trkpt>
      <trkpt lat="48.31845" lon="-4.05942">
        <ele>256.9</ele>
      </trkpt>
      <trkpt lat="48.31646" lon="-4.05938">
        <ele>231.8</ele>
      </trkpt>
      <trkpt lat="48.31609" lon="-4.0587">
        <ele>230.2</ele>
      </trkpt>
      <trkpt lat="48.31574" lon="-4.05902">
        <ele>223.3</ele>
      </trkpt>
      <trkpt lat="48.31604" lon="-4.06072">
        <ele>217.8</ele>
      </trkpt>
      <trkpt lat="48.31499" lon="-4.06073">
        <ele>208.2</ele>
      </trkpt>
      <trkpt lat="48.31414" lon="-4.0621">
        <ele>199.1</ele>
      </trkpt>
      <trkpt lat="48.31603" lon="-4.06692">
        <ele>211.9</ele>
      </trkpt>
      <trkpt lat="48.31603" lon="-4.0679">
        <ele>207.8</ele>
      </trkpt>
      <trkpt lat="48.31281" lon="-4.07001">
        <ele>186.2</ele>
      </trkpt>
      <trkpt lat="48.3149" lon="-4.07821">
        <ele>169.9</ele>
      </trkpt>
      <trkpt lat="48.31514" lon="-4.09453">
        <ele>118.1</ele>
      </trkpt>
      <trkpt lat="48.31533" lon="-4.09611">
        <ele>108.3</ele>
      </trkpt>
      <trkpt lat="48.31526" lon="-4.09725">
        <ele>102.4</ele>
      </trkpt>
      <trkpt lat="48.31495" lon="-4.09897">
        <ele>92.6</ele>
      </trkpt>
      <trkpt lat="48.31506" lon="-4.1006">
        <ele>85.9</ele>
      </trkpt>
      <trkpt lat="48.31444" lon="-4.10123">
        <ele>86.2</ele>
      </trkpt>
      <trkpt lat="48.31583" lon="-4.10462">
        <ele>88.2</ele>
      </trkpt>
      <trkpt lat="48.31799" lon="-4.10715">
        <ele>86.6</ele>
      </trkpt>
      <trkpt lat="48.31982" lon="-4.10843">
        <ele>77.4</ele>
      </trkpt>
      <trkpt lat="48.31989" lon="-4.10911">
        <ele>76.7</ele>
      </trkpt>
      <trkpt lat="48.31525" lon="-4.11638">
        <ele>129.4</ele>
      </trkpt>
      <trkpt lat="48.31628" lon="-4.11901">
        <ele>110.4</ele>
      </trkpt>
      <trkpt lat="48.31674" lon="-4.12222">
        <ele>90.2</ele>
      </trkpt>
      <trkpt lat="48.31687" lon="-4.12447">
        <ele>83.5</ele>
      </trkpt>
      <trkpt lat="48.31721" lon="-4.12731">
        <ele>78.7</ele>
      </trkpt>
      <trkpt lat="48.31724" lon="-4.12873">
        <ele>72.4</ele>
      </trkpt>
      <trkpt lat="48.3172" lon="-4.13147">
        <ele>72.3</ele>
      </trkpt>
      <trkpt lat="48.31738" lon="-4.13319">
        <ele>72.2</ele>
      </trkpt>
      <trkpt lat="48.318" lon="-4.1357">
        <ele>73</ele>
      </trkpt>
      <trkpt lat="48.31801" lon="-4.13682">
        <ele>75.8</ele>
      </trkpt>
      <trkpt lat="48.31714" lon="-4.13888">
        <ele>70.1</ele>
      </trkpt>
      <trkpt lat="48.31664" lon="-4.14366">
        <ele>45.6</ele>
      </trkpt>
      <trkpt lat="48.31617" lon="-4.14489">
        <ele>37.2</ele>
      </trkpt>
      <trkpt lat="48.31471" lon="-4.14545">
        <ele>33.1</ele>
      </trkpt>
      <trkpt lat="48.31499" lon="-4.14657">
        <ele>30.1</ele>
      </trkpt>
      <trkpt lat="48.31416" lon="-4.14768">
        <ele>29</ele>
      </trkpt>
      <trkpt lat="48.31458" lon="-4.15013">
        <ele>35.1</ele>
      </trkpt>
      <trkpt lat="48.31392" lon="-4.14869">
        <ele>32.8</ele>
      </trkpt>
      <trkpt lat="48.31329" lon="-4.14915">
        <ele>39.6</ele>
      </trkpt>
      <trkpt lat="48.31372" lon="-4.15087">
        <ele>55.9</ele>
      </trkpt>
      <trkpt lat="48.31409" lon="-4.15338">
        <ele>66.2</ele>
      </trkpt>
      <trkpt lat="48.31372" lon="-4.15428">
        <ele>72.6</ele>
      </trkpt>
      <trkpt lat="48.3126" lon="-4.1566">
        <ele>73.5</ele>
      </trkpt>
      <trkpt lat="48.31274" lon="-4.15822">
        <ele>71.4</ele>
      </trkpt>
      <trkpt lat="48.31172" lon="-4.15798">
        <ele>61.6</ele>
      </trkpt>
      <trkpt lat="48.31084" lon="-4.15974">
        <ele>67.8</ele>
      </trkpt>
      <trkpt lat="48.3099" lon="-4.16151">
        <ele>53</ele>
      </trkpt>
      <trkpt lat="48.30971" lon="-4.16298">
        <ele>48.3</ele>
      </trkpt>
      <trkpt lat="48.30737" lon="-4.16454">
        <ele>58.9</ele>
      </trkpt>
      <trkpt lat="48.30642" lon="-4.16544">
        <ele>55.3</ele>
      </trkpt>
      <trkpt lat="48.30613" lon="-4.16483">
        <ele>49.4</ele>
      </trkpt>
      <trkpt lat="48.30642" lon="-4.16408">
        <ele>50.8</ele>
      </trkpt>
      <trkpt lat="48.30482" lon="-4.16332">
        <ele>36.9</ele>
      </trkpt>
      <trkpt lat="48.30449" lon="-4.16215">
        <ele>19.1</ele>
      </trkpt>
      <trkpt lat="48.30312" lon="-4.16363">
        <ele>17.5</ele>
      </trkpt>
      <trkpt lat="48.30252" lon="-4.16401">
        <ele>14.8</ele>
      </trkpt>
      <trkpt lat="48.30165" lon="-4.16532">
        <ele>16</ele>
      </trkpt>
      <trkpt lat="48.30155" lon="-4.16625">
        <ele>20.9</ele>
      </trkpt>
      <trkpt lat="48.3009" lon="-4.17201">
        <ele>24</ele>
      </trkpt>
      <trkpt lat="48.30053" lon="-4.17377">
        <ele>14.9</ele>
      </trkpt>
      <trkpt lat="48.30075" lon="-4.1749">
        <ele>16.8</ele>
      </trkpt>
      <trkpt lat="48.29976" lon="-4.17671">
        <ele>24.8</ele>
      </trkpt>
      <trkpt lat="48.29852" lon="-4.17848">
        <ele>16.5</ele>
      </trkpt>
      <trkpt lat="48.2975" lon="-4.18042">
        <ele>7.6</ele>
      </trkpt>
      <trkpt lat="48.29667" lon="-4.18079">
        <ele>4.5</ele>
      </trkpt>
      <trkpt lat="48.29564" lon="-4.18053">
        <ele>5</ele>
      </trkpt>
      <trkpt lat="48.29543" lon="-4.18127">
        <ele>5.3</ele>
      </trkpt>
      <trkpt lat="48.29437" lon="-4.18084">
        <ele>11.7</ele>
      </trkpt>
      <trkpt lat="48.2937" lon="-4.18153">
        <ele>13.4</ele>
      </trkpt>
      <trkpt lat="48.29215" lon="-4.18047">
        <ele>17.7</ele>
      </trkpt>
      <trkpt lat="48.291" lon="-4.18089">
        <ele>22.1</ele>
      </trkpt>
      <trkpt lat="48.2896" lon="-4.18167">
        <ele>23.6</ele>
      </trkpt>
      <trkpt lat="48.28768" lon="-4.18255">
        <ele>21.1</ele>
      </trkpt>
      <trkpt lat="48.28698" lon="-4.18337">
        <ele>26.1</ele>
      </trkpt>
      <trkpt lat="48.2857" lon="-4.18524">
        <ele>40.5</ele>
      </trkpt>
      <trkpt lat="48.28421" lon="-4.1864">
        <ele>55</ele>
      </trkpt>
      <trkpt lat="48.28251" lon="-4.1868">
        <ele>56</ele>
      </trkpt>
      <trkpt lat="48.27999" lon="-4.18815">
        <ele>85</ele>
      </trkpt>
      <trkpt lat="48.27958" lon="-4.19083">
        <ele>85.9</ele>
      </trkpt>
      <trkpt lat="48.27879" lon="-4.19313">
        <ele>81.5</ele>
      </trkpt>
      <trkpt lat="48.27655" lon="-4.19765">
        <ele>51.3</ele>
      </trkpt>
      <trkpt lat="48.27768" lon="-4.19775">
        <ele>48.2</ele>
      </trkpt>
      <trkpt lat="48.27869" lon="-4.19815">
        <ele>42.6</ele>
      </trkpt>
      <trkpt lat="48.28031" lon="-4.19984">
        <ele>36.6</ele>
      </trkpt>
      <trkpt lat="48.28133" lon="-4.20226">
        <ele>30.5</ele>
      </trkpt>
      <trkpt lat="48.28024" lon="-4.20464">
        <ele>51.7</ele>
      </trkpt>
      <trkpt lat="48.27893" lon="-4.2065">
        <ele>69.5</ele>
      </trkpt>
      <trkpt lat="48.27824" lon="-4.20551">
        <ele>77.3</ele>
      </trkpt>
      <trkpt lat="48.27746" lon="-4.20541">
        <ele>85.9</ele>
      </trkpt>
      <trkpt lat="48.27623" lon="-4.20799">
        <ele>105.6</ele>
      </trkpt>
      <trkpt lat="48.27448" lon="-4.21146">
        <ele>113.3</ele>
      </trkpt>
      <trkpt lat="48.27811" lon="-4.21762">
        <ele>99.3</ele>
      </trkpt>
      <trkpt lat="48.27908" lon="-4.22214">
        <ele>53.7</ele>
      </trkpt>
      <trkpt lat="48.279" lon="-4.2228">
        <ele>49.1</ele>
      </trkpt>
      <trkpt lat="48.27939" lon="-4.22366">
        <ele>42.2</ele>
      </trkpt>
      <trkpt lat="48.27901" lon="-4.2253">
        <ele>41.5</ele>
      </trkpt>
      <trkpt lat="48.27913" lon="-4.22649">
        <ele>40.8</ele>
      </trkpt>
      <trkpt lat="48.27897" lon="-4.22742">
        <ele>42.4</ele>
      </trkpt>
      <trkpt lat="48.27894" lon="-4.22816">
        <ele>41.9</ele>
      </trkpt>
      <trkpt lat="48.27863" lon="-4.22923">
        <ele>40.5</ele>
      </trkpt>
      <trkpt lat="48.27865" lon="-4.23002">
        <ele>38.9</ele>
      </trkpt>
      <trkpt lat="48.2789" lon="-4.23059">
        <ele>36.3</ele>
      </trkpt>
      <trkpt lat="48.27883" lon="-4.23227">
        <ele>36.1</ele>
      </trkpt>
      <trkpt lat="48.27946" lon="-4.23454">
        <ele>30.5</ele>
      </trkpt>
      <trkpt lat="48.27694" lon="-4.23649">
        <ele>58.7</ele>
      </trkpt>
      <trkpt lat="48.27675" lon="-4.23789">
        <ele>67.7</ele>
      </trkpt>
      <trkpt lat="48.27631" lon="-4.23772">
        <ele>71.6</ele>
      </trkpt>
      <trkpt lat="48.27639" lon="-4.24021">
        <ele>80.2</ele>
      </trkpt>
      <trkpt lat="48.27306" lon="-4.23932">
        <ele>92.4</ele>
      </trkpt>
      <trkpt lat="48.27298" lon="-4.23866">
        <ele>94.5</ele>
      </trkpt>
      <trkpt lat="48.27165" lon="-4.23809">
        <ele>86.5</ele>
      </trkpt>
      <trkpt lat="48.27131" lon="-4.23693">
        <ele>86.2</ele>
      </trkpt>
      <trkpt lat="48.27046" lon="-4.23462">
        <ele>92.9</ele>
      </trkpt>
      <trkpt lat="48.26759" lon="-4.23474">
        <ele>108.7</ele>
      </trkpt>
      <trkpt lat="48.2668" lon="-4.23272">
        <ele>117</ele>
      </trkpt>
      <trkpt lat="48.26525" lon="-4.23617">
        <ele>111.9</ele>
      </trkpt>
      <trkpt lat="48.26648" lon="-4.23764">
        <ele>108.8</ele>
      </trkpt>
      <trkpt lat="48.2659" lon="-4.23903">
        <ele>95.3</ele>
      </trkpt>
      <trkpt lat="48.26631" lon="-4.24127">
        <ele>81.2</ele>
      </trkpt>
      <trkpt lat="48.26616" lon="-4.24561">
        <ele>36.7</ele>
      </trkpt>
      <trkpt lat="48.26635" lon="-4.24591">
        <ele>34</ele>
      </trkpt>
      <trkpt lat="48.26657" lon="-4.24616">
        <ele>33.9</ele>
      </trkpt>
      <trkpt lat="48.26612" lon="-4.24699">
        <ele>23.8</ele>
      </trkpt>
      <trkpt lat="48.26609" lon="-4.24833">
        <ele>23.5</ele>
      </trkpt>
      <trkpt lat="48.26673" lon="-4.25002">
        <ele>24</ele>
      </trkpt>
      <trkpt lat="48.26794" lon="-4.25176">
        <ele>34.8</ele>
      </trkpt>
      <trkpt lat="48.26873" lon="-4.25447">
        <ele>26.6</ele>
      </trkpt>
      <trkpt lat="48.27014" lon="-4.26065">
        <ele>31.2</ele>
      </trkpt>
      <trkpt lat="48.27106" lon="-4.26138">
        <ele>52</ele>
      </trkpt>
      <trkpt lat="48.27134" lon="-4.26239">
        <ele>37.6</ele>
      </trkpt>
      <trkpt lat="48.27047" lon="-4.26124">
        <ele>37.5</ele>
      </trkpt>
      <trkpt lat="48.26692" lon="-4.2641">
        <ele>31.7</ele>
      </trkpt>
      <trkpt lat="48.26685" lon="-4.26065">
        <ele>2.3</ele>
      </trkpt>
      <trkpt lat="48.26537" lon="-4.25857">
        <ele>4.2</ele>
      </trkpt>
      <trkpt lat="48.26468" lon="-4.25713">
        <ele>1.5</ele>
      </trkpt>
      <trkpt lat="48.26323" lon="-4.25724">
        <ele>20.9</ele>
      </trkpt>
      <trkpt lat="48.26308" lon="-4.25902">
        <ele>15.9</ele>
      </trkpt>
      <trkpt lat="48.26181" lon="-4.26166">
        <ele>23.5</ele>
      </trkpt>
      <trkpt lat="48.26138" lon="-4.26539">
        <ele>28.7</ele>
      </trkpt>
      <trkpt lat="48.26104" lon="-4.26535">
        <ele>23.3</ele>
      </trkpt>
      <trkpt lat="48.2588" lon="-4.27342">
        <ele>15.3</ele>
      </trkpt>
      <trkpt lat="48.25789" lon="-4.27204">
        <ele>8.8</ele>
      </trkpt>
      <trkpt lat="48.25518" lon="-4.27066">
        <ele>19.4</ele>
      </trkpt>
      <trkpt lat="48.25428" lon="-4.26753">
        <ele>30.2</ele>
      </trkpt>
      <trkpt lat="48.25362" lon="-4.26668">
        <ele>39.3</ele>
      </trkpt>
      <trkpt lat="48.25355" lon="-4.26569">
        <ele>42</ele>
      </trkpt>
      <trkpt lat="48.25327" lon="-4.26538">
        <ele>44.6</ele>
      </trkpt>
      <trkpt lat="48.25275" lon="-4.26376">
        <ele>51.9</ele>
      </trkpt>
      <trkpt lat="48.25125" lon="-4.26125">
        <ele>69.8</ele>
      </trkpt>
      <trkpt lat="48.25017" lon="-4.26067">
        <ele>66.1</ele>
      </trkpt>
      <trkpt lat="48.24963" lon="-4.2606">
        <ele>67.1</ele>
      </trkpt>
      <trkpt lat="48.24901" lon="-4.26124">
        <ele>65.2</ele>
      </trkpt>
      <trkpt lat="48.24783" lon="-4.26129">
        <ele>60.6</ele>
      </trkpt>
      <trkpt lat="48.24695" lon="-4.25945">
        <ele>60.7</ele>
      </trkpt>
      <trkpt lat="48.24567" lon="-4.2596">
        <ele>75.8</ele>
      </trkpt>
      <trkpt lat="48.24593" lon="-4.26314">
        <ele>84.5</ele>
      </trkpt>
      <trkpt lat="48.24578" lon="-4.26515">
        <ele>91.1</ele>
      </trkpt>
      <trkpt lat="48.24593" lon="-4.26659">
        <ele>93.3</ele>
      </trkpt>
      <trkpt lat="48.24466" lon="-4.26609">
        <ele>102.6</ele>
      </trkpt>
      <trkpt lat="48.24437" lon="-4.26704">
        <ele>108.1</ele>
      </trkpt>
      <trkpt lat="48.24456" lon="-4.26821">
        <ele>107.6</ele>
      </trkpt>
      <trkpt lat="48.24439" lon="-4.2691">
        <ele>108.6</ele>
      </trkpt>
      <trkpt lat="48.2441" lon="-4.27018">
        <ele>110</ele>
      </trkpt>
      <trkpt lat="48.24431" lon="-4.2723">
        <ele>105.6</ele>
      </trkpt>
      <trkpt lat="48.24369" lon="-4.2734">
        <ele>109.7</ele>
      </trkpt>
      <trkpt lat="48.24344" lon="-4.27395">
        <ele>112.4</ele>
      </trkpt>
      <trkpt lat="48.24509" lon="-4.27479">
        <ele>93.8</ele>
      </trkpt>
      <trkpt lat="48.24505" lon="-4.27597">
        <ele>89</ele>
      </trkpt>
      <trkpt lat="48.24537" lon="-4.27652">
        <ele>83.5</ele>
      </trkpt>
      <trkpt lat="48.24525" lon="-4.27796">
        <ele>73.3</ele>
      </trkpt>
      <trkpt lat="48.24651" lon="-4.27974">
        <ele>60.9</ele>
      </trkpt>
      <trkpt lat="48.24701" lon="-4.28271">
        <ele>69.7</ele>
      </trkpt>
      <trkpt lat="48.24448" lon="-4.28127">
        <ele>86.2</ele>
      </trkpt>
      <trkpt lat="48.24391" lon="-4.28133">
        <ele>93.1</ele>
      </trkpt>
      <trkpt lat="48.24337" lon="-4.2816">
        <ele>96.5</ele>
      </trkpt>
      <trkpt lat="48.24292" lon="-4.28532">
        <ele>104.6</ele>
      </trkpt>
      <trkpt lat="48.24227" lon="-4.28592">
        <ele>109.5</ele>
      </trkpt>
      <trkpt lat="48.24199" lon="-4.28784">
        <ele>110.6</ele>
      </trkpt>
      <trkpt lat="48.24081" lon="-4.29188">
        <ele>104.7</ele>
      </trkpt>
      <trkpt lat="48.23904" lon="-4.2896">
        <ele>131.1</ele>
      </trkpt>
      <trkpt lat="48.23953" lon="-4.28571">
        <ele>142.1</ele>
      </trkpt>
      <trkpt lat="48.2329" lon="-4.2845">
        <ele>166.2</ele>
      </trkpt>
      <trkpt lat="48.23204" lon="-4.28494">
        <ele>168.1</ele>
      </trkpt>
      <trkpt lat="48.23084" lon="-4.28427">
        <ele>175.3</ele>
      </trkpt>
      <trkpt lat="48.23076" lon="-4.28336">
        <ele>176.9</ele>
      </trkpt>
      <trkpt lat="48.23048" lon="-4.2815">
        <ele>179.5</ele>
      </trkpt>
      <trkpt lat="48.23047" lon="-4.28089">
        <ele>180.5</ele>
      </trkpt>
      <trkpt lat="48.231" lon="-4.27679">
        <ele>183.2</ele>
      </trkpt>
      <trkpt lat="48.23126" lon="-4.27383">
        <ele>183.7</ele>
      </trkpt>
      <trkpt lat="48.2311" lon="-4.27219">
        <ele>185.2</ele>
      </trkpt>
      <trkpt lat="48.2313" lon="-4.27008">
        <ele>185.1</ele>
      </trkpt>
      <trkpt lat="48.23102" lon="-4.26934">
        <ele>186</ele>
      </trkpt>
      <trkpt lat="48.23064" lon="-4.26797">
        <ele>188.6</ele>
      </trkpt>
      <trkpt lat="48.22881" lon="-4.26468">
        <ele>191</ele>
      </trkpt>
      <trkpt lat="48.22836" lon="-4.26215">
        <ele>190.7</ele>
      </trkpt>
      <trkpt lat="48.22765" lon="-4.2605">
        <ele>189.6</ele>
      </trkpt>
      <trkpt lat="48.22677" lon="-4.26151">
        <ele>183.4</ele>
      </trkpt>
      <trkpt lat="48.22589" lon="-4.26217">
        <ele>176.2</ele>
      </trkpt>
      <trkpt lat="48.22563" lon="-4.26268">
        <ele>171.2</ele>
      </trkpt>
      <trkpt lat="48.22543" lon="-4.26272">
        <ele>168.2</ele>
      </trkpt>
      <trkpt lat="48.22456" lon="-4.26221">
        <ele>157</ele>
      </trkpt>
      <trkpt lat="48.22252" lon="-4.26249">
        <ele>138.4</ele>
      </trkpt>
      <trkpt lat="48.22028" lon="-4.26261">
        <ele>120.4</ele>
      </trkpt>
      <trkpt lat="48.22075" lon="-4.26004">
        <ele>129.2</ele>
      </trkpt>
      <trkpt lat="48.22064" lon="-4.25919">
        <ele>129.2</ele>
      </trkpt>
      <trkpt lat="48.22117" lon="-4.25419">
        <ele>154.6</ele>
      </trkpt>
      <trkpt lat="48.22039" lon="-4.24809">
        <ele>183.5</ele>
      </trkpt>
      <trkpt lat="48.22049" lon="-4.2479">
        <ele>185.4</ele>
      </trkpt>
      <trkpt lat="48.2203" lon="-4.24695">
        <ele>191.1</ele>
      </trkpt>
      <trkpt lat="48.22092" lon="-4.24653">
        <ele>198.4</ele>
      </trkpt>
      <trkpt lat="48.22152" lon="-4.2458">
        <ele>207.4</ele>
      </trkpt>
      <trkpt lat="48.22087" lon="-4.24406">
        <ele>212</ele>
      </trkpt>
      <trkpt lat="48.22073" lon="-4.24354">
        <ele>216.4</ele>
      </trkpt>
      <trkpt lat="48.22062" lon="-4.2422">
        <ele>234.1</ele>
      </trkpt>
      <trkpt lat="48.21987" lon="-4.24134">
        <ele>250.8</ele>
      </trkpt>
      <trkpt lat="48.2198" lon="-4.24011">
        <ele>262.6</ele>
      </trkpt>
      <trkpt lat="48.21973" lon="-4.23878">
        <ele>292.4</ele>
      </trkpt>
      <trkpt lat="48.21976" lon="-4.23464">
        <ele>324.7</ele>
      </trkpt>
    </trkseg>
  </trk>
  <trk>
    <name><![CDATA[fusion]]></name>
    <trkseg>
      <trkpt lat="47.80415" lon="-3.4479">
        <ele>39.5</ele>
      </trkpt>
      <trkpt lat="47.80355" lon="-3.44351">
        <ele>47</ele>
      </trkpt>
      <trkpt lat="47.80414" lon="-3.44021">
        <ele>47.6</ele>
      </trkpt>
      <trkpt lat="47.80453" lon="-3.43933">
        <ele>46.8</ele>
      </trkpt>
      <trkpt lat="47.80608" lon="-3.43707">
        <ele>45.5</ele>
      </trkpt>
      <trkpt lat="47.80582" lon="-3.43688">
        <ele>44.4</ele>
      </trkpt>
      <trkpt lat="47.80631" lon="-3.43618">
        <ele>42.6</ele>
      </trkpt>
      <trkpt lat="47.80672" lon="-3.43554">
        <ele>40.1</ele>
      </trkpt>
      <trkpt lat="47.80697" lon="-3.43482">
        <ele>38.4</ele>
      </trkpt>
      <trkpt lat="47.80729" lon="-3.43485">
        <ele>38.4</ele>
      </trkpt>
      <trkpt lat="47.80814" lon="-3.43461">
        <ele>38.2</ele>
      </trkpt>
      <trkpt lat="47.80998" lon="-3.43507">
        <ele>42.1</ele>
      </trkpt>
      <trkpt lat="47.81276" lon="-3.43477">
        <ele>48</ele>
      </trkpt>
      <trkpt lat="47.81353" lon="-3.43489">
        <ele>49.4</ele>
      </trkpt>
      <trkpt lat="47.81322" lon="-3.43307">
        <ele>43.3</ele>
      </trkpt>
      <trkpt lat="47.8132" lon="-3.43223">
        <ele>45.4</ele>
      </trkpt>
      <trkpt lat="47.8134" lon="-3.42782">
        <ele>55.7</ele>
      </trkpt>
      <trkpt lat="47.8134" lon="-3.42445">
        <ele>46.1</ele>
      </trkpt>
      <trkpt lat="47.81498" lon="-3.42457">
        <ele>42.4</ele>
      </trkpt>
      <trkpt lat="47.81584" lon="-3.42569">
        <ele>26.5</ele>
      </trkpt>
      <trkpt lat="47.81661" lon="-3.42532">
        <ele>18.3</ele>
      </trkpt>
      <trkpt lat="47.81613" lon="-3.42429">
        <ele>24.5</ele>
      </trkpt>
      <trkpt lat="47.81574" lon="-3.42319">
        <ele>24.1</ele>
      </trkpt>
      <trkpt lat="47.81547" lon="-3.42213">
        <ele>19.9</ele>
      </trkpt>
      <trkpt lat="47.81482" lon="-3.42111">
        <ele>18</ele>
      </trkpt>
      <trkpt lat="47.8143" lon="-3.42131">
        <ele>23.8</ele>
      </trkpt>
      <trkpt lat="47.81419" lon="-3.42021">
        <ele>18.8</ele>
      </trkpt>
      <trkpt lat="47.81355" lon="-3.41959">
        <ele>21.7</ele>
      </trkpt>
      <trkpt lat="47.81282" lon="-3.41893">
        <ele>18.3</ele>
      </trkpt>
      <trkpt lat="47.81199" lon="-3.41814">
        <ele>20.7</ele>
      </trkpt>
      <trkpt lat="47.81089" lon="-3.41839">
        <ele>21</ele>
      </trkpt>
      <trkpt lat="47.81075" lon="-3.41787">
        <ele>19.8</ele>
      </trkpt>
      <trkpt lat="47.81197" lon="-3.41727">
        <ele>21.1</ele>
      </trkpt>
      <trkpt lat="47.81234" lon="-3.41678">
        <ele>20.4</ele>
      </trkpt>
      <trkpt lat="47.81259" lon="-3.41637">
        <ele>20.2</ele>
      </trkpt>
      <trkpt lat="47.8125" lon="-3.41542">
        <ele>18</ele>
      </trkpt>
      <trkpt lat="47.81162" lon="-3.41495">
        <ele>17</ele>
      </trkpt>
      <trkpt lat="47.81053" lon="-3.41466">
        <ele>18.1</ele>
      </trkpt>
      <trkpt lat="47.80987" lon="-3.41393">
        <ele>13</ele>
      </trkpt>
      <trkpt lat="47.80939" lon="-3.41436">
        <ele>20.5</ele>
      </trkpt>
      <trkpt lat="47.80862" lon="-3.412">
        <ele>12.9</ele>
      </trkpt>
      <trkpt lat="47.80842" lon="-3.41214">
        <ele>15.7</ele>
      </trkpt>
      <trkpt lat="47.80747" lon="-3.41221">
        <ele>19.6</ele>
      </trkpt>
      <trkpt lat="47.80679" lon="-3.41269">
        <ele>17.7</ele>
      </trkpt>
      <trkpt lat="47.80643" lon="-3.4135">
        <ele>17.1</ele>
      </trkpt>
      <trkpt lat="47.80648" lon="-3.41422">
        <ele>20.9</ele>
      </trkpt>
      <trkpt lat="47.80594" lon="-3.41431">
        <ele>20.5</ele>
      </trkpt>
      <trkpt lat="47.80473" lon="-3.41498">
        <ele>23.6</ele>
      </trkpt>
      <trkpt lat="47.80371" lon="-3.41645">
        <ele>27.7</ele>
      </trkpt>
      <trkpt lat="47.80338" lon="-3.416">
        <ele>26.4</ele>
      </trkpt>
      <trkpt lat="47.80265" lon="-3.41657">
        <ele>26.3</ele>
      </trkpt>
      <trkpt lat="47.80207" lon="-3.41648">
        <ele>29.4</ele>
      </trkpt>
      <trkpt lat="47.79955" lon="-3.41507">
        <ele>41.8</ele>
      </trkpt>
      <trkpt lat="47.79963" lon="-3.4145">
        <ele>40.9</ele>
      </trkpt>
      <trkpt lat="47.80021" lon="-3.41457">
        <ele>43.9</ele>
      </trkpt>
      <trkpt lat="47.80047" lon="-3.41405">
        <ele>45.1</ele>
      </trkpt>
      <trkpt lat="47.80158" lon="-3.41192">
        <ele>37.7</ele>
      </trkpt>
      <trkpt lat="47.80304" lon="-3.41252">
        <ele>37.6</ele>
      </trkpt>
      <trkpt lat="47.80611" lon="-3.41143">
        <ele>27</ele>
      </trkpt>
      <trkpt lat="47.80666" lon="-3.41132">
        <ele>24.9</ele>
      </trkpt>
      <trkpt lat="47.80845" lon="-3.41152">
        <ele>19.5</ele>
      </trkpt>
      <trkpt lat="47.80916" lon="-3.41084">
        <ele>15.1</ele>
      </trkpt>
      <trkpt lat="47.8092" lon="-3.41006">
        <ele>12.6</ele>
      </trkpt>
      <trkpt lat="47.8088" lon="-3.4094">
        <ele>12.1</ele>
      </trkpt>
      <trkpt lat="47.80776" lon="-3.40843">
        <ele>14.4</ele>
      </trkpt>
      <trkpt lat="47.80775" lon="-3.40637">
        <ele>12.5</ele>
      </trkpt>
      <trkpt lat="47.8075" lon="-3.4046">
        <ele>10.2</ele>
      </trkpt>
      <trkpt lat="47.80796" lon="-3.40441">
        <ele>7.2</ele>
      </trkpt>
      <trkpt lat="47.80893" lon="-3.40457">
        <ele>8.8</ele>
      </trkpt>
      <trkpt lat="47.80974" lon="-3.4035">
        <ele>12.1</ele>
      </trkpt>
      <trkpt lat="47.81044" lon="-3.40311">
        <ele>14.4</ele>
      </trkpt>
      <trkpt lat="47.81076" lon="-3.40379">
        <ele>23.6</ele>
      </trkpt>
      <trkpt lat="47.81122" lon="-3.40432">
        <ele>22.9</ele>
      </trkpt>
      <trkpt lat="47.81084" lon="-3.40248">
        <ele>13.1</ele>
      </trkpt>
      <trkpt lat="47.81104" lon="-3.40173">
        <ele>14.8</ele>
      </trkpt>
      <trkpt lat="47.81228" lon="-3.40194">
        <ele>39.1</ele>
      </trkpt>
      <trkpt lat="47.81295" lon="-3.40198">
        <ele>46.5</ele>
      </trkpt>
      <trkpt lat="47.81313" lon="-3.39998">
        <ele>46.4</ele>
      </trkpt>
      <trkpt lat="47.81342" lon="-3.39837">
        <ele>44.1</ele>
      </trkpt>
      <trkpt lat="47.8139" lon="-3.39659">
        <ele>48.8</ele>
      </trkpt>
      <trkpt lat="47.81417" lon="-3.3956">
        <ele>49.3</ele>
      </trkpt>
      <trkpt lat="47.81638" lon="-3.39658">
        <ele>43.2</ele>
      </trkpt>
      <trkpt lat="47.81684" lon="-3.39648">
        <ele>42.9</ele>
      </trkpt>
      <trkpt lat="47.81689" lon="-3.39547">
        <ele>46</ele>
      </trkpt>
      <trkpt lat="47.81784" lon="-3.39168">
        <ele>37.5</ele>
      </trkpt>
      <trkpt lat="47.81801" lon="-3.39147">
        <ele>36.7</ele>
      </trkpt>
      <trkpt lat="47.81865" lon="-3.39183">
        <ele>40.9</ele>
      </trkpt>
      <trkpt lat="47.81896" lon="-3.39225">
        <ele>43.1</ele>
      </trkpt>
      <trkpt lat="47.8194" lon="-3.39084">
        <ele>32.5</ele>
      </trkpt>
      <trkpt lat="47.81983" lon="-3.39133">
        <ele>26.6</ele>
      </trkpt>
      <trkpt lat="47.82011" lon="-3.39199">
        <ele>25.3</ele>
      </trkpt>
      <trkpt lat="47.82107" lon="-3.39209">
        <ele>5.4</ele>
      </trkpt>
      <trkpt lat="47.82209" lon="-3.39223">
        <ele>2.8</ele>
      </trkpt>
      <trkpt lat="47.82287" lon="-3.3922">
        <ele>3.8</ele>
      </trkpt>
      <trkpt lat="47.82526" lon="-3.392">
        <ele>5.2</ele>
      </trkpt>
      <trkpt lat="47.82524" lon="-3.39331">
        <ele>11</ele>
      </trkpt>
      <trkpt lat="47.82621" lon="-3.3925">
        <ele>12.7</ele>
      </trkpt>
      <trkpt lat="47.82701" lon="-3.39265">
        <ele>17</ele>
      </trkpt>
      <trkpt lat="47.82763" lon="-3.39356">
        <ele>21</ele>
      </trkpt>
      <trkpt lat="47.82851" lon="-3.39238">
        <ele>14.7</ele>
      </trkpt>
      <trkpt lat="47.82903" lon="-3.39292">
        <ele>20</ele>
      </trkpt>
      <trkpt lat="47.82974" lon="-3.39395">
        <ele>26.8</ele>
      </trkpt>
      <trkpt lat="47.8296" lon="-3.39472">
        <ele>22.9</ele>
      </trkpt>
      <trkpt lat="47.83108" lon="-3.39567">
        <ele>38.8</ele>
      </trkpt>
      <trkpt lat="47.83096" lon="-3.39609">
        <ele>37.8</ele>
      </trkpt>
      <trkpt lat="47.83118" lon="-3.39635">
        <ele>39.5</ele>
      </trkpt>
      <trkpt lat="47.83168" lon="-3.39717">
        <ele>42.8</ele>
      </trkpt>
      <trkpt lat="47.8331" lon="-3.39851">
        <ele>46.1</ele>
      </trkpt>
      <trkpt lat="47.83329" lon="-3.39954">
        <ele>47.6</ele>
      </trkpt>
      <trkpt lat="47.83427" lon="-3.39959">
        <ele>39.5</ele>
      </trkpt>
      <trkpt lat="47.83487" lon="-3.39813">
        <ele>33.2</ele>
      </trkpt>
      <trkpt lat="47.83472" lon="-3.39664">
        <ele>30.1</ele>
      </trkpt>
      <trkpt lat="47.83393" lon="-3.39614">
        <ele>18.9</ele>
      </trkpt>
      <trkpt lat="47.83353" lon="-3.39438">
        <ele>22.5</ele>
      </trkpt>
      <trkpt lat="47.83432" lon="-3.39428">
        <ele>9.7</ele>
      </trkpt>
      <trkpt lat="47.83487" lon="-3.39481">
        <ele>10.8</ele>
      </trkpt>
      <trkpt lat="47.83529" lon="-3.39456">
        <ele>7.9</ele>
      </trkpt>
      <trkpt lat="47.83548" lon="-3.39335">
        <ele>6.4</ele>
      </trkpt>
      <trkpt lat="47.83598" lon="-3.39192">
        <ele>12.4</ele>
      </trkpt>
      <trkpt lat="47.83773" lon="-3.38992">
        <ele>39.9</ele>
      </trkpt>
      <trkpt lat="47.84045" lon="-3.38295">
        <ele>53.1</ele>
      </trkpt>
      <trkpt lat="47.84158" lon="-3.38371">
        <ele>53.7</ele>
      </trkpt>
      <trkpt lat="47.8435" lon="-3.38353">
        <ele>48.4</ele>
      </trkpt>
      <trkpt lat="47.84641" lon="-3.38501">
        <ele>20.3</ele>
      </trkpt>
      <trkpt lat="47.84658" lon="-3.38606">
        <ele>16.8</ele>
      </trkpt>
      <trkpt lat="47.84654" lon="-3.38709">
        <ele>20</ele>
      </trkpt>
      <trkpt lat="47.8462" lon="-3.38853">
        <ele>19.7</ele>
      </trkpt>
      <trkpt lat="47.84649" lon="-3.38978">
        <ele>10.7</ele>
      </trkpt>
      <trkpt lat="47.84747" lon="-3.39081">
        <ele>11.6</ele>
      </trkpt>
      <trkpt lat="47.84708" lon="-3.39117">
        <ele>7.5</ele>
      </trkpt>
      <trkpt lat="47.84848" lon="-3.39418">
        <ele>10</ele>
      </trkpt>
      <trkpt lat="47.85025" lon="-3.3977">
        <ele>11.2</ele>
      </trkpt>
      <trkpt lat="47.85061" lon="-3.39779">
        <ele>12.6</ele>
      </trkpt>
      <trkpt lat="47.85102" lon="-3.39747">
        <ele>13.6</ele>
      </trkpt>
      <trkpt lat="47.85153" lon="-3.39844">
        <ele>15.9</ele>
      </trkpt>
      <trkpt lat="47.85243" lon="-3.39789">
        <ele>28.3</ele>
      </trkpt>
      <trkpt lat="47.85343" lon="-3.3967">
        <ele>32.2</ele>
      </trkpt>
      <trkpt lat="47.85459" lon="-3.39613">
        <ele>31.9</ele>
      </trkpt>
      <trkpt lat="47.85516" lon="-3.39491">
        <ele>32.8</ele>
      </trkpt>
      <trkpt lat="47.85656" lon="-3.39557">
        <ele>36.1</ele>
      </trkpt>
      <trkpt lat="47.85763" lon="-3.39594">
        <ele>37.9</ele>
      </trkpt>
      <trkpt lat="47.85919" lon="-3.39669">
        <ele>31</ele>
      </trkpt>
      <trkpt lat="47.86005" lon="-3.39588">
        <ele>32.9</ele>
      </trkpt>
      <trkpt lat="47.86095" lon="-3.39534">
        <ele>23.8</ele>
      </trkpt>
      <trkpt lat="47.86122" lon="-3.39589">
        <ele>16.8</ele>
      </trkpt>
      <trkpt lat="47.86151" lon="-3.39528">
        <ele>13</ele>
      </trkpt>
      <trkpt lat="47.86102" lon="-3.39387">
        <ele>15.3</ele>
      </trkpt>
      <trkpt lat="47.86066" lon="-3.39241">
        <ele>16.9</ele>
      </trkpt>
      <trkpt lat="47.8607" lon="-3.39067">
        <ele>20.4</ele>
      </trkpt>
      <trkpt lat="47.86036" lon="-3.3882">
        <ele>22</ele>
      </trkpt>
      <trkpt lat="47.85981" lon="-3.38433">
        <ele>26.5</ele>
      </trkpt>
      <trkpt lat="47.86137" lon="-3.38335">
        <ele>33.4</ele>
      </trkpt>
      <trkpt lat="47.86297" lon="-3.38332">
        <ele>44.2</ele>
      </trkpt>
      <trkpt lat="47.86509" lon="-3.38343">
        <ele>58.6</ele>
      </trkpt>
      <trkpt lat="47.86631" lon="-3.38504">
        <ele>53</ele>
      </trkpt>
      <trkpt lat="47.86799" lon="-3.38722">
        <ele>38.5</ele>
      </trkpt>
      <trkpt lat="47.86916" lon="-3.38883">
        <ele>20.2</ele>
      </trkpt>
      <trkpt lat="47.86935" lon="-3.38665">
        <ele>25.1</ele>
      </trkpt>
      <trkpt lat="47.8702" lon="-3.38514">
        <ele>28.3</ele>
      </trkpt>
      <trkpt lat="47.87116" lon="-3.38512">
        <ele>22.9</ele>
      </trkpt>
      <trkpt lat="47.87256" lon="-3.38566">
        <ele>24.1</ele>
      </trkpt>
      <trkpt lat="47.87484" lon="-3.38674">
        <ele>33.2</ele>
      </trkpt>
      <trkpt lat="47.87619" lon="-3.3867">
        <ele>28.6</ele>
      </trkpt>
      <trkpt lat="47.8774" lon="-3.38509">
        <ele>26.5</ele>
      </trkpt>
      <trkpt lat="47.87807" lon="-3.38561">
        <ele>30.8</ele>
      </trkpt>
      <trkpt lat="47.87988" lon="-3.38671">
        <ele>35</ele>
      </trkpt>
      <trkpt lat="47.88071" lon="-3.38634">
        <ele>36.8</ele>
      </trkpt>
      <trkpt lat="47.88154" lon="-3.38464">
        <ele>34.8</ele>
      </trkpt>
      <trkpt lat="47.88263" lon="-3.38437">
        <ele>35.2</ele>
      </trkpt>
      <trkpt lat="47.88369" lon="-3.3848">
        <ele>38.2</ele>
      </trkpt>
      <trkpt lat="47.88461" lon="-3.38374">
        <ele>33.9</ele>
      </trkpt>
      <trkpt lat="47.8854" lon="-3.38357">
        <ele>38.1</ele>
      </trkpt>
      <trkpt lat="47.88624" lon="-3.38405">
        <ele>37.2</ele>
      </trkpt>
      <trkpt lat="47.88726" lon="-3.38365">
        <ele>38.2</ele>
      </trkpt>
      <trkpt lat="47.88914" lon="-3.38153">
        <ele>48.8</ele>
      </trkpt>
      <trkpt lat="47.89046" lon="-3.3803">
        <ele>42.6</ele>
      </trkpt>
      <trkpt lat="47.89126" lon="-3.38084">
        <ele>41</ele>
      </trkpt>
      <trkpt lat="47.89241" lon="-3.38044">
        <ele>44.8</ele>
      </trkpt>
      <trkpt lat="47.89254" lon="-3.37852">
        <ele>49.7</ele>
      </trkpt>
      <trkpt lat="47.89243" lon="-3.37658">
        <ele>46.6</ele>
      </trkpt>
      <trkpt lat="47.89168" lon="-3.37482">
        <ele>49.5</ele>
      </trkpt>
      <trkpt lat="47.89107" lon="-3.37315">
        <ele>44.9</ele>
      </trkpt>
      <trkpt lat="47.89179" lon="-3.37194">
        <ele>43.5</ele>
      </trkpt>
      <trkpt lat="47.89314" lon="-3.37093">
        <ele>44.7</ele>
      </trkpt>
      <trkpt lat="47.89436" lon="-3.37042">
        <ele>41.7</ele>
      </trkpt>
      <trkpt lat="47.89556" lon="-3.37003">
        <ele>46.6</ele>
      </trkpt>
      <trkpt lat="47.89734" lon="-3.36983">
        <ele>49.8</ele>
      </trkpt>
      <trkpt lat="47.8985" lon="-3.36925">
        <ele>49.9</ele>
      </trkpt>
      <trkpt lat="47.89945" lon="-3.3685">
        <ele>53.7</ele>
      </trkpt>
      <trkpt lat="47.90034" lon="-3.3688">
        <ele>52.1</ele>
      </trkpt>
      <trkpt lat="47.90031" lon="-3.37001">
        <ele>54.7</ele>
      </trkpt>
      <trkpt lat="47.90084" lon="-3.37391">
        <ele>79.9</ele>
      </trkpt>
      <trkpt lat="47.9006" lon="-3.37792">
        <ele>90.8</ele>
      </trkpt>
      <trkpt lat="47.9014" lon="-3.3818">
        <ele>90.1</ele>
      </trkpt>
      <trkpt lat="47.90346" lon="-3.38079">
        <ele>81.7</ele>
      </trkpt>
      <trkpt lat="47.90555" lon="-3.37928">
        <ele>83.5</ele>
      </trkpt>
      <trkpt lat="47.9059" lon="-3.37662">
        <ele>86.6</ele>
      </trkpt>
      <trkpt lat="47.90674" lon="-3.37409">
        <ele>75.3</ele>
      </trkpt>
      <trkpt lat="47.90832" lon="-3.37211">
        <ele>70.1</ele>
      </trkpt>
      <trkpt lat="47.9117" lon="-3.36703">
        <ele>54.4</ele>
      </trkpt>
      <trkpt lat="47.91184" lon="-3.36186">
        <ele>61.5</ele>
      </trkpt>
      <trkpt lat="47.91" lon="-3.36152">
        <ele>58.6</ele>
      </trkpt>
      <trkpt lat="47.90958" lon="-3.36071">
        <ele>55.4</ele>
      </trkpt>
      <trkpt lat="47.90942" lon="-3.35851">
        <ele>59.9</ele>
      </trkpt>
      <trkpt lat="47.90949" lon="-3.35452">
        <ele>67.9</ele>
      </trkpt>
      <trkpt lat="47.90961" lon="-3.35202">
        <ele>70.2</ele>
      </trkpt>
      <trkpt lat="47.90974" lon="-3.35029">
        <ele>75.1</ele>
      </trkpt>
      <trkpt lat="47.91027" lon="-3.34567">
        <ele>79.8</ele>
      </trkpt>
      <trkpt lat="47.91575" lon="-3.34631">
        <ele>73.8</ele>
      </trkpt>
      <trkpt lat="47.91684" lon="-3.34505">
        <ele>75.7</ele>
      </trkpt>
      <trkpt lat="47.91912" lon="-3.34483">
        <ele>82</ele>
      </trkpt>
      <trkpt lat="47.92143" lon="-3.34698">
        <ele>86.7</ele>
      </trkpt>
      <trkpt lat="47.92337" lon="-3.34512">
        <ele>92</ele>
      </trkpt>
      <trkpt lat="47.92723" lon="-3.3468">
        <ele>101.3</ele>
      </trkpt>
      <trkpt lat="47.92864" lon="-3.35167">
        <ele>110.3</ele>
      </trkpt>
      <trkpt lat="47.92986" lon="-3.35201">
        <ele>113.8</ele>
      </trkpt>
      <trkpt lat="47.93263" lon="-3.34522">
        <ele>128.4</ele>
      </trkpt>
      <trkpt lat="47.93236" lon="-3.34291">
        <ele>126.9</ele>
      </trkpt>
      <trkpt lat="47.92948" lon="-3.34252">
        <ele>110</ele>
      </trkpt>
      <trkpt lat="47.92387" lon="-3.34005">
        <ele>115.8</ele>
      </trkpt>
      <trkpt lat="47.92127" lon="-3.3383">
        <ele>90.9</ele>
      </trkpt>
      <trkpt lat="47.91905" lon="-3.33578">
        <ele>86.1</ele>
      </trkpt>
      <trkpt lat="47.9176" lon="-3.33073">
        <ele>82.3</ele>
      </trkpt>
      <trkpt lat="47.91776" lon="-3.3289">
        <ele>84.1</ele>
      </trkpt>
      <trkpt lat="47.91824" lon="-3.32662">
        <ele>82.3</ele>
      </trkpt>
      <trkpt lat="47.91956" lon="-3.32326">
        <ele>86.9</ele>
      </trkpt>
      <trkpt lat="47.91977" lon="-3.32156">
        <ele>91.1</ele>
      </trkpt>
      <trkpt lat="47.92168" lon="-3.31668">
        <ele>128.2</ele>
      </trkpt>
      <trkpt lat="47.92188" lon="-3.30809">
        <ele>140.7</ele>
      </trkpt>
      <trkpt lat="47.92459" lon="-3.30685">
        <ele>149.4</ele>
      </trkpt>
      <trkpt lat="47.9246" lon="-3.30323">
        <ele>149</ele>
      </trkpt>
      <trkpt lat="47.92569" lon="-3.29645">
        <ele>148.4</ele>
      </trkpt>
      <trkpt lat="47.92683" lon="-3.29381">
        <ele>150.2</ele>
      </trkpt>
      <trkpt lat="47.92544" lon="-3.29241">
        <ele>140.2</ele>
      </trkpt>
      <trkpt lat="47.9251" lon="-3.2823">
        <ele>146.7</ele>
      </trkpt>
      <trkpt lat="47.92013" lon="-3.28408">
        <ele>146</ele>
      </trkpt>
      <trkpt lat="47.91838" lon="-3.28362">
        <ele>137</ele>
      </trkpt>
      <trkpt lat="47.91899" lon="-3.28141">
        <ele>137.7</ele>
      </trkpt>
      <trkpt lat="47.91862" lon="-3.27859">
        <ele>139.4</ele>
      </trkpt>
      <trkpt lat="47.92044" lon="-3.27742">
        <ele>132.4</ele>
      </trkpt>
      <trkpt lat="47.92172" lon="-3.27513">
        <ele>129.2</ele>
      </trkpt>
      <trkpt lat="47.91802" lon="-3.27685">
        <ele>117.8</ele>
      </trkpt>
      <trkpt lat="47.91586" lon="-3.27799">
        <ele>102.1</ele>
      </trkpt>
      <trkpt lat="47.91404" lon="-3.27765">
        <ele>90.9</ele>
      </trkpt>
      <trkpt lat="47.91343" lon="-3.27824">
        <ele>88.1</ele>
      </trkpt>
      <trkpt lat="47.91192" lon="-3.27712">
        <ele>85.2</ele>
      </trkpt>
      <trkpt lat="47.91105" lon="-3.27691">
        <ele>80.4</ele>
      </trkpt>
      <trkpt lat="47.9112" lon="-3.27576">
        <ele>78.5</ele>
      </trkpt>
      <trkpt lat="47.91081" lon="-3.27399">
        <ele>76.2</ele>
      </trkpt>
      <trkpt lat="47.90907" lon="-3.2669">
        <ele>76.8</ele>
      </trkpt>
      <trkpt lat="47.90929" lon="-3.26301">
        <ele>81.6</ele>
      </trkpt>
      <trkpt lat="47.90857" lon="-3.2617">
        <ele>85.3</ele>
      </trkpt>
      <trkpt lat="47.90738" lon="-3.26042">
        <ele>88.9</ele>
      </trkpt>
      <trkpt lat="47.90628" lon="-3.25902">
        <ele>96.3</ele>
      </trkpt>
      <trkpt lat="47.90497" lon="-3.25649">
        <ele>98.7</ele>
      </trkpt>
      <trkpt lat="47.9047" lon="-3.25497">
        <ele>99.1</ele>
      </trkpt>
      <trkpt lat="47.90515" lon="-3.25308">
        <ele>102.3</ele>
      </trkpt>
      <trkpt lat="47.90494" lon="-3.25215">
        <ele>103</ele>
      </trkpt>
      <trkpt lat="47.90338" lon="-3.25101">
        <ele>102.2</ele>
      </trkpt>
      <trkpt lat="47.90145" lon="-3.24908">
        <ele>96.1</ele>
      </trkpt>
      <trkpt lat="47.8995" lon="-3.2463">
        <ele>86.3</ele>
      </trkpt>
      <trkpt lat="47.89913" lon="-3.24394">
        <ele>84.5</ele>
      </trkpt>
      <trkpt lat="47.89883" lon="-3.24198">
        <ele>76.6</ele>
      </trkpt>
      <trkpt lat="47.89722" lon="-3.23974">
        <ele>77.4</ele>
      </trkpt>
      <trkpt lat="47.8969" lon="-3.2381">
        <ele>73.8</ele>
      </trkpt>
      <trkpt lat="47.89737" lon="-3.23569">
        <ele>69.5</ele>
      </trkpt>
      <trkpt lat="47.8971" lon="-3.23303">
        <ele>61.3</ele>
      </trkpt>
      <trkpt lat="47.89719" lon="-3.23117">
        <ele>58</ele>
      </trkpt>
      <trkpt lat="47.89727" lon="-3.22847">
        <ele>54.1</ele>
      </trkpt>
      <trkpt lat="47.89743" lon="-3.22624">
        <ele>50</ele>
      </trkpt>
      <trkpt lat="47.89752" lon="-3.22425">
        <ele>48.3</ele>
      </trkpt>
      <trkpt lat="47.8968" lon="-3.22302">
        <ele>47</ele>
      </trkpt>
      <trkpt lat="47.89248" lon="-3.21841">
        <ele>36.3</ele>
      </trkpt>
      <trkpt lat="47.89186" lon="-3.21545">
        <ele>35</ele>
      </trkpt>
      <trkpt lat="47.89074" lon="-3.21345">
        <ele>35.5</ele>
      </trkpt>
      <trkpt lat="47.89021" lon="-3.2136">
        <ele>33.1</ele>
      </trkpt>
      <trkpt lat="47.88919" lon="-3.21324">
        <ele>32.1</ele>
      </trkpt>
      <trkpt lat="47.88809" lon="-3.21189">
        <ele>30.1</ele>
      </trkpt>
      <trkpt lat="47.88756" lon="-3.2101">
        <ele>29.9</ele>
      </trkpt>
      <trkpt lat="47.88753" lon="-3.20804">
        <ele>28.5</ele>
      </trkpt>
      <trkpt lat="47.88761" lon="-3.20527">
        <ele>27.5</ele>
      </trkpt>
      <trkpt lat="47.88761" lon="-3.2018">
        <ele>24.5</ele>
      </trkpt>
    </trkseg>
  </trk>
  <trk>
    <name><![CDATA[fusion]]></name>
    <trkseg>
      <trkpt lat="48.58373" lon="-2.53633">
        <ele>63.8</ele>
      </trkpt>
      <trkpt lat="48.58339" lon="-2.53953">
        <ele>61.4</ele>
      </trkpt>
      <trkpt lat="48.58247" lon="-2.53938">
        <ele>65.3</ele>
      </trkpt>
      <trkpt lat="48.58308" lon="-2.54178">
        <ele>57.1</ele>
      </trkpt>
      <trkpt lat="48.5816" lon="-2.54214">
        <ele>59.1</ele>
      </trkpt>
      <trkpt lat="48.58147" lon="-2.54422">
        <ele>48.3</ele>
      </trkpt>
      <trkpt lat="48.58157" lon="-2.54582">
        <ele>36.9</ele>
      </trkpt>
      <trkpt lat="48.58144" lon="-2.54681">
        <ele>31.1</ele>
      </trkpt>
      <trkpt lat="48.58149" lon="-2.54777">
        <ele>27.2</ele>
      </trkpt>
      <trkpt lat="48.58231" lon="-2.54836">
        <ele>25</ele>
      </trkpt>
      <trkpt lat="48.58165" lon="-2.55301">
        <ele>20.9</ele>
      </trkpt>
      <trkpt lat="48.58036" lon="-2.55605">
        <ele>21</ele>
      </trkpt>
      <trkpt lat="48.57965" lon="-2.55878">
        <ele>7.6</ele>
      </trkpt>
      <trkpt lat="48.5775" lon="-2.55699">
        <ele>10.5</ele>
      </trkpt>
      <trkpt lat="48.57679" lon="-2.55667">
        <ele>13.4</ele>
      </trkpt>
      <trkpt lat="48.57612" lon="-2.5547">
        <ele>23.3</ele>
      </trkpt>
      <trkpt lat="48.57377" lon="-2.55379">
        <ele>35.9</ele>
      </trkpt>
      <trkpt lat="48.56936" lon="-2.55021">
        <ele>60.6</ele>
      </trkpt>
      <trkpt lat="48.5682" lon="-2.55074">
        <ele>65.4</ele>
      </trkpt>
      <trkpt lat="48.56625" lon="-2.55225">
        <ele>74.6</ele>
      </trkpt>
      <trkpt lat="48.56521" lon="-2.55103">
        <ele>75.7</ele>
      </trkpt>
      <trkpt lat="48.56419" lon="-2.55232">
        <ele>78</ele>
      </trkpt>
      <trkpt lat="48.56535" lon="-2.55573">
        <ele>71.6</ele>
      </trkpt>
      <trkpt lat="48.56566" lon="-2.55854">
        <ele>65</ele>
      </trkpt>
      <trkpt lat="48.56416" lon="-2.55916">
        <ele>67</ele>
      </trkpt>
      <trkpt lat="48.56443" lon="-2.5619">
        <ele>64.3</ele>
      </trkpt>
      <trkpt lat="48.56376" lon="-2.56468">
        <ele>59.8</ele>
      </trkpt>
      <trkpt lat="48.56258" lon="-2.56534">
        <ele>50.2</ele>
      </trkpt>
      <trkpt lat="48.56153" lon="-2.56645">
        <ele>59.2</ele>
      </trkpt>
      <trkpt lat="48.55968" lon="-2.56956">
        <ele>62.3</ele>
      </trkpt>
      <trkpt lat="48.55962" lon="-2.57089">
        <ele>64</ele>
      </trkpt>
      <trkpt lat="48.55826" lon="-2.57128">
        <ele>70.8</ele>
      </trkpt>
      <trkpt lat="48.55773" lon="-2.57085">
        <ele>70.5</ele>
      </trkpt>
      <trkpt lat="48.55673" lon="-2.57056">
        <ele>72.7</ele>
      </trkpt>
      <trkpt lat="48.55669" lon="-2.57163">
        <ele>75.1</ele>
      </trkpt>
      <trkpt lat="48.55288" lon="-2.57329">
        <ele>90.2</ele>
      </trkpt>
      <trkpt lat="48.54991" lon="-2.57301">
        <ele>91.7</ele>
      </trkpt>
      <trkpt lat="48.54871" lon="-2.57164">
        <ele>94.8</ele>
      </trkpt>
      <trkpt lat="48.54991" lon="-2.56935">
        <ele>92.4</ele>
      </trkpt>
      <trkpt lat="48.55074" lon="-2.56765">
        <ele>90.3</ele>
      </trkpt>
      <trkpt lat="48.55161" lon="-2.56697">
        <ele>90.6</ele>
      </trkpt>
      <trkpt lat="48.55232" lon="-2.56685">
        <ele>88</ele>
      </trkpt>
      <trkpt lat="48.55209" lon="-2.56544">
        <ele>91.7</ele>
      </trkpt>
      <trkpt lat="48.55208" lon="-2.56253">
        <ele>90.1</ele>
      </trkpt>
      <trkpt lat="48.55121" lon="-2.56035">
        <ele>92.2</ele>
      </trkpt>
      <trkpt lat="48.54962" lon="-2.56331">
        <ele>94</ele>
      </trkpt>
      <trkpt lat="48.54896" lon="-2.56515">
        <ele>94.9</ele>
      </trkpt>
      <trkpt lat="48.54539" lon="-2.56696">
        <ele>99</ele>
      </trkpt>
      <trkpt lat="48.54408" lon="-2.57006">
        <ele>101.9</ele>
      </trkpt>
      <trkpt lat="48.54261" lon="-2.57239">
        <ele>98.8</ele>
      </trkpt>
      <trkpt lat="48.5412" lon="-2.56972">
        <ele>96.5</ele>
      </trkpt>
      <trkpt lat="48.53822" lon="-2.57184">
        <ele>95</ele>
      </trkpt>
      <trkpt lat="48.53666" lon="-2.56898">
        <ele>90.2</ele>
      </trkpt>
      <trkpt lat="48.53553" lon="-2.56603">
        <ele>82</ele>
      </trkpt>
      <trkpt lat="48.53388" lon="-2.56435">
        <ele>84.4</ele>
      </trkpt>
      <trkpt lat="48.53294" lon="-2.56446">
        <ele>84.1</ele>
      </trkpt>
      <trkpt lat="48.53154" lon="-2.55876">
        <ele>82.6</ele>
      </trkpt>
      <trkpt lat="48.53094" lon="-2.55921">
        <ele>82</ele>
      </trkpt>
      <trkpt lat="48.53025" lon="-2.56073">
        <ele>82.8</ele>
      </trkpt>
      <trkpt lat="48.52962" lon="-2.56181">
        <ele>83.3</ele>
      </trkpt>
      <trkpt lat="48.52818" lon="-2.563">
        <ele>81.8</ele>
      </trkpt>
      <trkpt lat="48.52853" lon="-2.56456">
        <ele>82.7</ele>
      </trkpt>
      <trkpt lat="48.52607" lon="-2.56243">
        <ele>78.1</ele>
      </trkpt>
      <trkpt lat="48.52423" lon="-2.56314">
        <ele>78</ele>
      </trkpt>
      <trkpt lat="48.52156" lon="-2.56364">
        <ele>75</ele>
      </trkpt>
      <trkpt lat="48.51996" lon="-2.56178">
        <ele>75.3</ele>
      </trkpt>
      <trkpt lat="48.51906" lon="-2.56379">
        <ele>76</ele>
      </trkpt>
      <trkpt lat="48.52012" lon="-2.56774">
        <ele>78</ele>
      </trkpt>
      <trkpt lat="48.51985" lon="-2.57208">
        <ele>75.2</ele>
      </trkpt>
      <trkpt lat="48.51962" lon="-2.57471">
        <ele>72.1</ele>
      </trkpt>
      <trkpt lat="48.51772" lon="-2.57599">
        <ele>68</ele>
      </trkpt>
      <trkpt lat="48.51653" lon="-2.57619">
        <ele>67</ele>
      </trkpt>
      <trkpt lat="48.51551" lon="-2.5783">
        <ele>65.8</ele>
      </trkpt>
      <trkpt lat="48.51399" lon="-2.58157">
        <ele>58.6</ele>
      </trkpt>
      <trkpt lat="48.51363" lon="-2.58299">
        <ele>55.6</ele>
      </trkpt>
      <trkpt lat="48.51284" lon="-2.58209">
        <ele>59.3</ele>
      </trkpt>
      <trkpt lat="48.51222" lon="-2.58184">
        <ele>61.9</ele>
      </trkpt>
      <trkpt lat="48.50983" lon="-2.58446">
        <ele>60.3</ele>
      </trkpt>
      <trkpt lat="48.50812" lon="-2.5874">
        <ele>59.4</ele>
      </trkpt>
      <trkpt lat="48.50666" lon="-2.58777">
        <ele>58</ele>
      </trkpt>
      <trkpt lat="48.50604" lon="-2.58904">
        <ele>55.2</ele>
      </trkpt>
      <trkpt lat="48.50538" lon="-2.59081">
        <ele>51.1</ele>
      </trkpt>
      <trkpt lat="48.50472" lon="-2.59131">
        <ele>50.3</ele>
      </trkpt>
      <trkpt lat="48.50505" lon="-2.59336">
        <ele>50</ele>
      </trkpt>
      <trkpt lat="48.50494" lon="-2.59481">
        <ele>51.2</ele>
      </trkpt>
      <trkpt lat="48.50646" lon="-2.59983">
        <ele>41</ele>
      </trkpt>
      <trkpt lat="48.50642" lon="-2.60076">
        <ele>39.1</ele>
      </trkpt>
      <trkpt lat="48.50398" lon="-2.60098">
        <ele>41.2</ele>
      </trkpt>
      <trkpt lat="48.50383" lon="-2.60362">
        <ele>32.9</ele>
      </trkpt>
      <trkpt lat="48.50316" lon="-2.60402">
        <ele>33.7</ele>
      </trkpt>
      <trkpt lat="48.50269" lon="-2.60423">
        <ele>39.6</ele>
      </trkpt>
      <trkpt lat="48.50303" lon="-2.60621">
        <ele>51</ele>
      </trkpt>
      <trkpt lat="48.50379" lon="-2.60692">
        <ele>48.3</ele>
      </trkpt>
      <trkpt lat="48.50479" lon="-2.60828">
        <ele>39.7</ele>
      </trkpt>
      <trkpt lat="48.50469" lon="-2.61079">
        <ele>40.1</ele>
      </trkpt>
      <trkpt lat="48.50447" lon="-2.61299">
        <ele>38.9</ele>
      </trkpt>
      <trkpt lat="48.50392" lon="-2.61313">
        <ele>37</ele>
      </trkpt>
      <trkpt lat="48.50304" lon="-2.61222">
        <ele>39.3</ele>
      </trkpt>
      <trkpt lat="48.50134" lon="-2.61244">
        <ele>40.3</ele>
      </trkpt>
      <trkpt lat="48.49896" lon="-2.61218">
        <ele>36</ele>
      </trkpt>
      <trkpt lat="48.50038" lon="-2.61422">
        <ele>40.1</ele>
      </trkpt>
      <trkpt lat="48.4991" lon="-2.61396">
        <ele>36.9</ele>
      </trkpt>
      <trkpt lat="48.49939" lon="-2.61851">
        <ele>58.6</ele>
      </trkpt>
      <trkpt lat="48.49966" lon="-2.62202">
        <ele>70.9</ele>
      </trkpt>
      <trkpt lat="48.49972" lon="-2.62353">
        <ele>73.8</ele>
      </trkpt>
      <trkpt lat="48.50144" lon="-2.62452">
        <ele>75.9</ele>
      </trkpt>
      <trkpt lat="48.50259" lon="-2.62615">
        <ele>79.3</ele>
      </trkpt>
      <trkpt lat="48.50268" lon="-2.62812">
        <ele>82</ele>
      </trkpt>
      <trkpt lat="48.50382" lon="-2.62905">
        <ele>81.2</ele>
      </trkpt>
      <trkpt lat="48.50446" lon="-2.62873">
        <ele>79.8</ele>
      </trkpt>
      <trkpt lat="48.50515" lon="-2.62936">
        <ele>75.9</ele>
      </trkpt>
      <trkpt lat="48.50701" lon="-2.62612">
        <ele>73.9</ele>
      </trkpt>
      <trkpt lat="48.50655" lon="-2.62501">
        <ele>76</ele>
      </trkpt>
      <trkpt lat="48.50741" lon="-2.6244">
        <ele>75.4</ele>
      </trkpt>
      <trkpt lat="48.50991" lon="-2.62514">
        <ele>74</ele>
      </trkpt>
      <trkpt lat="48.51032" lon="-2.62442">
        <ele>72.2</ele>
      </trkpt>
      <trkpt lat="48.51038" lon="-2.62588">
        <ele>69.8</ele>
      </trkpt>
      <trkpt lat="48.50985" lon="-2.62741">
        <ele>64.8</ele>
      </trkpt>
      <trkpt lat="48.50959" lon="-2.62966">
        <ele>51.6</ele>
      </trkpt>
      <trkpt lat="48.50849" lon="-2.63291">
        <ele>51.4</ele>
      </trkpt>
      <trkpt lat="48.50739" lon="-2.63216">
        <ele>54.9</ele>
      </trkpt>
      <trkpt lat="48.5057" lon="-2.63523">
        <ele>60.8</ele>
      </trkpt>
      <trkpt lat="48.50547" lon="-2.63774">
        <ele>59.1</ele>
      </trkpt>
      <trkpt lat="48.50571" lon="-2.64111">
        <ele>56</ele>
      </trkpt>
      <trkpt lat="48.50617" lon="-2.64192">
        <ele>56.9</ele>
      </trkpt>
      <trkpt lat="48.50528" lon="-2.64316">
        <ele>56.9</ele>
      </trkpt>
      <trkpt lat="48.50472" lon="-2.64456">
        <ele>56.3</ele>
      </trkpt>
      <trkpt lat="48.50386" lon="-2.64505">
        <ele>54.4</ele>
      </trkpt>
      <trkpt lat="48.50326" lon="-2.64727">
        <ele>53.5</ele>
      </trkpt>
      <trkpt lat="48.50212" lon="-2.6505">
        <ele>47</ele>
      </trkpt>
      <trkpt lat="48.50217" lon="-2.65186">
        <ele>46.5</ele>
      </trkpt>
      <trkpt lat="48.5016" lon="-2.65346">
        <ele>43.3</ele>
      </trkpt>
      <trkpt lat="48.49998" lon="-2.65077">
        <ele>41.4</ele>
      </trkpt>
      <trkpt lat="48.49789" lon="-2.65373">
        <ele>35.5</ele>
      </trkpt>
      <trkpt lat="48.49818" lon="-2.6568">
        <ele>29.7</ele>
      </trkpt>
      <trkpt lat="48.49723" lon="-2.66226">
        <ele>28</ele>
      </trkpt>
      <trkpt lat="48.49668" lon="-2.66335">
        <ele>27.3</ele>
      </trkpt>
      <trkpt lat="48.49688" lon="-2.66381">
        <ele>27.2</ele>
      </trkpt>
      <trkpt lat="48.49632" lon="-2.66509">
        <ele>24.6</ele>
      </trkpt>
      <trkpt lat="48.4974" lon="-2.67044">
        <ele>23.4</ele>
      </trkpt>
      <trkpt lat="48.49685" lon="-2.67045">
        <ele>23.9</ele>
      </trkpt>
      <trkpt lat="48.49585" lon="-2.67022">
        <ele>23</ele>
      </trkpt>
      <trkpt lat="48.49374" lon="-2.67053">
        <ele>12.4</ele>
      </trkpt>
      <trkpt lat="48.49318" lon="-2.67098">
        <ele>8.7</ele>
      </trkpt>
      <trkpt lat="48.49174" lon="-2.67407">
        <ele>5</ele>
      </trkpt>
      <trkpt lat="48.48933" lon="-2.67838">
        <ele>6.7</ele>
      </trkpt>
      <trkpt lat="48.48829" lon="-2.67885">
        <ele>7</ele>
      </trkpt>
      <trkpt lat="48.48972" lon="-2.6801">
        <ele>5</ele>
      </trkpt>
      <trkpt lat="48.4914" lon="-2.68398">
        <ele>7</ele>
      </trkpt>
      <trkpt lat="48.4925" lon="-2.68568">
        <ele>7</ele>
      </trkpt>
      <trkpt lat="48.49137" lon="-2.68652">
        <ele>11.4</ele>
      </trkpt>
      <trkpt lat="48.49045" lon="-2.68756">
        <ele>20.7</ele>
      </trkpt>
      <trkpt lat="48.49009" lon="-2.68986">
        <ele>27.7</ele>
      </trkpt>
      <trkpt lat="48.49001" lon="-2.69189">
        <ele>32.6</ele>
      </trkpt>
      <trkpt lat="48.49101" lon="-2.69519">
        <ele>41.1</ele>
      </trkpt>
      <trkpt lat="48.49137" lon="-2.69663">
        <ele>42.3</ele>
      </trkpt>
      <trkpt lat="48.49217" lon="-2.69746">
        <ele>44.2</ele>
      </trkpt>
      <trkpt lat="48.49355" lon="-2.69848">
        <ele>43.8</ele>
      </trkpt>
      <trkpt lat="48.49423" lon="-2.7007">
        <ele>54</ele>
      </trkpt>
      <trkpt lat="48.49516" lon="-2.70211">
        <ele>58.6</ele>
      </trkpt>
      <trkpt lat="48.49609" lon="-2.7022">
        <ele>60.8</ele>
      </trkpt>
      <trkpt lat="48.49607" lon="-2.70451">
        <ele>65.3</ele>
      </trkpt>
      <trkpt lat="48.49568" lon="-2.70668">
        <ele>71.8</ele>
      </trkpt>
      <trkpt lat="48.49643" lon="-2.70777">
        <ele>75.4</ele>
      </trkpt>
      <trkpt lat="48.49719" lon="-2.70867">
        <ele>77.5</ele>
      </trkpt>
      <trkpt lat="48.49872" lon="-2.70925">
        <ele>76.5</ele>
      </trkpt>
      <trkpt lat="48.50039" lon="-2.70941">
        <ele>67.4</ele>
      </trkpt>
      <trkpt lat="48.5004" lon="-2.71119">
        <ele>73.7</ele>
      </trkpt>
      <trkpt lat="48.50177" lon="-2.7117">
        <ele>78.5</ele>
      </trkpt>
      <trkpt lat="48.50299" lon="-2.71061">
        <ele>79.4</ele>
      </trkpt>
      <trkpt lat="48.50414" lon="-2.70927">
        <ele>73.5</ele>
      </trkpt>
      <trkpt lat="48.50502" lon="-2.71049">
        <ele>75.1</ele>
      </trkpt>
      <trkpt lat="48.50561" lon="-2.71112">
        <ele>74.5</ele>
      </trkpt>
      <trkpt lat="48.50608" lon="-2.71103">
        <ele>73.1</ele>
      </trkpt>
      <trkpt lat="48.50805" lon="-2.71174">
        <ele>67.8</ele>
      </trkpt>
      <trkpt lat="48.5086" lon="-2.71198">
        <ele>65.9</ele>
      </trkpt>
      <trkpt lat="48.50975" lon="-2.71139">
        <ele>61.2</ele>
      </trkpt>
      <trkpt lat="48.51106" lon="-2.71158">
        <ele>56.6</ele>
      </trkpt>
      <trkpt lat="48.51205" lon="-2.71156">
        <ele>53.9</ele>
      </trkpt>
      <trkpt lat="48.51336" lon="-2.71149">
        <ele>46.6</ele>
      </trkpt>
      <trkpt lat="48.51371" lon="-2.71234">
        <ele>38.5</ele>
      </trkpt>
      <trkpt lat="48.51424" lon="-2.71284">
        <ele>28.2</ele>
      </trkpt>
      <trkpt lat="48.51465" lon="-2.71364">
        <ele>34.5</ele>
      </trkpt>
      <trkpt lat="48.51523" lon="-2.71281">
        <ele>31.8</ele>
      </trkpt>
      <trkpt lat="48.51613" lon="-2.71271">
        <ele>28.4</ele>
      </trkpt>
      <trkpt lat="48.51693" lon="-2.71355">
        <ele>30</ele>
      </trkpt>
      <trkpt lat="48.51743" lon="-2.71543">
        <ele>30</ele>
      </trkpt>
      <trkpt lat="48.51653" lon="-2.71774">
        <ele>42.4</ele>
      </trkpt>
      <trkpt lat="48.5164" lon="-2.71899">
        <ele>17.1</ele>
      </trkpt>
      <trkpt lat="48.51588" lon="-2.72138">
        <ele>21.6</ele>
      </trkpt>
      <trkpt lat="48.51635" lon="-2.72427">
        <ele>31.9</ele>
      </trkpt>
      <trkpt lat="48.51517" lon="-2.72624">
        <ele>30</ele>
      </trkpt>
      <trkpt lat="48.51551" lon="-2.72704">
        <ele>31.4</ele>
      </trkpt>
      <trkpt lat="48.51565" lon="-2.72876">
        <ele>57.8</ele>
      </trkpt>
      <trkpt lat="48.51676" lon="-2.72925">
        <ele>66.4</ele>
      </trkpt>
      <trkpt lat="48.5176" lon="-2.73028">
        <ele>66.3</ele>
      </trkpt>
      <trkpt lat="48.51796" lon="-2.73069">
        <ele>67.5</ele>
      </trkpt>
      <trkpt lat="48.5183" lon="-2.73059">
        <ele>65.7</ele>
      </trkpt>
      <trkpt lat="48.51803" lon="-2.73291">
        <ele>71.8</ele>
      </trkpt>
      <trkpt lat="48.51764" lon="-2.73534">
        <ele>72.9</ele>
      </trkpt>
      <trkpt lat="48.51753" lon="-2.73792">
        <ele>69.1</ele>
      </trkpt>
      <trkpt lat="48.51757" lon="-2.7388">
        <ele>65.4</ele>
      </trkpt>
      <trkpt lat="48.51788" lon="-2.7394">
        <ele>60</ele>
      </trkpt>
      <trkpt lat="48.51751" lon="-2.74032">
        <ele>58.4</ele>
      </trkpt>
      <trkpt lat="48.5183" lon="-2.74008">
        <ele>49.2</ele>
      </trkpt>
      <trkpt lat="48.51916" lon="-2.74003">
        <ele>41</ele>
      </trkpt>
      <trkpt lat="48.52005" lon="-2.74069">
        <ele>26.7</ele>
      </trkpt>
      <trkpt lat="48.52068" lon="-2.7405">
        <ele>21.5</ele>
      </trkpt>
      <trkpt lat="48.52182" lon="-2.74029">
        <ele>15.1</ele>
      </trkpt>
      <trkpt lat="48.52285" lon="-2.7378">
        <ele>25</ele>
      </trkpt>
      <trkpt lat="48.524" lon="-2.73653">
        <ele>32.4</ele>
      </trkpt>
      <trkpt lat="48.52475" lon="-2.73653">
        <ele>16.5</ele>
      </trkpt>
      <trkpt lat="48.52523" lon="-2.73722">
        <ele>6.2</ele>
      </trkpt>
      <trkpt lat="48.52412" lon="-2.73856">
        <ele>13.3</ele>
      </trkpt>
      <trkpt lat="48.52366" lon="-2.7399">
        <ele>16</ele>
      </trkpt>
      <trkpt lat="48.52396" lon="-2.74151">
        <ele>7.5</ele>
      </trkpt>
      <trkpt lat="48.52496" lon="-2.74173">
        <ele>6.2</ele>
      </trkpt>
      <trkpt lat="48.52569" lon="-2.7401">
        <ele>5.8</ele>
      </trkpt>
      <trkpt lat="48.52704" lon="-2.73891">
        <ele>11.8</ele>
      </trkpt>
      <trkpt lat="48.52882" lon="-2.73769">
        <ele>20.9</ele>
      </trkpt>
      <trkpt lat="48.52948" lon="-2.73503">
        <ele>16.3</ele>
      </trkpt>
      <trkpt lat="48.52957" lon="-2.73187">
        <ele>12.1</ele>
      </trkpt>
      <trkpt lat="48.52955" lon="-2.73054">
        <ele>7.5</ele>
      </trkpt>
      <trkpt lat="48.53049" lon="-2.73101">
        <ele>11.3</ele>
      </trkpt>
      <trkpt lat="48.53277" lon="-2.73067">
        <ele>36.3</ele>
      </trkpt>
      <trkpt lat="48.53441" lon="-2.73083">
        <ele>38.1</ele>
      </trkpt>
      <trkpt lat="48.53429" lon="-2.73152">
        <ele>47.4</ele>
      </trkpt>
      <trkpt lat="48.53376" lon="-2.73197">
        <ele>47.3</ele>
      </trkpt>
      <trkpt lat="48.53323" lon="-2.73375">
        <ele>56.5</ele>
      </trkpt>
      <trkpt lat="48.53267" lon="-2.73496">
        <ele>54.6</ele>
      </trkpt>
      <trkpt lat="48.53245" lon="-2.73626">
        <ele>58</ele>
      </trkpt>
      <trkpt lat="48.53178" lon="-2.73741">
        <ele>58.9</ele>
      </trkpt>
      <trkpt lat="48.53172" lon="-2.7388">
        <ele>61.1</ele>
      </trkpt>
      <trkpt lat="48.53095" lon="-2.73903">
        <ele>59.2</ele>
      </trkpt>
      <trkpt lat="48.53032" lon="-2.73992">
        <ele>62.2</ele>
      </trkpt>
      <trkpt lat="48.53019" lon="-2.74079">
        <ele>65.3</ele>
      </trkpt>
      <trkpt lat="48.53068" lon="-2.74115">
        <ele>65.8</ele>
      </trkpt>
      <trkpt lat="48.5309" lon="-2.74212">
        <ele>67.9</ele>
      </trkpt>
      <trkpt lat="48.53296" lon="-2.74422">
        <ele>76</ele>
      </trkpt>
      <trkpt lat="48.53346" lon="-2.74408">
        <ele>77.3</ele>
      </trkpt>
      <trkpt lat="48.53619" lon="-2.74587">
        <ele>90</ele>
      </trkpt>
      <trkpt lat="48.53697" lon="-2.74544">
        <ele>90</ele>
      </trkpt>
      <trkpt lat="48.53936" lon="-2.74649">
        <ele>92.3</ele>
      </trkpt>
      <trkpt lat="48.54129" lon="-2.74662">
        <ele>93</ele>
      </trkpt>
      <trkpt lat="48.54087" lon="-2.75075">
        <ele>95.5</ele>
      </trkpt>
      <trkpt lat="48.54135" lon="-2.75041">
        <ele>94.9</ele>
      </trkpt>
      <trkpt lat="48.54247" lon="-2.75356">
        <ele>95.4</ele>
      </trkpt>
      <trkpt lat="48.54273" lon="-2.75554">
        <ele>92.6</ele>
      </trkpt>
      <trkpt lat="48.5439" lon="-2.75477">
        <ele>91.7</ele>
      </trkpt>
      <trkpt lat="48.54404" lon="-2.75617">
        <ele>88</ele>
      </trkpt>
      <trkpt lat="48.54359" lon="-2.75702">
        <ele>89.4</ele>
      </trkpt>
      <trkpt lat="48.5431" lon="-2.75969">
        <ele>94.6</ele>
      </trkpt>
      <trkpt lat="48.5425" lon="-2.76178">
        <ele>100.2</ele>
      </trkpt>
      <trkpt lat="48.54238" lon="-2.76265">
        <ele>101.7</ele>
      </trkpt>
      <trkpt lat="48.54308" lon="-2.7631">
        <ele>100.2</ele>
      </trkpt>
      <trkpt lat="48.54373" lon="-2.76437">
        <ele>97.2</ele>
      </trkpt>
      <trkpt lat="48.54483" lon="-2.76315">
        <ele>88.9</ele>
      </trkpt>
      <trkpt lat="48.5458" lon="-2.76242">
        <ele>83.8</ele>
      </trkpt>
      <trkpt lat="48.54708" lon="-2.7609">
        <ele>80.3</ele>
      </trkpt>
      <trkpt lat="48.54863" lon="-2.76004">
        <ele>72.1</ele>
      </trkpt>
      <trkpt lat="48.54976" lon="-2.76015">
        <ele>80.9</ele>
      </trkpt>
      <trkpt lat="48.55072" lon="-2.75905">
        <ele>88.2</ele>
      </trkpt>
      <trkpt lat="48.55033" lon="-2.76053">
        <ele>88.6</ele>
      </trkpt>
      <trkpt lat="48.55139" lon="-2.76221">
        <ele>91.8</ele>
      </trkpt>
      <trkpt lat="48.55316" lon="-2.76219">
        <ele>90.6</ele>
      </trkpt>
      <trkpt lat="48.55351" lon="-2.76184">
        <ele>89.2</ele>
      </trkpt>
      <trkpt lat="48.55404" lon="-2.76323">
        <ele>92.9</ele>
      </trkpt>
      <trkpt lat="48.55569" lon="-2.76054">
        <ele>86.1</ele>
      </trkpt>
      <trkpt lat="48.55597" lon="-2.76108">
        <ele>85</ele>
      </trkpt>
      <trkpt lat="48.557" lon="-2.75858">
        <ele>81.9</ele>
      </trkpt>
      <trkpt lat="48.55798" lon="-2.75798">
        <ele>80.3</ele>
      </trkpt>
      <trkpt lat="48.55961" lon="-2.75656">
        <ele>77.3</ele>
      </trkpt>
      <trkpt lat="48.56039" lon="-2.75689">
        <ele>56.6</ele>
      </trkpt>
      <trkpt lat="48.56185" lon="-2.75631">
        <ele>20.4</ele>
      </trkpt>
      <trkpt lat="48.56404" lon="-2.7569">
        <ele>5.8</ele>
      </trkpt>
      <trkpt lat="48.56426" lon="-2.75945">
        <ele>8.4</ele>
      </trkpt>
      <trkpt lat="48.56521" lon="-2.76289">
        <ele>25.8</ele>
      </trkpt>
      <trkpt lat="48.56388" lon="-2.76181">
        <ele>42</ele>
      </trkpt>
      <trkpt lat="48.5641" lon="-2.76317">
        <ele>57.9</ele>
      </trkpt>
      <trkpt lat="48.56411" lon="-2.76507">
        <ele>60.1</ele>
      </trkpt>
      <trkpt lat="48.56517" lon="-2.76467">
        <ele>49</ele>
      </trkpt>
      <trkpt lat="48.56473" lon="-2.76627">
        <ele>62</ele>
      </trkpt>
      <trkpt lat="48.56393" lon="-2.76835">
        <ele>53</ele>
      </trkpt>
      <trkpt lat="48.56491" lon="-2.76895">
        <ele>41.7</ele>
      </trkpt>
      <trkpt lat="48.5637" lon="-2.77168">
        <ele>69.4</ele>
      </trkpt>
      <trkpt lat="48.56279" lon="-2.77228">
        <ele>67.6</ele>
      </trkpt>
      <trkpt lat="48.56121" lon="-2.77181">
        <ele>78</ele>
      </trkpt>
      <trkpt lat="48.56109" lon="-2.77287">
        <ele>80.5</ele>
      </trkpt>
      <trkpt lat="48.5601" lon="-2.77316">
        <ele>85.4</ele>
      </trkpt>
      <trkpt lat="48.55972" lon="-2.77438">
        <ele>89.3</ele>
      </trkpt>
      <trkpt lat="48.56018" lon="-2.77608">
        <ele>82.6</ele>
      </trkpt>
      <trkpt lat="48.56059" lon="-2.77846">
        <ele>71</ele>
      </trkpt>
      <trkpt lat="48.56067" lon="-2.78226">
        <ele>74</ele>
      </trkpt>
      <trkpt lat="48.56132" lon="-2.78492">
        <ele>88.2</ele>
      </trkpt>
      <trkpt lat="48.56036" lon="-2.78768">
        <ele>99.6</ele>
      </trkpt>
      <trkpt lat="48.56128" lon="-2.78777">
        <ele>88.4</ele>
      </trkpt>
      <trkpt lat="48.56185" lon="-2.78922">
        <ele>73.8</ele>
      </trkpt>
      <trkpt lat="48.56293" lon="-2.7904">
        <ele>89.2</ele>
      </trkpt>
      <trkpt lat="48.56364" lon="-2.78838">
        <ele>86.1</ele>
      </trkpt>
      <trkpt lat="48.56416" lon="-2.79002">
        <ele>87.5</ele>
      </trkpt>
      <trkpt lat="48.56448" lon="-2.78732">
        <ele>81.5</ele>
      </trkpt>
      <trkpt lat="48.56548" lon="-2.78552">
        <ele>68.3</ele>
      </trkpt>
      <trkpt lat="48.56786" lon="-2.78974">
        <ele>89.3</ele>
      </trkpt>
      <trkpt lat="48.56865" lon="-2.79197">
        <ele>91.8</ele>
      </trkpt>
      <trkpt lat="48.56896" lon="-2.79346">
        <ele>94</ele>
      </trkpt>
      <trkpt lat="48.56995" lon="-2.7971">
        <ele>98.1</ele>
      </trkpt>
      <trkpt lat="48.57088" lon="-2.79972">
        <ele>96.1</ele>
      </trkpt>
      <trkpt lat="48.57193" lon="-2.80255">
        <ele>82.3</ele>
      </trkpt>
      <trkpt lat="48.57147" lon="-2.80764">
        <ele>79.9</ele>
      </trkpt>
      <trkpt lat="48.57147" lon="-2.80764">
        <ele>79.9</ele>
      </trkpt>
      <trkpt lat="48.57193" lon="-2.80255">
        <ele>82.3</ele>
      </trkpt>
      <trkpt lat="48.57088" lon="-2.79972">
        <ele>96.1</ele>
      </trkpt>
      <trkpt lat="48.56995" lon="-2.7971">
        <ele>98.1</ele>
      </trkpt>
      <trkpt lat="48.56896" lon="-2.79346">
        <ele>94</ele>
      </trkpt>
      <trkpt lat="48.56865" lon="-2.79197">
        <ele>91.8</ele>
      </trkpt>
      <trkpt lat="48.56786" lon="-2.78974">
        <ele>89.3</ele>
      </trkpt>
      <trkpt lat="48.56548" lon="-2.78552">
        <ele>68.3</ele>
      </trkpt>
      <trkpt lat="48.56448" lon="-2.78732">
        <ele>81.5</ele>
      </trkpt>
      <trkpt lat="48.56416" lon="-2.79002">
        <ele>87.5</ele>
      </trkpt>
      <trkpt lat="48.56364" lon="-2.78838">
        <ele>86.1</ele>
      </trkpt>
      <trkpt lat="48.56293" lon="-2.7904">
        <ele>89.2</ele>
      </trkpt>
      <trkpt lat="48.56185" lon="-2.78922">
        <ele>73.8</ele>
      </trkpt>
      <trkpt lat="48.56128" lon="-2.78777">
        <ele>88.4</ele>
      </trkpt>
      <trkpt lat="48.56036" lon="-2.78768">
        <ele>99.6</ele>
      </trkpt>
      <trkpt lat="48.56132" lon="-2.78492">
        <ele>88.2</ele>
      </trkpt>
      <trkpt lat="48.56067" lon="-2.78226">
        <ele>74</ele>
      </trkpt>
      <trkpt lat="48.56059" lon="-2.77846">
        <ele>71</ele>
      </trkpt>
      <trkpt lat="48.56018" lon="-2.77608">
        <ele>82.6</ele>
      </trkpt>
      <trkpt lat="48.55972" lon="-2.77438">
        <ele>89.3</ele>
      </trkpt>
      <trkpt lat="48.5601" lon="-2.77316">
        <ele>85.4</ele>
      </trkpt>
      <trkpt lat="48.56109" lon="-2.77287">
        <ele>80.5</ele>
      </trkpt>
      <trkpt lat="48.56121" lon="-2.77181">
        <ele>78</ele>
      </trkpt>
      <trkpt lat="48.56279" lon="-2.77228">
        <ele>67.6</ele>
      </trkpt>
      <trkpt lat="48.5637" lon="-2.77168">
        <ele>69.4</ele>
      </trkpt>
      <trkpt lat="48.56491" lon="-2.76895">
        <ele>41.7</ele>
      </trkpt>
      <trkpt lat="48.56393" lon="-2.76835">
        <ele>53</ele>
      </trkpt>
      <trkpt lat="48.56473" lon="-2.76627">
        <ele>62</ele>
      </trkpt>
      <trkpt lat="48.56517" lon="-2.76467">
        <ele>49</ele>
      </trkpt>
      <trkpt lat="48.56411" lon="-2.76507">
        <ele>60.1</ele>
      </trkpt>
      <trkpt lat="48.5641" lon="-2.76317">
        <ele>57.9</ele>
      </trkpt>
      <trkpt lat="48.56388" lon="-2.76181">
        <ele>42</ele>
      </trkpt>
      <trkpt lat="48.56521" lon="-2.76289">
        <ele>25.8</ele>
      </trkpt>
      <trkpt lat="48.56426" lon="-2.75945">
        <ele>8.4</ele>
      </trkpt>
      <trkpt lat="48.56404" lon="-2.7569">
        <ele>5.8</ele>
      </trkpt>
      <trkpt lat="48.56185" lon="-2.75631">
        <ele>20.4</ele>
      </trkpt>
      <trkpt lat="48.56039" lon="-2.75689">
        <ele>56.6</ele>
      </trkpt>
      <trkpt lat="48.55961" lon="-2.75656">
        <ele>77.3</ele>
      </trkpt>
      <trkpt lat="48.55798" lon="-2.75798">
        <ele>80.3</ele>
      </trkpt>
      <trkpt lat="48.557" lon="-2.75858">
        <ele>81.9</ele>
      </trkpt>
      <trkpt lat="48.55597" lon="-2.76108">
        <ele>85</ele>
      </trkpt>
      <trkpt lat="48.55569" lon="-2.76054">
        <ele>86.1</ele>
      </trkpt>
      <trkpt lat="48.55404" lon="-2.76323">
        <ele>92.9</ele>
      </trkpt>
      <trkpt lat="48.55351" lon="-2.76184">
        <ele>89.2</ele>
      </trkpt>
      <trkpt lat="48.55316" lon="-2.76219">
        <ele>90.6</ele>
      </trkpt>
      <trkpt lat="48.55139" lon="-2.76221">
        <ele>91.8</ele>
      </trkpt>
      <trkpt lat="48.55033" lon="-2.76053">
        <ele>88.6</ele>
      </trkpt>
      <trkpt lat="48.55072" lon="-2.75905">
        <ele>88.2</ele>
      </trkpt>
      <trkpt lat="48.54976" lon="-2.76015">
        <ele>80.9</ele>
      </trkpt>
      <trkpt lat="48.54863" lon="-2.76004">
        <ele>72.1</ele>
      </trkpt>
      <trkpt lat="48.54708" lon="-2.7609">
        <ele>80.3</ele>
      </trkpt>
      <trkpt lat="48.5458" lon="-2.76242">
        <ele>83.8</ele>
      </trkpt>
      <trkpt lat="48.54483" lon="-2.76315">
        <ele>88.9</ele>
      </trkpt>
      <trkpt lat="48.54373" lon="-2.76437">
        <ele>97.2</ele>
      </trkpt>
      <trkpt lat="48.54308" lon="-2.7631">
        <ele>100.2</ele>
      </trkpt>
      <trkpt lat="48.54238" lon="-2.76265">
        <ele>101.7</ele>
      </trkpt>
      <trkpt lat="48.5425" lon="-2.76178">
        <ele>100.2</ele>
      </trkpt>
      <trkpt lat="48.5431" lon="-2.75969">
        <ele>94.6</ele>
      </trkpt>
      <trkpt lat="48.54359" lon="-2.75702">
        <ele>89.4</ele>
      </trkpt>
      <trkpt lat="48.54404" lon="-2.75617">
        <ele>88</ele>
      </trkpt>
      <trkpt lat="48.5439" lon="-2.75477">
        <ele>91.7</ele>
      </trkpt>
      <trkpt lat="48.54273" lon="-2.75554">
        <ele>92.6</ele>
      </trkpt>
      <trkpt lat="48.54247" lon="-2.75356">
        <ele>95.4</ele>
      </trkpt>
      <trkpt lat="48.54135" lon="-2.75041">
        <ele>94.9</ele>
      </trkpt>
      <trkpt lat="48.54087" lon="-2.75075">
        <ele>95.5</ele>
      </trkpt>
      <trkpt lat="48.54129" lon="-2.74662">
        <ele>93</ele>
      </trkpt>
      <trkpt lat="48.53936" lon="-2.74649">
        <ele>92.3</ele>
      </trkpt>
      <trkpt lat="48.53697" lon="-2.74544">
        <ele>90</ele>
      </trkpt>
      <trkpt lat="48.53619" lon="-2.74587">
        <ele>90</ele>
      </trkpt>
      <trkpt lat="48.53346" lon="-2.74408">
        <ele>77.3</ele>
      </trkpt>
      <trkpt lat="48.53296" lon="-2.74422">
        <ele>76</ele>
      </trkpt>
      <trkpt lat="48.5309" lon="-2.74212">
        <ele>67.9</ele>
      </trkpt>
      <trkpt lat="48.53068" lon="-2.74115">
        <ele>65.8</ele>
      </trkpt>
      <trkpt lat="48.53019" lon="-2.74079">
        <ele>65.3</ele>
      </trkpt>
      <trkpt lat="48.53032" lon="-2.73992">
        <ele>62.2</ele>
      </trkpt>
      <trkpt lat="48.53095" lon="-2.73903">
        <ele>59.2</ele>
      </trkpt>
      <trkpt lat="48.53172" lon="-2.7388">
        <ele>61.1</ele>
      </trkpt>
      <trkpt lat="48.53178" lon="-2.73741">
        <ele>58.9</ele>
      </trkpt>
      <trkpt lat="48.53245" lon="-2.73626">
        <ele>58</ele>
      </trkpt>
      <trkpt lat="48.53267" lon="-2.73496">
        <ele>54.6</ele>
      </trkpt>
      <trkpt lat="48.53323" lon="-2.73375">
        <ele>56.5</ele>
      </trkpt>
      <trkpt lat="48.53376" lon="-2.73197">
        <ele>47.3</ele>
      </trkpt>
      <trkpt lat="48.53429" lon="-2.73152">
        <ele>47.4</ele>
      </trkpt>
      <trkpt lat="48.53441" lon="-2.73083">
        <ele>38.1</ele>
      </trkpt>
      <trkpt lat="48.53277" lon="-2.73067">
        <ele>36.3</ele>
      </trkpt>
      <trkpt lat="48.53049" lon="-2.73101">
        <ele>11.3</ele>
      </trkpt>
      <trkpt lat="48.52955" lon="-2.73054">
        <ele>7.5</ele>
      </trkpt>
      <trkpt lat="48.52957" lon="-2.73187">
        <ele>12.1</ele>
      </trkpt>
      <trkpt lat="48.52948" lon="-2.73503">
        <ele>16.3</ele>
      </trkpt>
      <trkpt lat="48.52882" lon="-2.73769">
        <ele>20.9</ele>
      </trkpt>
      <trkpt lat="48.52704" lon="-2.73891">
        <ele>11.8</ele>
      </trkpt>
      <trkpt lat="48.52569" lon="-2.7401">
        <ele>5.8</ele>
      </trkpt>
      <trkpt lat="48.52496" lon="-2.74173">
        <ele>6.2</ele>
      </trkpt>
      <trkpt lat="48.52396" lon="-2.74151">
        <ele>7.5</ele>
      </trkpt>
      <trkpt lat="48.52366" lon="-2.7399">
        <ele>16</ele>
      </trkpt>
      <trkpt lat="48.52412" lon="-2.73856">
        <ele>13.3</ele>
      </trkpt>
      <trkpt lat="48.52523" lon="-2.73722">
        <ele>6.2</ele>
      </trkpt>
      <trkpt lat="48.52475" lon="-2.73653">
        <ele>16.5</ele>
      </trkpt>
      <trkpt lat="48.524" lon="-2.73653">
        <ele>32.4</ele>
      </trkpt>
      <trkpt lat="48.52285" lon="-2.7378">
        <ele>25</ele>
      </trkpt>
      <trkpt lat="48.52182" lon="-2.74029">
        <ele>15.1</ele>
      </trkpt>
      <trkpt lat="48.52068" lon="-2.7405">
        <ele>21.5</ele>
      </trkpt>
      <trkpt lat="48.52005" lon="-2.74069">
        <ele>26.7</ele>
      </trkpt>
      <trkpt lat="48.51916" lon="-2.74003">
        <ele>41</ele>
      </trkpt>
      <trkpt lat="48.5183" lon="-2.74008">
        <ele>49.2</ele>
      </trkpt>
      <trkpt lat="48.51751" lon="-2.74032">
        <ele>58.4</ele>
      </trkpt>
      <trkpt lat="48.51788" lon="-2.7394">
        <ele>60</ele>
      </trkpt>
      <trkpt lat="48.51757" lon="-2.7388">
        <ele>65.4</ele>
      </trkpt>
      <trkpt lat="48.51753" lon="-2.73792">
        <ele>69.1</ele>
      </trkpt>
      <trkpt lat="48.51764" lon="-2.73534">
        <ele>72.9</ele>
      </trkpt>
      <trkpt lat="48.51803" lon="-2.73291">
        <ele>71.8</ele>
      </trkpt>
      <trkpt lat="48.5183" lon="-2.73059">
        <ele>65.7</ele>
      </trkpt>
      <trkpt lat="48.51796" lon="-2.73069">
        <ele>67.5</ele>
      </trkpt>
      <trkpt lat="48.5176" lon="-2.73028">
        <ele>66.3</ele>
      </trkpt>
      <trkpt lat="48.51676" lon="-2.72925">
        <ele>66.4</ele>
      </trkpt>
      <trkpt lat="48.51565" lon="-2.72876">
        <ele>57.8</ele>
      </trkpt>
      <trkpt lat="48.51551" lon="-2.72704">
        <ele>31.4</ele>
      </trkpt>
      <trkpt lat="48.51517" lon="-2.72624">
        <ele>30</ele>
      </trkpt>
      <trkpt lat="48.51635" lon="-2.72427">
        <ele>31.9</ele>
      </trkpt>
      <trkpt lat="48.51588" lon="-2.72138">
        <ele>21.6</ele>
      </trkpt>
      <trkpt lat="48.5164" lon="-2.71899">
        <ele>17.1</ele>
      </trkpt>
      <trkpt lat="48.51653" lon="-2.71774">
        <ele>42.4</ele>
      </trkpt>
      <trkpt lat="48.51743" lon="-2.71543">
        <ele>30</ele>
      </trkpt>
      <trkpt lat="48.51693" lon="-2.71355">
        <ele>30</ele>
      </trkpt>
      <trkpt lat="48.51613" lon="-2.71271">
        <ele>28.4</ele>
      </trkpt>
      <trkpt lat="48.51523" lon="-2.71281">
        <ele>31.8</ele>
      </trkpt>
      <trkpt lat="48.51465" lon="-2.71364">
        <ele>34.5</ele>
      </trkpt>
      <trkpt lat="48.51424" lon="-2.71284">
        <ele>28.2</ele>
      </trkpt>
      <trkpt lat="48.51371" lon="-2.71234">
        <ele>38.5</ele>
      </trkpt>
      <trkpt lat="48.51336" lon="-2.71149">
        <ele>46.6</ele>
      </trkpt>
      <trkpt lat="48.51205" lon="-2.71156">
        <ele>53.9</ele>
      </trkpt>
      <trkpt lat="48.51106" lon="-2.71158">
        <ele>56.6</ele>
      </trkpt>
      <trkpt lat="48.50975" lon="-2.71139">
        <ele>61.2</ele>
      </trkpt>
      <trkpt lat="48.5086" lon="-2.71198">
        <ele>65.9</ele>
      </trkpt>
      <trkpt lat="48.50805" lon="-2.71174">
        <ele>67.8</ele>
      </trkpt>
      <trkpt lat="48.50608" lon="-2.71103">
        <ele>73.1</ele>
      </trkpt>
      <trkpt lat="48.50561" lon="-2.71112">
        <ele>74.5</ele>
      </trkpt>
      <trkpt lat="48.50502" lon="-2.71049">
        <ele>75.1</ele>
      </trkpt>
      <trkpt lat="48.50414" lon="-2.70927">
        <ele>73.5</ele>
      </trkpt>
      <trkpt lat="48.50299" lon="-2.71061">
        <ele>79.4</ele>
      </trkpt>
      <trkpt lat="48.50177" lon="-2.7117">
        <ele>78.5</ele>
      </trkpt>
      <trkpt lat="48.5004" lon="-2.71119">
        <ele>73.7</ele>
      </trkpt>
      <trkpt lat="48.50039" lon="-2.70941">
        <ele>67.4</ele>
      </trkpt>
      <trkpt lat="48.49872" lon="-2.70925">
        <ele>76.5</ele>
      </trkpt>
      <trkpt lat="48.49719" lon="-2.70867">
        <ele>77.5</ele>
      </trkpt>
      <trkpt lat="48.49643" lon="-2.70777">
        <ele>75.4</ele>
      </trkpt>
      <trkpt lat="48.49568" lon="-2.70668">
        <ele>71.8</ele>
      </trkpt>
      <trkpt lat="48.49607" lon="-2.70451">
        <ele>65.3</ele>
      </trkpt>
      <trkpt lat="48.49609" lon="-2.7022">
        <ele>60.8</ele>
      </trkpt>
      <trkpt lat="48.49516" lon="-2.70211">
        <ele>58.6</ele>
      </trkpt>
      <trkpt lat="48.49423" lon="-2.7007">
        <ele>54</ele>
      </trkpt>
      <trkpt lat="48.49355" lon="-2.69848">
        <ele>43.8</ele>
      </trkpt>
      <trkpt lat="48.49217" lon="-2.69746">
        <ele>44.2</ele>
      </trkpt>
      <trkpt lat="48.49137" lon="-2.69663">
        <ele>42.3</ele>
      </trkpt>
      <trkpt lat="48.49101" lon="-2.69519">
        <ele>41.1</ele>
      </trkpt>
      <trkpt lat="48.49001" lon="-2.69189">
        <ele>32.6</ele>
      </trkpt>
      <trkpt lat="48.49009" lon="-2.68986">
        <ele>27.7</ele>
      </trkpt>
      <trkpt lat="48.49045" lon="-2.68756">
        <ele>20.7</ele>
      </trkpt>
      <trkpt lat="48.49137" lon="-2.68652">
        <ele>11.4</ele>
      </trkpt>
      <trkpt lat="48.4925" lon="-2.68568">
        <ele>7</ele>
      </trkpt>
      <trkpt lat="48.4914" lon="-2.68398">
        <ele>7</ele>
      </trkpt>
      <trkpt lat="48.48972" lon="-2.6801">
        <ele>5</ele>
      </trkpt>
      <trkpt lat="48.48829" lon="-2.67885">
        <ele>7</ele>
      </trkpt>
      <trkpt lat="48.48933" lon="-2.67838">
        <ele>6.7</ele>
      </trkpt>
      <trkpt lat="48.49174" lon="-2.67407">
        <ele>5</ele>
      </trkpt>
      <trkpt lat="48.49318" lon="-2.67098">
        <ele>8.7</ele>
      </trkpt>
      <trkpt lat="48.49374" lon="-2.67053">
        <ele>12.4</ele>
      </trkpt>
      <trkpt lat="48.49585" lon="-2.67022">
        <ele>23</ele>
      </trkpt>
      <trkpt lat="48.49685" lon="-2.67045">
        <ele>23.9</ele>
      </trkpt>
      <trkpt lat="48.4974" lon="-2.67044">
        <ele>23.4</ele>
      </trkpt>
      <trkpt lat="48.49632" lon="-2.66509">
        <ele>24.6</ele>
      </trkpt>
      <trkpt lat="48.49688" lon="-2.66381">
        <ele>27.2</ele>
      </trkpt>
      <trkpt lat="48.49668" lon="-2.66335">
        <ele>27.3</ele>
      </trkpt>
      <trkpt lat="48.49723" lon="-2.66226">
        <ele>28</ele>
      </trkpt>
      <trkpt lat="48.49818" lon="-2.6568">
        <ele>29.7</ele>
      </trkpt>
      <trkpt lat="48.49789" lon="-2.65373">
        <ele>35.5</ele>
      </trkpt>
      <trkpt lat="48.49998" lon="-2.65077">
        <ele>41.4</ele>
      </trkpt>
      <trkpt lat="48.5016" lon="-2.65346">
        <ele>43.3</ele>
      </trkpt>
      <trkpt lat="48.50217" lon="-2.65186">
        <ele>46.5</ele>
      </trkpt>
      <trkpt lat="48.50212" lon="-2.6505">
        <ele>47</ele>
      </trkpt>
      <trkpt lat="48.50326" lon="-2.64727">
        <ele>53.5</ele>
      </trkpt>
      <trkpt lat="48.50386" lon="-2.64505">
        <ele>54.4</ele>
      </trkpt>
      <trkpt lat="48.50472" lon="-2.64456">
        <ele>56.3</ele>
      </trkpt>
      <trkpt lat="48.50528" lon="-2.64316">
        <ele>56.9</ele>
      </trkpt>
      <trkpt lat="48.50617" lon="-2.64192">
        <ele>56.9</ele>
      </trkpt>
      <trkpt lat="48.50571" lon="-2.64111">
        <ele>56</ele>
      </trkpt>
      <trkpt lat="48.50547" lon="-2.63774">
        <ele>59.1</ele>
      </trkpt>
      <trkpt lat="48.5057" lon="-2.63523">
        <ele>60.8</ele>
      </trkpt>
      <trkpt lat="48.50739" lon="-2.63216">
        <ele>54.9</ele>
      </trkpt>
      <trkpt lat="48.50849" lon="-2.63291">
        <ele>51.4</ele>
      </trkpt>
      <trkpt lat="48.50959" lon="-2.62966">
        <ele>51.6</ele>
      </trkpt>
      <trkpt lat="48.50985" lon="-2.62741">
        <ele>64.8</ele>
      </trkpt>
      <trkpt lat="48.51038" lon="-2.62588">
        <ele>69.8</ele>
      </trkpt>
      <trkpt lat="48.51032" lon="-2.62442">
        <ele>72.2</ele>
      </trkpt>
      <trkpt lat="48.50991" lon="-2.62514">
        <ele>74</ele>
      </trkpt>
      <trkpt lat="48.50741" lon="-2.6244">
        <ele>75.4</ele>
      </trkpt>
      <trkpt lat="48.50655" lon="-2.62501">
        <ele>76</ele>
      </trkpt>
      <trkpt lat="48.50701" lon="-2.62612">
        <ele>73.9</ele>
      </trkpt>
      <trkpt lat="48.50515" lon="-2.62936">
        <ele>75.9</ele>
      </trkpt>
      <trkpt lat="48.50446" lon="-2.62873">
        <ele>79.8</ele>
      </trkpt>
      <trkpt lat="48.50382" lon="-2.62905">
        <ele>81.2</ele>
      </trkpt>
      <trkpt lat="48.50268" lon="-2.62812">
        <ele>82</ele>
      </trkpt>
      <trkpt lat="48.50259" lon="-2.62615">
        <ele>79.3</ele>
      </trkpt>
      <trkpt lat="48.50144" lon="-2.62452">
        <ele>75.9</ele>
      </trkpt>
      <trkpt lat="48.49972" lon="-2.62353">
        <ele>73.8</ele>
      </trkpt>
      <trkpt lat="48.49966" lon="-2.62202">
        <ele>70.9</ele>
      </trkpt>
      <trkpt lat="48.49939" lon="-2.61851">
        <ele>58.6</ele>
      </trkpt>
      <trkpt lat="48.4991" lon="-2.61396">
        <ele>36.9</ele>
      </trkpt>
      <trkpt lat="48.50038" lon="-2.61422">
        <ele>40.1</ele>
      </trkpt>
      <trkpt lat="48.49896" lon="-2.61218">
        <ele>36</ele>
      </trkpt>
      <trkpt lat="48.50134" lon="-2.61244">
        <ele>40.3</ele>
      </trkpt>
      <trkpt lat="48.50304" lon="-2.61222">
        <ele>39.3</ele>
      </trkpt>
      <trkpt lat="48.50392" lon="-2.61313">
        <ele>37</ele>
      </trkpt>
      <trkpt lat="48.50447" lon="-2.61299">
        <ele>38.9</ele>
      </trkpt>
      <trkpt lat="48.50469" lon="-2.61079">
        <ele>40.1</ele>
      </trkpt>
      <trkpt lat="48.50479" lon="-2.60828">
        <ele>39.7</ele>
      </trkpt>
      <trkpt lat="48.50379" lon="-2.60692">
        <ele>48.3</ele>
      </trkpt>
      <trkpt lat="48.50303" lon="-2.60621">
        <ele>51</ele>
      </trkpt>
      <trkpt lat="48.50269" lon="-2.60423">
        <ele>39.6</ele>
      </trkpt>
      <trkpt lat="48.50316" lon="-2.60402">
        <ele>33.7</ele>
      </trkpt>
      <trkpt lat="48.50383" lon="-2.60362">
        <ele>32.9</ele>
      </trkpt>
      <trkpt lat="48.50398" lon="-2.60098">
        <ele>41.2</ele>
      </trkpt>
      <trkpt lat="48.50642" lon="-2.60076">
        <ele>39.1</ele>
      </trkpt>
      <trkpt lat="48.50646" lon="-2.59983">
        <ele>41</ele>
      </trkpt>
      <trkpt lat="48.50494" lon="-2.59481">
        <ele>51.2</ele>
      </trkpt>
      <trkpt lat="48.50505" lon="-2.59336">
        <ele>50</ele>
      </trkpt>
      <trkpt lat="48.50472" lon="-2.59131">
        <ele>50.3</ele>
      </trkpt>
      <trkpt lat="48.50538" lon="-2.59081">
        <ele>51.1</ele>
      </trkpt>
      <trkpt lat="48.50604" lon="-2.58904">
        <ele>55.2</ele>
      </trkpt>
      <trkpt lat="48.50666" lon="-2.58777">
        <ele>58</ele>
      </trkpt>
      <trkpt lat="48.50812" lon="-2.5874">
        <ele>59.4</ele>
      </trkpt>
      <trkpt lat="48.50983" lon="-2.58446">
        <ele>60.3</ele>
      </trkpt>
      <trkpt lat="48.51222" lon="-2.58184">
        <ele>61.9</ele>
      </trkpt>
      <trkpt lat="48.51284" lon="-2.58209">
        <ele>59.3</ele>
      </trkpt>
      <trkpt lat="48.51363" lon="-2.58299">
        <ele>55.6</ele>
      </trkpt>
      <trkpt lat="48.51399" lon="-2.58157">
        <ele>58.6</ele>
      </trkpt>
      <trkpt lat="48.51551" lon="-2.5783">
        <ele>65.8</ele>
      </trkpt>
      <trkpt lat="48.51653" lon="-2.57619">
        <ele>67</ele>
      </trkpt>
      <trkpt lat="48.51772" lon="-2.57599">
        <ele>68</ele>
      </trkpt>
      <trkpt lat="48.51962" lon="-2.57471">
        <ele>72.1</ele>
      </trkpt>
      <trkpt lat="48.51985" lon="-2.57208">
        <ele>75.2</ele>
      </trkpt>
      <trkpt lat="48.52012" lon="-2.56774">
        <ele>78</ele>
      </trkpt>
      <trkpt lat="48.51906" lon="-2.56379">
        <ele>76</ele>
      </trkpt>
      <trkpt lat="48.51996" lon="-2.56178">
        <ele>75.3</ele>
      </trkpt>
      <trkpt lat="48.52156" lon="-2.56364">
        <ele>75</ele>
      </trkpt>
      <trkpt lat="48.52423" lon="-2.56314">
        <ele>78</ele>
      </trkpt>
      <trkpt lat="48.52607" lon="-2.56243">
        <ele>78.1</ele>
      </trkpt>
      <trkpt lat="48.52853" lon="-2.56456">
        <ele>82.7</ele>
      </trkpt>
      <trkpt lat="48.52818" lon="-2.563">
        <ele>81.8</ele>
      </trkpt>
      <trkpt lat="48.52962" lon="-2.56181">
        <ele>83.3</ele>
      </trkpt>
      <trkpt lat="48.53025" lon="-2.56073">
        <ele>82.8</ele>
      </trkpt>
      <trkpt lat="48.53094" lon="-2.55921">
        <ele>82</ele>
      </trkpt>
      <trkpt lat="48.53154" lon="-2.55876">
        <ele>82.6</ele>
      </trkpt>
      <trkpt lat="48.53294" lon="-2.56446">
        <ele>84.1</ele>
      </trkpt>
      <trkpt lat="48.53388" lon="-2.56435">
        <ele>84.4</ele>
      </trkpt>
      <trkpt lat="48.53553" lon="-2.56603">
        <ele>82</ele>
      </trkpt>
      <trkpt lat="48.53666" lon="-2.56898">
        <ele>90.2</ele>
      </trkpt>
      <trkpt lat="48.53822" lon="-2.57184">
        <ele>95</ele>
      </trkpt>
      <trkpt lat="48.5412" lon="-2.56972">
        <ele>96.5</ele>
      </trkpt>
      <trkpt lat="48.54261" lon="-2.57239">
        <ele>98.8</ele>
      </trkpt>
      <trkpt lat="48.54408" lon="-2.57006">
        <ele>101.9</ele>
      </trkpt>
      <trkpt lat="48.54539" lon="-2.56696">
        <ele>99</ele>
      </trkpt>
      <trkpt lat="48.54896" lon="-2.56515">
        <ele>94.9</ele>
      </trkpt>
      <trkpt lat="48.54962" lon="-2.56331">
        <ele>94</ele>
      </trkpt>
      <trkpt lat="48.55121" lon="-2.56035">
        <ele>92.2</ele>
      </trkpt>
      <trkpt lat="48.55208" lon="-2.56253">
        <ele>90.1</ele>
      </trkpt>
      <trkpt lat="48.55209" lon="-2.56544">
        <ele>91.7</ele>
      </trkpt>
      <trkpt lat="48.55232" lon="-2.56685">
        <ele>88</ele>
      </trkpt>
      <trkpt lat="48.55161" lon="-2.56697">
        <ele>90.6</ele>
      </trkpt>
      <trkpt lat="48.55074" lon="-2.56765">
        <ele>90.3</ele>
      </trkpt>
      <trkpt lat="48.54991" lon="-2.56935">
        <ele>92.4</ele>
      </trkpt>
      <trkpt lat="48.54871" lon="-2.57164">
        <ele>94.8</ele>
      </trkpt>
      <trkpt lat="48.54991" lon="-2.57301">
        <ele>91.7</ele>
      </trkpt>
      <trkpt lat="48.55288" lon="-2.57329">
        <ele>90.2</ele>
      </trkpt>
      <trkpt lat="48.55669" lon="-2.57163">
        <ele>75.1</ele>
      </trkpt>
      <trkpt lat="48.55673" lon="-2.57056">
        <ele>72.7</ele>
      </trkpt>
      <trkpt lat="48.55773" lon="-2.57085">
        <ele>70.5</ele>
      </trkpt>
      <trkpt lat="48.55826" lon="-2.57128">
        <ele>70.8</ele>
      </trkpt>
      <trkpt lat="48.55962" lon="-2.57089">
        <ele>64</ele>
      </trkpt>
      <trkpt lat="48.55968" lon="-2.56956">
        <ele>62.3</ele>
      </trkpt>
      <trkpt lat="48.56153" lon="-2.56645">
        <ele>59.2</ele>
      </trkpt>
      <trkpt lat="48.56258" lon="-2.56534">
        <ele>50.2</ele>
      </trkpt>
      <trkpt lat="48.56376" lon="-2.56468">
        <ele>59.8</ele>
      </trkpt>
      <trkpt lat="48.56443" lon="-2.5619">
        <ele>64.3</ele>
      </trkpt>
      <trkpt lat="48.56416" lon="-2.55916">
        <ele>67</ele>
      </trkpt>
      <trkpt lat="48.56566" lon="-2.55854">
        <ele>65</ele>
      </trkpt>
      <trkpt lat="48.56535" lon="-2.55573">
        <ele>71.6</ele>
      </trkpt>
      <trkpt lat="48.56419" lon="-2.55232">
        <ele>78</ele>
      </trkpt>
      <trkpt lat="48.56521" lon="-2.55103">
        <ele>75.7</ele>
      </trkpt>
      <trkpt lat="48.56625" lon="-2.55225">
        <ele>74.6</ele>
      </trkpt>
      <trkpt lat="48.5682" lon="-2.55074">
        <ele>65.4</ele>
      </trkpt>
      <trkpt lat="48.56936" lon="-2.55021">
        <ele>60.6</ele>
      </trkpt>
      <trkpt lat="48.57377" lon="-2.55379">
        <ele>35.9</ele>
      </trkpt>
      <trkpt lat="48.57612" lon="-2.5547">
        <ele>23.3</ele>
      </trkpt>
      <trkpt lat="48.57679" lon="-2.55667">
        <ele>13.4</ele>
      </trkpt>
      <trkpt lat="48.5775" lon="-2.55699">
        <ele>10.5</ele>
      </trkpt>
      <trkpt lat="48.57965" lon="-2.55878">
        <ele>7.6</ele>
      </trkpt>
      <trkpt lat="48.58036" lon="-2.55605">
        <ele>21</ele>
      </trkpt>
      <trkpt lat="48.58165" lon="-2.55301">
        <ele>20.9</ele>
      </trkpt>
      <trkpt lat="48.58231" lon="-2.54836">
        <ele>25</ele>
      </trkpt>
      <trkpt lat="48.58149" lon="-2.54777">
        <ele>27.2</ele>
      </trkpt>
      <trkpt lat="48.58144" lon="-2.54681">
        <ele>31.1</ele>
      </trkpt>
      <trkpt lat="48.58157" lon="-2.54582">
        <ele>36.9</ele>
      </trkpt>
      <trkpt lat="48.58147" lon="-2.54422">
        <ele>48.3</ele>
      </trkpt>
      <trkpt lat="48.5816" lon="-2.54214">
        <ele>59.1</ele>
      </trkpt>
      <trkpt lat="48.58308" lon="-2.54178">
        <ele>57.1</ele>
      </trkpt>
      <trkpt lat="48.58247" lon="-2.53938">
        <ele>65.3</ele>
      </trkpt>
      <trkpt lat="48.58339" lon="-2.53953">
        <ele>61.4</ele>
      </trkpt>
      <trkpt lat="48.58373" lon="-2.53633">
        <ele>63.8</ele>
      </trkpt>
    </trkseg>
  </trk>
  <trk>
    <name><![CDATA[fusion]]></name>
    <trkseg>
      <trkpt lat="48.5507" lon="-1.75624">
        <ele>-1000</ele>
        <time>2005-05-19T14:15:34Z</time>
      </trkpt>
      <trkpt lat="48.55059" lon="-1.75569">
        <ele>-1000</ele>
        <time>2005-05-19T14:15:34Z</time>
      </trkpt>
      <trkpt lat="48.55024" lon="-1.75542">
        <ele>-1000</ele>
        <time>2005-05-19T14:15:34Z</time>
      </trkpt>
      <trkpt lat="48.54995" lon="-1.75527">
        <ele>-1000</ele>
        <time>2005-05-19T14:15:34Z</time>
      </trkpt>
      <trkpt lat="48.54955" lon="-1.7555">
        <ele>-1000</ele>
        <time>2005-05-19T14:15:34Z</time>
      </trkpt>
      <trkpt lat="48.54967" lon="-1.75482">
        <ele>-1000</ele>
        <time>2005-05-19T14:15:34Z</time>
      </trkpt>
      <trkpt lat="48.54862" lon="-1.7548">
        <ele>-1000</ele>
        <time>2005-05-19T14:15:34Z</time>
      </trkpt>
      <trkpt lat="48.54851" lon="-1.75526">
        <ele>-1000</ele>
        <time>2005-05-19T14:15:34Z</time>
      </trkpt>
      <trkpt lat="48.54769" lon="-1.75503">
        <ele>-1000</ele>
        <time>2005-05-19T14:15:34Z</time>
      </trkpt>
      <trkpt lat="48.54763" lon="-1.75567">
        <ele>-1000</ele>
        <time>2005-05-19T14:15:34Z</time>
      </trkpt>
      <trkpt lat="48.54754" lon="-1.75692">
        <ele>-1000</ele>
        <time>2005-05-19T14:15:34Z</time>
      </trkpt>
      <trkpt lat="48.54719" lon="-1.75788">
        <ele>-1000</ele>
        <time>2005-05-19T14:15:34Z</time>
      </trkpt>
      <trkpt lat="48.54687" lon="-1.7586">
        <ele>-1000</ele>
        <time>2005-05-19T14:15:34Z</time>
      </trkpt>
      <trkpt lat="48.54682" lon="-1.75942">
        <ele>-1000</ele>
        <time>2005-05-19T14:15:34Z</time>
      </trkpt>
      <trkpt lat="48.54705" lon="-1.76044">
        <ele>-1000</ele>
        <time>2005-05-19T14:15:34Z</time>
      </trkpt>
      <trkpt lat="48.54765" lon="-1.76023">
        <ele>-1000</ele>
        <time>2005-05-19T14:15:34Z</time>
      </trkpt>
      <trkpt lat="48.5485" lon="-1.76007">
        <ele>-1000</ele>
        <time>2005-05-19T14:15:34Z</time>
      </trkpt>
      <trkpt lat="48.54904" lon="-1.76067">
        <ele>-1000</ele>
        <time>2005-05-19T14:15:34Z</time>
      </trkpt>
      <trkpt lat="48.54959" lon="-1.76055">
        <ele>-1000</ele>
        <time>2005-05-19T14:15:34Z</time>
      </trkpt>
      <trkpt lat="48.55022" lon="-1.76018">
        <ele>-1000</ele>
        <time>2005-05-19T14:15:34Z</time>
      </trkpt>
      <trkpt lat="48.55059" lon="-1.75995">
        <ele>-1000</ele>
        <time>2005-05-19T14:15:34Z</time>
      </trkpt>
      <trkpt lat="48.55112" lon="-1.75965">
        <ele>-1000</ele>
        <time>2005-05-19T14:15:34Z</time>
      </trkpt>
      <trkpt lat="48.55139" lon="-1.7596">
        <ele>-1000</ele>
        <time>2005-05-19T14:15:34Z</time>
      </trkpt>
      <trkpt lat="48.55154" lon="-1.75997">
        <ele>-1000</ele>
        <time>2005-05-19T14:15:34Z</time>
      </trkpt>
      <trkpt lat="48.55177" lon="-1.7603">
        <ele>-1000</ele>
        <time>2005-05-19T14:15:34Z</time>
      </trkpt>
      <trkpt lat="48.55196" lon="-1.76088">
        <ele>-1000</ele>
        <time>2005-05-19T14:15:34Z</time>
      </trkpt>
      <trkpt lat="48.55222" lon="-1.76159">
        <ele>-1000</ele>
        <time>2005-05-19T14:15:34Z</time>
      </trkpt>
      <trkpt lat="48.55239" lon="-1.76204">
        <ele>-1000</ele>
        <time>2005-05-19T14:15:34Z</time>
      </trkpt>
      <trkpt lat="48.55228" lon="-1.76249">
        <ele>-1000</ele>
        <time>2005-05-19T14:15:34Z</time>
      </trkpt>
      <trkpt lat="48.55179" lon="-1.76263">
        <ele>-1000</ele>
        <time>2005-05-19T14:15:34Z</time>
      </trkpt>
      <trkpt lat="48.55117" lon="-1.76257">
        <ele>-1000</ele>
        <time>2005-05-19T14:15:34Z</time>
      </trkpt>
      <trkpt lat="48.55065" lon="-1.76576">
        <ele>-1000</ele>
        <time>2005-05-19T14:15:34Z</time>
      </trkpt>
      <trkpt lat="48.55004" lon="-1.76873">
        <ele>-1000</ele>
        <time>2005-05-19T14:15:34Z</time>
      </trkpt>
      <trkpt lat="48.54937" lon="-1.77078">
        <ele>-1000</ele>
        <time>2005-05-19T14:15:34Z</time>
      </trkpt>
      <trkpt lat="48.54906" lon="-1.77158">
        <ele>-1000</ele>
        <time>2005-05-19T14:15:34Z</time>
      </trkpt>
      <trkpt lat="48.54784" lon="-1.77101">
        <ele>-1000</ele>
        <time>2005-05-19T14:15:34Z</time>
      </trkpt>
      <trkpt lat="48.54677" lon="-1.77051">
        <ele>-1000</ele>
        <time>2005-05-19T14:15:34Z</time>
      </trkpt>
      <trkpt lat="48.5455" lon="-1.77011">
        <ele>-1000</ele>
        <time>2005-05-19T14:15:34Z</time>
      </trkpt>
      <trkpt lat="48.54479" lon="-1.76973">
        <ele>-1000</ele>
        <time>2005-05-19T14:15:34Z</time>
      </trkpt>
      <trkpt lat="48.54262" lon="-1.76897">
        <ele>-1000</ele>
        <time>2005-05-19T14:15:34Z</time>
      </trkpt>
      <trkpt lat="48.54251" lon="-1.76976">
        <ele>-1000</ele>
        <time>2005-05-19T14:15:34Z</time>
      </trkpt>
      <trkpt lat="48.54257" lon="-1.77079">
        <ele>-1000</ele>
        <time>2005-05-19T14:15:34Z</time>
      </trkpt>
      <trkpt lat="48.54256" lon="-1.77184">
        <ele>-1000</ele>
        <time>2005-05-19T14:15:34Z</time>
      </trkpt>
      <trkpt lat="48.54349" lon="-1.77281">
        <ele>-1000</ele>
        <time>2005-05-19T14:15:34Z</time>
      </trkpt>
      <trkpt lat="48.5441" lon="-1.77328">
        <ele>-1000</ele>
        <time>2005-05-19T14:15:34Z</time>
      </trkpt>
      <trkpt lat="48.54458" lon="-1.77383">
        <ele>-1000</ele>
        <time>2005-05-19T14:15:34Z</time>
      </trkpt>
      <trkpt lat="48.5454" lon="-1.77414">
        <ele>-1000</ele>
        <time>2005-05-19T14:15:34Z</time>
      </trkpt>
      <trkpt lat="48.54649" lon="-1.77471">
        <ele>-1000</ele>
        <time>2005-05-19T14:15:34Z</time>
      </trkpt>
      <trkpt lat="48.54622" lon="-1.77594">
        <ele>-1000</ele>
        <time>2005-05-19T14:15:34Z</time>
      </trkpt>
      <trkpt lat="48.54651" lon="-1.7771">
        <ele>-1000</ele>
        <time>2005-05-19T14:15:34Z</time>
      </trkpt>
      <trkpt lat="48.54699" lon="-1.77812">
        <ele>-1000</ele>
        <time>2005-05-19T14:15:34Z</time>
      </trkpt>
      <trkpt lat="48.54707" lon="-1.77917">
        <ele>-1000</ele>
        <time>2005-05-19T14:15:34Z</time>
      </trkpt>
      <trkpt lat="48.54643" lon="-1.77909">
        <ele>-1000</ele>
        <time>2005-05-19T14:15:34Z</time>
      </trkpt>
      <trkpt lat="48.54572" lon="-1.77882">
        <ele>-1000</ele>
        <time>2005-05-19T14:15:34Z</time>
      </trkpt>
      <trkpt lat="48.54522" lon="-1.77886">
        <ele>-1000</ele>
        <time>2005-05-19T14:15:34Z</time>
      </trkpt>
      <trkpt lat="48.54456" lon="-1.77881">
        <ele>-1000</ele>
        <time>2005-05-19T14:15:34Z</time>
      </trkpt>
      <trkpt lat="48.54353" lon="-1.77855">
        <ele>-1000</ele>
        <time>2005-05-19T14:15:34Z</time>
      </trkpt>
      <trkpt lat="48.54253" lon="-1.77863">
        <ele>-1000</ele>
        <time>2005-05-19T14:15:34Z</time>
      </trkpt>
      <trkpt lat="48.5412" lon="-1.77735">
        <ele>-1000</ele>
        <time>2005-05-19T14:15:34Z</time>
      </trkpt>
      <trkpt lat="48.54056" lon="-1.77859">
        <ele>-1000</ele>
        <time>2005-05-19T14:15:34Z</time>
      </trkpt>
      <trkpt lat="48.54001" lon="-1.77976">
        <ele>-1000</ele>
        <time>2005-05-19T14:15:34Z</time>
      </trkpt>
      <trkpt lat="48.53945" lon="-1.7805">
        <ele>-1000</ele>
        <time>2005-05-19T14:15:34Z</time>
      </trkpt>
      <trkpt lat="48.53946" lon="-1.78221">
        <ele>-1000</ele>
        <time>2005-05-19T14:15:34Z</time>
      </trkpt>
      <trkpt lat="48.53934" lon="-1.78292">
        <ele>-1000</ele>
        <time>2005-05-19T14:15:34Z</time>
      </trkpt>
      <trkpt lat="48.54008" lon="-1.78352">
        <ele>-1000</ele>
        <time>2005-05-19T14:15:34Z</time>
      </trkpt>
      <trkpt lat="48.542" lon="-1.78492">
        <ele>-1000</ele>
        <time>2005-05-19T14:15:34Z</time>
      </trkpt>
      <trkpt lat="48.54403" lon="-1.78649">
        <ele>-1000</ele>
        <time>2005-05-19T14:15:34Z</time>
      </trkpt>
      <trkpt lat="48.54506" lon="-1.78748">
        <ele>-1000</ele>
        <time>2005-05-19T14:15:34Z</time>
      </trkpt>
      <trkpt lat="48.54623" lon="-1.7876">
        <ele>-1000</ele>
        <time>2005-05-19T14:15:34Z</time>
      </trkpt>
      <trkpt lat="48.54699" lon="-1.78759">
        <ele>-1000</ele>
        <time>2005-05-19T14:15:34Z</time>
      </trkpt>
      <trkpt lat="48.54763" lon="-1.78777">
        <ele>-1000</ele>
        <time>2005-05-19T14:15:34Z</time>
      </trkpt>
      <trkpt lat="48.54802" lon="-1.78877">
        <ele>-1000</ele>
        <time>2005-05-19T14:15:34Z</time>
      </trkpt>
      <trkpt lat="48.54837" lon="-1.78951">
        <ele>-1000</ele>
        <time>2005-05-19T14:15:34Z</time>
      </trkpt>
      <trkpt lat="48.54897" lon="-1.78962">
        <ele>-1000</ele>
        <time>2005-05-19T14:15:34Z</time>
      </trkpt>
      <trkpt lat="48.54947" lon="-1.78966">
        <ele>-1000</ele>
        <time>2005-05-19T14:15:34Z</time>
      </trkpt>
      <trkpt lat="48.55043" lon="-1.79065">
        <ele>-1000</ele>
        <time>2005-05-19T14:15:34Z</time>
      </trkpt>
      <trkpt lat="48.55133" lon="-1.79114">
        <ele>-1000</ele>
        <time>2005-05-19T14:15:34Z</time>
      </trkpt>
      <trkpt lat="48.55216" lon="-1.79123">
        <ele>-1000</ele>
        <time>2005-05-19T14:15:34Z</time>
      </trkpt>
      <trkpt lat="48.5536" lon="-1.79125">
        <ele>-1000</ele>
        <time>2005-05-19T14:15:34Z</time>
      </trkpt>
      <trkpt lat="48.55432" lon="-1.79314">
        <ele>-1000</ele>
        <time>2005-05-19T14:15:34Z</time>
      </trkpt>
      <trkpt lat="48.55295" lon="-1.79471">
        <ele>-1000</ele>
        <time>2005-05-19T14:15:34Z</time>
      </trkpt>
      <trkpt lat="48.55159" lon="-1.79623">
        <ele>-1000</ele>
        <time>2005-05-19T14:15:34Z</time>
      </trkpt>
      <trkpt lat="48.55034" lon="-1.79762">
        <ele>-1000</ele>
        <time>2005-05-19T14:15:34Z</time>
      </trkpt>
      <trkpt lat="48.54929" lon="-1.7991">
        <ele>-1000</ele>
        <time>2005-05-19T14:15:34Z</time>
      </trkpt>
      <trkpt lat="48.54865" lon="-1.79995">
        <ele>-1000</ele>
        <time>2005-05-19T14:15:34Z</time>
      </trkpt>
      <trkpt lat="48.54839" lon="-1.80252">
        <ele>-1000</ele>
        <time>2005-05-19T14:15:34Z</time>
      </trkpt>
      <trkpt lat="48.5483" lon="-1.80485">
        <ele>-1000</ele>
        <time>2005-05-19T14:15:34Z</time>
      </trkpt>
      <trkpt lat="48.54828" lon="-1.80654">
        <ele>-1000</ele>
        <time>2005-05-19T14:15:34Z</time>
      </trkpt>
      <trkpt lat="48.54825" lon="-1.80848">
        <ele>-1000</ele>
        <time>2005-05-19T14:15:34Z</time>
      </trkpt>
      <trkpt lat="48.54812" lon="-1.80963">
        <ele>-1000</ele>
        <time>2005-05-19T14:15:34Z</time>
      </trkpt>
      <trkpt lat="48.54842" lon="-1.81153">
        <ele>-1000</ele>
        <time>2005-05-19T14:15:34Z</time>
      </trkpt>
      <trkpt lat="48.55072" lon="-1.81041">
        <ele>-1000</ele>
        <time>2005-05-19T14:15:34Z</time>
      </trkpt>
      <trkpt lat="48.55285" lon="-1.80803">
        <ele>-1000</ele>
        <time>2005-05-19T14:15:34Z</time>
      </trkpt>
      <trkpt lat="48.55484" lon="-1.80548">
        <ele>-1000</ele>
        <time>2005-05-19T14:15:34Z</time>
      </trkpt>
      <trkpt lat="48.55617" lon="-1.80377">
        <ele>-1000</ele>
        <time>2005-05-19T14:15:34Z</time>
      </trkpt>
      <trkpt lat="48.55797" lon="-1.80156">
        <ele>-1000</ele>
        <time>2005-05-19T14:15:34Z</time>
      </trkpt>
      <trkpt lat="48.55979" lon="-1.80582">
        <ele>-1000</ele>
        <time>2005-05-19T14:15:34Z</time>
      </trkpt>
      <trkpt lat="48.56129" lon="-1.80942">
        <ele>-1000</ele>
        <time>2005-05-19T14:15:34Z</time>
      </trkpt>
      <trkpt lat="48.55948" lon="-1.81282">
        <ele>-1000</ele>
        <time>2005-05-19T14:15:34Z</time>
      </trkpt>
      <trkpt lat="48.55764" lon="-1.81626">
        <ele>-1000</ele>
        <time>2005-05-19T14:15:34Z</time>
      </trkpt>
      <trkpt lat="48.55653" lon="-1.8184">
        <ele>-1000</ele>
        <time>2005-05-19T14:15:34Z</time>
      </trkpt>
      <trkpt lat="48.55542" lon="-1.82041">
        <ele>-1000</ele>
        <time>2005-05-19T14:15:34Z</time>
      </trkpt>
      <trkpt lat="48.55433" lon="-1.8224">
        <ele>-1000</ele>
        <time>2005-05-19T14:15:34Z</time>
      </trkpt>
      <trkpt lat="48.55368" lon="-1.82365">
        <ele>-1000</ele>
        <time>2005-05-19T14:15:34Z</time>
      </trkpt>
      <trkpt lat="48.5535" lon="-1.82494">
        <ele>-1000</ele>
        <time>2005-05-19T14:15:34Z</time>
      </trkpt>
      <trkpt lat="48.5535" lon="-1.82681">
        <ele>-1000</ele>
        <time>2005-05-19T14:15:34Z</time>
      </trkpt>
      <trkpt lat="48.55484" lon="-1.82708">
        <ele>-1000</ele>
        <time>2005-05-19T14:15:34Z</time>
      </trkpt>
      <trkpt lat="48.55576" lon="-1.82725">
        <ele>-1000</ele>
        <time>2005-05-19T14:15:34Z</time>
      </trkpt>
      <trkpt lat="48.55585" lon="-1.82506">
        <ele>-1000</ele>
        <time>2005-05-19T14:15:34Z</time>
      </trkpt>
      <trkpt lat="48.55574" lon="-1.82419">
        <ele>-1000</ele>
        <time>2005-05-19T14:15:34Z</time>
      </trkpt>
      <trkpt lat="48.55648" lon="-1.82444">
        <ele>-1000</ele>
        <time>2005-05-19T14:15:34Z</time>
      </trkpt>
      <trkpt lat="48.55708" lon="-1.82474">
        <ele>-1000</ele>
        <time>2005-05-19T14:15:34Z</time>
      </trkpt>
      <trkpt lat="48.55748" lon="-1.82448">
        <ele>-1000</ele>
        <time>2005-05-19T14:15:34Z</time>
      </trkpt>
      <trkpt lat="48.55794" lon="-1.82474">
        <ele>-1000</ele>
        <time>2005-05-19T14:15:34Z</time>
      </trkpt>
      <trkpt lat="48.55878" lon="-1.82467">
        <ele>-1000</ele>
        <time>2005-05-19T14:15:34Z</time>
      </trkpt>
      <trkpt lat="48.55922" lon="-1.82531">
        <ele>-1000</ele>
        <time>2005-05-19T14:15:34Z</time>
      </trkpt>
      <trkpt lat="48.55983" lon="-1.82585">
        <ele>-1000</ele>
        <time>2005-05-19T14:15:34Z</time>
      </trkpt>
      <trkpt lat="48.56004" lon="-1.82607">
        <ele>-1000</ele>
        <time>2005-05-19T14:15:34Z</time>
      </trkpt>
      <trkpt lat="48.55996" lon="-1.8265">
        <ele>-1000</ele>
        <time>2005-05-19T14:15:34Z</time>
      </trkpt>
      <trkpt lat="48.56039" lon="-1.82705">
        <ele>-1000</ele>
        <time>2005-05-19T14:15:34Z</time>
      </trkpt>
      <trkpt lat="48.56092" lon="-1.82802">
        <ele>-1000</ele>
        <time>2005-05-19T14:15:34Z</time>
      </trkpt>
      <trkpt lat="48.56121" lon="-1.82935">
        <ele>-1000</ele>
        <time>2005-05-19T14:15:34Z</time>
      </trkpt>
      <trkpt lat="48.56273" lon="-1.82942">
        <ele>-1000</ele>
        <time>2005-05-19T14:15:34Z</time>
      </trkpt>
      <trkpt lat="48.56498" lon="-1.82954">
        <ele>-1000</ele>
        <time>2005-05-19T14:15:34Z</time>
      </trkpt>
      <trkpt lat="48.56478" lon="-1.83296">
        <ele>-1000</ele>
        <time>2005-05-19T14:15:34Z</time>
      </trkpt>
      <trkpt lat="48.56447" lon="-1.83563">
        <ele>-1000</ele>
        <time>2005-05-19T14:15:34Z</time>
      </trkpt>
      <trkpt lat="48.56423" lon="-1.8378">
        <ele>-1000</ele>
        <time>2005-05-19T14:15:34Z</time>
      </trkpt>
      <trkpt lat="48.56582" lon="-1.83845">
        <ele>-1000</ele>
        <time>2005-05-19T14:15:34Z</time>
      </trkpt>
      <trkpt lat="48.56773" lon="-1.83908">
        <ele>-1000</ele>
        <time>2005-05-19T14:15:34Z</time>
      </trkpt>
      <trkpt lat="48.56773" lon="-1.84211">
        <ele>-1000</ele>
        <time>2005-05-19T14:15:34Z</time>
      </trkpt>
      <trkpt lat="48.56772" lon="-1.84928">
        <ele>-1000</ele>
        <time>2005-05-19T14:15:34Z</time>
      </trkpt>
      <trkpt lat="48.56744" lon="-1.85124">
        <ele>-1000</ele>
        <time>2005-05-19T14:15:34Z</time>
      </trkpt>
      <trkpt lat="48.56752" lon="-1.85306">
        <ele>-1000</ele>
        <time>2005-05-19T14:15:34Z</time>
      </trkpt>
      <trkpt lat="48.56735" lon="-1.85567">
        <ele>-1000</ele>
        <time>2005-05-19T14:15:34Z</time>
      </trkpt>
      <trkpt lat="48.56663" lon="-1.85857">
        <ele>-1000</ele>
        <time>2005-05-19T14:15:34Z</time>
      </trkpt>
      <trkpt lat="48.5668" lon="-1.85952">
        <ele>-1000</ele>
        <time>2005-05-19T14:15:34Z</time>
      </trkpt>
      <trkpt lat="48.56565" lon="-1.85983">
        <ele>-1000</ele>
        <time>2005-05-19T14:15:34Z</time>
      </trkpt>
      <trkpt lat="48.56464" lon="-1.86079">
        <ele>-1000</ele>
        <time>2005-05-19T14:15:34Z</time>
      </trkpt>
      <trkpt lat="48.56424" lon="-1.86141">
        <ele>-1000</ele>
        <time>2005-05-19T14:15:34Z</time>
      </trkpt>
      <trkpt lat="48.56388" lon="-1.86235">
        <ele>-1000</ele>
        <time>2005-05-19T14:15:34Z</time>
      </trkpt>
      <trkpt lat="48.56387" lon="-1.86286">
        <ele>-1000</ele>
        <time>2005-05-19T14:15:34Z</time>
      </trkpt>
      <trkpt lat="48.56304" lon="-1.86506">
        <ele>-1000</ele>
        <time>2005-05-19T14:15:34Z</time>
      </trkpt>
      <trkpt lat="48.56175" lon="-1.86848">
        <ele>-1000</ele>
        <time>2005-05-19T14:15:34Z</time>
      </trkpt>
      <trkpt lat="48.5599" lon="-1.87271">
        <ele>-1000</ele>
        <time>2005-05-19T14:15:34Z</time>
      </trkpt>
      <trkpt lat="48.56111" lon="-1.87358">
        <ele>-1000</ele>
        <time>2005-05-19T14:15:34Z</time>
      </trkpt>
      <trkpt lat="48.56103" lon="-1.87493">
        <ele>-1000</ele>
        <time>2005-05-19T14:15:34Z</time>
      </trkpt>
      <trkpt lat="48.56073" lon="-1.87663">
        <ele>-1000</ele>
        <time>2005-05-19T14:15:34Z</time>
      </trkpt>
      <trkpt lat="48.56035" lon="-1.87847">
        <ele>-1000</ele>
        <time>2005-05-19T14:15:34Z</time>
      </trkpt>
      <trkpt lat="48.56046" lon="-1.88108">
        <ele>-1000</ele>
        <time>2005-05-19T14:15:34Z</time>
      </trkpt>
      <trkpt lat="48.56052" lon="-1.88302">
        <ele>-1000</ele>
        <time>2005-05-19T14:15:34Z</time>
      </trkpt>
      <trkpt lat="48.5606" lon="-1.88416">
        <ele>-1000</ele>
        <time>2005-05-19T14:15:34Z</time>
      </trkpt>
      <trkpt lat="48.55959" lon="-1.88438">
        <ele>-1000</ele>
        <time>2005-05-19T14:15:34Z</time>
      </trkpt>
      <trkpt lat="48.55857" lon="-1.88462">
        <ele>-1000</ele>
        <time>2005-05-19T14:15:34Z</time>
      </trkpt>
      <trkpt lat="48.55727" lon="-1.88451">
        <ele>-1000</ele>
        <time>2005-05-19T14:15:34Z</time>
      </trkpt>
      <trkpt lat="48.55662" lon="-1.88446">
        <ele>-1000</ele>
        <time>2005-05-19T14:15:34Z</time>
      </trkpt>
      <trkpt lat="48.5564" lon="-1.88434">
        <ele>-1000</ele>
        <time>2005-05-19T14:15:34Z</time>
      </trkpt>
      <trkpt lat="48.55613" lon="-1.88431">
        <ele>-1000</ele>
        <time>2005-05-19T14:15:34Z</time>
      </trkpt>
      <trkpt lat="48.55588" lon="-1.8847">
        <ele>-1000</ele>
        <time>2005-05-19T14:15:34Z</time>
      </trkpt>
      <trkpt lat="48.55559" lon="-1.88487">
        <ele>-1000</ele>
        <time>2005-05-19T14:15:34Z</time>
      </trkpt>
      <trkpt lat="48.55558" lon="-1.88344">
        <ele>-1000</ele>
        <time>2005-05-19T14:15:34Z</time>
      </trkpt>
      <trkpt lat="48.55523" lon="-1.88154">
        <ele>-1000</ele>
        <time>2005-05-19T14:15:34Z</time>
      </trkpt>
      <trkpt lat="48.55492" lon="-1.8799">
        <ele>-1000</ele>
        <time>2005-05-19T14:15:34Z</time>
      </trkpt>
      <trkpt lat="48.55426" lon="-1.87881">
        <ele>-1000</ele>
        <time>2005-05-19T14:15:34Z</time>
      </trkpt>
      <trkpt lat="48.5534" lon="-1.87791">
        <ele>-1000</ele>
        <time>2005-05-19T14:15:34Z</time>
      </trkpt>
      <trkpt lat="48.55257" lon="-1.87649">
        <ele>-1000</ele>
        <time>2005-05-19T14:15:34Z</time>
      </trkpt>
      <trkpt lat="48.55192" lon="-1.87487">
        <ele>-1000</ele>
        <time>2005-05-19T14:15:34Z</time>
      </trkpt>
      <trkpt lat="48.55134" lon="-1.87363">
        <ele>-1000</ele>
        <time>2005-05-19T14:15:34Z</time>
      </trkpt>
      <trkpt lat="48.55104" lon="-1.87303">
        <ele>-1000</ele>
        <time>2005-05-19T14:15:34Z</time>
      </trkpt>
      <trkpt lat="48.5505" lon="-1.87201">
        <ele>-1000</ele>
        <time>2005-05-19T14:15:34Z</time>
      </trkpt>
      <trkpt lat="48.55014" lon="-1.87255">
        <ele>-1000</ele>
        <time>2005-05-19T14:15:34Z</time>
      </trkpt>
      <trkpt lat="48.5496" lon="-1.87336">
        <ele>-1000</ele>
        <time>2005-05-19T14:15:34Z</time>
      </trkpt>
      <trkpt lat="48.54881" lon="-1.87545">
        <ele>-1000</ele>
        <time>2005-05-19T14:15:34Z</time>
      </trkpt>
      <trkpt lat="48.54784" lon="-1.87678">
        <ele>-1000</ele>
        <time>2005-05-19T14:15:34Z</time>
      </trkpt>
      <trkpt lat="48.54695" lon="-1.87739">
        <ele>-1000</ele>
        <time>2005-05-19T14:15:34Z</time>
      </trkpt>
      <trkpt lat="48.54656" lon="-1.87798">
        <ele>-1000</ele>
        <time>2005-05-19T14:15:34Z</time>
      </trkpt>
      <trkpt lat="48.54652" lon="-1.87901">
        <ele>-1000</ele>
        <time>2005-05-19T14:15:34Z</time>
      </trkpt>
      <trkpt lat="48.54632" lon="-1.87972">
        <ele>-1000</ele>
        <time>2005-05-19T14:15:34Z</time>
      </trkpt>
      <trkpt lat="48.54601" lon="-1.88085">
        <ele>-1000</ele>
        <time>2005-05-19T14:15:34Z</time>
      </trkpt>
      <trkpt lat="48.54582" lon="-1.88203">
        <ele>-1000</ele>
        <time>2005-05-19T14:15:34Z</time>
      </trkpt>
      <trkpt lat="48.54582" lon="-1.8839">
        <ele>-1000</ele>
        <time>2005-05-19T14:15:34Z</time>
      </trkpt>
      <trkpt lat="48.54644" lon="-1.88701">
        <ele>-1000</ele>
        <time>2005-05-19T14:15:34Z</time>
      </trkpt>
      <trkpt lat="48.54674" lon="-1.88886">
        <ele>-1000</ele>
        <time>2005-05-19T14:15:34Z</time>
      </trkpt>
      <trkpt lat="48.54785" lon="-1.89092">
        <ele>-1000</ele>
        <time>2005-05-19T14:15:34Z</time>
      </trkpt>
      <trkpt lat="48.54863" lon="-1.89234">
        <ele>-1000</ele>
        <time>2005-05-19T14:15:34Z</time>
      </trkpt>
      <trkpt lat="48.54907" lon="-1.89356">
        <ele>-1000</ele>
        <time>2005-05-19T14:15:34Z</time>
      </trkpt>
      <trkpt lat="48.54938" lon="-1.89442">
        <ele>-1000</ele>
        <time>2005-05-19T14:15:34Z</time>
      </trkpt>
      <trkpt lat="48.54937" lon="-1.89612">
        <ele>-1000</ele>
        <time>2005-05-19T14:15:34Z</time>
      </trkpt>
      <trkpt lat="48.54977" lon="-1.89691">
        <ele>-1000</ele>
        <time>2005-05-19T14:15:34Z</time>
      </trkpt>
      <trkpt lat="48.5497" lon="-1.89851">
        <ele>-1000</ele>
        <time>2005-05-19T14:15:34Z</time>
      </trkpt>
      <trkpt lat="48.54984" lon="-1.89994">
        <ele>-1000</ele>
        <time>2005-05-19T14:15:34Z</time>
      </trkpt>
      <trkpt lat="48.5504" lon="-1.90195">
        <ele>-1000</ele>
        <time>2005-05-19T14:15:34Z</time>
      </trkpt>
      <trkpt lat="48.55024" lon="-1.90371">
        <ele>-1000</ele>
        <time>2005-05-19T14:15:34Z</time>
      </trkpt>
      <trkpt lat="48.54953" lon="-1.9064">
        <ele>-1000</ele>
        <time>2005-05-19T14:15:34Z</time>
      </trkpt>
      <trkpt lat="48.55039" lon="-1.90674">
        <ele>-1000</ele>
        <time>2005-05-19T14:15:34Z</time>
      </trkpt>
      <trkpt lat="48.55145" lon="-1.90704">
        <ele>-1000</ele>
        <time>2005-05-19T14:15:34Z</time>
      </trkpt>
      <trkpt lat="48.55257" lon="-1.90572">
        <ele>-1000</ele>
        <time>2005-05-19T14:15:34Z</time>
      </trkpt>
      <trkpt lat="48.55304" lon="-1.90515">
        <ele>-1000</ele>
        <time>2005-05-19T14:15:34Z</time>
      </trkpt>
      <trkpt lat="48.55346" lon="-1.90419">
        <ele>-1000</ele>
        <time>2005-05-19T14:15:34Z</time>
      </trkpt>
      <trkpt lat="48.55488" lon="-1.90324">
        <ele>-1000</ele>
        <time>2005-05-19T14:15:34Z</time>
      </trkpt>
      <trkpt lat="48.55562" lon="-1.90235">
        <ele>-1000</ele>
        <time>2005-05-19T14:15:34Z</time>
      </trkpt>
      <trkpt lat="48.55603" lon="-1.90257">
        <ele>-1000</ele>
        <time>2005-05-19T14:15:34Z</time>
      </trkpt>
      <trkpt lat="48.55702" lon="-1.90307">
        <ele>-1000</ele>
        <time>2005-05-19T14:15:34Z</time>
      </trkpt>
      <trkpt lat="48.55689" lon="-1.90374">
        <ele>-1000</ele>
        <time>2005-05-19T14:15:34Z</time>
      </trkpt>
      <trkpt lat="48.5564" lon="-1.90521">
        <ele>-1000</ele>
        <time>2005-05-19T14:15:34Z</time>
      </trkpt>
      <trkpt lat="48.55757" lon="-1.90993">
        <ele>-1000</ele>
        <time>2005-05-19T14:15:34Z</time>
      </trkpt>
      <trkpt lat="48.55842" lon="-1.9139">
        <ele>-1000</ele>
        <time>2005-05-19T14:15:34Z</time>
      </trkpt>
      <trkpt lat="48.55973" lon="-1.91904">
        <ele>-1000</ele>
        <time>2005-05-19T14:15:34Z</time>
      </trkpt>
      <trkpt lat="48.56066" lon="-1.92297">
        <ele>-1000</ele>
        <time>2005-05-19T14:15:34Z</time>
      </trkpt>
      <trkpt lat="48.56157" lon="-1.92642">
        <ele>-1000</ele>
        <time>2005-05-19T14:15:34Z</time>
      </trkpt>
      <trkpt lat="48.56175" lon="-1.92695">
        <ele>-1000</ele>
        <time>2005-05-19T14:15:34Z</time>
      </trkpt>
      <trkpt lat="48.5597" lon="-1.92879">
        <ele>-1000</ele>
        <time>2005-05-19T14:15:34Z</time>
      </trkpt>
      <trkpt lat="48.55977" lon="-1.92978">
        <ele>-1000</ele>
        <time>2005-05-19T14:15:34Z</time>
      </trkpt>
      <trkpt lat="48.55988" lon="-1.93063">
        <ele>-1000</ele>
        <time>2005-05-19T14:15:34Z</time>
      </trkpt>
      <trkpt lat="48.55882" lon="-1.93127">
        <ele>-1000</ele>
        <time>2005-05-19T14:15:34Z</time>
      </trkpt>
      <trkpt lat="48.55844" lon="-1.93084">
        <ele>-1000</ele>
        <time>2005-05-19T14:15:34Z</time>
      </trkpt>
      <trkpt lat="48.5581" lon="-1.93037">
        <ele>-1000</ele>
        <time>2005-05-19T14:15:34Z</time>
      </trkpt>
      <trkpt lat="48.55709" lon="-1.92951">
        <ele>-1000</ele>
        <time>2005-05-19T14:15:34Z</time>
      </trkpt>
      <trkpt lat="48.55682" lon="-1.93022">
        <ele>-1000</ele>
        <time>2005-05-19T14:15:34Z</time>
      </trkpt>
      <trkpt lat="48.55667" lon="-1.92964">
        <ele>-1000</ele>
        <time>2005-05-19T14:15:34Z</time>
      </trkpt>
      <trkpt lat="48.55512" lon="-1.92837">
        <ele>-1000</ele>
        <time>2005-05-19T14:15:34Z</time>
      </trkpt>
      <trkpt lat="48.5538" lon="-1.92723">
        <ele>-1000</ele>
        <time>2005-05-19T14:15:34Z</time>
      </trkpt>
      <trkpt lat="48.55311" lon="-1.92695">
        <ele>-1000</ele>
        <time>2005-05-19T14:15:34Z</time>
      </trkpt>
      <trkpt lat="48.55216" lon="-1.92844">
        <ele>-1000</ele>
        <time>2005-05-19T14:15:34Z</time>
      </trkpt>
      <trkpt lat="48.55181" lon="-1.92924">
        <ele>-1000</ele>
        <time>2005-05-19T14:15:34Z</time>
      </trkpt>
      <trkpt lat="48.55129" lon="-1.93039">
        <ele>-1000</ele>
        <time>2005-05-19T14:15:34Z</time>
      </trkpt>
      <trkpt lat="48.55096" lon="-1.93187">
        <ele>-1000</ele>
        <time>2005-05-19T14:15:34Z</time>
      </trkpt>
      <trkpt lat="48.55122" lon="-1.93338">
        <ele>-1000</ele>
        <time>2005-05-19T14:15:34Z</time>
      </trkpt>
      <trkpt lat="48.55084" lon="-1.93333">
        <ele>-1000</ele>
        <time>2005-05-19T14:15:34Z</time>
      </trkpt>
      <trkpt lat="48.55048" lon="-1.9333">
        <ele>-1000</ele>
        <time>2005-05-19T14:15:34Z</time>
      </trkpt>
      <trkpt lat="48.5501" lon="-1.93363">
        <ele>-1000</ele>
        <time>2005-05-19T14:15:34Z</time>
      </trkpt>
      <trkpt lat="48.54946" lon="-1.9342">
        <ele>-1000</ele>
        <time>2005-05-19T14:15:34Z</time>
      </trkpt>
      <trkpt lat="48.54847" lon="-1.93512">
        <ele>-1000</ele>
        <time>2005-05-19T14:15:34Z</time>
      </trkpt>
      <trkpt lat="48.54751" lon="-1.93659">
        <ele>-1000</ele>
        <time>2005-05-19T14:15:34Z</time>
      </trkpt>
      <trkpt lat="48.54692" lon="-1.93756">
        <ele>-1000</ele>
        <time>2005-05-19T14:15:34Z</time>
      </trkpt>
      <trkpt lat="48.54662" lon="-1.93834">
        <ele>-1000</ele>
        <time>2005-05-19T14:15:34Z</time>
      </trkpt>
      <trkpt lat="48.54604" lon="-1.93898">
        <ele>-1000</ele>
        <time>2005-05-19T14:15:34Z</time>
      </trkpt>
      <trkpt lat="48.54533" lon="-1.93965">
        <ele>-1000</ele>
        <time>2005-05-19T14:15:34Z</time>
      </trkpt>
      <trkpt lat="48.54493" lon="-1.94056">
        <ele>-1000</ele>
        <time>2005-05-19T14:15:34Z</time>
      </trkpt>
      <trkpt lat="48.54577" lon="-1.94061">
        <ele>-1000</ele>
        <time>2005-05-19T14:15:34Z</time>
      </trkpt>
      <trkpt lat="48.54644" lon="-1.94124">
        <ele>-1000</ele>
        <time>2005-05-19T14:15:34Z</time>
      </trkpt>
      <trkpt lat="48.54685" lon="-1.9421">
        <ele>-1000</ele>
        <time>2005-05-19T14:15:34Z</time>
      </trkpt>
      <trkpt lat="48.54746" lon="-1.94367">
        <ele>-1000</ele>
        <time>2005-05-19T14:15:34Z</time>
      </trkpt>
      <trkpt lat="48.54812" lon="-1.9446">
        <ele>-1000</ele>
        <time>2005-05-19T14:15:34Z</time>
      </trkpt>
      <trkpt lat="48.54853" lon="-1.9451">
        <ele>-1000</ele>
        <time>2005-05-19T14:15:34Z</time>
      </trkpt>
      <trkpt lat="48.54919" lon="-1.94581">
        <ele>-1000</ele>
        <time>2005-05-19T14:15:34Z</time>
      </trkpt>
      <trkpt lat="48.54912" lon="-1.94672">
        <ele>-1000</ele>
        <time>2005-05-19T14:15:34Z</time>
      </trkpt>
      <trkpt lat="48.54908" lon="-1.9473">
        <ele>-1000</ele>
        <time>2005-05-19T14:15:34Z</time>
      </trkpt>
      <trkpt lat="48.54858" lon="-1.94713">
        <ele>-1000</ele>
        <time>2005-05-19T14:15:34Z</time>
      </trkpt>
      <trkpt lat="48.548" lon="-1.94677">
        <ele>-1000</ele>
        <time>2005-05-19T14:15:34Z</time>
      </trkpt>
      <trkpt lat="48.54723" lon="-1.94785">
        <ele>-1000</ele>
        <time>2005-05-19T14:15:34Z</time>
      </trkpt>
      <trkpt lat="48.54659" lon="-1.94864">
        <ele>-1000</ele>
        <time>2005-05-19T14:15:34Z</time>
      </trkpt>
      <trkpt lat="48.54577" lon="-1.94934">
        <ele>-1000</ele>
        <time>2005-05-19T14:15:34Z</time>
      </trkpt>
      <trkpt lat="48.54467" lon="-1.95013">
        <ele>-1000</ele>
        <time>2005-05-19T14:15:34Z</time>
      </trkpt>
      <trkpt lat="48.54591" lon="-1.95117">
        <ele>-1000</ele>
        <time>2005-05-19T14:15:34Z</time>
      </trkpt>
      <trkpt lat="48.54552" lon="-1.95194">
        <ele>-1000</ele>
        <time>2005-05-19T14:15:34Z</time>
      </trkpt>
      <trkpt lat="48.54516" lon="-1.95224">
        <ele>-1000</ele>
        <time>2005-05-19T14:15:34Z</time>
      </trkpt>
      <trkpt lat="48.54439" lon="-1.95208">
        <ele>-1000</ele>
        <time>2005-05-19T14:15:34Z</time>
      </trkpt>
      <trkpt lat="48.5439" lon="-1.95185">
        <ele>-1000</ele>
        <time>2005-05-19T14:15:34Z</time>
      </trkpt>
      <trkpt lat="48.54313" lon="-1.95173">
        <ele>-1000</ele>
        <time>2005-05-19T14:15:34Z</time>
      </trkpt>
      <trkpt lat="48.54323" lon="-1.95257">
        <ele>-1000</ele>
        <time>2005-05-19T14:15:34Z</time>
      </trkpt>
      <trkpt lat="48.54328" lon="-1.9536">
        <ele>-1000</ele>
        <time>2005-05-19T14:15:34Z</time>
      </trkpt>
      <trkpt lat="48.54313" lon="-1.95459">
        <ele>-1000</ele>
        <time>2005-05-19T14:15:34Z</time>
      </trkpt>
      <trkpt lat="48.54305" lon="-1.95568">
        <ele>-1000</ele>
        <time>2005-05-19T14:15:34Z</time>
      </trkpt>
      <trkpt lat="48.54359" lon="-1.95569">
        <ele>-1000</ele>
        <time>2005-05-19T14:15:34Z</time>
      </trkpt>
      <trkpt lat="48.54352" lon="-1.95733">
        <ele>-1000</ele>
        <time>2005-05-19T14:15:34Z</time>
      </trkpt>
      <trkpt lat="48.5428" lon="-1.95768">
        <ele>-1000</ele>
        <time>2005-05-19T14:15:34Z</time>
      </trkpt>
      <trkpt lat="48.54198" lon="-1.95921">
        <ele>-1000</ele>
        <time>2005-05-19T14:15:34Z</time>
      </trkpt>
      <trkpt lat="48.54164" lon="-1.96018">
        <ele>-1000</ele>
        <time>2005-05-19T14:15:34Z</time>
      </trkpt>
      <trkpt lat="48.54131" lon="-1.9614">
        <ele>-1000</ele>
        <time>2005-05-19T14:15:34Z</time>
      </trkpt>
      <trkpt lat="48.54079" lon="-1.96255">
        <ele>-1000</ele>
        <time>2005-05-19T14:15:34Z</time>
      </trkpt>
      <trkpt lat="48.54097" lon="-1.96327">
        <ele>-1000</ele>
        <time>2005-05-19T14:15:34Z</time>
      </trkpt>
      <trkpt lat="48.54088" lon="-1.96499">
        <ele>-1000</ele>
        <time>2005-05-19T14:15:34Z</time>
      </trkpt>
      <trkpt lat="48.54039" lon="-1.9658">
        <ele>-1000</ele>
        <time>2005-05-19T14:15:34Z</time>
      </trkpt>
      <trkpt lat="48.5398" lon="-1.96659">
        <ele>-1000</ele>
        <time>2005-05-19T14:15:34Z</time>
      </trkpt>
      <trkpt lat="48.53911" lon="-1.96699">
        <ele>-1000</ele>
        <time>2005-05-19T14:15:34Z</time>
      </trkpt>
      <trkpt lat="48.53891" lon="-1.96833">
        <ele>-1000</ele>
        <time>2005-05-19T14:15:34Z</time>
      </trkpt>
      <trkpt lat="48.53866" lon="-1.96858">
        <ele>-1000</ele>
        <time>2005-05-19T14:15:34Z</time>
      </trkpt>
      <trkpt lat="48.538" lon="-1.96908">
        <ele>-1000</ele>
        <time>2005-05-19T14:15:34Z</time>
      </trkpt>
      <trkpt lat="48.53751" lon="-1.96904">
        <ele>-1000</ele>
        <time>2005-05-19T14:15:34Z</time>
      </trkpt>
      <trkpt lat="48.53727" lon="-1.96908">
        <ele>-1000</ele>
        <time>2005-05-19T14:15:34Z</time>
      </trkpt>
      <trkpt lat="48.53725" lon="-1.96752">
        <ele>-1000</ele>
        <time>2005-05-19T14:15:34Z</time>
      </trkpt>
      <trkpt lat="48.53767" lon="-1.96676">
        <ele>-1000</ele>
        <time>2005-05-19T14:15:34Z</time>
      </trkpt>
      <trkpt lat="48.53695" lon="-1.96692">
        <ele>-1000</ele>
        <time>2005-05-19T14:15:34Z</time>
      </trkpt>
      <trkpt lat="48.53664" lon="-1.96648">
        <ele>-1000</ele>
        <time>2005-05-19T14:15:34Z</time>
      </trkpt>
      <trkpt lat="48.53653" lon="-1.9656">
        <ele>-1000</ele>
        <time>2005-05-19T14:15:34Z</time>
      </trkpt>
      <trkpt lat="48.53653" lon="-1.96465">
        <ele>-1000</ele>
        <time>2005-05-19T14:15:34Z</time>
      </trkpt>
      <trkpt lat="48.53661" lon="-1.96249">
        <ele>-1000</ele>
        <time>2005-05-19T14:15:34Z</time>
      </trkpt>
      <trkpt lat="48.53657" lon="-1.96106">
        <ele>-1000</ele>
        <time>2005-05-19T14:15:34Z</time>
      </trkpt>
      <trkpt lat="48.53643" lon="-1.96">
        <ele>-1000</ele>
        <time>2005-05-19T14:15:34Z</time>
      </trkpt>
      <trkpt lat="48.53655" lon="-1.95848">
        <ele>-1000</ele>
        <time>2005-05-19T14:15:34Z</time>
      </trkpt>
      <trkpt lat="48.53716" lon="-1.957">
        <ele>-1000</ele>
        <time>2005-05-19T14:15:34Z</time>
      </trkpt>
      <trkpt lat="48.53727" lon="-1.95622">
        <ele>-1000</ele>
        <time>2005-05-19T14:15:34Z</time>
      </trkpt>
      <trkpt lat="48.53733" lon="-1.95517">
        <ele>-1000</ele>
        <time>2005-05-19T14:15:34Z</time>
      </trkpt>
      <trkpt lat="48.53753" lon="-1.95445">
        <ele>-1000</ele>
        <time>2005-05-19T14:15:34Z</time>
      </trkpt>
      <trkpt lat="48.53785" lon="-1.95389">
        <ele>-1000</ele>
        <time>2005-05-19T14:15:34Z</time>
      </trkpt>
      <trkpt lat="48.53821" lon="-1.95334">
        <ele>-1000</ele>
        <time>2005-05-19T14:15:34Z</time>
      </trkpt>
      <trkpt lat="48.53858" lon="-1.95225">
        <ele>-1000</ele>
        <time>2005-05-19T14:15:34Z</time>
      </trkpt>
      <trkpt lat="48.5387" lon="-1.95062">
        <ele>-1000</ele>
        <time>2005-05-19T14:15:34Z</time>
      </trkpt>
      <trkpt lat="48.53902" lon="-1.94975">
        <ele>-1000</ele>
        <time>2005-05-19T14:15:34Z</time>
      </trkpt>
      <trkpt lat="48.53908" lon="-1.94866">
        <ele>-1000</ele>
        <time>2005-05-19T14:15:34Z</time>
      </trkpt>
      <trkpt lat="48.53951" lon="-1.94741">
        <ele>-1000</ele>
        <time>2005-05-19T14:15:34Z</time>
      </trkpt>
      <trkpt lat="48.5397" lon="-1.94685">
        <ele>-1000</ele>
        <time>2005-05-19T14:15:34Z</time>
      </trkpt>
      <trkpt lat="48.5401" lon="-1.94652">
        <ele>-1000</ele>
        <time>2005-05-19T14:15:34Z</time>
      </trkpt>
      <trkpt lat="48.54066" lon="-1.94594">
        <ele>-1000</ele>
        <time>2005-05-19T14:15:34Z</time>
      </trkpt>
      <trkpt lat="48.54026" lon="-1.94591">
        <ele>-1000</ele>
        <time>2005-05-19T14:15:34Z</time>
      </trkpt>
      <trkpt lat="48.53984" lon="-1.94602">
        <ele>-1000</ele>
        <time>2005-05-19T14:15:34Z</time>
      </trkpt>
      <trkpt lat="48.53943" lon="-1.94592">
        <ele>-1000</ele>
        <time>2005-05-19T14:15:34Z</time>
      </trkpt>
      <trkpt lat="48.53915" lon="-1.94557">
        <ele>-1000</ele>
        <time>2005-05-19T14:15:34Z</time>
      </trkpt>
      <trkpt lat="48.53965" lon="-1.94461">
        <ele>-1000</ele>
        <time>2005-05-19T14:15:34Z</time>
      </trkpt>
      <trkpt lat="48.54007" lon="-1.94322">
        <ele>-1000</ele>
        <time>2005-05-19T14:15:34Z</time>
      </trkpt>
      <trkpt lat="48.54039" lon="-1.94223">
        <ele>-1000</ele>
        <time>2005-05-19T14:15:34Z</time>
      </trkpt>
      <trkpt lat="48.53989" lon="-1.94166">
        <ele>-1000</ele>
        <time>2005-05-19T14:15:34Z</time>
      </trkpt>
      <trkpt lat="48.53951" lon="-1.94116">
        <ele>-1000</ele>
        <time>2005-05-19T14:15:34Z</time>
      </trkpt>
      <trkpt lat="48.53946" lon="-1.94069">
        <ele>-1000</ele>
        <time>2005-05-19T14:15:34Z</time>
      </trkpt>
      <trkpt lat="48.53985" lon="-1.93901">
        <ele>-1000</ele>
        <time>2005-05-19T14:15:34Z</time>
      </trkpt>
      <trkpt lat="48.54034" lon="-1.93676">
        <ele>-1000</ele>
        <time>2005-05-19T14:15:34Z</time>
      </trkpt>
      <trkpt lat="48.53929" lon="-1.93688">
        <ele>-1000</ele>
        <time>2005-05-19T14:15:34Z</time>
      </trkpt>
      <trkpt lat="48.53775" lon="-1.93764">
        <ele>-1000</ele>
        <time>2005-05-19T14:15:34Z</time>
      </trkpt>
      <trkpt lat="48.53707" lon="-1.93792">
        <ele>-1000</ele>
        <time>2005-05-19T14:15:34Z</time>
      </trkpt>
      <trkpt lat="48.53608" lon="-1.93815">
        <ele>-1000</ele>
        <time>2005-05-19T14:15:34Z</time>
      </trkpt>
      <trkpt lat="48.53468" lon="-1.93832">
        <ele>-1000</ele>
        <time>2005-05-19T14:15:34Z</time>
      </trkpt>
      <trkpt lat="48.5347" lon="-1.93937">
        <ele>-1000</ele>
        <time>2005-05-19T14:15:34Z</time>
      </trkpt>
      <trkpt lat="48.5347" lon="-1.94">
        <ele>-1000</ele>
        <time>2005-05-19T14:15:34Z</time>
      </trkpt>
      <trkpt lat="48.53437" lon="-1.94111">
        <ele>-1000</ele>
        <time>2005-05-19T14:15:34Z</time>
      </trkpt>
      <trkpt lat="48.53417" lon="-1.94234">
        <ele>-1000</ele>
        <time>2005-05-19T14:15:34Z</time>
      </trkpt>
      <trkpt lat="48.53364" lon="-1.94349">
        <ele>-1000</ele>
        <time>2005-05-19T14:15:34Z</time>
      </trkpt>
      <trkpt lat="48.53294" lon="-1.94373">
        <ele>-1000</ele>
        <time>2005-05-19T14:15:34Z</time>
      </trkpt>
      <trkpt lat="48.53252" lon="-1.94404">
        <ele>-1000</ele>
        <time>2005-05-19T14:15:34Z</time>
      </trkpt>
      <trkpt lat="48.53222" lon="-1.94412">
        <ele>-1000</ele>
        <time>2005-05-19T14:15:34Z</time>
      </trkpt>
      <trkpt lat="48.53157" lon="-1.94416">
        <ele>-1000</ele>
        <time>2005-05-19T14:15:34Z</time>
      </trkpt>
      <trkpt lat="48.53128" lon="-1.94604">
        <ele>-1000</ele>
        <time>2005-05-19T14:15:34Z</time>
      </trkpt>
      <trkpt lat="48.53006" lon="-1.94648">
        <ele>-1000</ele>
        <time>2005-05-19T14:15:34Z</time>
      </trkpt>
      <trkpt lat="48.52951" lon="-1.94618">
        <ele>-1000</ele>
        <time>2005-05-19T14:15:34Z</time>
      </trkpt>
      <trkpt lat="48.52915" lon="-1.94611">
        <ele>-1000</ele>
        <time>2005-05-19T14:15:34Z</time>
      </trkpt>
      <trkpt lat="48.5283" lon="-1.94623">
        <ele>-1000</ele>
        <time>2005-05-19T14:15:34Z</time>
      </trkpt>
      <trkpt lat="48.52833" lon="-1.94447">
        <ele>-1000</ele>
        <time>2005-05-19T14:15:34Z</time>
      </trkpt>
      <trkpt lat="48.52739" lon="-1.94501">
        <ele>-1000</ele>
        <time>2005-05-19T14:15:34Z</time>
      </trkpt>
      <trkpt lat="48.52741" lon="-1.9458">
        <ele>-1000</ele>
        <time>2005-05-19T14:15:34Z</time>
      </trkpt>
      <trkpt lat="48.52755" lon="-1.94855">
        <ele>-1000</ele>
        <time>2005-05-19T14:15:34Z</time>
      </trkpt>
      <trkpt lat="48.52768" lon="-1.94966">
        <ele>-1000</ele>
        <time>2005-05-19T14:15:34Z</time>
      </trkpt>
      <trkpt lat="48.52751" lon="-1.94981">
        <ele>-1000</ele>
        <time>2005-05-19T14:15:34Z</time>
      </trkpt>
      <trkpt lat="48.52732" lon="-1.95023">
        <ele>-1000</ele>
        <time>2005-05-19T14:15:34Z</time>
      </trkpt>
      <trkpt lat="48.52726" lon="-1.95091">
        <ele>-1000</ele>
        <time>2005-05-19T14:15:34Z</time>
      </trkpt>
      <trkpt lat="48.52689" lon="-1.95122">
        <ele>-1000</ele>
        <time>2005-05-19T14:15:34Z</time>
      </trkpt>
      <trkpt lat="48.52647" lon="-1.95158">
        <ele>-1000</ele>
        <time>2005-05-19T14:15:34Z</time>
      </trkpt>
      <trkpt lat="48.52583" lon="-1.9521">
        <ele>-1000</ele>
        <time>2005-05-19T14:15:34Z</time>
      </trkpt>
      <trkpt lat="48.5253" lon="-1.95253">
        <ele>-1000</ele>
        <time>2005-05-19T14:15:34Z</time>
      </trkpt>
      <trkpt lat="48.52527" lon="-1.95132">
        <ele>-1000</ele>
        <time>2005-05-19T14:15:34Z</time>
      </trkpt>
      <trkpt lat="48.52515" lon="-1.94982">
        <ele>-1000</ele>
        <time>2005-05-19T14:15:34Z</time>
      </trkpt>
      <trkpt lat="48.52485" lon="-1.94882">
        <ele>-1000</ele>
        <time>2005-05-19T14:15:34Z</time>
      </trkpt>
      <trkpt lat="48.52482" lon="-1.947">
        <ele>-1000</ele>
        <time>2005-05-19T14:15:34Z</time>
      </trkpt>
      <trkpt lat="48.52476" lon="-1.94573">
        <ele>-1000</ele>
        <time>2005-05-19T14:15:34Z</time>
      </trkpt>
      <trkpt lat="48.5238" lon="-1.94502">
        <ele>-1000</ele>
        <time>2005-05-19T14:15:34Z</time>
      </trkpt>
      <trkpt lat="48.52242" lon="-1.94413">
        <ele>-1000</ele>
        <time>2005-05-19T14:15:34Z</time>
      </trkpt>
      <trkpt lat="48.52124" lon="-1.94353">
        <ele>-1000</ele>
        <time>2005-05-19T14:15:34Z</time>
      </trkpt>
      <trkpt lat="48.52052" lon="-1.94266">
        <ele>-1000</ele>
        <time>2005-05-19T14:15:34Z</time>
      </trkpt>
      <trkpt lat="48.52007" lon="-1.94242">
        <ele>-1000</ele>
        <time>2005-05-19T14:15:34Z</time>
      </trkpt>
      <trkpt lat="48.51943" lon="-1.94259">
        <ele>-1000</ele>
        <time>2005-05-19T14:15:34Z</time>
      </trkpt>
      <trkpt lat="48.51835" lon="-1.94307">
        <ele>-1000</ele>
        <time>2005-05-19T14:15:34Z</time>
      </trkpt>
      <trkpt lat="48.51758" lon="-1.94349">
        <ele>-1000</ele>
        <time>2005-05-19T14:15:34Z</time>
      </trkpt>
      <trkpt lat="48.51687" lon="-1.94461">
        <ele>-1000</ele>
        <time>2005-05-19T14:15:34Z</time>
      </trkpt>
      <trkpt lat="48.5164" lon="-1.94526">
        <ele>-1000</ele>
        <time>2005-05-19T14:15:34Z</time>
      </trkpt>
      <trkpt lat="48.51674" lon="-1.94707">
        <ele>-1000</ele>
        <time>2005-05-19T14:15:34Z</time>
      </trkpt>
      <trkpt lat="48.51808" lon="-1.94696">
        <ele>-1000</ele>
        <time>2005-05-19T14:15:34Z</time>
      </trkpt>
      <trkpt lat="48.51773" lon="-1.94777">
        <ele>-1000</ele>
        <time>2005-05-19T14:15:34Z</time>
      </trkpt>
      <trkpt lat="48.51786" lon="-1.9487">
        <ele>-1000</ele>
        <time>2005-05-19T14:15:34Z</time>
      </trkpt>
      <trkpt lat="48.51798" lon="-1.94953">
        <ele>-1000</ele>
        <time>2005-05-19T14:15:34Z</time>
      </trkpt>
      <trkpt lat="48.51846" lon="-1.95">
        <ele>-1000</ele>
        <time>2005-05-19T14:15:34Z</time>
      </trkpt>
      <trkpt lat="48.51642" lon="-1.95107">
        <ele>-1000</ele>
        <time>2005-05-19T14:15:34Z</time>
      </trkpt>
      <trkpt lat="48.51569" lon="-1.95115">
        <ele>-1000</ele>
        <time>2005-05-19T14:15:34Z</time>
      </trkpt>
      <trkpt lat="48.51571" lon="-1.95231">
        <ele>-1000</ele>
        <time>2005-05-19T14:15:34Z</time>
      </trkpt>
      <trkpt lat="48.51617" lon="-1.95443">
        <ele>-1000</ele>
        <time>2005-05-19T14:15:34Z</time>
      </trkpt>
      <trkpt lat="48.51609" lon="-1.95536">
        <ele>-1000</ele>
        <time>2005-05-19T14:15:34Z</time>
      </trkpt>
      <trkpt lat="48.51598" lon="-1.95614">
        <ele>-1000</ele>
        <time>2005-05-19T14:15:34Z</time>
      </trkpt>
      <trkpt lat="48.51666" lon="-1.95622">
        <ele>-1000</ele>
        <time>2005-05-19T14:15:34Z</time>
      </trkpt>
      <trkpt lat="48.5175" lon="-1.95599">
        <ele>-1000</ele>
        <time>2005-05-19T14:15:34Z</time>
      </trkpt>
      <trkpt lat="48.51831" lon="-1.95615">
        <ele>-1000</ele>
        <time>2005-05-19T14:15:34Z</time>
      </trkpt>
      <trkpt lat="48.51896" lon="-1.95571">
        <ele>-1000</ele>
        <time>2005-05-19T14:15:34Z</time>
      </trkpt>
      <trkpt lat="48.51981" lon="-1.95518">
        <ele>-1000</ele>
        <time>2005-05-19T14:15:34Z</time>
      </trkpt>
      <trkpt lat="48.52018" lon="-1.95517">
        <ele>-1000</ele>
        <time>2005-05-19T14:15:34Z</time>
      </trkpt>
      <trkpt lat="48.52066" lon="-1.95641">
        <ele>-1000</ele>
        <time>2005-05-19T14:15:34Z</time>
      </trkpt>
      <trkpt lat="48.52145" lon="-1.95762">
        <ele>-1000</ele>
        <time>2005-05-19T14:15:34Z</time>
      </trkpt>
      <trkpt lat="48.52206" lon="-1.95883">
        <ele>-1000</ele>
        <time>2005-05-19T14:15:34Z</time>
      </trkpt>
      <trkpt lat="48.52284" lon="-1.96021">
        <ele>-1000</ele>
        <time>2005-05-19T14:15:34Z</time>
      </trkpt>
      <trkpt lat="48.52317" lon="-1.96146">
        <ele>-1000</ele>
        <time>2005-05-19T14:15:34Z</time>
      </trkpt>
      <trkpt lat="48.52391" lon="-1.96171">
        <ele>-1000</ele>
        <time>2005-05-19T14:15:34Z</time>
      </trkpt>
      <trkpt lat="48.52467" lon="-1.96223">
        <ele>-1000</ele>
        <time>2005-05-19T14:15:34Z</time>
      </trkpt>
      <trkpt lat="48.52539" lon="-1.96316">
        <ele>-1000</ele>
        <time>2005-05-19T14:15:34Z</time>
      </trkpt>
      <trkpt lat="48.52571" lon="-1.96384">
        <ele>-1000</ele>
        <time>2005-05-19T14:15:34Z</time>
      </trkpt>
      <trkpt lat="48.52569" lon="-1.96516">
        <ele>-1000</ele>
        <time>2005-05-19T14:15:34Z</time>
      </trkpt>
      <trkpt lat="48.52485" lon="-1.96615">
        <ele>-1000</ele>
        <time>2005-05-19T14:15:34Z</time>
      </trkpt>
      <trkpt lat="48.52357" lon="-1.96743">
        <ele>-1000</ele>
        <time>2005-05-19T14:15:34Z</time>
      </trkpt>
      <trkpt lat="48.52358" lon="-1.9682">
        <ele>-1000</ele>
        <time>2005-05-19T14:15:34Z</time>
      </trkpt>
      <trkpt lat="48.52299" lon="-1.96935">
        <ele>-1000</ele>
        <time>2005-05-19T14:15:34Z</time>
      </trkpt>
      <trkpt lat="48.52212" lon="-1.97026">
        <ele>-1000</ele>
        <time>2005-05-19T14:15:34Z</time>
      </trkpt>
      <trkpt lat="48.52125" lon="-1.9705">
        <ele>-1000</ele>
        <time>2005-05-19T14:15:34Z</time>
      </trkpt>
      <trkpt lat="48.52048" lon="-1.97002">
        <ele>-1000</ele>
        <time>2005-05-19T14:15:34Z</time>
      </trkpt>
      <trkpt lat="48.51961" lon="-1.96907">
        <ele>-1000</ele>
        <time>2005-05-19T14:15:34Z</time>
      </trkpt>
      <trkpt lat="48.5194" lon="-1.96832">
        <ele>-1000</ele>
        <time>2005-05-19T14:15:34Z</time>
      </trkpt>
      <trkpt lat="48.51886" lon="-1.96875">
        <ele>-1000</ele>
        <time>2005-05-19T14:15:34Z</time>
      </trkpt>
      <trkpt lat="48.51792" lon="-1.96898">
        <ele>-1000</ele>
        <time>2005-05-19T14:15:34Z</time>
      </trkpt>
      <trkpt lat="48.5169" lon="-1.96921">
        <ele>-1000</ele>
        <time>2005-05-19T14:15:34Z</time>
      </trkpt>
      <trkpt lat="48.51604" lon="-1.96945">
        <ele>-1000</ele>
        <time>2005-05-19T14:15:34Z</time>
      </trkpt>
      <trkpt lat="48.51511" lon="-1.96932">
        <ele>-1000</ele>
        <time>2005-05-19T14:15:34Z</time>
      </trkpt>
      <trkpt lat="48.51474" lon="-1.96894">
        <ele>-1000</ele>
        <time>2005-05-19T14:15:34Z</time>
      </trkpt>
      <trkpt lat="48.51431" lon="-1.96879">
        <ele>-1000</ele>
        <time>2005-05-19T14:15:34Z</time>
      </trkpt>
      <trkpt lat="48.51374" lon="-1.9691">
        <ele>-1000</ele>
        <time>2005-05-19T14:15:34Z</time>
      </trkpt>
      <trkpt lat="48.51325" lon="-1.96889">
        <ele>-1000</ele>
        <time>2005-05-19T14:15:34Z</time>
      </trkpt>
      <trkpt lat="48.51328" lon="-1.96823">
        <ele>-1000</ele>
        <time>2005-05-19T14:15:34Z</time>
      </trkpt>
      <trkpt lat="48.51297" lon="-1.96665">
        <ele>-1000</ele>
        <time>2005-05-19T14:15:34Z</time>
      </trkpt>
      <trkpt lat="48.51258" lon="-1.96578">
        <ele>-1000</ele>
        <time>2005-05-19T14:15:34Z</time>
      </trkpt>
      <trkpt lat="48.51196" lon="-1.9649">
        <ele>-1000</ele>
        <time>2005-05-19T14:15:34Z</time>
      </trkpt>
      <trkpt lat="48.5119" lon="-1.96552">
        <ele>-1000</ele>
        <time>2005-05-19T14:15:34Z</time>
      </trkpt>
      <trkpt lat="48.51218" lon="-1.96663">
        <ele>-1000</ele>
        <time>2005-05-19T14:15:34Z</time>
      </trkpt>
      <trkpt lat="48.5125" lon="-1.96791">
        <ele>-1000</ele>
        <time>2005-05-19T14:15:34Z</time>
      </trkpt>
      <trkpt lat="48.51229" lon="-1.96898">
        <ele>-1000</ele>
        <time>2005-05-19T14:15:34Z</time>
      </trkpt>
      <trkpt lat="48.51209" lon="-1.9698">
        <ele>-1000</ele>
        <time>2005-05-19T14:15:34Z</time>
      </trkpt>
      <trkpt lat="48.51223" lon="-1.97053">
        <ele>-1000</ele>
        <time>2005-05-19T14:15:34Z</time>
      </trkpt>
      <trkpt lat="48.5122" lon="-1.97173">
        <ele>-1000</ele>
        <time>2005-05-19T14:15:34Z</time>
      </trkpt>
      <trkpt lat="48.51236" lon="-1.97263">
        <ele>-1000</ele>
        <time>2005-05-19T14:15:34Z</time>
      </trkpt>
      <trkpt lat="48.5123" lon="-1.97424">
        <ele>-1000</ele>
        <time>2005-05-19T14:15:34Z</time>
      </trkpt>
      <trkpt lat="48.5121" lon="-1.97516">
        <ele>-1000</ele>
        <time>2005-05-19T14:15:34Z</time>
      </trkpt>
      <trkpt lat="48.51193" lon="-1.97597">
        <ele>-1000</ele>
        <time>2005-05-19T14:15:34Z</time>
      </trkpt>
      <trkpt lat="48.51128" lon="-1.97586">
        <ele>-1000</ele>
        <time>2005-05-19T14:15:34Z</time>
      </trkpt>
      <trkpt lat="48.51056" lon="-1.97615">
        <ele>-1000</ele>
        <time>2005-05-19T14:15:34Z</time>
      </trkpt>
      <trkpt lat="48.50991" lon="-1.97649">
        <ele>-1000</ele>
        <time>2005-05-19T14:15:34Z</time>
      </trkpt>
      <trkpt lat="48.50919" lon="-1.97641">
        <ele>-1000</ele>
        <time>2005-05-19T14:15:34Z</time>
      </trkpt>
      <trkpt lat="48.50864" lon="-1.97614">
        <ele>-1000</ele>
        <time>2005-05-19T14:15:34Z</time>
      </trkpt>
      <trkpt lat="48.50804" lon="-1.97616">
        <ele>-1000</ele>
        <time>2005-05-19T14:15:34Z</time>
      </trkpt>
      <trkpt lat="48.50718" lon="-1.9757">
        <ele>-1000</ele>
        <time>2005-05-19T14:15:34Z</time>
      </trkpt>
      <trkpt lat="48.5066" lon="-1.97512">
        <ele>-1000</ele>
        <time>2005-05-19T14:15:34Z</time>
      </trkpt>
      <trkpt lat="48.5063" lon="-1.97405">
        <ele>-1000</ele>
        <time>2005-05-19T14:15:34Z</time>
      </trkpt>
      <trkpt lat="48.50607" lon="-1.97303">
        <ele>-1000</ele>
        <time>2005-05-19T14:15:34Z</time>
      </trkpt>
      <trkpt lat="48.50518" lon="-1.97324">
        <ele>-1000</ele>
        <time>2005-05-19T14:15:34Z</time>
      </trkpt>
      <trkpt lat="48.50426" lon="-1.97353">
        <ele>-1000</ele>
        <time>2005-05-19T14:15:34Z</time>
      </trkpt>
      <trkpt lat="48.50335" lon="-1.97396">
        <ele>-1000</ele>
        <time>2005-05-19T14:15:34Z</time>
      </trkpt>
      <trkpt lat="48.5029" lon="-1.97438">
        <ele>-1000</ele>
        <time>2005-05-19T14:15:34Z</time>
      </trkpt>
      <trkpt lat="48.50261" lon="-1.97508">
        <ele>-1000</ele>
        <time>2005-05-19T14:15:34Z</time>
      </trkpt>
      <trkpt lat="48.50196" lon="-1.97548">
        <ele>-1000</ele>
        <time>2005-05-19T14:15:34Z</time>
      </trkpt>
      <trkpt lat="48.50163" lon="-1.97617">
        <ele>-1000</ele>
        <time>2005-05-19T14:15:34Z</time>
      </trkpt>
      <trkpt lat="48.50111" lon="-1.97659">
        <ele>-1000</ele>
        <time>2005-05-19T14:15:34Z</time>
      </trkpt>
      <trkpt lat="48.50105" lon="-1.97702">
        <ele>-1000</ele>
        <time>2005-05-19T14:15:34Z</time>
      </trkpt>
      <trkpt lat="48.50053" lon="-1.97691">
        <ele>-1000</ele>
        <time>2005-05-19T14:15:34Z</time>
      </trkpt>
      <trkpt lat="48.50014" lon="-1.97769">
        <ele>-1000</ele>
        <time>2005-05-19T14:15:34Z</time>
      </trkpt>
      <trkpt lat="48.49996" lon="-1.97818">
        <ele>-1000</ele>
        <time>2005-05-19T14:15:34Z</time>
      </trkpt>
      <trkpt lat="48.49968" lon="-1.97865">
        <ele>-1000</ele>
        <time>2005-05-19T14:15:34Z</time>
      </trkpt>
      <trkpt lat="48.49937" lon="-1.97941">
        <ele>-1000</ele>
        <time>2005-05-19T14:15:34Z</time>
      </trkpt>
      <trkpt lat="48.49897" lon="-1.9792">
        <ele>-1000</ele>
        <time>2005-05-19T14:15:34Z</time>
      </trkpt>
      <trkpt lat="48.4989" lon="-1.97855">
        <ele>-1000</ele>
        <time>2005-05-19T14:15:34Z</time>
      </trkpt>
      <trkpt lat="48.49875" lon="-1.97744">
        <ele>-1000</ele>
        <time>2005-05-19T14:15:34Z</time>
      </trkpt>
      <trkpt lat="48.49899" lon="-1.97681">
        <ele>-1000</ele>
        <time>2005-05-19T14:15:34Z</time>
      </trkpt>
      <trkpt lat="48.49938" lon="-1.9766">
        <ele>-1000</ele>
        <time>2005-05-19T14:15:34Z</time>
      </trkpt>
      <trkpt lat="48.49925" lon="-1.97611">
        <ele>-1000</ele>
        <time>2005-05-19T14:15:34Z</time>
      </trkpt>
      <trkpt lat="48.49886" lon="-1.97588">
        <ele>-1000</ele>
        <time>2005-05-19T14:15:34Z</time>
      </trkpt>
      <trkpt lat="48.49839" lon="-1.97562">
        <ele>-1000</ele>
        <time>2005-05-19T14:15:34Z</time>
      </trkpt>
      <trkpt lat="48.49787" lon="-1.97539">
        <ele>-1000</ele>
        <time>2005-05-19T14:15:34Z</time>
      </trkpt>
      <trkpt lat="48.49769" lon="-1.97577">
        <ele>-1000</ele>
        <time>2005-05-19T14:15:34Z</time>
      </trkpt>
      <trkpt lat="48.49817" lon="-1.97624">
        <ele>-1000</ele>
        <time>2005-05-19T14:15:34Z</time>
      </trkpt>
      <trkpt lat="48.49821" lon="-1.97722">
        <ele>-1000</ele>
        <time>2005-05-19T14:15:34Z</time>
      </trkpt>
      <trkpt lat="48.49813" lon="-1.97811">
        <ele>-1000</ele>
        <time>2005-05-19T14:15:34Z</time>
      </trkpt>
      <trkpt lat="48.49828" lon="-1.97941">
        <ele>-1000</ele>
        <time>2005-05-19T14:15:34Z</time>
      </trkpt>
      <trkpt lat="48.49841" lon="-1.98011">
        <ele>-1000</ele>
        <time>2005-05-19T14:15:34Z</time>
      </trkpt>
      <trkpt lat="48.49806" lon="-1.97993">
        <ele>-1000</ele>
        <time>2005-05-19T14:15:34Z</time>
      </trkpt>
      <trkpt lat="48.49753" lon="-1.97995">
        <ele>-1000</ele>
        <time>2005-05-19T14:15:34Z</time>
      </trkpt>
      <trkpt lat="48.49691" lon="-1.9799">
        <ele>-1000</ele>
        <time>2005-05-19T14:15:34Z</time>
      </trkpt>
      <trkpt lat="48.49643" lon="-1.97973">
        <ele>-1000</ele>
        <time>2005-05-19T14:15:34Z</time>
      </trkpt>
      <trkpt lat="48.49571" lon="-1.9799">
        <ele>-1000</ele>
        <time>2005-05-19T14:15:34Z</time>
      </trkpt>
      <trkpt lat="48.4954" lon="-1.98022">
        <ele>-1000</ele>
        <time>2005-05-19T14:15:34Z</time>
      </trkpt>
      <trkpt lat="48.49522" lon="-1.97912">
        <ele>-1000</ele>
        <time>2005-05-19T14:15:34Z</time>
      </trkpt>
      <trkpt lat="48.49597" lon="-1.97882">
        <ele>-1000</ele>
        <time>2005-05-19T14:15:34Z</time>
      </trkpt>
      <trkpt lat="48.49554" lon="-1.97678">
        <ele>-1000</ele>
        <time>2005-05-19T14:15:34Z</time>
      </trkpt>
      <trkpt lat="48.49445" lon="-1.97748">
        <ele>-1000</ele>
        <time>2005-05-19T14:15:34Z</time>
      </trkpt>
      <trkpt lat="48.49368" lon="-1.97965">
        <ele>-1000</ele>
        <time>2005-05-19T14:15:34Z</time>
      </trkpt>
      <trkpt lat="48.49332" lon="-1.98042">
        <ele>-1000</ele>
        <time>2005-05-19T14:15:34Z</time>
      </trkpt>
      <trkpt lat="48.49318" lon="-1.98077">
        <ele>-1000</ele>
        <time>2005-05-19T14:15:34Z</time>
      </trkpt>
      <trkpt lat="48.49309" lon="-1.98133">
        <ele>-1000</ele>
        <time>2005-05-19T14:15:34Z</time>
      </trkpt>
      <trkpt lat="48.49346" lon="-1.98214">
        <ele>-1000</ele>
        <time>2005-05-19T14:15:34Z</time>
      </trkpt>
      <trkpt lat="48.49356" lon="-1.98277">
        <ele>-1000</ele>
        <time>2005-05-19T14:15:34Z</time>
      </trkpt>
      <trkpt lat="48.4939" lon="-1.98344">
        <ele>-1000</ele>
        <time>2005-05-19T14:15:34Z</time>
      </trkpt>
      <trkpt lat="48.49429" lon="-1.98387">
        <ele>-1000</ele>
        <time>2005-05-19T14:15:34Z</time>
      </trkpt>
      <trkpt lat="48.49472" lon="-1.98441">
        <ele>-1000</ele>
        <time>2005-05-19T14:15:34Z</time>
      </trkpt>
      <trkpt lat="48.49524" lon="-1.98467">
        <ele>-1000</ele>
        <time>2005-05-19T14:15:34Z</time>
      </trkpt>
      <trkpt lat="48.49575" lon="-1.98489">
        <ele>-1000</ele>
        <time>2005-05-19T14:15:34Z</time>
      </trkpt>
      <trkpt lat="48.49632" lon="-1.98515">
        <ele>-1000</ele>
        <time>2005-05-19T14:15:34Z</time>
      </trkpt>
      <trkpt lat="48.49678" lon="-1.98543">
        <ele>-1000</ele>
        <time>2005-05-19T14:15:34Z</time>
      </trkpt>
      <trkpt lat="48.49705" lon="-1.98589">
        <ele>-1000</ele>
        <time>2005-05-19T14:15:34Z</time>
      </trkpt>
      <trkpt lat="48.49695" lon="-1.98664">
        <ele>-1000</ele>
        <time>2005-05-19T14:15:34Z</time>
      </trkpt>
      <trkpt lat="48.49678" lon="-1.98749">
        <ele>-1000</ele>
        <time>2005-05-19T14:15:34Z</time>
      </trkpt>
      <trkpt lat="48.49668" lon="-1.98823">
        <ele>-1000</ele>
        <time>2005-05-19T14:15:34Z</time>
      </trkpt>
      <trkpt lat="48.49663" lon="-1.98916">
        <ele>-1000</ele>
        <time>2005-05-19T14:15:34Z</time>
      </trkpt>
      <trkpt lat="48.49671" lon="-1.99003">
        <ele>-1000</ele>
        <time>2005-05-19T14:15:34Z</time>
      </trkpt>
      <trkpt lat="48.49687" lon="-1.99087">
        <ele>-1000</ele>
        <time>2005-05-19T14:15:34Z</time>
      </trkpt>
      <trkpt lat="48.49703" lon="-1.99171">
        <ele>-1000</ele>
        <time>2005-05-19T14:15:34Z</time>
      </trkpt>
      <trkpt lat="48.49695" lon="-1.99267">
        <ele>-1000</ele>
        <time>2005-05-19T14:15:34Z</time>
      </trkpt>
      <trkpt lat="48.49678" lon="-1.99323">
        <ele>-1000</ele>
        <time>2005-05-19T14:15:34Z</time>
      </trkpt>
      <trkpt lat="48.49617" lon="-1.99325">
        <ele>-1000</ele>
        <time>2005-05-19T14:15:34Z</time>
      </trkpt>
      <trkpt lat="48.49543" lon="-1.99291">
        <ele>-1000</ele>
        <time>2005-05-19T14:15:34Z</time>
      </trkpt>
      <trkpt lat="48.49535" lon="-1.99242">
        <ele>-1000</ele>
        <time>2005-05-19T14:15:34Z</time>
      </trkpt>
      <trkpt lat="48.49533" lon="-1.99199">
        <ele>-1000</ele>
        <time>2005-05-19T14:15:34Z</time>
      </trkpt>
      <trkpt lat="48.49443" lon="-1.99213">
        <ele>-1000</ele>
        <time>2005-05-19T14:15:34Z</time>
      </trkpt>
      <trkpt lat="48.49395" lon="-1.99235">
        <ele>-1000</ele>
        <time>2005-05-19T14:15:34Z</time>
      </trkpt>
      <trkpt lat="48.49352" lon="-1.99292">
        <ele>-1000</ele>
        <time>2005-05-19T14:15:34Z</time>
      </trkpt>
      <trkpt lat="48.49299" lon="-1.99338">
        <ele>-1000</ele>
        <time>2005-05-19T14:15:34Z</time>
      </trkpt>
      <trkpt lat="48.49269" lon="-1.99418">
        <ele>-1000</ele>
        <time>2005-05-19T14:15:34Z</time>
      </trkpt>
      <trkpt lat="48.49229" lon="-1.99382">
        <ele>-1000</ele>
        <time>2005-05-19T14:15:34Z</time>
      </trkpt>
      <trkpt lat="48.49168" lon="-1.9936">
        <ele>-1000</ele>
        <time>2005-05-19T14:15:34Z</time>
      </trkpt>
      <trkpt lat="48.49132" lon="-1.99307">
        <ele>-1000</ele>
        <time>2005-05-19T14:15:34Z</time>
      </trkpt>
      <trkpt lat="48.49082" lon="-1.99263">
        <ele>-1000</ele>
        <time>2005-05-19T14:15:34Z</time>
      </trkpt>
      <trkpt lat="48.49055" lon="-1.99207">
        <ele>-1000</ele>
        <time>2005-05-19T14:15:34Z</time>
      </trkpt>
      <trkpt lat="48.49023" lon="-1.99236">
        <ele>-1000</ele>
        <time>2005-05-19T14:15:34Z</time>
      </trkpt>
      <trkpt lat="48.49044" lon="-1.99297">
        <ele>-1000</ele>
        <time>2005-05-19T14:15:34Z</time>
      </trkpt>
      <trkpt lat="48.49106" lon="-1.99334">
        <ele>-1000</ele>
        <time>2005-05-19T14:15:34Z</time>
      </trkpt>
      <trkpt lat="48.49165" lon="-1.99396">
        <ele>-1000</ele>
        <time>2005-05-19T14:15:34Z</time>
      </trkpt>
      <trkpt lat="48.49218" lon="-1.99476">
        <ele>-1000</ele>
        <time>2005-05-19T14:15:34Z</time>
      </trkpt>
      <trkpt lat="48.49274" lon="-1.99531">
        <ele>-1000</ele>
        <time>2005-05-19T14:15:34Z</time>
      </trkpt>
      <trkpt lat="48.49257" lon="-1.99623">
        <ele>-1000</ele>
        <time>2005-05-19T14:15:34Z</time>
      </trkpt>
      <trkpt lat="48.49231" lon="-1.99714">
        <ele>-1000</ele>
        <time>2005-05-19T14:15:34Z</time>
      </trkpt>
      <trkpt lat="48.49205" lon="-1.99806">
        <ele>-1000</ele>
        <time>2005-05-19T14:15:34Z</time>
      </trkpt>
      <trkpt lat="48.49204" lon="-1.99884">
        <ele>-1000</ele>
        <time>2005-05-19T14:15:34Z</time>
      </trkpt>
      <trkpt lat="48.49211" lon="-1.99971">
        <ele>-1000</ele>
        <time>2005-05-19T14:15:34Z</time>
      </trkpt>
      <trkpt lat="48.49183" lon="-2.00015">
        <ele>-1000</ele>
        <time>2005-05-19T14:15:34Z</time>
      </trkpt>
      <trkpt lat="48.49101" lon="-2.00048">
        <ele>-1000</ele>
        <time>2005-05-19T14:15:34Z</time>
      </trkpt>
      <trkpt lat="48.49056" lon="-2.00091">
        <ele>-1000</ele>
        <time>2005-05-19T14:15:34Z</time>
      </trkpt>
      <trkpt lat="48.49009" lon="-2.00077">
        <ele>-1000</ele>
        <time>2005-05-19T14:15:34Z</time>
      </trkpt>
      <trkpt lat="48.4894" lon="-2.00049">
        <ele>-1000</ele>
        <time>2005-05-19T14:15:34Z</time>
      </trkpt>
      <trkpt lat="48.48852" lon="-1.99988">
        <ele>-1000</ele>
        <time>2005-05-19T14:15:34Z</time>
      </trkpt>
      <trkpt lat="48.48894" lon="-1.99876">
        <ele>-1000</ele>
        <time>2005-05-19T14:15:34Z</time>
      </trkpt>
      <trkpt lat="48.48909" lon="-1.99744">
        <ele>-1000</ele>
        <time>2005-05-19T14:15:34Z</time>
      </trkpt>
      <trkpt lat="48.48879" lon="-1.99631">
        <ele>-1000</ele>
        <time>2005-05-19T14:15:34Z</time>
      </trkpt>
      <trkpt lat="48.48884" lon="-1.9957">
        <ele>-1000</ele>
        <time>2005-05-19T14:15:34Z</time>
      </trkpt>
      <trkpt lat="48.48813" lon="-1.99608">
        <ele>-1000</ele>
        <time>2005-05-19T14:15:34Z</time>
      </trkpt>
      <trkpt lat="48.48702" lon="-1.99634">
        <ele>-1000</ele>
        <time>2005-05-19T14:15:34Z</time>
      </trkpt>
      <trkpt lat="48.4862" lon="-1.99609">
        <ele>-1000</ele>
        <time>2005-05-19T14:15:34Z</time>
      </trkpt>
      <trkpt lat="48.48507" lon="-1.99543">
        <ele>-1000</ele>
        <time>2005-05-19T14:15:34Z</time>
      </trkpt>
      <trkpt lat="48.48455" lon="-1.99448">
        <ele>-1000</ele>
        <time>2005-05-19T14:15:34Z</time>
      </trkpt>
      <trkpt lat="48.48333" lon="-1.9941">
        <ele>-1000</ele>
        <time>2005-05-19T14:15:34Z</time>
      </trkpt>
      <trkpt lat="48.48312" lon="-1.99462">
        <ele>-1000</ele>
        <time>2005-05-19T14:15:34Z</time>
      </trkpt>
      <trkpt lat="48.48291" lon="-1.99525">
        <ele>-1000</ele>
        <time>2005-05-19T14:15:34Z</time>
      </trkpt>
      <trkpt lat="48.48276" lon="-1.99533">
        <ele>-1000</ele>
        <time>2005-05-19T14:15:34Z</time>
      </trkpt>
      <trkpt lat="48.4826" lon="-1.99585">
        <ele>-1000</ele>
        <time>2005-05-19T14:15:34Z</time>
      </trkpt>
      <trkpt lat="48.48239" lon="-1.99643">
        <ele>-1000</ele>
        <time>2005-05-19T14:15:34Z</time>
      </trkpt>
      <trkpt lat="48.48198" lon="-1.99692">
        <ele>-1000</ele>
        <time>2005-05-19T14:15:34Z</time>
      </trkpt>
      <trkpt lat="48.48162" lon="-1.99639">
        <ele>-1000</ele>
        <time>2005-05-19T14:15:34Z</time>
      </trkpt>
      <trkpt lat="48.48124" lon="-1.997">
        <ele>-1000</ele>
        <time>2005-05-19T14:15:34Z</time>
      </trkpt>
      <trkpt lat="48.48083" lon="-1.99795">
        <ele>-1000</ele>
        <time>2005-05-19T14:15:34Z</time>
      </trkpt>
      <trkpt lat="48.48131" lon="-1.99868">
        <ele>-1000</ele>
        <time>2005-05-19T14:15:34Z</time>
      </trkpt>
      <trkpt lat="48.48129" lon="-1.99987">
        <ele>-1000</ele>
        <time>2005-05-19T14:15:34Z</time>
      </trkpt>
      <trkpt lat="48.48066" lon="-2.00012">
        <ele>-1000</ele>
        <time>2005-05-19T14:15:34Z</time>
      </trkpt>
      <trkpt lat="48.48034" lon="-2.00044">
        <ele>-1000</ele>
        <time>2005-05-19T14:15:34Z</time>
      </trkpt>
      <trkpt lat="48.47986" lon="-2.00081">
        <ele>-1000</ele>
        <time>2005-05-19T14:15:34Z</time>
      </trkpt>
      <trkpt lat="48.47931" lon="-2.00095">
        <ele>-1000</ele>
        <time>2005-05-19T14:15:34Z</time>
      </trkpt>
      <trkpt lat="48.47889" lon="-2.00057">
        <ele>-1000</ele>
        <time>2005-05-19T14:15:34Z</time>
      </trkpt>
      <trkpt lat="48.47839" lon="-2.00038">
        <ele>-1000</ele>
        <time>2005-05-19T14:15:34Z</time>
      </trkpt>
      <trkpt lat="48.47799" lon="-2.00008">
        <ele>-1000</ele>
        <time>2005-05-19T14:15:34Z</time>
      </trkpt>
      <trkpt lat="48.47774" lon="-1.99973">
        <ele>-1000</ele>
        <time>2005-05-19T14:15:34Z</time>
      </trkpt>
      <trkpt lat="48.47743" lon="-1.99951">
        <ele>-1000</ele>
        <time>2005-05-19T14:15:34Z</time>
      </trkpt>
      <trkpt lat="48.47732" lon="-2">
        <ele>-1000</ele>
        <time>2005-05-19T14:15:34Z</time>
      </trkpt>
      <trkpt lat="48.47677" lon="-2.00021">
        <ele>-1000</ele>
        <time>2005-05-19T14:15:34Z</time>
      </trkpt>
      <trkpt lat="48.47629" lon="-2.00035">
        <ele>-1000</ele>
        <time>2005-05-19T14:15:34Z</time>
      </trkpt>
      <trkpt lat="48.47574" lon="-2.00052">
        <ele>-1000</ele>
        <time>2005-05-19T14:15:34Z</time>
      </trkpt>
      <trkpt lat="48.47532" lon="-2.00053">
        <ele>-1000</ele>
        <time>2005-05-19T14:15:34Z</time>
      </trkpt>
      <trkpt lat="48.47465" lon="-2.00053">
        <ele>-1000</ele>
        <time>2005-05-19T14:15:34Z</time>
      </trkpt>
      <trkpt lat="48.47442" lon="-2.00102">
        <ele>-1000</ele>
        <time>2005-05-19T14:15:34Z</time>
      </trkpt>
      <trkpt lat="48.4736" lon="-2.00088">
        <ele>-1000</ele>
        <time>2005-05-19T14:15:34Z</time>
      </trkpt>
      <trkpt lat="48.47343" lon="-2.00134">
        <ele>-1000</ele>
        <time>2005-05-19T14:15:34Z</time>
      </trkpt>
      <trkpt lat="48.47317" lon="-2.00159">
        <ele>-1000</ele>
        <time>2005-05-19T14:15:34Z</time>
      </trkpt>
      <trkpt lat="48.47303" lon="-2.00189">
        <ele>-1000</ele>
        <time>2005-05-19T14:15:34Z</time>
      </trkpt>
      <trkpt lat="48.47278" lon="-2.00222">
        <ele>-1000</ele>
        <time>2005-05-19T14:15:34Z</time>
      </trkpt>
      <trkpt lat="48.47247" lon="-2.00239">
        <ele>-1000</ele>
        <time>2005-05-19T14:15:34Z</time>
      </trkpt>
      <trkpt lat="48.47212" lon="-2.00304">
        <ele>-1000</ele>
        <time>2005-05-19T14:15:34Z</time>
      </trkpt>
      <trkpt lat="48.47183" lon="-2.0037">
        <ele>-1000</ele>
        <time>2005-05-19T14:15:34Z</time>
      </trkpt>
      <trkpt lat="48.4716" lon="-2.00447">
        <ele>-1000</ele>
        <time>2005-05-19T14:15:34Z</time>
      </trkpt>
      <trkpt lat="48.47128" lon="-2.00502">
        <ele>-1000</ele>
        <time>2005-05-19T14:15:34Z</time>
      </trkpt>
      <trkpt lat="48.47089" lon="-2.00563">
        <ele>-1000</ele>
        <time>2005-05-19T14:15:34Z</time>
      </trkpt>
      <trkpt lat="48.47045" lon="-2.00649">
        <ele>-1000</ele>
        <time>2005-05-19T14:15:34Z</time>
      </trkpt>
      <trkpt lat="48.4702" lon="-2.00734">
        <ele>-1000</ele>
        <time>2005-05-19T14:15:34Z</time>
      </trkpt>
      <trkpt lat="48.46999" lon="-2.00817">
        <ele>-1000</ele>
        <time>2005-05-19T14:15:34Z</time>
      </trkpt>
      <trkpt lat="48.46992" lon="-2.00928">
        <ele>-1000</ele>
        <time>2005-05-19T14:15:34Z</time>
      </trkpt>
      <trkpt lat="48.46973" lon="-2.00981">
        <ele>-1000</ele>
        <time>2005-05-19T14:15:34Z</time>
      </trkpt>
      <trkpt lat="48.46965" lon="-2.01083">
        <ele>-1000</ele>
        <time>2005-05-19T14:15:34Z</time>
      </trkpt>
      <trkpt lat="48.46948" lon="-2.01125">
        <ele>-1000</ele>
        <time>2005-05-19T14:15:34Z</time>
      </trkpt>
      <trkpt lat="48.46936" lon="-2.01223">
        <ele>-1000</ele>
        <time>2005-05-19T14:15:34Z</time>
      </trkpt>
      <trkpt lat="48.4697" lon="-2.0123">
        <ele>-1000</ele>
        <time>2005-05-19T14:15:34Z</time>
      </trkpt>
      <trkpt lat="48.46972" lon="-2.01321">
        <ele>-1000</ele>
        <time>2005-05-19T14:15:34Z</time>
      </trkpt>
      <trkpt lat="48.46949" lon="-2.01429">
        <ele>-1000</ele>
        <time>2005-05-19T14:15:34Z</time>
      </trkpt>
      <trkpt lat="48.46944" lon="-2.0155">
        <ele>-1000</ele>
        <time>2005-05-19T14:15:34Z</time>
      </trkpt>
      <trkpt lat="48.46931" lon="-2.0165">
        <ele>-1000</ele>
        <time>2005-05-19T14:15:34Z</time>
      </trkpt>
      <trkpt lat="48.46924" lon="-2.01762">
        <ele>-1000</ele>
        <time>2005-05-19T14:15:34Z</time>
      </trkpt>
      <trkpt lat="48.46906" lon="-2.01875">
        <ele>-1000</ele>
        <time>2005-05-19T14:15:34Z</time>
      </trkpt>
      <trkpt lat="48.46878" lon="-2.01937">
        <ele>-1000</ele>
        <time>2005-05-19T14:15:34Z</time>
      </trkpt>
      <trkpt lat="48.46853" lon="-2.01985">
        <ele>-1000</ele>
        <time>2005-05-19T14:15:34Z</time>
      </trkpt>
      <trkpt lat="48.46784" lon="-2.02008">
        <ele>-1000</ele>
        <time>2005-05-19T14:15:34Z</time>
      </trkpt>
      <trkpt lat="48.46743" lon="-2.02063">
        <ele>-1000</ele>
        <time>2005-05-19T14:15:34Z</time>
      </trkpt>
      <trkpt lat="48.46685" lon="-2.02077">
        <ele>-1000</ele>
        <time>2005-05-19T14:15:34Z</time>
      </trkpt>
      <trkpt lat="48.46653" lon="-2.02028">
        <ele>-1000</ele>
        <time>2005-05-19T14:15:34Z</time>
      </trkpt>
      <trkpt lat="48.46606" lon="-2.02001">
        <ele>-1000</ele>
        <time>2005-05-19T14:15:34Z</time>
      </trkpt>
      <trkpt lat="48.46544" lon="-2.02034">
        <ele>-1000</ele>
        <time>2005-05-19T14:15:34Z</time>
      </trkpt>
      <trkpt lat="48.46479" lon="-2.02053">
        <ele>-1000</ele>
        <time>2005-05-19T14:15:34Z</time>
      </trkpt>
      <trkpt lat="48.46426" lon="-2.02047">
        <ele>-1000</ele>
        <time>2005-05-19T14:15:34Z</time>
      </trkpt>
      <trkpt lat="48.46364" lon="-2.02023">
        <ele>-1000</ele>
        <time>2005-05-19T14:15:34Z</time>
      </trkpt>
      <trkpt lat="48.46277" lon="-2.0199">
        <ele>-1000</ele>
        <time>2005-05-19T14:15:34Z</time>
      </trkpt>
      <trkpt lat="48.46279" lon="-2.02019">
        <ele>-1000</ele>
        <time>2005-05-19T14:15:34Z</time>
      </trkpt>
      <trkpt lat="48.46303" lon="-2.02058">
        <ele>-1000</ele>
        <time>2005-05-19T14:15:34Z</time>
      </trkpt>
      <trkpt lat="48.46288" lon="-2.02115">
        <ele>-1000</ele>
        <time>2005-05-19T14:15:34Z</time>
      </trkpt>
      <trkpt lat="48.4629" lon="-2.02167">
        <ele>-1000</ele>
        <time>2005-05-19T14:15:34Z</time>
      </trkpt>
      <trkpt lat="48.46312" lon="-2.02191">
        <ele>-1000</ele>
        <time>2005-05-19T14:15:34Z</time>
      </trkpt>
      <trkpt lat="48.46331" lon="-2.02227">
        <ele>-1000</ele>
        <time>2005-05-19T14:15:34Z</time>
      </trkpt>
      <trkpt lat="48.4635" lon="-2.02275">
        <ele>-1000</ele>
        <time>2005-05-19T14:15:34Z</time>
      </trkpt>
      <trkpt lat="48.46368" lon="-2.02321">
        <ele>-1000</ele>
        <time>2005-05-19T14:15:34Z</time>
      </trkpt>
      <trkpt lat="48.46365" lon="-2.02383">
        <ele>-1000</ele>
        <time>2005-05-19T14:15:34Z</time>
      </trkpt>
      <trkpt lat="48.46375" lon="-2.0244">
        <ele>-1000</ele>
        <time>2005-05-19T14:15:34Z</time>
      </trkpt>
      <trkpt lat="48.46391" lon="-2.02519">
        <ele>-1000</ele>
        <time>2005-05-19T14:15:34Z</time>
      </trkpt>
      <trkpt lat="48.46407" lon="-2.02572">
        <ele>-1000</ele>
        <time>2005-05-19T14:15:34Z</time>
      </trkpt>
      <trkpt lat="48.46425" lon="-2.02636">
        <ele>-1000</ele>
        <time>2005-05-19T14:15:34Z</time>
      </trkpt>
      <trkpt lat="48.4644" lon="-2.02662">
        <ele>-1000</ele>
        <time>2005-05-19T14:15:34Z</time>
      </trkpt>
      <trkpt lat="48.46413" lon="-2.02688">
        <ele>-1000</ele>
        <time>2005-05-19T14:15:34Z</time>
      </trkpt>
      <trkpt lat="48.46381" lon="-2.02708">
        <ele>-1000</ele>
        <time>2005-05-19T14:15:34Z</time>
      </trkpt>
      <trkpt lat="48.46353" lon="-2.0273">
        <ele>-1000</ele>
        <time>2005-05-19T14:15:34Z</time>
      </trkpt>
      <trkpt lat="48.46328" lon="-2.02771">
        <ele>-1000</ele>
        <time>2005-05-19T14:15:34Z</time>
      </trkpt>
      <trkpt lat="48.46283" lon="-2.02805">
        <ele>-1000</ele>
        <time>2005-05-19T14:15:34Z</time>
      </trkpt>
      <trkpt lat="48.46253" lon="-2.02834">
        <ele>-1000</ele>
        <time>2005-05-19T14:15:34Z</time>
      </trkpt>
      <trkpt lat="48.46219" lon="-2.02857">
        <ele>-1000</ele>
        <time>2005-05-19T14:15:34Z</time>
      </trkpt>
      <trkpt lat="48.46155" lon="-2.02902">
        <ele>-1000</ele>
        <time>2005-05-19T14:15:34Z</time>
      </trkpt>
      <trkpt lat="48.46137" lon="-2.02967">
        <ele>-1000</ele>
        <time>2005-05-19T14:15:34Z</time>
      </trkpt>
      <trkpt lat="48.46128" lon="-2.03044">
        <ele>-1000</ele>
        <time>2005-05-19T14:15:34Z</time>
      </trkpt>
      <trkpt lat="48.46111" lon="-2.03136">
        <ele>-1000</ele>
        <time>2005-05-19T14:15:34Z</time>
      </trkpt>
      <trkpt lat="48.46103" lon="-2.03221">
        <ele>-1000</ele>
        <time>2005-05-19T14:15:34Z</time>
      </trkpt>
      <trkpt lat="48.46088" lon="-2.03279">
        <ele>-1000</ele>
        <time>2005-05-19T14:15:34Z</time>
      </trkpt>
      <trkpt lat="48.46026" lon="-2.034">
        <ele>-1000</ele>
        <time>2005-05-19T14:15:34Z</time>
      </trkpt>
      <trkpt lat="48.45942" lon="-2.035">
        <ele>-1000</ele>
        <time>2005-05-19T14:15:34Z</time>
      </trkpt>
      <trkpt lat="48.45876" lon="-2.03601">
        <ele>-1000</ele>
        <time>2005-05-19T14:15:34Z</time>
      </trkpt>
      <trkpt lat="48.45805" lon="-2.03658">
        <ele>-1000</ele>
        <time>2005-05-19T14:15:34Z</time>
      </trkpt>
      <trkpt lat="48.45758" lon="-2.03692">
        <ele>-1000</ele>
        <time>2005-05-19T14:15:34Z</time>
      </trkpt>
      <trkpt lat="48.45699" lon="-2.03722">
        <ele>-1000</ele>
        <time>2005-05-19T14:15:34Z</time>
      </trkpt>
      <trkpt lat="48.45644" lon="-2.03739">
        <ele>-1000</ele>
        <time>2005-05-19T14:15:34Z</time>
      </trkpt>
      <trkpt lat="48.45587" lon="-2.03765">
        <ele>-1000</ele>
        <time>2005-05-19T14:15:34Z</time>
      </trkpt>
      <trkpt lat="48.45631" lon="-2.03837">
        <ele>-1000</ele>
        <time>2005-05-19T14:15:34Z</time>
      </trkpt>
    </trkseg>
  </trk>
  <trk>
    <name><![CDATA[fusion]]></name>
    <trkseg>
      <trkpt lat="48.63147" lon="-2.44033">
        <ele>-1000</ele>
        <time>2007-05-14T14:08:43Z</time>
      </trkpt>
      <trkpt lat="48.63109" lon="-2.44305">
        <ele>-1000</ele>
        <time>2007-05-14T14:08:43Z</time>
      </trkpt>
      <trkpt lat="48.63083" lon="-2.44528">
        <ele>-1000</ele>
        <time>2007-05-14T14:08:43Z</time>
      </trkpt>
      <trkpt lat="48.6313" lon="-2.44534">
        <ele>-1000</ele>
        <time>2007-05-14T14:08:43Z</time>
      </trkpt>
      <trkpt lat="48.63204" lon="-2.44489">
        <ele>-1000</ele>
        <time>2007-05-14T14:08:43Z</time>
      </trkpt>
      <trkpt lat="48.63322" lon="-2.44561">
        <ele>-1000</ele>
        <time>2007-05-14T14:08:43Z</time>
      </trkpt>
      <trkpt lat="48.63408" lon="-2.44664">
        <ele>-1000</ele>
        <time>2007-05-14T14:08:43Z</time>
      </trkpt>
      <trkpt lat="48.63492" lon="-2.44654">
        <ele>-1000</ele>
        <time>2007-05-14T14:08:43Z</time>
      </trkpt>
      <trkpt lat="48.63517" lon="-2.44632">
        <ele>-1000</ele>
        <time>2007-05-14T14:08:43Z</time>
      </trkpt>
      <trkpt lat="48.63527" lon="-2.44568">
        <ele>-1000</ele>
        <time>2007-05-14T14:08:43Z</time>
      </trkpt>
      <trkpt lat="48.63552" lon="-2.44548">
        <ele>-1000</ele>
        <time>2007-05-14T14:08:43Z</time>
      </trkpt>
      <trkpt lat="48.63672" lon="-2.44597">
        <ele>-1000</ele>
        <time>2007-05-14T14:08:43Z</time>
      </trkpt>
      <trkpt lat="48.63797" lon="-2.44626">
        <ele>-1000</ele>
        <time>2007-05-14T14:08:43Z</time>
      </trkpt>
      <trkpt lat="48.63802" lon="-2.44526">
        <ele>-1000</ele>
        <time>2007-05-14T14:08:43Z</time>
      </trkpt>
      <trkpt lat="48.64211" lon="-2.44546">
        <ele>-1000</ele>
        <time>2007-05-14T14:08:43Z</time>
      </trkpt>
      <trkpt lat="48.64231" lon="-2.43999">
        <ele>-1000</ele>
        <time>2007-05-14T14:08:43Z</time>
      </trkpt>
      <trkpt lat="48.64377" lon="-2.43987">
        <ele>-1000</ele>
        <time>2007-05-14T14:08:43Z</time>
      </trkpt>
      <trkpt lat="48.64433" lon="-2.4395">
        <ele>-1000</ele>
        <time>2007-05-14T14:08:43Z</time>
      </trkpt>
      <trkpt lat="48.64483" lon="-2.43941">
        <ele>-1000</ele>
        <time>2007-05-14T14:08:43Z</time>
      </trkpt>
      <trkpt lat="48.64692" lon="-2.43968">
        <ele>-1000</ele>
        <time>2007-05-14T14:08:43Z</time>
      </trkpt>
      <trkpt lat="48.64726" lon="-2.44">
        <ele>-1000</ele>
        <time>2007-05-14T14:08:43Z</time>
      </trkpt>
      <trkpt lat="48.64749" lon="-2.43981">
        <ele>-1000</ele>
        <time>2007-05-14T14:08:43Z</time>
      </trkpt>
      <trkpt lat="48.64754" lon="-2.4401">
        <ele>-1000</ele>
        <time>2007-05-14T14:08:43Z</time>
      </trkpt>
      <trkpt lat="48.64802" lon="-2.44065">
        <ele>-1000</ele>
        <time>2007-05-14T14:08:43Z</time>
      </trkpt>
      <trkpt lat="48.64889" lon="-2.43979">
        <ele>-1000</ele>
        <time>2007-05-14T14:08:43Z</time>
      </trkpt>
      <trkpt lat="48.64916" lon="-2.43938">
        <ele>-1000</ele>
        <time>2007-05-14T14:08:43Z</time>
      </trkpt>
      <trkpt lat="48.64946" lon="-2.43933">
        <ele>-1000</ele>
        <time>2007-05-14T14:08:43Z</time>
      </trkpt>
      <trkpt lat="48.64965" lon="-2.43909">
        <ele>-1000</ele>
        <time>2007-05-14T14:08:43Z</time>
      </trkpt>
      <trkpt lat="48.64968" lon="-2.43866">
        <ele>-1000</ele>
        <time>2007-05-14T14:08:43Z</time>
      </trkpt>
      <trkpt lat="48.64953" lon="-2.43818">
        <ele>-1000</ele>
        <time>2007-05-14T14:08:43Z</time>
      </trkpt>
      <trkpt lat="48.64948" lon="-2.43781">
        <ele>-1000</ele>
        <time>2007-05-14T14:08:43Z</time>
      </trkpt>
      <trkpt lat="48.64951" lon="-2.4372">
        <ele>-1000</ele>
        <time>2007-05-14T14:08:43Z</time>
      </trkpt>
      <trkpt lat="48.64967" lon="-2.43654">
        <ele>-1000</ele>
        <time>2007-05-14T14:08:43Z</time>
      </trkpt>
      <trkpt lat="48.64935" lon="-2.4349">
        <ele>-1000</ele>
        <time>2007-05-14T14:08:43Z</time>
      </trkpt>
      <trkpt lat="48.64916" lon="-2.43441">
        <ele>-1000</ele>
        <time>2007-05-14T14:08:43Z</time>
      </trkpt>
      <trkpt lat="48.64888" lon="-2.43398">
        <ele>-1000</ele>
        <time>2007-05-14T14:08:43Z</time>
      </trkpt>
      <trkpt lat="48.64848" lon="-2.43361">
        <ele>-1000</ele>
        <time>2007-05-14T14:08:43Z</time>
      </trkpt>
      <trkpt lat="48.64797" lon="-2.43347">
        <ele>-1000</ele>
        <time>2007-05-14T14:08:43Z</time>
      </trkpt>
      <trkpt lat="48.64727" lon="-2.43353">
        <ele>-1000</ele>
        <time>2007-05-14T14:08:43Z</time>
      </trkpt>
      <trkpt lat="48.64668" lon="-2.43413">
        <ele>-1000</ele>
        <time>2007-05-14T14:08:43Z</time>
      </trkpt>
      <trkpt lat="48.64621" lon="-2.43434">
        <ele>-1000</ele>
        <time>2007-05-14T14:08:43Z</time>
      </trkpt>
      <trkpt lat="48.6458" lon="-2.43441">
        <ele>-1000</ele>
        <time>2007-05-14T14:08:43Z</time>
      </trkpt>
      <trkpt lat="48.64602" lon="-2.43385">
        <ele>-1000</ele>
        <time>2007-05-14T14:08:43Z</time>
      </trkpt>
      <trkpt lat="48.64609" lon="-2.43281">
        <ele>-1000</ele>
        <time>2007-05-14T14:08:43Z</time>
      </trkpt>
      <trkpt lat="48.64661" lon="-2.43271">
        <ele>-1000</ele>
        <time>2007-05-14T14:08:43Z</time>
      </trkpt>
      <trkpt lat="48.64694" lon="-2.43233">
        <ele>-1000</ele>
        <time>2007-05-14T14:08:43Z</time>
      </trkpt>
      <trkpt lat="48.64758" lon="-2.43212">
        <ele>-1000</ele>
        <time>2007-05-14T14:08:43Z</time>
      </trkpt>
      <trkpt lat="48.64791" lon="-2.43186">
        <ele>-1000</ele>
        <time>2007-05-14T14:08:43Z</time>
      </trkpt>
      <trkpt lat="48.64793" lon="-2.43151">
        <ele>-1000</ele>
        <time>2007-05-14T14:08:43Z</time>
      </trkpt>
      <trkpt lat="48.64777" lon="-2.43141">
        <ele>-1000</ele>
        <time>2007-05-14T14:08:43Z</time>
      </trkpt>
      <trkpt lat="48.64796" lon="-2.42981">
        <ele>-1000</ele>
        <time>2007-05-14T14:08:43Z</time>
      </trkpt>
      <trkpt lat="48.64793" lon="-2.42958">
        <ele>-1000</ele>
        <time>2007-05-14T14:08:43Z</time>
      </trkpt>
      <trkpt lat="48.64816" lon="-2.42824">
        <ele>-1000</ele>
        <time>2007-05-14T14:08:43Z</time>
      </trkpt>
      <trkpt lat="48.64784" lon="-2.42746">
        <ele>-1000</ele>
        <time>2007-05-14T14:08:43Z</time>
      </trkpt>
      <trkpt lat="48.64629" lon="-2.42163">
        <ele>-1000</ele>
        <time>2007-05-14T14:08:43Z</time>
      </trkpt>
      <trkpt lat="48.64593" lon="-2.42154">
        <ele>-1000</ele>
        <time>2007-05-14T14:08:43Z</time>
      </trkpt>
      <trkpt lat="48.64554" lon="-2.42187">
        <ele>-1000</ele>
        <time>2007-05-14T14:08:43Z</time>
      </trkpt>
      <trkpt lat="48.64525" lon="-2.42227">
        <ele>-1000</ele>
        <time>2007-05-14T14:08:43Z</time>
      </trkpt>
      <trkpt lat="48.64397" lon="-2.42253">
        <ele>-1000</ele>
        <time>2007-05-14T14:08:43Z</time>
      </trkpt>
      <trkpt lat="48.64367" lon="-2.42268">
        <ele>-1000</ele>
        <time>2007-05-14T14:08:43Z</time>
      </trkpt>
      <trkpt lat="48.64236" lon="-2.42393">
        <ele>-1000</ele>
        <time>2007-05-14T14:08:43Z</time>
      </trkpt>
      <trkpt lat="48.64089" lon="-2.42485">
        <ele>-1000</ele>
        <time>2007-05-14T14:08:43Z</time>
      </trkpt>
      <trkpt lat="48.64068" lon="-2.42497">
        <ele>-1000</ele>
        <time>2007-05-14T14:08:43Z</time>
      </trkpt>
      <trkpt lat="48.63941" lon="-2.42618">
        <ele>-1000</ele>
        <time>2007-05-14T14:08:43Z</time>
      </trkpt>
      <trkpt lat="48.63891" lon="-2.42638">
        <ele>-1000</ele>
        <time>2007-05-14T14:08:43Z</time>
      </trkpt>
      <trkpt lat="48.63869" lon="-2.42689">
        <ele>-1000</ele>
        <time>2007-05-14T14:08:43Z</time>
      </trkpt>
      <trkpt lat="48.63825" lon="-2.4274">
        <ele>-1000</ele>
        <time>2007-05-14T14:08:43Z</time>
      </trkpt>
      <trkpt lat="48.63807" lon="-2.42711">
        <ele>-1000</ele>
        <time>2007-05-14T14:08:43Z</time>
      </trkpt>
      <trkpt lat="48.63747" lon="-2.42686">
        <ele>-1000</ele>
        <time>2007-05-14T14:08:43Z</time>
      </trkpt>
      <trkpt lat="48.63676" lon="-2.42712">
        <ele>-1000</ele>
        <time>2007-05-14T14:08:43Z</time>
      </trkpt>
      <trkpt lat="48.63634" lon="-2.42777">
        <ele>-1000</ele>
        <time>2007-05-14T14:08:43Z</time>
      </trkpt>
      <trkpt lat="48.63594" lon="-2.42787">
        <ele>-1000</ele>
        <time>2007-05-14T14:08:43Z</time>
      </trkpt>
      <trkpt lat="48.63532" lon="-2.42768">
        <ele>-1000</ele>
        <time>2007-05-14T14:08:43Z</time>
      </trkpt>
      <trkpt lat="48.635" lon="-2.42763">
        <ele>-1000</ele>
        <time>2007-05-14T14:08:43Z</time>
      </trkpt>
      <trkpt lat="48.63409" lon="-2.42801">
        <ele>-1000</ele>
        <time>2007-05-14T14:08:43Z</time>
      </trkpt>
      <trkpt lat="48.63359" lon="-2.42783">
        <ele>-1000</ele>
        <time>2007-05-14T14:08:43Z</time>
      </trkpt>
      <trkpt lat="48.63327" lon="-2.42715">
        <ele>-1000</ele>
        <time>2007-05-14T14:08:43Z</time>
      </trkpt>
      <trkpt lat="48.63315" lon="-2.42646">
        <ele>-1000</ele>
        <time>2007-05-14T14:08:43Z</time>
      </trkpt>
      <trkpt lat="48.63259" lon="-2.42557">
        <ele>-1000</ele>
        <time>2007-05-14T14:08:43Z</time>
      </trkpt>
      <trkpt lat="48.63247" lon="-2.42482">
        <ele>-1000</ele>
        <time>2007-05-14T14:08:43Z</time>
      </trkpt>
      <trkpt lat="48.63253" lon="-2.42427">
        <ele>-1000</ele>
        <time>2007-05-14T14:08:43Z</time>
      </trkpt>
      <trkpt lat="48.6334" lon="-2.42249">
        <ele>-1000</ele>
        <time>2007-05-14T14:08:43Z</time>
      </trkpt>
      <trkpt lat="48.63362" lon="-2.4218">
        <ele>-1000</ele>
        <time>2007-05-14T14:08:43Z</time>
      </trkpt>
      <trkpt lat="48.63353" lon="-2.42072">
        <ele>-1000</ele>
        <time>2007-05-14T14:08:43Z</time>
      </trkpt>
      <trkpt lat="48.63637" lon="-2.417">
        <ele>-1000</ele>
        <time>2007-05-14T14:08:43Z</time>
      </trkpt>
      <trkpt lat="48.63575" lon="-2.41586">
        <ele>-1000</ele>
        <time>2007-05-14T14:08:43Z</time>
      </trkpt>
      <trkpt lat="48.63492" lon="-2.41331">
        <ele>-1000</ele>
        <time>2007-05-14T14:08:43Z</time>
      </trkpt>
      <trkpt lat="48.63422" lon="-2.41029">
        <ele>-1000</ele>
        <time>2007-05-14T14:08:43Z</time>
      </trkpt>
      <trkpt lat="48.6349" lon="-2.40965">
        <ele>-1000</ele>
        <time>2007-05-14T14:08:43Z</time>
      </trkpt>
      <trkpt lat="48.63505" lon="-2.40893">
        <ele>-1000</ele>
        <time>2007-05-14T14:08:43Z</time>
      </trkpt>
      <trkpt lat="48.63495" lon="-2.40843">
        <ele>-1000</ele>
        <time>2007-05-14T14:08:43Z</time>
      </trkpt>
      <trkpt lat="48.63475" lon="-2.40798">
        <ele>-1000</ele>
        <time>2007-05-14T14:08:43Z</time>
      </trkpt>
      <trkpt lat="48.63471" lon="-2.40724">
        <ele>-1000</ele>
        <time>2007-05-14T14:08:43Z</time>
      </trkpt>
      <trkpt lat="48.63438" lon="-2.40648">
        <ele>-1000</ele>
        <time>2007-05-14T14:08:43Z</time>
      </trkpt>
      <trkpt lat="48.63403" lon="-2.4062">
        <ele>-1000</ele>
        <time>2007-05-14T14:08:43Z</time>
      </trkpt>
      <trkpt lat="48.63371" lon="-2.40559">
        <ele>-1000</ele>
        <time>2007-05-14T14:08:43Z</time>
      </trkpt>
      <trkpt lat="48.63377" lon="-2.40523">
        <ele>-1000</ele>
        <time>2007-05-14T14:08:43Z</time>
      </trkpt>
      <trkpt lat="48.63411" lon="-2.40509">
        <ele>-1000</ele>
        <time>2007-05-14T14:08:43Z</time>
      </trkpt>
      <trkpt lat="48.63555" lon="-2.40695">
        <ele>-1000</ele>
        <time>2007-05-14T14:08:43Z</time>
      </trkpt>
      <trkpt lat="48.63636" lon="-2.4067">
        <ele>-1000</ele>
        <time>2007-05-14T14:08:43Z</time>
      </trkpt>
      <trkpt lat="48.63648" lon="-2.406">
        <ele>-1000</ele>
        <time>2007-05-14T14:08:43Z</time>
      </trkpt>
      <trkpt lat="48.63637" lon="-2.40514">
        <ele>-1000</ele>
        <time>2007-05-14T14:08:43Z</time>
      </trkpt>
      <trkpt lat="48.63673" lon="-2.40442">
        <ele>-1000</ele>
        <time>2007-05-14T14:08:43Z</time>
      </trkpt>
      <trkpt lat="48.63673" lon="-2.40404">
        <ele>-1000</ele>
        <time>2007-05-14T14:08:43Z</time>
      </trkpt>
      <trkpt lat="48.63644" lon="-2.40263">
        <ele>-1000</ele>
        <time>2007-05-14T14:08:43Z</time>
      </trkpt>
      <trkpt lat="48.63585" lon="-2.40176">
        <ele>-1000</ele>
        <time>2007-05-14T14:08:43Z</time>
      </trkpt>
      <trkpt lat="48.63573" lon="-2.40121">
        <ele>-1000</ele>
        <time>2007-05-14T14:08:43Z</time>
      </trkpt>
      <trkpt lat="48.63588" lon="-2.40083">
        <ele>-1000</ele>
        <time>2007-05-14T14:08:43Z</time>
      </trkpt>
      <trkpt lat="48.63614" lon="-2.4006">
        <ele>-1000</ele>
        <time>2007-05-14T14:08:43Z</time>
      </trkpt>
      <trkpt lat="48.63401" lon="-2.39793">
        <ele>-1000</ele>
        <time>2007-05-14T14:08:43Z</time>
      </trkpt>
      <trkpt lat="48.63494" lon="-2.3968">
        <ele>-1000</ele>
        <time>2007-05-14T14:08:43Z</time>
      </trkpt>
      <trkpt lat="48.63545" lon="-2.39607">
        <ele>-1000</ele>
        <time>2007-05-14T14:08:43Z</time>
      </trkpt>
      <trkpt lat="48.63774" lon="-2.39511">
        <ele>-1000</ele>
        <time>2007-05-14T14:08:43Z</time>
      </trkpt>
      <trkpt lat="48.64012" lon="-2.39435">
        <ele>-1000</ele>
        <time>2007-05-14T14:08:43Z</time>
      </trkpt>
      <trkpt lat="48.6401" lon="-2.39412">
        <ele>-1000</ele>
        <time>2007-05-14T14:08:43Z</time>
      </trkpt>
      <trkpt lat="48.64114" lon="-2.39171">
        <ele>-1000</ele>
        <time>2007-05-14T14:08:43Z</time>
      </trkpt>
      <trkpt lat="48.64221" lon="-2.38973">
        <ele>-1000</ele>
        <time>2007-05-14T14:08:43Z</time>
      </trkpt>
      <trkpt lat="48.64285" lon="-2.38873">
        <ele>-1000</ele>
        <time>2007-05-14T14:08:43Z</time>
      </trkpt>
      <trkpt lat="48.64405" lon="-2.38988">
        <ele>-1000</ele>
        <time>2007-05-14T14:08:43Z</time>
      </trkpt>
      <trkpt lat="48.64426" lon="-2.39023">
        <ele>-1000</ele>
        <time>2007-05-14T14:08:43Z</time>
      </trkpt>
      <trkpt lat="48.64432" lon="-2.3909">
        <ele>-1000</ele>
        <time>2007-05-14T14:08:43Z</time>
      </trkpt>
      <trkpt lat="48.64473" lon="-2.3908">
        <ele>-1000</ele>
        <time>2007-05-14T14:08:43Z</time>
      </trkpt>
      <trkpt lat="48.64568" lon="-2.38942">
        <ele>-1000</ele>
        <time>2007-05-14T14:08:43Z</time>
      </trkpt>
      <trkpt lat="48.64677" lon="-2.38713">
        <ele>-1000</ele>
        <time>2007-05-14T14:08:43Z</time>
      </trkpt>
      <trkpt lat="48.64798" lon="-2.38315">
        <ele>-1000</ele>
        <time>2007-05-14T14:08:43Z</time>
      </trkpt>
      <trkpt lat="48.64829" lon="-2.38137">
        <ele>-1000</ele>
        <time>2007-05-14T14:08:43Z</time>
      </trkpt>
      <trkpt lat="48.64802" lon="-2.38095">
        <ele>-1000</ele>
        <time>2007-05-14T14:08:43Z</time>
      </trkpt>
      <trkpt lat="48.64758" lon="-2.3808">
        <ele>-1000</ele>
        <time>2007-05-14T14:08:43Z</time>
      </trkpt>
      <trkpt lat="48.64749" lon="-2.38105">
        <ele>-1000</ele>
        <time>2007-05-14T14:08:43Z</time>
      </trkpt>
      <trkpt lat="48.64684" lon="-2.38024">
        <ele>-1000</ele>
        <time>2007-05-14T14:08:43Z</time>
      </trkpt>
      <trkpt lat="48.64645" lon="-2.37934">
        <ele>-1000</ele>
        <time>2007-05-14T14:08:43Z</time>
      </trkpt>
      <trkpt lat="48.64547" lon="-2.37793">
        <ele>-1000</ele>
        <time>2007-05-14T14:08:43Z</time>
      </trkpt>
      <trkpt lat="48.64496" lon="-2.37664">
        <ele>-1000</ele>
        <time>2007-05-14T14:08:43Z</time>
      </trkpt>
      <trkpt lat="48.64455" lon="-2.3761">
        <ele>-1000</ele>
        <time>2007-05-14T14:08:43Z</time>
      </trkpt>
      <trkpt lat="48.6442" lon="-2.37601">
        <ele>-1000</ele>
        <time>2007-05-14T14:08:43Z</time>
      </trkpt>
      <trkpt lat="48.64395" lon="-2.37619">
        <ele>-1000</ele>
        <time>2007-05-14T14:08:43Z</time>
      </trkpt>
      <trkpt lat="48.64303" lon="-2.37459">
        <ele>-1000</ele>
        <time>2007-05-14T14:08:43Z</time>
      </trkpt>
      <trkpt lat="48.64571" lon="-2.37249">
        <ele>-1000</ele>
        <time>2007-05-14T14:08:43Z</time>
      </trkpt>
      <trkpt lat="48.64735" lon="-2.37363">
        <ele>-1000</ele>
        <time>2007-05-14T14:08:43Z</time>
      </trkpt>
      <trkpt lat="48.64873" lon="-2.37367">
        <ele>-1000</ele>
        <time>2007-05-14T14:08:43Z</time>
      </trkpt>
      <trkpt lat="48.64916" lon="-2.37325">
        <ele>-1000</ele>
        <time>2007-05-14T14:08:43Z</time>
      </trkpt>
      <trkpt lat="48.64948" lon="-2.37325">
        <ele>-1000</ele>
        <time>2007-05-14T14:08:43Z</time>
      </trkpt>
      <trkpt lat="48.65023" lon="-2.37252">
        <ele>-1000</ele>
        <time>2007-05-14T14:08:43Z</time>
      </trkpt>
      <trkpt lat="48.65065" lon="-2.37227">
        <ele>-1000</ele>
        <time>2007-05-14T14:08:43Z</time>
      </trkpt>
      <trkpt lat="48.65109" lon="-2.37231">
        <ele>-1000</ele>
        <time>2007-05-14T14:08:43Z</time>
      </trkpt>
      <trkpt lat="48.65176" lon="-2.37285">
        <ele>-1000</ele>
        <time>2007-05-14T14:08:43Z</time>
      </trkpt>
      <trkpt lat="48.65225" lon="-2.37334">
        <ele>-1000</ele>
        <time>2007-05-14T14:08:43Z</time>
      </trkpt>
      <trkpt lat="48.65258" lon="-2.37303">
        <ele>-1000</ele>
        <time>2007-05-14T14:08:43Z</time>
      </trkpt>
      <trkpt lat="48.65279" lon="-2.37257">
        <ele>-1000</ele>
        <time>2007-05-14T14:08:43Z</time>
      </trkpt>
      <trkpt lat="48.6518" lon="-2.3714">
        <ele>-1000</ele>
        <time>2007-05-14T14:08:43Z</time>
      </trkpt>
      <trkpt lat="48.6517" lon="-2.37101">
        <ele>-1000</ele>
        <time>2007-05-14T14:08:43Z</time>
      </trkpt>
      <trkpt lat="48.65171" lon="-2.37049">
        <ele>-1000</ele>
        <time>2007-05-14T14:08:43Z</time>
      </trkpt>
      <trkpt lat="48.65149" lon="-2.36933">
        <ele>-1000</ele>
        <time>2007-05-14T14:08:43Z</time>
      </trkpt>
      <trkpt lat="48.65112" lon="-2.36836">
        <ele>-1000</ele>
        <time>2007-05-14T14:08:43Z</time>
      </trkpt>
      <trkpt lat="48.65105" lon="-2.36767">
        <ele>-1000</ele>
        <time>2007-05-14T14:08:43Z</time>
      </trkpt>
      <trkpt lat="48.65074" lon="-2.36678">
        <ele>-1000</ele>
        <time>2007-05-14T14:08:43Z</time>
      </trkpt>
      <trkpt lat="48.65042" lon="-2.36641">
        <ele>-1000</ele>
        <time>2007-05-14T14:08:43Z</time>
      </trkpt>
      <trkpt lat="48.65046" lon="-2.36549">
        <ele>-1000</ele>
        <time>2007-05-14T14:08:43Z</time>
      </trkpt>
      <trkpt lat="48.65039" lon="-2.36541">
        <ele>-1000</ele>
        <time>2007-05-14T14:08:43Z</time>
      </trkpt>
      <trkpt lat="48.65048" lon="-2.3583">
        <ele>-1000</ele>
        <time>2007-05-14T14:08:43Z</time>
      </trkpt>
      <trkpt lat="48.64975" lon="-2.3572">
        <ele>-1000</ele>
        <time>2007-05-14T14:08:43Z</time>
      </trkpt>
      <trkpt lat="48.64933" lon="-2.35684">
        <ele>-1000</ele>
        <time>2007-05-14T14:08:43Z</time>
      </trkpt>
      <trkpt lat="48.64975" lon="-2.35538">
        <ele>-1000</ele>
        <time>2007-05-14T14:08:43Z</time>
      </trkpt>
      <trkpt lat="48.65006" lon="-2.35489">
        <ele>-1000</ele>
        <time>2007-05-14T14:08:43Z</time>
      </trkpt>
      <trkpt lat="48.65037" lon="-2.35467">
        <ele>-1000</ele>
        <time>2007-05-14T14:08:43Z</time>
      </trkpt>
      <trkpt lat="48.65044" lon="-2.35426">
        <ele>-1000</ele>
        <time>2007-05-14T14:08:43Z</time>
      </trkpt>
      <trkpt lat="48.65032" lon="-2.35355">
        <ele>-1000</ele>
        <time>2007-05-14T14:08:43Z</time>
      </trkpt>
      <trkpt lat="48.65017" lon="-2.35226">
        <ele>-1000</ele>
        <time>2007-05-14T14:08:43Z</time>
      </trkpt>
      <trkpt lat="48.65122" lon="-2.35283">
        <ele>-1000</ele>
        <time>2007-05-14T14:08:43Z</time>
      </trkpt>
      <trkpt lat="48.65232" lon="-2.35306">
        <ele>-1000</ele>
        <time>2007-05-14T14:08:43Z</time>
      </trkpt>
      <trkpt lat="48.65303" lon="-2.35307">
        <ele>-1000</ele>
        <time>2007-05-14T14:08:43Z</time>
      </trkpt>
      <trkpt lat="48.65411" lon="-2.35254">
        <ele>-1000</ele>
        <time>2007-05-14T14:08:43Z</time>
      </trkpt>
      <trkpt lat="48.65442" lon="-2.35252">
        <ele>-1000</ele>
        <time>2007-05-14T14:08:43Z</time>
      </trkpt>
      <trkpt lat="48.65518" lon="-2.35167">
        <ele>-1000</ele>
        <time>2007-05-14T14:08:43Z</time>
      </trkpt>
      <trkpt lat="48.65638" lon="-2.35126">
        <ele>-1000</ele>
        <time>2007-05-14T14:08:43Z</time>
      </trkpt>
      <trkpt lat="48.65642" lon="-2.35022">
        <ele>-1000</ele>
        <time>2007-05-14T14:08:43Z</time>
      </trkpt>
      <trkpt lat="48.65665" lon="-2.35018">
        <ele>-1000</ele>
        <time>2007-05-14T14:08:43Z</time>
      </trkpt>
      <trkpt lat="48.65735" lon="-2.34931">
        <ele>-1000</ele>
        <time>2007-05-14T14:08:43Z</time>
      </trkpt>
      <trkpt lat="48.65751" lon="-2.34923">
        <ele>-1000</ele>
        <time>2007-05-14T14:08:43Z</time>
      </trkpt>
      <trkpt lat="48.65835" lon="-2.34812">
        <ele>-1000</ele>
        <time>2007-05-14T14:08:43Z</time>
      </trkpt>
      <trkpt lat="48.65888" lon="-2.34855">
        <ele>-1000</ele>
        <time>2007-05-14T14:08:43Z</time>
      </trkpt>
      <trkpt lat="48.6594" lon="-2.34935">
        <ele>-1000</ele>
        <time>2007-05-14T14:08:43Z</time>
      </trkpt>
      <trkpt lat="48.6596" lon="-2.3491">
        <ele>-1000</ele>
        <time>2007-05-14T14:08:43Z</time>
      </trkpt>
      <trkpt lat="48.66014" lon="-2.34845">
        <ele>-1000</ele>
        <time>2007-05-14T14:08:43Z</time>
      </trkpt>
      <trkpt lat="48.66086" lon="-2.34799">
        <ele>-1000</ele>
        <time>2007-05-14T14:08:43Z</time>
      </trkpt>
      <trkpt lat="48.66127" lon="-2.34875">
        <ele>-1000</ele>
        <time>2007-05-14T14:08:43Z</time>
      </trkpt>
      <trkpt lat="48.66157" lon="-2.34931">
        <ele>-1000</ele>
        <time>2007-05-14T14:08:43Z</time>
      </trkpt>
      <trkpt lat="48.66182" lon="-2.34926">
        <ele>-1000</ele>
        <time>2007-05-14T14:08:43Z</time>
      </trkpt>
      <trkpt lat="48.66231" lon="-2.34855">
        <ele>-1000</ele>
        <time>2007-05-14T14:08:43Z</time>
      </trkpt>
      <trkpt lat="48.66345" lon="-2.34737">
        <ele>-1000</ele>
        <time>2007-05-14T14:08:43Z</time>
      </trkpt>
      <trkpt lat="48.66379" lon="-2.34676">
        <ele>-1000</ele>
        <time>2007-05-14T14:08:43Z</time>
      </trkpt>
      <trkpt lat="48.66386" lon="-2.34506">
        <ele>-1000</ele>
        <time>2007-05-14T14:08:43Z</time>
      </trkpt>
      <trkpt lat="48.66411" lon="-2.34375">
        <ele>-1000</ele>
        <time>2007-05-14T14:08:43Z</time>
      </trkpt>
      <trkpt lat="48.66447" lon="-2.34311">
        <ele>-1000</ele>
        <time>2007-05-14T14:08:43Z</time>
      </trkpt>
      <trkpt lat="48.66605" lon="-2.34198">
        <ele>-1000</ele>
        <time>2007-05-14T14:08:43Z</time>
      </trkpt>
      <trkpt lat="48.66673" lon="-2.34113">
        <ele>-1000</ele>
        <time>2007-05-14T14:08:43Z</time>
      </trkpt>
      <trkpt lat="48.6668" lon="-2.33969">
        <ele>-1000</ele>
        <time>2007-05-14T14:08:43Z</time>
      </trkpt>
      <trkpt lat="48.66696" lon="-2.33867">
        <ele>-1000</ele>
        <time>2007-05-14T14:08:43Z</time>
      </trkpt>
      <trkpt lat="48.66727" lon="-2.33752">
        <ele>-1000</ele>
        <time>2007-05-14T14:08:43Z</time>
      </trkpt>
      <trkpt lat="48.66754" lon="-2.33752">
        <ele>-1000</ele>
        <time>2007-05-14T14:08:43Z</time>
      </trkpt>
      <trkpt lat="48.66776" lon="-2.3376">
        <ele>-1000</ele>
        <time>2007-05-14T14:08:43Z</time>
      </trkpt>
      <trkpt lat="48.66804" lon="-2.33732">
        <ele>-1000</ele>
        <time>2007-05-14T14:08:43Z</time>
      </trkpt>
      <trkpt lat="48.66799" lon="-2.33681">
        <ele>-1000</ele>
        <time>2007-05-14T14:08:43Z</time>
      </trkpt>
      <trkpt lat="48.66819" lon="-2.33633">
        <ele>-1000</ele>
        <time>2007-05-14T14:08:43Z</time>
      </trkpt>
      <trkpt lat="48.66901" lon="-2.33523">
        <ele>-1000</ele>
        <time>2007-05-14T14:08:43Z</time>
      </trkpt>
      <trkpt lat="48.66945" lon="-2.3347">
        <ele>-1000</ele>
        <time>2007-05-14T14:08:43Z</time>
      </trkpt>
      <trkpt lat="48.66968" lon="-2.33416">
        <ele>-1000</ele>
        <time>2007-05-14T14:08:43Z</time>
      </trkpt>
      <trkpt lat="48.6697" lon="-2.33191">
        <ele>-1000</ele>
        <time>2007-05-14T14:08:43Z</time>
      </trkpt>
      <trkpt lat="48.66979" lon="-2.33125">
        <ele>-1000</ele>
        <time>2007-05-14T14:08:43Z</time>
      </trkpt>
      <trkpt lat="48.66961" lon="-2.33069">
        <ele>-1000</ele>
        <time>2007-05-14T14:08:43Z</time>
      </trkpt>
      <trkpt lat="48.66942" lon="-2.33033">
        <ele>-1000</ele>
        <time>2007-05-14T14:08:43Z</time>
      </trkpt>
      <trkpt lat="48.66399" lon="-2.32636">
        <ele>-1000</ele>
        <time>2007-05-14T14:08:43Z</time>
      </trkpt>
      <trkpt lat="48.66409" lon="-2.32573">
        <ele>-1000</ele>
        <time>2007-05-14T14:08:43Z</time>
      </trkpt>
      <trkpt lat="48.66516" lon="-2.32251">
        <ele>-1000</ele>
        <time>2007-05-14T14:08:43Z</time>
      </trkpt>
      <trkpt lat="48.66523" lon="-2.32196">
        <ele>-1000</ele>
        <time>2007-05-14T14:08:43Z</time>
      </trkpt>
      <trkpt lat="48.66547" lon="-2.32111">
        <ele>-1000</ele>
        <time>2007-05-14T14:08:43Z</time>
      </trkpt>
      <trkpt lat="48.6656" lon="-2.31941">
        <ele>-1000</ele>
        <time>2007-05-14T14:08:43Z</time>
      </trkpt>
      <trkpt lat="48.66613" lon="-2.3179">
        <ele>-1000</ele>
        <time>2007-05-14T14:08:43Z</time>
      </trkpt>
      <trkpt lat="48.66615" lon="-2.3176">
        <ele>-1000</ele>
        <time>2007-05-14T14:08:43Z</time>
      </trkpt>
      <trkpt lat="48.66634" lon="-2.3176">
        <ele>-1000</ele>
        <time>2007-05-14T14:08:43Z</time>
      </trkpt>
      <trkpt lat="48.66668" lon="-2.31713">
        <ele>-1000</ele>
        <time>2007-05-14T14:08:43Z</time>
      </trkpt>
      <trkpt lat="48.66693" lon="-2.31624">
        <ele>-1000</ele>
        <time>2007-05-14T14:08:43Z</time>
      </trkpt>
      <trkpt lat="48.66713" lon="-2.31508">
        <ele>-1000</ele>
        <time>2007-05-14T14:08:43Z</time>
      </trkpt>
      <trkpt lat="48.6672" lon="-2.31448">
        <ele>-1000</ele>
        <time>2007-05-14T14:08:43Z</time>
      </trkpt>
      <trkpt lat="48.66706" lon="-2.31416">
        <ele>-1000</ele>
        <time>2007-05-14T14:08:43Z</time>
      </trkpt>
      <trkpt lat="48.66686" lon="-2.3136">
        <ele>-1000</ele>
        <time>2007-05-14T14:08:43Z</time>
      </trkpt>
      <trkpt lat="48.66706" lon="-2.31227">
        <ele>-1000</ele>
        <time>2007-05-14T14:08:43Z</time>
      </trkpt>
      <trkpt lat="48.66637" lon="-2.3117">
        <ele>-1000</ele>
        <time>2007-05-14T14:08:43Z</time>
      </trkpt>
      <trkpt lat="48.66597" lon="-2.31123">
        <ele>-1000</ele>
        <time>2007-05-14T14:08:43Z</time>
      </trkpt>
      <trkpt lat="48.66534" lon="-2.31067">
        <ele>-1000</ele>
        <time>2007-05-14T14:08:43Z</time>
      </trkpt>
      <trkpt lat="48.66484" lon="-2.30984">
        <ele>-1000</ele>
        <time>2007-05-14T14:08:43Z</time>
      </trkpt>
      <trkpt lat="48.66465" lon="-2.30958">
        <ele>-1000</ele>
        <time>2007-05-14T14:08:43Z</time>
      </trkpt>
      <trkpt lat="48.6644" lon="-2.30938">
        <ele>-1000</ele>
        <time>2007-05-14T14:08:43Z</time>
      </trkpt>
      <trkpt lat="48.66351" lon="-2.30925">
        <ele>-1000</ele>
        <time>2007-05-14T14:08:43Z</time>
      </trkpt>
      <trkpt lat="48.66301" lon="-2.30899">
        <ele>-1000</ele>
        <time>2007-05-14T14:08:43Z</time>
      </trkpt>
      <trkpt lat="48.66306" lon="-2.30892">
        <ele>-1000</ele>
        <time>2007-05-14T14:08:43Z</time>
      </trkpt>
      <trkpt lat="48.66233" lon="-2.30945">
        <ele>-1000</ele>
        <time>2007-05-14T14:08:43Z</time>
      </trkpt>
      <trkpt lat="48.66182" lon="-2.3099">
        <ele>-1000</ele>
        <time>2007-05-14T14:08:43Z</time>
      </trkpt>
      <trkpt lat="48.66114" lon="-2.31095">
        <ele>-1000</ele>
        <time>2007-05-14T14:08:43Z</time>
      </trkpt>
      <trkpt lat="48.66065" lon="-2.31134">
        <ele>-1000</ele>
        <time>2007-05-14T14:08:43Z</time>
      </trkpt>
      <trkpt lat="48.66024" lon="-2.31114">
        <ele>-1000</ele>
        <time>2007-05-14T14:08:43Z</time>
      </trkpt>
      <trkpt lat="48.66002" lon="-2.31089">
        <ele>-1000</ele>
        <time>2007-05-14T14:08:43Z</time>
      </trkpt>
      <trkpt lat="48.65978" lon="-2.31073">
        <ele>-1000</ele>
        <time>2007-05-14T14:08:43Z</time>
      </trkpt>
      <trkpt lat="48.65946" lon="-2.31126">
        <ele>-1000</ele>
        <time>2007-05-14T14:08:43Z</time>
      </trkpt>
      <trkpt lat="48.65878" lon="-2.31192">
        <ele>-1000</ele>
        <time>2007-05-14T14:08:43Z</time>
      </trkpt>
      <trkpt lat="48.65861" lon="-2.31242">
        <ele>-1000</ele>
        <time>2007-05-14T14:08:43Z</time>
      </trkpt>
      <trkpt lat="48.65824" lon="-2.31215">
        <ele>-1000</ele>
        <time>2007-05-14T14:08:43Z</time>
      </trkpt>
      <trkpt lat="48.65816" lon="-2.31179">
        <ele>-1000</ele>
        <time>2007-05-14T14:08:43Z</time>
      </trkpt>
      <trkpt lat="48.65721" lon="-2.3108">
        <ele>-1000</ele>
        <time>2007-05-14T14:08:43Z</time>
      </trkpt>
      <trkpt lat="48.65678" lon="-2.31113">
        <ele>-1000</ele>
        <time>2007-05-14T14:08:43Z</time>
      </trkpt>
      <trkpt lat="48.65628" lon="-2.31185">
        <ele>-1000</ele>
        <time>2007-05-14T14:08:43Z</time>
      </trkpt>
      <trkpt lat="48.65585" lon="-2.31148">
        <ele>-1000</ele>
        <time>2007-05-14T14:08:43Z</time>
      </trkpt>
      <trkpt lat="48.65401" lon="-2.31416">
        <ele>-1000</ele>
        <time>2007-05-14T14:08:43Z</time>
      </trkpt>
      <trkpt lat="48.65374" lon="-2.31404">
        <ele>-1000</ele>
        <time>2007-05-14T14:08:43Z</time>
      </trkpt>
      <trkpt lat="48.65368" lon="-2.31484">
        <ele>-1000</ele>
        <time>2007-05-14T14:08:43Z</time>
      </trkpt>
      <trkpt lat="48.65404" lon="-2.31642">
        <ele>-1000</ele>
        <time>2007-05-14T14:08:43Z</time>
      </trkpt>
      <trkpt lat="48.65398" lon="-2.31689">
        <ele>-1000</ele>
        <time>2007-05-14T14:08:43Z</time>
      </trkpt>
      <trkpt lat="48.65371" lon="-2.31741">
        <ele>-1000</ele>
        <time>2007-05-14T14:08:43Z</time>
      </trkpt>
      <trkpt lat="48.65345" lon="-2.31765">
        <ele>-1000</ele>
        <time>2007-05-14T14:08:43Z</time>
      </trkpt>
      <trkpt lat="48.65343" lon="-2.31789">
        <ele>-1000</ele>
        <time>2007-05-14T14:08:43Z</time>
      </trkpt>
      <trkpt lat="48.65309" lon="-2.31778">
        <ele>-1000</ele>
        <time>2007-05-14T14:08:43Z</time>
      </trkpt>
      <trkpt lat="48.6527" lon="-2.31745">
        <ele>-1000</ele>
        <time>2007-05-14T14:08:43Z</time>
      </trkpt>
      <trkpt lat="48.65169" lon="-2.31607">
        <ele>-1000</ele>
        <time>2007-05-14T14:08:43Z</time>
      </trkpt>
      <trkpt lat="48.65124" lon="-2.3166">
        <ele>-1000</ele>
        <time>2007-05-14T14:08:43Z</time>
      </trkpt>
      <trkpt lat="48.65065" lon="-2.31684">
        <ele>-1000</ele>
        <time>2007-05-14T14:08:43Z</time>
      </trkpt>
      <trkpt lat="48.65033" lon="-2.31659">
        <ele>-1000</ele>
        <time>2007-05-14T14:08:43Z</time>
      </trkpt>
      <trkpt lat="48.64996" lon="-2.31657">
        <ele>-1000</ele>
        <time>2007-05-14T14:08:43Z</time>
      </trkpt>
      <trkpt lat="48.6485" lon="-2.31898">
        <ele>-1000</ele>
        <time>2007-05-14T14:08:43Z</time>
      </trkpt>
      <trkpt lat="48.64813" lon="-2.31941">
        <ele>-1000</ele>
        <time>2007-05-14T14:08:43Z</time>
      </trkpt>
      <trkpt lat="48.64715" lon="-2.32016">
        <ele>-1000</ele>
        <time>2007-05-14T14:08:43Z</time>
      </trkpt>
      <trkpt lat="48.64684" lon="-2.32055">
        <ele>-1000</ele>
        <time>2007-05-14T14:08:43Z</time>
      </trkpt>
      <trkpt lat="48.64645" lon="-2.32137">
        <ele>-1000</ele>
        <time>2007-05-14T14:08:43Z</time>
      </trkpt>
      <trkpt lat="48.64576" lon="-2.32234">
        <ele>-1000</ele>
        <time>2007-05-14T14:08:43Z</time>
      </trkpt>
      <trkpt lat="48.64545" lon="-2.32289">
        <ele>-1000</ele>
        <time>2007-05-14T14:08:43Z</time>
      </trkpt>
      <trkpt lat="48.64528" lon="-2.32344">
        <ele>-1000</ele>
        <time>2007-05-14T14:08:43Z</time>
      </trkpt>
      <trkpt lat="48.64488" lon="-2.32288">
        <ele>-1000</ele>
        <time>2007-05-14T14:08:43Z</time>
      </trkpt>
      <trkpt lat="48.64463" lon="-2.32275">
        <ele>-1000</ele>
        <time>2007-05-14T14:08:43Z</time>
      </trkpt>
      <trkpt lat="48.64446" lon="-2.32237">
        <ele>-1000</ele>
        <time>2007-05-14T14:08:43Z</time>
      </trkpt>
      <trkpt lat="48.64403" lon="-2.32122">
        <ele>-1000</ele>
        <time>2007-05-14T14:08:43Z</time>
      </trkpt>
      <trkpt lat="48.64363" lon="-2.32058">
        <ele>-1000</ele>
        <time>2007-05-14T14:08:43Z</time>
      </trkpt>
      <trkpt lat="48.64316" lon="-2.32001">
        <ele>-1000</ele>
        <time>2007-05-14T14:08:43Z</time>
      </trkpt>
      <trkpt lat="48.64166" lon="-2.31864">
        <ele>-1000</ele>
        <time>2007-05-14T14:08:43Z</time>
      </trkpt>
      <trkpt lat="48.64161" lon="-2.31777">
        <ele>-1000</ele>
        <time>2007-05-14T14:08:43Z</time>
      </trkpt>
      <trkpt lat="48.64166" lon="-2.31688">
        <ele>-1000</ele>
        <time>2007-05-14T14:08:43Z</time>
      </trkpt>
      <trkpt lat="48.64155" lon="-2.31653">
        <ele>-1000</ele>
        <time>2007-05-14T14:08:43Z</time>
      </trkpt>
      <trkpt lat="48.6412" lon="-2.31594">
        <ele>-1000</ele>
        <time>2007-05-14T14:08:43Z</time>
      </trkpt>
      <trkpt lat="48.64094" lon="-2.31534">
        <ele>-1000</ele>
        <time>2007-05-14T14:08:43Z</time>
      </trkpt>
      <trkpt lat="48.64021" lon="-2.31639">
        <ele>-1000</ele>
        <time>2007-05-14T14:08:43Z</time>
      </trkpt>
      <trkpt lat="48.63944" lon="-2.3177">
        <ele>-1000</ele>
        <time>2007-05-14T14:08:43Z</time>
      </trkpt>
      <trkpt lat="48.63846" lon="-2.31845">
        <ele>-1000</ele>
        <time>2007-05-14T14:08:43Z</time>
      </trkpt>
      <trkpt lat="48.63781" lon="-2.31906">
        <ele>-1000</ele>
        <time>2007-05-14T14:08:43Z</time>
      </trkpt>
      <trkpt lat="48.63667" lon="-2.3192">
        <ele>-1000</ele>
        <time>2007-05-14T14:08:43Z</time>
      </trkpt>
      <trkpt lat="48.63591" lon="-2.31908">
        <ele>-1000</ele>
        <time>2007-05-14T14:08:43Z</time>
      </trkpt>
      <trkpt lat="48.63572" lon="-2.31933">
        <ele>-1000</ele>
        <time>2007-05-14T14:08:43Z</time>
      </trkpt>
      <trkpt lat="48.63559" lon="-2.31981">
        <ele>-1000</ele>
        <time>2007-05-14T14:08:43Z</time>
      </trkpt>
      <trkpt lat="48.63522" lon="-2.32021">
        <ele>-1000</ele>
        <time>2007-05-14T14:08:43Z</time>
      </trkpt>
      <trkpt lat="48.63403" lon="-2.32115">
        <ele>-1000</ele>
        <time>2007-05-14T14:08:43Z</time>
      </trkpt>
      <trkpt lat="48.63368" lon="-2.32113">
        <ele>-1000</ele>
        <time>2007-05-14T14:08:43Z</time>
      </trkpt>
      <trkpt lat="48.63334" lon="-2.32086">
        <ele>-1000</ele>
        <time>2007-05-14T14:08:43Z</time>
      </trkpt>
      <trkpt lat="48.63254" lon="-2.3209">
        <ele>-1000</ele>
        <time>2007-05-14T14:08:43Z</time>
      </trkpt>
      <trkpt lat="48.63196" lon="-2.32112">
        <ele>-1000</ele>
        <time>2007-05-14T14:08:43Z</time>
      </trkpt>
      <trkpt lat="48.63149" lon="-2.32257">
        <ele>-1000</ele>
        <time>2007-05-14T14:08:43Z</time>
      </trkpt>
      <trkpt lat="48.63176" lon="-2.32436">
        <ele>-1000</ele>
        <time>2007-05-14T14:08:43Z</time>
      </trkpt>
      <trkpt lat="48.63215" lon="-2.3254">
        <ele>-1000</ele>
        <time>2007-05-14T14:08:43Z</time>
      </trkpt>
      <trkpt lat="48.63249" lon="-2.3255">
        <ele>-1000</ele>
        <time>2007-05-14T14:08:43Z</time>
      </trkpt>
      <trkpt lat="48.63256" lon="-2.32587">
        <ele>-1000</ele>
        <time>2007-05-14T14:08:43Z</time>
      </trkpt>
      <trkpt lat="48.63282" lon="-2.32595">
        <ele>-1000</ele>
        <time>2007-05-14T14:08:43Z</time>
      </trkpt>
      <trkpt lat="48.63259" lon="-2.32659">
        <ele>-1000</ele>
        <time>2007-05-14T14:08:43Z</time>
      </trkpt>
      <trkpt lat="48.63195" lon="-2.32708">
        <ele>-1000</ele>
        <time>2007-05-14T14:08:43Z</time>
      </trkpt>
      <trkpt lat="48.632" lon="-2.32771">
        <ele>-1000</ele>
        <time>2007-05-14T14:08:43Z</time>
      </trkpt>
      <trkpt lat="48.63243" lon="-2.32921">
        <ele>-1000</ele>
        <time>2007-05-14T14:08:43Z</time>
      </trkpt>
      <trkpt lat="48.63258" lon="-2.32991">
        <ele>-1000</ele>
        <time>2007-05-14T14:08:43Z</time>
      </trkpt>
      <trkpt lat="48.63252" lon="-2.33053">
        <ele>-1000</ele>
        <time>2007-05-14T14:08:43Z</time>
      </trkpt>
      <trkpt lat="48.6323" lon="-2.33102">
        <ele>-1000</ele>
        <time>2007-05-14T14:08:43Z</time>
      </trkpt>
      <trkpt lat="48.63193" lon="-2.33142">
        <ele>-1000</ele>
        <time>2007-05-14T14:08:43Z</time>
      </trkpt>
      <trkpt lat="48.63199" lon="-2.33195">
        <ele>-1000</ele>
        <time>2007-05-14T14:08:43Z</time>
      </trkpt>
      <trkpt lat="48.63173" lon="-2.33225">
        <ele>-1000</ele>
        <time>2007-05-14T14:08:43Z</time>
      </trkpt>
      <trkpt lat="48.63157" lon="-2.33278">
        <ele>-1000</ele>
        <time>2007-05-14T14:08:43Z</time>
      </trkpt>
      <trkpt lat="48.63145" lon="-2.33358">
        <ele>-1000</ele>
        <time>2007-05-14T14:08:43Z</time>
      </trkpt>
      <trkpt lat="48.63117" lon="-2.33392">
        <ele>-1000</ele>
        <time>2007-05-14T14:08:43Z</time>
      </trkpt>
      <trkpt lat="48.63083" lon="-2.33391">
        <ele>-1000</ele>
        <time>2007-05-14T14:08:43Z</time>
      </trkpt>
      <trkpt lat="48.63053" lon="-2.33403">
        <ele>-1000</ele>
        <time>2007-05-14T14:08:43Z</time>
      </trkpt>
      <trkpt lat="48.62908" lon="-2.33509">
        <ele>-1000</ele>
        <time>2007-05-14T14:08:43Z</time>
      </trkpt>
      <trkpt lat="48.62853" lon="-2.33529">
        <ele>-1000</ele>
        <time>2007-05-14T14:08:43Z</time>
      </trkpt>
      <trkpt lat="48.62786" lon="-2.33534">
        <ele>-1000</ele>
        <time>2007-05-14T14:08:43Z</time>
      </trkpt>
      <trkpt lat="48.62718" lon="-2.33572">
        <ele>-1000</ele>
        <time>2007-05-14T14:08:43Z</time>
      </trkpt>
      <trkpt lat="48.6268" lon="-2.33606">
        <ele>-1000</ele>
        <time>2007-05-14T14:08:43Z</time>
      </trkpt>
      <trkpt lat="48.62637" lon="-2.33625">
        <ele>-1000</ele>
        <time>2007-05-14T14:08:43Z</time>
      </trkpt>
      <trkpt lat="48.62589" lon="-2.33674">
        <ele>-1000</ele>
        <time>2007-05-14T14:08:43Z</time>
      </trkpt>
      <trkpt lat="48.62601" lon="-2.33557">
        <ele>-1000</ele>
        <time>2007-05-14T14:08:43Z</time>
      </trkpt>
      <trkpt lat="48.62692" lon="-2.33414">
        <ele>-1000</ele>
        <time>2007-05-14T14:08:43Z</time>
      </trkpt>
      <trkpt lat="48.62669" lon="-2.33347">
        <ele>-1000</ele>
        <time>2007-05-14T14:08:43Z</time>
      </trkpt>
      <trkpt lat="48.62636" lon="-2.33338">
        <ele>-1000</ele>
        <time>2007-05-14T14:08:43Z</time>
      </trkpt>
      <trkpt lat="48.62628" lon="-2.33291">
        <ele>-1000</ele>
        <time>2007-05-14T14:08:43Z</time>
      </trkpt>
      <trkpt lat="48.62672" lon="-2.33165">
        <ele>-1000</ele>
        <time>2007-05-14T14:08:43Z</time>
      </trkpt>
      <trkpt lat="48.62655" lon="-2.33071">
        <ele>-1000</ele>
        <time>2007-05-14T14:08:43Z</time>
      </trkpt>
      <trkpt lat="48.62657" lon="-2.32997">
        <ele>-1000</ele>
        <time>2007-05-14T14:08:43Z</time>
      </trkpt>
      <trkpt lat="48.62696" lon="-2.32963">
        <ele>-1000</ele>
        <time>2007-05-14T14:08:43Z</time>
      </trkpt>
      <trkpt lat="48.62713" lon="-2.32887">
        <ele>-1000</ele>
        <time>2007-05-14T14:08:43Z</time>
      </trkpt>
      <trkpt lat="48.6271" lon="-2.32836">
        <ele>-1000</ele>
        <time>2007-05-14T14:08:43Z</time>
      </trkpt>
      <trkpt lat="48.62692" lon="-2.32789">
        <ele>-1000</ele>
        <time>2007-05-14T14:08:43Z</time>
      </trkpt>
      <trkpt lat="48.62585" lon="-2.32907">
        <ele>-1000</ele>
        <time>2007-05-14T14:08:43Z</time>
      </trkpt>
      <trkpt lat="48.62509" lon="-2.3302">
        <ele>-1000</ele>
        <time>2007-05-14T14:08:43Z</time>
      </trkpt>
      <trkpt lat="48.62322" lon="-2.33371">
        <ele>-1000</ele>
        <time>2007-05-14T14:08:43Z</time>
      </trkpt>
      <trkpt lat="48.6228" lon="-2.33446">
        <ele>-1000</ele>
        <time>2007-05-14T14:08:43Z</time>
      </trkpt>
      <trkpt lat="48.62201" lon="-2.33506">
        <ele>-1000</ele>
        <time>2007-05-14T14:08:43Z</time>
      </trkpt>
      <trkpt lat="48.6214" lon="-2.33589">
        <ele>-1000</ele>
        <time>2007-05-14T14:08:43Z</time>
      </trkpt>
      <trkpt lat="48.62098" lon="-2.33646">
        <ele>-1000</ele>
        <time>2007-05-14T14:08:43Z</time>
      </trkpt>
      <trkpt lat="48.62048" lon="-2.33772">
        <ele>-1000</ele>
        <time>2007-05-14T14:08:43Z</time>
      </trkpt>
      <trkpt lat="48.61996" lon="-2.3382">
        <ele>-1000</ele>
        <time>2007-05-14T14:08:43Z</time>
      </trkpt>
      <trkpt lat="48.61877" lon="-2.33675">
        <ele>-1000</ele>
        <time>2007-05-14T14:08:43Z</time>
      </trkpt>
      <trkpt lat="48.61821" lon="-2.33579">
        <ele>-1000</ele>
        <time>2007-05-14T14:08:43Z</time>
      </trkpt>
      <trkpt lat="48.61754" lon="-2.33519">
        <ele>-1000</ele>
        <time>2007-05-14T14:08:43Z</time>
      </trkpt>
      <trkpt lat="48.61666" lon="-2.33321">
        <ele>-1000</ele>
        <time>2007-05-14T14:08:43Z</time>
      </trkpt>
      <trkpt lat="48.61635" lon="-2.33189">
        <ele>-1000</ele>
        <time>2007-05-14T14:08:43Z</time>
      </trkpt>
      <trkpt lat="48.61626" lon="-2.33079">
        <ele>-1000</ele>
        <time>2007-05-14T14:08:43Z</time>
      </trkpt>
      <trkpt lat="48.61598" lon="-2.33086">
        <ele>-1000</ele>
        <time>2007-05-14T14:08:43Z</time>
      </trkpt>
      <trkpt lat="48.61577" lon="-2.33116">
        <ele>-1000</ele>
        <time>2007-05-14T14:08:43Z</time>
      </trkpt>
      <trkpt lat="48.61553" lon="-2.331">
        <ele>-1000</ele>
        <time>2007-05-14T14:08:43Z</time>
      </trkpt>
      <trkpt lat="48.61499" lon="-2.32932">
        <ele>-1000</ele>
        <time>2007-05-14T14:08:43Z</time>
      </trkpt>
      <trkpt lat="48.6151" lon="-2.32867">
        <ele>-1000</ele>
        <time>2007-05-14T14:08:43Z</time>
      </trkpt>
      <trkpt lat="48.61551" lon="-2.32848">
        <ele>-1000</ele>
        <time>2007-05-14T14:08:43Z</time>
      </trkpt>
      <trkpt lat="48.6156" lon="-2.32707">
        <ele>-1000</ele>
        <time>2007-05-14T14:08:43Z</time>
      </trkpt>
      <trkpt lat="48.6163" lon="-2.32458">
        <ele>-1000</ele>
        <time>2007-05-14T14:08:43Z</time>
      </trkpt>
      <trkpt lat="48.61655" lon="-2.32382">
        <ele>-1000</ele>
        <time>2007-05-14T14:08:43Z</time>
      </trkpt>
      <trkpt lat="48.61659" lon="-2.32315">
        <ele>-1000</ele>
        <time>2007-05-14T14:08:43Z</time>
      </trkpt>
      <trkpt lat="48.6161" lon="-2.32211">
        <ele>-1000</ele>
        <time>2007-05-14T14:08:43Z</time>
      </trkpt>
      <trkpt lat="48.61552" lon="-2.32194">
        <ele>-1000</ele>
        <time>2007-05-14T14:08:43Z</time>
      </trkpt>
      <trkpt lat="48.61447" lon="-2.32183">
        <ele>-1000</ele>
        <time>2007-05-14T14:08:43Z</time>
      </trkpt>
      <trkpt lat="48.61395" lon="-2.322">
        <ele>-1000</ele>
        <time>2007-05-14T14:08:43Z</time>
      </trkpt>
      <trkpt lat="48.61359" lon="-2.32228">
        <ele>-1000</ele>
        <time>2007-05-14T14:08:43Z</time>
      </trkpt>
      <trkpt lat="48.61332" lon="-2.32265">
        <ele>-1000</ele>
        <time>2007-05-14T14:08:43Z</time>
      </trkpt>
      <trkpt lat="48.6133" lon="-2.3222">
        <ele>-1000</ele>
        <time>2007-05-14T14:08:43Z</time>
      </trkpt>
      <trkpt lat="48.61277" lon="-2.32313">
        <ele>-1000</ele>
        <time>2007-05-14T14:08:43Z</time>
      </trkpt>
      <trkpt lat="48.61267" lon="-2.32363">
        <ele>-1000</ele>
        <time>2007-05-14T14:08:43Z</time>
      </trkpt>
      <trkpt lat="48.61272" lon="-2.32412">
        <ele>-1000</ele>
        <time>2007-05-14T14:08:43Z</time>
      </trkpt>
      <trkpt lat="48.61271" lon="-2.32476">
        <ele>-1000</ele>
        <time>2007-05-14T14:08:43Z</time>
      </trkpt>
      <trkpt lat="48.61243" lon="-2.32564">
        <ele>-1000</ele>
        <time>2007-05-14T14:08:43Z</time>
      </trkpt>
      <trkpt lat="48.61203" lon="-2.32641">
        <ele>-1000</ele>
        <time>2007-05-14T14:08:43Z</time>
      </trkpt>
      <trkpt lat="48.61155" lon="-2.32536">
        <ele>-1000</ele>
        <time>2007-05-14T14:08:43Z</time>
      </trkpt>
      <trkpt lat="48.61137" lon="-2.32519">
        <ele>-1000</ele>
        <time>2007-05-14T14:08:43Z</time>
      </trkpt>
      <trkpt lat="48.61086" lon="-2.32511">
        <ele>-1000</ele>
        <time>2007-05-14T14:08:43Z</time>
      </trkpt>
      <trkpt lat="48.611" lon="-2.32307">
        <ele>-1000</ele>
        <time>2007-05-14T14:08:43Z</time>
      </trkpt>
      <trkpt lat="48.60994" lon="-2.31642">
        <ele>-1000</ele>
        <time>2007-05-14T14:08:43Z</time>
      </trkpt>
      <trkpt lat="48.60923" lon="-2.31547">
        <ele>-1000</ele>
        <time>2007-05-14T14:08:43Z</time>
      </trkpt>
      <trkpt lat="48.60869" lon="-2.31493">
        <ele>-1000</ele>
        <time>2007-05-14T14:08:43Z</time>
      </trkpt>
      <trkpt lat="48.60725" lon="-2.31446">
        <ele>-1000</ele>
        <time>2007-05-14T14:08:43Z</time>
      </trkpt>
      <trkpt lat="48.60606" lon="-2.31369">
        <ele>-1000</ele>
        <time>2007-05-14T14:08:43Z</time>
      </trkpt>
      <trkpt lat="48.60518" lon="-2.31284">
        <ele>-1000</ele>
        <time>2007-05-14T14:08:43Z</time>
      </trkpt>
      <trkpt lat="48.6045" lon="-2.31172">
        <ele>-1000</ele>
        <time>2007-05-14T14:08:43Z</time>
      </trkpt>
      <trkpt lat="48.60356" lon="-2.31047">
        <ele>-1000</ele>
        <time>2007-05-14T14:08:43Z</time>
      </trkpt>
      <trkpt lat="48.60346" lon="-2.30993">
        <ele>-1000</ele>
        <time>2007-05-14T14:08:43Z</time>
      </trkpt>
      <trkpt lat="48.60347" lon="-2.3083">
        <ele>-1000</ele>
        <time>2007-05-14T14:08:43Z</time>
      </trkpt>
      <trkpt lat="48.60361" lon="-2.308">
        <ele>-1000</ele>
        <time>2007-05-14T14:08:43Z</time>
      </trkpt>
    </trkseg>
  </trk>
  <trk>
    <name><![CDATA[fusion]]></name>
    <trkseg>
      <trkpt lat="48.45625" lon="-2.03846">
        <ele>-1000</ele>
        <time>2007-05-30T14:08:43Z</time>
      </trkpt>
      <trkpt lat="48.45669" lon="-2.03787">
        <ele>-1000</ele>
        <time>2007-05-30T14:08:43Z</time>
      </trkpt>
      <trkpt lat="48.45778" lon="-2.03776">
        <ele>-1000</ele>
        <time>2007-05-30T14:08:43Z</time>
      </trkpt>
      <trkpt lat="48.45941" lon="-2.03585">
        <ele>-1000</ele>
        <time>2007-05-30T14:08:43Z</time>
      </trkpt>
      <trkpt lat="48.46105" lon="-2.03342">
        <ele>-1000</ele>
        <time>2007-05-30T14:08:43Z</time>
      </trkpt>
      <trkpt lat="48.46135" lon="-2.03278">
        <ele>-1000</ele>
        <time>2007-05-30T14:08:43Z</time>
      </trkpt>
      <trkpt lat="48.4617" lon="-2.02969">
        <ele>-1000</ele>
        <time>2007-05-30T14:08:43Z</time>
      </trkpt>
      <trkpt lat="48.46192" lon="-2.02929">
        <ele>-1000</ele>
        <time>2007-05-30T14:08:43Z</time>
      </trkpt>
      <trkpt lat="48.46288" lon="-2.02888">
        <ele>-1000</ele>
        <time>2007-05-30T14:08:43Z</time>
      </trkpt>
      <trkpt lat="48.46335" lon="-2.02845">
        <ele>-1000</ele>
        <time>2007-05-30T14:08:43Z</time>
      </trkpt>
      <trkpt lat="48.46394" lon="-2.0275">
        <ele>-1000</ele>
        <time>2007-05-30T14:08:43Z</time>
      </trkpt>
      <trkpt lat="48.46478" lon="-2.02707">
        <ele>-1000</ele>
        <time>2007-05-30T14:08:43Z</time>
      </trkpt>
      <trkpt lat="48.46669" lon="-2.02739">
        <ele>-1000</ele>
        <time>2007-05-30T14:08:43Z</time>
      </trkpt>
      <trkpt lat="48.46714" lon="-2.02729">
        <ele>-1000</ele>
        <time>2007-05-30T14:08:43Z</time>
      </trkpt>
      <trkpt lat="48.46754" lon="-2.02704">
        <ele>-1000</ele>
        <time>2007-05-30T14:08:43Z</time>
      </trkpt>
      <trkpt lat="48.4688" lon="-2.02524">
        <ele>-1000</ele>
        <time>2007-05-30T14:08:43Z</time>
      </trkpt>
      <trkpt lat="48.46983" lon="-2.02175">
        <ele>-1000</ele>
        <time>2007-05-30T14:08:43Z</time>
      </trkpt>
      <trkpt lat="48.46994" lon="-2.01947">
        <ele>-1000</ele>
        <time>2007-05-30T14:08:43Z</time>
      </trkpt>
      <trkpt lat="48.47058" lon="-2.01256">
        <ele>-1000</ele>
        <time>2007-05-30T14:08:43Z</time>
      </trkpt>
      <trkpt lat="48.47089" lon="-2.01104">
        <ele>-1000</ele>
        <time>2007-05-30T14:08:43Z</time>
      </trkpt>
      <trkpt lat="48.47128" lon="-2.01029">
        <ele>-1000</ele>
        <time>2007-05-30T14:08:43Z</time>
      </trkpt>
      <trkpt lat="48.47358" lon="-2.00817">
        <ele>-1000</ele>
        <time>2007-05-30T14:08:43Z</time>
      </trkpt>
      <trkpt lat="48.47487" lon="-2.00799">
        <ele>-1000</ele>
        <time>2007-05-30T14:08:43Z</time>
      </trkpt>
      <trkpt lat="48.47549" lon="-2.00764">
        <ele>-1000</ele>
        <time>2007-05-30T14:08:43Z</time>
      </trkpt>
      <trkpt lat="48.47585" lon="-2.0071">
        <ele>-1000</ele>
        <time>2007-05-30T14:08:43Z</time>
      </trkpt>
      <trkpt lat="48.4767" lon="-2.00663">
        <ele>-1000</ele>
        <time>2007-05-30T14:08:43Z</time>
      </trkpt>
      <trkpt lat="48.47747" lon="-2.00675">
        <ele>-1000</ele>
        <time>2007-05-30T14:08:43Z</time>
      </trkpt>
      <trkpt lat="48.47804" lon="-2.00697">
        <ele>-1000</ele>
        <time>2007-05-30T14:08:43Z</time>
      </trkpt>
      <trkpt lat="48.47958" lon="-2.00703">
        <ele>-1000</ele>
        <time>2007-05-30T14:08:43Z</time>
      </trkpt>
      <trkpt lat="48.48051" lon="-2.00669">
        <ele>-1000</ele>
        <time>2007-05-30T14:08:43Z</time>
      </trkpt>
      <trkpt lat="48.48133" lon="-2.00658">
        <ele>-1000</ele>
        <time>2007-05-30T14:08:43Z</time>
      </trkpt>
      <trkpt lat="48.48246" lon="-2.00589">
        <ele>-1000</ele>
        <time>2007-05-30T14:08:43Z</time>
      </trkpt>
      <trkpt lat="48.48259" lon="-2.00536">
        <ele>-1000</ele>
        <time>2007-05-30T14:08:43Z</time>
      </trkpt>
      <trkpt lat="48.48267" lon="-2.00423">
        <ele>-1000</ele>
        <time>2007-05-30T14:08:43Z</time>
      </trkpt>
      <trkpt lat="48.48296" lon="-2.00231">
        <ele>-1000</ele>
        <time>2007-05-30T14:08:43Z</time>
      </trkpt>
      <trkpt lat="48.48401" lon="-1.99956">
        <ele>-1000</ele>
        <time>2007-05-30T14:08:43Z</time>
      </trkpt>
      <trkpt lat="48.4844" lon="-1.99894">
        <ele>-1000</ele>
        <time>2007-05-30T14:08:43Z</time>
      </trkpt>
      <trkpt lat="48.48502" lon="-1.99879">
        <ele>-1000</ele>
        <time>2007-05-30T14:08:43Z</time>
      </trkpt>
      <trkpt lat="48.48553" lon="-1.99923">
        <ele>-1000</ele>
        <time>2007-05-30T14:08:43Z</time>
      </trkpt>
      <trkpt lat="48.48665" lon="-2.0014">
        <ele>-1000</ele>
        <time>2007-05-30T14:08:43Z</time>
      </trkpt>
      <trkpt lat="48.48684" lon="-2.00223">
        <ele>-1000</ele>
        <time>2007-05-30T14:08:43Z</time>
      </trkpt>
      <trkpt lat="48.48684" lon="-2.00297">
        <ele>-1000</ele>
        <time>2007-05-30T14:08:43Z</time>
      </trkpt>
      <trkpt lat="48.48718" lon="-2.00388">
        <ele>-1000</ele>
        <time>2007-05-30T14:08:43Z</time>
      </trkpt>
      <trkpt lat="48.48777" lon="-2.00458">
        <ele>-1000</ele>
        <time>2007-05-30T14:08:43Z</time>
      </trkpt>
      <trkpt lat="48.4883" lon="-2.00496">
        <ele>-1000</ele>
        <time>2007-05-30T14:08:43Z</time>
      </trkpt>
      <trkpt lat="48.48874" lon="-2.00497">
        <ele>-1000</ele>
        <time>2007-05-30T14:08:43Z</time>
      </trkpt>
      <trkpt lat="48.48917" lon="-2.0054">
        <ele>-1000</ele>
        <time>2007-05-30T14:08:43Z</time>
      </trkpt>
      <trkpt lat="48.48978" lon="-2.0054">
        <ele>-1000</ele>
        <time>2007-05-30T14:08:43Z</time>
      </trkpt>
      <trkpt lat="48.49132" lon="-2.00392">
        <ele>-1000</ele>
        <time>2007-05-30T14:08:43Z</time>
      </trkpt>
      <trkpt lat="48.49143" lon="-2.00346">
        <ele>-1000</ele>
        <time>2007-05-30T14:08:43Z</time>
      </trkpt>
      <trkpt lat="48.49207" lon="-2.0033">
        <ele>-1000</ele>
        <time>2007-05-30T14:08:43Z</time>
      </trkpt>
      <trkpt lat="48.49252" lon="-2.00273">
        <ele>-1000</ele>
        <time>2007-05-30T14:08:43Z</time>
      </trkpt>
      <trkpt lat="48.49259" lon="-2.00211">
        <ele>-1000</ele>
        <time>2007-05-30T14:08:43Z</time>
      </trkpt>
      <trkpt lat="48.49329" lon="-2.00195">
        <ele>-1000</ele>
        <time>2007-05-30T14:08:43Z</time>
      </trkpt>
      <trkpt lat="48.4942" lon="-2.00136">
        <ele>-1000</ele>
        <time>2007-05-30T14:08:43Z</time>
      </trkpt>
      <trkpt lat="48.49458" lon="-2.00042">
        <ele>-1000</ele>
        <time>2007-05-30T14:08:43Z</time>
      </trkpt>
      <trkpt lat="48.49472" lon="-1.99981">
        <ele>-1000</ele>
        <time>2007-05-30T14:08:43Z</time>
      </trkpt>
      <trkpt lat="48.49457" lon="-1.99873">
        <ele>-1000</ele>
        <time>2007-05-30T14:08:43Z</time>
      </trkpt>
      <trkpt lat="48.49435" lon="-1.99822">
        <ele>-1000</ele>
        <time>2007-05-30T14:08:43Z</time>
      </trkpt>
      <trkpt lat="48.49411" lon="-1.99738">
        <ele>-1000</ele>
        <time>2007-05-30T14:08:43Z</time>
      </trkpt>
      <trkpt lat="48.49413" lon="-1.99662">
        <ele>-1000</ele>
        <time>2007-05-30T14:08:43Z</time>
      </trkpt>
      <trkpt lat="48.49429" lon="-1.99563">
        <ele>-1000</ele>
        <time>2007-05-30T14:08:43Z</time>
      </trkpt>
      <trkpt lat="48.49468" lon="-1.99498">
        <ele>-1000</ele>
        <time>2007-05-30T14:08:43Z</time>
      </trkpt>
      <trkpt lat="48.49588" lon="-1.99498">
        <ele>-1000</ele>
        <time>2007-05-30T14:08:43Z</time>
      </trkpt>
      <trkpt lat="48.49626" lon="-1.9952">
        <ele>-1000</ele>
        <time>2007-05-30T14:08:43Z</time>
      </trkpt>
      <trkpt lat="48.49642" lon="-1.99652">
        <ele>-1000</ele>
        <time>2007-05-30T14:08:43Z</time>
      </trkpt>
      <trkpt lat="48.49674" lon="-1.99738">
        <ele>-1000</ele>
        <time>2007-05-30T14:08:43Z</time>
      </trkpt>
      <trkpt lat="48.49676" lon="-2.00234">
        <ele>-1000</ele>
        <time>2007-05-30T14:08:43Z</time>
      </trkpt>
      <trkpt lat="48.49772" lon="-2.00135">
        <ele>-1000</ele>
        <time>2007-05-30T14:08:43Z</time>
      </trkpt>
    </trkseg>
  </trk>
  <trk>
    <name><![CDATA[fusion]]></name>
    <trkseg>
      <trkpt lat="48.60358" lon="-2.30805">
        <ele>-1000</ele>
        <time>2007-05-30T14:08:43Z</time>
      </trkpt>
      <trkpt lat="48.60352" lon="-2.30774">
        <ele>-1000</ele>
        <time>2007-05-30T14:08:43Z</time>
      </trkpt>
      <trkpt lat="48.60323" lon="-2.30752">
        <ele>-1000</ele>
        <time>2007-05-30T14:08:43Z</time>
      </trkpt>
      <trkpt lat="48.60231" lon="-2.30719">
        <ele>-1000</ele>
        <time>2007-05-30T14:08:43Z</time>
      </trkpt>
      <trkpt lat="48.60187" lon="-2.30681">
        <ele>-1000</ele>
        <time>2007-05-30T14:08:43Z</time>
      </trkpt>
      <trkpt lat="48.6015" lon="-2.30624">
        <ele>-1000</ele>
        <time>2007-05-30T14:08:43Z</time>
      </trkpt>
      <trkpt lat="48.60107" lon="-2.30594">
        <ele>-1000</ele>
        <time>2007-05-30T14:08:43Z</time>
      </trkpt>
      <trkpt lat="48.59768" lon="-2.30549">
        <ele>-1000</ele>
        <time>2007-05-30T14:08:43Z</time>
      </trkpt>
      <trkpt lat="48.59763" lon="-2.30459">
        <ele>-1000</ele>
        <time>2007-05-30T14:08:43Z</time>
      </trkpt>
      <trkpt lat="48.59772" lon="-2.30373">
        <ele>-1000</ele>
        <time>2007-05-30T14:08:43Z</time>
      </trkpt>
      <trkpt lat="48.59795" lon="-2.30285">
        <ele>-1000</ele>
        <time>2007-05-30T14:08:43Z</time>
      </trkpt>
      <trkpt lat="48.59783" lon="-2.30241">
        <ele>-1000</ele>
        <time>2007-05-30T14:08:43Z</time>
      </trkpt>
      <trkpt lat="48.59733" lon="-2.30146">
        <ele>-1000</ele>
        <time>2007-05-30T14:08:43Z</time>
      </trkpt>
      <trkpt lat="48.59652" lon="-2.30042">
        <ele>-1000</ele>
        <time>2007-05-30T14:08:43Z</time>
      </trkpt>
      <trkpt lat="48.59619" lon="-2.29955">
        <ele>-1000</ele>
        <time>2007-05-30T14:08:43Z</time>
      </trkpt>
      <trkpt lat="48.59568" lon="-2.29858">
        <ele>-1000</ele>
        <time>2007-05-30T14:08:43Z</time>
      </trkpt>
      <trkpt lat="48.59541" lon="-2.29766">
        <ele>-1000</ele>
        <time>2007-05-30T14:08:43Z</time>
      </trkpt>
      <trkpt lat="48.59508" lon="-2.2972">
        <ele>-1000</ele>
        <time>2007-05-30T14:08:43Z</time>
      </trkpt>
      <trkpt lat="48.59465" lon="-2.29691">
        <ele>-1000</ele>
        <time>2007-05-30T14:08:43Z</time>
      </trkpt>
      <trkpt lat="48.59472" lon="-2.29654">
        <ele>-1000</ele>
        <time>2007-05-30T14:08:43Z</time>
      </trkpt>
      <trkpt lat="48.59425" lon="-2.29582">
        <ele>-1000</ele>
        <time>2007-05-30T14:08:43Z</time>
      </trkpt>
      <trkpt lat="48.59409" lon="-2.29465">
        <ele>-1000</ele>
        <time>2007-05-30T14:08:43Z</time>
      </trkpt>
      <trkpt lat="48.59307" lon="-2.29529">
        <ele>-1000</ele>
        <time>2007-05-30T14:08:43Z</time>
      </trkpt>
      <trkpt lat="48.59299" lon="-2.29523">
        <ele>-1000</ele>
        <time>2007-05-30T14:08:43Z</time>
      </trkpt>
      <trkpt lat="48.5923" lon="-2.2964">
        <ele>-1000</ele>
        <time>2007-05-30T14:08:43Z</time>
      </trkpt>
      <trkpt lat="48.58939" lon="-2.29965">
        <ele>-1000</ele>
        <time>2007-05-30T14:08:43Z</time>
      </trkpt>
      <trkpt lat="48.58825" lon="-2.29708">
        <ele>-1000</ele>
        <time>2007-05-30T14:08:43Z</time>
      </trkpt>
      <trkpt lat="48.58732" lon="-2.29572">
        <ele>-1000</ele>
        <time>2007-05-30T14:08:43Z</time>
      </trkpt>
      <trkpt lat="48.58569" lon="-2.2945">
        <ele>-1000</ele>
        <time>2007-05-30T14:08:43Z</time>
      </trkpt>
      <trkpt lat="48.58453" lon="-2.29274">
        <ele>-1000</ele>
        <time>2007-05-30T14:08:43Z</time>
      </trkpt>
      <trkpt lat="48.58469" lon="-2.29233">
        <ele>-1000</ele>
        <time>2007-05-30T14:08:43Z</time>
      </trkpt>
      <trkpt lat="48.58509" lon="-2.29187">
        <ele>-1000</ele>
        <time>2007-05-30T14:08:43Z</time>
      </trkpt>
      <trkpt lat="48.58536" lon="-2.29132">
        <ele>-1000</ele>
        <time>2007-05-30T14:08:43Z</time>
      </trkpt>
      <trkpt lat="48.58533" lon="-2.29065">
        <ele>-1000</ele>
        <time>2007-05-30T14:08:43Z</time>
      </trkpt>
      <trkpt lat="48.58543" lon="-2.29027">
        <ele>-1000</ele>
        <time>2007-05-30T14:08:43Z</time>
      </trkpt>
      <trkpt lat="48.5858" lon="-2.28987">
        <ele>-1000</ele>
        <time>2007-05-30T14:08:43Z</time>
      </trkpt>
      <trkpt lat="48.5859" lon="-2.28932">
        <ele>-1000</ele>
        <time>2007-05-30T14:08:43Z</time>
      </trkpt>
      <trkpt lat="48.58481" lon="-2.28823">
        <ele>-1000</ele>
        <time>2007-05-30T14:08:43Z</time>
      </trkpt>
      <trkpt lat="48.58437" lon="-2.28806">
        <ele>-1000</ele>
        <time>2007-05-30T14:08:43Z</time>
      </trkpt>
      <trkpt lat="48.58434" lon="-2.28778">
        <ele>-1000</ele>
        <time>2007-05-30T14:08:43Z</time>
      </trkpt>
      <trkpt lat="48.58402" lon="-2.28721">
        <ele>-1000</ele>
        <time>2007-05-30T14:08:43Z</time>
      </trkpt>
      <trkpt lat="48.58386" lon="-2.28706">
        <ele>-1000</ele>
        <time>2007-05-30T14:08:43Z</time>
      </trkpt>
      <trkpt lat="48.58356" lon="-2.28624">
        <ele>-1000</ele>
        <time>2007-05-30T14:08:43Z</time>
      </trkpt>
      <trkpt lat="48.58324" lon="-2.28488">
        <ele>-1000</ele>
        <time>2007-05-30T14:08:43Z</time>
      </trkpt>
      <trkpt lat="48.58294" lon="-2.2844">
        <ele>-1000</ele>
        <time>2007-05-30T14:08:43Z</time>
      </trkpt>
      <trkpt lat="48.58296" lon="-2.28408">
        <ele>-1000</ele>
        <time>2007-05-30T14:08:43Z</time>
      </trkpt>
      <trkpt lat="48.58254" lon="-2.28399">
        <ele>-1000</ele>
        <time>2007-05-30T14:08:43Z</time>
      </trkpt>
      <trkpt lat="48.58209" lon="-2.2833">
        <ele>-1000</ele>
        <time>2007-05-30T14:08:43Z</time>
      </trkpt>
      <trkpt lat="48.58182" lon="-2.28248">
        <ele>-1000</ele>
        <time>2007-05-30T14:08:43Z</time>
      </trkpt>
      <trkpt lat="48.58154" lon="-2.28209">
        <ele>-1000</ele>
        <time>2007-05-30T14:08:43Z</time>
      </trkpt>
      <trkpt lat="48.58115" lon="-2.28183">
        <ele>-1000</ele>
        <time>2007-05-30T14:08:43Z</time>
      </trkpt>
      <trkpt lat="48.58052" lon="-2.28085">
        <ele>-1000</ele>
        <time>2007-05-30T14:08:43Z</time>
      </trkpt>
      <trkpt lat="48.57951" lon="-2.27961">
        <ele>-1000</ele>
        <time>2007-05-30T14:08:43Z</time>
      </trkpt>
      <trkpt lat="48.57929" lon="-2.27941">
        <ele>-1000</ele>
        <time>2007-05-30T14:08:43Z</time>
      </trkpt>
      <trkpt lat="48.57899" lon="-2.2793">
        <ele>-1000</ele>
        <time>2007-05-30T14:08:43Z</time>
      </trkpt>
      <trkpt lat="48.57898" lon="-2.27873">
        <ele>-1000</ele>
        <time>2007-05-30T14:08:43Z</time>
      </trkpt>
      <trkpt lat="48.57876" lon="-2.27744">
        <ele>-1000</ele>
        <time>2007-05-30T14:08:43Z</time>
      </trkpt>
      <trkpt lat="48.57881" lon="-2.27686">
        <ele>-1000</ele>
        <time>2007-05-30T14:08:43Z</time>
      </trkpt>
      <trkpt lat="48.5791" lon="-2.27549">
        <ele>-1000</ele>
        <time>2007-05-30T14:08:43Z</time>
      </trkpt>
      <trkpt lat="48.57892" lon="-2.27518">
        <ele>-1000</ele>
        <time>2007-05-30T14:08:43Z</time>
      </trkpt>
      <trkpt lat="48.57859" lon="-2.27503">
        <ele>-1000</ele>
        <time>2007-05-30T14:08:43Z</time>
      </trkpt>
      <trkpt lat="48.57837" lon="-2.27465">
        <ele>-1000</ele>
        <time>2007-05-30T14:08:43Z</time>
      </trkpt>
      <trkpt lat="48.5776" lon="-2.2742">
        <ele>-1000</ele>
        <time>2007-05-30T14:08:43Z</time>
      </trkpt>
      <trkpt lat="48.5769" lon="-2.2722">
        <ele>-1000</ele>
        <time>2007-05-30T14:08:43Z</time>
      </trkpt>
      <trkpt lat="48.57651" lon="-2.27154">
        <ele>-1000</ele>
        <time>2007-05-30T14:08:43Z</time>
      </trkpt>
      <trkpt lat="48.57625" lon="-2.27048">
        <ele>-1000</ele>
        <time>2007-05-30T14:08:43Z</time>
      </trkpt>
      <trkpt lat="48.57584" lon="-2.26925">
        <ele>-1000</ele>
        <time>2007-05-30T14:08:43Z</time>
      </trkpt>
      <trkpt lat="48.57557" lon="-2.26877">
        <ele>-1000</ele>
        <time>2007-05-30T14:08:43Z</time>
      </trkpt>
      <trkpt lat="48.57515" lon="-2.26821">
        <ele>-1000</ele>
        <time>2007-05-30T14:08:43Z</time>
      </trkpt>
      <trkpt lat="48.57453" lon="-2.26618">
        <ele>-1000</ele>
        <time>2007-05-30T14:08:43Z</time>
      </trkpt>
      <trkpt lat="48.57436" lon="-2.26478">
        <ele>-1000</ele>
        <time>2007-05-30T14:08:43Z</time>
      </trkpt>
      <trkpt lat="48.57436" lon="-2.26382">
        <ele>-1000</ele>
        <time>2007-05-30T14:08:43Z</time>
      </trkpt>
      <trkpt lat="48.57442" lon="-2.26337">
        <ele>-1000</ele>
        <time>2007-05-30T14:08:43Z</time>
      </trkpt>
      <trkpt lat="48.57427" lon="-2.26192">
        <ele>-1000</ele>
        <time>2007-05-30T14:08:43Z</time>
      </trkpt>
      <trkpt lat="48.57386" lon="-2.26013">
        <ele>-1000</ele>
        <time>2007-05-30T14:08:43Z</time>
      </trkpt>
      <trkpt lat="48.57146" lon="-2.25502">
        <ele>-1000</ele>
        <time>2007-05-30T14:08:43Z</time>
      </trkpt>
      <trkpt lat="48.57025" lon="-2.25507">
        <ele>-1000</ele>
        <time>2007-05-30T14:08:43Z</time>
      </trkpt>
      <trkpt lat="48.56995" lon="-2.25489">
        <ele>-1000</ele>
        <time>2007-05-30T14:08:43Z</time>
      </trkpt>
      <trkpt lat="48.56955" lon="-2.25393">
        <ele>-1000</ele>
        <time>2007-05-30T14:08:43Z</time>
      </trkpt>
      <trkpt lat="48.56943" lon="-2.25303">
        <ele>-1000</ele>
        <time>2007-05-30T14:08:43Z</time>
      </trkpt>
      <trkpt lat="48.56965" lon="-2.25218">
        <ele>-1000</ele>
        <time>2007-05-30T14:08:43Z</time>
      </trkpt>
      <trkpt lat="48.57091" lon="-2.24945">
        <ele>-1000</ele>
        <time>2007-05-30T14:08:43Z</time>
      </trkpt>
      <trkpt lat="48.5709" lon="-2.24882">
        <ele>-1000</ele>
        <time>2007-05-30T14:08:43Z</time>
      </trkpt>
      <trkpt lat="48.57025" lon="-2.24736">
        <ele>-1000</ele>
        <time>2007-05-30T14:08:43Z</time>
      </trkpt>
      <trkpt lat="48.57016" lon="-2.24692">
        <ele>-1000</ele>
        <time>2007-05-30T14:08:43Z</time>
      </trkpt>
      <trkpt lat="48.57028" lon="-2.24647">
        <ele>-1000</ele>
        <time>2007-05-30T14:08:43Z</time>
      </trkpt>
      <trkpt lat="48.57196" lon="-2.24439">
        <ele>-1000</ele>
        <time>2007-05-30T14:08:43Z</time>
      </trkpt>
      <trkpt lat="48.57267" lon="-2.24377">
        <ele>-1000</ele>
        <time>2007-05-30T14:08:43Z</time>
      </trkpt>
      <trkpt lat="48.57322" lon="-2.2437">
        <ele>-1000</ele>
        <time>2007-05-30T14:08:43Z</time>
      </trkpt>
      <trkpt lat="48.57344" lon="-2.24354">
        <ele>-1000</ele>
        <time>2007-05-30T14:08:43Z</time>
      </trkpt>
      <trkpt lat="48.57354" lon="-2.24319">
        <ele>-1000</ele>
        <time>2007-05-30T14:08:43Z</time>
      </trkpt>
      <trkpt lat="48.57432" lon="-2.24266">
        <ele>-1000</ele>
        <time>2007-05-30T14:08:43Z</time>
      </trkpt>
      <trkpt lat="48.57463" lon="-2.24182">
        <ele>-1000</ele>
        <time>2007-05-30T14:08:43Z</time>
      </trkpt>
      <trkpt lat="48.57475" lon="-2.24088">
        <ele>-1000</ele>
        <time>2007-05-30T14:08:43Z</time>
      </trkpt>
      <trkpt lat="48.57452" lon="-2.23913">
        <ele>-1000</ele>
        <time>2007-05-30T14:08:43Z</time>
      </trkpt>
      <trkpt lat="48.57444" lon="-2.23933">
        <ele>-1000</ele>
        <time>2007-05-30T14:08:43Z</time>
      </trkpt>
      <trkpt lat="48.57376" lon="-2.23794">
        <ele>-1000</ele>
        <time>2007-05-30T14:08:43Z</time>
      </trkpt>
      <trkpt lat="48.57363" lon="-2.23734">
        <ele>-1000</ele>
        <time>2007-05-30T14:08:43Z</time>
      </trkpt>
      <trkpt lat="48.57373" lon="-2.23695">
        <ele>-1000</ele>
        <time>2007-05-30T14:08:43Z</time>
      </trkpt>
      <trkpt lat="48.57351" lon="-2.23672">
        <ele>-1000</ele>
        <time>2007-05-30T14:08:43Z</time>
      </trkpt>
      <trkpt lat="48.57315" lon="-2.23699">
        <ele>-1000</ele>
        <time>2007-05-30T14:08:43Z</time>
      </trkpt>
      <trkpt lat="48.56712" lon="-2.23638">
        <ele>-1000</ele>
        <time>2007-05-30T14:08:43Z</time>
      </trkpt>
      <trkpt lat="48.56807" lon="-2.2345">
        <ele>-1000</ele>
        <time>2007-05-30T14:08:43Z</time>
      </trkpt>
      <trkpt lat="48.56884" lon="-2.23257">
        <ele>-1000</ele>
        <time>2007-05-30T14:08:43Z</time>
      </trkpt>
      <trkpt lat="48.56895" lon="-2.23177">
        <ele>-1000</ele>
        <time>2007-05-30T14:08:43Z</time>
      </trkpt>
      <trkpt lat="48.56902" lon="-2.23123">
        <ele>-1000</ele>
        <time>2007-05-30T14:08:43Z</time>
      </trkpt>
      <trkpt lat="48.5687" lon="-2.23101">
        <ele>-1000</ele>
        <time>2007-05-30T14:08:43Z</time>
      </trkpt>
      <trkpt lat="48.56902" lon="-2.22845">
        <ele>-1000</ele>
        <time>2007-05-30T14:08:43Z</time>
      </trkpt>
      <trkpt lat="48.56934" lon="-2.2278">
        <ele>-1000</ele>
        <time>2007-05-30T14:08:43Z</time>
      </trkpt>
      <trkpt lat="48.56926" lon="-2.22706">
        <ele>-1000</ele>
        <time>2007-05-30T14:08:43Z</time>
      </trkpt>
      <trkpt lat="48.56954" lon="-2.22708">
        <ele>-1000</ele>
        <time>2007-05-30T14:08:43Z</time>
      </trkpt>
      <trkpt lat="48.56964" lon="-2.22752">
        <ele>-1000</ele>
        <time>2007-05-30T14:08:43Z</time>
      </trkpt>
      <trkpt lat="48.56989" lon="-2.22755">
        <ele>-1000</ele>
        <time>2007-05-30T14:08:43Z</time>
      </trkpt>
      <trkpt lat="48.56995" lon="-2.22611">
        <ele>-1000</ele>
        <time>2007-05-30T14:08:43Z</time>
      </trkpt>
      <trkpt lat="48.57061" lon="-2.22586">
        <ele>-1000</ele>
        <time>2007-05-30T14:08:43Z</time>
      </trkpt>
      <trkpt lat="48.57068" lon="-2.22525">
        <ele>-1000</ele>
        <time>2007-05-30T14:08:43Z</time>
      </trkpt>
      <trkpt lat="48.57078" lon="-2.22494">
        <ele>-1000</ele>
        <time>2007-05-30T14:08:43Z</time>
      </trkpt>
      <trkpt lat="48.57159" lon="-2.22474">
        <ele>-1000</ele>
        <time>2007-05-30T14:08:43Z</time>
      </trkpt>
      <trkpt lat="48.57175" lon="-2.22486">
        <ele>-1000</ele>
        <time>2007-05-30T14:08:43Z</time>
      </trkpt>
      <trkpt lat="48.57225" lon="-2.22393">
        <ele>-1000</ele>
        <time>2007-05-30T14:08:43Z</time>
      </trkpt>
      <trkpt lat="48.5724" lon="-2.22351">
        <ele>-1000</ele>
        <time>2007-05-30T14:08:43Z</time>
      </trkpt>
      <trkpt lat="48.5724" lon="-2.22309">
        <ele>-1000</ele>
        <time>2007-05-30T14:08:43Z</time>
      </trkpt>
      <trkpt lat="48.57217" lon="-2.22209">
        <ele>-1000</ele>
        <time>2007-05-30T14:08:43Z</time>
      </trkpt>
      <trkpt lat="48.57206" lon="-2.22148">
        <ele>-1000</ele>
        <time>2007-05-30T14:08:43Z</time>
      </trkpt>
      <trkpt lat="48.57209" lon="-2.22059">
        <ele>-1000</ele>
        <time>2007-05-30T14:08:43Z</time>
      </trkpt>
      <trkpt lat="48.57225" lon="-2.21995">
        <ele>-1000</ele>
        <time>2007-05-30T14:08:43Z</time>
      </trkpt>
      <trkpt lat="48.57259" lon="-2.21945">
        <ele>-1000</ele>
        <time>2007-05-30T14:08:43Z</time>
      </trkpt>
      <trkpt lat="48.57334" lon="-2.21868">
        <ele>-1000</ele>
        <time>2007-05-30T14:08:43Z</time>
      </trkpt>
      <trkpt lat="48.57369" lon="-2.2181">
        <ele>-1000</ele>
        <time>2007-05-30T14:08:43Z</time>
      </trkpt>
      <trkpt lat="48.57394" lon="-2.21725">
        <ele>-1000</ele>
        <time>2007-05-30T14:08:43Z</time>
      </trkpt>
      <trkpt lat="48.57418" lon="-2.21598">
        <ele>-1000</ele>
        <time>2007-05-30T14:08:43Z</time>
      </trkpt>
      <trkpt lat="48.57418" lon="-2.21553">
        <ele>-1000</ele>
        <time>2007-05-30T14:08:43Z</time>
      </trkpt>
      <trkpt lat="48.57399" lon="-2.21503">
        <ele>-1000</ele>
        <time>2007-05-30T14:08:43Z</time>
      </trkpt>
      <trkpt lat="48.57418" lon="-2.21429">
        <ele>-1000</ele>
        <time>2007-05-30T14:08:43Z</time>
      </trkpt>
      <trkpt lat="48.57145" lon="-2.21238">
        <ele>-1000</ele>
        <time>2007-05-30T14:08:43Z</time>
      </trkpt>
      <trkpt lat="48.57166" lon="-2.21208">
        <ele>-1000</ele>
        <time>2007-05-30T14:08:43Z</time>
      </trkpt>
      <trkpt lat="48.57179" lon="-2.21159">
        <ele>-1000</ele>
        <time>2007-05-30T14:08:43Z</time>
      </trkpt>
      <trkpt lat="48.57197" lon="-2.21134">
        <ele>-1000</ele>
        <time>2007-05-30T14:08:43Z</time>
      </trkpt>
      <trkpt lat="48.57257" lon="-2.21128">
        <ele>-1000</ele>
        <time>2007-05-30T14:08:43Z</time>
      </trkpt>
      <trkpt lat="48.57277" lon="-2.21093">
        <ele>-1000</ele>
        <time>2007-05-30T14:08:43Z</time>
      </trkpt>
      <trkpt lat="48.5728" lon="-2.21028">
        <ele>-1000</ele>
        <time>2007-05-30T14:08:43Z</time>
      </trkpt>
      <trkpt lat="48.5727" lon="-2.20846">
        <ele>-1000</ele>
        <time>2007-05-30T14:08:43Z</time>
      </trkpt>
      <trkpt lat="48.57241" lon="-2.20716">
        <ele>-1000</ele>
        <time>2007-05-30T14:08:43Z</time>
      </trkpt>
      <trkpt lat="48.57207" lon="-2.20625">
        <ele>-1000</ele>
        <time>2007-05-30T14:08:43Z</time>
      </trkpt>
      <trkpt lat="48.57202" lon="-2.2057">
        <ele>-1000</ele>
        <time>2007-05-30T14:08:43Z</time>
      </trkpt>
      <trkpt lat="48.57222" lon="-2.20505">
        <ele>-1000</ele>
        <time>2007-05-30T14:08:43Z</time>
      </trkpt>
      <trkpt lat="48.57221" lon="-2.20244">
        <ele>-1000</ele>
        <time>2007-05-30T14:08:43Z</time>
      </trkpt>
      <trkpt lat="48.57199" lon="-2.20042">
        <ele>-1000</ele>
        <time>2007-05-30T14:08:43Z</time>
      </trkpt>
      <trkpt lat="48.57204" lon="-2.20007">
        <ele>-1000</ele>
        <time>2007-05-30T14:08:43Z</time>
      </trkpt>
      <trkpt lat="48.57235" lon="-2.19965">
        <ele>-1000</ele>
        <time>2007-05-30T14:08:43Z</time>
      </trkpt>
      <trkpt lat="48.57381" lon="-2.19543">
        <ele>-1000</ele>
        <time>2007-05-30T14:08:43Z</time>
      </trkpt>
      <trkpt lat="48.57409" lon="-2.1944">
        <ele>-1000</ele>
        <time>2007-05-30T14:08:43Z</time>
      </trkpt>
      <trkpt lat="48.57456" lon="-2.1933">
        <ele>-1000</ele>
        <time>2007-05-30T14:08:43Z</time>
      </trkpt>
      <trkpt lat="48.57517" lon="-2.19084">
        <ele>-1000</ele>
        <time>2007-05-30T14:08:43Z</time>
      </trkpt>
      <trkpt lat="48.57472" lon="-2.19063">
        <ele>-1000</ele>
        <time>2007-05-30T14:08:43Z</time>
      </trkpt>
      <trkpt lat="48.57431" lon="-2.19033">
        <ele>-1000</ele>
        <time>2007-05-30T14:08:43Z</time>
      </trkpt>
      <trkpt lat="48.57335" lon="-2.19006">
        <ele>-1000</ele>
        <time>2007-05-30T14:08:43Z</time>
      </trkpt>
      <trkpt lat="48.57289" lon="-2.18978">
        <ele>-1000</ele>
        <time>2007-05-30T14:08:43Z</time>
      </trkpt>
      <trkpt lat="48.57236" lon="-2.18917">
        <ele>-1000</ele>
        <time>2007-05-30T14:08:43Z</time>
      </trkpt>
      <trkpt lat="48.57208" lon="-2.18866">
        <ele>-1000</ele>
        <time>2007-05-30T14:08:43Z</time>
      </trkpt>
      <trkpt lat="48.57114" lon="-2.18797">
        <ele>-1000</ele>
        <time>2007-05-30T14:08:43Z</time>
      </trkpt>
      <trkpt lat="48.57127" lon="-2.18532">
        <ele>-1000</ele>
        <time>2007-05-30T14:08:43Z</time>
      </trkpt>
      <trkpt lat="48.5715" lon="-2.18318">
        <ele>-1000</ele>
        <time>2007-05-30T14:08:43Z</time>
      </trkpt>
      <trkpt lat="48.57166" lon="-2.18244">
        <ele>-1000</ele>
        <time>2007-05-30T14:08:43Z</time>
      </trkpt>
      <trkpt lat="48.57142" lon="-2.18221">
        <ele>-1000</ele>
        <time>2007-05-30T14:08:43Z</time>
      </trkpt>
      <trkpt lat="48.57112" lon="-2.18219">
        <ele>-1000</ele>
        <time>2007-05-30T14:08:43Z</time>
      </trkpt>
      <trkpt lat="48.57121" lon="-2.1811">
        <ele>-1000</ele>
        <time>2007-05-30T14:08:43Z</time>
      </trkpt>
      <trkpt lat="48.57164" lon="-2.17999">
        <ele>-1000</ele>
        <time>2007-05-30T14:08:43Z</time>
      </trkpt>
      <trkpt lat="48.57224" lon="-2.17774">
        <ele>-1000</ele>
        <time>2007-05-30T14:08:43Z</time>
      </trkpt>
      <trkpt lat="48.57275" lon="-2.17636">
        <ele>-1000</ele>
        <time>2007-05-30T14:08:43Z</time>
      </trkpt>
      <trkpt lat="48.57352" lon="-2.17534">
        <ele>-1000</ele>
        <time>2007-05-30T14:08:43Z</time>
      </trkpt>
      <trkpt lat="48.57371" lon="-2.17495">
        <ele>-1000</ele>
        <time>2007-05-30T14:08:43Z</time>
      </trkpt>
      <trkpt lat="48.5743" lon="-2.17444">
        <ele>-1000</ele>
        <time>2007-05-30T14:08:43Z</time>
      </trkpt>
      <trkpt lat="48.57392" lon="-2.17167">
        <ele>-1000</ele>
        <time>2007-05-30T14:08:43Z</time>
      </trkpt>
      <trkpt lat="48.57608" lon="-2.16942">
        <ele>-1000</ele>
        <time>2007-05-30T14:08:43Z</time>
      </trkpt>
      <trkpt lat="48.57609" lon="-2.1686">
        <ele>-1000</ele>
        <time>2007-05-30T14:08:43Z</time>
      </trkpt>
      <trkpt lat="48.57603" lon="-2.16805">
        <ele>-1000</ele>
        <time>2007-05-30T14:08:43Z</time>
      </trkpt>
      <trkpt lat="48.57643" lon="-2.1675">
        <ele>-1000</ele>
        <time>2007-05-30T14:08:43Z</time>
      </trkpt>
      <trkpt lat="48.57673" lon="-2.16758">
        <ele>-1000</ele>
        <time>2007-05-30T14:08:43Z</time>
      </trkpt>
      <trkpt lat="48.57704" lon="-2.16733">
        <ele>-1000</ele>
        <time>2007-05-30T14:08:43Z</time>
      </trkpt>
      <trkpt lat="48.57703" lon="-2.16551">
        <ele>-1000</ele>
        <time>2007-05-30T14:08:43Z</time>
      </trkpt>
      <trkpt lat="48.57737" lon="-2.16514">
        <ele>-1000</ele>
        <time>2007-05-30T14:08:43Z</time>
      </trkpt>
      <trkpt lat="48.57766" lon="-2.16517">
        <ele>-1000</ele>
        <time>2007-05-30T14:08:43Z</time>
      </trkpt>
      <trkpt lat="48.57888" lon="-2.16431">
        <ele>-1000</ele>
        <time>2007-05-30T14:08:43Z</time>
      </trkpt>
      <trkpt lat="48.57961" lon="-2.16431">
        <ele>-1000</ele>
        <time>2007-05-30T14:08:43Z</time>
      </trkpt>
      <trkpt lat="48.58161" lon="-2.16628">
        <ele>-1000</ele>
        <time>2007-05-30T14:08:43Z</time>
      </trkpt>
      <trkpt lat="48.58199" lon="-2.1661">
        <ele>-1000</ele>
        <time>2007-05-30T14:08:43Z</time>
      </trkpt>
      <trkpt lat="48.58271" lon="-2.16388">
        <ele>-1000</ele>
        <time>2007-05-30T14:08:43Z</time>
      </trkpt>
      <trkpt lat="48.58353" lon="-2.16287">
        <ele>-1000</ele>
        <time>2007-05-30T14:08:43Z</time>
      </trkpt>
      <trkpt lat="48.58584" lon="-2.16131">
        <ele>-1000</ele>
        <time>2007-05-30T14:08:43Z</time>
      </trkpt>
      <trkpt lat="48.58666" lon="-2.16016">
        <ele>-1000</ele>
        <time>2007-05-30T14:08:43Z</time>
      </trkpt>
      <trkpt lat="48.58723" lon="-2.15875">
        <ele>-1000</ele>
        <time>2007-05-30T14:08:43Z</time>
      </trkpt>
      <trkpt lat="48.58701" lon="-2.15717">
        <ele>-1000</ele>
        <time>2007-05-30T14:08:43Z</time>
      </trkpt>
      <trkpt lat="48.58705" lon="-2.15638">
        <ele>-1000</ele>
        <time>2007-05-30T14:08:43Z</time>
      </trkpt>
      <trkpt lat="48.58725" lon="-2.15594">
        <ele>-1000</ele>
        <time>2007-05-30T14:08:43Z</time>
      </trkpt>
      <trkpt lat="48.58727" lon="-2.1548">
        <ele>-1000</ele>
        <time>2007-05-30T14:08:43Z</time>
      </trkpt>
      <trkpt lat="48.58721" lon="-2.1539">
        <ele>-1000</ele>
        <time>2007-05-30T14:08:43Z</time>
      </trkpt>
      <trkpt lat="48.58701" lon="-2.15367">
        <ele>-1000</ele>
        <time>2007-05-30T14:08:43Z</time>
      </trkpt>
      <trkpt lat="48.58659" lon="-2.1537">
        <ele>-1000</ele>
        <time>2007-05-30T14:08:43Z</time>
      </trkpt>
      <trkpt lat="48.58604" lon="-2.15356">
        <ele>-1000</ele>
        <time>2007-05-30T14:08:43Z</time>
      </trkpt>
      <trkpt lat="48.58553" lon="-2.15283">
        <ele>-1000</ele>
        <time>2007-05-30T14:08:43Z</time>
      </trkpt>
      <trkpt lat="48.58558" lon="-2.15155">
        <ele>-1000</ele>
        <time>2007-05-30T14:08:43Z</time>
      </trkpt>
      <trkpt lat="48.58591" lon="-2.15057">
        <ele>-1000</ele>
        <time>2007-05-30T14:08:43Z</time>
      </trkpt>
      <trkpt lat="48.58598" lon="-2.14953">
        <ele>-1000</ele>
        <time>2007-05-30T14:08:43Z</time>
      </trkpt>
      <trkpt lat="48.58667" lon="-2.14855">
        <ele>-1000</ele>
        <time>2007-05-30T14:08:43Z</time>
      </trkpt>
      <trkpt lat="48.58696" lon="-2.14733">
        <ele>-1000</ele>
        <time>2007-05-30T14:08:43Z</time>
      </trkpt>
      <trkpt lat="48.58698" lon="-2.14639">
        <ele>-1000</ele>
        <time>2007-05-30T14:08:43Z</time>
      </trkpt>
      <trkpt lat="48.58666" lon="-2.14586">
        <ele>-1000</ele>
        <time>2007-05-30T14:08:43Z</time>
      </trkpt>
      <trkpt lat="48.58597" lon="-2.14573">
        <ele>-1000</ele>
        <time>2007-05-30T14:08:43Z</time>
      </trkpt>
      <trkpt lat="48.58609" lon="-2.14501">
        <ele>-1000</ele>
        <time>2007-05-30T14:08:43Z</time>
      </trkpt>
      <trkpt lat="48.58659" lon="-2.14409">
        <ele>-1000</ele>
        <time>2007-05-30T14:08:43Z</time>
      </trkpt>
      <trkpt lat="48.58721" lon="-2.1431">
        <ele>-1000</ele>
        <time>2007-05-30T14:08:43Z</time>
      </trkpt>
      <trkpt lat="48.58748" lon="-2.14228">
        <ele>-1000</ele>
        <time>2007-05-30T14:08:43Z</time>
      </trkpt>
      <trkpt lat="48.58822" lon="-2.14359">
        <ele>-1000</ele>
        <time>2007-05-30T14:08:43Z</time>
      </trkpt>
      <trkpt lat="48.58865" lon="-2.14386">
        <ele>-1000</ele>
        <time>2007-05-30T14:08:43Z</time>
      </trkpt>
      <trkpt lat="48.58868" lon="-2.14355">
        <ele>-1000</ele>
        <time>2007-05-30T14:08:43Z</time>
      </trkpt>
      <trkpt lat="48.58924" lon="-2.14235">
        <ele>-1000</ele>
        <time>2007-05-30T14:08:43Z</time>
      </trkpt>
      <trkpt lat="48.58949" lon="-2.14101">
        <ele>-1000</ele>
        <time>2007-05-30T14:08:43Z</time>
      </trkpt>
      <trkpt lat="48.58911" lon="-2.14013">
        <ele>-1000</ele>
        <time>2007-05-30T14:08:43Z</time>
      </trkpt>
      <trkpt lat="48.58863" lon="-2.13513">
        <ele>-1000</ele>
        <time>2007-05-30T14:08:43Z</time>
      </trkpt>
      <trkpt lat="48.58844" lon="-2.13487">
        <ele>-1000</ele>
        <time>2007-05-30T14:08:43Z</time>
      </trkpt>
      <trkpt lat="48.58805" lon="-2.13477">
        <ele>-1000</ele>
        <time>2007-05-30T14:08:43Z</time>
      </trkpt>
      <trkpt lat="48.5869" lon="-2.13394">
        <ele>-1000</ele>
        <time>2007-05-30T14:08:43Z</time>
      </trkpt>
      <trkpt lat="48.58566" lon="-2.13257">
        <ele>-1000</ele>
        <time>2007-05-30T14:08:43Z</time>
      </trkpt>
      <trkpt lat="48.58437" lon="-2.13144">
        <ele>-1000</ele>
        <time>2007-05-30T14:08:43Z</time>
      </trkpt>
      <trkpt lat="48.58178" lon="-2.13152">
        <ele>-1000</ele>
        <time>2007-05-30T14:08:43Z</time>
      </trkpt>
      <trkpt lat="48.58088" lon="-2.13191">
        <ele>-1000</ele>
        <time>2007-05-30T14:08:43Z</time>
      </trkpt>
      <trkpt lat="48.58054" lon="-2.1319">
        <ele>-1000</ele>
        <time>2007-05-30T14:08:43Z</time>
      </trkpt>
      <trkpt lat="48.57964" lon="-2.13097">
        <ele>-1000</ele>
        <time>2007-05-30T14:08:43Z</time>
      </trkpt>
      <trkpt lat="48.57887" lon="-2.13032">
        <ele>-1000</ele>
        <time>2007-05-30T14:08:43Z</time>
      </trkpt>
      <trkpt lat="48.57853" lon="-2.12988">
        <ele>-1000</ele>
        <time>2007-05-30T14:08:43Z</time>
      </trkpt>
      <trkpt lat="48.57695" lon="-2.12672">
        <ele>-1000</ele>
        <time>2007-05-30T14:08:43Z</time>
      </trkpt>
      <trkpt lat="48.57692" lon="-2.12626">
        <ele>-1000</ele>
        <time>2007-05-30T14:08:43Z</time>
      </trkpt>
      <trkpt lat="48.57706" lon="-2.12582">
        <ele>-1000</ele>
        <time>2007-05-30T14:08:43Z</time>
      </trkpt>
      <trkpt lat="48.57839" lon="-2.12621">
        <ele>-1000</ele>
        <time>2007-05-30T14:08:43Z</time>
      </trkpt>
      <trkpt lat="48.57893" lon="-2.12684">
        <ele>-1000</ele>
        <time>2007-05-30T14:08:43Z</time>
      </trkpt>
      <trkpt lat="48.58108" lon="-2.12418">
        <ele>-1000</ele>
        <time>2007-05-30T14:08:43Z</time>
      </trkpt>
      <trkpt lat="48.58068" lon="-2.12188">
        <ele>-1000</ele>
        <time>2007-05-30T14:08:43Z</time>
      </trkpt>
      <trkpt lat="48.58041" lon="-2.12083">
        <ele>-1000</ele>
        <time>2007-05-30T14:08:43Z</time>
      </trkpt>
      <trkpt lat="48.57974" lon="-2.11935">
        <ele>-1000</ele>
        <time>2007-05-30T14:08:43Z</time>
      </trkpt>
      <trkpt lat="48.57999" lon="-2.11869">
        <ele>-1000</ele>
        <time>2007-05-30T14:08:43Z</time>
      </trkpt>
      <trkpt lat="48.58015" lon="-2.1177">
        <ele>-1000</ele>
        <time>2007-05-30T14:08:43Z</time>
      </trkpt>
      <trkpt lat="48.58104" lon="-2.11738">
        <ele>-1000</ele>
        <time>2007-05-30T14:08:43Z</time>
      </trkpt>
      <trkpt lat="48.58194" lon="-2.11685">
        <ele>-1000</ele>
        <time>2007-05-30T14:08:43Z</time>
      </trkpt>
      <trkpt lat="48.58281" lon="-2.11591">
        <ele>-1000</ele>
        <time>2007-05-30T14:08:43Z</time>
      </trkpt>
      <trkpt lat="48.58294" lon="-2.11532">
        <ele>-1000</ele>
        <time>2007-05-30T14:08:43Z</time>
      </trkpt>
      <trkpt lat="48.58176" lon="-2.11442">
        <ele>-1000</ele>
        <time>2007-05-30T14:08:43Z</time>
      </trkpt>
      <trkpt lat="48.58267" lon="-2.11421">
        <ele>-1000</ele>
        <time>2007-05-30T14:08:43Z</time>
      </trkpt>
      <trkpt lat="48.58319" lon="-2.11383">
        <ele>-1000</ele>
        <time>2007-05-30T14:08:43Z</time>
      </trkpt>
      <trkpt lat="48.58351" lon="-2.11286">
        <ele>-1000</ele>
        <time>2007-05-30T14:08:43Z</time>
      </trkpt>
      <trkpt lat="48.58361" lon="-2.1112">
        <ele>-1000</ele>
        <time>2007-05-30T14:08:43Z</time>
      </trkpt>
      <trkpt lat="48.58294" lon="-2.11148">
        <ele>-1000</ele>
        <time>2007-05-30T14:08:43Z</time>
      </trkpt>
      <trkpt lat="48.58177" lon="-2.11104">
        <ele>-1000</ele>
        <time>2007-05-30T14:08:43Z</time>
      </trkpt>
      <trkpt lat="48.58089" lon="-2.10996">
        <ele>-1000</ele>
        <time>2007-05-30T14:08:43Z</time>
      </trkpt>
      <trkpt lat="48.58082" lon="-2.10917">
        <ele>-1000</ele>
        <time>2007-05-30T14:08:43Z</time>
      </trkpt>
      <trkpt lat="48.57969" lon="-2.10885">
        <ele>-1000</ele>
        <time>2007-05-30T14:08:43Z</time>
      </trkpt>
      <trkpt lat="48.57977" lon="-2.10805">
        <ele>-1000</ele>
        <time>2007-05-30T14:08:43Z</time>
      </trkpt>
      <trkpt lat="48.57961" lon="-2.10682">
        <ele>-1000</ele>
        <time>2007-05-30T14:08:43Z</time>
      </trkpt>
      <trkpt lat="48.5784" lon="-2.10611">
        <ele>-1000</ele>
        <time>2007-05-30T14:08:43Z</time>
      </trkpt>
      <trkpt lat="48.57869" lon="-2.10543">
        <ele>-1000</ele>
        <time>2007-05-30T14:08:43Z</time>
      </trkpt>
      <trkpt lat="48.57867" lon="-2.10499">
        <ele>-1000</ele>
        <time>2007-05-30T14:08:43Z</time>
      </trkpt>
      <trkpt lat="48.57843" lon="-2.10461">
        <ele>-1000</ele>
        <time>2007-05-30T14:08:43Z</time>
      </trkpt>
      <trkpt lat="48.57811" lon="-2.1043">
        <ele>-1000</ele>
        <time>2007-05-30T14:08:43Z</time>
      </trkpt>
      <trkpt lat="48.57804" lon="-2.10392">
        <ele>-1000</ele>
        <time>2007-05-30T14:08:43Z</time>
      </trkpt>
      <trkpt lat="48.57781" lon="-2.10397">
        <ele>-1000</ele>
        <time>2007-05-30T14:08:43Z</time>
      </trkpt>
      <trkpt lat="48.57592" lon="-2.10316">
        <ele>-1000</ele>
        <time>2007-05-30T14:08:43Z</time>
      </trkpt>
      <trkpt lat="48.57562" lon="-2.10323">
        <ele>-1000</ele>
        <time>2007-05-30T14:08:43Z</time>
      </trkpt>
      <trkpt lat="48.57509" lon="-2.10372">
        <ele>-1000</ele>
        <time>2007-05-30T14:08:43Z</time>
      </trkpt>
      <trkpt lat="48.57495" lon="-2.10337">
        <ele>-1000</ele>
        <time>2007-05-30T14:08:43Z</time>
      </trkpt>
      <trkpt lat="48.57531" lon="-2.10247">
        <ele>-1000</ele>
        <time>2007-05-30T14:08:43Z</time>
      </trkpt>
      <trkpt lat="48.5753" lon="-2.10217">
        <ele>-1000</ele>
        <time>2007-05-30T14:08:43Z</time>
      </trkpt>
      <trkpt lat="48.57518" lon="-2.10117">
        <ele>-1000</ele>
        <time>2007-05-30T14:08:43Z</time>
      </trkpt>
      <trkpt lat="48.57538" lon="-2.10026">
        <ele>-1000</ele>
        <time>2007-05-30T14:08:43Z</time>
      </trkpt>
      <trkpt lat="48.57597" lon="-2.09926">
        <ele>-1000</ele>
        <time>2007-05-30T14:08:43Z</time>
      </trkpt>
      <trkpt lat="48.57602" lon="-2.09845">
        <ele>-1000</ele>
        <time>2007-05-30T14:08:43Z</time>
      </trkpt>
      <trkpt lat="48.57522" lon="-2.09773">
        <ele>-1000</ele>
        <time>2007-05-30T14:08:43Z</time>
      </trkpt>
      <trkpt lat="48.57423" lon="-2.09719">
        <ele>-1000</ele>
        <time>2007-05-30T14:08:43Z</time>
      </trkpt>
      <trkpt lat="48.57336" lon="-2.09594">
        <ele>-1000</ele>
        <time>2007-05-30T14:08:43Z</time>
      </trkpt>
      <trkpt lat="48.57298" lon="-2.09565">
        <ele>-1000</ele>
        <time>2007-05-30T14:08:43Z</time>
      </trkpt>
      <trkpt lat="48.57256" lon="-2.09693">
        <ele>-1000</ele>
        <time>2007-05-30T14:08:43Z</time>
      </trkpt>
      <trkpt lat="48.57225" lon="-2.09696">
        <ele>-1000</ele>
        <time>2007-05-30T14:08:43Z</time>
      </trkpt>
      <trkpt lat="48.57139" lon="-2.09732">
        <ele>-1000</ele>
        <time>2007-05-30T14:08:43Z</time>
      </trkpt>
      <trkpt lat="48.57123" lon="-2.09941">
        <ele>-1000</ele>
        <time>2007-05-30T14:08:43Z</time>
      </trkpt>
      <trkpt lat="48.5707" lon="-2.10057">
        <ele>-1000</ele>
        <time>2007-05-30T14:08:43Z</time>
      </trkpt>
      <trkpt lat="48.56986" lon="-2.10076">
        <ele>-1000</ele>
        <time>2007-05-30T14:08:43Z</time>
      </trkpt>
      <trkpt lat="48.5694" lon="-2.1003">
        <ele>-1000</ele>
        <time>2007-05-30T14:08:43Z</time>
      </trkpt>
      <trkpt lat="48.57039" lon="-2.09943">
        <ele>-1000</ele>
        <time>2007-05-30T14:08:43Z</time>
      </trkpt>
      <trkpt lat="48.57053" lon="-2.09897">
        <ele>-1000</ele>
        <time>2007-05-30T14:08:43Z</time>
      </trkpt>
      <trkpt lat="48.57042" lon="-2.09709">
        <ele>-1000</ele>
        <time>2007-05-30T14:08:43Z</time>
      </trkpt>
      <trkpt lat="48.57004" lon="-2.09581">
        <ele>-1000</ele>
        <time>2007-05-30T14:08:43Z</time>
      </trkpt>
      <trkpt lat="48.5694" lon="-2.09552">
        <ele>-1000</ele>
        <time>2007-05-30T14:08:43Z</time>
      </trkpt>
      <trkpt lat="48.56967" lon="-2.09481">
        <ele>-1000</ele>
        <time>2007-05-30T14:08:43Z</time>
      </trkpt>
      <trkpt lat="48.56892" lon="-2.09283">
        <ele>-1000</ele>
        <time>2007-05-30T14:08:43Z</time>
      </trkpt>
      <trkpt lat="48.56755" lon="-2.0928">
        <ele>-1000</ele>
        <time>2007-05-30T14:08:43Z</time>
      </trkpt>
      <trkpt lat="48.56572" lon="-2.09363">
        <ele>-1000</ele>
        <time>2007-05-30T14:08:43Z</time>
      </trkpt>
      <trkpt lat="48.56566" lon="-2.09398">
        <ele>-1000</ele>
        <time>2007-05-30T14:08:43Z</time>
      </trkpt>
      <trkpt lat="48.56537" lon="-2.09415">
        <ele>-1000</ele>
        <time>2007-05-30T14:08:43Z</time>
      </trkpt>
      <trkpt lat="48.56526" lon="-2.09441">
        <ele>-1000</ele>
        <time>2007-05-30T14:08:43Z</time>
      </trkpt>
      <trkpt lat="48.56499" lon="-2.09436">
        <ele>-1000</ele>
        <time>2007-05-30T14:08:43Z</time>
      </trkpt>
      <trkpt lat="48.56501" lon="-2.09406">
        <ele>-1000</ele>
        <time>2007-05-30T14:08:43Z</time>
      </trkpt>
      <trkpt lat="48.56515" lon="-2.09383">
        <ele>-1000</ele>
        <time>2007-05-30T14:08:43Z</time>
      </trkpt>
      <trkpt lat="48.56512" lon="-2.09343">
        <ele>-1000</ele>
        <time>2007-05-30T14:08:43Z</time>
      </trkpt>
      <trkpt lat="48.56362" lon="-2.09325">
        <ele>-1000</ele>
        <time>2007-05-30T14:08:43Z</time>
      </trkpt>
      <trkpt lat="48.56355" lon="-2.09264">
        <ele>-1000</ele>
        <time>2007-05-30T14:08:43Z</time>
      </trkpt>
      <trkpt lat="48.56365" lon="-2.09236">
        <ele>-1000</ele>
        <time>2007-05-30T14:08:43Z</time>
      </trkpt>
      <trkpt lat="48.56474" lon="-2.09248">
        <ele>-1000</ele>
        <time>2007-05-30T14:08:43Z</time>
      </trkpt>
      <trkpt lat="48.56513" lon="-2.09228">
        <ele>-1000</ele>
        <time>2007-05-30T14:08:43Z</time>
      </trkpt>
      <trkpt lat="48.56545" lon="-2.09181">
        <ele>-1000</ele>
        <time>2007-05-30T14:08:43Z</time>
      </trkpt>
      <trkpt lat="48.56615" lon="-2.0917">
        <ele>-1000</ele>
        <time>2007-05-30T14:08:43Z</time>
      </trkpt>
      <trkpt lat="48.56644" lon="-2.09153">
        <ele>-1000</ele>
        <time>2007-05-30T14:08:43Z</time>
      </trkpt>
      <trkpt lat="48.56696" lon="-2.09157">
        <ele>-1000</ele>
        <time>2007-05-30T14:08:43Z</time>
      </trkpt>
      <trkpt lat="48.56776" lon="-2.09123">
        <ele>-1000</ele>
        <time>2007-05-30T14:08:43Z</time>
      </trkpt>
      <trkpt lat="48.5687" lon="-2.09124">
        <ele>-1000</ele>
        <time>2007-05-30T14:08:43Z</time>
      </trkpt>
      <trkpt lat="48.5694" lon="-2.08957">
        <ele>-1000</ele>
        <time>2007-05-30T14:08:43Z</time>
      </trkpt>
      <trkpt lat="48.56969" lon="-2.08922">
        <ele>-1000</ele>
        <time>2007-05-30T14:08:43Z</time>
      </trkpt>
      <trkpt lat="48.56971" lon="-2.08874">
        <ele>-1000</ele>
        <time>2007-05-30T14:08:43Z</time>
      </trkpt>
      <trkpt lat="48.57013" lon="-2.08832">
        <ele>-1000</ele>
        <time>2007-05-30T14:08:43Z</time>
      </trkpt>
      <trkpt lat="48.57029" lon="-2.08803">
        <ele>-1000</ele>
        <time>2007-05-30T14:08:43Z</time>
      </trkpt>
      <trkpt lat="48.57025" lon="-2.08741">
        <ele>-1000</ele>
        <time>2007-05-30T14:08:43Z</time>
      </trkpt>
      <trkpt lat="48.56983" lon="-2.08743">
        <ele>-1000</ele>
        <time>2007-05-30T14:08:43Z</time>
      </trkpt>
      <trkpt lat="48.56976" lon="-2.08611">
        <ele>-1000</ele>
        <time>2007-05-30T14:08:43Z</time>
      </trkpt>
      <trkpt lat="48.56899" lon="-2.08454">
        <ele>-1000</ele>
        <time>2007-05-30T14:08:43Z</time>
      </trkpt>
      <trkpt lat="48.56776" lon="-2.08352">
        <ele>-1000</ele>
        <time>2007-05-30T14:08:43Z</time>
      </trkpt>
      <trkpt lat="48.56696" lon="-2.08317">
        <ele>-1000</ele>
        <time>2007-05-30T14:08:43Z</time>
      </trkpt>
      <trkpt lat="48.56556" lon="-2.08296">
        <ele>-1000</ele>
        <time>2007-05-30T14:08:43Z</time>
      </trkpt>
      <trkpt lat="48.56509" lon="-2.08257">
        <ele>-1000</ele>
        <time>2007-05-30T14:08:43Z</time>
      </trkpt>
      <trkpt lat="48.56482" lon="-2.08224">
        <ele>-1000</ele>
        <time>2007-05-30T14:08:43Z</time>
      </trkpt>
      <trkpt lat="48.56461" lon="-2.0816">
        <ele>-1000</ele>
        <time>2007-05-30T14:08:43Z</time>
      </trkpt>
      <trkpt lat="48.56439" lon="-2.07998">
        <ele>-1000</ele>
        <time>2007-05-30T14:08:43Z</time>
      </trkpt>
      <trkpt lat="48.56421" lon="-2.07964">
        <ele>-1000</ele>
        <time>2007-05-30T14:08:43Z</time>
      </trkpt>
      <trkpt lat="48.56387" lon="-2.07956">
        <ele>-1000</ele>
        <time>2007-05-30T14:08:43Z</time>
      </trkpt>
      <trkpt lat="48.56351" lon="-2.0796">
        <ele>-1000</ele>
        <time>2007-05-30T14:08:43Z</time>
      </trkpt>
      <trkpt lat="48.5625" lon="-2.08012">
        <ele>-1000</ele>
        <time>2007-05-30T14:08:43Z</time>
      </trkpt>
      <trkpt lat="48.56134" lon="-2.08008">
        <ele>-1000</ele>
        <time>2007-05-30T14:08:43Z</time>
      </trkpt>
      <trkpt lat="48.55973" lon="-2.07949">
        <ele>-1000</ele>
        <time>2007-05-30T14:08:43Z</time>
      </trkpt>
      <trkpt lat="48.55943" lon="-2.07974">
        <ele>-1000</ele>
        <time>2007-05-30T14:08:43Z</time>
      </trkpt>
      <trkpt lat="48.55913" lon="-2.07969">
        <ele>-1000</ele>
        <time>2007-05-30T14:08:43Z</time>
      </trkpt>
      <trkpt lat="48.55857" lon="-2.07748">
        <ele>-1000</ele>
        <time>2007-05-30T14:08:43Z</time>
      </trkpt>
      <trkpt lat="48.55857" lon="-2.07516">
        <ele>-1000</ele>
        <time>2007-05-30T14:08:43Z</time>
      </trkpt>
      <trkpt lat="48.55843" lon="-2.07489">
        <ele>-1000</ele>
        <time>2007-05-30T14:08:43Z</time>
      </trkpt>
      <trkpt lat="48.55791" lon="-2.07484">
        <ele>-1000</ele>
        <time>2007-05-30T14:08:43Z</time>
      </trkpt>
      <trkpt lat="48.55773" lon="-2.075">
        <ele>-1000</ele>
        <time>2007-05-30T14:08:43Z</time>
      </trkpt>
      <trkpt lat="48.55769" lon="-2.07518">
        <ele>-1000</ele>
        <time>2007-05-30T14:08:43Z</time>
      </trkpt>
      <trkpt lat="48.55702" lon="-2.07562">
        <ele>-1000</ele>
        <time>2007-05-30T14:08:43Z</time>
      </trkpt>
      <trkpt lat="48.55676" lon="-2.07561">
        <ele>-1000</ele>
        <time>2007-05-30T14:08:43Z</time>
      </trkpt>
      <trkpt lat="48.55661" lon="-2.07536">
        <ele>-1000</ele>
        <time>2007-05-30T14:08:43Z</time>
      </trkpt>
      <trkpt lat="48.55666" lon="-2.07454">
        <ele>-1000</ele>
        <time>2007-05-30T14:08:43Z</time>
      </trkpt>
      <trkpt lat="48.55632" lon="-2.07454">
        <ele>-1000</ele>
        <time>2007-05-30T14:08:43Z</time>
      </trkpt>
      <trkpt lat="48.5561" lon="-2.0744">
        <ele>-1000</ele>
        <time>2007-05-30T14:08:43Z</time>
      </trkpt>
      <trkpt lat="48.55555" lon="-2.07435">
        <ele>-1000</ele>
        <time>2007-05-30T14:08:43Z</time>
      </trkpt>
      <trkpt lat="48.55503" lon="-2.07461">
        <ele>-1000</ele>
        <time>2007-05-30T14:08:43Z</time>
      </trkpt>
      <trkpt lat="48.55449" lon="-2.07445">
        <ele>-1000</ele>
        <time>2007-05-30T14:08:43Z</time>
      </trkpt>
      <trkpt lat="48.55416" lon="-2.07375">
        <ele>-1000</ele>
        <time>2007-05-30T14:08:43Z</time>
      </trkpt>
      <trkpt lat="48.55415" lon="-2.0729">
        <ele>-1000</ele>
        <time>2007-05-30T14:08:43Z</time>
      </trkpt>
      <trkpt lat="48.55414" lon="-2.07203">
        <ele>-1000</ele>
        <time>2007-05-30T14:08:43Z</time>
      </trkpt>
      <trkpt lat="48.55396" lon="-2.07115">
        <ele>-1000</ele>
        <time>2007-05-30T14:08:43Z</time>
      </trkpt>
      <trkpt lat="48.55324" lon="-2.07174">
        <ele>-1000</ele>
        <time>2007-05-30T14:08:43Z</time>
      </trkpt>
      <trkpt lat="48.5527" lon="-2.07265">
        <ele>-1000</ele>
        <time>2007-05-30T14:08:43Z</time>
      </trkpt>
      <trkpt lat="48.55203" lon="-2.07343">
        <ele>-1000</ele>
        <time>2007-05-30T14:08:43Z</time>
      </trkpt>
      <trkpt lat="48.55146" lon="-2.07371">
        <ele>-1000</ele>
        <time>2007-05-30T14:08:43Z</time>
      </trkpt>
      <trkpt lat="48.55109" lon="-2.07408">
        <ele>-1000</ele>
        <time>2007-05-30T14:08:43Z</time>
      </trkpt>
      <trkpt lat="48.55107" lon="-2.0734">
        <ele>-1000</ele>
        <time>2007-05-30T14:08:43Z</time>
      </trkpt>
      <trkpt lat="48.55048" lon="-2.07143">
        <ele>-1000</ele>
        <time>2007-05-30T14:08:43Z</time>
      </trkpt>
      <trkpt lat="48.55027" lon="-2.06739">
        <ele>-1000</ele>
        <time>2007-05-30T14:08:43Z</time>
      </trkpt>
      <trkpt lat="48.55018" lon="-2.06688">
        <ele>-1000</ele>
        <time>2007-05-30T14:08:43Z</time>
      </trkpt>
      <trkpt lat="48.55018" lon="-2.06587">
        <ele>-1000</ele>
        <time>2007-05-30T14:08:43Z</time>
      </trkpt>
      <trkpt lat="48.54985" lon="-2.06537">
        <ele>-1000</ele>
        <time>2007-05-30T14:08:43Z</time>
      </trkpt>
      <trkpt lat="48.5496" lon="-2.06418">
        <ele>-1000</ele>
        <time>2007-05-30T14:08:43Z</time>
      </trkpt>
      <trkpt lat="48.54962" lon="-2.06357">
        <ele>-1000</ele>
        <time>2007-05-30T14:08:43Z</time>
      </trkpt>
      <trkpt lat="48.54974" lon="-2.06321">
        <ele>-1000</ele>
        <time>2007-05-30T14:08:43Z</time>
      </trkpt>
      <trkpt lat="48.54929" lon="-2.06356">
        <ele>-1000</ele>
        <time>2007-05-30T14:08:43Z</time>
      </trkpt>
      <trkpt lat="48.54879" lon="-2.06359">
        <ele>-1000</ele>
        <time>2007-05-30T14:08:43Z</time>
      </trkpt>
      <trkpt lat="48.54789" lon="-2.06203">
        <ele>-1000</ele>
        <time>2007-05-30T14:08:43Z</time>
      </trkpt>
      <trkpt lat="48.54771" lon="-2.06078">
        <ele>-1000</ele>
        <time>2007-05-30T14:08:43Z</time>
      </trkpt>
      <trkpt lat="48.54774" lon="-2.06017">
        <ele>-1000</ele>
        <time>2007-05-30T14:08:43Z</time>
      </trkpt>
      <trkpt lat="48.54755" lon="-2.06017">
        <ele>-1000</ele>
        <time>2007-05-30T14:08:43Z</time>
      </trkpt>
      <trkpt lat="48.5474" lon="-2.05796">
        <ele>-1000</ele>
        <time>2007-05-30T14:08:43Z</time>
      </trkpt>
      <trkpt lat="48.54692" lon="-2.05793">
        <ele>-1000</ele>
        <time>2007-05-30T14:08:43Z</time>
      </trkpt>
      <trkpt lat="48.54657" lon="-2.05732">
        <ele>-1000</ele>
        <time>2007-05-30T14:08:43Z</time>
      </trkpt>
      <trkpt lat="48.54588" lon="-2.05638">
        <ele>-1000</ele>
        <time>2007-05-30T14:08:43Z</time>
      </trkpt>
      <trkpt lat="48.54506" lon="-2.05605">
        <ele>-1000</ele>
        <time>2007-05-30T14:08:43Z</time>
      </trkpt>
      <trkpt lat="48.54419" lon="-2.0553">
        <ele>-1000</ele>
        <time>2007-05-30T14:08:43Z</time>
      </trkpt>
      <trkpt lat="48.54331" lon="-2.05418">
        <ele>-1000</ele>
        <time>2007-05-30T14:08:43Z</time>
      </trkpt>
      <trkpt lat="48.54245" lon="-2.05372">
        <ele>-1000</ele>
        <time>2007-05-30T14:08:43Z</time>
      </trkpt>
      <trkpt lat="48.54199" lon="-2.053">
        <ele>-1000</ele>
        <time>2007-05-30T14:08:43Z</time>
      </trkpt>
      <trkpt lat="48.53736" lon="-2.05107">
        <ele>-1000</ele>
        <time>2007-05-30T14:08:43Z</time>
      </trkpt>
      <trkpt lat="48.53677" lon="-2.05102">
        <ele>-1000</ele>
        <time>2007-05-30T14:08:43Z</time>
      </trkpt>
      <trkpt lat="48.53631" lon="-2.05088">
        <ele>-1000</ele>
        <time>2007-05-30T14:08:43Z</time>
      </trkpt>
      <trkpt lat="48.53632" lon="-2.05038">
        <ele>-1000</ele>
        <time>2007-05-30T14:08:43Z</time>
      </trkpt>
      <trkpt lat="48.5281" lon="-2.04709">
        <ele>-1000</ele>
        <time>2007-05-30T14:08:43Z</time>
      </trkpt>
      <trkpt lat="48.52812" lon="-2.04675">
        <ele>-1000</ele>
        <time>2007-05-30T14:08:43Z</time>
      </trkpt>
      <trkpt lat="48.52833" lon="-2.0467">
        <ele>-1000</ele>
        <time>2007-05-30T14:08:43Z</time>
      </trkpt>
      <trkpt lat="48.52871" lon="-2.04698">
        <ele>-1000</ele>
        <time>2007-05-30T14:08:43Z</time>
      </trkpt>
      <trkpt lat="48.52894" lon="-2.04682">
        <ele>-1000</ele>
        <time>2007-05-30T14:08:43Z</time>
      </trkpt>
      <trkpt lat="48.52944" lon="-2.04469">
        <ele>-1000</ele>
        <time>2007-05-30T14:08:43Z</time>
      </trkpt>
      <trkpt lat="48.52977" lon="-2.04157">
        <ele>-1000</ele>
        <time>2007-05-30T14:08:43Z</time>
      </trkpt>
      <trkpt lat="48.5268" lon="-2.042">
        <ele>-1000</ele>
        <time>2007-05-30T14:08:43Z</time>
      </trkpt>
      <trkpt lat="48.52612" lon="-2.04232">
        <ele>-1000</ele>
        <time>2007-05-30T14:08:43Z</time>
      </trkpt>
      <trkpt lat="48.52563" lon="-2.04273">
        <ele>-1000</ele>
        <time>2007-05-30T14:08:43Z</time>
      </trkpt>
      <trkpt lat="48.52469" lon="-2.04286">
        <ele>-1000</ele>
        <time>2007-05-30T14:08:43Z</time>
      </trkpt>
      <trkpt lat="48.52201" lon="-2.04464">
        <ele>-1000</ele>
        <time>2007-05-30T14:08:43Z</time>
      </trkpt>
      <trkpt lat="48.52089" lon="-2.04491">
        <ele>-1000</ele>
        <time>2007-05-30T14:08:43Z</time>
      </trkpt>
      <trkpt lat="48.52057" lon="-2.04468">
        <ele>-1000</ele>
        <time>2007-05-30T14:08:43Z</time>
      </trkpt>
      <trkpt lat="48.52013" lon="-2.04331">
        <ele>-1000</ele>
        <time>2007-05-30T14:08:43Z</time>
      </trkpt>
      <trkpt lat="48.5197" lon="-2.04246">
        <ele>-1000</ele>
        <time>2007-05-30T14:08:43Z</time>
      </trkpt>
      <trkpt lat="48.51931" lon="-2.04074">
        <ele>-1000</ele>
        <time>2007-05-30T14:08:43Z</time>
      </trkpt>
      <trkpt lat="48.51796" lon="-2.03934">
        <ele>-1000</ele>
        <time>2007-05-30T14:08:43Z</time>
      </trkpt>
      <trkpt lat="48.51744" lon="-2.03842">
        <ele>-1000</ele>
        <time>2007-05-30T14:08:43Z</time>
      </trkpt>
      <trkpt lat="48.51741" lon="-2.03808">
        <ele>-1000</ele>
        <time>2007-05-30T14:08:43Z</time>
      </trkpt>
      <trkpt lat="48.51725" lon="-2.03765">
        <ele>-1000</ele>
        <time>2007-05-30T14:08:43Z</time>
      </trkpt>
      <trkpt lat="48.51937" lon="-2.03639">
        <ele>-1000</ele>
        <time>2007-05-30T14:08:43Z</time>
      </trkpt>
      <trkpt lat="48.52243" lon="-2.03611">
        <ele>-1000</ele>
        <time>2007-05-30T14:08:43Z</time>
      </trkpt>
      <trkpt lat="48.52312" lon="-2.0358">
        <ele>-1000</ele>
        <time>2007-05-30T14:08:43Z</time>
      </trkpt>
      <trkpt lat="48.52159" lon="-2.03469">
        <ele>-1000</ele>
        <time>2007-05-30T14:08:43Z</time>
      </trkpt>
      <trkpt lat="48.51959" lon="-2.03066">
        <ele>-1000</ele>
        <time>2007-05-30T14:08:43Z</time>
      </trkpt>
      <trkpt lat="48.51933" lon="-2.02934">
        <ele>-1000</ele>
        <time>2007-05-30T14:08:43Z</time>
      </trkpt>
      <trkpt lat="48.51942" lon="-2.02799">
        <ele>-1000</ele>
        <time>2007-05-30T14:08:43Z</time>
      </trkpt>
      <trkpt lat="48.51963" lon="-2.02765">
        <ele>-1000</ele>
        <time>2007-05-30T14:08:43Z</time>
      </trkpt>
      <trkpt lat="48.51947" lon="-2.02714">
        <ele>-1000</ele>
        <time>2007-05-30T14:08:43Z</time>
      </trkpt>
      <trkpt lat="48.51912" lon="-2.0268">
        <ele>-1000</ele>
        <time>2007-05-30T14:08:43Z</time>
      </trkpt>
      <trkpt lat="48.51889" lon="-2.0263">
        <ele>-1000</ele>
        <time>2007-05-30T14:08:43Z</time>
      </trkpt>
      <trkpt lat="48.51894" lon="-2.02565">
        <ele>-1000</ele>
        <time>2007-05-30T14:08:43Z</time>
      </trkpt>
      <trkpt lat="48.51648" lon="-2.02216">
        <ele>-1000</ele>
        <time>2007-05-30T14:08:43Z</time>
      </trkpt>
      <trkpt lat="48.51616" lon="-2.02258">
        <ele>-1000</ele>
        <time>2007-05-30T14:08:43Z</time>
      </trkpt>
      <trkpt lat="48.51542" lon="-2.02278">
        <ele>-1000</ele>
        <time>2007-05-30T14:08:43Z</time>
      </trkpt>
      <trkpt lat="48.51335" lon="-2.01866">
        <ele>-1000</ele>
        <time>2007-05-30T14:08:43Z</time>
      </trkpt>
      <trkpt lat="48.51266" lon="-2.01852">
        <ele>-1000</ele>
        <time>2007-05-30T14:08:43Z</time>
      </trkpt>
      <trkpt lat="48.51265" lon="-2.01793">
        <ele>-1000</ele>
        <time>2007-05-30T14:08:43Z</time>
      </trkpt>
      <trkpt lat="48.51294" lon="-2.01665">
        <ele>-1000</ele>
        <time>2007-05-30T14:08:43Z</time>
      </trkpt>
      <trkpt lat="48.50858" lon="-2.01664">
        <ele>-1000</ele>
        <time>2007-05-30T14:08:43Z</time>
      </trkpt>
      <trkpt lat="48.50841" lon="-2.01692">
        <ele>-1000</ele>
        <time>2007-05-30T14:08:43Z</time>
      </trkpt>
      <trkpt lat="48.50674" lon="-2.01669">
        <ele>-1000</ele>
        <time>2007-05-30T14:08:43Z</time>
      </trkpt>
      <trkpt lat="48.50662" lon="-2.01639">
        <ele>-1000</ele>
        <time>2007-05-30T14:08:43Z</time>
      </trkpt>
      <trkpt lat="48.50494" lon="-2.01617">
        <ele>-1000</ele>
        <time>2007-05-30T14:08:43Z</time>
      </trkpt>
      <trkpt lat="48.50392" lon="-2.01557">
        <ele>-1000</ele>
        <time>2007-05-30T14:08:43Z</time>
      </trkpt>
      <trkpt lat="48.50226" lon="-2.01539">
        <ele>-1000</ele>
        <time>2007-05-30T14:08:43Z</time>
      </trkpt>
      <trkpt lat="48.50201" lon="-2.0157">
        <ele>-1000</ele>
        <time>2007-05-30T14:08:43Z</time>
      </trkpt>
      <trkpt lat="48.50191" lon="-2.00904">
        <ele>-1000</ele>
        <time>2007-05-30T14:08:43Z</time>
      </trkpt>
      <trkpt lat="48.50083" lon="-2.00671">
        <ele>-1000</ele>
        <time>2007-05-30T14:08:43Z</time>
      </trkpt>
      <trkpt lat="48.50108" lon="-2.00623">
        <ele>-1000</ele>
        <time>2007-05-30T14:08:43Z</time>
      </trkpt>
      <trkpt lat="48.50065" lon="-2.00618">
        <ele>-1000</ele>
        <time>2007-05-30T14:08:43Z</time>
      </trkpt>
      <trkpt lat="48.50021" lon="-2.00635">
        <ele>-1000</ele>
        <time>2007-05-30T14:08:43Z</time>
      </trkpt>
      <trkpt lat="48.4996" lon="-2.0063">
        <ele>-1000</ele>
        <time>2007-05-30T14:08:43Z</time>
      </trkpt>
      <trkpt lat="48.49936" lon="-2.00607">
        <ele>-1000</ele>
        <time>2007-05-30T14:08:43Z</time>
      </trkpt>
      <trkpt lat="48.49952" lon="-2.00594">
        <ele>-1000</ele>
        <time>2007-05-30T14:08:43Z</time>
      </trkpt>
      <trkpt lat="48.49919" lon="-2.00351">
        <ele>-1000</ele>
        <time>2007-05-30T14:08:43Z</time>
      </trkpt>
      <trkpt lat="48.4988" lon="-2.00181">
        <ele>-1000</ele>
        <time>2007-05-30T14:08:43Z</time>
      </trkpt>
      <trkpt lat="48.49852" lon="-2.00091">
        <ele>-1000</ele>
        <time>2007-05-30T14:08:43Z</time>
      </trkpt>
    </trkseg>
  </trk>
  <trk>
    <name><![CDATA[fusion]]></name>
    <trkseg>
      <trkpt lat="48.54772" lon="-2.5971">
        <ele>-1000</ele>
        <time>2007-05-30T14:08:43Z</time>
      </trkpt>
      <trkpt lat="48.54834" lon="-2.59723">
        <ele>-1000</ele>
        <time>2007-05-30T14:08:43Z</time>
      </trkpt>
      <trkpt lat="48.54837" lon="-2.59609">
        <ele>-1000</ele>
        <time>2007-05-30T14:08:43Z</time>
      </trkpt>
      <trkpt lat="48.54971" lon="-2.59551">
        <ele>-1000</ele>
        <time>2007-05-30T14:08:43Z</time>
      </trkpt>
      <trkpt lat="48.55036" lon="-2.59509">
        <ele>-1000</ele>
        <time>2007-05-30T14:08:43Z</time>
      </trkpt>
      <trkpt lat="48.55024" lon="-2.59399">
        <ele>-1000</ele>
        <time>2007-05-30T14:08:43Z</time>
      </trkpt>
      <trkpt lat="48.55008" lon="-2.59364">
        <ele>-1000</ele>
        <time>2007-05-30T14:08:43Z</time>
      </trkpt>
      <trkpt lat="48.54952" lon="-2.59343">
        <ele>-1000</ele>
        <time>2007-05-30T14:08:43Z</time>
      </trkpt>
      <trkpt lat="48.5489" lon="-2.59304">
        <ele>-1000</ele>
        <time>2007-05-30T14:08:43Z</time>
      </trkpt>
      <trkpt lat="48.54873" lon="-2.59249">
        <ele>-1000</ele>
        <time>2007-05-30T14:08:43Z</time>
      </trkpt>
      <trkpt lat="48.54927" lon="-2.58915">
        <ele>-1000</ele>
        <time>2007-05-30T14:08:43Z</time>
      </trkpt>
      <trkpt lat="48.54982" lon="-2.58862">
        <ele>-1000</ele>
        <time>2007-05-30T14:08:43Z</time>
      </trkpt>
      <trkpt lat="48.55072" lon="-2.58861">
        <ele>-1000</ele>
        <time>2007-05-30T14:08:43Z</time>
      </trkpt>
      <trkpt lat="48.55124" lon="-2.58839">
        <ele>-1000</ele>
        <time>2007-05-30T14:08:43Z</time>
      </trkpt>
      <trkpt lat="48.55143" lon="-2.58645">
        <ele>-1000</ele>
        <time>2007-05-30T14:08:43Z</time>
      </trkpt>
      <trkpt lat="48.55199" lon="-2.58612">
        <ele>-1000</ele>
        <time>2007-05-30T14:08:43Z</time>
      </trkpt>
      <trkpt lat="48.55247" lon="-2.58611">
        <ele>-1000</ele>
        <time>2007-05-30T14:08:43Z</time>
      </trkpt>
      <trkpt lat="48.55332" lon="-2.58516">
        <ele>-1000</ele>
        <time>2007-05-30T14:08:43Z</time>
      </trkpt>
      <trkpt lat="48.55333" lon="-2.5848">
        <ele>-1000</ele>
        <time>2007-05-30T14:08:43Z</time>
      </trkpt>
      <trkpt lat="48.55317" lon="-2.58397">
        <ele>-1000</ele>
        <time>2007-05-30T14:08:43Z</time>
      </trkpt>
      <trkpt lat="48.55312" lon="-2.58311">
        <ele>-1000</ele>
        <time>2007-05-30T14:08:43Z</time>
      </trkpt>
      <trkpt lat="48.55286" lon="-2.58224">
        <ele>-1000</ele>
        <time>2007-05-30T14:08:43Z</time>
      </trkpt>
      <trkpt lat="48.55287" lon="-2.58144">
        <ele>-1000</ele>
        <time>2007-05-30T14:08:43Z</time>
      </trkpt>
      <trkpt lat="48.55307" lon="-2.58051">
        <ele>-1000</ele>
        <time>2007-05-30T14:08:43Z</time>
      </trkpt>
      <trkpt lat="48.55311" lon="-2.57966">
        <ele>-1000</ele>
        <time>2007-05-30T14:08:43Z</time>
      </trkpt>
      <trkpt lat="48.55347" lon="-2.57949">
        <ele>-1000</ele>
        <time>2007-05-30T14:08:43Z</time>
      </trkpt>
      <trkpt lat="48.55376" lon="-2.57921">
        <ele>-1000</ele>
        <time>2007-05-30T14:08:43Z</time>
      </trkpt>
      <trkpt lat="48.55327" lon="-2.57848">
        <ele>-1000</ele>
        <time>2007-05-30T14:08:43Z</time>
      </trkpt>
      <trkpt lat="48.55309" lon="-2.57753">
        <ele>-1000</ele>
        <time>2007-05-30T14:08:43Z</time>
      </trkpt>
      <trkpt lat="48.55286" lon="-2.57651">
        <ele>-1000</ele>
        <time>2007-05-30T14:08:43Z</time>
      </trkpt>
      <trkpt lat="48.55286" lon="-2.57496">
        <ele>-1000</ele>
        <time>2007-05-30T14:08:43Z</time>
      </trkpt>
      <trkpt lat="48.55271" lon="-2.57344">
        <ele>-1000</ele>
        <time>2007-05-30T14:08:43Z</time>
      </trkpt>
      <trkpt lat="48.55315" lon="-2.57339">
        <ele>-1000</ele>
        <time>2007-05-30T14:08:43Z</time>
      </trkpt>
      <trkpt lat="48.55488" lon="-2.57223">
        <ele>-1000</ele>
        <time>2007-05-30T14:08:43Z</time>
      </trkpt>
      <trkpt lat="48.55531" lon="-2.57207">
        <ele>-1000</ele>
        <time>2007-05-30T14:08:43Z</time>
      </trkpt>
      <trkpt lat="48.55595" lon="-2.57199">
        <ele>-1000</ele>
        <time>2007-05-30T14:08:43Z</time>
      </trkpt>
      <trkpt lat="48.5566" lon="-2.57178">
        <ele>-1000</ele>
        <time>2007-05-30T14:08:43Z</time>
      </trkpt>
      <trkpt lat="48.55665" lon="-2.57078">
        <ele>-1000</ele>
        <time>2007-05-30T14:08:43Z</time>
      </trkpt>
      <trkpt lat="48.55676" lon="-2.57066">
        <ele>-1000</ele>
        <time>2007-05-30T14:08:43Z</time>
      </trkpt>
      <trkpt lat="48.55711" lon="-2.57085">
        <ele>-1000</ele>
        <time>2007-05-30T14:08:43Z</time>
      </trkpt>
      <trkpt lat="48.55775" lon="-2.57077">
        <ele>-1000</ele>
        <time>2007-05-30T14:08:43Z</time>
      </trkpt>
      <trkpt lat="48.55791" lon="-2.57088">
        <ele>-1000</ele>
        <time>2007-05-30T14:08:43Z</time>
      </trkpt>
      <trkpt lat="48.55813" lon="-2.57125">
        <ele>-1000</ele>
        <time>2007-05-30T14:08:43Z</time>
      </trkpt>
      <trkpt lat="48.55859" lon="-2.57137">
        <ele>-1000</ele>
        <time>2007-05-30T14:08:43Z</time>
      </trkpt>
      <trkpt lat="48.55922" lon="-2.57118">
        <ele>-1000</ele>
        <time>2007-05-30T14:08:43Z</time>
      </trkpt>
      <trkpt lat="48.55964" lon="-2.57115">
        <ele>-1000</ele>
        <time>2007-05-30T14:08:43Z</time>
      </trkpt>
      <trkpt lat="48.55977" lon="-2.57068">
        <ele>-1000</ele>
        <time>2007-05-30T14:08:43Z</time>
      </trkpt>
      <trkpt lat="48.5597" lon="-2.56955">
        <ele>-1000</ele>
        <time>2007-05-30T14:08:43Z</time>
      </trkpt>
      <trkpt lat="48.56155" lon="-2.56671">
        <ele>-1000</ele>
        <time>2007-05-30T14:08:43Z</time>
      </trkpt>
      <trkpt lat="48.56186" lon="-2.56639">
        <ele>-1000</ele>
        <time>2007-05-30T14:08:43Z</time>
      </trkpt>
      <trkpt lat="48.56265" lon="-2.56455">
        <ele>-1000</ele>
        <time>2007-05-30T14:08:43Z</time>
      </trkpt>
      <trkpt lat="48.56308" lon="-2.56446">
        <ele>-1000</ele>
        <time>2007-05-30T14:08:43Z</time>
      </trkpt>
      <trkpt lat="48.56306" lon="-2.56426">
        <ele>-1000</ele>
        <time>2007-05-30T14:08:43Z</time>
      </trkpt>
      <trkpt lat="48.56364" lon="-2.56429">
        <ele>-1000</ele>
        <time>2007-05-30T14:08:43Z</time>
      </trkpt>
      <trkpt lat="48.56393" lon="-2.56272">
        <ele>-1000</ele>
        <time>2007-05-30T14:08:43Z</time>
      </trkpt>
      <trkpt lat="48.56426" lon="-2.56192">
        <ele>-1000</ele>
        <time>2007-05-30T14:08:43Z</time>
      </trkpt>
      <trkpt lat="48.56439" lon="-2.56123">
        <ele>-1000</ele>
        <time>2007-05-30T14:08:43Z</time>
      </trkpt>
      <trkpt lat="48.56406" lon="-2.55976">
        <ele>-1000</ele>
        <time>2007-05-30T14:08:43Z</time>
      </trkpt>
      <trkpt lat="48.56411" lon="-2.5593">
        <ele>-1000</ele>
        <time>2007-05-30T14:08:43Z</time>
      </trkpt>
      <trkpt lat="48.56438" lon="-2.559">
        <ele>-1000</ele>
        <time>2007-05-30T14:08:43Z</time>
      </trkpt>
      <trkpt lat="48.56492" lon="-2.55873">
        <ele>-1000</ele>
        <time>2007-05-30T14:08:43Z</time>
      </trkpt>
      <trkpt lat="48.56596" lon="-2.55863">
        <ele>-1000</ele>
        <time>2007-05-30T14:08:43Z</time>
      </trkpt>
      <trkpt lat="48.56556" lon="-2.55763">
        <ele>-1000</ele>
        <time>2007-05-30T14:08:43Z</time>
      </trkpt>
      <trkpt lat="48.56541" lon="-2.55667">
        <ele>-1000</ele>
        <time>2007-05-30T14:08:43Z</time>
      </trkpt>
      <trkpt lat="48.5654" lon="-2.55574">
        <ele>-1000</ele>
        <time>2007-05-30T14:08:43Z</time>
      </trkpt>
      <trkpt lat="48.56475" lon="-2.55416">
        <ele>-1000</ele>
        <time>2007-05-30T14:08:43Z</time>
      </trkpt>
      <trkpt lat="48.5641" lon="-2.55215">
        <ele>-1000</ele>
        <time>2007-05-30T14:08:43Z</time>
      </trkpt>
      <trkpt lat="48.56521" lon="-2.55095">
        <ele>-1000</ele>
        <time>2007-05-30T14:08:43Z</time>
      </trkpt>
      <trkpt lat="48.56619" lon="-2.55222">
        <ele>-1000</ele>
        <time>2007-05-30T14:08:43Z</time>
      </trkpt>
      <trkpt lat="48.56703" lon="-2.5518">
        <ele>-1000</ele>
        <time>2007-05-30T14:08:43Z</time>
      </trkpt>
      <trkpt lat="48.56759" lon="-2.5512">
        <ele>-1000</ele>
        <time>2007-05-30T14:08:43Z</time>
      </trkpt>
      <trkpt lat="48.56838" lon="-2.55095">
        <ele>-1000</ele>
        <time>2007-05-30T14:08:43Z</time>
      </trkpt>
      <trkpt lat="48.56876" lon="-2.55079">
        <ele>-1000</ele>
        <time>2007-05-30T14:08:43Z</time>
      </trkpt>
      <trkpt lat="48.569" lon="-2.55052">
        <ele>-1000</ele>
        <time>2007-05-30T14:08:43Z</time>
      </trkpt>
      <trkpt lat="48.56915" lon="-2.55061">
        <ele>-1000</ele>
        <time>2007-05-30T14:08:43Z</time>
      </trkpt>
      <trkpt lat="48.56937" lon="-2.5504">
        <ele>-1000</ele>
        <time>2007-05-30T14:08:43Z</time>
      </trkpt>
      <trkpt lat="48.57093" lon="-2.55164">
        <ele>-1000</ele>
        <time>2007-05-30T14:08:43Z</time>
      </trkpt>
      <trkpt lat="48.57264" lon="-2.55266">
        <ele>-1000</ele>
        <time>2007-05-30T14:08:43Z</time>
      </trkpt>
      <trkpt lat="48.57306" lon="-2.55334">
        <ele>-1000</ele>
        <time>2007-05-30T14:08:43Z</time>
      </trkpt>
      <trkpt lat="48.57365" lon="-2.55393">
        <ele>-1000</ele>
        <time>2007-05-30T14:08:43Z</time>
      </trkpt>
      <trkpt lat="48.57417" lon="-2.55398">
        <ele>-1000</ele>
        <time>2007-05-30T14:08:43Z</time>
      </trkpt>
      <trkpt lat="48.5747" lon="-2.55424">
        <ele>-1000</ele>
        <time>2007-05-30T14:08:43Z</time>
      </trkpt>
      <trkpt lat="48.57578" lon="-2.55436">
        <ele>-1000</ele>
        <time>2007-05-30T14:08:43Z</time>
      </trkpt>
      <trkpt lat="48.5762" lon="-2.55482">
        <ele>-1000</ele>
        <time>2007-05-30T14:08:43Z</time>
      </trkpt>
      <trkpt lat="48.57694" lon="-2.55699">
        <ele>-1000</ele>
        <time>2007-05-30T14:08:43Z</time>
      </trkpt>
      <trkpt lat="48.57742" lon="-2.55709">
        <ele>-1000</ele>
        <time>2007-05-30T14:08:43Z</time>
      </trkpt>
      <trkpt lat="48.57763" lon="-2.55674">
        <ele>-1000</ele>
        <time>2007-05-30T14:08:43Z</time>
      </trkpt>
      <trkpt lat="48.5775" lon="-2.55627">
        <ele>-1000</ele>
        <time>2007-05-30T14:08:43Z</time>
      </trkpt>
      <trkpt lat="48.57707" lon="-2.5559">
        <ele>-1000</ele>
        <time>2007-05-30T14:08:43Z</time>
      </trkpt>
      <trkpt lat="48.5771" lon="-2.55508">
        <ele>-1000</ele>
        <time>2007-05-30T14:08:43Z</time>
      </trkpt>
      <trkpt lat="48.57724" lon="-2.55469">
        <ele>-1000</ele>
        <time>2007-05-30T14:08:43Z</time>
      </trkpt>
      <trkpt lat="48.57758" lon="-2.55455">
        <ele>-1000</ele>
        <time>2007-05-30T14:08:43Z</time>
      </trkpt>
      <trkpt lat="48.57761" lon="-2.55392">
        <ele>-1000</ele>
        <time>2007-05-30T14:08:43Z</time>
      </trkpt>
      <trkpt lat="48.57779" lon="-2.55247">
        <ele>-1000</ele>
        <time>2007-05-30T14:08:43Z</time>
      </trkpt>
      <trkpt lat="48.57769" lon="-2.5508">
        <ele>-1000</ele>
        <time>2007-05-30T14:08:43Z</time>
      </trkpt>
      <trkpt lat="48.57772" lon="-2.55025">
        <ele>-1000</ele>
        <time>2007-05-30T14:08:43Z</time>
      </trkpt>
      <trkpt lat="48.57799" lon="-2.54943">
        <ele>-1000</ele>
        <time>2007-05-30T14:08:43Z</time>
      </trkpt>
      <trkpt lat="48.57768" lon="-2.54915">
        <ele>-1000</ele>
        <time>2007-05-30T14:08:43Z</time>
      </trkpt>
      <trkpt lat="48.57742" lon="-2.54846">
        <ele>-1000</ele>
        <time>2007-05-30T14:08:43Z</time>
      </trkpt>
      <trkpt lat="48.57741" lon="-2.54684">
        <ele>-1000</ele>
        <time>2007-05-30T14:08:43Z</time>
      </trkpt>
      <trkpt lat="48.57733" lon="-2.54568">
        <ele>-1000</ele>
        <time>2007-05-30T14:08:43Z</time>
      </trkpt>
      <trkpt lat="48.57745" lon="-2.54291">
        <ele>-1000</ele>
        <time>2007-05-30T14:08:43Z</time>
      </trkpt>
      <trkpt lat="48.5778" lon="-2.54176">
        <ele>-1000</ele>
        <time>2007-05-30T14:08:43Z</time>
      </trkpt>
      <trkpt lat="48.57681" lon="-2.54168">
        <ele>-1000</ele>
        <time>2007-05-30T14:08:43Z</time>
      </trkpt>
      <trkpt lat="48.57694" lon="-2.54091">
        <ele>-1000</ele>
        <time>2007-05-30T14:08:43Z</time>
      </trkpt>
      <trkpt lat="48.57636" lon="-2.54054">
        <ele>-1000</ele>
        <time>2007-05-30T14:08:43Z</time>
      </trkpt>
      <trkpt lat="48.57582" lon="-2.54049">
        <ele>-1000</ele>
        <time>2007-05-30T14:08:43Z</time>
      </trkpt>
      <trkpt lat="48.5754" lon="-2.54068">
        <ele>-1000</ele>
        <time>2007-05-30T14:08:43Z</time>
      </trkpt>
      <trkpt lat="48.57526" lon="-2.5403">
        <ele>-1000</ele>
        <time>2007-05-30T14:08:43Z</time>
      </trkpt>
      <trkpt lat="48.57457" lon="-2.53999">
        <ele>-1000</ele>
        <time>2007-05-30T14:08:43Z</time>
      </trkpt>
      <trkpt lat="48.57466" lon="-2.53877">
        <ele>-1000</ele>
        <time>2007-05-30T14:08:43Z</time>
      </trkpt>
      <trkpt lat="48.57378" lon="-2.53816">
        <ele>-1000</ele>
        <time>2007-05-30T14:08:43Z</time>
      </trkpt>
      <trkpt lat="48.57381" lon="-2.53752">
        <ele>-1000</ele>
        <time>2007-05-30T14:08:43Z</time>
      </trkpt>
      <trkpt lat="48.57374" lon="-2.53648">
        <ele>-1000</ele>
        <time>2007-05-30T14:08:43Z</time>
      </trkpt>
      <trkpt lat="48.57395" lon="-2.53619">
        <ele>-1000</ele>
        <time>2007-05-30T14:08:43Z</time>
      </trkpt>
      <trkpt lat="48.57427" lon="-2.53603">
        <ele>-1000</ele>
        <time>2007-05-30T14:08:43Z</time>
      </trkpt>
      <trkpt lat="48.57462" lon="-2.53533">
        <ele>-1000</ele>
        <time>2007-05-30T14:08:43Z</time>
      </trkpt>
      <trkpt lat="48.57501" lon="-2.53469">
        <ele>-1000</ele>
        <time>2007-05-30T14:08:43Z</time>
      </trkpt>
      <trkpt lat="48.57483" lon="-2.53424">
        <ele>-1000</ele>
        <time>2007-05-30T14:08:43Z</time>
      </trkpt>
      <trkpt lat="48.57485" lon="-2.53371">
        <ele>-1000</ele>
        <time>2007-05-30T14:08:43Z</time>
      </trkpt>
      <trkpt lat="48.57473" lon="-2.53311">
        <ele>-1000</ele>
        <time>2007-05-30T14:08:43Z</time>
      </trkpt>
      <trkpt lat="48.57476" lon="-2.53244">
        <ele>-1000</ele>
        <time>2007-05-30T14:08:43Z</time>
      </trkpt>
      <trkpt lat="48.57426" lon="-2.53202">
        <ele>-1000</ele>
        <time>2007-05-30T14:08:43Z</time>
      </trkpt>
      <trkpt lat="48.57434" lon="-2.53091">
        <ele>-1000</ele>
        <time>2007-05-30T14:08:43Z</time>
      </trkpt>
      <trkpt lat="48.57417" lon="-2.53037">
        <ele>-1000</ele>
        <time>2007-05-30T14:08:43Z</time>
      </trkpt>
      <trkpt lat="48.57428" lon="-2.52873">
        <ele>-1000</ele>
        <time>2007-05-30T14:08:43Z</time>
      </trkpt>
      <trkpt lat="48.57393" lon="-2.5268">
        <ele>-1000</ele>
        <time>2007-05-30T14:08:43Z</time>
      </trkpt>
      <trkpt lat="48.5739" lon="-2.52554">
        <ele>-1000</ele>
        <time>2007-05-30T14:08:43Z</time>
      </trkpt>
      <trkpt lat="48.57375" lon="-2.5245">
        <ele>-1000</ele>
        <time>2007-05-30T14:08:43Z</time>
      </trkpt>
      <trkpt lat="48.5742" lon="-2.52033">
        <ele>-1000</ele>
        <time>2007-05-30T14:08:43Z</time>
      </trkpt>
      <trkpt lat="48.57331" lon="-2.51929">
        <ele>-1000</ele>
        <time>2007-05-30T14:08:43Z</time>
      </trkpt>
      <trkpt lat="48.57545" lon="-2.51562">
        <ele>-1000</ele>
        <time>2007-05-30T14:08:43Z</time>
      </trkpt>
      <trkpt lat="48.57586" lon="-2.51532">
        <ele>-1000</ele>
        <time>2007-05-30T14:08:43Z</time>
      </trkpt>
      <trkpt lat="48.57613" lon="-2.51548">
        <ele>-1000</ele>
        <time>2007-05-30T14:08:43Z</time>
      </trkpt>
      <trkpt lat="48.57693" lon="-2.51536">
        <ele>-1000</ele>
        <time>2007-05-30T14:08:43Z</time>
      </trkpt>
      <trkpt lat="48.57684" lon="-2.51508">
        <ele>-1000</ele>
        <time>2007-05-30T14:08:43Z</time>
      </trkpt>
      <trkpt lat="48.5769" lon="-2.51476">
        <ele>-1000</ele>
        <time>2007-05-30T14:08:43Z</time>
      </trkpt>
      <trkpt lat="48.57885" lon="-2.51264">
        <ele>-1000</ele>
        <time>2007-05-30T14:08:43Z</time>
      </trkpt>
      <trkpt lat="48.57879" lon="-2.51245">
        <ele>-1000</ele>
        <time>2007-05-30T14:08:43Z</time>
      </trkpt>
      <trkpt lat="48.5818" lon="-2.51117">
        <ele>-1000</ele>
        <time>2007-05-30T14:08:43Z</time>
      </trkpt>
      <trkpt lat="48.58294" lon="-2.51033">
        <ele>-1000</ele>
        <time>2007-05-30T14:08:43Z</time>
      </trkpt>
      <trkpt lat="48.58346" lon="-2.5105">
        <ele>-1000</ele>
        <time>2007-05-30T14:08:43Z</time>
      </trkpt>
      <trkpt lat="48.58374" lon="-2.51032">
        <ele>-1000</ele>
        <time>2007-05-30T14:08:43Z</time>
      </trkpt>
      <trkpt lat="48.5841" lon="-2.5097">
        <ele>-1000</ele>
        <time>2007-05-30T14:08:43Z</time>
      </trkpt>
      <trkpt lat="48.58461" lon="-2.50944">
        <ele>-1000</ele>
        <time>2007-05-30T14:08:43Z</time>
      </trkpt>
      <trkpt lat="48.58534" lon="-2.50956">
        <ele>-1000</ele>
        <time>2007-05-30T14:08:43Z</time>
      </trkpt>
      <trkpt lat="48.58601" lon="-2.51019">
        <ele>-1000</ele>
        <time>2007-05-30T14:08:43Z</time>
      </trkpt>
      <trkpt lat="48.58644" lon="-2.51112">
        <ele>-1000</ele>
        <time>2007-05-30T14:08:43Z</time>
      </trkpt>
      <trkpt lat="48.58619" lon="-2.5117">
        <ele>-1000</ele>
        <time>2007-05-30T14:08:43Z</time>
      </trkpt>
      <trkpt lat="48.58597" lon="-2.5125">
        <ele>-1000</ele>
        <time>2007-05-30T14:08:43Z</time>
      </trkpt>
      <trkpt lat="48.58581" lon="-2.51335">
        <ele>-1000</ele>
        <time>2007-05-30T14:08:43Z</time>
      </trkpt>
      <trkpt lat="48.58574" lon="-2.51553">
        <ele>-1000</ele>
        <time>2007-05-30T14:08:43Z</time>
      </trkpt>
      <trkpt lat="48.58537" lon="-2.51767">
        <ele>-1000</ele>
        <time>2007-05-30T14:08:43Z</time>
      </trkpt>
      <trkpt lat="48.58702" lon="-2.51902">
        <ele>-1000</ele>
        <time>2007-05-30T14:08:43Z</time>
      </trkpt>
      <trkpt lat="48.58786" lon="-2.51956">
        <ele>-1000</ele>
        <time>2007-05-30T14:08:43Z</time>
      </trkpt>
      <trkpt lat="48.58923" lon="-2.51973">
        <ele>-1000</ele>
        <time>2007-05-30T14:08:43Z</time>
      </trkpt>
      <trkpt lat="48.59024" lon="-2.5204">
        <ele>-1000</ele>
        <time>2007-05-30T14:08:43Z</time>
      </trkpt>
      <trkpt lat="48.59031" lon="-2.51988">
        <ele>-1000</ele>
        <time>2007-05-30T14:08:43Z</time>
      </trkpt>
      <trkpt lat="48.59029" lon="-2.51874">
        <ele>-1000</ele>
        <time>2007-05-30T14:08:43Z</time>
      </trkpt>
      <trkpt lat="48.59057" lon="-2.51813">
        <ele>-1000</ele>
        <time>2007-05-30T14:08:43Z</time>
      </trkpt>
      <trkpt lat="48.59094" lon="-2.51751">
        <ele>-1000</ele>
        <time>2007-05-30T14:08:43Z</time>
      </trkpt>
      <trkpt lat="48.59116" lon="-2.51623">
        <ele>-1000</ele>
        <time>2007-05-30T14:08:43Z</time>
      </trkpt>
      <trkpt lat="48.59147" lon="-2.51548">
        <ele>-1000</ele>
        <time>2007-05-30T14:08:43Z</time>
      </trkpt>
      <trkpt lat="48.59161" lon="-2.51507">
        <ele>-1000</ele>
        <time>2007-05-30T14:08:43Z</time>
      </trkpt>
      <trkpt lat="48.59205" lon="-2.51529">
        <ele>-1000</ele>
        <time>2007-05-30T14:08:43Z</time>
      </trkpt>
      <trkpt lat="48.59354" lon="-2.51513">
        <ele>-1000</ele>
        <time>2007-05-30T14:08:43Z</time>
      </trkpt>
      <trkpt lat="48.59419" lon="-2.51482">
        <ele>-1000</ele>
        <time>2007-05-30T14:08:43Z</time>
      </trkpt>
      <trkpt lat="48.59449" lon="-2.51411">
        <ele>-1000</ele>
        <time>2007-05-30T14:08:43Z</time>
      </trkpt>
      <trkpt lat="48.59472" lon="-2.51386">
        <ele>-1000</ele>
        <time>2007-05-30T14:08:43Z</time>
      </trkpt>
      <trkpt lat="48.59467" lon="-2.51328">
        <ele>-1000</ele>
        <time>2007-05-30T14:08:43Z</time>
      </trkpt>
      <trkpt lat="48.59455" lon="-2.51262">
        <ele>-1000</ele>
        <time>2007-05-30T14:08:43Z</time>
      </trkpt>
      <trkpt lat="48.59471" lon="-2.51128">
        <ele>-1000</ele>
        <time>2007-05-30T14:08:43Z</time>
      </trkpt>
      <trkpt lat="48.59467" lon="-2.51021">
        <ele>-1000</ele>
        <time>2007-05-30T14:08:43Z</time>
      </trkpt>
      <trkpt lat="48.59533" lon="-2.50829">
        <ele>-1000</ele>
        <time>2007-05-30T14:08:43Z</time>
      </trkpt>
      <trkpt lat="48.59615" lon="-2.50709">
        <ele>-1000</ele>
        <time>2007-05-30T14:08:43Z</time>
      </trkpt>
      <trkpt lat="48.59652" lon="-2.50601">
        <ele>-1000</ele>
        <time>2007-05-30T14:08:43Z</time>
      </trkpt>
      <trkpt lat="48.59717" lon="-2.50501">
        <ele>-1000</ele>
        <time>2007-05-30T14:08:43Z</time>
      </trkpt>
      <trkpt lat="48.59789" lon="-2.50366">
        <ele>-1000</ele>
        <time>2007-05-30T14:08:43Z</time>
      </trkpt>
      <trkpt lat="48.59794" lon="-2.50324">
        <ele>-1000</ele>
        <time>2007-05-30T14:08:43Z</time>
      </trkpt>
      <trkpt lat="48.59842" lon="-2.50286">
        <ele>-1000</ele>
        <time>2007-05-30T14:08:43Z</time>
      </trkpt>
      <trkpt lat="48.60001" lon="-2.50221">
        <ele>-1000</ele>
        <time>2007-05-30T14:08:43Z</time>
      </trkpt>
      <trkpt lat="48.6008" lon="-2.5009">
        <ele>-1000</ele>
        <time>2007-05-30T14:08:43Z</time>
      </trkpt>
      <trkpt lat="48.60091" lon="-2.49917">
        <ele>-1000</ele>
        <time>2007-05-30T14:08:43Z</time>
      </trkpt>
      <trkpt lat="48.60072" lon="-2.49894">
        <ele>-1000</ele>
        <time>2007-05-30T14:08:43Z</time>
      </trkpt>
      <trkpt lat="48.59994" lon="-2.49908">
        <ele>-1000</ele>
        <time>2007-05-30T14:08:43Z</time>
      </trkpt>
      <trkpt lat="48.59926" lon="-2.49894">
        <ele>-1000</ele>
        <time>2007-05-30T14:08:43Z</time>
      </trkpt>
      <trkpt lat="48.5987" lon="-2.49819">
        <ele>-1000</ele>
        <time>2007-05-30T14:08:43Z</time>
      </trkpt>
      <trkpt lat="48.59814" lon="-2.4977">
        <ele>-1000</ele>
        <time>2007-05-30T14:08:43Z</time>
      </trkpt>
      <trkpt lat="48.59778" lon="-2.49683">
        <ele>-1000</ele>
        <time>2007-05-30T14:08:43Z</time>
      </trkpt>
      <trkpt lat="48.59744" lon="-2.49632">
        <ele>-1000</ele>
        <time>2007-05-30T14:08:43Z</time>
      </trkpt>
      <trkpt lat="48.59792" lon="-2.49544">
        <ele>-1000</ele>
        <time>2007-05-30T14:08:43Z</time>
      </trkpt>
      <trkpt lat="48.59829" lon="-2.49398">
        <ele>-1000</ele>
        <time>2007-05-30T14:08:43Z</time>
      </trkpt>
      <trkpt lat="48.59888" lon="-2.49318">
        <ele>-1000</ele>
        <time>2007-05-30T14:08:43Z</time>
      </trkpt>
      <trkpt lat="48.59917" lon="-2.49278">
        <ele>-1000</ele>
        <time>2007-05-30T14:08:43Z</time>
      </trkpt>
      <trkpt lat="48.59949" lon="-2.49196">
        <ele>-1000</ele>
        <time>2007-05-30T14:08:43Z</time>
      </trkpt>
      <trkpt lat="48.60044" lon="-2.49206">
        <ele>-1000</ele>
        <time>2007-05-30T14:08:43Z</time>
      </trkpt>
      <trkpt lat="48.601" lon="-2.49225">
        <ele>-1000</ele>
        <time>2007-05-30T14:08:43Z</time>
      </trkpt>
      <trkpt lat="48.60143" lon="-2.4926">
        <ele>-1000</ele>
        <time>2007-05-30T14:08:43Z</time>
      </trkpt>
      <trkpt lat="48.60187" lon="-2.4917">
        <ele>-1000</ele>
        <time>2007-05-30T14:08:43Z</time>
      </trkpt>
      <trkpt lat="48.60217" lon="-2.49138">
        <ele>-1000</ele>
        <time>2007-05-30T14:08:43Z</time>
      </trkpt>
      <trkpt lat="48.60267" lon="-2.49132">
        <ele>-1000</ele>
        <time>2007-05-30T14:08:43Z</time>
      </trkpt>
      <trkpt lat="48.60319" lon="-2.4911">
        <ele>-1000</ele>
        <time>2007-05-30T14:08:43Z</time>
      </trkpt>
      <trkpt lat="48.60371" lon="-2.49128">
        <ele>-1000</ele>
        <time>2007-05-30T14:08:43Z</time>
      </trkpt>
      <trkpt lat="48.60382" lon="-2.49064">
        <ele>-1000</ele>
        <time>2007-05-30T14:08:43Z</time>
      </trkpt>
      <trkpt lat="48.60438" lon="-2.48994">
        <ele>-1000</ele>
        <time>2007-05-30T14:08:43Z</time>
      </trkpt>
      <trkpt lat="48.60488" lon="-2.48954">
        <ele>-1000</ele>
        <time>2007-05-30T14:08:43Z</time>
      </trkpt>
      <trkpt lat="48.60511" lon="-2.48904">
        <ele>-1000</ele>
        <time>2007-05-30T14:08:43Z</time>
      </trkpt>
      <trkpt lat="48.60521" lon="-2.48814">
        <ele>-1000</ele>
        <time>2007-05-30T14:08:43Z</time>
      </trkpt>
      <trkpt lat="48.60522" lon="-2.48701">
        <ele>-1000</ele>
        <time>2007-05-30T14:08:43Z</time>
      </trkpt>
      <trkpt lat="48.60537" lon="-2.48643">
        <ele>-1000</ele>
        <time>2007-05-30T14:08:43Z</time>
      </trkpt>
      <trkpt lat="48.60566" lon="-2.4859">
        <ele>-1000</ele>
        <time>2007-05-30T14:08:43Z</time>
      </trkpt>
      <trkpt lat="48.60598" lon="-2.48563">
        <ele>-1000</ele>
        <time>2007-05-30T14:08:43Z</time>
      </trkpt>
      <trkpt lat="48.60638" lon="-2.48637">
        <ele>-1000</ele>
        <time>2007-05-30T14:08:43Z</time>
      </trkpt>
      <trkpt lat="48.60632" lon="-2.48772">
        <ele>-1000</ele>
        <time>2007-05-30T14:08:43Z</time>
      </trkpt>
      <trkpt lat="48.60683" lon="-2.48883">
        <ele>-1000</ele>
        <time>2007-05-30T14:08:43Z</time>
      </trkpt>
      <trkpt lat="48.60778" lon="-2.48898">
        <ele>-1000</ele>
        <time>2007-05-30T14:08:43Z</time>
      </trkpt>
      <trkpt lat="48.6079" lon="-2.48572">
        <ele>-1000</ele>
        <time>2007-05-30T14:08:43Z</time>
      </trkpt>
      <trkpt lat="48.60824" lon="-2.48448">
        <ele>-1000</ele>
        <time>2007-05-30T14:08:43Z</time>
      </trkpt>
      <trkpt lat="48.60941" lon="-2.48122">
        <ele>-1000</ele>
        <time>2007-05-30T14:08:43Z</time>
      </trkpt>
      <trkpt lat="48.60969" lon="-2.4812">
        <ele>-1000</ele>
        <time>2007-05-30T14:08:43Z</time>
      </trkpt>
      <trkpt lat="48.61006" lon="-2.48057">
        <ele>-1000</ele>
        <time>2007-05-30T14:08:43Z</time>
      </trkpt>
      <trkpt lat="48.61007" lon="-2.48011">
        <ele>-1000</ele>
        <time>2007-05-30T14:08:43Z</time>
      </trkpt>
      <trkpt lat="48.61042" lon="-2.47979">
        <ele>-1000</ele>
        <time>2007-05-30T14:08:43Z</time>
      </trkpt>
      <trkpt lat="48.61232" lon="-2.47734">
        <ele>-1000</ele>
        <time>2007-05-30T14:08:43Z</time>
      </trkpt>
      <trkpt lat="48.61322" lon="-2.4765">
        <ele>-1000</ele>
        <time>2007-05-30T14:08:43Z</time>
      </trkpt>
      <trkpt lat="48.61494" lon="-2.47305">
        <ele>-1000</ele>
        <time>2007-05-30T14:08:43Z</time>
      </trkpt>
      <trkpt lat="48.61586" lon="-2.47147">
        <ele>-1000</ele>
        <time>2007-05-30T14:08:43Z</time>
      </trkpt>
      <trkpt lat="48.61619" lon="-2.47135">
        <ele>-1000</ele>
        <time>2007-05-30T14:08:43Z</time>
      </trkpt>
      <trkpt lat="48.6165" lon="-2.47102">
        <ele>-1000</ele>
        <time>2007-05-30T14:08:43Z</time>
      </trkpt>
      <trkpt lat="48.61705" lon="-2.46982">
        <ele>-1000</ele>
        <time>2007-05-30T14:08:43Z</time>
      </trkpt>
      <trkpt lat="48.61845" lon="-2.46805">
        <ele>-1000</ele>
        <time>2007-05-30T14:08:43Z</time>
      </trkpt>
      <trkpt lat="48.6193" lon="-2.46609">
        <ele>-1000</ele>
        <time>2007-05-30T14:08:43Z</time>
      </trkpt>
      <trkpt lat="48.62168" lon="-2.46558">
        <ele>-1000</ele>
        <time>2007-05-30T14:08:43Z</time>
      </trkpt>
      <trkpt lat="48.62191" lon="-2.46568">
        <ele>-1000</ele>
        <time>2007-05-30T14:08:43Z</time>
      </trkpt>
      <trkpt lat="48.62216" lon="-2.46523">
        <ele>-1000</ele>
        <time>2007-05-30T14:08:43Z</time>
      </trkpt>
      <trkpt lat="48.62228" lon="-2.46471">
        <ele>-1000</ele>
        <time>2007-05-30T14:08:43Z</time>
      </trkpt>
      <trkpt lat="48.62254" lon="-2.46452">
        <ele>-1000</ele>
        <time>2007-05-30T14:08:43Z</time>
      </trkpt>
      <trkpt lat="48.62282" lon="-2.46389">
        <ele>-1000</ele>
        <time>2007-05-30T14:08:43Z</time>
      </trkpt>
      <trkpt lat="48.62285" lon="-2.46329">
        <ele>-1000</ele>
        <time>2007-05-30T14:08:43Z</time>
      </trkpt>
      <trkpt lat="48.62386" lon="-2.4607">
        <ele>-1000</ele>
        <time>2007-05-30T14:08:43Z</time>
      </trkpt>
      <trkpt lat="48.62408" lon="-2.46065">
        <ele>-1000</ele>
        <time>2007-05-30T14:08:43Z</time>
      </trkpt>
      <trkpt lat="48.62451" lon="-2.45884">
        <ele>-1000</ele>
        <time>2007-05-30T14:08:43Z</time>
      </trkpt>
      <trkpt lat="48.62506" lon="-2.45828">
        <ele>-1000</ele>
        <time>2007-05-30T14:08:43Z</time>
      </trkpt>
      <trkpt lat="48.62522" lon="-2.45781">
        <ele>-1000</ele>
        <time>2007-05-30T14:08:43Z</time>
      </trkpt>
      <trkpt lat="48.62491" lon="-2.45775">
        <ele>-1000</ele>
        <time>2007-05-30T14:08:43Z</time>
      </trkpt>
      <trkpt lat="48.62434" lon="-2.45743">
        <ele>-1000</ele>
        <time>2007-05-30T14:08:43Z</time>
      </trkpt>
      <trkpt lat="48.62372" lon="-2.45683">
        <ele>-1000</ele>
        <time>2007-05-30T14:08:43Z</time>
      </trkpt>
      <trkpt lat="48.62339" lon="-2.45638">
        <ele>-1000</ele>
        <time>2007-05-30T14:08:43Z</time>
      </trkpt>
      <trkpt lat="48.62294" lon="-2.4556">
        <ele>-1000</ele>
        <time>2007-05-30T14:08:43Z</time>
      </trkpt>
      <trkpt lat="48.62248" lon="-2.4551">
        <ele>-1000</ele>
        <time>2007-05-30T14:08:43Z</time>
      </trkpt>
      <trkpt lat="48.6232" lon="-2.45419">
        <ele>-1000</ele>
        <time>2007-05-30T14:08:43Z</time>
      </trkpt>
      <trkpt lat="48.62342" lon="-2.45369">
        <ele>-1000</ele>
        <time>2007-05-30T14:08:43Z</time>
      </trkpt>
      <trkpt lat="48.62399" lon="-2.45332">
        <ele>-1000</ele>
        <time>2007-05-30T14:08:43Z</time>
      </trkpt>
      <trkpt lat="48.62312" lon="-2.45169">
        <ele>-1000</ele>
        <time>2007-05-30T14:08:43Z</time>
      </trkpt>
      <trkpt lat="48.62356" lon="-2.4513">
        <ele>-1000</ele>
        <time>2007-05-30T14:08:43Z</time>
      </trkpt>
      <trkpt lat="48.62461" lon="-2.44808">
        <ele>-1000</ele>
        <time>2007-05-30T14:08:43Z</time>
      </trkpt>
      <trkpt lat="48.62458" lon="-2.44774">
        <ele>-1000</ele>
        <time>2007-05-30T14:08:43Z</time>
      </trkpt>
      <trkpt lat="48.62447" lon="-2.44726">
        <ele>-1000</ele>
        <time>2007-05-30T14:08:43Z</time>
      </trkpt>
      <trkpt lat="48.62528" lon="-2.44599">
        <ele>-1000</ele>
        <time>2007-05-30T14:08:43Z</time>
      </trkpt>
      <trkpt lat="48.62524" lon="-2.44568">
        <ele>-1000</ele>
        <time>2007-05-30T14:08:43Z</time>
      </trkpt>
      <trkpt lat="48.62478" lon="-2.44482">
        <ele>-1000</ele>
        <time>2007-05-30T14:08:43Z</time>
      </trkpt>
      <trkpt lat="48.62561" lon="-2.44367">
        <ele>-1000</ele>
        <time>2007-05-30T14:08:43Z</time>
      </trkpt>
      <trkpt lat="48.62604" lon="-2.44331">
        <ele>-1000</ele>
        <time>2007-05-30T14:08:43Z</time>
      </trkpt>
      <trkpt lat="48.6277" lon="-2.44272">
        <ele>-1000</ele>
        <time>2007-05-30T14:08:43Z</time>
      </trkpt>
      <trkpt lat="48.62825" lon="-2.44225">
        <ele>-1000</ele>
        <time>2007-05-30T14:08:43Z</time>
      </trkpt>
      <trkpt lat="48.62919" lon="-2.44183">
        <ele>-1000</ele>
        <time>2007-05-30T14:08:43Z</time>
      </trkpt>
      <trkpt lat="48.6294" lon="-2.44111">
        <ele>-1000</ele>
        <time>2007-05-30T14:08:43Z</time>
      </trkpt>
      <trkpt lat="48.6296" lon="-2.44074">
        <ele>-1000</ele>
        <time>2007-05-30T14:08:43Z</time>
      </trkpt>
      <trkpt lat="48.62995" lon="-2.44059">
        <ele>-1000</ele>
        <time>2007-05-30T14:08:43Z</time>
      </trkpt>
      <trkpt lat="48.63058" lon="-2.44113">
        <ele>-1000</ele>
        <time>2007-05-30T14:08:43Z</time>
      </trkpt>
      <trkpt lat="48.63077" lon="-2.44113">
        <ele>-1000</ele>
        <time>2007-05-30T14:08:43Z</time>
      </trkpt>
      <trkpt lat="48.63111" lon="-2.44054">
        <ele>-1000</ele>
        <time>2007-05-30T14:08:43Z</time>
      </trkpt>
      <trkpt lat="48.63145" lon="-2.44031">
        <ele>-1000</ele>
        <time>2007-05-30T14:08:43Z</time>
      </trkpt>
    </trkseg>
  </trk>
  <trk>
    <name><![CDATA[fusion]]></name>
    <trkseg>
      <trkpt lat="48.62008" lon="-1.60443">
        <ele>8</ele>
        <time>2007-12-24T14:39:15Z</time>
      </trkpt>
      <trkpt lat="48.61638" lon="-1.60469">
        <ele>7</ele>
        <time>2007-12-24T14:39:15Z</time>
      </trkpt>
      <trkpt lat="48.61652" lon="-1.60209">
        <ele>7</ele>
        <time>2007-12-24T14:39:15Z</time>
      </trkpt>
      <trkpt lat="48.61634" lon="-1.59865">
        <ele>7</ele>
        <time>2007-12-24T14:39:15Z</time>
      </trkpt>
      <trkpt lat="48.6151" lon="-1.5933">
        <ele>8</ele>
        <time>2007-12-24T14:39:15Z</time>
      </trkpt>
      <trkpt lat="48.60474" lon="-1.59408">
        <ele>8</ele>
        <time>2007-12-24T14:39:15Z</time>
      </trkpt>
      <trkpt lat="48.60439" lon="-1.5931">
        <ele>8</ele>
        <time>2007-12-24T14:39:15Z</time>
      </trkpt>
      <trkpt lat="48.60442" lon="-1.59151">
        <ele>8</ele>
        <time>2007-12-24T14:39:15Z</time>
      </trkpt>
      <trkpt lat="48.60426" lon="-1.59038">
        <ele>8</ele>
        <time>2007-12-24T14:39:15Z</time>
      </trkpt>
      <trkpt lat="48.60305" lon="-1.58964">
        <ele>8</ele>
        <time>2007-12-24T14:39:15Z</time>
      </trkpt>
      <trkpt lat="48.602" lon="-1.5899">
        <ele>9</ele>
        <time>2007-12-24T14:39:15Z</time>
      </trkpt>
      <trkpt lat="48.59977" lon="-1.58878">
        <ele>8</ele>
        <time>2007-12-24T14:39:15Z</time>
      </trkpt>
      <trkpt lat="48.59866" lon="-1.58755">
        <ele>8</ele>
        <time>2007-12-24T14:39:15Z</time>
      </trkpt>
      <trkpt lat="48.59619" lon="-1.58956">
        <ele>7</ele>
        <time>2007-12-24T14:39:15Z</time>
      </trkpt>
      <trkpt lat="48.59534" lon="-1.58981">
        <ele>6</ele>
        <time>2007-12-24T14:39:15Z</time>
      </trkpt>
      <trkpt lat="48.59146" lon="-1.59033">
        <ele>7</ele>
        <time>2007-12-24T14:39:15Z</time>
      </trkpt>
      <trkpt lat="48.59026" lon="-1.58983">
        <ele>12</ele>
        <time>2007-12-24T14:39:15Z</time>
      </trkpt>
      <trkpt lat="48.58938" lon="-1.59058">
        <ele>41</ele>
        <time>2007-12-24T14:39:15Z</time>
      </trkpt>
      <trkpt lat="48.58929" lon="-1.59115">
        <ele>50</ele>
        <time>2007-12-24T14:39:15Z</time>
      </trkpt>
      <trkpt lat="48.58848" lon="-1.59136">
        <ele>56</ele>
        <time>2007-12-24T14:39:15Z</time>
      </trkpt>
      <trkpt lat="48.58872" lon="-1.59216">
        <ele>56</ele>
        <time>2007-12-24T14:39:15Z</time>
      </trkpt>
      <trkpt lat="48.5892" lon="-1.59328">
        <ele>59</ele>
        <time>2007-12-24T14:39:15Z</time>
      </trkpt>
      <trkpt lat="48.58985" lon="-1.5955">
        <ele>66</ele>
        <time>2007-12-24T14:39:15Z</time>
      </trkpt>
      <trkpt lat="48.58973" lon="-1.59684">
        <ele>69</ele>
        <time>2007-12-24T14:39:15Z</time>
      </trkpt>
      <trkpt lat="48.58979" lon="-1.60048">
        <ele>63</ele>
        <time>2007-12-24T14:39:15Z</time>
      </trkpt>
      <trkpt lat="48.59162" lon="-1.60028">
        <ele>73</ele>
        <time>2007-12-24T14:39:15Z</time>
      </trkpt>
      <trkpt lat="48.59261" lon="-1.6009">
        <ele>74</ele>
        <time>2007-12-24T14:39:15Z</time>
      </trkpt>
      <trkpt lat="48.59212" lon="-1.60293">
        <ele>71</ele>
        <time>2007-12-24T14:39:15Z</time>
      </trkpt>
      <trkpt lat="48.5923" lon="-1.60423">
        <ele>69</ele>
        <time>2007-12-24T14:39:15Z</time>
      </trkpt>
      <trkpt lat="48.59325" lon="-1.6041">
        <ele>69</ele>
        <time>2007-12-24T14:39:15Z</time>
      </trkpt>
      <trkpt lat="48.59365" lon="-1.60565">
        <ele>63</ele>
        <time>2007-12-24T14:39:15Z</time>
      </trkpt>
      <trkpt lat="48.59338" lon="-1.60686">
        <ele>72</ele>
        <time>2007-12-24T14:39:15Z</time>
      </trkpt>
      <trkpt lat="48.59365" lon="-1.60827">
        <ele>64</ele>
        <time>2007-12-24T14:39:15Z</time>
      </trkpt>
      <trkpt lat="48.59344" lon="-1.60927">
        <ele>58</ele>
        <time>2007-12-24T14:39:15Z</time>
      </trkpt>
      <trkpt lat="48.59306" lon="-1.6091">
        <ele>54</ele>
        <time>2007-12-24T14:39:15Z</time>
      </trkpt>
      <trkpt lat="48.59283" lon="-1.61075">
        <ele>47</ele>
        <time>2007-12-24T14:39:15Z</time>
      </trkpt>
      <trkpt lat="48.59431" lon="-1.61201">
        <ele>21</ele>
        <time>2007-12-24T14:39:15Z</time>
      </trkpt>
      <trkpt lat="48.59438" lon="-1.6127">
        <ele>11</ele>
        <time>2007-12-24T14:39:15Z</time>
      </trkpt>
      <trkpt lat="48.59408" lon="-1.6144">
        <ele>15</ele>
        <time>2007-12-24T14:39:15Z</time>
      </trkpt>
      <trkpt lat="48.59341" lon="-1.61429">
        <ele>30</ele>
        <time>2007-12-24T14:39:15Z</time>
      </trkpt>
      <trkpt lat="48.59182" lon="-1.61586">
        <ele>43</ele>
        <time>2007-12-24T14:39:15Z</time>
      </trkpt>
      <trkpt lat="48.59111" lon="-1.61625">
        <ele>49</ele>
        <time>2007-12-24T14:39:15Z</time>
      </trkpt>
      <trkpt lat="48.59086" lon="-1.61701">
        <ele>51</ele>
        <time>2007-12-24T14:39:15Z</time>
      </trkpt>
      <trkpt lat="48.58992" lon="-1.61748">
        <ele>50</ele>
        <time>2007-12-24T14:39:15Z</time>
      </trkpt>
      <trkpt lat="48.58928" lon="-1.61726">
        <ele>51</ele>
        <time>2007-12-24T14:39:15Z</time>
      </trkpt>
      <trkpt lat="48.58762" lon="-1.62046">
        <ele>70</ele>
        <time>2007-12-24T14:39:15Z</time>
      </trkpt>
      <trkpt lat="48.58994" lon="-1.62047">
        <ele>63</ele>
        <time>2007-12-24T14:39:15Z</time>
      </trkpt>
      <trkpt lat="48.59107" lon="-1.62032">
        <ele>63</ele>
        <time>2007-12-24T14:39:15Z</time>
      </trkpt>
      <trkpt lat="48.5913" lon="-1.62064">
        <ele>64</ele>
        <time>2007-12-24T14:39:15Z</time>
      </trkpt>
      <trkpt lat="48.59229" lon="-1.62071">
        <ele>62</ele>
        <time>2007-12-24T14:39:15Z</time>
      </trkpt>
      <trkpt lat="48.59282" lon="-1.62225">
        <ele>58</ele>
        <time>2007-12-24T14:39:15Z</time>
      </trkpt>
      <trkpt lat="48.59331" lon="-1.62252">
        <ele>51</ele>
        <time>2007-12-24T14:39:15Z</time>
      </trkpt>
      <trkpt lat="48.59327" lon="-1.62374">
        <ele>49</ele>
        <time>2007-12-24T14:39:15Z</time>
      </trkpt>
      <trkpt lat="48.59392" lon="-1.62382">
        <ele>22</ele>
        <time>2007-12-24T14:39:15Z</time>
      </trkpt>
      <trkpt lat="48.59364" lon="-1.62489">
        <ele>25</ele>
        <time>2007-12-24T14:39:15Z</time>
      </trkpt>
      <trkpt lat="48.5932" lon="-1.62506">
        <ele>44</ele>
        <time>2007-12-24T14:39:15Z</time>
      </trkpt>
      <trkpt lat="48.59273" lon="-1.62648">
        <ele>49</ele>
        <time>2007-12-24T14:39:15Z</time>
      </trkpt>
      <trkpt lat="48.59233" lon="-1.62699">
        <ele>62</ele>
        <time>2007-12-24T14:39:15Z</time>
      </trkpt>
      <trkpt lat="48.59177" lon="-1.62875">
        <ele>56</ele>
        <time>2007-12-24T14:39:15Z</time>
      </trkpt>
      <trkpt lat="48.5912" lon="-1.62976">
        <ele>56</ele>
        <time>2007-12-24T14:39:15Z</time>
      </trkpt>
      <trkpt lat="48.591" lon="-1.62974">
        <ele>61</ele>
        <time>2007-12-24T14:39:15Z</time>
      </trkpt>
      <trkpt lat="48.59008" lon="-1.6316">
        <ele>58</ele>
        <time>2007-12-24T14:39:15Z</time>
      </trkpt>
      <trkpt lat="48.58923" lon="-1.6314">
        <ele>67</ele>
        <time>2007-12-24T14:39:15Z</time>
      </trkpt>
      <trkpt lat="48.5887" lon="-1.63323">
        <ele>47</ele>
        <time>2007-12-24T14:39:15Z</time>
      </trkpt>
      <trkpt lat="48.58814" lon="-1.63305">
        <ele>49</ele>
        <time>2007-12-24T14:39:15Z</time>
      </trkpt>
      <trkpt lat="48.58771" lon="-1.63264">
        <ele>51</ele>
        <time>2007-12-24T14:39:15Z</time>
      </trkpt>
      <trkpt lat="48.58773" lon="-1.63119">
        <ele>57</ele>
        <time>2007-12-24T14:39:15Z</time>
      </trkpt>
      <trkpt lat="48.58705" lon="-1.62795">
        <ele>67</ele>
        <time>2007-12-24T14:39:15Z</time>
      </trkpt>
      <trkpt lat="48.58442" lon="-1.62876">
        <ele>82</ele>
        <time>2007-12-24T14:39:15Z</time>
      </trkpt>
      <trkpt lat="48.58525" lon="-1.63076">
        <ele>76</ele>
        <time>2007-12-24T14:39:15Z</time>
      </trkpt>
      <trkpt lat="48.58707" lon="-1.63219">
        <ele>56</ele>
        <time>2007-12-24T14:39:15Z</time>
      </trkpt>
      <trkpt lat="48.58712" lon="-1.63328">
        <ele>54</ele>
        <time>2007-12-24T14:39:15Z</time>
      </trkpt>
      <trkpt lat="48.58606" lon="-1.63469">
        <ele>57</ele>
        <time>2007-12-24T14:39:15Z</time>
      </trkpt>
      <trkpt lat="48.5858" lon="-1.63575">
        <ele>52</ele>
        <time>2007-12-24T14:39:15Z</time>
      </trkpt>
      <trkpt lat="48.58654" lon="-1.63652">
        <ele>52</ele>
        <time>2007-12-24T14:39:15Z</time>
      </trkpt>
      <trkpt lat="48.58686" lon="-1.6378">
        <ele>56</ele>
        <time>2007-12-24T14:39:15Z</time>
      </trkpt>
      <trkpt lat="48.5852" lon="-1.64012">
        <ele>61</ele>
        <time>2007-12-24T14:39:15Z</time>
      </trkpt>
      <trkpt lat="48.58364" lon="-1.64037">
        <ele>66</ele>
        <time>2007-12-24T14:39:15Z</time>
      </trkpt>
      <trkpt lat="48.58254" lon="-1.64107">
        <ele>67</ele>
        <time>2007-12-24T14:39:15Z</time>
      </trkpt>
      <trkpt lat="48.58125" lon="-1.64324">
        <ele>69</ele>
        <time>2007-12-24T14:39:15Z</time>
      </trkpt>
      <trkpt lat="48.5805" lon="-1.64691">
        <ele>63</ele>
        <time>2007-12-24T14:39:15Z</time>
      </trkpt>
      <trkpt lat="48.57902" lon="-1.65141">
        <ele>56</ele>
        <time>2007-12-24T14:39:15Z</time>
      </trkpt>
      <trkpt lat="48.57973" lon="-1.65371">
        <ele>51</ele>
        <time>2007-12-24T14:39:15Z</time>
      </trkpt>
      <trkpt lat="48.57998" lon="-1.65423">
        <ele>48</ele>
        <time>2007-12-24T14:39:15Z</time>
      </trkpt>
      <trkpt lat="48.58094" lon="-1.65448">
        <ele>46</ele>
        <time>2007-12-24T14:39:15Z</time>
      </trkpt>
      <trkpt lat="48.58127" lon="-1.65416">
        <ele>51</ele>
        <time>2007-12-24T14:39:15Z</time>
      </trkpt>
      <trkpt lat="48.58213" lon="-1.65443">
        <ele>36</ele>
        <time>2007-12-24T14:39:15Z</time>
      </trkpt>
      <trkpt lat="48.58246" lon="-1.65493">
        <ele>30</ele>
        <time>2007-12-24T14:39:15Z</time>
      </trkpt>
      <trkpt lat="48.58356" lon="-1.65546">
        <ele>28</ele>
        <time>2007-12-24T14:39:15Z</time>
      </trkpt>
      <trkpt lat="48.58514" lon="-1.65531">
        <ele>32</ele>
        <time>2007-12-24T14:39:15Z</time>
      </trkpt>
      <trkpt lat="48.58667" lon="-1.65739">
        <ele>7</ele>
        <time>2007-12-24T14:39:15Z</time>
      </trkpt>
      <trkpt lat="48.58655" lon="-1.65908">
        <ele>9</ele>
        <time>2007-12-24T14:39:15Z</time>
      </trkpt>
      <trkpt lat="48.58369" lon="-1.66235">
        <ele>9</ele>
        <time>2007-12-24T14:39:15Z</time>
      </trkpt>
      <trkpt lat="48.58228" lon="-1.66275">
        <ele>19</ele>
        <time>2007-12-24T14:39:15Z</time>
      </trkpt>
      <trkpt lat="48.58148" lon="-1.66381">
        <ele>24</ele>
        <time>2007-12-24T14:39:15Z</time>
      </trkpt>
      <trkpt lat="48.58127" lon="-1.66478">
        <ele>23</ele>
        <time>2007-12-24T14:39:15Z</time>
      </trkpt>
      <trkpt lat="48.57936" lon="-1.66545">
        <ele>40</ele>
        <time>2007-12-24T14:39:15Z</time>
      </trkpt>
      <trkpt lat="48.57689" lon="-1.66522">
        <ele>51</ele>
        <time>2007-12-24T14:39:15Z</time>
      </trkpt>
      <trkpt lat="48.57595" lon="-1.66959">
        <ele>59</ele>
        <time>2007-12-24T14:39:15Z</time>
      </trkpt>
      <trkpt lat="48.57495" lon="-1.67203">
        <ele>54</ele>
        <time>2007-12-24T14:39:15Z</time>
      </trkpt>
      <trkpt lat="48.5749" lon="-1.67331">
        <ele>48</ele>
        <time>2007-12-24T14:39:15Z</time>
      </trkpt>
      <trkpt lat="48.57436" lon="-1.67415">
        <ele>53</ele>
        <time>2007-12-24T14:39:15Z</time>
      </trkpt>
      <trkpt lat="48.57352" lon="-1.67832">
        <ele>54</ele>
        <time>2007-12-24T14:39:15Z</time>
      </trkpt>
      <trkpt lat="48.57355" lon="-1.68012">
        <ele>59</ele>
        <time>2007-12-24T14:39:15Z</time>
      </trkpt>
      <trkpt lat="48.57162" lon="-1.68713">
        <ele>58</ele>
        <time>2007-12-24T14:39:15Z</time>
      </trkpt>
      <trkpt lat="48.5718" lon="-1.6886">
        <ele>57</ele>
        <time>2007-12-24T14:39:15Z</time>
      </trkpt>
      <trkpt lat="48.56928" lon="-1.69302">
        <ele>54</ele>
        <time>2007-12-24T14:39:15Z</time>
      </trkpt>
      <trkpt lat="48.56731" lon="-1.69734">
        <ele>47</ele>
        <time>2007-12-24T14:39:15Z</time>
      </trkpt>
      <trkpt lat="48.5685" lon="-1.6995">
        <ele>34</ele>
        <time>2007-12-24T14:39:15Z</time>
      </trkpt>
      <trkpt lat="48.56948" lon="-1.70168">
        <ele>14</ele>
        <time>2007-12-24T14:39:15Z</time>
      </trkpt>
      <trkpt lat="48.57073" lon="-1.70151">
        <ele>15</ele>
        <time>2007-12-24T14:39:15Z</time>
      </trkpt>
      <trkpt lat="48.57139" lon="-1.70308">
        <ele>5</ele>
        <time>2007-12-24T14:39:15Z</time>
      </trkpt>
      <trkpt lat="48.57247" lon="-1.70435">
        <ele>3</ele>
        <time>2007-12-24T14:39:15Z</time>
      </trkpt>
      <trkpt lat="48.57082" lon="-1.70863">
        <ele>2</ele>
        <time>2007-12-24T14:39:15Z</time>
      </trkpt>
      <trkpt lat="48.56825" lon="-1.7122">
        <ele>2</ele>
        <time>2007-12-24T14:39:15Z</time>
      </trkpt>
      <trkpt lat="48.57327" lon="-1.7193">
        <ele>2</ele>
        <time>2007-12-24T14:39:15Z</time>
      </trkpt>
      <trkpt lat="48.56984" lon="-1.72351">
        <ele>2</ele>
        <time>2007-12-24T14:39:15Z</time>
      </trkpt>
      <trkpt lat="48.56721" lon="-1.72724">
        <ele>3</ele>
        <time>2007-12-24T14:39:15Z</time>
      </trkpt>
      <trkpt lat="48.56633" lon="-1.72921">
        <ele>3</ele>
        <time>2007-12-24T14:39:15Z</time>
      </trkpt>
      <trkpt lat="48.56444" lon="-1.73079">
        <ele>3</ele>
        <time>2007-12-24T14:39:15Z</time>
      </trkpt>
      <trkpt lat="48.5627" lon="-1.7336">
        <ele>3</ele>
        <time>2007-12-24T14:39:15Z</time>
      </trkpt>
      <trkpt lat="48.55994" lon="-1.73969">
        <ele>3</ele>
        <time>2007-12-24T14:39:15Z</time>
      </trkpt>
      <trkpt lat="48.55533" lon="-1.7378">
        <ele>4</ele>
        <time>2007-12-24T14:39:15Z</time>
      </trkpt>
      <trkpt lat="48.55553" lon="-1.73707">
        <ele>4</ele>
        <time>2007-12-24T14:39:15Z</time>
      </trkpt>
      <trkpt lat="48.55445" lon="-1.73706">
        <ele>6</ele>
        <time>2007-12-24T14:39:15Z</time>
      </trkpt>
      <trkpt lat="48.55298" lon="-1.74203">
        <ele>7</ele>
        <time>2007-12-24T14:39:15Z</time>
      </trkpt>
      <trkpt lat="48.55222" lon="-1.74187">
        <ele>10</ele>
        <time>2007-12-24T14:39:15Z</time>
      </trkpt>
      <trkpt lat="48.55199" lon="-1.74334">
        <ele>12</ele>
        <time>2007-12-24T14:39:15Z</time>
      </trkpt>
      <trkpt lat="48.55239" lon="-1.7452">
        <ele>14</ele>
        <time>2007-12-24T14:39:15Z</time>
      </trkpt>
      <trkpt lat="48.55185" lon="-1.7498">
        <ele>18</ele>
        <time>2007-12-24T14:39:15Z</time>
      </trkpt>
      <trkpt lat="48.55274" lon="-1.75075">
        <ele>10</ele>
        <time>2007-12-24T14:39:15Z</time>
      </trkpt>
      <trkpt lat="48.55144" lon="-1.75336">
        <ele>14</ele>
        <time>2007-12-24T14:39:15Z</time>
      </trkpt>
      <trkpt lat="48.55223" lon="-1.75448">
        <ele>6</ele>
        <time>2007-12-24T14:39:15Z</time>
      </trkpt>
    </trkseg>
  </trk>
  <trk>
    <name><![CDATA[tour de bretagne_11]]></name>
    <trkseg>
      <trkpt lat="47.90484" lon="-3.25217">
        <ele>102.94</ele>
      </trkpt>
      <trkpt lat="47.90254" lon="-3.25028">
        <ele>98.516</ele>
      </trkpt>
      <trkpt lat="47.90053" lon="-3.24789">
        <ele>92.64</ele>
      </trkpt>
      <trkpt lat="47.89975" lon="-3.24677">
        <ele>85.92001</ele>
      </trkpt>
      <trkpt lat="47.89932" lon="-3.24549">
        <ele>85.4816</ele>
      </trkpt>
      <trkpt lat="47.89921" lon="-3.2435">
        <ele>79.2</ele>
      </trkpt>
      <trkpt lat="47.89877" lon="-3.24176">
        <ele>75.864</ele>
      </trkpt>
      <trkpt lat="47.89771" lon="-3.2405">
        <ele>76.5248</ele>
      </trkpt>
      <trkpt lat="47.89708" lon="-3.23915">
        <ele>74.01</ele>
      </trkpt>
      <trkpt lat="47.89699" lon="-3.23806">
        <ele>71.528</ele>
      </trkpt>
      <trkpt lat="47.89729" lon="-3.23555">
        <ele>69.272</ele>
      </trkpt>
      <trkpt lat="47.89724" lon="-3.23285">
        <ele>57.912</ele>
      </trkpt>
      <trkpt lat="47.89713" lon="-3.23087">
        <ele>60.08</ele>
      </trkpt>
      <trkpt lat="47.89722" lon="-3.22903">
        <ele>57.8852</ele>
      </trkpt>
      <trkpt lat="47.89726" lon="-3.22743">
        <ele>52.7484</ele>
      </trkpt>
      <trkpt lat="47.8975" lon="-3.22544">
        <ele>45.472</ele>
      </trkpt>
      <trkpt lat="47.89742" lon="-3.22418">
        <ele>47.576</ele>
      </trkpt>
      <trkpt lat="47.89679" lon="-3.22325">
        <ele>45.2656</ele>
      </trkpt>
      <trkpt lat="47.89591" lon="-3.22223">
        <ele>42.32</ele>
      </trkpt>
      <trkpt lat="47.89494" lon="-3.22109">
        <ele>43.8168</ele>
      </trkpt>
      <trkpt lat="47.89398" lon="-3.22032">
        <ele>41.52</ele>
      </trkpt>
      <trkpt lat="47.89316" lon="-3.2193">
        <ele>38.738</ele>
      </trkpt>
      <trkpt lat="47.89251" lon="-3.21825">
        <ele>37.0824</ele>
      </trkpt>
      <trkpt lat="47.89217" lon="-3.21713">
        <ele>36.1736</ele>
      </trkpt>
      <trkpt lat="47.89177" lon="-3.21543">
        <ele>34.68</ele>
      </trkpt>
      <trkpt lat="47.89126" lon="-3.21445">
        <ele>33.838</ele>
      </trkpt>
      <trkpt lat="47.8904" lon="-3.21358">
        <ele>33.5016</ele>
      </trkpt>
      <trkpt lat="47.8905" lon="-3.21225">
        <ele>40.5484</ele>
      </trkpt>
      <trkpt lat="47.89071" lon="-3.21072">
        <ele>49.4904</ele>
      </trkpt>
      <trkpt lat="47.89136" lon="-3.21006">
        <ele>53.3248</ele>
      </trkpt>
      <trkpt lat="47.89215" lon="-3.20958">
        <ele>56.66</ele>
      </trkpt>
      <trkpt lat="47.89349" lon="-3.20916">
        <ele>71.32</ele>
      </trkpt>
      <trkpt lat="47.89388" lon="-3.20717">
        <ele>77.06</ele>
      </trkpt>
      <trkpt lat="47.89402" lon="-3.20543">
        <ele>77.36</ele>
      </trkpt>
      <trkpt lat="47.89388" lon="-3.20386">
        <ele>70.24</ele>
      </trkpt>
      <trkpt lat="47.89372" lon="-3.20292">
        <ele>67.2624</ele>
      </trkpt>
      <trkpt lat="47.8937" lon="-3.20111">
        <ele>55.664</ele>
      </trkpt>
      <trkpt lat="47.89312" lon="-3.20022">
        <ele>47.86</ele>
      </trkpt>
      <trkpt lat="47.89281" lon="-3.19931">
        <ele>51.316</ele>
      </trkpt>
      <trkpt lat="47.89274" lon="-3.19862">
        <ele>56.064</ele>
      </trkpt>
      <trkpt lat="47.89309" lon="-3.19784">
        <ele>61.48</ele>
      </trkpt>
      <trkpt lat="47.89307" lon="-3.1969">
        <ele>65.5456</ele>
      </trkpt>
      <trkpt lat="47.89365" lon="-3.19624">
        <ele>67.36</ele>
      </trkpt>
      <trkpt lat="47.89418" lon="-3.19604">
        <ele>69.7028</ele>
      </trkpt>
      <trkpt lat="47.89492" lon="-3.19664">
        <ele>78.4016</ele>
      </trkpt>
      <trkpt lat="47.89558" lon="-3.19686">
        <ele>86.494</ele>
      </trkpt>
      <trkpt lat="47.8963" lon="-3.19704">
        <ele>92.0116</ele>
      </trkpt>
      <trkpt lat="47.89695" lon="-3.19794">
        <ele>93.584</ele>
      </trkpt>
      <trkpt lat="47.89746" lon="-3.19886">
        <ele>95.496</ele>
      </trkpt>
      <trkpt lat="47.89814" lon="-3.19987">
        <ele>98.0112</ele>
      </trkpt>
      <trkpt lat="47.89903" lon="-3.20022">
        <ele>104.5936</ele>
      </trkpt>
      <trkpt lat="47.89945" lon="-3.20171">
        <ele>112.28</ele>
      </trkpt>
      <trkpt lat="47.89968" lon="-3.20266">
        <ele>117.04</ele>
      </trkpt>
      <trkpt lat="47.90035" lon="-3.20331">
        <ele>123.3564</ele>
      </trkpt>
      <trkpt lat="47.90089" lon="-3.20346">
        <ele>125</ele>
      </trkpt>
      <trkpt lat="47.90159" lon="-3.20489">
        <ele>128.54</ele>
      </trkpt>
      <trkpt lat="47.90207" lon="-3.20586">
        <ele>127.628</ele>
      </trkpt>
      <trkpt lat="47.90244" lon="-3.20657">
        <ele>127.2552</ele>
      </trkpt>
      <trkpt lat="47.90316" lon="-3.20592">
        <ele>114.1</ele>
      </trkpt>
      <trkpt lat="47.90389" lon="-3.20538">
        <ele>114.26</ele>
      </trkpt>
      <trkpt lat="47.90496" lon="-3.2056">
        <ele>96.6176</ele>
      </trkpt>
      <trkpt lat="47.90566" lon="-3.20604">
        <ele>92.24</ele>
      </trkpt>
      <trkpt lat="47.90599" lon="-3.20653">
        <ele>97.644</ele>
      </trkpt>
      <trkpt lat="47.90624" lon="-3.20703">
        <ele>103.5288</ele>
      </trkpt>
      <trkpt lat="47.9071" lon="-3.20717">
        <ele>97.22</ele>
      </trkpt>
      <trkpt lat="47.90746" lon="-3.20773">
        <ele>98.056</ele>
      </trkpt>
      <trkpt lat="47.90763" lon="-3.20862">
        <ele>95.5</ele>
      </trkpt>
      <trkpt lat="47.90825" lon="-3.20812">
        <ele>81.16</ele>
      </trkpt>
      <trkpt lat="47.90898" lon="-3.20789">
        <ele>70.608</ele>
      </trkpt>
      <trkpt lat="47.90999" lon="-3.20804">
        <ele>53.332</ele>
      </trkpt>
      <trkpt lat="47.9104" lon="-3.2071">
        <ele>57.6288</ele>
      </trkpt>
      <trkpt lat="47.91054" lon="-3.20592">
        <ele>52.908</ele>
      </trkpt>
      <trkpt lat="47.91098" lon="-3.20524">
        <ele>54.9152</ele>
      </trkpt>
      <trkpt lat="47.91139" lon="-3.20462">
        <ele>57.64</ele>
      </trkpt>
      <trkpt lat="47.91111" lon="-3.20413">
        <ele>60.892</ele>
      </trkpt>
      <trkpt lat="47.9105" lon="-3.20365">
        <ele>63.256</ele>
      </trkpt>
      <trkpt lat="47.91028" lon="-3.20238">
        <ele>67.8032</ele>
      </trkpt>
      <trkpt lat="47.91015" lon="-3.20144">
        <ele>75.678</ele>
      </trkpt>
      <trkpt lat="47.91008" lon="-3.20024">
        <ele>79.6996</ele>
      </trkpt>
      <trkpt lat="47.91016" lon="-3.19969">
        <ele>78.6576</ele>
      </trkpt>
      <trkpt lat="47.91067" lon="-3.2001">
        <ele>84.7504</ele>
      </trkpt>
      <trkpt lat="47.9113" lon="-3.20001">
        <ele>89.5904</ele>
      </trkpt>
      <trkpt lat="47.91122" lon="-3.19881">
        <ele>85.0968</ele>
      </trkpt>
      <trkpt lat="47.91113" lon="-3.19782">
        <ele>93.0048</ele>
      </trkpt>
      <trkpt lat="47.91138" lon="-3.19614">
        <ele>109.8312</ele>
      </trkpt>
      <trkpt lat="47.91102" lon="-3.19516">
        <ele>105.68</ele>
      </trkpt>
      <trkpt lat="47.91072" lon="-3.19395">
        <ele>101.472</ele>
      </trkpt>
      <trkpt lat="47.91024" lon="-3.19307">
        <ele>91.2048</ele>
      </trkpt>
      <trkpt lat="47.91035" lon="-3.1921">
        <ele>89.728</ele>
      </trkpt>
      <trkpt lat="47.91076" lon="-3.19153">
        <ele>97.3224</ele>
      </trkpt>
      <trkpt lat="47.90996" lon="-3.19098">
        <ele>88.112</ele>
      </trkpt>
      <trkpt lat="47.90959" lon="-3.19">
        <ele>87</ele>
      </trkpt>
      <trkpt lat="47.90941" lon="-3.18859">
        <ele>86.76</ele>
      </trkpt>
      <trkpt lat="47.90929" lon="-3.18734">
        <ele>87.22</ele>
      </trkpt>
      <trkpt lat="47.90921" lon="-3.18624">
        <ele>88.1484</ele>
      </trkpt>
      <trkpt lat="47.90934" lon="-3.18548">
        <ele>88.1256</ele>
      </trkpt>
      <trkpt lat="47.90916" lon="-3.18479">
        <ele>86.2356</ele>
      </trkpt>
      <trkpt lat="47.90889" lon="-3.18399">
        <ele>88.98</ele>
      </trkpt>
      <trkpt lat="47.90901" lon="-3.18297">
        <ele>95.5656</ele>
      </trkpt>
      <trkpt lat="47.90947" lon="-3.18208">
        <ele>108.9248</ele>
      </trkpt>
      <trkpt lat="47.91011" lon="-3.18173">
        <ele>122.3736</ele>
      </trkpt>
      <trkpt lat="47.90933" lon="-3.18072">
        <ele>115.08</ele>
      </trkpt>
      <trkpt lat="47.90853" lon="-3.17991">
        <ele>100.858</ele>
      </trkpt>
      <trkpt lat="47.90801" lon="-3.17919">
        <ele>89.06</ele>
      </trkpt>
      <trkpt lat="47.90704" lon="-3.17831">
        <ele>74.256</ele>
      </trkpt>
      <trkpt lat="47.90682" lon="-3.17772">
        <ele>74.5264</ele>
      </trkpt>
      <trkpt lat="47.90675" lon="-3.17647">
        <ele>72.7296</ele>
      </trkpt>
      <trkpt lat="47.90639" lon="-3.17529">
        <ele>71.88</ele>
      </trkpt>
      <trkpt lat="47.90607" lon="-3.17464">
        <ele>73.54</ele>
      </trkpt>
      <trkpt lat="47.90532" lon="-3.17498">
        <ele>79.4696</ele>
      </trkpt>
      <trkpt lat="47.90464" lon="-3.17552">
        <ele>90.5984</ele>
      </trkpt>
      <trkpt lat="47.90383" lon="-3.17544">
        <ele>100.8064</ele>
      </trkpt>
      <trkpt lat="47.90283" lon="-3.17524">
        <ele>109.6656</ele>
      </trkpt>
      <trkpt lat="47.90181" lon="-3.17544">
        <ele>117.8512</ele>
      </trkpt>
      <trkpt lat="47.90094" lon="-3.1755">
        <ele>122.6944</ele>
      </trkpt>
      <trkpt lat="47.90076" lon="-3.17434">
        <ele>123.2352</ele>
      </trkpt>
      <trkpt lat="47.90052" lon="-3.17339">
        <ele>124.16</ele>
      </trkpt>
      <trkpt lat="47.90076" lon="-3.17191">
        <ele>122.696</ele>
      </trkpt>
      <trkpt lat="47.9011" lon="-3.17066">
        <ele>127.82</ele>
      </trkpt>
      <trkpt lat="47.90147" lon="-3.16935">
        <ele>127.02</ele>
      </trkpt>
      <trkpt lat="47.90161" lon="-3.16797">
        <ele>122.9736</ele>
      </trkpt>
      <trkpt lat="47.90157" lon="-3.16668">
        <ele>120.0976</ele>
      </trkpt>
      <trkpt lat="47.90164" lon="-3.16518">
        <ele>116.904</ele>
      </trkpt>
      <trkpt lat="47.90205" lon="-3.16388">
        <ele>109.34</ele>
      </trkpt>
      <trkpt lat="47.90267" lon="-3.16317">
        <ele>106.31</ele>
      </trkpt>
      <trkpt lat="47.90305" lon="-3.16259">
        <ele>105.42</ele>
      </trkpt>
      <trkpt lat="47.90212" lon="-3.16239">
        <ele>104.804</ele>
      </trkpt>
      <trkpt lat="47.90144" lon="-3.1621">
        <ele>104.2712</ele>
      </trkpt>
      <trkpt lat="47.90097" lon="-3.16165">
        <ele>105.7208</ele>
      </trkpt>
      <trkpt lat="47.90038" lon="-3.16159">
        <ele>116.1036</ele>
      </trkpt>
      <trkpt lat="47.90009" lon="-3.16037">
        <ele>117.9872</ele>
      </trkpt>
      <trkpt lat="47.89976" lon="-3.15939">
        <ele>121.12</ele>
      </trkpt>
      <trkpt lat="47.89918" lon="-3.15846">
        <ele>122.4792</ele>
      </trkpt>
      <trkpt lat="47.89869" lon="-3.15764">
        <ele>124.4976</ele>
      </trkpt>
      <trkpt lat="47.89901" lon="-3.15689">
        <ele>120.3</ele>
      </trkpt>
      <trkpt lat="47.89947" lon="-3.1558">
        <ele>112.36</ele>
      </trkpt>
      <trkpt lat="47.8995" lon="-3.15446">
        <ele>109.9788</ele>
      </trkpt>
      <trkpt lat="47.8997" lon="-3.15314">
        <ele>101.8832</ele>
      </trkpt>
      <trkpt lat="47.89996" lon="-3.15141">
        <ele>86.68</ele>
      </trkpt>
      <trkpt lat="47.89943" lon="-3.14996">
        <ele>71.5592</ele>
      </trkpt>
      <trkpt lat="47.89864" lon="-3.14766">
        <ele>61.0272</ele>
      </trkpt>
      <trkpt lat="47.89805" lon="-3.14562">
        <ele>61.9784</ele>
      </trkpt>
      <trkpt lat="47.89757" lon="-3.14372">
        <ele>62.4168</ele>
      </trkpt>
      <trkpt lat="47.89687" lon="-3.14224">
        <ele>55.7552</ele>
      </trkpt>
      <trkpt lat="47.89607" lon="-3.1418">
        <ele>57.9404</ele>
      </trkpt>
      <trkpt lat="47.89509" lon="-3.14103">
        <ele>51.9888</ele>
      </trkpt>
      <trkpt lat="47.89409" lon="-3.14078">
        <ele>57.7296</ele>
      </trkpt>
      <trkpt lat="47.89321" lon="-3.14105">
        <ele>61.8224</ele>
      </trkpt>
      <trkpt lat="47.89232" lon="-3.14157">
        <ele>69.5</ele>
      </trkpt>
      <trkpt lat="47.89164" lon="-3.14134">
        <ele>60.0384</ele>
      </trkpt>
      <trkpt lat="47.89085" lon="-3.14028">
        <ele>33.5712</ele>
      </trkpt>
      <trkpt lat="47.89159" lon="-3.1401">
        <ele>32.6832</ele>
      </trkpt>
      <trkpt lat="47.89273" lon="-3.14011">
        <ele>39.4048</ele>
      </trkpt>
      <trkpt lat="47.89368" lon="-3.1399">
        <ele>43.92</ele>
      </trkpt>
      <trkpt lat="47.89427" lon="-3.1398">
        <ele>46.8496</ele>
      </trkpt>
      <trkpt lat="47.89463" lon="-3.13922">
        <ele>65.96481</ele>
      </trkpt>
      <trkpt lat="47.89524" lon="-3.13923">
        <ele>77.0496</ele>
      </trkpt>
      <trkpt lat="47.89382" lon="-3.13841">
        <ele>77.2752</ele>
      </trkpt>
      <trkpt lat="47.89307" lon="-3.13798">
        <ele>81.736</ele>
      </trkpt>
      <trkpt lat="47.89257" lon="-3.13694">
        <ele>87.54</ele>
      </trkpt>
      <trkpt lat="47.89213" lon="-3.13601">
        <ele>87.24</ele>
      </trkpt>
      <trkpt lat="47.89202" lon="-3.1345">
        <ele>93.95</ele>
      </trkpt>
      <trkpt lat="47.89193" lon="-3.13279">
        <ele>98.6192</ele>
      </trkpt>
      <trkpt lat="47.89188" lon="-3.13087">
        <ele>99.4</ele>
      </trkpt>
      <trkpt lat="47.89213" lon="-3.13002">
        <ele>99.28</ele>
      </trkpt>
      <trkpt lat="47.8927" lon="-3.12967">
        <ele>95.52</ele>
      </trkpt>
      <trkpt lat="47.89402" lon="-3.13047">
        <ele>89.34</ele>
      </trkpt>
      <trkpt lat="47.89445" lon="-3.12793">
        <ele>78.288</ele>
      </trkpt>
      <trkpt lat="47.89354" lon="-3.12749">
        <ele>72.792</ele>
      </trkpt>
      <trkpt lat="47.89322" lon="-3.12595">
        <ele>63.1584</ele>
      </trkpt>
      <trkpt lat="47.89346" lon="-3.12395">
        <ele>49.6</ele>
      </trkpt>
      <trkpt lat="47.89344" lon="-3.12209">
        <ele>56.1368</ele>
      </trkpt>
      <trkpt lat="47.89401" lon="-3.12195">
        <ele>61.3</ele>
      </trkpt>
      <trkpt lat="47.89384" lon="-3.12095">
        <ele>65.44</ele>
      </trkpt>
      <trkpt lat="47.89502" lon="-3.12024">
        <ele>72.8612</ele>
      </trkpt>
      <trkpt lat="47.89562" lon="-3.11989">
        <ele>81.7532</ele>
      </trkpt>
      <trkpt lat="47.89678" lon="-3.11975">
        <ele>93.39281</ele>
      </trkpt>
      <trkpt lat="47.89739" lon="-3.11884">
        <ele>102.85</ele>
      </trkpt>
      <trkpt lat="47.89793" lon="-3.11775">
        <ele>112.588</ele>
      </trkpt>
      <trkpt lat="47.89868" lon="-3.11778">
        <ele>120.18</ele>
      </trkpt>
      <trkpt lat="47.89936" lon="-3.11821">
        <ele>127.3216</ele>
      </trkpt>
      <trkpt lat="47.89975" lon="-3.11963">
        <ele>130.6</ele>
      </trkpt>
      <trkpt lat="47.89962" lon="-3.12163">
        <ele>121.912</ele>
      </trkpt>
      <trkpt lat="47.90025" lon="-3.123">
        <ele>126.4768</ele>
      </trkpt>
      <trkpt lat="47.90109" lon="-3.12375">
        <ele>135.26</ele>
      </trkpt>
      <trkpt lat="47.90223" lon="-3.12465">
        <ele>136.98</ele>
      </trkpt>
      <trkpt lat="47.90301" lon="-3.12488">
        <ele>135.7968</ele>
      </trkpt>
      <trkpt lat="47.90408" lon="-3.12493">
        <ele>133.64</ele>
      </trkpt>
      <trkpt lat="47.90506" lon="-3.12447">
        <ele>135.388</ele>
      </trkpt>
      <trkpt lat="47.90526" lon="-3.12536">
        <ele>137.2552</ele>
      </trkpt>
      <trkpt lat="47.90604" lon="-3.12477">
        <ele>141.36</ele>
      </trkpt>
      <trkpt lat="47.90701" lon="-3.12436">
        <ele>148.96</ele>
      </trkpt>
      <trkpt lat="47.90772" lon="-3.12314">
        <ele>155.9328</ele>
      </trkpt>
      <trkpt lat="47.90865" lon="-3.12195">
        <ele>160.184</ele>
      </trkpt>
      <trkpt lat="47.90936" lon="-3.12104">
        <ele>160.1696</ele>
      </trkpt>
      <trkpt lat="47.90944" lon="-3.11928">
        <ele>158.5872</ele>
      </trkpt>
      <trkpt lat="47.90951" lon="-3.11764">
        <ele>160.3136</ele>
      </trkpt>
      <trkpt lat="47.90969" lon="-3.11677">
        <ele>162.0232</ele>
      </trkpt>
      <trkpt lat="47.91011" lon="-3.11527">
        <ele>163.06</ele>
      </trkpt>
      <trkpt lat="47.91114" lon="-3.11408">
        <ele>161.398</ele>
      </trkpt>
      <trkpt lat="47.91172" lon="-3.11249">
        <ele>156.4096</ele>
      </trkpt>
      <trkpt lat="47.91235" lon="-3.11136">
        <ele>151.0744</ele>
      </trkpt>
      <trkpt lat="47.91346" lon="-3.11034">
        <ele>148.4744</ele>
      </trkpt>
      <trkpt lat="47.91427" lon="-3.10928">
        <ele>146.3348</ele>
      </trkpt>
      <trkpt lat="47.9153" lon="-3.10893">
        <ele>146.736</ele>
      </trkpt>
      <trkpt lat="47.91592" lon="-3.10682">
        <ele>140.6384</ele>
      </trkpt>
      <trkpt lat="47.91674" lon="-3.10685">
        <ele>140.88</ele>
      </trkpt>
      <trkpt lat="47.91716" lon="-3.10592">
        <ele>135.966</ele>
      </trkpt>
      <trkpt lat="47.91718" lon="-3.10483">
        <ele>133.5408</ele>
      </trkpt>
      <trkpt lat="47.91755" lon="-3.10353">
        <ele>132.8024</ele>
      </trkpt>
      <trkpt lat="47.91716" lon="-3.10141">
        <ele>131.2724</ele>
      </trkpt>
      <trkpt lat="47.91687" lon="-3.09957">
        <ele>127.896</ele>
      </trkpt>
      <trkpt lat="47.91641" lon="-3.10041">
        <ele>124.7904</ele>
      </trkpt>
      <trkpt lat="47.91586" lon="-3.1003">
        <ele>128.088</ele>
      </trkpt>
      <trkpt lat="47.91525" lon="-3.09998">
        <ele>126.9988</ele>
      </trkpt>
      <trkpt lat="47.91458" lon="-3.0995">
        <ele>123.912</ele>
      </trkpt>
      <trkpt lat="47.91399" lon="-3.09876">
        <ele>119.36</ele>
      </trkpt>
      <trkpt lat="47.91368" lon="-3.0977">
        <ele>114.1764</ele>
      </trkpt>
      <trkpt lat="47.91331" lon="-3.09755">
        <ele>116.73</ele>
      </trkpt>
      <trkpt lat="47.91282" lon="-3.09756">
        <ele>119.32</ele>
      </trkpt>
      <trkpt lat="47.91274" lon="-3.09656">
        <ele>115.184</ele>
      </trkpt>
      <trkpt lat="47.91245" lon="-3.09576">
        <ele>107.888</ele>
      </trkpt>
      <trkpt lat="47.91179" lon="-3.09579">
        <ele>110.1328</ele>
      </trkpt>
      <trkpt lat="47.91116" lon="-3.09542">
        <ele>106.2368</ele>
      </trkpt>
      <trkpt lat="47.91057" lon="-3.0951">
        <ele>109.5428</ele>
      </trkpt>
      <trkpt lat="47.90971" lon="-3.09501">
        <ele>116.6832</ele>
      </trkpt>
      <trkpt lat="47.90979" lon="-3.09388">
        <ele>106.2416</ele>
      </trkpt>
      <trkpt lat="47.91029" lon="-3.09321">
        <ele>104.872</ele>
      </trkpt>
      <trkpt lat="47.91108" lon="-3.09381">
        <ele>99.9904</ele>
      </trkpt>
      <trkpt lat="47.91201" lon="-3.09395">
        <ele>94.2224</ele>
      </trkpt>
      <trkpt lat="47.91289" lon="-3.09389">
        <ele>83.3</ele>
      </trkpt>
      <trkpt lat="47.91347" lon="-3.09354">
        <ele>81.3712</ele>
      </trkpt>
      <trkpt lat="47.9139" lon="-3.09244">
        <ele>76.9616</ele>
      </trkpt>
      <trkpt lat="47.91425" lon="-3.09165">
        <ele>74.30959</ele>
      </trkpt>
      <trkpt lat="47.91496" lon="-3.09121">
        <ele>75.72</ele>
      </trkpt>
      <trkpt lat="47.91591" lon="-3.09105">
        <ele>66.4</ele>
      </trkpt>
      <trkpt lat="47.9163" lon="-3.09021">
        <ele>56.0112</ele>
      </trkpt>
      <trkpt lat="47.91605" lon="-3.0894">
        <ele>49.9136</ele>
      </trkpt>
      <trkpt lat="47.91553" lon="-3.08873">
        <ele>45.104</ele>
      </trkpt>
      <trkpt lat="47.91462" lon="-3.08797">
        <ele>40.604</ele>
      </trkpt>
      <trkpt lat="47.91361" lon="-3.08812">
        <ele>40.86</ele>
      </trkpt>
      <trkpt lat="47.91243" lon="-3.08825">
        <ele>39.34</ele>
      </trkpt>
      <trkpt lat="47.91153" lon="-3.0878">
        <ele>42.7768</ele>
      </trkpt>
      <trkpt lat="47.91083" lon="-3.08675">
        <ele>39.36</ele>
      </trkpt>
      <trkpt lat="47.9104" lon="-3.08448">
        <ele>40.8576</ele>
      </trkpt>
      <trkpt lat="47.91028" lon="-3.08251">
        <ele>39.1728</ele>
      </trkpt>
      <trkpt lat="47.91011" lon="-3.08155">
        <ele>43.2488</ele>
      </trkpt>
      <trkpt lat="47.90995" lon="-3.07989">
        <ele>36.688</ele>
      </trkpt>
      <trkpt lat="47.90969" lon="-3.07883">
        <ele>33.2416</ele>
      </trkpt>
      <trkpt lat="47.90881" lon="-3.07816">
        <ele>35.8368</ele>
      </trkpt>
      <trkpt lat="47.90835" lon="-3.07766">
        <ele>33.728</ele>
      </trkpt>
      <trkpt lat="47.90743" lon="-3.07807">
        <ele>42.5624</ele>
      </trkpt>
      <trkpt lat="47.9066" lon="-3.07871">
        <ele>58.928</ele>
      </trkpt>
      <trkpt lat="47.90548" lon="-3.07886">
        <ele>59</ele>
      </trkpt>
      <trkpt lat="47.90465" lon="-3.07893">
        <ele>59.4456</ele>
      </trkpt>
      <trkpt lat="47.90385" lon="-3.07879">
        <ele>63.86</ele>
      </trkpt>
      <trkpt lat="47.90305" lon="-3.07871">
        <ele>63.296</ele>
      </trkpt>
      <trkpt lat="47.90236" lon="-3.07905">
        <ele>64.616</ele>
      </trkpt>
      <trkpt lat="47.90136" lon="-3.07844">
        <ele>42.6576</ele>
      </trkpt>
      <trkpt lat="47.90065" lon="-3.07831">
        <ele>41.406</ele>
      </trkpt>
      <trkpt lat="47.90019" lon="-3.07841">
        <ele>46.6432</ele>
      </trkpt>
      <trkpt lat="47.89909" lon="-3.07841">
        <ele>39.4544</ele>
      </trkpt>
      <trkpt lat="47.89824" lon="-3.07921">
        <ele>44.2304</ele>
      </trkpt>
      <trkpt lat="47.89756" lon="-3.07955">
        <ele>39.54</ele>
      </trkpt>
      <trkpt lat="47.89722" lon="-3.07956">
        <ele>39.376</ele>
      </trkpt>
      <trkpt lat="47.89638" lon="-3.07969">
        <ele>44.8848</ele>
      </trkpt>
      <trkpt lat="47.89526" lon="-3.07977">
        <ele>48.6112</ele>
      </trkpt>
      <trkpt lat="47.89432" lon="-3.07978">
        <ele>38.53</ele>
      </trkpt>
      <trkpt lat="47.89343" lon="-3.08022">
        <ele>39.36</ele>
      </trkpt>
      <trkpt lat="47.89261" lon="-3.08064">
        <ele>43.266</ele>
      </trkpt>
      <trkpt lat="47.89194" lon="-3.08176">
        <ele>50.56</ele>
      </trkpt>
      <trkpt lat="47.89151" lon="-3.0827">
        <ele>61.544</ele>
      </trkpt>
      <trkpt lat="47.89105" lon="-3.08348">
        <ele>70.64</ele>
      </trkpt>
      <trkpt lat="47.89072" lon="-3.08236">
        <ele>83.264</ele>
      </trkpt>
      <trkpt lat="47.8911" lon="-3.08095">
        <ele>73.5568</ele>
      </trkpt>
      <trkpt lat="47.89066" lon="-3.07997">
        <ele>62.0216</ele>
      </trkpt>
      <trkpt lat="47.88977" lon="-3.07952">
        <ele>63.4</ele>
      </trkpt>
      <trkpt lat="47.88919" lon="-3.07936">
        <ele>66.6944</ele>
      </trkpt>
      <trkpt lat="47.88844" lon="-3.07893">
        <ele>50.528</ele>
      </trkpt>
      <trkpt lat="47.88736" lon="-3.07918">
        <ele>45.4864</ele>
      </trkpt>
      <trkpt lat="47.88697" lon="-3.08001">
        <ele>41.7704</ele>
      </trkpt>
      <trkpt lat="47.88696" lon="-3.081">
        <ele>43.4536</ele>
      </trkpt>
      <trkpt lat="47.88641" lon="-3.08011">
        <ele>40.956</ele>
      </trkpt>
      <trkpt lat="47.88552" lon="-3.07913">
        <ele>35.1512</ele>
      </trkpt>
      <trkpt lat="47.88471" lon="-3.07932">
        <ele>32.3488</ele>
      </trkpt>
      <trkpt lat="47.88406" lon="-3.07925">
        <ele>30.48</ele>
      </trkpt>
      <trkpt lat="47.88332" lon="-3.07927">
        <ele>29.3</ele>
      </trkpt>
      <trkpt lat="47.88262" lon="-3.08059">
        <ele>30.88</ele>
      </trkpt>
      <trkpt lat="47.88178" lon="-3.08228">
        <ele>27.56</ele>
      </trkpt>
      <trkpt lat="47.88099" lon="-3.08359">
        <ele>26.6708</ele>
      </trkpt>
      <trkpt lat="47.88004" lon="-3.08468">
        <ele>27</ele>
      </trkpt>
      <trkpt lat="47.87883" lon="-3.08523">
        <ele>34.6</ele>
      </trkpt>
      <trkpt lat="47.8791" lon="-3.08396">
        <ele>31.82</ele>
      </trkpt>
      <trkpt lat="47.87984" lon="-3.08289">
        <ele>33.5776</ele>
      </trkpt>
      <trkpt lat="47.8799" lon="-3.08089">
        <ele>51.3728</ele>
      </trkpt>
      <trkpt lat="47.88049" lon="-3.07878">
        <ele>53.0296</ele>
      </trkpt>
      <trkpt lat="47.88103" lon="-3.07681">
        <ele>52.192</ele>
      </trkpt>
      <trkpt lat="47.88149" lon="-3.07505">
        <ele>34.64</ele>
      </trkpt>
      <trkpt lat="47.88182" lon="-3.07343">
        <ele>37.2492</ele>
      </trkpt>
      <trkpt lat="47.8825" lon="-3.07211">
        <ele>44.178</ele>
      </trkpt>
      <trkpt lat="47.88386" lon="-3.07209">
        <ele>36.9432</ele>
      </trkpt>
      <trkpt lat="47.88444" lon="-3.07092">
        <ele>49.66</ele>
      </trkpt>
      <trkpt lat="47.88496" lon="-3.06941">
        <ele>60.31</ele>
      </trkpt>
      <trkpt lat="47.885" lon="-3.06761">
        <ele>67.68</ele>
      </trkpt>
      <trkpt lat="47.8856" lon="-3.0653">
        <ele>83.056</ele>
      </trkpt>
      <trkpt lat="47.88501" lon="-3.06358">
        <ele>88.8448</ele>
      </trkpt>
      <trkpt lat="47.88442" lon="-3.06295">
        <ele>83.048</ele>
      </trkpt>
      <trkpt lat="47.88348" lon="-3.06295">
        <ele>76.7064</ele>
      </trkpt>
      <trkpt lat="47.88291" lon="-3.06238">
        <ele>73.1856</ele>
      </trkpt>
      <trkpt lat="47.88253" lon="-3.06012">
        <ele>74.7224</ele>
      </trkpt>
      <trkpt lat="47.88243" lon="-3.05933">
        <ele>78.216</ele>
      </trkpt>
      <trkpt lat="47.88142" lon="-3.05836">
        <ele>73.02081</ele>
      </trkpt>
      <trkpt lat="47.88037" lon="-3.05829">
        <ele>70.9504</ele>
      </trkpt>
      <trkpt lat="47.87965" lon="-3.05802">
        <ele>70.56001</ele>
      </trkpt>
      <trkpt lat="47.87893" lon="-3.0582">
        <ele>67.68</ele>
      </trkpt>
      <trkpt lat="47.87832" lon="-3.0585">
        <ele>63.48</ele>
      </trkpt>
      <trkpt lat="47.87729" lon="-3.05819">
        <ele>62.36</ele>
      </trkpt>
      <trkpt lat="47.87581" lon="-3.05783">
        <ele>53.2176</ele>
      </trkpt>
      <trkpt lat="47.87426" lon="-3.05757">
        <ele>42.2456</ele>
      </trkpt>
      <trkpt lat="47.87283" lon="-3.05774">
        <ele>46.624</ele>
      </trkpt>
      <trkpt lat="47.87239" lon="-3.05691">
        <ele>42.2352</ele>
      </trkpt>
      <trkpt lat="47.87227" lon="-3.0554">
        <ele>38.7184</ele>
      </trkpt>
      <trkpt lat="47.87165" lon="-3.05425">
        <ele>30.9808</ele>
      </trkpt>
      <trkpt lat="47.87069" lon="-3.05375">
        <ele>27.948</ele>
      </trkpt>
      <trkpt lat="47.87036" lon="-3.05216">
        <ele>28.38</ele>
      </trkpt>
      <trkpt lat="47.86997" lon="-3.05026">
        <ele>30.2932</ele>
      </trkpt>
      <trkpt lat="47.86947" lon="-3.04824">
        <ele>31.44</ele>
      </trkpt>
      <trkpt lat="47.87047" lon="-3.0483">
        <ele>36.768</ele>
      </trkpt>
      <trkpt lat="47.87159" lon="-3.04769">
        <ele>48.264</ele>
      </trkpt>
      <trkpt lat="47.87246" lon="-3.04695">
        <ele>57.3</ele>
      </trkpt>
      <trkpt lat="47.87262" lon="-3.04464">
        <ele>64.86</ele>
      </trkpt>
      <trkpt lat="47.87268" lon="-3.04356">
        <ele>70.04</ele>
      </trkpt>
      <trkpt lat="47.87385" lon="-3.04322">
        <ele>71.95081</ele>
      </trkpt>
      <trkpt lat="47.87383" lon="-3.04136">
        <ele>76.5152</ele>
      </trkpt>
      <trkpt lat="47.87355" lon="-3.03896">
        <ele>64.0608</ele>
      </trkpt>
      <trkpt lat="47.87332" lon="-3.03733">
        <ele>56.2276</ele>
      </trkpt>
      <trkpt lat="47.87353" lon="-3.03482">
        <ele>43.704</ele>
      </trkpt>
      <trkpt lat="47.87259" lon="-3.03416">
        <ele>41.8872</ele>
      </trkpt>
      <trkpt lat="47.87142" lon="-3.03543">
        <ele>39.62</ele>
      </trkpt>
      <trkpt lat="47.87056" lon="-3.03565">
        <ele>42.648</ele>
      </trkpt>
      <trkpt lat="47.869" lon="-3.03518">
        <ele>34.9808</ele>
      </trkpt>
      <trkpt lat="47.86808" lon="-3.03385">
        <ele>31.016</ele>
      </trkpt>
      <trkpt lat="47.86683" lon="-3.03388">
        <ele>28</ele>
      </trkpt>
      <trkpt lat="47.8649" lon="-3.0341">
        <ele>36.2648</ele>
      </trkpt>
    </trkseg>
  </trk>
  <trk>
    <name><![CDATA[maramar280108]]></name>
    <trkseg>
      <trkpt lat="47.49652" lon="-2.38618">
        <ele>10</ele>
        <time>2007-12-23T18:24:32Z</time>
      </trkpt>
      <trkpt lat="47.49603" lon="-2.38527">
        <ele>10</ele>
        <time>2007-12-23T18:25:03Z</time>
      </trkpt>
      <trkpt lat="47.49596" lon="-2.38372">
        <ele>3</ele>
        <time>2007-12-23T18:25:45Z</time>
      </trkpt>
      <trkpt lat="47.4955" lon="-2.38243">
        <ele>6</ele>
        <time>2007-12-23T18:26:25Z</time>
      </trkpt>
      <trkpt lat="47.49517" lon="-2.38076">
        <ele>3</ele>
        <time>2007-12-23T18:27:12Z</time>
      </trkpt>
      <trkpt lat="47.49464" lon="-2.37953">
        <ele>5</ele>
        <time>2007-12-23T18:27:52Z</time>
      </trkpt>
      <trkpt lat="47.49501" lon="-2.37834">
        <ele>8</ele>
        <time>2007-12-23T18:28:27Z</time>
      </trkpt>
      <trkpt lat="47.49528" lon="-2.37769">
        <ele>7</ele>
        <time>2007-12-23T18:28:47Z</time>
      </trkpt>
      <trkpt lat="47.49546" lon="-2.37771">
        <ele>4</ele>
        <time>2007-12-23T18:28:55Z</time>
      </trkpt>
      <trkpt lat="47.49542" lon="-2.37604">
        <ele>3</ele>
        <time>2007-12-23T18:29:40Z</time>
      </trkpt>
      <trkpt lat="47.49564" lon="-2.37588">
        <ele>1</ele>
        <time>2007-12-23T18:29:50Z</time>
      </trkpt>
      <trkpt lat="47.49581" lon="-2.37542">
        <ele>2</ele>
        <time>2007-12-23T18:30:04Z</time>
      </trkpt>
      <trkpt lat="47.49502" lon="-2.37476">
        <ele>10</ele>
        <time>2007-12-23T18:30:40Z</time>
      </trkpt>
      <trkpt lat="47.49645" lon="-2.37049">
        <ele>16</ele>
        <time>2007-12-23T18:32:49Z</time>
      </trkpt>
      <trkpt lat="47.49693" lon="-2.37095">
        <ele>6</ele>
        <time>2007-12-23T18:33:12Z</time>
      </trkpt>
      <trkpt lat="47.49735" lon="-2.37045">
        <ele>4</ele>
        <time>2007-12-23T18:33:34Z</time>
      </trkpt>
      <trkpt lat="47.49825" lon="-2.36888">
        <ele>1</ele>
        <time>2007-12-23T18:34:30Z</time>
      </trkpt>
      <trkpt lat="47.49807" lon="-2.3685">
        <ele>3</ele>
        <time>2007-12-23T18:34:42Z</time>
      </trkpt>
      <trkpt lat="47.49841" lon="-2.36821">
        <ele>4</ele>
        <time>2007-12-23T18:34:57Z</time>
      </trkpt>
      <trkpt lat="47.49912" lon="-2.36741">
        <ele>4</ele>
        <time>2007-12-23T18:35:33Z</time>
      </trkpt>
      <trkpt lat="47.50037" lon="-2.36575">
        <ele>3</ele>
        <time>2007-12-23T18:36:40Z</time>
      </trkpt>
      <trkpt lat="47.50047" lon="-2.36522">
        <ele>4</ele>
        <time>2007-12-23T18:36:55Z</time>
      </trkpt>
      <trkpt lat="47.50042" lon="-2.36455">
        <ele>4</ele>
        <time>2007-12-23T18:37:13Z</time>
      </trkpt>
      <trkpt lat="47.50096" lon="-2.36373">
        <ele>3</ele>
        <time>2007-12-23T18:37:44Z</time>
      </trkpt>
      <trkpt lat="47.50113" lon="-2.36307">
        <ele>7</ele>
        <time>2007-12-23T18:38:03Z</time>
      </trkpt>
      <trkpt lat="47.50279" lon="-2.36227">
        <ele>14</ele>
        <time>2007-12-23T18:39:13Z</time>
      </trkpt>
      <trkpt lat="47.50239" lon="-2.36081">
        <ele>31</ele>
        <time>2007-12-23T18:39:56Z</time>
      </trkpt>
      <trkpt lat="47.50196" lon="-2.35712">
        <ele>35</ele>
        <time>2007-12-23T18:41:37Z</time>
      </trkpt>
      <trkpt lat="47.5009" lon="-2.35443">
        <ele>37</ele>
        <time>2007-12-23T18:43:01Z</time>
      </trkpt>
      <trkpt lat="47.50064" lon="-2.35342">
        <ele>38</ele>
        <time>2007-12-23T18:43:31Z</time>
      </trkpt>
      <trkpt lat="47.50078" lon="-2.35253">
        <ele>39</ele>
        <time>2007-12-23T18:43:55Z</time>
      </trkpt>
      <trkpt lat="47.50113" lon="-2.35198">
        <ele>38</ele>
        <time>2007-12-23T18:44:16Z</time>
      </trkpt>
      <trkpt lat="47.50211" lon="-2.35171">
        <ele>35</ele>
        <time>2007-12-23T18:44:56Z</time>
      </trkpt>
      <trkpt lat="47.5025" lon="-2.35218">
        <ele>32</ele>
        <time>2007-12-23T18:45:16Z</time>
      </trkpt>
      <trkpt lat="47.50349" lon="-2.35238">
        <ele>26</ele>
        <time>2007-12-23T18:45:56Z</time>
      </trkpt>
      <trkpt lat="47.50413" lon="-2.35287">
        <ele>19</ele>
        <time>2007-12-23T18:46:25Z</time>
      </trkpt>
      <trkpt lat="47.50475" lon="-2.35426">
        <ele>13</ele>
        <time>2007-12-23T18:47:10Z</time>
      </trkpt>
      <trkpt lat="47.50648" lon="-2.35406">
        <ele>3</ele>
        <time>2007-12-23T18:48:19Z</time>
      </trkpt>
      <trkpt lat="47.50819" lon="-2.35378">
        <ele>7</ele>
        <time>2007-12-23T18:49:28Z</time>
      </trkpt>
      <trkpt lat="47.50831" lon="-2.35233">
        <ele>18</ele>
        <time>2007-12-23T18:50:08Z</time>
      </trkpt>
      <trkpt lat="47.50889" lon="-2.35222">
        <ele>24</ele>
        <time>2007-12-23T18:50:32Z</time>
      </trkpt>
      <trkpt lat="47.50983" lon="-2.35184">
        <ele>32</ele>
        <time>2007-12-23T18:51:11Z</time>
      </trkpt>
      <trkpt lat="47.5106" lon="-2.35159">
        <ele>33</ele>
        <time>2007-12-23T18:51:42Z</time>
      </trkpt>
      <trkpt lat="47.51068" lon="-2.35089">
        <ele>34</ele>
        <time>2007-12-23T18:52:01Z</time>
      </trkpt>
      <trkpt lat="47.51138" lon="-2.35075">
        <ele>32</ele>
        <time>2007-12-23T18:52:29Z</time>
      </trkpt>
      <trkpt lat="47.51172" lon="-2.35028">
        <ele>32</ele>
        <time>2007-12-23T18:52:48Z</time>
      </trkpt>
      <trkpt lat="47.51177" lon="-2.34894">
        <ele>34</ele>
        <time>2007-12-23T18:53:24Z</time>
      </trkpt>
      <trkpt lat="47.51263" lon="-2.34941">
        <ele>25</ele>
        <time>2007-12-23T18:54:01Z</time>
      </trkpt>
      <trkpt lat="47.51297" lon="-2.34928">
        <ele>17</ele>
        <time>2007-12-23T18:54:15Z</time>
      </trkpt>
      <trkpt lat="47.51327" lon="-2.34809">
        <ele>12</ele>
        <time>2007-12-23T18:54:49Z</time>
      </trkpt>
      <trkpt lat="47.51288" lon="-2.34602">
        <ele>12</ele>
        <time>2007-12-23T18:55:47Z</time>
      </trkpt>
      <trkpt lat="47.51247" lon="-2.34506">
        <ele>14</ele>
        <time>2007-12-23T18:56:18Z</time>
      </trkpt>
      <trkpt lat="47.51196" lon="-2.34427">
        <ele>21</ele>
        <time>2007-12-23T18:56:48Z</time>
      </trkpt>
      <trkpt lat="47.51155" lon="-2.34325">
        <ele>24</ele>
        <time>2007-12-23T18:57:20Z</time>
      </trkpt>
      <trkpt lat="47.51086" lon="-2.34303">
        <ele>29</ele>
        <time>2007-12-23T18:57:48Z</time>
      </trkpt>
      <trkpt lat="47.51054" lon="-2.34266">
        <ele>30</ele>
        <time>2007-12-23T18:58:04Z</time>
      </trkpt>
      <trkpt lat="47.51016" lon="-2.3416">
        <ele>25</ele>
        <time>2007-12-23T18:58:37Z</time>
      </trkpt>
      <trkpt lat="47.51017" lon="-2.34062">
        <ele>21</ele>
        <time>2007-12-23T18:59:03Z</time>
      </trkpt>
      <trkpt lat="47.51058" lon="-2.34011">
        <ele>21</ele>
        <time>2007-12-23T18:59:25Z</time>
      </trkpt>
      <trkpt lat="47.51085" lon="-2.34036">
        <ele>19</ele>
        <time>2007-12-23T18:59:37Z</time>
      </trkpt>
      <trkpt lat="47.51141" lon="-2.34077">
        <ele>17</ele>
        <time>2007-12-23T19:00:02Z</time>
      </trkpt>
      <trkpt lat="47.51189" lon="-2.34077">
        <ele>14</ele>
        <time>2007-12-23T19:00:22Z</time>
      </trkpt>
      <trkpt lat="47.51157" lon="-2.34">
        <ele>19</ele>
        <time>2007-12-23T19:00:46Z</time>
      </trkpt>
      <trkpt lat="47.51125" lon="-2.33875">
        <ele>20</ele>
        <time>2007-12-23T19:01:22Z</time>
      </trkpt>
      <trkpt lat="47.51082" lon="-2.3376">
        <ele>20</ele>
        <time>2007-12-23T19:01:58Z</time>
      </trkpt>
      <trkpt lat="47.5104" lon="-2.33678">
        <ele>22</ele>
        <time>2007-12-23T19:02:26Z</time>
      </trkpt>
      <trkpt lat="47.51025" lon="-2.33598">
        <ele>19</ele>
        <time>2007-12-23T19:02:48Z</time>
      </trkpt>
      <trkpt lat="47.5101" lon="-2.33452">
        <ele>6</ele>
        <time>2007-12-23T19:03:28Z</time>
      </trkpt>
      <trkpt lat="47.50982" lon="-2.33335">
        <ele>12</ele>
        <time>2007-12-23T19:04:02Z</time>
      </trkpt>
      <trkpt lat="47.50974" lon="-2.33264">
        <ele>5</ele>
        <time>2007-12-23T19:04:21Z</time>
      </trkpt>
      <trkpt lat="47.50927" lon="-2.3324">
        <ele>25</ele>
        <time>2007-12-23T19:04:41Z</time>
      </trkpt>
      <trkpt lat="47.50903" lon="-2.33172">
        <ele>29</ele>
        <time>2007-12-23T19:05:02Z</time>
      </trkpt>
      <trkpt lat="47.50847" lon="-2.32899">
        <ele>33</ele>
        <time>2007-12-23T19:06:19Z</time>
      </trkpt>
      <trkpt lat="47.50787" lon="-2.32736">
        <ele>23</ele>
        <time>2007-12-23T19:07:09Z</time>
      </trkpt>
      <trkpt lat="47.50828" lon="-2.32739">
        <ele>21</ele>
        <time>2007-12-23T19:07:25Z</time>
      </trkpt>
      <trkpt lat="47.50866" lon="-2.32656">
        <ele>12</ele>
        <time>2007-12-23T19:07:52Z</time>
      </trkpt>
      <trkpt lat="47.50946" lon="-2.32522">
        <ele>18</ele>
        <time>2007-12-23T19:08:41Z</time>
      </trkpt>
      <trkpt lat="47.51037" lon="-2.32428">
        <ele>19</ele>
        <time>2007-12-23T19:09:25Z</time>
      </trkpt>
      <trkpt lat="47.51085" lon="-2.32354">
        <ele>9</ele>
        <time>2007-12-23T19:09:53Z</time>
      </trkpt>
      <trkpt lat="47.5103" lon="-2.32262">
        <ele>6</ele>
        <time>2007-12-23T19:10:26Z</time>
      </trkpt>
      <trkpt lat="47.50967" lon="-2.32259">
        <ele>6</ele>
        <time>2007-12-23T19:10:51Z</time>
      </trkpt>
      <trkpt lat="47.50967" lon="-2.32169">
        <ele>6</ele>
        <time>2007-12-23T19:11:16Z</time>
      </trkpt>
      <trkpt lat="47.50944" lon="-2.32151">
        <ele>5</ele>
        <time>2007-12-23T19:11:26Z</time>
      </trkpt>
      <trkpt lat="47.50908" lon="-2.32065">
        <ele>10</ele>
        <time>2007-12-23T19:11:54Z</time>
      </trkpt>
      <trkpt lat="47.50923" lon="-2.32067">
        <ele>11</ele>
        <time>2007-12-23T19:12:00Z</time>
      </trkpt>
      <trkpt lat="47.50992" lon="-2.32077">
        <ele>17</ele>
        <time>2007-12-23T19:12:28Z</time>
      </trkpt>
      <trkpt lat="47.51091" lon="-2.32132">
        <ele>24</ele>
        <time>2007-12-23T19:13:10Z</time>
      </trkpt>
      <trkpt lat="47.51126" lon="-2.32128">
        <ele>25</ele>
        <time>2007-12-23T19:13:24Z</time>
      </trkpt>
      <trkpt lat="47.51154" lon="-2.32181">
        <ele>19</ele>
        <time>2007-12-23T19:13:42Z</time>
      </trkpt>
      <trkpt lat="47.51198" lon="-2.32135">
        <ele>18</ele>
        <time>2007-12-23T19:14:04Z</time>
      </trkpt>
      <trkpt lat="47.51211" lon="-2.32072">
        <ele>20</ele>
        <time>2007-12-23T19:14:22Z</time>
      </trkpt>
      <trkpt lat="47.51271" lon="-2.31971">
        <ele>22</ele>
        <time>2007-12-23T19:14:58Z</time>
      </trkpt>
      <trkpt lat="47.51285" lon="-2.3189">
        <ele>28</ele>
        <time>2007-12-23T19:15:21Z</time>
      </trkpt>
      <trkpt lat="47.51312" lon="-2.31829">
        <ele>27</ele>
        <time>2007-12-23T19:15:40Z</time>
      </trkpt>
      <trkpt lat="47.51186" lon="-2.31815">
        <ele>38</ele>
        <time>2007-12-23T19:16:30Z</time>
      </trkpt>
      <trkpt lat="47.51133" lon="-2.31846">
        <ele>40</ele>
        <time>2007-12-23T19:16:53Z</time>
      </trkpt>
      <trkpt lat="47.51004" lon="-2.31905">
        <ele>37</ele>
        <time>2007-12-23T19:17:47Z</time>
      </trkpt>
      <trkpt lat="47.50951" lon="-2.31916">
        <ele>34</ele>
        <time>2007-12-23T19:18:09Z</time>
      </trkpt>
      <trkpt lat="47.50947" lon="-2.3188">
        <ele>37</ele>
        <time>2007-12-23T19:18:19Z</time>
      </trkpt>
      <trkpt lat="47.50893" lon="-2.31765">
        <ele>41</ele>
        <time>2007-12-23T19:18:57Z</time>
      </trkpt>
      <trkpt lat="47.50868" lon="-2.31684">
        <ele>40</ele>
        <time>2007-12-23T19:19:21Z</time>
      </trkpt>
      <trkpt lat="47.50777" lon="-2.31606">
        <ele>33</ele>
        <time>2007-12-23T19:20:03Z</time>
      </trkpt>
      <trkpt lat="47.50732" lon="-2.31535">
        <ele>32</ele>
        <time>2007-12-23T19:20:29Z</time>
      </trkpt>
      <trkpt lat="47.50696" lon="-2.31555">
        <ele>24</ele>
        <time>2007-12-23T19:20:44Z</time>
      </trkpt>
      <trkpt lat="47.50689" lon="-2.31622">
        <ele>16</ele>
        <time>2007-12-23T19:21:03Z</time>
      </trkpt>
      <trkpt lat="47.50661" lon="-2.31646">
        <ele>10</ele>
        <time>2007-12-23T19:21:16Z</time>
      </trkpt>
      <trkpt lat="47.50637" lon="-2.31684">
        <ele>7</ele>
        <time>2007-12-23T19:21:29Z</time>
      </trkpt>
      <trkpt lat="47.50593" lon="-2.31606">
        <ele>6</ele>
        <time>2007-12-23T19:21:57Z</time>
      </trkpt>
      <trkpt lat="47.50534" lon="-2.31601">
        <ele>13</ele>
        <time>2007-12-23T19:22:21Z</time>
      </trkpt>
      <trkpt lat="47.50494" lon="-2.31632">
        <ele>17</ele>
        <time>2007-12-23T19:22:39Z</time>
      </trkpt>
      <trkpt lat="47.5043" lon="-2.31642">
        <ele>14</ele>
        <time>2007-12-23T19:23:05Z</time>
      </trkpt>
      <trkpt lat="47.50347" lon="-2.31691">
        <ele>14</ele>
        <time>2007-12-23T19:23:40Z</time>
      </trkpt>
      <trkpt lat="47.50311" lon="-2.31734">
        <ele>16</ele>
        <time>2007-12-23T19:23:59Z</time>
      </trkpt>
      <trkpt lat="47.50287" lon="-2.31661">
        <ele>17</ele>
        <time>2007-12-23T19:24:21Z</time>
      </trkpt>
      <trkpt lat="47.50369" lon="-2.315">
        <ele>24</ele>
        <time>2007-12-23T19:25:15Z</time>
      </trkpt>
      <trkpt lat="47.50408" lon="-2.31361">
        <ele>28</ele>
        <time>2007-12-23T19:25:56Z</time>
      </trkpt>
      <trkpt lat="47.50508" lon="-2.31213">
        <ele>32</ele>
        <time>2007-12-23T19:26:53Z</time>
      </trkpt>
      <trkpt lat="47.50534" lon="-2.31263">
        <ele>31</ele>
        <time>2007-12-23T19:27:10Z</time>
      </trkpt>
      <trkpt lat="47.50613" lon="-2.31304">
        <ele>36</ele>
        <time>2007-12-23T19:27:43Z</time>
      </trkpt>
      <trkpt lat="47.50654" lon="-2.31336">
        <ele>36</ele>
        <time>2007-12-23T19:28:02Z</time>
      </trkpt>
      <trkpt lat="47.5075" lon="-2.31477">
        <ele>35</ele>
        <time>2007-12-23T19:28:56Z</time>
      </trkpt>
      <trkpt lat="47.50821" lon="-2.31483">
        <ele>41</ele>
        <time>2007-12-23T19:29:25Z</time>
      </trkpt>
      <trkpt lat="47.50932" lon="-2.31525">
        <ele>43</ele>
        <time>2007-12-23T19:30:10Z</time>
      </trkpt>
      <trkpt lat="47.50988" lon="-2.31518">
        <ele>43</ele>
        <time>2007-12-23T19:30:33Z</time>
      </trkpt>
      <trkpt lat="47.51033" lon="-2.31451">
        <ele>41</ele>
        <time>2007-12-23T19:30:58Z</time>
      </trkpt>
      <trkpt lat="47.51046" lon="-2.31394">
        <ele>40</ele>
        <time>2007-12-23T19:31:15Z</time>
      </trkpt>
      <trkpt lat="47.51212" lon="-2.31302">
        <ele>36</ele>
        <time>2007-12-23T19:32:26Z</time>
      </trkpt>
      <trkpt lat="47.51247" lon="-2.31261">
        <ele>38</ele>
        <time>2007-12-23T19:32:43Z</time>
      </trkpt>
      <trkpt lat="47.51334" lon="-2.31265">
        <ele>37</ele>
        <time>2007-12-23T19:33:18Z</time>
      </trkpt>
      <trkpt lat="47.51389" lon="-2.31093">
        <ele>32</ele>
        <time>2007-12-23T19:34:10Z</time>
      </trkpt>
      <trkpt lat="47.51448" lon="-2.31078">
        <ele>28</ele>
        <time>2007-12-23T19:34:34Z</time>
      </trkpt>
      <trkpt lat="47.51495" lon="-2.31086">
        <ele>23</ele>
        <time>2007-12-23T19:34:53Z</time>
      </trkpt>
      <trkpt lat="47.51536" lon="-2.31015">
        <ele>18</ele>
        <time>2007-12-23T19:35:18Z</time>
      </trkpt>
      <trkpt lat="47.51531" lon="-2.30924">
        <ele>22</ele>
        <time>2007-12-23T19:35:43Z</time>
      </trkpt>
      <trkpt lat="47.51535" lon="-2.30842">
        <ele>17</ele>
        <time>2007-12-23T19:36:05Z</time>
      </trkpt>
      <trkpt lat="47.51627" lon="-2.30866">
        <ele>6</ele>
        <time>2007-12-23T19:36:43Z</time>
      </trkpt>
      <trkpt lat="47.5166" lon="-2.30833">
        <ele>2</ele>
        <time>2007-12-23T19:36:59Z</time>
      </trkpt>
      <trkpt lat="47.51786" lon="-2.30742">
        <ele>2.7</ele>
        <time>2007-12-23T19:37:55Z</time>
      </trkpt>
      <trkpt lat="47.51765" lon="-2.30681">
        <ele>2</ele>
        <time>2007-12-23T19:38:13Z</time>
      </trkpt>
      <trkpt lat="47.51748" lon="-2.30574">
        <ele>3</ele>
        <time>2007-12-23T19:38:43Z</time>
      </trkpt>
      <trkpt lat="47.5173" lon="-2.30391">
        <ele>7</ele>
        <time>2007-12-23T19:39:33Z</time>
      </trkpt>
      <trkpt lat="47.51722" lon="-2.30202">
        <ele>5</ele>
        <time>2007-12-23T19:40:24Z</time>
      </trkpt>
      <trkpt lat="47.51755" lon="-2.30204">
        <ele>4</ele>
        <time>2007-12-23T19:40:38Z</time>
      </trkpt>
      <trkpt lat="47.51779" lon="-2.30258">
        <ele>8</ele>
        <time>2007-12-23T19:40:55Z</time>
      </trkpt>
      <trkpt lat="47.51789" lon="-2.30424">
        <ele>7</ele>
        <time>2007-12-23T19:41:40Z</time>
      </trkpt>
      <trkpt lat="47.51827" lon="-2.30506">
        <ele>9</ele>
        <time>2007-12-23T19:42:07Z</time>
      </trkpt>
      <trkpt lat="47.51851" lon="-2.30456">
        <ele>11</ele>
        <time>2007-12-23T19:42:23Z</time>
      </trkpt>
      <trkpt lat="47.51889" lon="-2.30644">
        <ele>1</ele>
        <time>2007-12-23T19:43:17Z</time>
      </trkpt>
      <trkpt lat="47.52005" lon="-2.30612">
        <ele>2.8</ele>
        <time>2007-12-23T19:44:04Z</time>
      </trkpt>
      <trkpt lat="47.5203" lon="-2.30582">
        <ele>3.8</ele>
        <time>2007-12-23T19:44:17Z</time>
      </trkpt>
      <trkpt lat="47.52151" lon="-2.30542">
        <ele>2</ele>
        <time>2007-12-23T19:45:06Z</time>
      </trkpt>
      <trkpt lat="47.52142" lon="-2.30494">
        <ele>6</ele>
        <time>2007-12-23T19:45:20Z</time>
      </trkpt>
      <trkpt lat="47.52112" lon="-2.3046">
        <ele>10</ele>
        <time>2007-12-23T19:45:35Z</time>
      </trkpt>
      <trkpt lat="47.52079" lon="-2.30406">
        <ele>11</ele>
        <time>2007-12-23T19:45:55Z</time>
      </trkpt>
      <trkpt lat="47.52132" lon="-2.30434">
        <ele>17</ele>
        <time>2007-12-23T19:46:17Z</time>
      </trkpt>
      <trkpt lat="47.52212" lon="-2.30445">
        <ele>22</ele>
        <time>2007-12-23T19:46:49Z</time>
      </trkpt>
      <trkpt lat="47.52264" lon="-2.30394">
        <ele>35</ele>
        <time>2007-12-23T19:47:14Z</time>
      </trkpt>
      <trkpt lat="47.52358" lon="-2.30312">
        <ele>46</ele>
        <time>2007-12-23T19:47:58Z</time>
      </trkpt>
      <trkpt lat="47.52434" lon="-2.30228">
        <ele>45</ele>
        <time>2007-12-23T19:48:36Z</time>
      </trkpt>
      <trkpt lat="47.5249" lon="-2.30084">
        <ele>44</ele>
        <time>2007-12-23T19:49:21Z</time>
      </trkpt>
      <trkpt lat="47.52575" lon="-2.30032">
        <ele>44</ele>
        <time>2007-12-23T19:49:58Z</time>
      </trkpt>
      <trkpt lat="47.52659" lon="-2.2998">
        <ele>43</ele>
        <time>2007-12-23T19:50:34Z</time>
      </trkpt>
      <trkpt lat="47.52808" lon="-2.29926">
        <ele>39</ele>
        <time>2007-12-23T19:51:36Z</time>
      </trkpt>
      <trkpt lat="47.52856" lon="-2.29891">
        <ele>43</ele>
        <time>2007-12-23T19:51:57Z</time>
      </trkpt>
      <trkpt lat="47.52841" lon="-2.29799">
        <ele>49</ele>
        <time>2007-12-23T19:52:23Z</time>
      </trkpt>
      <trkpt lat="47.52823" lon="-2.29664">
        <ele>52</ele>
        <time>2007-12-23T19:53:00Z</time>
      </trkpt>
      <trkpt lat="47.5294" lon="-2.29616">
        <ele>30</ele>
        <time>2007-12-23T19:53:48Z</time>
      </trkpt>
      <trkpt lat="47.5292" lon="-2.29448">
        <ele>34</ele>
        <time>2007-12-23T19:54:35Z</time>
      </trkpt>
      <trkpt lat="47.52894" lon="-2.29289">
        <ele>36</ele>
        <time>2007-12-23T19:55:19Z</time>
      </trkpt>
      <trkpt lat="47.52897" lon="-2.29219">
        <ele>39</ele>
        <time>2007-12-23T19:55:38Z</time>
      </trkpt>
      <trkpt lat="47.52885" lon="-2.2917">
        <ele>40</ele>
        <time>2007-12-23T19:55:52Z</time>
      </trkpt>
      <trkpt lat="47.52732" lon="-2.29216">
        <ele>39</ele>
        <time>2007-12-23T19:56:54Z</time>
      </trkpt>
      <trkpt lat="47.52697" lon="-2.2895">
        <ele>43</ele>
        <time>2007-12-23T19:58:08Z</time>
      </trkpt>
      <trkpt lat="47.52901" lon="-2.28636">
        <ele>22</ele>
        <time>2007-12-23T20:00:05Z</time>
      </trkpt>
      <trkpt lat="47.53077" lon="-2.28377">
        <ele>17</ele>
        <time>2007-12-23T20:01:45Z</time>
      </trkpt>
      <trkpt lat="47.53241" lon="-2.28392">
        <ele>23</ele>
        <time>2007-12-23T20:02:50Z</time>
      </trkpt>
      <trkpt lat="47.53302" lon="-2.28332">
        <ele>21</ele>
        <time>2007-12-23T20:03:20Z</time>
      </trkpt>
      <trkpt lat="47.53363" lon="-2.2832">
        <ele>27</ele>
        <time>2007-12-23T20:03:44Z</time>
      </trkpt>
      <trkpt lat="47.53432" lon="-2.28278">
        <ele>29</ele>
        <time>2007-12-23T20:04:14Z</time>
      </trkpt>
      <trkpt lat="47.53453" lon="-2.2834">
        <ele>28</ele>
        <time>2007-12-23T20:04:33Z</time>
      </trkpt>
      <trkpt lat="47.53482" lon="-2.28357">
        <ele>28</ele>
        <time>2007-12-23T18:24:32Z</time>
      </trkpt>
      <trkpt lat="47.53546" lon="-2.28443">
        <ele>31</ele>
        <time>2007-12-23T18:25:06Z</time>
      </trkpt>
      <trkpt lat="47.53532" lon="-2.28505">
        <ele>29</ele>
        <time>2007-12-23T18:25:24Z</time>
      </trkpt>
      <trkpt lat="47.5352" lon="-2.2859">
        <ele>28</ele>
        <time>2007-12-23T18:25:48Z</time>
      </trkpt>
      <trkpt lat="47.53548" lon="-2.2869">
        <ele>30</ele>
        <time>2007-12-23T18:26:17Z</time>
      </trkpt>
      <trkpt lat="47.53542" lon="-2.28715">
        <ele>30</ele>
        <time>2007-12-23T18:26:24Z</time>
      </trkpt>
      <trkpt lat="47.53535" lon="-2.28831">
        <ele>30</ele>
        <time>2007-12-23T18:26:55Z</time>
      </trkpt>
      <trkpt lat="47.53554" lon="-2.2888">
        <ele>31</ele>
        <time>2007-12-23T18:27:11Z</time>
      </trkpt>
      <trkpt lat="47.53584" lon="-2.28939">
        <ele>31</ele>
        <time>2007-12-23T18:27:31Z</time>
      </trkpt>
      <trkpt lat="47.53646" lon="-2.2904">
        <ele>29</ele>
        <time>2007-12-23T18:28:08Z</time>
      </trkpt>
      <trkpt lat="47.53661" lon="-2.29121">
        <ele>27</ele>
        <time>2007-12-23T18:28:30Z</time>
      </trkpt>
      <trkpt lat="47.53668" lon="-2.29172">
        <ele>26</ele>
        <time>2007-12-23T18:28:44Z</time>
      </trkpt>
      <trkpt lat="47.53643" lon="-2.29176">
        <ele>26</ele>
        <time>2007-12-23T18:28:54Z</time>
      </trkpt>
      <trkpt lat="47.53572" lon="-2.29206">
        <ele>23</ele>
        <time>2007-12-23T18:29:24Z</time>
      </trkpt>
      <trkpt lat="47.53507" lon="-2.29248">
        <ele>18</ele>
        <time>2007-12-23T18:29:52Z</time>
      </trkpt>
      <trkpt lat="47.53428" lon="-2.29297">
        <ele>15</ele>
        <time>2007-12-23T18:30:26Z</time>
      </trkpt>
      <trkpt lat="47.53369" lon="-2.29362">
        <ele>13</ele>
        <time>2007-12-23T18:30:56Z</time>
      </trkpt>
      <trkpt lat="47.53348" lon="-2.29443">
        <ele>10</ele>
        <time>2007-12-23T18:31:19Z</time>
      </trkpt>
      <trkpt lat="47.53288" lon="-2.29488">
        <ele>7</ele>
        <time>2007-12-23T18:31:46Z</time>
      </trkpt>
      <trkpt lat="47.53273" lon="-2.29517">
        <ele>10</ele>
        <time>2007-12-23T18:31:56Z</time>
      </trkpt>
      <trkpt lat="47.5328" lon="-2.2963">
        <ele>16</ele>
        <time>2007-12-23T18:32:27Z</time>
      </trkpt>
      <trkpt lat="47.5333" lon="-2.29641">
        <ele>9</ele>
        <time>2007-12-23T18:32:47Z</time>
      </trkpt>
      <trkpt lat="47.53336" lon="-2.29698">
        <ele>13</ele>
        <time>2007-12-23T18:33:02Z</time>
      </trkpt>
      <trkpt lat="47.53389" lon="-2.29789">
        <ele>10</ele>
        <time>2007-12-23T18:33:35Z</time>
      </trkpt>
      <trkpt lat="47.5339" lon="-2.29856">
        <ele>10</ele>
        <time>2007-12-23T18:33:53Z</time>
      </trkpt>
      <trkpt lat="47.53396" lon="-2.29897">
        <ele>7</ele>
        <time>2007-12-23T18:34:04Z</time>
      </trkpt>
      <trkpt lat="47.53432" lon="-2.29896">
        <ele>6</ele>
        <time>2007-12-23T18:34:19Z</time>
      </trkpt>
      <trkpt lat="47.53441" lon="-2.29944">
        <ele>6</ele>
        <time>2007-12-23T18:34:32Z</time>
      </trkpt>
      <trkpt lat="47.53473" lon="-2.29946">
        <ele>7</ele>
        <time>2007-12-23T18:34:45Z</time>
      </trkpt>
      <trkpt lat="47.53514" lon="-2.29976">
        <ele>8</ele>
        <time>2007-12-23T18:35:03Z</time>
      </trkpt>
      <trkpt lat="47.5355" lon="-2.29973">
        <ele>8</ele>
        <time>2007-12-23T18:35:18Z</time>
      </trkpt>
      <trkpt lat="47.53583" lon="-2.29955">
        <ele>9</ele>
        <time>2007-12-23T18:35:31Z</time>
      </trkpt>
      <trkpt lat="47.53603" lon="-2.29901">
        <ele>9</ele>
        <time>2007-12-23T18:35:48Z</time>
      </trkpt>
      <trkpt lat="47.53591" lon="-2.298">
        <ele>10</ele>
        <time>2007-12-23T18:36:16Z</time>
      </trkpt>
      <trkpt lat="47.53599" lon="-2.29711">
        <ele>11</ele>
        <time>2007-12-23T18:36:40Z</time>
      </trkpt>
      <trkpt lat="47.53627" lon="-2.29647">
        <ele>10</ele>
        <time>2007-12-23T18:37:01Z</time>
      </trkpt>
      <trkpt lat="47.53666" lon="-2.29564">
        <ele>11</ele>
        <time>2007-12-23T18:37:28Z</time>
      </trkpt>
      <trkpt lat="47.53715" lon="-2.29475">
        <ele>15</ele>
        <time>2007-12-23T18:37:59Z</time>
      </trkpt>
      <trkpt lat="47.53804" lon="-2.29483">
        <ele>15</ele>
        <time>2007-12-23T18:38:35Z</time>
      </trkpt>
      <trkpt lat="47.5382" lon="-2.29531">
        <ele>19</ele>
        <time>2007-12-23T18:38:49Z</time>
      </trkpt>
      <trkpt lat="47.53819" lon="-2.29567">
        <ele>21</ele>
        <time>2007-12-23T18:38:59Z</time>
      </trkpt>
      <trkpt lat="47.53779" lon="-2.29601">
        <ele>20</ele>
        <time>2007-12-23T18:39:17Z</time>
      </trkpt>
      <trkpt lat="47.53758" lon="-2.29632">
        <ele>20</ele>
        <time>2007-12-23T18:39:29Z</time>
      </trkpt>
      <trkpt lat="47.53766" lon="-2.29693">
        <ele>21</ele>
        <time>2007-12-23T18:39:46Z</time>
      </trkpt>
      <trkpt lat="47.53778" lon="-2.29747">
        <ele>21</ele>
        <time>2007-12-23T18:40:01Z</time>
      </trkpt>
      <trkpt lat="47.53819" lon="-2.29907">
        <ele>18</ele>
        <time>2007-12-23T18:40:48Z</time>
      </trkpt>
      <trkpt lat="47.53842" lon="-2.29998">
        <ele>15</ele>
        <time>2007-12-23T18:41:14Z</time>
      </trkpt>
      <trkpt lat="47.53947" lon="-2.29917">
        <ele>18</ele>
        <time>2007-12-23T18:42:01Z</time>
      </trkpt>
      <trkpt lat="47.53991" lon="-2.29896">
        <ele>19</ele>
        <time>2007-12-23T18:42:20Z</time>
      </trkpt>
      <trkpt lat="47.54009" lon="-2.3001">
        <ele>16</ele>
        <time>2007-12-23T18:42:51Z</time>
      </trkpt>
      <trkpt lat="47.54031" lon="-2.30162">
        <ele>16</ele>
        <time>2007-12-23T18:43:34Z</time>
      </trkpt>
      <trkpt lat="47.54049" lon="-2.30243">
        <ele>16</ele>
        <time>2007-12-23T18:43:57Z</time>
      </trkpt>
      <trkpt lat="47.54158" lon="-2.30199">
        <ele>21</ele>
        <time>2007-12-23T18:44:42Z</time>
      </trkpt>
      <trkpt lat="47.54244" lon="-2.302">
        <ele>19</ele>
        <time>2007-12-23T18:45:16Z</time>
      </trkpt>
      <trkpt lat="47.54316" lon="-2.3019">
        <ele>19</ele>
        <time>2007-12-23T18:45:45Z</time>
      </trkpt>
      <trkpt lat="47.54494" lon="-2.30198">
        <ele>15</ele>
        <time>2007-12-23T18:46:57Z</time>
      </trkpt>
      <trkpt lat="47.545" lon="-2.30043">
        <ele>28</ele>
        <time>2007-12-23T18:47:39Z</time>
      </trkpt>
      <trkpt lat="47.54508" lon="-2.29943">
        <ele>33</ele>
        <time>2007-12-23T18:48:06Z</time>
      </trkpt>
      <trkpt lat="47.54508" lon="-2.29843">
        <ele>35</ele>
        <time>2007-12-23T18:48:33Z</time>
      </trkpt>
      <trkpt lat="47.54516" lon="-2.29814">
        <ele>35</ele>
        <time>2007-12-23T18:48:41Z</time>
      </trkpt>
      <trkpt lat="47.54544" lon="-2.29791">
        <ele>36</ele>
        <time>2007-12-23T18:48:54Z</time>
      </trkpt>
      <trkpt lat="47.54625" lon="-2.29814">
        <ele>41</ele>
        <time>2007-12-23T18:49:27Z</time>
      </trkpt>
      <trkpt lat="47.5468" lon="-2.29823">
        <ele>42</ele>
        <time>2007-12-23T18:49:49Z</time>
      </trkpt>
      <trkpt lat="47.54678" lon="-2.29878">
        <ele>42</ele>
        <time>2007-12-23T18:50:05Z</time>
      </trkpt>
      <trkpt lat="47.54688" lon="-2.3003">
        <ele>35</ele>
        <time>2007-12-23T18:50:46Z</time>
      </trkpt>
      <trkpt lat="47.5471" lon="-2.30141">
        <ele>23</ele>
        <time>2007-12-23T18:51:17Z</time>
      </trkpt>
      <trkpt lat="47.54715" lon="-2.30267">
        <ele>13</ele>
        <time>2007-12-23T18:51:51Z</time>
      </trkpt>
      <trkpt lat="47.54754" lon="-2.30297">
        <ele>17</ele>
        <time>2007-12-23T18:52:09Z</time>
      </trkpt>
      <trkpt lat="47.54794" lon="-2.30301">
        <ele>19</ele>
        <time>2007-12-23T18:52:25Z</time>
      </trkpt>
      <trkpt lat="47.54868" lon="-2.30261">
        <ele>16</ele>
        <time>2007-12-23T18:52:56Z</time>
      </trkpt>
      <trkpt lat="47.54949" lon="-2.30206">
        <ele>14</ele>
        <time>2007-12-23T18:53:32Z</time>
      </trkpt>
      <trkpt lat="47.55002" lon="-2.30113">
        <ele>9</ele>
        <time>2007-12-23T18:54:05Z</time>
      </trkpt>
      <trkpt lat="47.55008" lon="-2.30037">
        <ele>10</ele>
        <time>2007-12-23T18:54:25Z</time>
      </trkpt>
      <trkpt lat="47.55037" lon="-2.29983">
        <ele>6</ele>
        <time>2007-12-23T18:54:44Z</time>
      </trkpt>
      <trkpt lat="47.55068" lon="-2.29936">
        <ele>4</ele>
        <time>2007-12-23T18:55:02Z</time>
      </trkpt>
      <trkpt lat="47.55136" lon="-2.29915">
        <ele>3</ele>
        <time>2007-12-23T18:55:30Z</time>
      </trkpt>
      <trkpt lat="47.55196" lon="-2.2989">
        <ele>4</ele>
        <time>2007-12-23T18:55:55Z</time>
      </trkpt>
      <trkpt lat="47.55238" lon="-2.29835">
        <ele>7</ele>
        <time>2007-12-23T18:56:17Z</time>
      </trkpt>
      <trkpt lat="47.55325" lon="-2.29755">
        <ele>16</ele>
        <time>2007-12-23T18:56:58Z</time>
      </trkpt>
      <trkpt lat="47.55391" lon="-2.29735">
        <ele>17</ele>
        <time>2007-12-23T18:57:25Z</time>
      </trkpt>
      <trkpt lat="47.55439" lon="-2.29709">
        <ele>16</ele>
        <time>2007-12-23T18:57:46Z</time>
      </trkpt>
      <trkpt lat="47.55425" lon="-2.29611">
        <ele>19</ele>
        <time>2007-12-23T18:58:13Z</time>
      </trkpt>
      <trkpt lat="47.55431" lon="-2.29575">
        <ele>20</ele>
        <time>2007-12-23T18:58:23Z</time>
      </trkpt>
      <trkpt lat="47.55514" lon="-2.2955">
        <ele>21</ele>
        <time>2007-12-23T18:58:57Z</time>
      </trkpt>
      <trkpt lat="47.5554" lon="-2.29508">
        <ele>24</ele>
        <time>2007-12-23T18:59:12Z</time>
      </trkpt>
      <trkpt lat="47.5559" lon="-2.29429">
        <ele>26</ele>
        <time>2007-12-23T18:59:41Z</time>
      </trkpt>
      <trkpt lat="47.55652" lon="-2.29344">
        <ele>20</ele>
        <time>2007-12-23T19:00:15Z</time>
      </trkpt>
      <trkpt lat="47.55671" lon="-2.29256">
        <ele>23</ele>
        <time>2007-12-23T19:00:40Z</time>
      </trkpt>
      <trkpt lat="47.55647" lon="-2.29192">
        <ele>29</ele>
        <time>2007-12-23T19:01:00Z</time>
      </trkpt>
      <trkpt lat="47.55622" lon="-2.29072">
        <ele>37</ele>
        <time>2007-12-23T19:01:34Z</time>
      </trkpt>
      <trkpt lat="47.55583" lon="-2.28869">
        <ele>46</ele>
        <time>2007-12-23T19:02:31Z</time>
      </trkpt>
      <trkpt lat="47.55561" lon="-2.28701">
        <ele>48</ele>
        <time>2007-12-23T19:03:17Z</time>
      </trkpt>
      <trkpt lat="47.55569" lon="-2.28549">
        <ele>49</ele>
        <time>2007-12-23T19:03:58Z</time>
      </trkpt>
      <trkpt lat="47.55583" lon="-2.2836">
        <ele>45</ele>
        <time>2007-12-23T19:04:50Z</time>
      </trkpt>
      <trkpt lat="47.5562" lon="-2.2828">
        <ele>40</ele>
        <time>2007-12-23T19:05:16Z</time>
      </trkpt>
      <trkpt lat="47.55638" lon="-2.28172">
        <ele>45</ele>
        <time>2007-12-23T19:05:46Z</time>
      </trkpt>
      <trkpt lat="47.55664" lon="-2.28031">
        <ele>47</ele>
        <time>2007-12-23T19:06:25Z</time>
      </trkpt>
      <trkpt lat="47.55667" lon="-2.27959">
        <ele>50</ele>
        <time>2007-12-23T19:06:45Z</time>
      </trkpt>
      <trkpt lat="47.55723" lon="-2.27946">
        <ele>49</ele>
        <time>2007-12-23T19:07:08Z</time>
      </trkpt>
      <trkpt lat="47.55769" lon="-2.27927">
        <ele>47</ele>
        <time>2007-12-23T19:07:27Z</time>
      </trkpt>
      <trkpt lat="47.55812" lon="-2.27881">
        <ele>42</ele>
        <time>2007-12-23T19:07:48Z</time>
      </trkpt>
      <trkpt lat="47.55816" lon="-2.27832">
        <ele>37</ele>
        <time>2007-12-23T19:08:01Z</time>
      </trkpt>
      <trkpt lat="47.55817" lon="-2.27742">
        <ele>36</ele>
        <time>2007-12-23T19:08:26Z</time>
      </trkpt>
      <trkpt lat="47.55819" lon="-2.27695">
        <ele>35</ele>
        <time>2007-12-23T19:08:38Z</time>
      </trkpt>
      <trkpt lat="47.55828" lon="-2.27626">
        <ele>35</ele>
        <time>2007-12-23T19:08:57Z</time>
      </trkpt>
      <trkpt lat="47.55833" lon="-2.27563">
        <ele>38</ele>
        <time>2007-12-23T19:09:14Z</time>
      </trkpt>
      <trkpt lat="47.55847" lon="-2.27495">
        <ele>40</ele>
        <time>2007-12-23T19:09:34Z</time>
      </trkpt>
      <trkpt lat="47.55868" lon="-2.27443">
        <ele>45</ele>
        <time>2007-12-23T19:09:50Z</time>
      </trkpt>
      <trkpt lat="47.5589" lon="-2.27432">
        <ele>47</ele>
        <time>2007-12-23T19:09:59Z</time>
      </trkpt>
      <trkpt lat="47.55924" lon="-2.27434">
        <ele>48</ele>
        <time>2007-12-23T19:10:13Z</time>
      </trkpt>
      <trkpt lat="47.55957" lon="-2.27401">
        <ele>51</ele>
        <time>2007-12-23T19:10:29Z</time>
      </trkpt>
      <trkpt lat="47.55943" lon="-2.27291">
        <ele>54</ele>
        <time>2007-12-23T19:10:59Z</time>
      </trkpt>
      <trkpt lat="47.56033" lon="-2.27255">
        <ele>51</ele>
        <time>2007-12-23T19:11:37Z</time>
      </trkpt>
      <trkpt lat="47.5614" lon="-2.27228">
        <ele>46</ele>
        <time>2007-12-23T19:12:20Z</time>
      </trkpt>
      <trkpt lat="47.56176" lon="-2.27263">
        <ele>47</ele>
        <time>2007-12-23T19:12:37Z</time>
      </trkpt>
      <trkpt lat="47.56258" lon="-2.27321">
        <ele>49</ele>
        <time>2007-12-23T19:13:13Z</time>
      </trkpt>
      <trkpt lat="47.56307" lon="-2.27325">
        <ele>52</ele>
        <time>2007-12-23T19:13:33Z</time>
      </trkpt>
      <trkpt lat="47.56395" lon="-2.2731">
        <ele>56</ele>
        <time>2007-12-23T19:14:09Z</time>
      </trkpt>
      <trkpt lat="47.56489" lon="-2.27278">
        <ele>55</ele>
        <time>2007-12-23T19:14:48Z</time>
      </trkpt>
      <trkpt lat="47.56561" lon="-2.27274">
        <ele>54</ele>
        <time>2007-12-23T19:15:16Z</time>
      </trkpt>
      <trkpt lat="47.56647" lon="-2.27268">
        <ele>49</ele>
        <time>2007-12-23T19:15:51Z</time>
      </trkpt>
      <trkpt lat="47.56755" lon="-2.27285">
        <ele>39</ele>
        <time>2007-12-23T19:16:34Z</time>
      </trkpt>
      <trkpt lat="47.5675" lon="-2.27234">
        <ele>41</ele>
        <time>2007-12-23T19:16:48Z</time>
      </trkpt>
      <trkpt lat="47.56722" lon="-2.27088">
        <ele>44</ele>
        <time>2007-12-23T19:17:29Z</time>
      </trkpt>
      <trkpt lat="47.56702" lon="-2.2697">
        <ele>52</ele>
        <time>2007-12-23T19:18:02Z</time>
      </trkpt>
      <trkpt lat="47.56672" lon="-2.26827">
        <ele>55</ele>
        <time>2007-12-23T19:18:42Z</time>
      </trkpt>
      <trkpt lat="47.56737" lon="-2.26813">
        <ele>53</ele>
        <time>2007-12-23T19:19:09Z</time>
      </trkpt>
      <trkpt lat="47.56807" lon="-2.26816">
        <ele>47</ele>
        <time>2007-12-23T19:19:37Z</time>
      </trkpt>
      <trkpt lat="47.56901" lon="-2.26824">
        <ele>38</ele>
        <time>2007-12-23T19:20:14Z</time>
      </trkpt>
      <trkpt lat="47.56922" lon="-2.26813">
        <ele>42</ele>
        <time>2007-12-23T19:20:23Z</time>
      </trkpt>
      <trkpt lat="47.56938" lon="-2.26877">
        <ele>43</ele>
        <time>2007-12-23T19:20:42Z</time>
      </trkpt>
      <trkpt lat="47.56958" lon="-2.2693">
        <ele>43</ele>
        <time>2007-12-23T19:20:58Z</time>
      </trkpt>
      <trkpt lat="47.56977" lon="-2.26961">
        <ele>43</ele>
        <time>2007-12-23T19:21:09Z</time>
      </trkpt>
      <trkpt lat="47.57026" lon="-2.26991">
        <ele>43</ele>
        <time>2007-12-23T19:21:31Z</time>
      </trkpt>
      <trkpt lat="47.5708" lon="-2.27029">
        <ele>42</ele>
        <time>2007-12-23T19:21:54Z</time>
      </trkpt>
      <trkpt lat="47.57186" lon="-2.27105">
        <ele>34</ele>
        <time>2007-12-23T19:22:42Z</time>
      </trkpt>
      <trkpt lat="47.57181" lon="-2.27142">
        <ele>32</ele>
        <time>2007-12-23T19:22:52Z</time>
      </trkpt>
      <trkpt lat="47.57203" lon="-2.2733">
        <ele>29</ele>
        <time>2007-12-23T19:23:43Z</time>
      </trkpt>
      <trkpt lat="47.5721" lon="-2.27434">
        <ele>24</ele>
        <time>2007-12-23T19:24:12Z</time>
      </trkpt>
      <trkpt lat="47.57212" lon="-2.2757">
        <ele>21</ele>
        <time>2007-12-23T19:24:48Z</time>
      </trkpt>
      <trkpt lat="47.57218" lon="-2.27647">
        <ele>21</ele>
        <time>2007-12-23T19:25:09Z</time>
      </trkpt>
      <trkpt lat="47.57233" lon="-2.27729">
        <ele>20</ele>
        <time>2007-12-23T19:25:32Z</time>
      </trkpt>
      <trkpt lat="47.57278" lon="-2.27836">
        <ele>23</ele>
        <time>2007-12-23T19:26:06Z</time>
      </trkpt>
      <trkpt lat="47.57303" lon="-2.28">
        <ele>16</ele>
        <time>2007-12-23T19:26:52Z</time>
      </trkpt>
      <trkpt lat="47.57318" lon="-2.28088">
        <ele>7</ele>
        <time>2007-12-23T19:27:16Z</time>
      </trkpt>
      <trkpt lat="47.57356" lon="-2.28091">
        <ele>5</ele>
        <time>2007-12-23T19:27:31Z</time>
      </trkpt>
      <trkpt lat="47.57413" lon="-2.28117">
        <ele>2</ele>
        <time>2007-12-23T19:27:55Z</time>
      </trkpt>
      <trkpt lat="47.57458" lon="-2.28121">
        <ele>2</ele>
        <time>2007-12-23T19:28:13Z</time>
      </trkpt>
      <trkpt lat="47.57498" lon="-2.28084">
        <ele>2</ele>
        <time>2007-12-23T19:28:32Z</time>
      </trkpt>
      <trkpt lat="47.57527" lon="-2.2802">
        <ele>1</ele>
        <time>2007-12-23T19:28:53Z</time>
      </trkpt>
      <trkpt lat="47.57535" lon="-2.27941">
        <ele>1</ele>
        <time>2007-12-23T19:29:14Z</time>
      </trkpt>
      <trkpt lat="47.57552" lon="-2.27845">
        <ele>2</ele>
        <time>2007-12-23T19:29:41Z</time>
      </trkpt>
      <trkpt lat="47.5756" lon="-2.2777">
        <ele>2</ele>
        <time>2007-12-23T19:30:02Z</time>
      </trkpt>
      <trkpt lat="47.57564" lon="-2.27671">
        <ele>2</ele>
        <time>2007-12-23T19:30:29Z</time>
      </trkpt>
      <trkpt lat="47.57567" lon="-2.27605">
        <ele>2</ele>
        <time>2007-12-23T19:30:47Z</time>
      </trkpt>
      <trkpt lat="47.57567" lon="-2.27574">
        <ele>2</ele>
        <time>2007-12-23T19:30:55Z</time>
      </trkpt>
      <trkpt lat="47.5756" lon="-2.27488">
        <ele>2</ele>
        <time>2007-12-23T19:31:18Z</time>
      </trkpt>
      <trkpt lat="47.5756" lon="-2.2743">
        <ele>2</ele>
        <time>2007-12-23T19:31:34Z</time>
      </trkpt>
      <trkpt lat="47.57566" lon="-2.27331">
        <ele>2</ele>
        <time>2007-12-23T19:32:01Z</time>
      </trkpt>
      <trkpt lat="47.57589" lon="-2.27193">
        <ele>2</ele>
        <time>2007-12-23T19:32:39Z</time>
      </trkpt>
      <trkpt lat="47.57568" lon="-2.27175">
        <ele>2</ele>
        <time>2007-12-23T19:32:49Z</time>
      </trkpt>
      <trkpt lat="47.57557" lon="-2.27165">
        <ele>2</ele>
        <time>2007-12-23T19:32:54Z</time>
      </trkpt>
      <trkpt lat="47.57513" lon="-2.27127">
        <ele>2</ele>
        <time>2007-12-23T19:33:14Z</time>
      </trkpt>
      <trkpt lat="47.57463" lon="-2.27075">
        <ele>5</ele>
        <time>2007-12-23T19:33:39Z</time>
      </trkpt>
      <trkpt lat="47.57398" lon="-2.2704">
        <ele>11</ele>
        <time>2007-12-23T19:34:07Z</time>
      </trkpt>
      <trkpt lat="47.57351" lon="-2.27003">
        <ele>16</ele>
        <time>2007-12-23T19:34:28Z</time>
      </trkpt>
      <trkpt lat="47.57321" lon="-2.26874">
        <ele>28</ele>
        <time>2007-12-23T19:35:05Z</time>
      </trkpt>
      <trkpt lat="47.57305" lon="-2.267">
        <ele>36</ele>
        <time>2007-12-23T19:35:52Z</time>
      </trkpt>
      <trkpt lat="47.57323" lon="-2.26701">
        <ele>35</ele>
        <time>2007-12-23T19:35:59Z</time>
      </trkpt>
      <trkpt lat="47.57329" lon="-2.26654">
        <ele>37</ele>
        <time>2007-12-23T19:36:12Z</time>
      </trkpt>
      <trkpt lat="47.57344" lon="-2.26447">
        <ele>50</ele>
        <time>2007-12-23T19:37:08Z</time>
      </trkpt>
      <trkpt lat="47.57396" lon="-2.26447">
        <ele>49</ele>
        <time>2007-12-23T19:37:29Z</time>
      </trkpt>
      <trkpt lat="47.57456" lon="-2.26396">
        <ele>43</ele>
        <time>2007-12-23T19:37:57Z</time>
      </trkpt>
      <trkpt lat="47.57488" lon="-2.264">
        <ele>36</ele>
        <time>2007-12-23T19:38:09Z</time>
      </trkpt>
      <trkpt lat="47.57542" lon="-2.26414">
        <ele>23</ele>
        <time>2007-12-23T19:38:31Z</time>
      </trkpt>
      <trkpt lat="47.57522" lon="-2.26302">
        <ele>36</ele>
        <time>2007-12-23T19:39:03Z</time>
      </trkpt>
      <trkpt lat="47.57504" lon="-2.26217">
        <ele>43</ele>
        <time>2007-12-23T19:39:27Z</time>
      </trkpt>
      <trkpt lat="47.5748" lon="-2.26102">
        <ele>45</ele>
        <time>2007-12-23T19:39:59Z</time>
      </trkpt>
      <trkpt lat="47.57453" lon="-2.26033">
        <ele>40</ele>
        <time>2007-12-23T19:40:21Z</time>
      </trkpt>
      <trkpt lat="47.57416" lon="-2.2589">
        <ele>29</ele>
        <time>2007-12-23T19:41:02Z</time>
      </trkpt>
      <trkpt lat="47.5742" lon="-2.2585">
        <ele>26</ele>
        <time>2007-12-23T19:41:13Z</time>
      </trkpt>
      <trkpt lat="47.57445" lon="-2.25779">
        <ele>22</ele>
        <time>2007-12-23T19:41:35Z</time>
      </trkpt>
      <trkpt lat="47.57425" lon="-2.25641">
        <ele>16</ele>
        <time>2007-12-23T19:42:13Z</time>
      </trkpt>
      <trkpt lat="47.57363" lon="-2.25646">
        <ele>24</ele>
        <time>2007-12-23T19:42:38Z</time>
      </trkpt>
      <trkpt lat="47.57336" lon="-2.25651">
        <ele>26</ele>
        <time>2007-12-23T19:42:49Z</time>
      </trkpt>
      <trkpt lat="47.57271" lon="-2.25678">
        <ele>34</ele>
        <time>2007-12-23T19:43:16Z</time>
      </trkpt>
      <trkpt lat="47.5721" lon="-2.25699">
        <ele>39</ele>
        <time>2007-12-23T19:43:41Z</time>
      </trkpt>
      <trkpt lat="47.57232" lon="-2.25524">
        <ele>35</ele>
        <time>2007-12-23T19:44:29Z</time>
      </trkpt>
      <trkpt lat="47.57248" lon="-2.2541">
        <ele>37</ele>
        <time>2007-12-23T19:45:00Z</time>
      </trkpt>
      <trkpt lat="47.57239" lon="-2.25349">
        <ele>40</ele>
        <time>2007-12-23T19:45:17Z</time>
      </trkpt>
      <trkpt lat="47.57228" lon="-2.25298">
        <ele>39</ele>
        <time>2007-12-23T19:45:31Z</time>
      </trkpt>
      <trkpt lat="47.57209" lon="-2.25263">
        <ele>38</ele>
        <time>2007-12-23T19:45:44Z</time>
      </trkpt>
      <trkpt lat="47.57185" lon="-2.25229">
        <ele>36</ele>
        <time>2007-12-23T19:45:57Z</time>
      </trkpt>
      <trkpt lat="47.57155" lon="-2.25182">
        <ele>32</ele>
        <time>2007-12-23T19:46:14Z</time>
      </trkpt>
      <trkpt lat="47.57139" lon="-2.25151">
        <ele>28</ele>
        <time>2007-12-23T19:46:25Z</time>
      </trkpt>
      <trkpt lat="47.57119" lon="-2.25093">
        <ele>14</ele>
        <time>2007-12-23T19:46:43Z</time>
      </trkpt>
      <trkpt lat="47.5711" lon="-2.25065">
        <ele>12</ele>
        <time>2007-12-23T19:46:51Z</time>
      </trkpt>
      <trkpt lat="47.57069" lon="-2.25041">
        <ele>16</ele>
        <time>2007-12-23T19:47:09Z</time>
      </trkpt>
      <trkpt lat="47.57059" lon="-2.25018">
        <ele>20</ele>
        <time>2007-12-23T19:47:16Z</time>
      </trkpt>
      <trkpt lat="47.57062" lon="-2.24984">
        <ele>25</ele>
        <time>2007-12-23T19:47:25Z</time>
      </trkpt>
      <trkpt lat="47.57084" lon="-2.24943">
        <ele>32</ele>
        <time>2007-12-23T19:47:40Z</time>
      </trkpt>
      <trkpt lat="47.57125" lon="-2.24926">
        <ele>32</ele>
        <time>2007-12-23T19:47:56Z</time>
      </trkpt>
      <trkpt lat="47.57156" lon="-2.24959">
        <ele>24</ele>
        <time>2007-12-23T19:48:12Z</time>
      </trkpt>
      <trkpt lat="47.5717" lon="-2.24984">
        <ele>17</ele>
        <time>2007-12-23T19:48:21Z</time>
      </trkpt>
      <trkpt lat="47.57204" lon="-2.24977">
        <ele>14</ele>
        <time>2007-12-23T19:48:34Z</time>
      </trkpt>
      <trkpt lat="47.57242" lon="-2.24983">
        <ele>13</ele>
        <time>2007-12-23T19:48:50Z</time>
      </trkpt>
      <trkpt lat="47.57225" lon="-2.25044">
        <ele>20</ele>
        <time>2007-12-23T19:49:08Z</time>
      </trkpt>
      <trkpt lat="47.57217" lon="-2.25114">
        <ele>31</ele>
        <time>2007-12-23T19:49:27Z</time>
      </trkpt>
      <trkpt lat="47.57215" lon="-2.25174">
        <ele>36</ele>
        <time>2007-12-23T19:49:43Z</time>
      </trkpt>
      <trkpt lat="47.572" lon="-2.25206">
        <ele>37</ele>
        <time>2007-12-23T19:49:53Z</time>
      </trkpt>
      <trkpt lat="47.57222" lon="-2.25211">
        <ele>36</ele>
        <time>2007-12-23T19:50:02Z</time>
      </trkpt>
      <trkpt lat="47.5724" lon="-2.25206">
        <ele>36</ele>
        <time>2007-12-23T19:50:10Z</time>
      </trkpt>
      <trkpt lat="47.57259" lon="-2.25238">
        <ele>34</ele>
        <time>2007-12-23T19:50:21Z</time>
      </trkpt>
      <trkpt lat="47.57275" lon="-2.25239">
        <ele>32</ele>
        <time>2007-12-23T19:50:28Z</time>
      </trkpt>
      <trkpt lat="47.57283" lon="-2.2515">
        <ele>27</ele>
        <time>2007-12-23T19:50:52Z</time>
      </trkpt>
      <trkpt lat="47.57299" lon="-2.25034">
        <ele>15</ele>
        <time>2007-12-23T19:51:24Z</time>
      </trkpt>
      <trkpt lat="47.57308" lon="-2.24979">
        <ele>8</ele>
        <time>2007-12-23T19:51:39Z</time>
      </trkpt>
      <trkpt lat="47.57309" lon="-2.24933">
        <ele>7</ele>
        <time>2007-12-23T19:51:52Z</time>
      </trkpt>
      <trkpt lat="47.57284" lon="-2.24831">
        <ele>16</ele>
        <time>2007-12-23T19:52:21Z</time>
      </trkpt>
      <trkpt lat="47.57244" lon="-2.24673">
        <ele>27</ele>
        <time>2007-12-23T19:53:07Z</time>
      </trkpt>
      <trkpt lat="47.57219" lon="-2.24531">
        <ele>36</ele>
        <time>2007-12-23T19:53:46Z</time>
      </trkpt>
      <trkpt lat="47.57372" lon="-2.24545">
        <ele>23</ele>
        <time>2007-12-23T19:54:47Z</time>
      </trkpt>
      <trkpt lat="47.57392" lon="-2.24557">
        <ele>21</ele>
        <time>2007-12-23T19:54:56Z</time>
      </trkpt>
      <trkpt lat="47.57421" lon="-2.24559">
        <ele>19</ele>
        <time>2007-12-23T19:55:08Z</time>
      </trkpt>
      <trkpt lat="47.57512" lon="-2.24544">
        <ele>7</ele>
        <time>2007-12-23T19:55:44Z</time>
      </trkpt>
      <trkpt lat="47.57516" lon="-2.24447">
        <ele>9</ele>
        <time>2007-12-23T19:56:10Z</time>
      </trkpt>
      <trkpt lat="47.57536" lon="-2.24279">
        <ele>6</ele>
        <time>2007-12-23T19:56:56Z</time>
      </trkpt>
      <trkpt lat="47.57545" lon="-2.24108">
        <ele>4</ele>
        <time>2007-12-23T19:57:43Z</time>
      </trkpt>
      <trkpt lat="47.57567" lon="-2.24016">
        <ele>3</ele>
        <time>2007-12-23T19:58:09Z</time>
      </trkpt>
      <trkpt lat="47.57645" lon="-2.23799">
        <ele>3</ele>
        <time>2007-12-23T19:59:16Z</time>
      </trkpt>
      <trkpt lat="47.57706" lon="-2.23672">
        <ele>2</ele>
        <time>2007-12-23T19:59:58Z</time>
      </trkpt>
      <trkpt lat="47.57623" lon="-2.23508">
        <ele>2</ele>
        <time>2007-12-23T20:00:53Z</time>
      </trkpt>
      <trkpt lat="47.5758" lon="-2.23401">
        <ele>4</ele>
        <time>2007-12-23T20:01:27Z</time>
      </trkpt>
      <trkpt lat="47.57603" lon="-2.23384">
        <ele>4</ele>
        <time>2007-12-23T20:01:37Z</time>
      </trkpt>
      <trkpt lat="47.57652" lon="-2.23334">
        <ele>3</ele>
        <time>2007-12-23T20:02:01Z</time>
      </trkpt>
      <trkpt lat="47.57697" lon="-2.23285">
        <ele>3</ele>
        <time>2007-12-23T20:02:23Z</time>
      </trkpt>
      <trkpt lat="47.57751" lon="-2.23232">
        <ele>4</ele>
        <time>2007-12-23T20:02:49Z</time>
      </trkpt>
      <trkpt lat="47.5779" lon="-2.23213">
        <ele>5</ele>
        <time>2007-12-23T20:03:06Z</time>
      </trkpt>
      <trkpt lat="47.57851" lon="-2.23191">
        <ele>9</ele>
        <time>2007-12-23T20:03:31Z</time>
      </trkpt>
      <trkpt lat="47.57819" lon="-2.23138">
        <ele>10</ele>
        <time>2007-12-23T20:03:50Z</time>
      </trkpt>
      <trkpt lat="47.57815" lon="-2.23079">
        <ele>15</ele>
        <time>2007-12-23T20:04:06Z</time>
      </trkpt>
      <trkpt lat="47.57805" lon="-2.23051">
        <ele>15</ele>
        <time>2007-12-23T20:04:15Z</time>
      </trkpt>
      <trkpt lat="47.57857" lon="-2.23053">
        <ele>26</ele>
        <time>2007-12-23T20:04:35Z</time>
      </trkpt>
      <trkpt lat="47.57876" lon="-2.23014">
        <ele>33</ele>
        <time>2007-12-23T20:04:48Z</time>
      </trkpt>
      <trkpt lat="47.57915" lon="-2.22984">
        <ele>43</ele>
        <time>2007-12-23T20:05:06Z</time>
      </trkpt>
      <trkpt lat="47.57933" lon="-2.22939">
        <ele>42</ele>
        <time>2007-12-23T20:05:20Z</time>
      </trkpt>
      <trkpt lat="47.5792" lon="-2.22884">
        <ele>50</ele>
        <time>2007-12-23T20:05:36Z</time>
      </trkpt>
      <trkpt lat="47.57918" lon="-2.22778">
        <ele>53</ele>
        <time>2007-12-23T20:06:04Z</time>
      </trkpt>
      <trkpt lat="47.57896" lon="-2.22682">
        <ele>56</ele>
        <time>2007-12-23T20:06:32Z</time>
      </trkpt>
      <trkpt lat="47.57865" lon="-2.22557">
        <ele>62</ele>
        <time>2007-12-23T20:07:08Z</time>
      </trkpt>
      <trkpt lat="47.57826" lon="-2.22471">
        <ele>65</ele>
        <time>2007-12-23T20:07:36Z</time>
      </trkpt>
      <trkpt lat="47.57775" lon="-2.2238">
        <ele>68</ele>
        <time>2007-12-23T20:08:07Z</time>
      </trkpt>
      <trkpt lat="47.57697" lon="-2.22289">
        <ele>70</ele>
        <time>2007-12-23T20:08:47Z</time>
      </trkpt>
      <trkpt lat="47.57747" lon="-2.22294">
        <ele>69</ele>
        <time>2007-12-23T20:09:07Z</time>
      </trkpt>
      <trkpt lat="47.57808" lon="-2.22229">
        <ele>62</ele>
        <time>2007-12-23T20:09:37Z</time>
      </trkpt>
      <trkpt lat="47.57801" lon="-2.22185">
        <ele>62</ele>
        <time>2007-12-23T20:09:49Z</time>
      </trkpt>
      <trkpt lat="47.5777" lon="-2.22106">
        <ele>66</ele>
        <time>2007-12-23T20:10:14Z</time>
      </trkpt>
      <trkpt lat="47.57805" lon="-2.22085">
        <ele>63</ele>
        <time>2007-12-23T20:10:29Z</time>
      </trkpt>
      <trkpt lat="47.57837" lon="-2.22072">
        <ele>58</ele>
        <time>2007-12-23T20:10:42Z</time>
      </trkpt>
      <trkpt lat="47.57873" lon="-2.22055">
        <ele>53</ele>
        <time>2007-12-23T20:10:57Z</time>
      </trkpt>
      <trkpt lat="47.57891" lon="-2.22056">
        <ele>50</ele>
        <time>2007-12-23T20:11:05Z</time>
      </trkpt>
      <trkpt lat="47.57903" lon="-2.22097">
        <ele>46</ele>
        <time>2007-12-23T20:11:17Z</time>
      </trkpt>
      <trkpt lat="47.57919" lon="-2.22202">
        <ele>42</ele>
        <time>2007-12-23T20:11:46Z</time>
      </trkpt>
      <trkpt lat="47.57968" lon="-2.2224">
        <ele>32</ele>
        <time>2007-12-23T20:12:08Z</time>
      </trkpt>
      <trkpt lat="47.57988" lon="-2.22248">
        <ele>29</ele>
        <time>2007-12-23T20:12:16Z</time>
      </trkpt>
      <trkpt lat="47.58022" lon="-2.22231">
        <ele>29</ele>
        <time>2007-12-23T20:12:30Z</time>
      </trkpt>
      <trkpt lat="47.58051" lon="-2.22244">
        <ele>27</ele>
        <time>2007-12-23T20:12:42Z</time>
      </trkpt>
      <trkpt lat="47.58085" lon="-2.22313">
        <ele>19</ele>
        <time>2007-12-23T20:13:05Z</time>
      </trkpt>
      <trkpt lat="47.58108" lon="-2.22384">
        <ele>11</ele>
        <time>2007-12-23T20:13:27Z</time>
      </trkpt>
      <trkpt lat="47.58137" lon="-2.22421">
        <ele>7</ele>
        <time>2007-12-23T20:13:42Z</time>
      </trkpt>
      <trkpt lat="47.58162" lon="-2.22413">
        <ele>5</ele>
        <time>2007-12-23T20:13:52Z</time>
      </trkpt>
      <trkpt lat="47.58152" lon="-2.22258">
        <ele>8</ele>
        <time>2007-12-23T20:14:34Z</time>
      </trkpt>
      <trkpt lat="47.58094" lon="-2.21951">
        <ele>13</ele>
        <time>2007-12-23T20:16:00Z</time>
      </trkpt>
      <trkpt lat="47.58037" lon="-2.21636">
        <ele>15</ele>
        <time>2007-12-23T20:17:28Z</time>
      </trkpt>
      <trkpt lat="47.5799" lon="-2.2145">
        <ele>16</ele>
        <time>2007-12-23T20:18:22Z</time>
      </trkpt>
      <trkpt lat="47.58193" lon="-2.21387">
        <ele>4</ele>
        <time>2007-12-23T20:19:45Z</time>
      </trkpt>
      <trkpt lat="47.58175" lon="-2.21152">
        <ele>4</ele>
        <time>2007-12-23T20:20:49Z</time>
      </trkpt>
      <trkpt lat="47.5814" lon="-2.20876">
        <ele>3</ele>
        <time>2007-12-23T20:22:05Z</time>
      </trkpt>
      <trkpt lat="47.58075" lon="-2.20881">
        <ele>3</ele>
        <time>2007-12-23T20:22:31Z</time>
      </trkpt>
      <trkpt lat="47.58025" lon="-2.209">
        <ele>3</ele>
        <time>2007-12-23T20:22:52Z</time>
      </trkpt>
      <trkpt lat="47.57986" lon="-2.20906">
        <ele>5</ele>
        <time>2007-12-23T20:23:07Z</time>
      </trkpt>
      <trkpt lat="47.57902" lon="-2.20916">
        <ele>10</ele>
        <time>2007-12-23T20:23:41Z</time>
      </trkpt>
      <trkpt lat="47.57864" lon="-2.20913">
        <ele>14</ele>
        <time>2007-12-23T20:23:56Z</time>
      </trkpt>
      <trkpt lat="47.57816" lon="-2.20732">
        <ele>16</ele>
        <time>2007-12-23T20:24:49Z</time>
      </trkpt>
      <trkpt lat="47.578" lon="-2.20664">
        <ele>16</ele>
        <time>2007-12-23T20:25:08Z</time>
      </trkpt>
      <trkpt lat="47.57764" lon="-2.20594">
        <ele>19</ele>
        <time>2007-12-23T20:25:32Z</time>
      </trkpt>
      <trkpt lat="47.5775" lon="-2.20657">
        <ele>30</ele>
        <time>2007-12-23T20:25:50Z</time>
      </trkpt>
      <trkpt lat="47.57773" lon="-2.20715">
        <ele>26</ele>
        <time>2007-12-23T20:26:08Z</time>
      </trkpt>
      <trkpt lat="47.57782" lon="-2.20785">
        <ele>30</ele>
        <time>2007-12-23T20:26:27Z</time>
      </trkpt>
      <trkpt lat="47.57807" lon="-2.20867">
        <ele>29</ele>
        <time>2007-12-23T20:26:52Z</time>
      </trkpt>
      <trkpt lat="47.57792" lon="-2.2091">
        <ele>32</ele>
        <time>2007-12-23T20:27:05Z</time>
      </trkpt>
      <trkpt lat="47.57754" lon="-2.20967">
        <ele>43</ele>
        <time>2007-12-23T20:27:26Z</time>
      </trkpt>
      <trkpt lat="47.57715" lon="-2.20966">
        <ele>49</ele>
        <time>2007-12-23T20:27:42Z</time>
      </trkpt>
      <trkpt lat="47.57658" lon="-2.20999">
        <ele>55</ele>
        <time>2007-12-23T20:28:06Z</time>
      </trkpt>
      <trkpt lat="47.57613" lon="-2.21047">
        <ele>59</ele>
        <time>2007-12-23T20:28:29Z</time>
      </trkpt>
      <trkpt lat="47.57608" lon="-2.21063">
        <ele>59</ele>
        <time>2007-12-23T20:28:33Z</time>
      </trkpt>
      <trkpt lat="47.57513" lon="-2.21082">
        <ele>60</ele>
        <time>2007-12-23T20:29:12Z</time>
      </trkpt>
      <trkpt lat="47.57486" lon="-2.2109">
        <ele>60</ele>
        <time>2007-12-23T20:29:23Z</time>
      </trkpt>
      <trkpt lat="47.57424" lon="-2.21111">
        <ele>59</ele>
        <time>2007-12-23T20:29:48Z</time>
      </trkpt>
      <trkpt lat="47.57418" lon="-2.21038">
        <ele>58</ele>
        <time>2007-12-23T20:30:08Z</time>
      </trkpt>
      <trkpt lat="47.57408" lon="-2.21">
        <ele>57</ele>
        <time>2007-12-23T20:30:19Z</time>
      </trkpt>
      <trkpt lat="47.57372" lon="-2.2093">
        <ele>54</ele>
        <time>2007-12-23T20:30:43Z</time>
      </trkpt>
      <trkpt lat="47.57336" lon="-2.20835">
        <ele>53</ele>
        <time>2007-12-23T20:31:13Z</time>
      </trkpt>
      <trkpt lat="47.57333" lon="-2.20771">
        <ele>55</ele>
        <time>2007-12-23T20:31:30Z</time>
      </trkpt>
      <trkpt lat="47.57314" lon="-2.20659">
        <ele>60</ele>
        <time>2007-12-23T20:32:01Z</time>
      </trkpt>
      <trkpt lat="47.57304" lon="-2.20558">
        <ele>61</ele>
        <time>2007-12-23T20:32:28Z</time>
      </trkpt>
      <trkpt lat="47.57302" lon="-2.20501">
        <ele>61</ele>
        <time>2007-12-23T20:32:44Z</time>
      </trkpt>
      <trkpt lat="47.57265" lon="-2.20225">
        <ele>57</ele>
        <time>2007-12-23T20:34:00Z</time>
      </trkpt>
      <trkpt lat="47.57211" lon="-2.19951">
        <ele>49</ele>
        <time>2007-12-23T20:35:17Z</time>
      </trkpt>
      <trkpt lat="47.57176" lon="-2.19695">
        <ele>45</ele>
        <time>2007-12-23T20:36:28Z</time>
      </trkpt>
      <trkpt lat="47.57227" lon="-2.19699">
        <ele>47</ele>
        <time>2007-12-23T20:36:48Z</time>
      </trkpt>
      <trkpt lat="47.57257" lon="-2.19699">
        <ele>49</ele>
        <time>2007-12-23T20:37:00Z</time>
      </trkpt>
      <trkpt lat="47.57335" lon="-2.19695">
        <ele>51</ele>
        <time>2007-12-23T20:37:31Z</time>
      </trkpt>
      <trkpt lat="47.57373" lon="-2.19663">
        <ele>49</ele>
        <time>2007-12-23T20:37:49Z</time>
      </trkpt>
      <trkpt lat="47.57381" lon="-2.19613">
        <ele>46</ele>
        <time>2007-12-23T20:38:03Z</time>
      </trkpt>
      <trkpt lat="47.57348" lon="-2.1953">
        <ele>46</ele>
        <time>2007-12-23T20:38:29Z</time>
      </trkpt>
      <trkpt lat="47.5732" lon="-2.19465">
        <ele>45</ele>
        <time>2007-12-23T20:38:50Z</time>
      </trkpt>
      <trkpt lat="47.5729" lon="-2.19366">
        <ele>46</ele>
        <time>2007-12-23T20:39:19Z</time>
      </trkpt>
      <trkpt lat="47.57311" lon="-2.1934">
        <ele>42</ele>
        <time>2007-12-23T20:39:30Z</time>
      </trkpt>
      <trkpt lat="47.57347" lon="-2.19291">
        <ele>33</ele>
        <time>2007-12-23T20:39:50Z</time>
      </trkpt>
      <trkpt lat="47.57396" lon="-2.19235">
        <ele>20</ele>
        <time>2007-12-23T20:40:14Z</time>
      </trkpt>
      <trkpt lat="47.57379" lon="-2.19153">
        <ele>20</ele>
        <time>2007-12-23T20:40:37Z</time>
      </trkpt>
      <trkpt lat="47.57363" lon="-2.19048">
        <ele>20</ele>
        <time>2007-12-23T20:41:06Z</time>
      </trkpt>
      <trkpt lat="47.5731" lon="-2.18908">
        <ele>24</ele>
        <time>2007-12-23T20:41:50Z</time>
      </trkpt>
      <trkpt lat="47.57279" lon="-2.18772">
        <ele>25</ele>
        <time>2007-12-23T20:42:29Z</time>
      </trkpt>
      <trkpt lat="47.57244" lon="-2.18752">
        <ele>32</ele>
        <time>2007-12-23T20:42:44Z</time>
      </trkpt>
      <trkpt lat="47.5722" lon="-2.1873">
        <ele>37</ele>
        <time>2007-12-23T20:42:55Z</time>
      </trkpt>
      <trkpt lat="47.57185" lon="-2.18755">
        <ele>40</ele>
        <time>2007-12-23T20:43:10Z</time>
      </trkpt>
      <trkpt lat="47.57014" lon="-2.1882">
        <ele>40</ele>
        <time>2007-12-23T20:44:21Z</time>
      </trkpt>
      <trkpt lat="47.5695" lon="-2.18841">
        <ele>37</ele>
        <time>2007-12-23T20:44:47Z</time>
      </trkpt>
      <trkpt lat="47.56939" lon="-2.18824">
        <ele>36</ele>
        <time>2007-12-23T20:44:54Z</time>
      </trkpt>
      <trkpt lat="47.56984" lon="-2.1871">
        <ele>40</ele>
        <time>2007-12-23T20:45:29Z</time>
      </trkpt>
      <trkpt lat="47.5702" lon="-2.186">
        <ele>42</ele>
        <time>2007-12-23T20:46:02Z</time>
      </trkpt>
      <trkpt lat="47.57059" lon="-2.18464">
        <ele>43</ele>
        <time>2007-12-23T20:46:42Z</time>
      </trkpt>
      <trkpt lat="47.57085" lon="-2.18363">
        <ele>40</ele>
        <time>2007-12-23T20:47:12Z</time>
      </trkpt>
      <trkpt lat="47.57076" lon="-2.18312">
        <ele>39</ele>
        <time>2007-12-23T20:47:26Z</time>
      </trkpt>
      <trkpt lat="47.57011" lon="-2.18063">
        <ele>30</ele>
        <time>2007-12-23T20:48:38Z</time>
      </trkpt>
      <trkpt lat="47.56992" lon="-2.17989">
        <ele>25</ele>
        <time>2007-12-23T20:48:59Z</time>
      </trkpt>
      <trkpt lat="47.56954" lon="-2.178">
        <ele>29</ele>
        <time>2007-12-23T20:49:53Z</time>
      </trkpt>
      <trkpt lat="47.56912" lon="-2.1773">
        <ele>33</ele>
        <time>2007-12-23T20:50:18Z</time>
      </trkpt>
      <trkpt lat="47.56903" lon="-2.17669">
        <ele>34</ele>
        <time>2007-12-23T20:50:35Z</time>
      </trkpt>
      <trkpt lat="47.56892" lon="-2.17541">
        <ele>36</ele>
        <time>2007-12-23T20:51:09Z</time>
      </trkpt>
      <trkpt lat="47.56791" lon="-2.17433">
        <ele>42</ele>
        <time>2007-12-23T20:52:00Z</time>
      </trkpt>
      <trkpt lat="47.56756" lon="-2.17416">
        <ele>43</ele>
        <time>2007-12-23T20:52:14Z</time>
      </trkpt>
      <trkpt lat="47.56698" lon="-2.17382">
        <ele>44</ele>
        <time>2007-12-23T20:52:39Z</time>
      </trkpt>
      <trkpt lat="47.56695" lon="-2.17345">
        <ele>44</ele>
        <time>2007-12-23T20:52:49Z</time>
      </trkpt>
      <trkpt lat="47.56655" lon="-2.17322">
        <ele>46</ele>
        <time>2007-12-23T20:53:07Z</time>
      </trkpt>
      <trkpt lat="47.566" lon="-2.17293">
        <ele>49</ele>
        <time>2007-12-23T20:53:30Z</time>
      </trkpt>
      <trkpt lat="47.56542" lon="-2.17269">
        <ele>51</ele>
        <time>2007-12-23T20:53:54Z</time>
      </trkpt>
      <trkpt lat="47.56454" lon="-2.17234">
        <ele>51</ele>
        <time>2007-12-23T20:54:31Z</time>
      </trkpt>
      <trkpt lat="47.56372" lon="-2.17195">
        <ele>43</ele>
        <time>2007-12-23T20:55:05Z</time>
      </trkpt>
      <trkpt lat="47.56304" lon="-2.17149">
        <ele>36</ele>
        <time>2007-12-23T20:55:35Z</time>
      </trkpt>
      <trkpt lat="47.56201" lon="-2.1706">
        <ele>23</ele>
        <time>2007-12-23T20:56:22Z</time>
      </trkpt>
      <trkpt lat="47.56092" lon="-2.16981">
        <ele>12</ele>
        <time>2007-12-23T20:57:11Z</time>
      </trkpt>
      <trkpt lat="47.56033" lon="-2.16926">
        <ele>8</ele>
        <time>2007-12-23T20:57:39Z</time>
      </trkpt>
      <trkpt lat="47.55917" lon="-2.16903">
        <ele>8</ele>
        <time>2007-12-23T20:58:26Z</time>
      </trkpt>
      <trkpt lat="47.5577" lon="-2.16873">
        <ele>9</ele>
        <time>2007-12-23T20:59:25Z</time>
      </trkpt>
      <trkpt lat="47.55741" lon="-2.16928">
        <ele>10</ele>
        <time>2007-12-23T20:59:44Z</time>
      </trkpt>
      <trkpt lat="47.55656" lon="-2.17017">
        <ele>10</ele>
        <time>2007-12-23T21:00:26Z</time>
      </trkpt>
      <trkpt lat="47.55522" lon="-2.17095">
        <ele>14</ele>
        <time>2007-12-23T21:01:23Z</time>
      </trkpt>
      <trkpt lat="47.55394" lon="-2.17194">
        <ele>19</ele>
        <time>2007-12-23T21:02:21Z</time>
      </trkpt>
      <trkpt lat="47.55356" lon="-2.17254">
        <ele>20</ele>
        <time>2007-12-23T21:02:43Z</time>
      </trkpt>
      <trkpt lat="47.55278" lon="-2.17367">
        <ele>26</ele>
        <time>2007-12-23T21:03:27Z</time>
      </trkpt>
      <trkpt lat="47.55257" lon="-2.17139">
        <ele>21</ele>
        <time>2007-12-23T21:04:29Z</time>
      </trkpt>
      <trkpt lat="47.55238" lon="-2.16978">
        <ele>18</ele>
        <time>2007-12-23T21:05:13Z</time>
      </trkpt>
      <trkpt lat="47.55159" lon="-2.16985">
        <ele>15</ele>
        <time>2007-12-23T21:05:45Z</time>
      </trkpt>
      <trkpt lat="47.55129" lon="-2.16996">
        <ele>13</ele>
        <time>2007-12-23T21:05:57Z</time>
      </trkpt>
      <trkpt lat="47.55057" lon="-2.16996">
        <ele>14</ele>
        <time>2007-12-23T21:06:26Z</time>
      </trkpt>
      <trkpt lat="47.55021" lon="-2.16993">
        <ele>16</ele>
        <time>2007-12-23T21:06:41Z</time>
      </trkpt>
      <trkpt lat="47.54973" lon="-2.17029">
        <ele>18</ele>
        <time>2007-12-23T21:07:02Z</time>
      </trkpt>
      <trkpt lat="47.54929" lon="-2.17059">
        <ele>19</ele>
        <time>2007-12-23T21:07:22Z</time>
      </trkpt>
      <trkpt lat="47.54897" lon="-2.17122">
        <ele>21</ele>
        <time>2007-12-23T21:07:43Z</time>
      </trkpt>
      <trkpt lat="47.54862" lon="-2.17176">
        <ele>22</ele>
        <time>2007-12-23T21:08:03Z</time>
      </trkpt>
      <trkpt lat="47.54837" lon="-2.17207">
        <ele>20</ele>
        <time>2007-12-23T21:08:16Z</time>
      </trkpt>
      <trkpt lat="47.54808" lon="-2.17227">
        <ele>18</ele>
        <time>2007-12-23T21:08:29Z</time>
      </trkpt>
      <trkpt lat="47.54763" lon="-2.1727">
        <ele>13</ele>
        <time>2007-12-23T21:08:51Z</time>
      </trkpt>
      <trkpt lat="47.54708" lon="-2.1735">
        <ele>18</ele>
        <time>2007-12-23T21:09:21Z</time>
      </trkpt>
      <trkpt lat="47.54656" lon="-2.17405">
        <ele>21</ele>
        <time>2007-12-23T21:09:47Z</time>
      </trkpt>
      <trkpt lat="47.54532" lon="-2.17484">
        <ele>13</ele>
        <time>2007-12-23T21:10:41Z</time>
      </trkpt>
      <trkpt lat="47.545" lon="-2.17445">
        <ele>11</ele>
        <time>2007-12-23T21:10:58Z</time>
      </trkpt>
      <trkpt lat="47.54484" lon="-2.1742">
        <ele>9</ele>
        <time>2007-12-23T21:11:07Z</time>
      </trkpt>
      <trkpt lat="47.54499" lon="-2.17378">
        <ele>10</ele>
        <time>2007-12-23T21:11:20Z</time>
      </trkpt>
      <trkpt lat="47.54506" lon="-2.17272">
        <ele>11</ele>
        <time>2007-12-23T21:11:48Z</time>
      </trkpt>
      <trkpt lat="47.54593" lon="-2.17203">
        <ele>11</ele>
        <time>2007-12-23T21:12:28Z</time>
      </trkpt>
      <trkpt lat="47.54631" lon="-2.17126">
        <ele>10</ele>
        <time>2007-12-23T21:12:54Z</time>
      </trkpt>
      <trkpt lat="47.54658" lon="-2.17082">
        <ele>10</ele>
        <time>2007-12-23T21:13:10Z</time>
      </trkpt>
      <trkpt lat="47.54711" lon="-2.16983">
        <ele>12</ele>
        <time>2007-12-23T21:13:44Z</time>
      </trkpt>
      <trkpt lat="47.54771" lon="-2.16885">
        <ele>18</ele>
        <time>2007-12-23T21:14:20Z</time>
      </trkpt>
      <trkpt lat="47.54812" lon="-2.16815">
        <ele>15</ele>
        <time>2007-12-23T21:14:45Z</time>
      </trkpt>
      <trkpt lat="47.54838" lon="-2.16735">
        <ele>11</ele>
        <time>2007-12-23T21:15:09Z</time>
      </trkpt>
      <trkpt lat="47.5484" lon="-2.16678">
        <ele>10</ele>
        <time>2007-12-23T21:15:24Z</time>
      </trkpt>
      <trkpt lat="47.54834" lon="-2.16665">
        <ele>11</ele>
        <time>2007-12-23T21:15:28Z</time>
      </trkpt>
      <trkpt lat="47.54835" lon="-2.16625">
        <ele>15</ele>
        <time>2007-12-23T21:15:39Z</time>
      </trkpt>
      <trkpt lat="47.54825" lon="-2.16557">
        <ele>23</ele>
        <time>2007-12-23T21:15:58Z</time>
      </trkpt>
      <trkpt lat="47.54816" lon="-2.16493">
        <ele>30</ele>
        <time>2007-12-23T21:16:16Z</time>
      </trkpt>
      <trkpt lat="47.54849" lon="-2.16496">
        <ele>25</ele>
        <time>2007-12-23T21:16:29Z</time>
      </trkpt>
      <trkpt lat="47.54892" lon="-2.16513">
        <ele>23</ele>
        <time>2007-12-23T21:16:47Z</time>
      </trkpt>
      <trkpt lat="47.54924" lon="-2.16529">
        <ele>21</ele>
        <time>2007-12-23T21:17:00Z</time>
      </trkpt>
      <trkpt lat="47.5496" lon="-2.16542">
        <ele>20</ele>
        <time>2007-12-23T21:17:15Z</time>
      </trkpt>
      <trkpt lat="47.54985" lon="-2.16555">
        <ele>18</ele>
        <time>2007-12-23T21:17:25Z</time>
      </trkpt>
      <trkpt lat="47.55033" lon="-2.16582">
        <ele>13</ele>
        <time>2007-12-23T21:17:46Z</time>
      </trkpt>
      <trkpt lat="47.55062" lon="-2.1659">
        <ele>11</ele>
        <time>2007-12-23T21:17:58Z</time>
      </trkpt>
      <trkpt lat="47.55088" lon="-2.16613">
        <ele>10</ele>
        <time>2007-12-23T21:18:10Z</time>
      </trkpt>
      <trkpt lat="47.55137" lon="-2.16613">
        <ele>10</ele>
        <time>2007-12-23T21:18:30Z</time>
      </trkpt>
      <trkpt lat="47.55159" lon="-2.16592">
        <ele>9</ele>
        <time>2007-12-23T21:18:40Z</time>
      </trkpt>
      <trkpt lat="47.55151" lon="-2.16574">
        <ele>9</ele>
        <time>2007-12-23T21:18:46Z</time>
      </trkpt>
      <trkpt lat="47.55129" lon="-2.16527">
        <ele>9</ele>
        <time>2007-12-23T21:19:01Z</time>
      </trkpt>
      <trkpt lat="47.55156" lon="-2.16496">
        <ele>11</ele>
        <time>2007-12-23T21:19:15Z</time>
      </trkpt>
      <trkpt lat="47.55163" lon="-2.16423">
        <ele>16</ele>
        <time>2007-12-23T21:19:35Z</time>
      </trkpt>
      <trkpt lat="47.55187" lon="-2.16394">
        <ele>16</ele>
        <time>2007-12-23T21:19:47Z</time>
      </trkpt>
      <trkpt lat="47.55186" lon="-2.16355">
        <ele>17</ele>
        <time>2007-12-23T21:19:58Z</time>
      </trkpt>
      <trkpt lat="47.55201" lon="-2.16322">
        <ele>17</ele>
        <time>2007-12-23T21:20:08Z</time>
      </trkpt>
      <trkpt lat="47.55231" lon="-2.16249">
        <ele>17</ele>
        <time>2007-12-23T21:20:32Z</time>
      </trkpt>
      <trkpt lat="47.55259" lon="-2.16158">
        <ele>12</ele>
        <time>2007-12-23T21:20:59Z</time>
      </trkpt>
      <trkpt lat="47.5525" lon="-2.16101">
        <ele>10</ele>
        <time>2007-12-23T21:21:14Z</time>
      </trkpt>
      <trkpt lat="47.5523" lon="-2.16036">
        <ele>9</ele>
        <time>2007-12-23T21:21:34Z</time>
      </trkpt>
      <trkpt lat="47.55216" lon="-2.15978">
        <ele>10</ele>
        <time>2007-12-23T21:21:50Z</time>
      </trkpt>
      <trkpt lat="47.5522" lon="-2.15945">
        <ele>11</ele>
        <time>2007-12-23T21:21:59Z</time>
      </trkpt>
      <trkpt lat="47.55231" lon="-2.15937">
        <ele>12</ele>
        <time>2007-12-23T21:22:05Z</time>
      </trkpt>
      <trkpt lat="47.55249" lon="-2.15942">
        <ele>13</ele>
        <time>2007-12-23T21:22:12Z</time>
      </trkpt>
      <trkpt lat="47.55265" lon="-2.15892">
        <ele>15</ele>
        <time>2007-12-23T21:22:27Z</time>
      </trkpt>
      <trkpt lat="47.55258" lon="-2.15835">
        <ele>16</ele>
        <time>2007-12-23T21:22:42Z</time>
      </trkpt>
      <trkpt lat="47.55241" lon="-2.15761">
        <ele>17</ele>
        <time>2007-12-23T21:23:03Z</time>
      </trkpt>
      <trkpt lat="47.5524" lon="-2.15721">
        <ele>19</ele>
        <time>2007-12-23T21:23:14Z</time>
      </trkpt>
      <trkpt lat="47.55238" lon="-2.15657">
        <ele>21</ele>
        <time>2007-12-23T21:23:31Z</time>
      </trkpt>
      <trkpt lat="47.55217" lon="-2.15606">
        <ele>21</ele>
        <time>2007-12-23T21:23:48Z</time>
      </trkpt>
      <trkpt lat="47.5522" lon="-2.15557">
        <ele>23</ele>
        <time>2007-12-23T21:24:01Z</time>
      </trkpt>
      <trkpt lat="47.55224" lon="-2.15503">
        <ele>24</ele>
        <time>2007-12-23T21:24:16Z</time>
      </trkpt>
      <trkpt lat="47.55227" lon="-2.1542">
        <ele>26</ele>
        <time>2007-12-23T21:24:38Z</time>
      </trkpt>
      <trkpt lat="47.55247" lon="-2.15371">
        <ele>25</ele>
        <time>2007-12-23T21:24:54Z</time>
      </trkpt>
      <trkpt lat="47.55325" lon="-2.15322">
        <ele>17</ele>
        <time>2007-12-23T21:25:27Z</time>
      </trkpt>
      <trkpt lat="47.55361" lon="-2.15322">
        <ele>13</ele>
        <time>2007-12-23T21:25:42Z</time>
      </trkpt>
      <trkpt lat="47.55415" lon="-2.15277">
        <ele>11</ele>
        <time>2007-12-23T21:26:07Z</time>
      </trkpt>
      <trkpt lat="47.55426" lon="-2.15217">
        <ele>14</ele>
        <time>2007-12-23T21:26:23Z</time>
      </trkpt>
      <trkpt lat="47.5548" lon="-2.15179">
        <ele>26</ele>
        <time>2007-12-23T21:26:47Z</time>
      </trkpt>
      <trkpt lat="47.55528" lon="-2.1514">
        <ele>32</ele>
        <time>2007-12-23T21:27:09Z</time>
      </trkpt>
      <trkpt lat="47.55607" lon="-2.15089">
        <ele>36</ele>
        <time>2007-12-23T21:27:44Z</time>
      </trkpt>
      <trkpt lat="47.55632" lon="-2.15085">
        <ele>36</ele>
        <time>2007-12-23T21:27:54Z</time>
      </trkpt>
      <trkpt lat="47.55752" lon="-2.15101">
        <ele>36</ele>
        <time>2007-12-23T21:28:42Z</time>
      </trkpt>
      <trkpt lat="47.55786" lon="-2.15112">
        <ele>37</ele>
        <time>2007-12-23T21:28:56Z</time>
      </trkpt>
      <trkpt lat="47.55814" lon="-2.15098">
        <ele>38</ele>
        <time>2007-12-23T21:29:08Z</time>
      </trkpt>
      <trkpt lat="47.55876" lon="-2.15069">
        <ele>41</ele>
        <time>2007-12-23T21:29:34Z</time>
      </trkpt>
      <trkpt lat="47.55895" lon="-2.15071">
        <ele>41</ele>
        <time>2007-12-23T21:29:42Z</time>
      </trkpt>
      <trkpt lat="47.55904" lon="-2.15108">
        <ele>41</ele>
        <time>2007-12-23T21:29:52Z</time>
      </trkpt>
      <trkpt lat="47.55902" lon="-2.15148">
        <ele>40</ele>
        <time>2007-12-23T21:30:03Z</time>
      </trkpt>
      <trkpt lat="47.55901" lon="-2.15151">
        <ele>40</ele>
        <time>2007-12-23T21:30:04Z</time>
      </trkpt>
      <trkpt lat="47.55868" lon="-2.15191">
        <ele>39</ele>
        <time>2007-12-23T21:30:21Z</time>
      </trkpt>
      <trkpt lat="47.55851" lon="-2.15243">
        <ele>38</ele>
        <time>2007-12-23T21:30:37Z</time>
      </trkpt>
      <trkpt lat="47.55849" lon="-2.1529">
        <ele>38</ele>
        <time>2007-12-23T21:30:49Z</time>
      </trkpt>
      <trkpt lat="47.55866" lon="-2.15318">
        <ele>39</ele>
        <time>2007-12-23T21:30:59Z</time>
      </trkpt>
      <trkpt lat="47.55897" lon="-2.15321">
        <ele>40</ele>
        <time>2007-12-23T21:31:12Z</time>
      </trkpt>
      <trkpt lat="47.56031" lon="-2.15299">
        <ele>41</ele>
        <time>2007-12-23T21:32:06Z</time>
      </trkpt>
      <trkpt lat="47.56061" lon="-2.15264">
        <ele>42</ele>
        <time>2007-12-23T21:32:21Z</time>
      </trkpt>
      <trkpt lat="47.56067" lon="-2.15301">
        <ele>42</ele>
        <time>2007-12-23T21:32:31Z</time>
      </trkpt>
      <trkpt lat="47.56093" lon="-2.15396">
        <ele>41</ele>
        <time>2007-12-23T21:32:59Z</time>
      </trkpt>
      <trkpt lat="47.56121" lon="-2.15493">
        <ele>39</ele>
        <time>2007-12-23T21:33:27Z</time>
      </trkpt>
      <trkpt lat="47.56148" lon="-2.15604">
        <ele>33</ele>
        <time>2007-12-23T21:33:59Z</time>
      </trkpt>
      <trkpt lat="47.56193" lon="-2.15585">
        <ele>34</ele>
        <time>2007-12-23T21:34:18Z</time>
      </trkpt>
      <trkpt lat="47.56248" lon="-2.15569">
        <ele>36</ele>
        <time>2007-12-23T21:34:41Z</time>
      </trkpt>
      <trkpt lat="47.56296" lon="-2.15554">
        <ele>37</ele>
        <time>2007-12-23T21:35:00Z</time>
      </trkpt>
      <trkpt lat="47.56327" lon="-2.15556">
        <ele>36</ele>
        <time>2007-12-23T21:35:13Z</time>
      </trkpt>
      <trkpt lat="47.56348" lon="-2.15508">
        <ele>35</ele>
        <time>2007-12-23T21:35:28Z</time>
      </trkpt>
      <trkpt lat="47.56316" lon="-2.15439">
        <ele>39</ele>
        <time>2007-12-23T21:35:51Z</time>
      </trkpt>
      <trkpt lat="47.5627" lon="-2.15312">
        <ele>42</ele>
        <time>2007-12-23T21:36:30Z</time>
      </trkpt>
      <trkpt lat="47.5624" lon="-2.15242">
        <ele>41</ele>
        <time>2007-12-23T21:36:52Z</time>
      </trkpt>
      <trkpt lat="47.56233" lon="-2.15163">
        <ele>41</ele>
        <time>2007-12-23T21:37:14Z</time>
      </trkpt>
      <trkpt lat="47.56275" lon="-2.15159">
        <ele>39</ele>
        <time>2007-12-23T21:37:31Z</time>
      </trkpt>
      <trkpt lat="47.56338" lon="-2.15245">
        <ele>35</ele>
        <time>2007-12-23T21:38:05Z</time>
      </trkpt>
      <trkpt lat="47.56357" lon="-2.15319">
        <ele>35</ele>
        <time>2007-12-23T21:38:26Z</time>
      </trkpt>
      <trkpt lat="47.56396" lon="-2.15366">
        <ele>30</ele>
        <time>2007-12-23T21:38:46Z</time>
      </trkpt>
      <trkpt lat="47.56457" lon="-2.15408">
        <ele>18</ele>
        <time>2007-12-23T21:39:13Z</time>
      </trkpt>
      <trkpt lat="47.56515" lon="-2.15419">
        <ele>9</ele>
        <time>2007-12-23T21:39:37Z</time>
      </trkpt>
      <trkpt lat="47.56561" lon="-2.15446">
        <ele>5</ele>
        <time>2007-12-23T21:39:56Z</time>
      </trkpt>
      <trkpt lat="47.56593" lon="-2.15449">
        <ele>5</ele>
        <time>2007-12-23T21:40:09Z</time>
      </trkpt>
      <trkpt lat="47.56651" lon="-2.15405">
        <ele>5</ele>
        <time>2007-12-23T21:40:35Z</time>
      </trkpt>
      <trkpt lat="47.56713" lon="-2.15309">
        <ele>6</ele>
        <time>2007-12-23T21:41:11Z</time>
      </trkpt>
      <trkpt lat="47.56755" lon="-2.15266">
        <ele>5</ele>
        <time>2007-12-23T21:41:32Z</time>
      </trkpt>
      <trkpt lat="47.56757" lon="-2.15237">
        <ele>5</ele>
        <time>2007-12-23T21:41:40Z</time>
      </trkpt>
      <trkpt lat="47.56765" lon="-2.15187">
        <ele>6</ele>
        <time>2007-12-23T21:41:53Z</time>
      </trkpt>
      <trkpt lat="47.56828" lon="-2.15129">
        <ele>4</ele>
        <time>2007-12-23T21:42:23Z</time>
      </trkpt>
      <trkpt lat="47.56859" lon="-2.15013">
        <ele>4</ele>
        <time>2007-12-23T21:42:57Z</time>
      </trkpt>
      <trkpt lat="47.5686" lon="-2.14953">
        <ele>5</ele>
        <time>2007-12-23T21:43:13Z</time>
      </trkpt>
      <trkpt lat="47.56842" lon="-2.14884">
        <ele>7</ele>
        <time>2007-12-23T21:43:33Z</time>
      </trkpt>
      <trkpt lat="47.56845" lon="-2.14871">
        <ele>7</ele>
        <time>2007-12-23T21:43:37Z</time>
      </trkpt>
      <trkpt lat="47.56876" lon="-2.14864">
        <ele>6</ele>
        <time>2007-12-23T21:43:49Z</time>
      </trkpt>
      <trkpt lat="47.56894" lon="-2.14866">
        <ele>7</ele>
        <time>2007-12-23T21:43:57Z</time>
      </trkpt>
      <trkpt lat="47.56912" lon="-2.14867">
        <ele>7</ele>
        <time>2007-12-23T21:44:04Z</time>
      </trkpt>
      <trkpt lat="47.56995" lon="-2.14891">
        <ele>6</ele>
        <time>2007-12-23T21:44:38Z</time>
      </trkpt>
      <trkpt lat="47.57077" lon="-2.14865">
        <ele>6</ele>
        <time>2007-12-23T21:45:11Z</time>
      </trkpt>
      <trkpt lat="47.57088" lon="-2.14829">
        <ele>6</ele>
        <time>2007-12-23T21:45:22Z</time>
      </trkpt>
      <trkpt lat="47.57101" lon="-2.14717">
        <ele>7</ele>
        <time>2007-12-23T21:45:52Z</time>
      </trkpt>
      <trkpt lat="47.57119" lon="-2.14664">
        <ele>6</ele>
        <time>2007-12-23T21:46:08Z</time>
      </trkpt>
      <trkpt lat="47.57139" lon="-2.14596">
        <ele>8</ele>
        <time>2007-12-23T21:46:28Z</time>
      </trkpt>
      <trkpt lat="47.57136" lon="-2.1449">
        <ele>10</ele>
        <time>2007-12-23T21:46:57Z</time>
      </trkpt>
      <trkpt lat="47.57232" lon="-2.14522">
        <ele>12</ele>
        <time>2007-12-23T21:47:36Z</time>
      </trkpt>
      <trkpt lat="47.57262" lon="-2.14524">
        <ele>13</ele>
        <time>2007-12-23T21:47:48Z</time>
      </trkpt>
      <trkpt lat="47.57365" lon="-2.14529">
        <ele>11</ele>
        <time>2007-12-23T21:48:30Z</time>
      </trkpt>
      <trkpt lat="47.57418" lon="-2.14537">
        <ele>9</ele>
        <time>2007-12-23T21:48:51Z</time>
      </trkpt>
      <trkpt lat="47.57556" lon="-2.14661">
        <ele>7</ele>
        <time>2007-12-23T21:49:55Z</time>
      </trkpt>
      <trkpt lat="47.57673" lon="-2.14735">
        <ele>6</ele>
        <time>2007-12-23T21:50:46Z</time>
      </trkpt>
      <trkpt lat="47.57744" lon="-2.14741">
        <ele>5</ele>
        <time>2007-12-23T21:51:15Z</time>
      </trkpt>
      <trkpt lat="47.57855" lon="-2.14727">
        <ele>4</ele>
        <time>2007-12-23T21:51:59Z</time>
      </trkpt>
      <trkpt lat="47.57895" lon="-2.14674">
        <ele>4</ele>
        <time>2007-12-23T21:52:21Z</time>
      </trkpt>
      <trkpt lat="47.57951" lon="-2.14682">
        <ele>4</ele>
        <time>2007-12-23T21:52:43Z</time>
      </trkpt>
      <trkpt lat="47.58283" lon="-2.14627">
        <ele>3</ele>
        <time>2007-12-23T21:54:57Z</time>
      </trkpt>
      <trkpt lat="47.58239" lon="-2.14221">
        <ele>4</ele>
        <time>2007-12-23T21:56:48Z</time>
      </trkpt>
      <trkpt lat="47.58056" lon="-2.13789">
        <ele>4</ele>
        <time>2007-12-23T21:59:06Z</time>
      </trkpt>
      <trkpt lat="47.58151" lon="-2.13673">
        <ele>5</ele>
        <time>2007-12-23T21:59:55Z</time>
      </trkpt>
      <trkpt lat="47.58214" lon="-2.1353">
        <ele>5</ele>
        <time>2007-12-23T22:00:41Z</time>
      </trkpt>
      <trkpt lat="47.58219" lon="-2.13459">
        <ele>4</ele>
        <time>2007-12-23T22:01:00Z</time>
      </trkpt>
      <trkpt lat="47.58189" lon="-2.13138">
        <ele>5</ele>
        <time>2007-12-23T22:02:28Z</time>
      </trkpt>
      <trkpt lat="47.58134" lon="-2.12983">
        <ele>5</ele>
        <time>2007-12-23T22:03:15Z</time>
      </trkpt>
      <trkpt lat="47.58105" lon="-2.12937">
        <ele>6</ele>
        <time>2007-12-23T22:03:32Z</time>
      </trkpt>
      <trkpt lat="47.58085" lon="-2.12863">
        <ele>5</ele>
        <time>2007-12-23T22:03:54Z</time>
      </trkpt>
      <trkpt lat="47.58003" lon="-2.12706">
        <ele>5</ele>
        <time>2007-12-23T22:04:47Z</time>
      </trkpt>
      <trkpt lat="47.5797" lon="-2.12683">
        <ele>6</ele>
        <time>2007-12-23T22:05:02Z</time>
      </trkpt>
      <trkpt lat="47.58047" lon="-2.12534">
        <ele>3</ele>
        <time>2007-12-23T22:05:52Z</time>
      </trkpt>
      <trkpt lat="47.58094" lon="-2.1255">
        <ele>3</ele>
        <time>2007-12-23T22:06:12Z</time>
      </trkpt>
      <trkpt lat="47.58121" lon="-2.12576">
        <ele>3</ele>
        <time>2007-12-23T22:06:24Z</time>
      </trkpt>
      <trkpt lat="47.58173" lon="-2.12661">
        <ele>3</ele>
        <time>2007-12-23T22:06:55Z</time>
      </trkpt>
      <trkpt lat="47.58417" lon="-2.12598">
        <ele>4</ele>
        <time>2007-12-23T22:08:34Z</time>
      </trkpt>
      <trkpt lat="47.58763" lon="-2.12516">
        <ele>4</ele>
        <time>2007-12-23T22:10:55Z</time>
      </trkpt>
      <trkpt lat="47.58851" lon="-2.12498">
        <ele>4</ele>
        <time>2007-12-23T22:11:30Z</time>
      </trkpt>
      <trkpt lat="47.58974" lon="-2.12461">
        <ele>5</ele>
        <time>2007-12-23T22:12:20Z</time>
      </trkpt>
      <trkpt lat="47.58984" lon="-2.12505">
        <ele>5</ele>
        <time>2007-12-23T22:12:33Z</time>
      </trkpt>
      <trkpt lat="47.58988" lon="-2.12573">
        <ele>5</ele>
        <time>2007-12-23T22:12:51Z</time>
      </trkpt>
      <trkpt lat="47.58976" lon="-2.12645">
        <ele>5</ele>
        <time>2007-12-23T22:13:11Z</time>
      </trkpt>
      <trkpt lat="47.58985" lon="-2.12702">
        <ele>5</ele>
        <time>2007-12-23T22:13:27Z</time>
      </trkpt>
      <trkpt lat="47.58968" lon="-2.1278">
        <ele>5</ele>
        <time>2007-12-23T22:13:49Z</time>
      </trkpt>
      <trkpt lat="47.58997" lon="-2.12849">
        <ele>5</ele>
        <time>2007-12-23T22:14:11Z</time>
      </trkpt>
      <trkpt lat="47.59044" lon="-2.12936">
        <ele>7</ele>
        <time>2007-12-23T22:14:41Z</time>
      </trkpt>
      <trkpt lat="47.59012" lon="-2.13">
        <ele>5</ele>
        <time>2007-12-23T22:15:03Z</time>
      </trkpt>
      <trkpt lat="47.58987" lon="-2.13082">
        <ele>5</ele>
        <time>2007-12-23T22:15:27Z</time>
      </trkpt>
      <trkpt lat="47.58986" lon="-2.13184">
        <ele>6</ele>
        <time>2007-12-23T22:15:55Z</time>
      </trkpt>
      <trkpt lat="47.59014" lon="-2.13237">
        <ele>7</ele>
        <time>2007-12-23T22:16:13Z</time>
      </trkpt>
      <trkpt lat="47.59036" lon="-2.13249">
        <ele>8</ele>
        <time>2007-12-23T22:16:22Z</time>
      </trkpt>
      <trkpt lat="47.59084" lon="-2.13236">
        <ele>13</ele>
        <time>2007-12-23T22:16:42Z</time>
      </trkpt>
      <trkpt lat="47.59131" lon="-2.1329">
        <ele>19</ele>
        <time>2007-12-23T22:17:05Z</time>
      </trkpt>
      <trkpt lat="47.59087" lon="-2.13389">
        <ele>19</ele>
        <time>2007-12-23T22:17:38Z</time>
      </trkpt>
      <trkpt lat="47.59083" lon="-2.13442">
        <ele>20</ele>
        <time>2007-12-23T22:17:52Z</time>
      </trkpt>
      <trkpt lat="47.59096" lon="-2.1356">
        <ele>26</ele>
        <time>2007-12-23T22:18:24Z</time>
      </trkpt>
      <trkpt lat="47.59105" lon="-2.13615">
        <ele>26</ele>
        <time>2007-12-23T22:18:39Z</time>
      </trkpt>
      <trkpt lat="47.59157" lon="-2.13622">
        <ele>26</ele>
        <time>2007-12-23T22:19:00Z</time>
      </trkpt>
      <trkpt lat="47.59217" lon="-2.13584">
        <ele>26</ele>
        <time>2007-12-23T22:19:27Z</time>
      </trkpt>
      <trkpt lat="47.59286" lon="-2.13547">
        <ele>26</ele>
        <time>2007-12-23T22:19:56Z</time>
      </trkpt>
      <trkpt lat="47.59353" lon="-2.13532">
        <ele>24</ele>
        <time>2007-12-23T22:20:23Z</time>
      </trkpt>
      <trkpt lat="47.59401" lon="-2.13482">
        <ele>25</ele>
        <time>2007-12-23T22:20:46Z</time>
      </trkpt>
      <trkpt lat="47.59469" lon="-2.13421">
        <ele>25</ele>
        <time>2007-12-23T22:21:18Z</time>
      </trkpt>
      <trkpt lat="47.59491" lon="-2.13494">
        <ele>25</ele>
        <time>2007-12-23T22:21:40Z</time>
      </trkpt>
      <trkpt lat="47.59531" lon="-2.1355">
        <ele>26</ele>
        <time>2007-12-23T22:22:02Z</time>
      </trkpt>
      <trkpt lat="47.59562" lon="-2.1357">
        <ele>27</ele>
        <time>2007-12-23T22:22:15Z</time>
      </trkpt>
      <trkpt lat="47.5959" lon="-2.13605">
        <ele>26</ele>
        <time>2007-12-23T22:22:30Z</time>
      </trkpt>
      <trkpt lat="47.59595" lon="-2.13652">
        <ele>25</ele>
        <time>2007-12-23T22:22:43Z</time>
      </trkpt>
      <trkpt lat="47.59689" lon="-2.13666">
        <ele>16</ele>
        <time>2007-12-23T22:23:21Z</time>
      </trkpt>
      <trkpt lat="47.59742" lon="-2.13631">
        <ele>15</ele>
        <time>2007-12-23T22:23:44Z</time>
      </trkpt>
      <trkpt lat="47.59745" lon="-2.13595">
        <ele>19</ele>
        <time>2007-12-23T22:23:54Z</time>
      </trkpt>
      <trkpt lat="47.59788" lon="-2.13496">
        <ele>24</ele>
        <time>2007-12-23T22:24:26Z</time>
      </trkpt>
      <trkpt lat="47.59767" lon="-2.1333">
        <ele>30</ele>
        <time>2007-12-23T22:25:11Z</time>
      </trkpt>
      <trkpt lat="47.59931" lon="-2.13291">
        <ele>31</ele>
        <time>2007-12-23T22:26:18Z</time>
      </trkpt>
      <trkpt lat="47.59973" lon="-2.13241">
        <ele>31</ele>
        <time>2007-12-23T22:26:39Z</time>
      </trkpt>
      <trkpt lat="47.60035" lon="-2.13226">
        <ele>32</ele>
        <time>2007-12-23T22:27:04Z</time>
      </trkpt>
      <trkpt lat="47.60108" lon="-2.13206">
        <ele>37</ele>
        <time>2007-12-23T22:27:34Z</time>
      </trkpt>
      <trkpt lat="47.60148" lon="-2.13309">
        <ele>27</ele>
        <time>2007-12-23T22:28:06Z</time>
      </trkpt>
      <trkpt lat="47.60141" lon="-2.13329">
        <ele>23</ele>
        <time>2007-12-23T22:28:12Z</time>
      </trkpt>
      <trkpt lat="47.60167" lon="-2.13374">
        <ele>22</ele>
        <time>2007-12-23T22:28:28Z</time>
      </trkpt>
      <trkpt lat="47.60196" lon="-2.134">
        <ele>25</ele>
        <time>2007-12-23T22:28:42Z</time>
      </trkpt>
      <trkpt lat="47.60193" lon="-2.13446">
        <ele>29</ele>
        <time>2007-12-23T22:28:55Z</time>
      </trkpt>
      <trkpt lat="47.60182" lon="-2.13501">
        <ele>32</ele>
        <time>2007-12-23T22:29:10Z</time>
      </trkpt>
      <trkpt lat="47.60171" lon="-2.13548">
        <ele>32</ele>
        <time>2007-12-23T22:29:23Z</time>
      </trkpt>
      <trkpt lat="47.60172" lon="-2.13634">
        <ele>35</ele>
        <time>2007-12-23T22:29:47Z</time>
      </trkpt>
      <trkpt lat="47.60157" lon="-2.13786">
        <ele>39</ele>
        <time>2007-12-23T22:30:28Z</time>
      </trkpt>
      <trkpt lat="47.60154" lon="-2.13909">
        <ele>39</ele>
        <time>2007-12-23T22:31:01Z</time>
      </trkpt>
      <trkpt lat="47.60136" lon="-2.13974">
        <ele>35</ele>
        <time>2007-12-23T22:31:20Z</time>
      </trkpt>
      <trkpt lat="47.60102" lon="-2.1411">
        <ele>34</ele>
        <time>2007-12-23T22:32:00Z</time>
      </trkpt>
      <trkpt lat="47.60276" lon="-2.14153">
        <ele>46</ele>
        <time>2007-12-23T22:33:10Z</time>
      </trkpt>
      <trkpt lat="47.60262" lon="-2.14291">
        <ele>51</ele>
        <time>2007-12-23T22:33:48Z</time>
      </trkpt>
      <trkpt lat="47.6028" lon="-2.14449">
        <ele>58</ele>
        <time>2007-12-23T22:34:31Z</time>
      </trkpt>
      <trkpt lat="47.603" lon="-2.14514">
        <ele>59</ele>
        <time>2007-12-23T22:34:51Z</time>
      </trkpt>
      <trkpt lat="47.60353" lon="-2.14668">
        <ele>58</ele>
        <time>2007-12-23T22:35:37Z</time>
      </trkpt>
      <trkpt lat="47.60373" lon="-2.14781">
        <ele>55</ele>
        <time>2007-12-23T22:36:09Z</time>
      </trkpt>
      <trkpt lat="47.60344" lon="-2.14794">
        <ele>57</ele>
        <time>2007-12-23T22:36:21Z</time>
      </trkpt>
      <trkpt lat="47.60287" lon="-2.14803">
        <ele>59</ele>
        <time>2007-12-23T22:36:44Z</time>
      </trkpt>
      <trkpt lat="47.60232" lon="-2.14815">
        <ele>60</ele>
        <time>2007-12-23T22:37:06Z</time>
      </trkpt>
      <trkpt lat="47.60175" lon="-2.14844">
        <ele>58</ele>
        <time>2007-12-23T22:37:30Z</time>
      </trkpt>
      <trkpt lat="47.60143" lon="-2.1486">
        <ele>54</ele>
        <time>2007-12-23T22:37:44Z</time>
      </trkpt>
      <trkpt lat="47.60122" lon="-2.14872">
        <ele>52</ele>
        <time>2007-12-23T22:37:53Z</time>
      </trkpt>
      <trkpt lat="47.60137" lon="-2.14909">
        <ele>54</ele>
        <time>2007-12-23T22:38:04Z</time>
      </trkpt>
      <trkpt lat="47.60174" lon="-2.1493">
        <ele>58</ele>
        <time>2007-12-23T22:38:20Z</time>
      </trkpt>
      <trkpt lat="47.60184" lon="-2.14961">
        <ele>59</ele>
        <time>2007-12-23T22:38:29Z</time>
      </trkpt>
      <trkpt lat="47.60224" lon="-2.14964">
        <ele>59</ele>
        <time>2007-12-23T22:38:46Z</time>
      </trkpt>
      <trkpt lat="47.60232" lon="-2.14994">
        <ele>58</ele>
        <time>2007-12-23T22:38:54Z</time>
      </trkpt>
      <trkpt lat="47.60218" lon="-2.1502">
        <ele>59</ele>
        <time>2007-12-23T22:39:03Z</time>
      </trkpt>
      <trkpt lat="47.60193" lon="-2.15051">
        <ele>60</ele>
        <time>2007-12-23T22:39:16Z</time>
      </trkpt>
      <trkpt lat="47.60165" lon="-2.15055">
        <ele>60</ele>
        <time>2007-12-23T22:39:28Z</time>
      </trkpt>
      <trkpt lat="47.6014" lon="-2.15064">
        <ele>58</ele>
        <time>2007-12-23T22:39:38Z</time>
      </trkpt>
      <trkpt lat="47.6014" lon="-2.15104">
        <ele>59</ele>
        <time>2007-12-23T22:39:49Z</time>
      </trkpt>
      <trkpt lat="47.60158" lon="-2.15102">
        <ele>62</ele>
        <time>2007-12-23T22:39:56Z</time>
      </trkpt>
      <trkpt lat="47.60189" lon="-2.15104">
        <ele>61</ele>
        <time>2007-12-23T22:40:09Z</time>
      </trkpt>
      <trkpt lat="47.60174" lon="-2.15143">
        <ele>63</ele>
        <time>2007-12-23T22:40:21Z</time>
      </trkpt>
      <trkpt lat="47.60126" lon="-2.15169">
        <ele>58</ele>
        <time>2007-12-23T22:40:41Z</time>
      </trkpt>
      <trkpt lat="47.60021" lon="-2.1526">
        <ele>45</ele>
        <time>2007-12-23T22:41:30Z</time>
      </trkpt>
      <trkpt lat="47.60038" lon="-2.15351">
        <ele>40</ele>
        <time>2007-12-23T22:41:55Z</time>
      </trkpt>
      <trkpt lat="47.60085" lon="-2.15425">
        <ele>38</ele>
        <time>2007-12-23T22:42:23Z</time>
      </trkpt>
      <trkpt lat="47.60212" lon="-2.15346">
        <ele>45</ele>
        <time>2007-12-23T22:43:18Z</time>
      </trkpt>
      <trkpt lat="47.60238" lon="-2.15417">
        <ele>37</ele>
        <time>2007-12-23T22:43:40Z</time>
      </trkpt>
      <trkpt lat="47.60273" lon="-2.15461">
        <ele>32</ele>
        <time>2007-12-23T22:43:58Z</time>
      </trkpt>
      <trkpt lat="47.60236" lon="-2.1551">
        <ele>30</ele>
        <time>2007-12-23T22:44:18Z</time>
      </trkpt>
      <trkpt lat="47.60235" lon="-2.15554">
        <ele>27</ele>
        <time>2007-12-23T22:44:30Z</time>
      </trkpt>
      <trkpt lat="47.60226" lon="-2.15624">
        <ele>22</ele>
        <time>2007-12-23T22:44:49Z</time>
      </trkpt>
      <trkpt lat="47.60198" lon="-2.15704">
        <ele>17</ele>
        <time>2007-12-23T22:45:13Z</time>
      </trkpt>
      <trkpt lat="47.6017" lon="-2.15712">
        <ele>16</ele>
        <time>2007-12-23T22:45:25Z</time>
      </trkpt>
      <trkpt lat="47.60167" lon="-2.15742">
        <ele>15</ele>
        <time>2007-12-23T22:45:33Z</time>
      </trkpt>
      <trkpt lat="47.60191" lon="-2.15824">
        <ele>17</ele>
        <time>2007-12-23T22:45:57Z</time>
      </trkpt>
      <trkpt lat="47.60176" lon="-2.15932">
        <ele>20</ele>
        <time>2007-12-23T22:46:26Z</time>
      </trkpt>
      <trkpt lat="47.6025" lon="-2.15928">
        <ele>21</ele>
        <time>2007-12-23T22:46:56Z</time>
      </trkpt>
      <trkpt lat="47.60367" lon="-2.16002">
        <ele>21</ele>
        <time>2007-12-23T22:47:47Z</time>
      </trkpt>
      <trkpt lat="47.60503" lon="-2.16066">
        <ele>26</ele>
        <time>2007-12-23T22:48:44Z</time>
      </trkpt>
      <trkpt lat="47.60623" lon="-2.1614">
        <ele>33</ele>
        <time>2007-12-23T22:49:36Z</time>
      </trkpt>
      <trkpt lat="47.60645" lon="-2.16145">
        <ele>35</ele>
        <time>2007-12-23T22:49:45Z</time>
      </trkpt>
      <trkpt lat="47.60752" lon="-2.16114">
        <ele>41</ele>
        <time>2007-12-23T22:50:29Z</time>
      </trkpt>
      <trkpt lat="47.60847" lon="-2.16099">
        <ele>46</ele>
        <time>2007-12-23T22:51:07Z</time>
      </trkpt>
      <trkpt lat="47.60935" lon="-2.16083">
        <ele>49</ele>
        <time>2007-12-23T22:51:43Z</time>
      </trkpt>
      <trkpt lat="47.60969" lon="-2.16099">
        <ele>49</ele>
        <time>2007-12-23T22:51:57Z</time>
      </trkpt>
      <trkpt lat="47.60969" lon="-2.16205">
        <ele>53</ele>
        <time>2007-12-23T22:52:26Z</time>
      </trkpt>
      <trkpt lat="47.60991" lon="-2.1638">
        <ele>58</ele>
        <time>2007-12-23T22:53:14Z</time>
      </trkpt>
      <trkpt lat="47.61188" lon="-2.16368">
        <ele>67</ele>
        <time>2007-12-23T22:54:33Z</time>
      </trkpt>
      <trkpt lat="47.61299" lon="-2.1635">
        <ele>74</ele>
        <time>2007-12-23T22:55:17Z</time>
      </trkpt>
      <trkpt lat="47.61291" lon="-2.16263">
        <ele>73</ele>
        <time>2007-12-23T22:55:41Z</time>
      </trkpt>
      <trkpt lat="47.61293" lon="-2.16083">
        <ele>72</ele>
        <time>2007-12-23T22:56:29Z</time>
      </trkpt>
      <trkpt lat="47.61308" lon="-2.16048">
        <ele>72</ele>
        <time>2007-12-23T22:56:41Z</time>
      </trkpt>
      <trkpt lat="47.61339" lon="-2.1595">
        <ele>73</ele>
        <time>2007-12-23T22:57:10Z</time>
      </trkpt>
      <trkpt lat="47.61386" lon="-2.15727">
        <ele>75</ele>
        <time>2007-12-23T22:58:13Z</time>
      </trkpt>
      <trkpt lat="47.61619" lon="-2.15987">
        <ele>78</ele>
        <time>2007-12-23T23:00:10Z</time>
      </trkpt>
      <trkpt lat="47.61622" lon="-2.15801">
        <ele>79</ele>
        <time>2007-12-23T23:01:00Z</time>
      </trkpt>
      <trkpt lat="47.6163" lon="-2.15762">
        <ele>79</ele>
        <time>2007-12-23T23:01:11Z</time>
      </trkpt>
      <trkpt lat="47.61699" lon="-2.15617">
        <ele>78</ele>
        <time>2007-12-23T23:01:59Z</time>
      </trkpt>
      <trkpt lat="47.61774" lon="-2.15438">
        <ele>80</ele>
        <time>2007-12-23T23:02:55Z</time>
      </trkpt>
      <trkpt lat="47.61789" lon="-2.15399">
        <ele>80</ele>
        <time>2007-12-23T23:03:08Z</time>
      </trkpt>
      <trkpt lat="47.61837" lon="-2.1526">
        <ele>79</ele>
        <time>2007-12-23T23:03:50Z</time>
      </trkpt>
      <trkpt lat="47.61887" lon="-2.15111">
        <ele>79</ele>
        <time>2007-12-23T23:04:35Z</time>
      </trkpt>
      <trkpt lat="47.61968" lon="-2.14765">
        <ele>75</ele>
        <time>2007-12-23T23:06:13Z</time>
      </trkpt>
      <trkpt lat="47.61958" lon="-2.14638">
        <ele>74</ele>
        <time>2007-12-23T23:06:48Z</time>
      </trkpt>
      <trkpt lat="47.61974" lon="-2.14515">
        <ele>70</ele>
        <time>2007-12-23T23:07:22Z</time>
      </trkpt>
      <trkpt lat="47.61984" lon="-2.14426">
        <ele>66</ele>
        <time>2007-12-23T23:07:46Z</time>
      </trkpt>
      <trkpt lat="47.61991" lon="-2.14294">
        <ele>56</ele>
        <time>2007-12-23T23:08:22Z</time>
      </trkpt>
      <trkpt lat="47.62011" lon="-2.14146">
        <ele>45</ele>
        <time>2007-12-23T23:09:03Z</time>
      </trkpt>
      <trkpt lat="47.61986" lon="-2.14084">
        <ele>44</ele>
        <time>2007-12-23T23:09:22Z</time>
      </trkpt>
      <trkpt lat="47.6201" lon="-2.13878">
        <ele>40</ele>
        <time>2007-12-23T23:10:18Z</time>
      </trkpt>
      <trkpt lat="47.62026" lon="-2.13847">
        <ele>39</ele>
        <time>2007-12-23T23:10:29Z</time>
      </trkpt>
      <trkpt lat="47.62072" lon="-2.13587">
        <ele>37</ele>
        <time>2007-12-23T23:11:42Z</time>
      </trkpt>
      <trkpt lat="47.62074" lon="-2.13558">
        <ele>36</ele>
        <time>2007-12-23T23:11:50Z</time>
      </trkpt>
      <trkpt lat="47.6203" lon="-2.13167">
        <ele>44</ele>
        <time>2007-12-23T23:13:36Z</time>
      </trkpt>
      <trkpt lat="47.62035" lon="-2.13089">
        <ele>45</ele>
        <time>2007-12-23T23:13:58Z</time>
      </trkpt>
      <trkpt lat="47.62069" lon="-2.12964">
        <ele>42</ele>
        <time>2007-12-23T23:14:34Z</time>
      </trkpt>
      <trkpt lat="47.62093" lon="-2.12836">
        <ele>37</ele>
        <time>2007-12-23T23:15:10Z</time>
      </trkpt>
      <trkpt lat="47.62101" lon="-2.12594">
        <ele>36</ele>
        <time>2007-12-23T23:16:15Z</time>
      </trkpt>
      <trkpt lat="47.62099" lon="-2.12421">
        <ele>33</ele>
        <time>2007-12-23T23:17:02Z</time>
      </trkpt>
      <trkpt lat="47.62114" lon="-2.12405">
        <ele>32</ele>
        <time>2007-12-23T23:17:09Z</time>
      </trkpt>
      <trkpt lat="47.62196" lon="-2.12373">
        <ele>27</ele>
        <time>2007-12-23T23:17:43Z</time>
      </trkpt>
      <trkpt lat="47.62212" lon="-2.12316">
        <ele>25</ele>
        <time>2007-12-23T23:18:00Z</time>
      </trkpt>
      <trkpt lat="47.62214" lon="-2.12187">
        <ele>23</ele>
        <time>2007-12-23T23:18:35Z</time>
      </trkpt>
      <trkpt lat="47.62181" lon="-2.12177">
        <ele>24</ele>
        <time>2007-12-23T23:18:48Z</time>
      </trkpt>
      <trkpt lat="47.62147" lon="-2.12171">
        <ele>25</ele>
        <time>2007-12-23T23:19:02Z</time>
      </trkpt>
      <trkpt lat="47.62102" lon="-2.12184">
        <ele>27</ele>
        <time>2007-12-23T23:19:20Z</time>
      </trkpt>
      <trkpt lat="47.62057" lon="-2.12183">
        <ele>30</ele>
        <time>2007-12-23T23:19:38Z</time>
      </trkpt>
      <trkpt lat="47.62031" lon="-2.12158">
        <ele>32</ele>
        <time>2007-12-23T23:19:51Z</time>
      </trkpt>
      <trkpt lat="47.62003" lon="-2.12126">
        <ele>35</ele>
        <time>2007-12-23T23:20:05Z</time>
      </trkpt>
      <trkpt lat="47.61985" lon="-2.12058">
        <ele>37</ele>
        <time>2007-12-23T23:20:25Z</time>
      </trkpt>
      <trkpt lat="47.61967" lon="-2.12013">
        <ele>41</ele>
        <time>2007-12-23T23:20:39Z</time>
      </trkpt>
      <trkpt lat="47.61955" lon="-2.11956">
        <ele>42</ele>
        <time>2007-12-23T23:20:55Z</time>
      </trkpt>
      <trkpt lat="47.61959" lon="-2.11912">
        <ele>40</ele>
        <time>2007-12-23T23:21:07Z</time>
      </trkpt>
      <trkpt lat="47.6198" lon="-2.11848">
        <ele>35</ele>
        <time>2007-12-23T23:21:26Z</time>
      </trkpt>
      <trkpt lat="47.61981" lon="-2.11757">
        <ele>32</ele>
        <time>2007-12-23T23:21:51Z</time>
      </trkpt>
      <trkpt lat="47.61982" lon="-2.11715">
        <ele>30</ele>
        <time>2007-12-23T23:22:02Z</time>
      </trkpt>
      <trkpt lat="47.61973" lon="-2.11674">
        <ele>27</ele>
        <time>2007-12-23T23:22:14Z</time>
      </trkpt>
      <trkpt lat="47.62" lon="-2.1166">
        <ele>26</ele>
        <time>2007-12-23T23:22:25Z</time>
      </trkpt>
      <trkpt lat="47.62033" lon="-2.11626">
        <ele>25</ele>
        <time>2007-12-23T23:22:41Z</time>
      </trkpt>
      <trkpt lat="47.62075" lon="-2.11636">
        <ele>26</ele>
        <time>2007-12-23T23:22:58Z</time>
      </trkpt>
      <trkpt lat="47.62151" lon="-2.11612">
        <ele>25</ele>
        <time>2007-12-23T23:23:29Z</time>
      </trkpt>
      <trkpt lat="47.62078" lon="-2.11403">
        <ele>17</ele>
        <time>2007-12-23T23:24:33Z</time>
      </trkpt>
      <trkpt lat="47.62048" lon="-2.1129">
        <ele>14</ele>
        <time>2007-12-23T23:25:05Z</time>
      </trkpt>
      <trkpt lat="47.62002" lon="-2.11297">
        <ele>14</ele>
        <time>2007-12-23T23:25:24Z</time>
      </trkpt>
      <trkpt lat="47.61931" lon="-2.11274">
        <ele>13</ele>
        <time>2007-12-23T23:25:53Z</time>
      </trkpt>
      <trkpt lat="47.61778" lon="-2.11221">
        <ele>11</ele>
        <time>2007-12-23T23:26:56Z</time>
      </trkpt>
      <trkpt lat="47.61774" lon="-2.11018">
        <ele>10</ele>
        <time>2007-12-23T23:27:51Z</time>
      </trkpt>
      <trkpt lat="47.61778" lon="-2.10934">
        <ele>9</ele>
        <time>2007-12-23T23:28:13Z</time>
      </trkpt>
      <trkpt lat="47.61753" lon="-2.10886">
        <ele>8</ele>
        <time>2007-12-23T23:28:30Z</time>
      </trkpt>
      <trkpt lat="47.61784" lon="-2.10878">
        <ele>8</ele>
        <time>2007-12-23T23:28:43Z</time>
      </trkpt>
      <trkpt lat="47.61889" lon="-2.10877">
        <ele>8</ele>
        <time>2007-12-23T23:29:24Z</time>
      </trkpt>
      <trkpt lat="47.61883" lon="-2.1073">
        <ele>7</ele>
        <time>2007-12-23T23:30:04Z</time>
      </trkpt>
      <trkpt lat="47.61866" lon="-2.10712">
        <ele>7</ele>
        <time>2007-12-23T23:30:13Z</time>
      </trkpt>
      <trkpt lat="47.61853" lon="-2.10695">
        <ele>7</ele>
        <time>2007-12-23T23:30:19Z</time>
      </trkpt>
      <trkpt lat="47.61816" lon="-2.10421">
        <ele>7</ele>
        <time>2007-12-23T23:31:35Z</time>
      </trkpt>
      <trkpt lat="47.61847" lon="-2.10428">
        <ele>7</ele>
        <time>2007-12-23T23:31:47Z</time>
      </trkpt>
      <trkpt lat="47.61963" lon="-2.10517">
        <ele>6</ele>
        <time>2007-12-23T23:32:40Z</time>
      </trkpt>
      <trkpt lat="47.62031" lon="-2.1051">
        <ele>5</ele>
        <time>2007-12-23T23:33:07Z</time>
      </trkpt>
      <trkpt lat="47.62081" lon="-2.10354">
        <ele>5</ele>
        <time>2007-12-23T23:33:53Z</time>
      </trkpt>
      <trkpt lat="47.62097" lon="-2.10482">
        <ele>5</ele>
        <time>2007-12-23T23:34:28Z</time>
      </trkpt>
      <trkpt lat="47.62075" lon="-2.1059">
        <ele>5</ele>
        <time>2007-12-23T23:34:59Z</time>
      </trkpt>
      <trkpt lat="47.62189" lon="-2.10673">
        <ele>6</ele>
        <time>2007-12-23T23:35:50Z</time>
      </trkpt>
      <trkpt lat="47.62209" lon="-2.10785">
        <ele>5</ele>
        <time>2007-12-23T23:36:21Z</time>
      </trkpt>
      <trkpt lat="47.6222" lon="-2.10808">
        <ele>5</ele>
        <time>2007-12-23T23:36:29Z</time>
      </trkpt>
      <trkpt lat="47.62313" lon="-2.10783">
        <ele>4</ele>
        <time>2007-12-23T23:37:07Z</time>
      </trkpt>
      <trkpt lat="47.62319" lon="-2.108">
        <ele>4</ele>
        <time>2007-12-23T23:37:12Z</time>
      </trkpt>
      <trkpt lat="47.62426" lon="-2.10769">
        <ele>6</ele>
        <time>2007-12-23T23:37:55Z</time>
      </trkpt>
      <trkpt lat="47.62603" lon="-2.10674">
        <ele>14</ele>
        <time>2007-12-23T23:39:11Z</time>
      </trkpt>
      <trkpt lat="47.62758" lon="-2.10614">
        <ele>19</ele>
        <time>2007-12-23T23:40:15Z</time>
      </trkpt>
      <trkpt lat="47.62859" lon="-2.10593">
        <ele>21</ele>
        <time>2007-12-23T23:40:56Z</time>
      </trkpt>
      <trkpt lat="47.62852" lon="-2.10758">
        <ele>40</ele>
        <time>2007-12-23T23:41:40Z</time>
      </trkpt>
      <trkpt lat="47.62851" lon="-2.10788">
        <ele>44</ele>
        <time>2007-12-23T23:41:49Z</time>
      </trkpt>
      <trkpt lat="47.62849" lon="-2.10844">
        <ele>52</ele>
        <time>2007-12-23T23:42:04Z</time>
      </trkpt>
      <trkpt lat="47.62847" lon="-2.10895">
        <ele>58</ele>
        <time>2007-12-23T23:42:17Z</time>
      </trkpt>
      <trkpt lat="47.62845" lon="-2.1096">
        <ele>66</ele>
        <time>2007-12-23T23:42:35Z</time>
      </trkpt>
      <trkpt lat="47.62826" lon="-2.11019">
        <ele>70</ele>
        <time>2007-12-23T23:42:52Z</time>
      </trkpt>
      <trkpt lat="47.62814" lon="-2.11091">
        <ele>72</ele>
        <time>2007-12-23T23:43:13Z</time>
      </trkpt>
      <trkpt lat="47.62806" lon="-2.11154">
        <ele>72</ele>
        <time>2007-12-23T23:43:30Z</time>
      </trkpt>
      <trkpt lat="47.62815" lon="-2.11198">
        <ele>70</ele>
        <time>2007-12-23T23:43:42Z</time>
      </trkpt>
      <trkpt lat="47.62857" lon="-2.11202">
        <ele>72</ele>
        <time>2007-12-23T23:43:59Z</time>
      </trkpt>
      <trkpt lat="47.62901" lon="-2.11205">
        <ele>74</ele>
        <time>2007-12-23T23:44:17Z</time>
      </trkpt>
      <trkpt lat="47.62958" lon="-2.1122">
        <ele>75</ele>
        <time>2007-12-23T23:44:40Z</time>
      </trkpt>
      <trkpt lat="47.6301" lon="-2.11205">
        <ele>76</ele>
        <time>2007-12-23T23:45:01Z</time>
      </trkpt>
      <trkpt lat="47.63064" lon="-2.11209">
        <ele>76</ele>
        <time>2007-12-23T23:45:23Z</time>
      </trkpt>
      <trkpt lat="47.63089" lon="-2.11221">
        <ele>76</ele>
        <time>2007-12-23T23:45:33Z</time>
      </trkpt>
      <trkpt lat="47.63158" lon="-2.11237">
        <ele>76</ele>
        <time>2007-12-23T23:46:01Z</time>
      </trkpt>
      <trkpt lat="47.63245" lon="-2.11228">
        <ele>77</ele>
        <time>2007-12-23T23:46:36Z</time>
      </trkpt>
      <trkpt lat="47.63267" lon="-2.11109">
        <ele>75</ele>
        <time>2007-12-23T23:47:09Z</time>
      </trkpt>
      <trkpt lat="47.63286" lon="-2.10891">
        <ele>62</ele>
        <time>2007-12-23T23:48:08Z</time>
      </trkpt>
      <trkpt lat="47.63312" lon="-2.1082">
        <ele>59</ele>
        <time>2007-12-23T23:48:30Z</time>
      </trkpt>
      <trkpt lat="47.63412" lon="-2.10832">
        <ele>55</ele>
        <time>2007-12-23T23:49:10Z</time>
      </trkpt>
      <trkpt lat="47.63376" lon="-2.10622">
        <ele>36</ele>
        <time>2007-12-23T23:50:09Z</time>
      </trkpt>
      <trkpt lat="47.63352" lon="-2.10536">
        <ele>26</ele>
        <time>2007-12-23T23:50:34Z</time>
      </trkpt>
      <trkpt lat="47.63327" lon="-2.10485">
        <ele>18</ele>
        <time>2007-12-23T23:50:51Z</time>
      </trkpt>
      <trkpt lat="47.6331" lon="-2.1045">
        <ele>14</ele>
        <time>2007-12-23T23:51:03Z</time>
      </trkpt>
      <trkpt lat="47.63323" lon="-2.10217">
        <ele>3</ele>
        <time>2007-12-23T23:52:06Z</time>
      </trkpt>
      <trkpt lat="47.63473" lon="-2.1037">
        <ele>7</ele>
        <time>2007-12-23T23:53:19Z</time>
      </trkpt>
      <trkpt lat="47.6353" lon="-2.10228">
        <ele>3</ele>
        <time>2007-12-23T23:54:03Z</time>
      </trkpt>
      <trkpt lat="47.63514" lon="-2.1017">
        <ele>3</ele>
        <time>2007-12-23T23:54:20Z</time>
      </trkpt>
      <trkpt lat="47.63495" lon="-2.10136">
        <ele>3</ele>
        <time>2007-12-23T23:54:32Z</time>
      </trkpt>
      <trkpt lat="47.63442" lon="-2.10067">
        <ele>3</ele>
        <time>2007-12-23T23:55:01Z</time>
      </trkpt>
      <trkpt lat="47.63365" lon="-2.09905">
        <ele>3</ele>
        <time>2007-12-23T23:55:54Z</time>
      </trkpt>
      <trkpt lat="47.63383" lon="-2.09883">
        <ele>3</ele>
        <time>2007-12-23T23:56:04Z</time>
      </trkpt>
      <trkpt lat="47.63405" lon="-2.09858">
        <ele>3</ele>
        <time>2007-12-23T23:56:15Z</time>
      </trkpt>
      <trkpt lat="47.63542" lon="-2.0968">
        <ele>3</ele>
        <time>2007-12-23T23:57:28Z</time>
      </trkpt>
      <trkpt lat="47.63655" lon="-2.09542">
        <ele>3</ele>
        <time>2007-12-23T23:58:26Z</time>
      </trkpt>
      <trkpt lat="47.6371" lon="-2.0965">
        <ele>3</ele>
        <time>2007-12-23T23:59:03Z</time>
      </trkpt>
      <trkpt lat="47.63784" lon="-2.09433">
        <ele>3</ele>
        <time>2007-12-24T00:00:08Z</time>
      </trkpt>
      <trkpt lat="47.63741" lon="-2.0937">
        <ele>3</ele>
        <time>2007-12-24T00:00:32Z</time>
      </trkpt>
      <trkpt lat="47.63755" lon="-2.09338">
        <ele>3</ele>
        <time>2007-12-24T00:00:43Z</time>
      </trkpt>
      <trkpt lat="47.63768" lon="-2.09315">
        <ele>3</ele>
        <time>2007-12-24T00:00:51Z</time>
      </trkpt>
      <trkpt lat="47.63832" lon="-2.09278">
        <ele>3</ele>
        <time>2007-12-24T00:01:18Z</time>
      </trkpt>
      <trkpt lat="47.63862" lon="-2.09269">
        <ele>3</ele>
        <time>2007-12-24T00:01:30Z</time>
      </trkpt>
      <trkpt lat="47.63906" lon="-2.09247">
        <ele>3</ele>
        <time>2007-12-24T00:01:49Z</time>
      </trkpt>
      <trkpt lat="47.63955" lon="-2.09195">
        <ele>3</ele>
        <time>2007-12-24T00:02:13Z</time>
      </trkpt>
      <trkpt lat="47.63981" lon="-2.0917">
        <ele>3</ele>
        <time>2007-12-24T00:02:26Z</time>
      </trkpt>
      <trkpt lat="47.64081" lon="-2.09168">
        <ele>3</ele>
        <time>2007-12-24T00:03:06Z</time>
      </trkpt>
      <trkpt lat="47.64161" lon="-2.09158">
        <ele>4</ele>
        <time>2007-12-24T00:03:38Z</time>
      </trkpt>
      <trkpt lat="47.64237" lon="-2.09131">
        <ele>4</ele>
        <time>2007-12-24T00:04:09Z</time>
      </trkpt>
      <trkpt lat="47.64336" lon="-2.09096">
        <ele>5</ele>
        <time>2007-12-24T00:04:50Z</time>
      </trkpt>
      <trkpt lat="47.64433" lon="-2.09044">
        <ele>4</ele>
        <time>2007-12-24T00:05:31Z</time>
      </trkpt>
      <trkpt lat="47.64505" lon="-2.09004">
        <ele>4</ele>
        <time>2007-12-24T00:06:02Z</time>
      </trkpt>
      <trkpt lat="47.6453" lon="-2.08989">
        <ele>5</ele>
        <time>2007-12-24T00:06:13Z</time>
      </trkpt>
      <trkpt lat="47.64662" lon="-2.08893">
        <ele>4</ele>
        <time>2007-12-24T00:07:12Z</time>
      </trkpt>
      <trkpt lat="47.64778" lon="-2.0882">
        <ele>4</ele>
        <time>2007-12-24T00:08:02Z</time>
      </trkpt>
      <trkpt lat="47.64848" lon="-2.08765">
        <ele>5</ele>
        <time>2007-12-24T00:08:34Z</time>
      </trkpt>
      <trkpt lat="47.64878" lon="-2.08768">
        <ele>6</ele>
        <time>2007-12-24T00:08:46Z</time>
      </trkpt>
      <trkpt lat="47.6499" lon="-2.09145">
        <ele>10</ele>
        <time>2007-12-24T00:10:37Z</time>
      </trkpt>
      <trkpt lat="47.65065" lon="-2.09363">
        <ele>10</ele>
        <time>2007-12-24T00:11:43Z</time>
      </trkpt>
      <trkpt lat="47.65111" lon="-2.0933">
        <ele>10</ele>
        <time>2007-12-24T00:12:03Z</time>
      </trkpt>
      <trkpt lat="47.65093" lon="-2.09292">
        <ele>10</ele>
        <time>2007-12-24T00:12:16Z</time>
      </trkpt>
      <trkpt lat="47.6493" lon="-2.08789">
        <ele>7</ele>
        <time>2007-12-24T00:14:46Z</time>
      </trkpt>
      <trkpt lat="47.64904" lon="-2.08684">
        <ele>6</ele>
        <time>2007-12-24T00:15:16Z</time>
      </trkpt>
      <trkpt lat="47.65083" lon="-2.08598">
        <ele>8</ele>
        <time>2007-12-24T00:16:32Z</time>
      </trkpt>
      <trkpt lat="47.65072" lon="-2.08537">
        <ele>9</ele>
        <time>2007-12-24T00:16:49Z</time>
      </trkpt>
      <trkpt lat="47.65033" lon="-2.08487">
        <ele>10</ele>
        <time>2007-12-24T00:17:09Z</time>
      </trkpt>
      <trkpt lat="47.65075" lon="-2.08457">
        <ele>10</ele>
        <time>2007-12-24T00:17:28Z</time>
      </trkpt>
      <trkpt lat="47.65123" lon="-2.08385">
        <ele>12</ele>
        <time>2007-12-24T00:17:55Z</time>
      </trkpt>
      <trkpt lat="47.65104" lon="-2.0835">
        <ele>12</ele>
        <time>2007-12-24T00:18:07Z</time>
      </trkpt>
      <trkpt lat="47.65121" lon="-2.08389">
        <ele>12</ele>
        <time>2007-12-24T00:18:19Z</time>
      </trkpt>
      <trkpt lat="47.6509" lon="-2.08416">
        <ele>11</ele>
        <time>2007-12-24T00:18:33Z</time>
      </trkpt>
      <trkpt lat="47.65048" lon="-2.08475">
        <ele>10</ele>
        <time>2007-12-24T00:18:57Z</time>
      </trkpt>
      <trkpt lat="47.6501" lon="-2.08513">
        <ele>9</ele>
        <time>2007-12-24T00:19:15Z</time>
      </trkpt>
      <trkpt lat="47.64977" lon="-2.08554">
        <ele>8</ele>
        <time>2007-12-24T00:19:32Z</time>
      </trkpt>
      <trkpt lat="47.64922" lon="-2.08559">
        <ele>9</ele>
        <time>2007-12-24T00:19:54Z</time>
      </trkpt>
      <trkpt lat="47.64868" lon="-2.08568">
        <ele>7</ele>
        <time>2007-12-24T00:20:16Z</time>
      </trkpt>
      <trkpt lat="47.64841" lon="-2.08446">
        <ele>6</ele>
        <time>2007-12-24T00:20:50Z</time>
      </trkpt>
      <trkpt lat="47.64829" lon="-2.08407">
        <ele>3</ele>
        <time>2007-12-24T00:21:02Z</time>
      </trkpt>
      <trkpt lat="47.64815" lon="-2.08346">
        <ele>3</ele>
        <time>2007-12-24T00:21:19Z</time>
      </trkpt>
      <trkpt lat="47.64781" lon="-2.0824">
        <ele>3</ele>
        <time>2007-12-24T00:21:51Z</time>
      </trkpt>
      <trkpt lat="47.64757" lon="-2.08175">
        <ele>3</ele>
        <time>2007-12-24T00:22:11Z</time>
      </trkpt>
      <trkpt lat="47.64801" lon="-2.08135">
        <ele>3</ele>
        <time>2007-12-24T00:22:31Z</time>
      </trkpt>
      <trkpt lat="47.64848" lon="-2.08095">
        <ele>3</ele>
        <time>2007-12-24T00:22:53Z</time>
      </trkpt>
      <trkpt lat="47.64813" lon="-2.08009">
        <ele>3</ele>
        <time>2007-12-24T00:23:20Z</time>
      </trkpt>
      <trkpt lat="47.64812" lon="-2.0798">
        <ele>3</ele>
        <time>2007-12-24T00:23:28Z</time>
      </trkpt>
      <trkpt lat="47.6482" lon="-2.07937">
        <ele>3</ele>
        <time>2007-12-24T00:23:40Z</time>
      </trkpt>
      <trkpt lat="47.64826" lon="-2.07904">
        <ele>3</ele>
        <time>2007-12-24T00:23:49Z</time>
      </trkpt>
      <trkpt lat="47.64838" lon="-2.07885">
        <ele>3</ele>
        <time>2007-12-24T00:23:56Z</time>
      </trkpt>
      <trkpt lat="47.64895" lon="-2.07807">
        <ele>3</ele>
        <time>2007-12-24T00:24:27Z</time>
      </trkpt>
      <trkpt lat="47.64902" lon="-2.07793">
        <ele>3</ele>
        <time>2007-12-24T00:24:32Z</time>
      </trkpt>
      <trkpt lat="47.64878" lon="-2.07722">
        <ele>3</ele>
        <time>2007-12-24T00:24:53Z</time>
      </trkpt>
      <trkpt lat="47.64872" lon="-2.07685">
        <ele>4</ele>
        <time>2007-12-24T00:25:03Z</time>
      </trkpt>
      <trkpt lat="47.64862" lon="-2.07661">
        <ele>4</ele>
        <time>2007-12-24T00:25:11Z</time>
      </trkpt>
      <trkpt lat="47.64858" lon="-2.076">
        <ele>4</ele>
        <time>2007-12-24T00:25:28Z</time>
      </trkpt>
      <trkpt lat="47.6487" lon="-2.07561">
        <ele>4</ele>
        <time>2007-12-24T00:25:39Z</time>
      </trkpt>
      <trkpt lat="47.64892" lon="-2.0751">
        <ele>4</ele>
        <time>2007-12-24T00:25:55Z</time>
      </trkpt>
      <trkpt lat="47.64911" lon="-2.07438">
        <ele>4</ele>
        <time>2007-12-24T00:26:16Z</time>
      </trkpt>
      <trkpt lat="47.64958" lon="-2.07385">
        <ele>4</ele>
        <time>2007-12-24T00:26:40Z</time>
      </trkpt>
      <trkpt lat="47.64949" lon="-2.07334">
        <ele>4</ele>
        <time>2007-12-24T00:26:54Z</time>
      </trkpt>
      <trkpt lat="47.6495" lon="-2.07257">
        <ele>4</ele>
        <time>2007-12-24T00:27:15Z</time>
      </trkpt>
      <trkpt lat="47.64938" lon="-2.07207">
        <ele>4</ele>
        <time>2007-12-24T00:27:29Z</time>
      </trkpt>
      <trkpt lat="47.64929" lon="-2.07092">
        <ele>3</ele>
        <time>2007-12-24T00:28:00Z</time>
      </trkpt>
      <trkpt lat="47.64927" lon="-2.07026">
        <ele>3</ele>
        <time>2007-12-24T00:28:18Z</time>
      </trkpt>
      <trkpt lat="47.64928" lon="-2.06935">
        <ele>3</ele>
        <time>2007-12-24T00:28:43Z</time>
      </trkpt>
      <trkpt lat="47.64944" lon="-2.06805">
        <ele>3</ele>
        <time>2007-12-24T00:29:19Z</time>
      </trkpt>
      <trkpt lat="47.64924" lon="-2.06782">
        <ele>3</ele>
        <time>2007-12-24T00:29:29Z</time>
      </trkpt>
      <trkpt lat="47.64905" lon="-2.06713">
        <ele>3</ele>
        <time>2007-12-24T00:29:49Z</time>
      </trkpt>
      <trkpt lat="47.64874" lon="-2.06625">
        <ele>4</ele>
        <time>2007-12-24T00:30:16Z</time>
      </trkpt>
      <trkpt lat="47.6485" lon="-2.06569">
        <ele>4</ele>
        <time>2007-12-24T00:30:34Z</time>
      </trkpt>
      <trkpt lat="47.64818" lon="-2.0651">
        <ele>5</ele>
        <time>2007-12-24T00:30:54Z</time>
      </trkpt>
      <trkpt lat="47.64783" lon="-2.06431">
        <ele>6</ele>
        <time>2007-12-24T00:31:20Z</time>
      </trkpt>
      <trkpt lat="47.64716" lon="-2.06339">
        <ele>10</ele>
        <time>2007-12-24T00:31:56Z</time>
      </trkpt>
      <trkpt lat="47.64701" lon="-2.06284">
        <ele>12</ele>
        <time>2007-12-24T00:32:12Z</time>
      </trkpt>
      <trkpt lat="47.64757" lon="-2.06211">
        <ele>12</ele>
        <time>2007-12-24T00:32:42Z</time>
      </trkpt>
      <trkpt lat="47.64786" lon="-2.06164">
        <ele>11</ele>
        <time>2007-12-24T00:32:59Z</time>
      </trkpt>
      <trkpt lat="47.64814" lon="-2.06077">
        <ele>12</ele>
        <time>2007-12-24T00:33:25Z</time>
      </trkpt>
      <trkpt lat="47.64855" lon="-2.05961">
        <ele>13</ele>
        <time>2007-12-24T00:34:00Z</time>
      </trkpt>
      <trkpt lat="47.6488" lon="-2.05815">
        <ele>16</ele>
        <time>2007-12-24T00:34:41Z</time>
      </trkpt>
      <trkpt lat="47.64894" lon="-2.05743">
        <ele>16</ele>
        <time>2007-12-24T00:35:01Z</time>
      </trkpt>
      <trkpt lat="47.64899" lon="-2.05678">
        <ele>16</ele>
        <time>2007-12-24T00:35:19Z</time>
      </trkpt>
      <trkpt lat="47.64881" lon="-2.05553">
        <ele>15</ele>
        <time>2007-12-24T00:35:53Z</time>
      </trkpt>
      <trkpt lat="47.64856" lon="-2.0544">
        <ele>16</ele>
        <time>2007-12-24T00:36:25Z</time>
      </trkpt>
      <trkpt lat="47.64842" lon="-2.05332">
        <ele>14</ele>
        <time>2007-12-24T00:36:55Z</time>
      </trkpt>
      <trkpt lat="47.64844" lon="-2.05272">
        <ele>15</ele>
        <time>2007-12-24T00:37:11Z</time>
      </trkpt>
      <trkpt lat="47.64799" lon="-2.05219">
        <ele>18</ele>
        <time>2007-12-24T00:37:34Z</time>
      </trkpt>
      <trkpt lat="47.64762" lon="-2.05189">
        <ele>19</ele>
        <time>2007-12-24T00:37:51Z</time>
      </trkpt>
      <trkpt lat="47.64731" lon="-2.05173">
        <ele>20</ele>
        <time>2007-12-24T00:38:04Z</time>
      </trkpt>
      <trkpt lat="47.64732" lon="-2.05151">
        <ele>21</ele>
        <time>2007-12-24T00:38:10Z</time>
      </trkpt>
      <trkpt lat="47.64736" lon="-2.05113">
        <ele>24</ele>
        <time>2007-12-24T00:38:21Z</time>
      </trkpt>
      <trkpt lat="47.64745" lon="-2.04991">
        <ele>35</ele>
        <time>2007-12-24T00:38:54Z</time>
      </trkpt>
      <trkpt lat="47.64751" lon="-2.04875">
        <ele>40</ele>
        <time>2007-12-24T00:39:25Z</time>
      </trkpt>
      <trkpt lat="47.64755" lon="-2.04792">
        <ele>44</ele>
        <time>2007-12-24T00:39:48Z</time>
      </trkpt>
      <trkpt lat="47.64766" lon="-2.04667">
        <ele>49</ele>
        <time>2007-12-24T00:40:22Z</time>
      </trkpt>
      <trkpt lat="47.64766" lon="-2.04536">
        <ele>53</ele>
        <time>2007-12-24T00:40:57Z</time>
      </trkpt>
      <trkpt lat="47.64773" lon="-2.04427">
        <ele>52</ele>
        <time>2007-12-24T00:41:26Z</time>
      </trkpt>
      <trkpt lat="47.64791" lon="-2.04428">
        <ele>51</ele>
        <time>2007-12-24T00:41:34Z</time>
      </trkpt>
      <trkpt lat="47.64816" lon="-2.0443">
        <ele>46</ele>
        <time>2007-12-24T00:41:44Z</time>
      </trkpt>
      <trkpt lat="47.6485" lon="-2.0446">
        <ele>37</ele>
        <time>2007-12-24T00:42:00Z</time>
      </trkpt>
      <trkpt lat="47.6487" lon="-2.04478">
        <ele>34</ele>
        <time>2007-12-24T00:42:09Z</time>
      </trkpt>
      <trkpt lat="47.6492" lon="-2.04472">
        <ele>27</ele>
        <time>2007-12-24T00:42:29Z</time>
      </trkpt>
      <trkpt lat="47.64921" lon="-2.04436">
        <ele>29</ele>
        <time>2007-12-24T00:42:39Z</time>
      </trkpt>
      <trkpt lat="47.6494" lon="-2.0441">
        <ele>29</ele>
        <time>2007-12-24T00:42:49Z</time>
      </trkpt>
      <trkpt lat="47.64946" lon="-2.04418">
        <ele>29</ele>
        <time>2007-12-24T00:42:52Z</time>
      </trkpt>
      <trkpt lat="47.64975" lon="-2.0444">
        <ele>30</ele>
        <time>2007-12-24T00:43:05Z</time>
      </trkpt>
      <trkpt lat="47.65027" lon="-2.04454">
        <ele>34</ele>
        <time>2007-12-24T00:43:26Z</time>
      </trkpt>
      <trkpt lat="47.65094" lon="-2.04453">
        <ele>36</ele>
        <time>2007-12-24T00:43:53Z</time>
      </trkpt>
      <trkpt lat="47.65163" lon="-2.0446">
        <ele>36</ele>
        <time>2007-12-24T00:44:21Z</time>
      </trkpt>
      <trkpt lat="47.65268" lon="-2.04438">
        <ele>38</ele>
        <time>2007-12-24T00:45:03Z</time>
      </trkpt>
      <trkpt lat="47.65343" lon="-2.04411">
        <ele>40</ele>
        <time>2007-12-24T00:45:34Z</time>
      </trkpt>
      <trkpt lat="47.65339" lon="-2.0435">
        <ele>44</ele>
        <time>2007-12-24T00:45:51Z</time>
      </trkpt>
      <trkpt lat="47.65323" lon="-2.04289">
        <ele>50</ele>
        <time>2007-12-24T00:46:08Z</time>
      </trkpt>
      <trkpt lat="47.65311" lon="-2.04245">
        <ele>54</ele>
        <time>2007-12-24T00:46:21Z</time>
      </trkpt>
      <trkpt lat="47.65287" lon="-2.04103">
        <ele>64</ele>
        <time>2007-12-24T00:47:01Z</time>
      </trkpt>
      <trkpt lat="47.65275" lon="-2.04055">
        <ele>69</ele>
        <time>2007-12-24T00:47:14Z</time>
      </trkpt>
      <trkpt lat="47.65268" lon="-2.04018">
        <ele>71</ele>
        <time>2007-12-24T00:47:25Z</time>
      </trkpt>
      <trkpt lat="47.65256" lon="-2.03957">
        <ele>71</ele>
        <time>2007-12-24T00:47:42Z</time>
      </trkpt>
      <trkpt lat="47.65245" lon="-2.03899">
        <ele>71</ele>
        <time>2007-12-24T00:47:58Z</time>
      </trkpt>
      <trkpt lat="47.65229" lon="-2.03801">
        <ele>71</ele>
        <time>2007-12-24T00:48:26Z</time>
      </trkpt>
      <trkpt lat="47.65216" lon="-2.03733">
        <ele>70</ele>
        <time>2007-12-24T00:48:45Z</time>
      </trkpt>
      <trkpt lat="47.65237" lon="-2.03695">
        <ele>69</ele>
        <time>2007-12-24T00:48:58Z</time>
      </trkpt>
      <trkpt lat="47.65297" lon="-2.03721">
        <ele>69</ele>
        <time>2007-12-24T00:49:23Z</time>
      </trkpt>
      <trkpt lat="47.65353" lon="-2.03718">
        <ele>69</ele>
        <time>2007-12-24T00:49:45Z</time>
      </trkpt>
      <trkpt lat="47.65362" lon="-2.03718">
        <ele>69</ele>
        <time>2007-12-24T00:49:49Z</time>
      </trkpt>
      <trkpt lat="47.65384" lon="-2.03698">
        <ele>68</ele>
        <time>2007-12-24T00:49:59Z</time>
      </trkpt>
      <trkpt lat="47.6541" lon="-2.03653">
        <ele>67</ele>
        <time>2007-12-24T00:50:15Z</time>
      </trkpt>
      <trkpt lat="47.65436" lon="-2.03614">
        <ele>61</ele>
        <time>2007-12-24T00:50:30Z</time>
      </trkpt>
      <trkpt lat="47.65445" lon="-2.03576">
        <ele>56</ele>
        <time>2007-12-24T00:50:41Z</time>
      </trkpt>
      <trkpt lat="47.65428" lon="-2.03531">
        <ele>56</ele>
        <time>2007-12-24T00:50:55Z</time>
      </trkpt>
      <trkpt lat="47.65388" lon="-2.03505">
        <ele>57</ele>
        <time>2007-12-24T00:51:12Z</time>
      </trkpt>
      <trkpt lat="47.65359" lon="-2.03443">
        <ele>55</ele>
        <time>2007-12-24T00:51:33Z</time>
      </trkpt>
      <trkpt lat="47.65329" lon="-2.03473">
        <ele>57</ele>
        <time>2007-12-24T00:51:47Z</time>
      </trkpt>
      <trkpt lat="47.65323" lon="-2.03453">
        <ele>56</ele>
        <time>2007-12-24T00:51:53Z</time>
      </trkpt>
      <trkpt lat="47.65328" lon="-2.03333">
        <ele>51</ele>
        <time>2007-12-24T00:52:25Z</time>
      </trkpt>
      <trkpt lat="47.65311" lon="-2.03232">
        <ele>47</ele>
        <time>2007-12-24T00:52:53Z</time>
      </trkpt>
      <trkpt lat="47.65315" lon="-2.03174">
        <ele>44</ele>
        <time>2007-12-24T00:53:09Z</time>
      </trkpt>
      <trkpt lat="47.65339" lon="-2.03137">
        <ele>43</ele>
        <time>2007-12-24T00:53:23Z</time>
      </trkpt>
      <trkpt lat="47.65334" lon="-2.0308">
        <ele>39</ele>
        <time>2007-12-24T00:53:39Z</time>
      </trkpt>
      <trkpt lat="47.65343" lon="-2.03043">
        <ele>37</ele>
        <time>2007-12-24T00:53:49Z</time>
      </trkpt>
      <trkpt lat="47.65345" lon="-2.03001">
        <ele>35</ele>
        <time>2007-12-24T00:54:00Z</time>
      </trkpt>
      <trkpt lat="47.6534" lon="-2.02948">
        <ele>33</ele>
        <time>2007-12-24T00:54:15Z</time>
      </trkpt>
      <trkpt lat="47.65352" lon="-2.02918">
        <ele>32</ele>
        <time>2007-12-24T00:54:24Z</time>
      </trkpt>
      <trkpt lat="47.6537" lon="-2.02873">
        <ele>37</ele>
        <time>2007-12-24T00:54:38Z</time>
      </trkpt>
      <trkpt lat="47.65409" lon="-2.02833">
        <ele>43</ele>
        <time>2007-12-24T00:54:57Z</time>
      </trkpt>
      <trkpt lat="47.65439" lon="-2.02813">
        <ele>46</ele>
        <time>2007-12-24T00:55:11Z</time>
      </trkpt>
      <trkpt lat="47.65481" lon="-2.02799">
        <ele>47</ele>
        <time>2007-12-24T00:55:28Z</time>
      </trkpt>
      <trkpt lat="47.65524" lon="-2.02779">
        <ele>43</ele>
        <time>2007-12-24T00:55:46Z</time>
      </trkpt>
      <trkpt lat="47.65537" lon="-2.02734">
        <ele>43</ele>
        <time>2007-12-24T00:55:59Z</time>
      </trkpt>
      <trkpt lat="47.65544" lon="-2.027">
        <ele>43</ele>
        <time>2007-12-24T00:56:09Z</time>
      </trkpt>
      <trkpt lat="47.6553" lon="-2.02606">
        <ele>47</ele>
        <time>2007-12-24T00:56:35Z</time>
      </trkpt>
      <trkpt lat="47.65527" lon="-2.02569">
        <ele>48</ele>
        <time>2007-12-24T00:56:45Z</time>
      </trkpt>
      <trkpt lat="47.65529" lon="-2.0253">
        <ele>48</ele>
        <time>2007-12-24T00:56:55Z</time>
      </trkpt>
      <trkpt lat="47.65515" lon="-2.02474">
        <ele>49</ele>
        <time>2007-12-24T00:57:11Z</time>
      </trkpt>
      <trkpt lat="47.65512" lon="-2.02438">
        <ele>50</ele>
        <time>2007-12-24T00:57:21Z</time>
      </trkpt>
      <trkpt lat="47.65519" lon="-2.02322">
        <ele>51</ele>
        <time>2007-12-24T00:57:52Z</time>
      </trkpt>
      <trkpt lat="47.6556" lon="-2.02306">
        <ele>49</ele>
        <time>2007-12-24T00:58:10Z</time>
      </trkpt>
      <trkpt lat="47.65565" lon="-2.02306">
        <ele>49</ele>
        <time>2007-12-24T00:58:11Z</time>
      </trkpt>
      <trkpt lat="47.65602" lon="-2.02305">
        <ele>48</ele>
        <time>2007-12-24T00:58:26Z</time>
      </trkpt>
      <trkpt lat="47.6565" lon="-2.02303">
        <ele>46</ele>
        <time>2007-12-24T00:58:46Z</time>
      </trkpt>
      <trkpt lat="47.65734" lon="-2.023">
        <ele>37</ele>
        <time>2007-12-24T00:59:19Z</time>
      </trkpt>
      <trkpt lat="47.65796" lon="-2.02305">
        <ele>30</ele>
        <time>2007-12-24T00:59:44Z</time>
      </trkpt>
      <trkpt lat="47.65797" lon="-2.02281">
        <ele>30</ele>
        <time>2007-12-24T00:59:50Z</time>
      </trkpt>
      <trkpt lat="47.65806" lon="-2.02272">
        <ele>29</ele>
        <time>2007-12-24T00:59:55Z</time>
      </trkpt>
      <trkpt lat="47.65818" lon="-2.0226">
        <ele>28</ele>
        <time>2007-12-24T01:00:01Z</time>
      </trkpt>
      <trkpt lat="47.6583" lon="-2.02231">
        <ele>26</ele>
        <time>2007-12-24T01:00:10Z</time>
      </trkpt>
      <trkpt lat="47.65848" lon="-2.02186">
        <ele>22</ele>
        <time>2007-12-24T01:00:24Z</time>
      </trkpt>
      <trkpt lat="47.65859" lon="-2.02127">
        <ele>19</ele>
        <time>2007-12-24T01:00:40Z</time>
      </trkpt>
      <trkpt lat="47.65876" lon="-2.02055">
        <ele>17</ele>
        <time>2007-12-24T01:01:01Z</time>
      </trkpt>
      <trkpt lat="47.6588" lon="-2.02008">
        <ele>18</ele>
        <time>2007-12-24T01:01:14Z</time>
      </trkpt>
      <trkpt lat="47.65881" lon="-2.01965">
        <ele>18</ele>
        <time>2007-12-24T01:01:25Z</time>
      </trkpt>
      <trkpt lat="47.65897" lon="-2.01953">
        <ele>19</ele>
        <time>2007-12-24T01:01:32Z</time>
      </trkpt>
      <trkpt lat="47.65912" lon="-2.01958">
        <ele>21</ele>
        <time>2007-12-24T01:01:39Z</time>
      </trkpt>
      <trkpt lat="47.6593" lon="-2.01979">
        <ele>22</ele>
        <time>2007-12-24T01:01:48Z</time>
      </trkpt>
      <trkpt lat="47.65925" lon="-2.01939">
        <ele>22</ele>
        <time>2007-12-24T01:01:58Z</time>
      </trkpt>
      <trkpt lat="47.65918" lon="-2.01878">
        <ele>23</ele>
        <time>2007-12-24T01:02:15Z</time>
      </trkpt>
      <trkpt lat="47.65909" lon="-2.0181">
        <ele>24</ele>
        <time>2007-12-24T01:02:34Z</time>
      </trkpt>
      <trkpt lat="47.65901" lon="-2.01731">
        <ele>26</ele>
        <time>2007-12-24T01:02:56Z</time>
      </trkpt>
      <trkpt lat="47.65906" lon="-2.01651">
        <ele>28</ele>
        <time>2007-12-24T01:03:17Z</time>
      </trkpt>
      <trkpt lat="47.65908" lon="-2.01591">
        <ele>29</ele>
        <time>2007-12-24T01:03:33Z</time>
      </trkpt>
      <trkpt lat="47.6593" lon="-2.01502">
        <ele>30</ele>
        <time>2007-12-24T01:03:59Z</time>
      </trkpt>
      <trkpt lat="47.6594" lon="-2.01413">
        <ele>29</ele>
        <time>2007-12-24T01:04:23Z</time>
      </trkpt>
      <trkpt lat="47.65963" lon="-2.01402">
        <ele>31</ele>
        <time>2007-12-24T01:04:33Z</time>
      </trkpt>
      <trkpt lat="47.65991" lon="-2.01371">
        <ele>31</ele>
        <time>2007-12-24T01:04:47Z</time>
      </trkpt>
      <trkpt lat="47.66028" lon="-2.01347">
        <ele>32</ele>
        <time>2007-12-24T01:05:03Z</time>
      </trkpt>
      <trkpt lat="47.66039" lon="-2.01344">
        <ele>33</ele>
        <time>2007-12-24T01:05:08Z</time>
      </trkpt>
      <trkpt lat="47.6605" lon="-2.01346">
        <ele>33</ele>
        <time>2007-12-24T01:05:12Z</time>
      </trkpt>
      <trkpt lat="47.66085" lon="-2.01318">
        <ele>34</ele>
        <time>2007-12-24T01:05:28Z</time>
      </trkpt>
      <trkpt lat="47.66109" lon="-2.0129">
        <ele>33</ele>
        <time>2007-12-24T01:05:40Z</time>
      </trkpt>
      <trkpt lat="47.66148" lon="-2.01266">
        <ele>31</ele>
        <time>2007-12-24T01:05:57Z</time>
      </trkpt>
      <trkpt lat="47.66185" lon="-2.01243">
        <ele>29</ele>
        <time>2007-12-24T01:06:13Z</time>
      </trkpt>
      <trkpt lat="47.66229" lon="-2.01254">
        <ele>26</ele>
        <time>2007-12-24T01:06:31Z</time>
      </trkpt>
      <trkpt lat="47.66247" lon="-2.01355">
        <ele>24</ele>
        <time>2007-12-24T01:06:59Z</time>
      </trkpt>
      <trkpt lat="47.66289" lon="-2.01365">
        <ele>21</ele>
        <time>2007-12-24T01:07:16Z</time>
      </trkpt>
      <trkpt lat="47.66293" lon="-2.01302">
        <ele>22</ele>
        <time>2007-12-24T01:07:33Z</time>
      </trkpt>
      <trkpt lat="47.66309" lon="-2.0125">
        <ele>20</ele>
        <time>2007-12-24T01:07:48Z</time>
      </trkpt>
      <trkpt lat="47.66312" lon="-2.01181">
        <ele>19</ele>
        <time>2007-12-24T01:08:07Z</time>
      </trkpt>
      <trkpt lat="47.66315" lon="-2.01081">
        <ele>16</ele>
        <time>2007-12-24T01:08:34Z</time>
      </trkpt>
      <trkpt lat="47.66315" lon="-2.01017">
        <ele>14</ele>
        <time>2007-12-24T01:08:51Z</time>
      </trkpt>
      <trkpt lat="47.66325" lon="-2.00931">
        <ele>9</ele>
        <time>2007-12-24T01:09:15Z</time>
      </trkpt>
      <trkpt lat="47.66324" lon="-2.00898">
        <ele>7</ele>
        <time>2007-12-24T01:09:24Z</time>
      </trkpt>
      <trkpt lat="47.66337" lon="-2.00842">
        <ele>4</ele>
        <time>2007-12-24T01:09:40Z</time>
      </trkpt>
      <trkpt lat="47.66358" lon="-2.00774">
        <ele>6</ele>
        <time>2007-12-24T01:10:00Z</time>
      </trkpt>
      <trkpt lat="47.6639" lon="-2.0076">
        <ele>6</ele>
        <time>2007-12-24T01:10:13Z</time>
      </trkpt>
      <trkpt lat="47.66422" lon="-2.00752">
        <ele>6</ele>
        <time>2007-12-24T01:10:26Z</time>
      </trkpt>
      <trkpt lat="47.66461" lon="-2.00729">
        <ele>5</ele>
        <time>2007-12-24T01:10:43Z</time>
      </trkpt>
      <trkpt lat="47.66405" lon="-2.00661">
        <ele>10</ele>
        <time>2007-12-24T01:11:12Z</time>
      </trkpt>
      <trkpt lat="47.66371" lon="-2.00659">
        <ele>11</ele>
        <time>2007-12-24T01:11:26Z</time>
      </trkpt>
      <trkpt lat="47.66308" lon="-2.00669">
        <ele>12</ele>
        <time>2007-12-24T01:11:51Z</time>
      </trkpt>
      <trkpt lat="47.66306" lon="-2.00596">
        <ele>13</ele>
        <time>2007-12-24T01:12:11Z</time>
      </trkpt>
      <trkpt lat="47.66294" lon="-2.00502">
        <ele>14</ele>
        <time>2007-12-24T01:12:37Z</time>
      </trkpt>
      <trkpt lat="47.66281" lon="-2.00365">
        <ele>18</ele>
        <time>2007-12-24T01:13:14Z</time>
      </trkpt>
      <trkpt lat="47.66267" lon="-2.00233">
        <ele>19</ele>
        <time>2007-12-24T01:13:50Z</time>
      </trkpt>
      <trkpt lat="47.66247" lon="-2.00124">
        <ele>17</ele>
        <time>2007-12-24T01:14:20Z</time>
      </trkpt>
      <trkpt lat="47.66255" lon="-2.00035">
        <ele>18</ele>
        <time>2007-12-24T01:14:45Z</time>
      </trkpt>
      <trkpt lat="47.66291" lon="-2.00029">
        <ele>16</ele>
        <time>2007-12-24T01:14:59Z</time>
      </trkpt>
      <trkpt lat="47.66359" lon="-2.00017">
        <ele>10</ele>
        <time>2007-12-24T01:15:27Z</time>
      </trkpt>
      <trkpt lat="47.66436" lon="-1.99997">
        <ele>8</ele>
        <time>2007-12-24T01:15:58Z</time>
      </trkpt>
      <trkpt lat="47.6644" lon="-1.99944">
        <ele>9</ele>
        <time>2007-12-24T01:16:12Z</time>
      </trkpt>
      <trkpt lat="47.66444" lon="-1.9981">
        <ele>9</ele>
        <time>2007-12-24T01:16:48Z</time>
      </trkpt>
      <trkpt lat="47.66454" lon="-1.99716">
        <ele>8</ele>
        <time>2007-12-24T01:17:14Z</time>
      </trkpt>
      <trkpt lat="47.66466" lon="-1.99562">
        <ele>7</ele>
        <time>2007-12-24T01:17:56Z</time>
      </trkpt>
      <trkpt lat="47.66487" lon="-1.99564">
        <ele>6</ele>
        <time>2007-12-24T01:18:04Z</time>
      </trkpt>
      <trkpt lat="47.66497" lon="-1.99522">
        <ele>5</ele>
        <time>2007-12-24T01:18:16Z</time>
      </trkpt>
      <trkpt lat="47.66535" lon="-1.99542">
        <ele>4</ele>
        <time>2007-12-24T01:18:33Z</time>
      </trkpt>
      <trkpt lat="47.6656" lon="-1.99574">
        <ele>3</ele>
        <time>2007-12-24T01:18:46Z</time>
      </trkpt>
      <trkpt lat="47.66581" lon="-1.99639">
        <ele>3</ele>
        <time>2007-12-24T01:19:05Z</time>
      </trkpt>
      <trkpt lat="47.66584" lon="-1.9972">
        <ele>4</ele>
        <time>2007-12-24T01:19:27Z</time>
      </trkpt>
      <trkpt lat="47.66579" lon="-1.99785">
        <ele>4</ele>
        <time>2007-12-24T01:19:45Z</time>
      </trkpt>
      <trkpt lat="47.66569" lon="-1.99945">
        <ele>4</ele>
        <time>2007-12-24T01:20:28Z</time>
      </trkpt>
      <trkpt lat="47.66552" lon="-2.00049">
        <ele>4</ele>
        <time>2007-12-24T01:20:57Z</time>
      </trkpt>
      <trkpt lat="47.6656" lon="-2.00057">
        <ele>4</ele>
        <time>2007-12-24T01:21:01Z</time>
      </trkpt>
      <trkpt lat="47.6661" lon="-2.00062">
        <ele>2</ele>
        <time>2007-12-24T01:21:21Z</time>
      </trkpt>
      <trkpt lat="47.66659" lon="-2.00066">
        <ele>2</ele>
        <time>2007-12-24T01:21:41Z</time>
      </trkpt>
      <trkpt lat="47.66733" lon="-2.00085">
        <ele>2</ele>
        <time>2007-12-24T01:22:11Z</time>
      </trkpt>
      <trkpt lat="47.66837" lon="-2.00083">
        <ele>2</ele>
        <time>2007-12-24T01:22:52Z</time>
      </trkpt>
      <trkpt lat="47.67" lon="-2.00119">
        <ele>2</ele>
        <time>2007-12-24T01:23:58Z</time>
      </trkpt>
      <trkpt lat="47.67" lon="-2.00037">
        <ele>2</ele>
        <time>2007-12-24T01:24:21Z</time>
      </trkpt>
      <trkpt lat="47.67002" lon="-1.99977">
        <ele>2</ele>
        <time>2007-12-24T01:24:37Z</time>
      </trkpt>
      <trkpt lat="47.67006" lon="-1.99897">
        <ele>2</ele>
        <time>2007-12-24T01:24:58Z</time>
      </trkpt>
      <trkpt lat="47.6701" lon="-1.99797">
        <ele>2</ele>
        <time>2007-12-24T01:25:25Z</time>
      </trkpt>
      <trkpt lat="47.67009" lon="-1.99677">
        <ele>2</ele>
        <time>2007-12-24T01:25:58Z</time>
      </trkpt>
      <trkpt lat="47.67035" lon="-1.99603">
        <ele>4</ele>
        <time>2007-12-24T01:26:20Z</time>
      </trkpt>
      <trkpt lat="47.67129" lon="-1.99544">
        <ele>6</ele>
        <time>2007-12-24T01:27:01Z</time>
      </trkpt>
      <trkpt lat="47.67162" lon="-1.99506">
        <ele>6</ele>
        <time>2007-12-24T01:27:18Z</time>
      </trkpt>
      <trkpt lat="47.67172" lon="-1.99477">
        <ele>7</ele>
        <time>2007-12-24T01:27:27Z</time>
      </trkpt>
      <trkpt lat="47.67204" lon="-1.9948">
        <ele>5</ele>
        <time>2007-12-24T01:27:39Z</time>
      </trkpt>
      <trkpt lat="47.67246" lon="-1.99443">
        <ele>6</ele>
        <time>2007-12-24T01:27:59Z</time>
      </trkpt>
      <trkpt lat="47.67241" lon="-1.99386">
        <ele>11</ele>
        <time>2007-12-24T01:28:14Z</time>
      </trkpt>
      <trkpt lat="47.67213" lon="-1.9924">
        <ele>24</ele>
        <time>2007-12-24T01:28:55Z</time>
      </trkpt>
      <trkpt lat="47.67207" lon="-1.99143">
        <ele>24</ele>
        <time>2007-12-24T01:29:21Z</time>
      </trkpt>
      <trkpt lat="47.67195" lon="-1.98986">
        <ele>22</ele>
        <time>2007-12-24T01:30:04Z</time>
      </trkpt>
      <trkpt lat="47.67178" lon="-1.98821">
        <ele>21</ele>
        <time>2007-12-24T01:30:49Z</time>
      </trkpt>
      <trkpt lat="47.67163" lon="-1.98674">
        <ele>22</ele>
        <time>2007-12-24T01:31:29Z</time>
      </trkpt>
      <trkpt lat="47.67146" lon="-1.98535">
        <ele>23</ele>
        <time>2007-12-24T01:32:07Z</time>
      </trkpt>
      <trkpt lat="47.67197" lon="-1.98512">
        <ele>24</ele>
        <time>2007-12-24T01:32:28Z</time>
      </trkpt>
      <trkpt lat="47.67252" lon="-1.98484">
        <ele>25</ele>
        <time>2007-12-24T01:32:52Z</time>
      </trkpt>
      <trkpt lat="47.67324" lon="-1.98489">
        <ele>26</ele>
        <time>2007-12-24T01:33:20Z</time>
      </trkpt>
      <trkpt lat="47.67403" lon="-1.98478">
        <ele>26</ele>
        <time>2007-12-24T01:33:52Z</time>
      </trkpt>
      <trkpt lat="47.67433" lon="-1.98451">
        <ele>25</ele>
        <time>2007-12-24T01:34:06Z</time>
      </trkpt>
      <trkpt lat="47.67441" lon="-1.98615">
        <ele>22</ele>
        <time>2007-12-24T01:34:51Z</time>
      </trkpt>
      <trkpt lat="47.67474" lon="-1.98638">
        <ele>16</ele>
        <time>2007-12-24T01:35:05Z</time>
      </trkpt>
      <trkpt lat="47.6751" lon="-1.98628">
        <ele>11</ele>
        <time>2007-12-24T01:35:20Z</time>
      </trkpt>
      <trkpt lat="47.67524" lon="-1.98612">
        <ele>10</ele>
        <time>2007-12-24T01:35:27Z</time>
      </trkpt>
      <trkpt lat="47.67541" lon="-1.98584">
        <ele>11</ele>
        <time>2007-12-24T01:35:37Z</time>
      </trkpt>
      <trkpt lat="47.67569" lon="-1.98553">
        <ele>11</ele>
        <time>2007-12-24T01:35:51Z</time>
      </trkpt>
      <trkpt lat="47.67594" lon="-1.98535">
        <ele>10</ele>
        <time>2007-12-24T01:36:03Z</time>
      </trkpt>
      <trkpt lat="47.67642" lon="-1.98506">
        <ele>5</ele>
        <time>2007-12-24T01:36:23Z</time>
      </trkpt>
      <trkpt lat="47.67674" lon="-1.98461">
        <ele>5</ele>
        <time>2007-12-24T01:36:41Z</time>
      </trkpt>
      <trkpt lat="47.67719" lon="-1.98408">
        <ele>5</ele>
        <time>2007-12-24T01:37:04Z</time>
      </trkpt>
      <trkpt lat="47.67777" lon="-1.98343">
        <ele>5</ele>
        <time>2007-12-24T01:37:33Z</time>
      </trkpt>
      <trkpt lat="47.67809" lon="-1.98289">
        <ele>6</ele>
        <time>2007-12-24T01:37:52Z</time>
      </trkpt>
      <trkpt lat="47.67836" lon="-1.98261">
        <ele>6</ele>
        <time>2007-12-24T01:38:06Z</time>
      </trkpt>
      <trkpt lat="47.67877" lon="-1.98224">
        <ele>7</ele>
        <time>2007-12-24T01:38:25Z</time>
      </trkpt>
      <trkpt lat="47.67934" lon="-1.98179">
        <ele>6</ele>
        <time>2007-12-24T01:38:50Z</time>
      </trkpt>
      <trkpt lat="47.67953" lon="-1.98151">
        <ele>6</ele>
        <time>2007-12-24T01:39:01Z</time>
      </trkpt>
      <trkpt lat="47.67984" lon="-1.98119">
        <ele>5</ele>
        <time>2007-12-24T01:39:16Z</time>
      </trkpt>
      <trkpt lat="47.67994" lon="-1.98037">
        <ele>5</ele>
        <time>2007-12-24T01:39:39Z</time>
      </trkpt>
      <trkpt lat="47.67979" lon="-1.98046">
        <ele>6</ele>
        <time>2007-12-24T01:39:45Z</time>
      </trkpt>
      <trkpt lat="47.67901" lon="-1.98089">
        <ele>12</ele>
        <time>2007-12-24T01:40:18Z</time>
      </trkpt>
      <trkpt lat="47.67912" lon="-1.97977">
        <ele>12</ele>
        <time>2007-12-24T01:40:49Z</time>
      </trkpt>
      <trkpt lat="47.67916" lon="-1.97894">
        <ele>11</ele>
        <time>2007-12-24T01:41:11Z</time>
      </trkpt>
      <trkpt lat="47.67944" lon="-1.97852">
        <ele>7</ele>
        <time>2007-12-24T01:41:27Z</time>
      </trkpt>
      <trkpt lat="47.68003" lon="-1.97774">
        <ele>9</ele>
        <time>2007-12-24T01:41:59Z</time>
      </trkpt>
      <trkpt lat="47.68075" lon="-1.97903">
        <ele>4</ele>
        <time>2007-12-24T01:42:44Z</time>
      </trkpt>
      <trkpt lat="47.68114" lon="-1.9801">
        <ele>3</ele>
        <time>2007-12-24T01:43:17Z</time>
      </trkpt>
      <trkpt lat="47.681" lon="-1.98145">
        <ele>3</ele>
        <time>2007-12-24T01:43:54Z</time>
      </trkpt>
      <trkpt lat="47.68081" lon="-1.98397">
        <ele>2</ele>
        <time>2007-12-24T01:45:02Z</time>
      </trkpt>
      <trkpt lat="47.68063" lon="-1.98893">
        <ele>2</ele>
        <time>2007-12-24T01:47:16Z</time>
      </trkpt>
      <trkpt lat="47.68058" lon="-1.98965">
        <ele>2</ele>
        <time>2007-12-24T01:47:36Z</time>
      </trkpt>
      <trkpt lat="47.67973" lon="-1.99206">
        <ele>2</ele>
        <time>2007-12-24T01:48:49Z</time>
      </trkpt>
      <trkpt lat="47.67986" lon="-1.99253">
        <ele>3</ele>
        <time>2007-12-24T01:49:03Z</time>
      </trkpt>
      <trkpt lat="47.68249" lon="-1.99528">
        <ele>6</ele>
        <time>2007-12-24T01:51:11Z</time>
      </trkpt>
      <trkpt lat="47.68264" lon="-1.99496">
        <ele>7</ele>
        <time>2007-12-24T01:51:22Z</time>
      </trkpt>
      <trkpt lat="47.68254" lon="-1.99449">
        <ele>7</ele>
        <time>2007-12-24T01:51:35Z</time>
      </trkpt>
      <trkpt lat="47.68226" lon="-1.99366">
        <ele>6</ele>
        <time>2007-12-24T01:52:00Z</time>
      </trkpt>
      <trkpt lat="47.68173" lon="-1.99279">
        <ele>5</ele>
        <time>2007-12-24T01:52:32Z</time>
      </trkpt>
      <trkpt lat="47.68157" lon="-1.99221">
        <ele>4</ele>
        <time>2007-12-24T01:52:49Z</time>
      </trkpt>
      <trkpt lat="47.68156" lon="-1.9911">
        <ele>3</ele>
        <time>2007-12-24T01:53:18Z</time>
      </trkpt>
      <trkpt lat="47.68185" lon="-1.99067">
        <ele>3</ele>
        <time>2007-12-24T01:53:35Z</time>
      </trkpt>
      <trkpt lat="47.68315" lon="-1.99">
        <ele>4</ele>
        <time>2007-12-24T01:54:30Z</time>
      </trkpt>
      <trkpt lat="47.68439" lon="-1.9895">
        <ele>4</ele>
        <time>2007-12-24T01:55:21Z</time>
      </trkpt>
      <trkpt lat="47.68528" lon="-1.98918">
        <ele>3</ele>
        <time>2007-12-24T01:55:58Z</time>
      </trkpt>
      <trkpt lat="47.68609" lon="-1.98884">
        <ele>3</ele>
        <time>2007-12-24T01:56:31Z</time>
      </trkpt>
      <trkpt lat="47.68647" lon="-1.98877">
        <ele>4</ele>
        <time>2007-12-24T01:56:47Z</time>
      </trkpt>
      <trkpt lat="47.68739" lon="-1.98882">
        <ele>11</ele>
        <time>2007-12-24T01:57:24Z</time>
      </trkpt>
      <trkpt lat="47.68815" lon="-1.98884">
        <ele>19</ele>
        <time>2007-12-24T01:57:54Z</time>
      </trkpt>
      <trkpt lat="47.68898" lon="-1.98895">
        <ele>25</ele>
        <time>2007-12-24T01:58:28Z</time>
      </trkpt>
      <trkpt lat="47.68974" lon="-1.98921">
        <ele>31</ele>
        <time>2007-12-24T01:58:59Z</time>
      </trkpt>
      <trkpt lat="47.69053" lon="-1.98908">
        <ele>37</ele>
        <time>2007-12-24T01:59:31Z</time>
      </trkpt>
      <trkpt lat="47.69066" lon="-1.98818">
        <ele>32</ele>
        <time>2007-12-24T01:59:55Z</time>
      </trkpt>
      <trkpt lat="47.69091" lon="-1.98734">
        <ele>23</ele>
        <time>2007-12-24T02:00:20Z</time>
      </trkpt>
      <trkpt lat="47.69127" lon="-1.98686">
        <ele>19</ele>
        <time>2007-12-24T02:00:39Z</time>
      </trkpt>
      <trkpt lat="47.69165" lon="-1.98636">
        <ele>11</ele>
        <time>2007-12-24T02:01:00Z</time>
      </trkpt>
      <trkpt lat="47.692" lon="-1.98606">
        <ele>9</ele>
        <time>2007-12-24T02:01:16Z</time>
      </trkpt>
      <trkpt lat="47.69226" lon="-1.9858">
        <ele>7</ele>
        <time>2007-12-24T02:01:28Z</time>
      </trkpt>
      <trkpt lat="47.69262" lon="-1.98568">
        <ele>11</ele>
        <time>2007-12-24T02:01:43Z</time>
      </trkpt>
      <trkpt lat="47.69249" lon="-1.98593">
        <ele>14</ele>
        <time>2007-12-24T02:01:52Z</time>
      </trkpt>
      <trkpt lat="47.69233" lon="-1.98639">
        <ele>21</ele>
        <time>2007-12-24T02:02:06Z</time>
      </trkpt>
      <trkpt lat="47.69298" lon="-1.98758">
        <ele>43</ele>
        <time>2007-12-24T02:02:47Z</time>
      </trkpt>
      <trkpt lat="47.69317" lon="-1.98792">
        <ele>45</ele>
        <time>2007-12-24T02:02:59Z</time>
      </trkpt>
      <trkpt lat="47.69344" lon="-1.98831">
        <ele>46</ele>
        <time>2007-12-24T02:03:14Z</time>
      </trkpt>
      <trkpt lat="47.69364" lon="-1.98892">
        <ele>47</ele>
        <time>2007-12-24T02:03:32Z</time>
      </trkpt>
      <trkpt lat="47.69428" lon="-1.98884">
        <ele>41</ele>
        <time>2007-12-24T02:03:58Z</time>
      </trkpt>
      <trkpt lat="47.69471" lon="-1.98885">
        <ele>37</ele>
        <time>2007-12-24T02:04:15Z</time>
      </trkpt>
      <trkpt lat="47.69575" lon="-1.98916">
        <ele>29</ele>
        <time>2007-12-24T02:04:58Z</time>
      </trkpt>
      <trkpt lat="47.69639" lon="-1.98975">
        <ele>24</ele>
        <time>2007-12-24T02:05:28Z</time>
      </trkpt>
      <trkpt lat="47.6969" lon="-1.99049">
        <ele>25</ele>
        <time>2007-12-24T02:05:56Z</time>
      </trkpt>
      <trkpt lat="47.69821" lon="-1.99037">
        <ele>26</ele>
        <time>2007-12-24T02:06:49Z</time>
      </trkpt>
      <trkpt lat="47.69808" lon="-1.99085">
        <ele>27</ele>
        <time>2007-12-24T02:07:03Z</time>
      </trkpt>
      <trkpt lat="47.69784" lon="-1.99167">
        <ele>30</ele>
        <time>2007-12-24T02:07:27Z</time>
      </trkpt>
      <trkpt lat="47.69986" lon="-1.99191">
        <ele>30</ele>
        <time>2007-12-24T02:08:48Z</time>
      </trkpt>
      <trkpt lat="47.70003" lon="-1.99241">
        <ele>32</ele>
        <time>2007-12-24T02:09:03Z</time>
      </trkpt>
      <trkpt lat="47.7002" lon="-1.99497">
        <ele>34</ele>
        <time>2007-12-24T02:10:12Z</time>
      </trkpt>
      <trkpt lat="47.70045" lon="-1.99552">
        <ele>33</ele>
        <time>2007-12-24T02:10:30Z</time>
      </trkpt>
      <trkpt lat="47.70108" lon="-1.9949">
        <ele>33</ele>
        <time>2007-12-24T02:11:00Z</time>
      </trkpt>
      <trkpt lat="47.70193" lon="-1.99457">
        <ele>31</ele>
        <time>2007-12-24T02:11:35Z</time>
      </trkpt>
      <trkpt lat="47.7029" lon="-1.99425">
        <ele>28</ele>
        <time>2007-12-24T02:12:15Z</time>
      </trkpt>
      <trkpt lat="47.70342" lon="-1.994">
        <ele>26</ele>
        <time>2007-12-24T02:12:37Z</time>
      </trkpt>
      <trkpt lat="47.70382" lon="-1.9988">
        <ele>17</ele>
        <time>2007-12-24T02:14:47Z</time>
      </trkpt>
      <trkpt lat="47.70433" lon="-2.00121">
        <ele>16</ele>
        <time>2007-12-24T02:15:55Z</time>
      </trkpt>
      <trkpt lat="47.70689" lon="-1.99992">
        <ele>14</ele>
        <time>2007-12-24T02:17:43Z</time>
      </trkpt>
      <trkpt lat="47.70668" lon="-2.0012">
        <ele>15</ele>
        <time>2007-12-24T02:18:19Z</time>
      </trkpt>
      <trkpt lat="47.7064" lon="-2.00241">
        <ele>15</ele>
        <time>2007-12-24T02:18:53Z</time>
      </trkpt>
      <trkpt lat="47.70566" lon="-2.00375">
        <ele>14</ele>
        <time>2007-12-24T02:19:40Z</time>
      </trkpt>
      <trkpt lat="47.70552" lon="-2.00394">
        <ele>14</ele>
        <time>2007-12-24T02:19:48Z</time>
      </trkpt>
      <trkpt lat="47.70579" lon="-2.00563">
        <ele>16</ele>
        <time>2007-12-24T02:20:34Z</time>
      </trkpt>
      <trkpt lat="47.70612" lon="-2.00782">
        <ele>18</ele>
        <time>2007-12-24T02:21:35Z</time>
      </trkpt>
      <trkpt lat="47.70635" lon="-2.00878">
        <ele>18</ele>
        <time>2007-12-24T02:22:02Z</time>
      </trkpt>
      <trkpt lat="47.70647" lon="-2.00915">
        <ele>18</ele>
        <time>2007-12-24T02:22:13Z</time>
      </trkpt>
      <trkpt lat="47.70661" lon="-2.00964">
        <ele>19</ele>
        <time>2007-12-24T02:22:28Z</time>
      </trkpt>
      <trkpt lat="47.70698" lon="-2.00986">
        <ele>19</ele>
        <time>2007-12-24T02:22:44Z</time>
      </trkpt>
      <trkpt lat="47.70727" lon="-2.00999">
        <ele>20</ele>
        <time>2007-12-24T02:22:56Z</time>
      </trkpt>
      <trkpt lat="47.70778" lon="-2.00976">
        <ele>19</ele>
        <time>2007-12-24T02:23:17Z</time>
      </trkpt>
      <trkpt lat="47.7083" lon="-2.00921">
        <ele>19</ele>
        <time>2007-12-24T02:23:43Z</time>
      </trkpt>
      <trkpt lat="47.70835" lon="-2.00931">
        <ele>19</ele>
        <time>2007-12-24T02:23:46Z</time>
      </trkpt>
      <trkpt lat="47.70841" lon="-2.00929">
        <ele>19</ele>
        <time>2007-12-24T02:23:49Z</time>
      </trkpt>
      <trkpt lat="47.70973" lon="-2.00926">
        <ele>21</ele>
        <time>2007-12-24T02:24:42Z</time>
      </trkpt>
      <trkpt lat="47.70983" lon="-2.00779">
        <ele>20</ele>
        <time>2007-12-24T02:25:21Z</time>
      </trkpt>
      <trkpt lat="47.71118" lon="-2.00771">
        <ele>17</ele>
        <time>2007-12-24T02:26:15Z</time>
      </trkpt>
      <trkpt lat="47.71135" lon="-2.00999">
        <ele>20</ele>
        <time>2007-12-24T02:27:17Z</time>
      </trkpt>
      <trkpt lat="47.71399" lon="-2.00977">
        <ele>20</ele>
        <time>2007-12-24T02:29:03Z</time>
      </trkpt>
      <trkpt lat="47.71507" lon="-2.0094">
        <ele>26</ele>
        <time>2007-12-24T02:29:47Z</time>
      </trkpt>
      <trkpt lat="47.71513" lon="-2.01127">
        <ele>26</ele>
        <time>2007-12-24T02:30:38Z</time>
      </trkpt>
      <trkpt lat="47.71528" lon="-2.01148">
        <ele>27</ele>
        <time>2007-12-24T02:30:46Z</time>
      </trkpt>
      <trkpt lat="47.71618" lon="-2.01135">
        <ele>31</ele>
        <time>2007-12-24T02:31:22Z</time>
      </trkpt>
      <trkpt lat="47.71723" lon="-2.01137">
        <ele>37</ele>
        <time>2007-12-24T02:32:04Z</time>
      </trkpt>
      <trkpt lat="47.71802" lon="-2.01126">
        <ele>41</ele>
        <time>2007-12-24T02:32:36Z</time>
      </trkpt>
      <trkpt lat="47.71873" lon="-2.0114">
        <ele>45</ele>
        <time>2007-12-24T02:33:04Z</time>
      </trkpt>
      <trkpt lat="47.7189" lon="-2.01285">
        <ele>46</ele>
        <time>2007-12-24T02:33:44Z</time>
      </trkpt>
      <trkpt lat="47.71886" lon="-2.01441">
        <ele>46</ele>
        <time>2007-12-24T02:34:26Z</time>
      </trkpt>
      <trkpt lat="47.71896" lon="-2.01549">
        <ele>49</ele>
        <time>2007-12-24T02:34:55Z</time>
      </trkpt>
      <trkpt lat="47.71917" lon="-2.0162">
        <ele>50</ele>
        <time>2007-12-24T02:35:17Z</time>
      </trkpt>
      <trkpt lat="47.71922" lon="-2.01616">
        <ele>51</ele>
        <time>2007-12-24T02:35:19Z</time>
      </trkpt>
      <trkpt lat="47.71936" lon="-2.01601">
        <ele>52</ele>
        <time>2007-12-24T02:35:26Z</time>
      </trkpt>
      <trkpt lat="47.7195" lon="-2.01602">
        <ele>52</ele>
        <time>2007-12-24T02:35:31Z</time>
      </trkpt>
      <trkpt lat="47.71962" lon="-2.0163">
        <ele>52</ele>
        <time>2007-12-24T02:35:40Z</time>
      </trkpt>
      <trkpt lat="47.71984" lon="-2.01632">
        <ele>51</ele>
        <time>2007-12-24T02:35:49Z</time>
      </trkpt>
      <trkpt lat="47.72029" lon="-2.01635">
        <ele>46</ele>
        <time>2007-12-24T02:36:07Z</time>
      </trkpt>
      <trkpt lat="47.7207" lon="-2.01639">
        <ele>41</ele>
        <time>2007-12-24T02:36:23Z</time>
      </trkpt>
      <trkpt lat="47.72112" lon="-2.01646">
        <ele>34</ele>
        <time>2007-12-24T02:36:40Z</time>
      </trkpt>
      <trkpt lat="47.72157" lon="-2.01649">
        <ele>23</ele>
        <time>2007-12-24T02:36:58Z</time>
      </trkpt>
      <trkpt lat="47.72135" lon="-2.01624">
        <ele>29</ele>
        <time>2007-12-24T02:37:09Z</time>
      </trkpt>
      <trkpt lat="47.72126" lon="-2.01587">
        <ele>30</ele>
        <time>2007-12-24T02:37:20Z</time>
      </trkpt>
      <trkpt lat="47.72115" lon="-2.01572">
        <ele>31</ele>
        <time>2007-12-24T02:37:26Z</time>
      </trkpt>
      <trkpt lat="47.721" lon="-2.01547">
        <ele>32</ele>
        <time>2007-12-24T02:37:35Z</time>
      </trkpt>
      <trkpt lat="47.72088" lon="-2.0153">
        <ele>33</ele>
        <time>2007-12-24T02:37:42Z</time>
      </trkpt>
      <trkpt lat="47.72073" lon="-2.01503">
        <ele>34</ele>
        <time>2007-12-24T02:37:51Z</time>
      </trkpt>
      <trkpt lat="47.72041" lon="-2.01453">
        <ele>38</ele>
        <time>2007-12-24T02:38:10Z</time>
      </trkpt>
      <trkpt lat="47.72016" lon="-2.01388">
        <ele>40</ele>
        <time>2007-12-24T02:38:30Z</time>
      </trkpt>
      <trkpt lat="47.71988" lon="-2.01355">
        <ele>43</ele>
        <time>2007-12-24T02:38:44Z</time>
      </trkpt>
      <trkpt lat="47.71996" lon="-2.01325">
        <ele>40</ele>
        <time>2007-12-24T02:38:53Z</time>
      </trkpt>
      <trkpt lat="47.72016" lon="-2.01288">
        <ele>36</ele>
        <time>2007-12-24T02:39:06Z</time>
      </trkpt>
      <trkpt lat="47.72028" lon="-2.01262">
        <ele>34</ele>
        <time>2007-12-24T02:39:14Z</time>
      </trkpt>
      <trkpt lat="47.72034" lon="-2.01229">
        <ele>31</ele>
        <time>2007-12-24T02:39:23Z</time>
      </trkpt>
      <trkpt lat="47.7204" lon="-2.01189">
        <ele>30</ele>
        <time>2007-12-24T02:39:34Z</time>
      </trkpt>
      <trkpt lat="47.72057" lon="-2.0116">
        <ele>29</ele>
        <time>2007-12-24T02:39:45Z</time>
      </trkpt>
      <trkpt lat="47.72086" lon="-2.01102">
        <ele>25</ele>
        <time>2007-12-24T02:40:04Z</time>
      </trkpt>
      <trkpt lat="47.72096" lon="-2.01054">
        <ele>22</ele>
        <time>2007-12-24T02:40:18Z</time>
      </trkpt>
      <trkpt lat="47.72101" lon="-2.00983">
        <ele>17</ele>
        <time>2007-12-24T02:40:37Z</time>
      </trkpt>
      <trkpt lat="47.72104" lon="-2.00843">
        <ele>12</ele>
        <time>2007-12-24T02:41:15Z</time>
      </trkpt>
      <trkpt lat="47.72115" lon="-2.00844">
        <ele>12</ele>
        <time>2007-12-24T02:41:19Z</time>
      </trkpt>
      <trkpt lat="47.72151" lon="-2.00852">
        <ele>11</ele>
        <time>2007-12-24T02:41:34Z</time>
      </trkpt>
      <trkpt lat="47.72192" lon="-2.00848">
        <ele>11</ele>
        <time>2007-12-24T02:41:50Z</time>
      </trkpt>
      <trkpt lat="47.7225" lon="-2.00857">
        <ele>16</ele>
        <time>2007-12-24T02:42:13Z</time>
      </trkpt>
      <trkpt lat="47.72303" lon="-2.00881">
        <ele>20</ele>
        <time>2007-12-24T02:42:36Z</time>
      </trkpt>
      <trkpt lat="47.7233" lon="-2.0087">
        <ele>23</ele>
        <time>2007-12-24T02:42:47Z</time>
      </trkpt>
      <trkpt lat="47.7235" lon="-2.00817">
        <ele>27</ele>
        <time>2007-12-24T02:43:03Z</time>
      </trkpt>
      <trkpt lat="47.72373" lon="-2.00809">
        <ele>31</ele>
        <time>2007-12-24T02:43:12Z</time>
      </trkpt>
      <trkpt lat="47.72414" lon="-2.00803">
        <ele>36</ele>
        <time>2007-12-24T02:43:29Z</time>
      </trkpt>
      <trkpt lat="47.72478" lon="-2.00784">
        <ele>42</ele>
        <time>2007-12-24T02:43:55Z</time>
      </trkpt>
      <trkpt lat="47.72568" lon="-2.00776">
        <ele>49</ele>
        <time>2007-12-24T02:44:31Z</time>
      </trkpt>
      <trkpt lat="47.7267" lon="-2.00761">
        <ele>52</ele>
        <time>2007-12-24T02:45:12Z</time>
      </trkpt>
      <trkpt lat="47.72749" lon="-2.0076">
        <ele>52</ele>
        <time>2007-12-24T02:45:44Z</time>
      </trkpt>
      <trkpt lat="47.72743" lon="-2.00696">
        <ele>51</ele>
        <time>2007-12-24T02:46:01Z</time>
      </trkpt>
      <trkpt lat="47.72736" lon="-2.00639">
        <ele>50</ele>
        <time>2007-12-24T02:46:17Z</time>
      </trkpt>
      <trkpt lat="47.72739" lon="-2.00546">
        <ele>48</ele>
        <time>2007-12-24T02:46:42Z</time>
      </trkpt>
      <trkpt lat="47.72761" lon="-2.00391">
        <ele>37</ele>
        <time>2007-12-24T02:47:24Z</time>
      </trkpt>
      <trkpt lat="47.72738" lon="-2.00269">
        <ele>28</ele>
        <time>2007-12-24T02:47:59Z</time>
      </trkpt>
      <trkpt lat="47.72751" lon="-2.00152">
        <ele>20</ele>
        <time>2007-12-24T02:48:30Z</time>
      </trkpt>
      <trkpt lat="47.72807" lon="-2.0016">
        <ele>19</ele>
        <time>2007-12-24T02:48:53Z</time>
      </trkpt>
      <trkpt lat="47.72876" lon="-2.0019">
        <ele>18</ele>
        <time>2007-12-24T02:49:21Z</time>
      </trkpt>
      <trkpt lat="47.72918" lon="-2.002">
        <ele>17</ele>
        <time>2007-12-24T02:49:39Z</time>
      </trkpt>
      <trkpt lat="47.72943" lon="-2.00193">
        <ele>16</ele>
        <time>2007-12-24T02:49:49Z</time>
      </trkpt>
      <trkpt lat="47.72971" lon="-2.00171">
        <ele>16</ele>
        <time>2007-12-24T02:50:01Z</time>
      </trkpt>
      <trkpt lat="47.73007" lon="-2.00127">
        <ele>18</ele>
        <time>2007-12-24T02:50:20Z</time>
      </trkpt>
      <trkpt lat="47.73051" lon="-2.0009">
        <ele>25</ele>
        <time>2007-12-24T02:50:40Z</time>
      </trkpt>
      <trkpt lat="47.73088" lon="-2.00063">
        <ele>30</ele>
        <time>2007-12-24T02:50:57Z</time>
      </trkpt>
      <trkpt lat="47.7312" lon="-2.00073">
        <ele>34</ele>
        <time>2007-12-24T02:51:10Z</time>
      </trkpt>
      <trkpt lat="47.73168" lon="-2.0008">
        <ele>38</ele>
        <time>2007-12-24T02:51:29Z</time>
      </trkpt>
      <trkpt lat="47.73186" lon="-2.00095">
        <ele>40</ele>
        <time>2007-12-24T02:51:37Z</time>
      </trkpt>
      <trkpt lat="47.73201" lon="-2.0012">
        <ele>42</ele>
        <time>2007-12-24T02:51:46Z</time>
      </trkpt>
      <trkpt lat="47.73199" lon="-2.00146">
        <ele>42</ele>
        <time>2007-12-24T02:51:53Z</time>
      </trkpt>
      <trkpt lat="47.73206" lon="-2.00217">
        <ele>43</ele>
        <time>2007-12-24T02:52:13Z</time>
      </trkpt>
      <trkpt lat="47.73205" lon="-2.00253">
        <ele>42</ele>
        <time>2007-12-24T02:52:22Z</time>
      </trkpt>
      <trkpt lat="47.73198" lon="-2.00309">
        <ele>40</ele>
        <time>2007-12-24T02:52:38Z</time>
      </trkpt>
      <trkpt lat="47.73208" lon="-2.00368">
        <ele>41</ele>
        <time>2007-12-24T02:52:54Z</time>
      </trkpt>
      <trkpt lat="47.73223" lon="-2.00425">
        <ele>43</ele>
        <time>2007-12-24T02:53:11Z</time>
      </trkpt>
      <trkpt lat="47.73238" lon="-2.0049">
        <ele>42</ele>
        <time>2007-12-24T02:53:29Z</time>
      </trkpt>
      <trkpt lat="47.73233" lon="-2.00536">
        <ele>41</ele>
        <time>2007-12-24T02:53:42Z</time>
      </trkpt>
      <trkpt lat="47.73231" lon="-2.00566">
        <ele>40</ele>
        <time>2007-12-24T02:53:50Z</time>
      </trkpt>
      <trkpt lat="47.73228" lon="-2.00599">
        <ele>39</ele>
        <time>2007-12-24T02:53:59Z</time>
      </trkpt>
      <trkpt lat="47.73226" lon="-2.00653">
        <ele>37</ele>
        <time>2007-12-24T02:54:13Z</time>
      </trkpt>
      <trkpt lat="47.73221" lon="-2.00709">
        <ele>36</ele>
        <time>2007-12-24T02:54:28Z</time>
      </trkpt>
      <trkpt lat="47.73212" lon="-2.00778">
        <ele>32</ele>
        <time>2007-12-24T02:54:48Z</time>
      </trkpt>
      <trkpt lat="47.73195" lon="-2.00827">
        <ele>29</ele>
        <time>2007-12-24T02:55:02Z</time>
      </trkpt>
      <trkpt lat="47.73195" lon="-2.00873">
        <ele>29</ele>
        <time>2007-12-24T02:55:15Z</time>
      </trkpt>
      <trkpt lat="47.73208" lon="-2.00898">
        <ele>29</ele>
        <time>2007-12-24T02:55:23Z</time>
      </trkpt>
      <trkpt lat="47.73222" lon="-2.00933">
        <ele>31</ele>
        <time>2007-12-24T02:55:34Z</time>
      </trkpt>
      <trkpt lat="47.73238" lon="-2.0098">
        <ele>33</ele>
        <time>2007-12-24T02:55:49Z</time>
      </trkpt>
      <trkpt lat="47.73249" lon="-2.01038">
        <ele>35</ele>
        <time>2007-12-24T02:56:05Z</time>
      </trkpt>
      <trkpt lat="47.73262" lon="-2.01079">
        <ele>36</ele>
        <time>2007-12-24T02:56:17Z</time>
      </trkpt>
      <trkpt lat="47.73283" lon="-2.01112">
        <ele>36</ele>
        <time>2007-12-24T02:56:29Z</time>
      </trkpt>
      <trkpt lat="47.73306" lon="-2.0115">
        <ele>35</ele>
        <time>2007-12-24T02:56:43Z</time>
      </trkpt>
      <trkpt lat="47.73314" lon="-2.0117">
        <ele>38</ele>
        <time>2007-12-24T02:56:49Z</time>
      </trkpt>
      <trkpt lat="47.73324" lon="-2.01218">
        <ele>43</ele>
        <time>2007-12-24T02:57:03Z</time>
      </trkpt>
      <trkpt lat="47.73324" lon="-2.01268">
        <ele>46</ele>
        <time>2007-12-24T02:57:16Z</time>
      </trkpt>
      <trkpt lat="47.73311" lon="-2.01343">
        <ele>45</ele>
        <time>2007-12-24T02:57:37Z</time>
      </trkpt>
      <trkpt lat="47.73299" lon="-2.01419">
        <ele>45</ele>
        <time>2007-12-24T02:57:58Z</time>
      </trkpt>
      <trkpt lat="47.73287" lon="-2.01482">
        <ele>43</ele>
        <time>2007-12-24T02:58:16Z</time>
      </trkpt>
      <trkpt lat="47.73283" lon="-2.01541">
        <ele>43</ele>
        <time>2007-12-24T02:58:32Z</time>
      </trkpt>
      <trkpt lat="47.7329" lon="-2.01582">
        <ele>44</ele>
        <time>2007-12-24T02:58:43Z</time>
      </trkpt>
      <trkpt lat="47.73299" lon="-2.01583">
        <ele>45</ele>
        <time>2007-12-24T02:58:47Z</time>
      </trkpt>
      <trkpt lat="47.73306" lon="-2.01574">
        <ele>46</ele>
        <time>2007-12-24T02:58:51Z</time>
      </trkpt>
      <trkpt lat="47.73325" lon="-2.01548">
        <ele>50</ele>
        <time>2007-12-24T02:59:01Z</time>
      </trkpt>
      <trkpt lat="47.73337" lon="-2.01525">
        <ele>53</ele>
        <time>2007-12-24T02:59:09Z</time>
      </trkpt>
      <trkpt lat="47.73356" lon="-2.01504">
        <ele>57</ele>
        <time>2007-12-24T02:59:18Z</time>
      </trkpt>
      <trkpt lat="47.73394" lon="-2.01474">
        <ele>62</ele>
        <time>2007-12-24T02:59:35Z</time>
      </trkpt>
      <trkpt lat="47.73414" lon="-2.01452">
        <ele>63</ele>
        <time>2007-12-24T02:59:46Z</time>
      </trkpt>
      <trkpt lat="47.73462" lon="-2.01443">
        <ele>64</ele>
        <time>2007-12-24T03:00:05Z</time>
      </trkpt>
      <trkpt lat="47.73498" lon="-2.01446">
        <ele>63</ele>
        <time>2007-12-24T03:00:19Z</time>
      </trkpt>
      <trkpt lat="47.73536" lon="-2.01439">
        <ele>62</ele>
        <time>2007-12-24T03:00:35Z</time>
      </trkpt>
      <trkpt lat="47.73569" lon="-2.01414">
        <ele>62</ele>
        <time>2007-12-24T03:00:49Z</time>
      </trkpt>
      <trkpt lat="47.73603" lon="-2.01388">
        <ele>65</ele>
        <time>2007-12-24T03:01:05Z</time>
      </trkpt>
      <trkpt lat="47.736" lon="-2.01314">
        <ele>65</ele>
        <time>2007-12-24T03:01:25Z</time>
      </trkpt>
      <trkpt lat="47.736" lon="-2.01267">
        <ele>66</ele>
        <time>2007-12-24T03:01:38Z</time>
      </trkpt>
      <trkpt lat="47.73591" lon="-2.01237">
        <ele>66</ele>
        <time>2007-12-24T03:01:46Z</time>
      </trkpt>
      <trkpt lat="47.73579" lon="-2.01209">
        <ele>66</ele>
        <time>2007-12-24T03:01:55Z</time>
      </trkpt>
      <trkpt lat="47.73579" lon="-2.01149">
        <ele>68</ele>
        <time>2007-12-24T03:02:12Z</time>
      </trkpt>
      <trkpt lat="47.73562" lon="-2.0111">
        <ele>67</ele>
        <time>2007-12-24T03:02:24Z</time>
      </trkpt>
      <trkpt lat="47.73534" lon="-2.01072">
        <ele>64</ele>
        <time>2007-12-24T03:02:39Z</time>
      </trkpt>
      <trkpt lat="47.7352" lon="-2.01054">
        <ele>63</ele>
        <time>2007-12-24T03:02:47Z</time>
      </trkpt>
      <trkpt lat="47.73494" lon="-2.01054">
        <ele>59</ele>
        <time>2007-12-24T03:02:57Z</time>
      </trkpt>
      <trkpt lat="47.73473" lon="-2.01089">
        <ele>55</ele>
        <time>2007-12-24T03:03:09Z</time>
      </trkpt>
      <trkpt lat="47.73436" lon="-2.01107">
        <ele>48</ele>
        <time>2007-12-24T03:03:25Z</time>
      </trkpt>
      <trkpt lat="47.73421" lon="-2.01102">
        <ele>46</ele>
        <time>2007-12-24T03:03:31Z</time>
      </trkpt>
      <trkpt lat="47.73398" lon="-2.01093">
        <ele>45</ele>
        <time>2007-12-24T03:03:41Z</time>
      </trkpt>
      <trkpt lat="47.73368" lon="-2.01081">
        <ele>41</ele>
        <time>2007-12-24T03:03:53Z</time>
      </trkpt>
      <trkpt lat="47.73353" lon="-2.01053">
        <ele>38</ele>
        <time>2007-12-24T03:04:03Z</time>
      </trkpt>
      <trkpt lat="47.73355" lon="-2.01017">
        <ele>39</ele>
        <time>2007-12-24T03:04:13Z</time>
      </trkpt>
      <trkpt lat="47.73353" lon="-2.00984">
        <ele>42</ele>
        <time>2007-12-24T03:04:22Z</time>
      </trkpt>
      <trkpt lat="47.73359" lon="-2.00957">
        <ele>43</ele>
        <time>2007-12-24T03:04:29Z</time>
      </trkpt>
      <trkpt lat="47.73372" lon="-2.00915">
        <ele>45</ele>
        <time>2007-12-24T03:04:41Z</time>
      </trkpt>
      <trkpt lat="47.73385" lon="-2.00859">
        <ele>48</ele>
        <time>2007-12-24T03:04:57Z</time>
      </trkpt>
      <trkpt lat="47.73387" lon="-2.00812">
        <ele>50</ele>
        <time>2007-12-24T03:05:10Z</time>
      </trkpt>
      <trkpt lat="47.73384" lon="-2.00755">
        <ele>52</ele>
        <time>2007-12-24T03:05:26Z</time>
      </trkpt>
      <trkpt lat="47.73374" lon="-2.00711">
        <ele>52</ele>
        <time>2007-12-24T03:05:38Z</time>
      </trkpt>
      <trkpt lat="47.73362" lon="-2.0067">
        <ele>51</ele>
        <time>2007-12-24T03:05:50Z</time>
      </trkpt>
      <trkpt lat="47.73351" lon="-2.00616">
        <ele>51</ele>
        <time>2007-12-24T03:06:05Z</time>
      </trkpt>
      <trkpt lat="47.73353" lon="-2.0058">
        <ele>52</ele>
        <time>2007-12-24T03:06:15Z</time>
      </trkpt>
      <trkpt lat="47.73347" lon="-2.00542">
        <ele>52</ele>
        <time>2007-12-24T03:06:25Z</time>
      </trkpt>
      <trkpt lat="47.73334" lon="-2.00481">
        <ele>53</ele>
        <time>2007-12-24T03:06:43Z</time>
      </trkpt>
      <trkpt lat="47.73313" lon="-2.00432">
        <ele>52</ele>
        <time>2007-12-24T03:06:58Z</time>
      </trkpt>
      <trkpt lat="47.73302" lon="-2.00358">
        <ele>53</ele>
        <time>2007-12-24T03:07:19Z</time>
      </trkpt>
      <trkpt lat="47.73302" lon="-2.00315">
        <ele>53</ele>
        <time>2007-12-24T03:07:30Z</time>
      </trkpt>
      <trkpt lat="47.73301" lon="-2.00271">
        <ele>53</ele>
        <time>2007-12-24T03:07:42Z</time>
      </trkpt>
      <trkpt lat="47.73298" lon="-2.00231">
        <ele>52</ele>
        <time>2007-12-24T03:07:53Z</time>
      </trkpt>
      <trkpt lat="47.73295" lon="-2.00185">
        <ele>50</ele>
        <time>2007-12-24T03:08:06Z</time>
      </trkpt>
      <trkpt lat="47.73295" lon="-2.00131">
        <ele>48</ele>
        <time>2007-12-24T03:08:20Z</time>
      </trkpt>
      <trkpt lat="47.73299" lon="-2.00087">
        <ele>44</ele>
        <time>2007-12-24T03:08:32Z</time>
      </trkpt>
      <trkpt lat="47.73302" lon="-2.00028">
        <ele>39</ele>
        <time>2007-12-24T03:08:48Z</time>
      </trkpt>
      <trkpt lat="47.733" lon="-2.00047">
        <ele>41</ele>
        <time>2007-12-24T03:08:53Z</time>
      </trkpt>
      <trkpt lat="47.73306" lon="-2.00023">
        <ele>38</ele>
        <time>2007-12-24T03:09:00Z</time>
      </trkpt>
      <trkpt lat="47.73322" lon="-2.00021">
        <ele>37</ele>
        <time>2007-12-24T03:09:06Z</time>
      </trkpt>
      <trkpt lat="47.73337" lon="-2.00022">
        <ele>36</ele>
        <time>2007-12-24T03:09:12Z</time>
      </trkpt>
      <trkpt lat="47.73347" lon="-2.00022">
        <ele>35</ele>
        <time>2007-12-24T03:09:16Z</time>
      </trkpt>
      <trkpt lat="47.73353" lon="-2.00018">
        <ele>33</ele>
        <time>2007-12-24T03:09:19Z</time>
      </trkpt>
      <trkpt lat="47.73368" lon="-2.0001">
        <ele>30</ele>
        <time>2007-12-24T03:09:25Z</time>
      </trkpt>
      <trkpt lat="47.73372" lon="-2.00008">
        <ele>29</ele>
        <time>2007-12-24T03:09:27Z</time>
      </trkpt>
      <trkpt lat="47.73387" lon="-2.00007">
        <ele>27</ele>
        <time>2007-12-24T03:09:33Z</time>
      </trkpt>
      <trkpt lat="47.734" lon="-2.00005">
        <ele>26</ele>
        <time>2007-12-24T03:09:38Z</time>
      </trkpt>
      <trkpt lat="47.7341" lon="-2.00005">
        <ele>25</ele>
        <time>2007-12-24T03:09:42Z</time>
      </trkpt>
      <trkpt lat="47.7343" lon="-2.00001">
        <ele>23</ele>
        <time>2007-12-24T03:09:50Z</time>
      </trkpt>
      <trkpt lat="47.73437" lon="-2.00002">
        <ele>23</ele>
        <time>2007-12-24T03:09:53Z</time>
      </trkpt>
      <trkpt lat="47.73444" lon="-1.99987">
        <ele>21</ele>
        <time>2007-12-24T03:09:58Z</time>
      </trkpt>
      <trkpt lat="47.73452" lon="-1.99981">
        <ele>20</ele>
        <time>2007-12-24T03:10:01Z</time>
      </trkpt>
      <trkpt lat="47.73463" lon="-1.99975">
        <ele>18</ele>
        <time>2007-12-24T03:10:06Z</time>
      </trkpt>
      <trkpt lat="47.73465" lon="-1.99973">
        <ele>18</ele>
        <time>2007-12-24T03:10:07Z</time>
      </trkpt>
      <trkpt lat="47.73471" lon="-1.99953">
        <ele>16</ele>
        <time>2007-12-24T03:10:13Z</time>
      </trkpt>
      <trkpt lat="47.73472" lon="-1.9995">
        <ele>16</ele>
        <time>2007-12-24T03:10:14Z</time>
      </trkpt>
      <trkpt lat="47.73475" lon="-1.99929">
        <ele>14</ele>
        <time>2007-12-24T03:10:20Z</time>
      </trkpt>
      <trkpt lat="47.73478" lon="-1.9991">
        <ele>13</ele>
        <time>2007-12-24T03:10:25Z</time>
      </trkpt>
      <trkpt lat="47.7348" lon="-1.99902">
        <ele>12</ele>
        <time>2007-12-24T03:10:27Z</time>
      </trkpt>
      <trkpt lat="47.73483" lon="-1.99882">
        <ele>11</ele>
        <time>2007-12-24T03:10:33Z</time>
      </trkpt>
      <trkpt lat="47.73487" lon="-1.99877">
        <ele>10</ele>
        <time>2007-12-24T03:10:35Z</time>
      </trkpt>
      <trkpt lat="47.7349" lon="-1.99871">
        <ele>10</ele>
        <time>2007-12-24T03:10:37Z</time>
      </trkpt>
      <trkpt lat="47.73492" lon="-1.99867">
        <ele>10</ele>
        <time>2007-12-24T03:10:38Z</time>
      </trkpt>
      <trkpt lat="47.73495" lon="-1.99862">
        <ele>9</ele>
        <time>2007-12-24T03:10:40Z</time>
      </trkpt>
      <trkpt lat="47.73514" lon="-1.9985">
        <ele>8</ele>
        <time>2007-12-24T03:10:48Z</time>
      </trkpt>
      <trkpt lat="47.73533" lon="-1.99844">
        <ele>8</ele>
        <time>2007-12-24T03:10:56Z</time>
      </trkpt>
      <trkpt lat="47.73563" lon="-1.9983">
        <ele>7</ele>
        <time>2007-12-24T03:11:09Z</time>
      </trkpt>
      <trkpt lat="47.73597" lon="-1.99812">
        <ele>8</ele>
        <time>2007-12-24T03:11:23Z</time>
      </trkpt>
      <trkpt lat="47.73626" lon="-1.99782">
        <ele>10</ele>
        <time>2007-12-24T03:11:37Z</time>
      </trkpt>
      <trkpt lat="47.73649" lon="-1.9976">
        <ele>11</ele>
        <time>2007-12-24T03:11:48Z</time>
      </trkpt>
      <trkpt lat="47.73672" lon="-1.9977">
        <ele>12</ele>
        <time>2007-12-24T03:11:58Z</time>
      </trkpt>
      <trkpt lat="47.73714" lon="-1.9979">
        <ele>12</ele>
        <time>2007-12-24T03:12:15Z</time>
      </trkpt>
      <trkpt lat="47.73745" lon="-1.99804">
        <ele>14</ele>
        <time>2007-12-24T03:12:28Z</time>
      </trkpt>
      <trkpt lat="47.73767" lon="-1.99813">
        <ele>14</ele>
        <time>2007-12-24T03:12:37Z</time>
      </trkpt>
      <trkpt lat="47.73812" lon="-1.99834">
        <ele>17</ele>
        <time>2007-12-24T03:12:56Z</time>
      </trkpt>
      <trkpt lat="47.73848" lon="-1.99851">
        <ele>19</ele>
        <time>2007-12-24T03:13:12Z</time>
      </trkpt>
      <trkpt lat="47.73882" lon="-1.99867">
        <ele>21</ele>
        <time>2007-12-24T03:13:26Z</time>
      </trkpt>
      <trkpt lat="47.73912" lon="-1.99882">
        <ele>22</ele>
        <time>2007-12-24T03:13:38Z</time>
      </trkpt>
      <trkpt lat="47.73915" lon="-1.99883">
        <ele>22</ele>
        <time>2007-12-24T03:13:40Z</time>
      </trkpt>
      <trkpt lat="47.73941" lon="-1.99907">
        <ele>22</ele>
        <time>2007-12-24T03:13:52Z</time>
      </trkpt>
      <trkpt lat="47.73965" lon="-1.99933">
        <ele>23</ele>
        <time>2007-12-24T03:14:04Z</time>
      </trkpt>
      <trkpt lat="47.73995" lon="-1.9997">
        <ele>23</ele>
        <time>2007-12-24T03:14:19Z</time>
      </trkpt>
      <trkpt lat="47.74032" lon="-2.00017">
        <ele>23</ele>
        <time>2007-12-24T03:14:39Z</time>
      </trkpt>
      <trkpt lat="47.74068" lon="-2.00062">
        <ele>22</ele>
        <time>2007-12-24T03:14:58Z</time>
      </trkpt>
      <trkpt lat="47.74102" lon="-2.00104">
        <ele>20</ele>
        <time>2007-12-24T03:15:15Z</time>
      </trkpt>
      <trkpt lat="47.74142" lon="-2.00154">
        <ele>18</ele>
        <time>2007-12-24T03:15:36Z</time>
      </trkpt>
      <trkpt lat="47.74175" lon="-2.00197">
        <ele>18</ele>
        <time>2007-12-24T03:15:54Z</time>
      </trkpt>
      <trkpt lat="47.74213" lon="-2.0024">
        <ele>19</ele>
        <time>2007-12-24T03:16:13Z</time>
      </trkpt>
      <trkpt lat="47.74245" lon="-2.00262">
        <ele>21</ele>
        <time>2007-12-24T03:16:27Z</time>
      </trkpt>
      <trkpt lat="47.74251" lon="-2.00269">
        <ele>21</ele>
        <time>2007-12-24T03:16:30Z</time>
      </trkpt>
      <trkpt lat="47.74273" lon="-2.00285">
        <ele>22</ele>
        <time>2007-12-24T03:16:40Z</time>
      </trkpt>
      <trkpt lat="47.74295" lon="-2.00307">
        <ele>23</ele>
        <time>2007-12-24T03:16:50Z</time>
      </trkpt>
      <trkpt lat="47.74303" lon="-2.00319">
        <ele>22</ele>
        <time>2007-12-24T03:16:55Z</time>
      </trkpt>
      <trkpt lat="47.74323" lon="-2.00345">
        <ele>22</ele>
        <time>2007-12-24T03:17:06Z</time>
      </trkpt>
      <trkpt lat="47.74349" lon="-2.00375">
        <ele>22</ele>
        <time>2007-12-24T03:17:19Z</time>
      </trkpt>
      <trkpt lat="47.74377" lon="-2.00395">
        <ele>23</ele>
        <time>2007-12-24T03:17:31Z</time>
      </trkpt>
      <trkpt lat="47.74405" lon="-2.0041">
        <ele>26</ele>
        <time>2007-12-24T03:17:43Z</time>
      </trkpt>
      <trkpt lat="47.74434" lon="-2.00427">
        <ele>27</ele>
        <time>2007-12-24T03:17:56Z</time>
      </trkpt>
      <trkpt lat="47.74455" lon="-2.0044">
        <ele>28</ele>
        <time>2007-12-24T03:18:05Z</time>
      </trkpt>
      <trkpt lat="47.74475" lon="-2.00451">
        <ele>28</ele>
        <time>2007-12-24T03:18:13Z</time>
      </trkpt>
      <trkpt lat="47.74495" lon="-2.00464">
        <ele>29</ele>
        <time>2007-12-24T03:18:22Z</time>
      </trkpt>
      <trkpt lat="47.74517" lon="-2.00475">
        <ele>31</ele>
        <time>2007-12-24T03:18:31Z</time>
      </trkpt>
      <trkpt lat="47.74535" lon="-2.00485">
        <ele>31</ele>
        <time>2007-12-24T03:18:39Z</time>
      </trkpt>
      <trkpt lat="47.74552" lon="-2.0049">
        <ele>33</ele>
        <time>2007-12-24T03:18:46Z</time>
      </trkpt>
      <trkpt lat="47.74558" lon="-2.0049">
        <ele>33</ele>
        <time>2007-12-24T03:18:49Z</time>
      </trkpt>
      <trkpt lat="47.74562" lon="-2.00491">
        <ele>33</ele>
        <time>2007-12-24T03:18:50Z</time>
      </trkpt>
      <trkpt lat="47.74563" lon="-2.00494">
        <ele>33</ele>
        <time>2007-12-24T03:18:51Z</time>
      </trkpt>
      <trkpt lat="47.74565" lon="-2.00494">
        <ele>33</ele>
        <time>2007-12-24T03:18:52Z</time>
      </trkpt>
      <trkpt lat="47.74565" lon="-2.00495">
        <ele>33</ele>
        <time>2007-12-24T03:18:52Z</time>
      </trkpt>
      <trkpt lat="47.74574" lon="-2.00495">
        <ele>34</ele>
        <time>2007-12-24T03:18:55Z</time>
      </trkpt>
      <trkpt lat="47.74586" lon="-2.00495">
        <ele>35</ele>
        <time>2007-12-24T03:19:01Z</time>
      </trkpt>
      <trkpt lat="47.74603" lon="-2.0049">
        <ele>36</ele>
        <time>2007-12-24T03:19:07Z</time>
      </trkpt>
      <trkpt lat="47.74625" lon="-2.00482">
        <ele>37</ele>
        <time>2007-12-24T03:19:16Z</time>
      </trkpt>
      <trkpt lat="47.74642" lon="-2.00472">
        <ele>37</ele>
        <time>2007-12-24T03:19:24Z</time>
      </trkpt>
      <trkpt lat="47.74663" lon="-2.00448">
        <ele>37</ele>
        <time>2007-12-24T03:19:34Z</time>
      </trkpt>
      <trkpt lat="47.74675" lon="-2.00433">
        <ele>38</ele>
        <time>2007-12-24T03:19:41Z</time>
      </trkpt>
      <trkpt lat="47.74685" lon="-2.00418">
        <ele>39</ele>
        <time>2007-12-24T03:19:46Z</time>
      </trkpt>
      <trkpt lat="47.74707" lon="-2.00388">
        <ele>38</ele>
        <time>2007-12-24T03:19:58Z</time>
      </trkpt>
      <trkpt lat="47.7473" lon="-2.00352">
        <ele>38</ele>
        <time>2007-12-24T03:20:12Z</time>
      </trkpt>
      <trkpt lat="47.74753" lon="-2.00303">
        <ele>40</ele>
        <time>2007-12-24T03:20:28Z</time>
      </trkpt>
      <trkpt lat="47.74764" lon="-2.00285">
        <ele>41</ele>
        <time>2007-12-24T03:20:34Z</time>
      </trkpt>
      <trkpt lat="47.74777" lon="-2.00259">
        <ele>42</ele>
        <time>2007-12-24T03:20:43Z</time>
      </trkpt>
      <trkpt lat="47.74787" lon="-2.00235">
        <ele>43</ele>
        <time>2007-12-24T03:20:50Z</time>
      </trkpt>
      <trkpt lat="47.74797" lon="-2.00214">
        <ele>43</ele>
        <time>2007-12-24T03:20:57Z</time>
      </trkpt>
      <trkpt lat="47.74815" lon="-2.00189">
        <ele>44</ele>
        <time>2007-12-24T03:21:07Z</time>
      </trkpt>
      <trkpt lat="47.74822" lon="-2.00183">
        <ele>44</ele>
        <time>2007-12-24T03:21:11Z</time>
      </trkpt>
      <trkpt lat="47.74825" lon="-2.00182">
        <ele>44</ele>
        <time>2007-12-24T03:21:12Z</time>
      </trkpt>
      <trkpt lat="47.74838" lon="-2.00168">
        <ele>45</ele>
        <time>2007-12-24T03:21:18Z</time>
      </trkpt>
      <trkpt lat="47.74852" lon="-2.00157">
        <ele>46</ele>
        <time>2007-12-24T03:21:24Z</time>
      </trkpt>
      <trkpt lat="47.74863" lon="-2.00147">
        <ele>47</ele>
        <time>2007-12-24T03:21:30Z</time>
      </trkpt>
      <trkpt lat="47.74875" lon="-2.00133">
        <ele>48</ele>
        <time>2007-12-24T03:21:36Z</time>
      </trkpt>
      <trkpt lat="47.7489" lon="-2.00115">
        <ele>48</ele>
        <time>2007-12-24T03:21:43Z</time>
      </trkpt>
      <trkpt lat="47.74905" lon="-2.00096">
        <ele>49</ele>
        <time>2007-12-24T03:21:51Z</time>
      </trkpt>
      <trkpt lat="47.74918" lon="-2.00079">
        <ele>49</ele>
        <time>2007-12-24T03:21:58Z</time>
      </trkpt>
      <trkpt lat="47.74937" lon="-2.00069">
        <ele>49</ele>
        <time>2007-12-24T03:22:06Z</time>
      </trkpt>
      <trkpt lat="47.74945" lon="-2.00046">
        <ele>49</ele>
        <time>2007-12-24T03:22:13Z</time>
      </trkpt>
      <trkpt lat="47.74962" lon="-2.00029">
        <ele>49</ele>
        <time>2007-12-24T03:22:22Z</time>
      </trkpt>
      <trkpt lat="47.74978" lon="-2.00012">
        <ele>50</ele>
        <time>2007-12-24T03:22:29Z</time>
      </trkpt>
      <trkpt lat="47.74997" lon="-1.99992">
        <ele>50</ele>
        <time>2007-12-24T03:22:39Z</time>
      </trkpt>
      <trkpt lat="47.75025" lon="-1.99963">
        <ele>50</ele>
        <time>2007-12-24T03:22:52Z</time>
      </trkpt>
      <trkpt lat="47.75057" lon="-1.99931">
        <ele>49</ele>
        <time>2007-12-24T03:23:08Z</time>
      </trkpt>
      <trkpt lat="47.7508" lon="-1.99906">
        <ele>48</ele>
        <time>2007-12-24T03:23:19Z</time>
      </trkpt>
      <trkpt lat="47.75092" lon="-1.99891">
        <ele>47</ele>
        <time>2007-12-24T03:23:25Z</time>
      </trkpt>
      <trkpt lat="47.75108" lon="-1.9985">
        <ele>46</ele>
        <time>2007-12-24T03:23:38Z</time>
      </trkpt>
      <trkpt lat="47.75111" lon="-1.99835">
        <ele>46</ele>
        <time>2007-12-24T03:23:43Z</time>
      </trkpt>
      <trkpt lat="47.75117" lon="-1.99821">
        <ele>45</ele>
        <time>2007-12-24T03:23:47Z</time>
      </trkpt>
      <trkpt lat="47.75133" lon="-1.99772">
        <ele>43</ele>
        <time>2007-12-24T03:24:02Z</time>
      </trkpt>
      <trkpt lat="47.7515" lon="-1.99723">
        <ele>41</ele>
        <time>2007-12-24T03:24:16Z</time>
      </trkpt>
      <trkpt lat="47.75154" lon="-1.99713">
        <ele>40</ele>
        <time>2007-12-24T03:24:20Z</time>
      </trkpt>
      <trkpt lat="47.75174" lon="-1.99656">
        <ele>39</ele>
        <time>2007-12-24T03:24:37Z</time>
      </trkpt>
      <trkpt lat="47.75183" lon="-1.99627">
        <ele>40</ele>
        <time>2007-12-24T03:24:46Z</time>
      </trkpt>
      <trkpt lat="47.75195" lon="-1.99598">
        <ele>41</ele>
        <time>2007-12-24T03:24:54Z</time>
      </trkpt>
      <trkpt lat="47.75204" lon="-1.99582">
        <ele>41</ele>
        <time>2007-12-24T03:25:00Z</time>
      </trkpt>
      <trkpt lat="47.75205" lon="-1.9958">
        <ele>41</ele>
        <time>2007-12-24T03:25:01Z</time>
      </trkpt>
      <trkpt lat="47.75214" lon="-1.99582">
        <ele>42</ele>
        <time>2007-12-24T03:25:05Z</time>
      </trkpt>
      <trkpt lat="47.75216" lon="-1.99591">
        <ele>42</ele>
        <time>2007-12-24T03:25:07Z</time>
      </trkpt>
      <trkpt lat="47.75219" lon="-1.99625">
        <ele>43</ele>
        <time>2007-12-24T03:25:16Z</time>
      </trkpt>
      <trkpt lat="47.75225" lon="-1.99674">
        <ele>43</ele>
        <time>2007-12-24T03:25:30Z</time>
      </trkpt>
      <trkpt lat="47.75234" lon="-1.9972">
        <ele>45</ele>
        <time>2007-12-24T03:25:43Z</time>
      </trkpt>
      <trkpt lat="47.75237" lon="-1.99768">
        <ele>46</ele>
        <time>2007-12-24T03:25:56Z</time>
      </trkpt>
      <trkpt lat="47.75245" lon="-1.9983">
        <ele>48</ele>
        <time>2007-12-24T03:26:13Z</time>
      </trkpt>
      <trkpt lat="47.7525" lon="-1.99879">
        <ele>48</ele>
        <time>2007-12-24T03:26:26Z</time>
      </trkpt>
      <trkpt lat="47.75257" lon="-1.9993">
        <ele>48</ele>
        <time>2007-12-24T03:26:40Z</time>
      </trkpt>
      <trkpt lat="47.75263" lon="-1.99987">
        <ele>47</ele>
        <time>2007-12-24T03:26:55Z</time>
      </trkpt>
      <trkpt lat="47.75265" lon="-2">
        <ele>47</ele>
        <time>2007-12-24T03:26:59Z</time>
      </trkpt>
      <trkpt lat="47.7527" lon="-2.00035">
        <ele>48</ele>
        <time>2007-12-24T03:27:09Z</time>
      </trkpt>
      <trkpt lat="47.75275" lon="-2.00079">
        <ele>49</ele>
        <time>2007-12-24T03:27:21Z</time>
      </trkpt>
      <trkpt lat="47.75282" lon="-2.00113">
        <ele>50</ele>
        <time>2007-12-24T03:27:30Z</time>
      </trkpt>
      <trkpt lat="47.75288" lon="-2.00158">
        <ele>50</ele>
        <time>2007-12-24T03:27:43Z</time>
      </trkpt>
      <trkpt lat="47.75296" lon="-2.00197">
        <ele>49</ele>
        <time>2007-12-24T03:27:54Z</time>
      </trkpt>
      <trkpt lat="47.753" lon="-2.002">
        <ele>49</ele>
        <time>2007-12-24T03:27:55Z</time>
      </trkpt>
      <trkpt lat="47.75325" lon="-2.00214">
        <ele>48</ele>
        <time>2007-12-24T03:28:06Z</time>
      </trkpt>
      <trkpt lat="47.75338" lon="-2.00219">
        <ele>47</ele>
        <time>2007-12-24T03:28:11Z</time>
      </trkpt>
      <trkpt lat="47.75343" lon="-2.00232">
        <ele>46</ele>
        <time>2007-12-24T03:28:16Z</time>
      </trkpt>
      <trkpt lat="47.75347" lon="-2.00241">
        <ele>44</ele>
        <time>2007-12-24T03:28:18Z</time>
      </trkpt>
      <trkpt lat="47.75348" lon="-2.00245">
        <ele>44</ele>
        <time>2007-12-24T03:28:20Z</time>
      </trkpt>
      <trkpt lat="47.75354" lon="-2.00248">
        <ele>44</ele>
        <time>2007-12-24T03:28:22Z</time>
      </trkpt>
      <trkpt lat="47.75357" lon="-2.00254">
        <ele>43</ele>
        <time>2007-12-24T03:28:24Z</time>
      </trkpt>
      <trkpt lat="47.75364" lon="-2.00262">
        <ele>41</ele>
        <time>2007-12-24T03:28:27Z</time>
      </trkpt>
      <trkpt lat="47.75367" lon="-2.00264">
        <ele>41</ele>
        <time>2007-12-24T03:28:29Z</time>
      </trkpt>
      <trkpt lat="47.75375" lon="-2.00257">
        <ele>42</ele>
        <time>2007-12-24T03:28:33Z</time>
      </trkpt>
      <trkpt lat="47.75377" lon="-2.00257">
        <ele>42</ele>
        <time>2007-12-24T03:28:33Z</time>
      </trkpt>
      <trkpt lat="47.75379" lon="-2.00258">
        <ele>42</ele>
        <time>2007-12-24T03:28:34Z</time>
      </trkpt>
      <trkpt lat="47.7538" lon="-2.00258">
        <ele>42</ele>
        <time>2007-12-24T03:28:35Z</time>
      </trkpt>
      <trkpt lat="47.75383" lon="-2.00258">
        <ele>42</ele>
        <time>2007-12-24T03:28:36Z</time>
      </trkpt>
      <trkpt lat="47.75397" lon="-2.00255">
        <ele>42</ele>
        <time>2007-12-24T03:28:41Z</time>
      </trkpt>
      <trkpt lat="47.75418" lon="-2.00252">
        <ele>43</ele>
        <time>2007-12-24T03:28:50Z</time>
      </trkpt>
      <trkpt lat="47.75437" lon="-2.00246">
        <ele>43</ele>
        <time>2007-12-24T03:28:58Z</time>
      </trkpt>
      <trkpt lat="47.75465" lon="-2.00238">
        <ele>44</ele>
        <time>2007-12-24T03:29:09Z</time>
      </trkpt>
      <trkpt lat="47.75508" lon="-2.00224">
        <ele>43</ele>
        <time>2007-12-24T03:29:27Z</time>
      </trkpt>
      <trkpt lat="47.7553" lon="-2.00221">
        <ele>43</ele>
        <time>2007-12-24T03:29:36Z</time>
      </trkpt>
      <trkpt lat="47.75537" lon="-2.00232">
        <ele>43</ele>
        <time>2007-12-24T03:29:40Z</time>
      </trkpt>
      <trkpt lat="47.75542" lon="-2.00252">
        <ele>43</ele>
        <time>2007-12-24T03:29:46Z</time>
      </trkpt>
      <trkpt lat="47.75554" lon="-2.00292">
        <ele>44</ele>
        <time>2007-12-24T03:29:57Z</time>
      </trkpt>
      <trkpt lat="47.75563" lon="-2.00324">
        <ele>45</ele>
        <time>2007-12-24T03:30:07Z</time>
      </trkpt>
      <trkpt lat="47.75572" lon="-2.00354">
        <ele>46</ele>
        <time>2007-12-24T03:30:16Z</time>
      </trkpt>
      <trkpt lat="47.75573" lon="-2.00364">
        <ele>46</ele>
        <time>2007-12-24T03:30:18Z</time>
      </trkpt>
      <trkpt lat="47.75571" lon="-2.00366">
        <ele>46</ele>
        <time>2007-12-24T03:30:19Z</time>
      </trkpt>
      <trkpt lat="47.75575" lon="-2.00368">
        <ele>46</ele>
        <time>2007-12-24T03:30:21Z</time>
      </trkpt>
      <trkpt lat="47.75583" lon="-2.00376">
        <ele>46</ele>
        <time>2007-12-24T03:30:25Z</time>
      </trkpt>
      <trkpt lat="47.75595" lon="-2.00378">
        <ele>47</ele>
        <time>2007-12-24T03:30:29Z</time>
      </trkpt>
      <trkpt lat="47.75614" lon="-2.0038">
        <ele>47</ele>
        <time>2007-12-24T03:30:37Z</time>
      </trkpt>
      <trkpt lat="47.75648" lon="-2.0038">
        <ele>49</ele>
        <time>2007-12-24T03:30:51Z</time>
      </trkpt>
      <trkpt lat="47.7568" lon="-2.00382">
        <ele>50</ele>
        <time>2007-12-24T03:31:04Z</time>
      </trkpt>
      <trkpt lat="47.75708" lon="-2.00384">
        <ele>51</ele>
        <time>2007-12-24T03:31:15Z</time>
      </trkpt>
      <trkpt lat="47.75753" lon="-2.00383">
        <ele>51</ele>
        <time>2007-12-24T03:31:33Z</time>
      </trkpt>
      <trkpt lat="47.75765" lon="-2.00368">
        <ele>51</ele>
        <time>2007-12-24T03:31:39Z</time>
      </trkpt>
      <trkpt lat="47.75766" lon="-2.00332">
        <ele>50</ele>
        <time>2007-12-24T03:31:49Z</time>
      </trkpt>
      <trkpt lat="47.75772" lon="-2.00271">
        <ele>49</ele>
        <time>2007-12-24T03:32:05Z</time>
      </trkpt>
      <trkpt lat="47.75779" lon="-2.00184">
        <ele>46</ele>
        <time>2007-12-24T03:32:29Z</time>
      </trkpt>
      <trkpt lat="47.75783" lon="-2.0011">
        <ele>43</ele>
        <time>2007-12-24T03:32:49Z</time>
      </trkpt>
      <trkpt lat="47.75785" lon="-2.00097">
        <ele>42</ele>
        <time>2007-12-24T03:32:52Z</time>
      </trkpt>
      <trkpt lat="47.75791" lon="-1.99997">
        <ele>38</ele>
        <time>2007-12-24T03:33:19Z</time>
      </trkpt>
      <trkpt lat="47.75793" lon="-1.99987">
        <ele>38</ele>
        <time>2007-12-24T03:33:22Z</time>
      </trkpt>
      <trkpt lat="47.7581" lon="-1.9996">
        <ele>36</ele>
        <time>2007-12-24T03:33:32Z</time>
      </trkpt>
      <trkpt lat="47.75835" lon="-1.99945">
        <ele>33</ele>
        <time>2007-12-24T03:33:43Z</time>
      </trkpt>
      <trkpt lat="47.75846" lon="-1.99918">
        <ele>30</ele>
        <time>2007-12-24T03:33:51Z</time>
      </trkpt>
      <trkpt lat="47.75855" lon="-1.99858">
        <ele>31</ele>
        <time>2007-12-24T03:34:08Z</time>
      </trkpt>
      <trkpt lat="47.75865" lon="-1.9984">
        <ele>31</ele>
        <time>2007-12-24T03:34:14Z</time>
      </trkpt>
      <trkpt lat="47.75877" lon="-1.99839">
        <ele>31</ele>
        <time>2007-12-24T03:34:19Z</time>
      </trkpt>
      <trkpt lat="47.75887" lon="-1.9984">
        <ele>30</ele>
        <time>2007-12-24T03:34:23Z</time>
      </trkpt>
      <trkpt lat="47.75898" lon="-1.99844">
        <ele>30</ele>
        <time>2007-12-24T03:34:28Z</time>
      </trkpt>
      <trkpt lat="47.75939" lon="-1.99854">
        <ele>27</ele>
        <time>2007-12-24T03:34:44Z</time>
      </trkpt>
      <trkpt lat="47.7597" lon="-1.99848">
        <ele>25</ele>
        <time>2007-12-24T03:34:57Z</time>
      </trkpt>
      <trkpt lat="47.75987" lon="-1.99837">
        <ele>25</ele>
        <time>2007-12-24T03:35:04Z</time>
      </trkpt>
      <trkpt lat="47.76002" lon="-1.99822">
        <ele>24</ele>
        <time>2007-12-24T03:35:11Z</time>
      </trkpt>
      <trkpt lat="47.76016" lon="-1.99808">
        <ele>24</ele>
        <time>2007-12-24T03:35:18Z</time>
      </trkpt>
      <trkpt lat="47.76035" lon="-1.99777">
        <ele>26</ele>
        <time>2007-12-24T03:35:29Z</time>
      </trkpt>
      <trkpt lat="47.76045" lon="-1.99756">
        <ele>28</ele>
        <time>2007-12-24T03:35:36Z</time>
      </trkpt>
      <trkpt lat="47.76055" lon="-1.9973">
        <ele>29</ele>
        <time>2007-12-24T03:35:44Z</time>
      </trkpt>
      <trkpt lat="47.76061" lon="-1.99714">
        <ele>31</ele>
        <time>2007-12-24T03:35:49Z</time>
      </trkpt>
      <trkpt lat="47.7607" lon="-1.99694">
        <ele>33</ele>
        <time>2007-12-24T03:35:56Z</time>
      </trkpt>
      <trkpt lat="47.76073" lon="-1.99687">
        <ele>34</ele>
        <time>2007-12-24T03:35:58Z</time>
      </trkpt>
      <trkpt lat="47.76078" lon="-1.99683">
        <ele>34</ele>
        <time>2007-12-24T03:36:00Z</time>
      </trkpt>
      <trkpt lat="47.76088" lon="-1.99695">
        <ele>32</ele>
        <time>2007-12-24T03:36:06Z</time>
      </trkpt>
      <trkpt lat="47.76093" lon="-1.99717">
        <ele>30</ele>
        <time>2007-12-24T03:36:12Z</time>
      </trkpt>
      <trkpt lat="47.76105" lon="-1.99761">
        <ele>28</ele>
        <time>2007-12-24T03:36:25Z</time>
      </trkpt>
      <trkpt lat="47.7612" lon="-1.99784">
        <ele>29</ele>
        <time>2007-12-24T03:36:33Z</time>
      </trkpt>
      <trkpt lat="47.76131" lon="-1.99789">
        <ele>30</ele>
        <time>2007-12-24T03:36:38Z</time>
      </trkpt>
      <trkpt lat="47.7613" lon="-1.9979">
        <ele>30</ele>
        <time>2007-12-24T03:36:38Z</time>
      </trkpt>
      <trkpt lat="47.76133" lon="-1.99791">
        <ele>30</ele>
        <time>2007-12-24T03:36:40Z</time>
      </trkpt>
      <trkpt lat="47.76133" lon="-1.99794">
        <ele>30</ele>
        <time>2007-12-24T03:36:40Z</time>
      </trkpt>
      <trkpt lat="47.76137" lon="-1.99797">
        <ele>31</ele>
        <time>2007-12-24T03:36:42Z</time>
      </trkpt>
      <trkpt lat="47.76139" lon="-1.99797">
        <ele>31</ele>
        <time>2007-12-24T03:36:43Z</time>
      </trkpt>
      <trkpt lat="47.76139" lon="-1.99795">
        <ele>31</ele>
        <time>2007-12-24T03:36:43Z</time>
      </trkpt>
      <trkpt lat="47.7614" lon="-1.99791">
        <ele>31</ele>
        <time>2007-12-24T03:36:44Z</time>
      </trkpt>
      <trkpt lat="47.76147" lon="-1.99796">
        <ele>32</ele>
        <time>2007-12-24T03:36:47Z</time>
      </trkpt>
      <trkpt lat="47.7615" lon="-1.998">
        <ele>32</ele>
        <time>2007-12-24T03:36:49Z</time>
      </trkpt>
      <trkpt lat="47.7616" lon="-1.99799">
        <ele>33</ele>
        <time>2007-12-24T03:36:53Z</time>
      </trkpt>
      <trkpt lat="47.76174" lon="-1.99799">
        <ele>34</ele>
        <time>2007-12-24T03:36:58Z</time>
      </trkpt>
      <trkpt lat="47.76186" lon="-1.99805">
        <ele>35</ele>
        <time>2007-12-24T03:37:04Z</time>
      </trkpt>
      <trkpt lat="47.762" lon="-1.99815">
        <ele>32</ele>
        <time>2007-12-24T03:37:10Z</time>
      </trkpt>
      <trkpt lat="47.76214" lon="-1.99815">
        <ele>30</ele>
        <time>2007-12-24T03:37:15Z</time>
      </trkpt>
      <trkpt lat="47.76218" lon="-1.99803">
        <ele>30</ele>
        <time>2007-12-24T03:37:19Z</time>
      </trkpt>
      <trkpt lat="47.76219" lon="-1.998">
        <ele>30</ele>
        <time>2007-12-24T03:37:20Z</time>
      </trkpt>
      <trkpt lat="47.76219" lon="-1.99776">
        <ele>29</ele>
        <time>2007-12-24T03:37:26Z</time>
      </trkpt>
      <trkpt lat="47.76218" lon="-1.99755">
        <ele>29</ele>
        <time>2007-12-24T03:37:32Z</time>
      </trkpt>
      <trkpt lat="47.76218" lon="-1.9974">
        <ele>28</ele>
        <time>2007-12-24T03:37:36Z</time>
      </trkpt>
      <trkpt lat="47.76223" lon="-1.99716">
        <ele>27</ele>
        <time>2007-12-24T03:37:43Z</time>
      </trkpt>
      <trkpt lat="47.76225" lon="-1.99693">
        <ele>26</ele>
        <time>2007-12-24T03:37:49Z</time>
      </trkpt>
      <trkpt lat="47.76223" lon="-1.99683">
        <ele>26</ele>
        <time>2007-12-24T03:37:52Z</time>
      </trkpt>
      <trkpt lat="47.76217" lon="-1.9966">
        <ele>28</ele>
        <time>2007-12-24T03:37:58Z</time>
      </trkpt>
      <trkpt lat="47.76212" lon="-1.99634">
        <ele>29</ele>
        <time>2007-12-24T03:38:06Z</time>
      </trkpt>
      <trkpt lat="47.76205" lon="-1.99598">
        <ele>31</ele>
        <time>2007-12-24T03:38:16Z</time>
      </trkpt>
      <trkpt lat="47.76203" lon="-1.99564">
        <ele>31</ele>
        <time>2007-12-24T03:38:25Z</time>
      </trkpt>
      <trkpt lat="47.76203" lon="-1.99536">
        <ele>32</ele>
        <time>2007-12-24T03:38:32Z</time>
      </trkpt>
      <trkpt lat="47.76206" lon="-1.99515">
        <ele>31</ele>
        <time>2007-12-24T03:38:38Z</time>
      </trkpt>
      <trkpt lat="47.76208" lon="-1.99495">
        <ele>30</ele>
        <time>2007-12-24T03:38:44Z</time>
      </trkpt>
      <trkpt lat="47.76208" lon="-1.99494">
        <ele>30</ele>
        <time>2007-12-24T03:38:44Z</time>
      </trkpt>
      <trkpt lat="47.76208" lon="-1.99495">
        <ele>30</ele>
        <time>2007-12-24T03:38:45Z</time>
      </trkpt>
      <trkpt lat="47.7621" lon="-1.99495">
        <ele>30</ele>
        <time>2007-12-24T03:38:45Z</time>
      </trkpt>
      <trkpt lat="47.76208" lon="-1.99488">
        <ele>30</ele>
        <time>2007-12-24T03:38:47Z</time>
      </trkpt>
      <trkpt lat="47.7621" lon="-1.99488">
        <ele>30</ele>
        <time>2007-12-24T03:38:48Z</time>
      </trkpt>
      <trkpt lat="47.7621" lon="-1.99487">
        <ele>30</ele>
        <time>2007-12-24T03:38:48Z</time>
      </trkpt>
      <trkpt lat="47.76222" lon="-1.99471">
        <ele>29</ele>
        <time>2007-12-24T03:38:55Z</time>
      </trkpt>
      <trkpt lat="47.76236" lon="-1.99444">
        <ele>28</ele>
        <time>2007-12-24T03:39:04Z</time>
      </trkpt>
      <trkpt lat="47.76249" lon="-1.99413">
        <ele>27</ele>
        <time>2007-12-24T03:39:14Z</time>
      </trkpt>
      <trkpt lat="47.76252" lon="-1.99403">
        <ele>28</ele>
        <time>2007-12-24T03:39:17Z</time>
      </trkpt>
      <trkpt lat="47.76272" lon="-1.99366">
        <ele>30</ele>
        <time>2007-12-24T03:39:29Z</time>
      </trkpt>
      <trkpt lat="47.76273" lon="-1.99363">
        <ele>30</ele>
        <time>2007-12-24T03:39:30Z</time>
      </trkpt>
      <trkpt lat="47.7629" lon="-1.99367">
        <ele>29</ele>
        <time>2007-12-24T03:39:37Z</time>
      </trkpt>
      <trkpt lat="47.76293" lon="-1.99368">
        <ele>29</ele>
        <time>2007-12-24T03:39:39Z</time>
      </trkpt>
      <trkpt lat="47.76292" lon="-1.99381">
        <ele>30</ele>
        <time>2007-12-24T03:39:42Z</time>
      </trkpt>
      <trkpt lat="47.7629" lon="-1.99404">
        <ele>31</ele>
        <time>2007-12-24T03:39:48Z</time>
      </trkpt>
      <trkpt lat="47.7629" lon="-1.99407">
        <ele>31</ele>
        <time>2007-12-24T03:39:49Z</time>
      </trkpt>
      <trkpt lat="47.76288" lon="-1.99435">
        <ele>32</ele>
        <time>2007-12-24T03:39:57Z</time>
      </trkpt>
      <trkpt lat="47.76289" lon="-1.99457">
        <ele>34</ele>
        <time>2007-12-24T03:40:03Z</time>
      </trkpt>
      <trkpt lat="47.76283" lon="-1.99476">
        <ele>34</ele>
        <time>2007-12-24T03:40:08Z</time>
      </trkpt>
      <trkpt lat="47.76276" lon="-1.99499">
        <ele>33</ele>
        <time>2007-12-24T03:40:15Z</time>
      </trkpt>
      <trkpt lat="47.76272" lon="-1.99516">
        <ele>32</ele>
        <time>2007-12-24T03:40:20Z</time>
      </trkpt>
      <trkpt lat="47.76267" lon="-1.9953">
        <ele>31</ele>
        <time>2007-12-24T03:40:24Z</time>
      </trkpt>
      <trkpt lat="47.76265" lon="-1.99543">
        <ele>31</ele>
        <time>2007-12-24T03:40:28Z</time>
      </trkpt>
      <trkpt lat="47.76265" lon="-1.99555">
        <ele>31</ele>
        <time>2007-12-24T03:40:31Z</time>
      </trkpt>
      <trkpt lat="47.76256" lon="-1.9957">
        <ele>29</ele>
        <time>2007-12-24T03:40:36Z</time>
      </trkpt>
      <trkpt lat="47.76255" lon="-1.99585">
        <ele>28</ele>
        <time>2007-12-24T03:40:40Z</time>
      </trkpt>
      <trkpt lat="47.76255" lon="-1.99606">
        <ele>28</ele>
        <time>2007-12-24T03:40:46Z</time>
      </trkpt>
      <trkpt lat="47.76255" lon="-1.99611">
        <ele>28</ele>
        <time>2007-12-24T03:40:48Z</time>
      </trkpt>
      <trkpt lat="47.76255" lon="-1.99643">
        <ele>27</ele>
        <time>2007-12-24T03:40:56Z</time>
      </trkpt>
      <trkpt lat="47.76255" lon="-1.99665">
        <ele>26</ele>
        <time>2007-12-24T03:41:02Z</time>
      </trkpt>
      <trkpt lat="47.76258" lon="-1.99679">
        <ele>26</ele>
        <time>2007-12-24T03:41:06Z</time>
      </trkpt>
      <trkpt lat="47.76266" lon="-1.99691">
        <ele>27</ele>
        <time>2007-12-24T03:41:11Z</time>
      </trkpt>
      <trkpt lat="47.76266" lon="-1.99694">
        <ele>27</ele>
        <time>2007-12-24T03:41:11Z</time>
      </trkpt>
      <trkpt lat="47.7627" lon="-1.99697">
        <ele>28</ele>
        <time>2007-12-24T03:41:13Z</time>
      </trkpt>
      <trkpt lat="47.76278" lon="-1.99704">
        <ele>28</ele>
        <time>2007-12-24T03:41:17Z</time>
      </trkpt>
      <trkpt lat="47.76278" lon="-1.99707">
        <ele>28</ele>
        <time>2007-12-24T03:41:18Z</time>
      </trkpt>
      <trkpt lat="47.76286" lon="-1.9971">
        <ele>28</ele>
        <time>2007-12-24T03:41:21Z</time>
      </trkpt>
      <trkpt lat="47.76288" lon="-1.997">
        <ele>29</ele>
        <time>2007-12-24T03:41:23Z</time>
      </trkpt>
      <trkpt lat="47.7629" lon="-1.99695">
        <ele>29</ele>
        <time>2007-12-24T03:41:25Z</time>
      </trkpt>
      <trkpt lat="47.76292" lon="-1.99689">
        <ele>29</ele>
        <time>2007-12-24T03:41:27Z</time>
      </trkpt>
      <trkpt lat="47.76299" lon="-1.99673">
        <ele>30</ele>
        <time>2007-12-24T03:41:32Z</time>
      </trkpt>
      <trkpt lat="47.7631" lon="-1.9966">
        <ele>30</ele>
        <time>2007-12-24T03:41:38Z</time>
      </trkpt>
      <trkpt lat="47.7632" lon="-1.99642">
        <ele>32</ele>
        <time>2007-12-24T03:41:44Z</time>
      </trkpt>
      <trkpt lat="47.7632" lon="-1.99626">
        <ele>34</ele>
        <time>2007-12-24T03:41:48Z</time>
      </trkpt>
      <trkpt lat="47.76317" lon="-1.99605">
        <ele>37</ele>
        <time>2007-12-24T03:41:54Z</time>
      </trkpt>
      <trkpt lat="47.76315" lon="-1.99585">
        <ele>38</ele>
        <time>2007-12-24T03:42:00Z</time>
      </trkpt>
      <trkpt lat="47.7632" lon="-1.99569">
        <ele>40</ele>
        <time>2007-12-24T03:42:04Z</time>
      </trkpt>
      <trkpt lat="47.7633" lon="-1.99543">
        <ele>43</ele>
        <time>2007-12-24T03:42:12Z</time>
      </trkpt>
      <trkpt lat="47.76342" lon="-1.99535">
        <ele>44</ele>
        <time>2007-12-24T03:42:17Z</time>
      </trkpt>
      <trkpt lat="47.76347" lon="-1.99527">
        <ele>44</ele>
        <time>2007-12-24T03:42:20Z</time>
      </trkpt>
      <trkpt lat="47.76352" lon="-1.99503">
        <ele>46</ele>
        <time>2007-12-24T03:42:27Z</time>
      </trkpt>
      <trkpt lat="47.76364" lon="-1.9948">
        <ele>48</ele>
        <time>2007-12-24T03:42:35Z</time>
      </trkpt>
      <trkpt lat="47.76373" lon="-1.99465">
        <ele>49</ele>
        <time>2007-12-24T03:42:41Z</time>
      </trkpt>
      <trkpt lat="47.76395" lon="-1.9945">
        <ele>51</ele>
        <time>2007-12-24T03:42:50Z</time>
      </trkpt>
      <trkpt lat="47.7641" lon="-1.9944">
        <ele>52</ele>
        <time>2007-12-24T03:42:57Z</time>
      </trkpt>
      <trkpt lat="47.76428" lon="-1.99452">
        <ele>52</ele>
        <time>2007-12-24T03:43:05Z</time>
      </trkpt>
      <trkpt lat="47.76447" lon="-1.9946">
        <ele>52</ele>
        <time>2007-12-24T03:43:12Z</time>
      </trkpt>
      <trkpt lat="47.76465" lon="-1.9947">
        <ele>51</ele>
        <time>2007-12-24T03:43:20Z</time>
      </trkpt>
      <trkpt lat="47.76479" lon="-1.99476">
        <ele>50</ele>
        <time>2007-12-24T03:43:26Z</time>
      </trkpt>
      <trkpt lat="47.76495" lon="-1.99479">
        <ele>50</ele>
        <time>2007-12-24T03:43:32Z</time>
      </trkpt>
      <trkpt lat="47.76507" lon="-1.99472">
        <ele>52</ele>
        <time>2007-12-24T03:43:37Z</time>
      </trkpt>
      <trkpt lat="47.7652" lon="-1.99469">
        <ele>52</ele>
        <time>2007-12-24T03:43:43Z</time>
      </trkpt>
      <trkpt lat="47.76524" lon="-1.99465">
        <ele>53</ele>
        <time>2007-12-24T03:43:45Z</time>
      </trkpt>
      <trkpt lat="47.76535" lon="-1.99463">
        <ele>54</ele>
        <time>2007-12-24T03:43:49Z</time>
      </trkpt>
      <trkpt lat="47.76538" lon="-1.99465">
        <ele>53</ele>
        <time>2007-12-24T03:43:50Z</time>
      </trkpt>
      <trkpt lat="47.76545" lon="-1.99468">
        <ele>53</ele>
        <time>2007-12-24T03:43:54Z</time>
      </trkpt>
      <trkpt lat="47.76567" lon="-1.9948">
        <ele>52</ele>
        <time>2007-12-24T03:44:03Z</time>
      </trkpt>
      <trkpt lat="47.7659" lon="-1.99496">
        <ele>53</ele>
        <time>2007-12-24T03:44:13Z</time>
      </trkpt>
      <trkpt lat="47.766" lon="-1.99498">
        <ele>54</ele>
        <time>2007-12-24T03:44:17Z</time>
      </trkpt>
      <trkpt lat="47.7661" lon="-1.99514">
        <ele>53</ele>
        <time>2007-12-24T03:44:23Z</time>
      </trkpt>
      <trkpt lat="47.76613" lon="-1.99523">
        <ele>51</ele>
        <time>2007-12-24T03:44:26Z</time>
      </trkpt>
      <trkpt lat="47.76613" lon="-1.99522">
        <ele>51</ele>
        <time>2007-12-24T03:44:26Z</time>
      </trkpt>
      <trkpt lat="47.76611" lon="-1.99522">
        <ele>51</ele>
        <time>2007-12-24T03:44:27Z</time>
      </trkpt>
      <trkpt lat="47.76611" lon="-1.99521">
        <ele>51</ele>
        <time>2007-12-24T03:44:27Z</time>
      </trkpt>
      <trkpt lat="47.76613" lon="-1.99518">
        <ele>52</ele>
        <time>2007-12-24T03:44:28Z</time>
      </trkpt>
      <trkpt lat="47.76615" lon="-1.99518">
        <ele>53</ele>
        <time>2007-12-24T03:44:29Z</time>
      </trkpt>
      <trkpt lat="47.76615" lon="-1.99516">
        <ele>53</ele>
        <time>2007-12-24T03:44:29Z</time>
      </trkpt>
      <trkpt lat="47.76617" lon="-1.99515">
        <ele>54</ele>
        <time>2007-12-24T03:44:30Z</time>
      </trkpt>
      <trkpt lat="47.76617" lon="-1.99498">
        <ele>56</ele>
        <time>2007-12-24T03:44:35Z</time>
      </trkpt>
      <trkpt lat="47.76617" lon="-1.99468">
        <ele>59</ele>
        <time>2007-12-24T03:44:43Z</time>
      </trkpt>
      <trkpt lat="47.76613" lon="-1.99438">
        <ele>62</ele>
        <time>2007-12-24T03:44:51Z</time>
      </trkpt>
      <trkpt lat="47.76613" lon="-1.99432">
        <ele>62</ele>
        <time>2007-12-24T03:44:52Z</time>
      </trkpt>
      <trkpt lat="47.76609" lon="-1.99411">
        <ele>63</ele>
        <time>2007-12-24T03:44:58Z</time>
      </trkpt>
      <trkpt lat="47.76602" lon="-1.99383">
        <ele>63</ele>
        <time>2007-12-24T03:45:06Z</time>
      </trkpt>
      <trkpt lat="47.76584" lon="-1.9935">
        <ele>63</ele>
        <time>2007-12-24T03:45:18Z</time>
      </trkpt>
      <trkpt lat="47.76575" lon="-1.99342">
        <ele>63</ele>
        <time>2007-12-24T03:45:22Z</time>
      </trkpt>
      <trkpt lat="47.76565" lon="-1.99319">
        <ele>63</ele>
        <time>2007-12-24T03:45:29Z</time>
      </trkpt>
      <trkpt lat="47.76562" lon="-1.99287">
        <ele>63</ele>
        <time>2007-12-24T03:45:38Z</time>
      </trkpt>
      <trkpt lat="47.76555" lon="-1.99239">
        <ele>63</ele>
        <time>2007-12-24T03:45:51Z</time>
      </trkpt>
      <trkpt lat="47.76542" lon="-1.99196">
        <ele>62</ele>
        <time>2007-12-24T03:46:04Z</time>
      </trkpt>
      <trkpt lat="47.7653" lon="-1.99168">
        <ele>61</ele>
        <time>2007-12-24T03:46:13Z</time>
      </trkpt>
      <trkpt lat="47.76523" lon="-1.99127">
        <ele>60</ele>
        <time>2007-12-24T03:46:24Z</time>
      </trkpt>
      <trkpt lat="47.76521" lon="-1.99107">
        <ele>60</ele>
        <time>2007-12-24T03:46:30Z</time>
      </trkpt>
      <trkpt lat="47.76527" lon="-1.99056">
        <ele>59</ele>
        <time>2007-12-24T03:46:44Z</time>
      </trkpt>
      <trkpt lat="47.7653" lon="-1.99002">
        <ele>59</ele>
        <time>2007-12-24T03:46:58Z</time>
      </trkpt>
      <trkpt lat="47.76537" lon="-1.98936">
        <ele>58</ele>
        <time>2007-12-24T03:47:16Z</time>
      </trkpt>
      <trkpt lat="47.76542" lon="-1.98861">
        <ele>57</ele>
        <time>2007-12-24T03:47:36Z</time>
      </trkpt>
      <trkpt lat="47.76546" lon="-1.9879">
        <ele>56</ele>
        <time>2007-12-24T03:47:56Z</time>
      </trkpt>
      <trkpt lat="47.7655" lon="-1.98766">
        <ele>56</ele>
        <time>2007-12-24T03:48:02Z</time>
      </trkpt>
      <trkpt lat="47.7655" lon="-1.98742">
        <ele>56</ele>
        <time>2007-12-24T03:48:09Z</time>
      </trkpt>
      <trkpt lat="47.76557" lon="-1.98665">
        <ele>55</ele>
        <time>2007-12-24T03:48:30Z</time>
      </trkpt>
      <trkpt lat="47.7656" lon="-1.98625">
        <ele>55</ele>
        <time>2007-12-24T03:48:41Z</time>
      </trkpt>
      <trkpt lat="47.76552" lon="-1.98586">
        <ele>55</ele>
        <time>2007-12-24T03:48:51Z</time>
      </trkpt>
      <trkpt lat="47.76545" lon="-1.9857">
        <ele>55</ele>
        <time>2007-12-24T03:48:56Z</time>
      </trkpt>
      <trkpt lat="47.76534" lon="-1.98552">
        <ele>55</ele>
        <time>2007-12-24T03:49:03Z</time>
      </trkpt>
      <trkpt lat="47.76518" lon="-1.98541">
        <ele>55</ele>
        <time>2007-12-24T03:49:10Z</time>
      </trkpt>
      <trkpt lat="47.7649" lon="-1.98541">
        <ele>55</ele>
        <time>2007-12-24T03:49:21Z</time>
      </trkpt>
      <trkpt lat="47.76483" lon="-1.98526">
        <ele>54</ele>
        <time>2007-12-24T03:49:26Z</time>
      </trkpt>
      <trkpt lat="47.76478" lon="-1.98505">
        <ele>55</ele>
        <time>2007-12-24T03:49:32Z</time>
      </trkpt>
      <trkpt lat="47.76478" lon="-1.98473">
        <ele>55</ele>
        <time>2007-12-24T03:49:41Z</time>
      </trkpt>
      <trkpt lat="47.7648" lon="-1.98457">
        <ele>55</ele>
        <time>2007-12-24T03:49:45Z</time>
      </trkpt>
      <trkpt lat="47.76477" lon="-1.98429">
        <ele>54</ele>
        <time>2007-12-24T03:49:53Z</time>
      </trkpt>
      <trkpt lat="47.76462" lon="-1.98393">
        <ele>54</ele>
        <time>2007-12-24T03:50:04Z</time>
      </trkpt>
      <trkpt lat="47.76458" lon="-1.98353">
        <ele>54</ele>
        <time>2007-12-24T03:50:15Z</time>
      </trkpt>
      <trkpt lat="47.7646" lon="-1.98328">
        <ele>56</ele>
        <time>2007-12-24T03:50:22Z</time>
      </trkpt>
      <trkpt lat="47.7646" lon="-1.98302">
        <ele>57</ele>
        <time>2007-12-24T03:50:29Z</time>
      </trkpt>
      <trkpt lat="47.76468" lon="-1.9829">
        <ele>58</ele>
        <time>2007-12-24T03:50:33Z</time>
      </trkpt>
      <trkpt lat="47.7648" lon="-1.98277">
        <ele>59</ele>
        <time>2007-12-24T03:50:39Z</time>
      </trkpt>
      <trkpt lat="47.76487" lon="-1.98255">
        <ele>60</ele>
        <time>2007-12-24T03:50:46Z</time>
      </trkpt>
      <trkpt lat="47.76508" lon="-1.98241">
        <ele>62</ele>
        <time>2007-12-24T03:50:55Z</time>
      </trkpt>
      <trkpt lat="47.76522" lon="-1.98224">
        <ele>63</ele>
        <time>2007-12-24T03:51:02Z</time>
      </trkpt>
      <trkpt lat="47.76523" lon="-1.98197">
        <ele>64</ele>
        <time>2007-12-24T03:51:09Z</time>
      </trkpt>
      <trkpt lat="47.76522" lon="-1.98142">
        <ele>65</ele>
        <time>2007-12-24T03:51:24Z</time>
      </trkpt>
      <trkpt lat="47.76513" lon="-1.98108">
        <ele>65</ele>
        <time>2007-12-24T03:51:34Z</time>
      </trkpt>
      <trkpt lat="47.765" lon="-1.98067">
        <ele>65</ele>
        <time>2007-12-24T03:51:46Z</time>
      </trkpt>
      <trkpt lat="47.76489" lon="-1.98059">
        <ele>64</ele>
        <time>2007-12-24T03:51:51Z</time>
      </trkpt>
      <trkpt lat="47.76472" lon="-1.98057">
        <ele>63</ele>
        <time>2007-12-24T03:51:58Z</time>
      </trkpt>
      <trkpt lat="47.76463" lon="-1.98057">
        <ele>63</ele>
        <time>2007-12-24T03:52:01Z</time>
      </trkpt>
      <trkpt lat="47.76458" lon="-1.98073">
        <ele>62</ele>
        <time>2007-12-24T03:52:06Z</time>
      </trkpt>
      <trkpt lat="47.76458" lon="-1.98085">
        <ele>62</ele>
        <time>2007-12-24T03:52:09Z</time>
      </trkpt>
      <trkpt lat="47.76457" lon="-1.98109">
        <ele>62</ele>
        <time>2007-12-24T03:52:16Z</time>
      </trkpt>
      <trkpt lat="47.76457" lon="-1.98106">
        <ele>62</ele>
        <time>2007-12-24T03:52:17Z</time>
      </trkpt>
      <trkpt lat="47.76457" lon="-1.98097">
        <ele>62</ele>
        <time>2007-12-24T03:52:19Z</time>
      </trkpt>
      <trkpt lat="47.76458" lon="-1.98072">
        <ele>62</ele>
        <time>2007-12-24T03:52:26Z</time>
      </trkpt>
      <trkpt lat="47.76463" lon="-1.98059">
        <ele>63</ele>
        <time>2007-12-24T03:52:30Z</time>
      </trkpt>
      <trkpt lat="47.7648" lon="-1.9806">
        <ele>64</ele>
        <time>2007-12-24T03:52:36Z</time>
      </trkpt>
      <trkpt lat="47.76493" lon="-1.98059">
        <ele>65</ele>
        <time>2007-12-24T03:52:42Z</time>
      </trkpt>
      <trkpt lat="47.765" lon="-1.98068">
        <ele>65</ele>
        <time>2007-12-24T03:52:46Z</time>
      </trkpt>
      <trkpt lat="47.76515" lon="-1.9811">
        <ele>65</ele>
        <time>2007-12-24T03:52:59Z</time>
      </trkpt>
      <trkpt lat="47.76522" lon="-1.98132">
        <ele>65</ele>
        <time>2007-12-24T03:53:05Z</time>
      </trkpt>
      <trkpt lat="47.76522" lon="-1.98133">
        <ele>65</ele>
        <time>2007-12-24T03:53:05Z</time>
      </trkpt>
      <trkpt lat="47.76522" lon="-1.98136">
        <ele>65</ele>
        <time>2007-12-24T03:53:06Z</time>
      </trkpt>
      <trkpt lat="47.7652" lon="-1.98133">
        <ele>65</ele>
        <time>2007-12-24T03:53:07Z</time>
      </trkpt>
      <trkpt lat="47.7652" lon="-1.98132">
        <ele>65</ele>
        <time>2007-12-24T03:53:07Z</time>
      </trkpt>
      <trkpt lat="47.76518" lon="-1.9813">
        <ele>65</ele>
        <time>2007-12-24T03:53:08Z</time>
      </trkpt>
      <trkpt lat="47.76518" lon="-1.98128">
        <ele>65</ele>
        <time>2007-12-24T03:53:09Z</time>
      </trkpt>
      <trkpt lat="47.76518" lon="-1.98126">
        <ele>65</ele>
        <time>2007-12-24T03:53:09Z</time>
      </trkpt>
      <trkpt lat="47.76517" lon="-1.9812">
        <ele>65</ele>
        <time>2007-12-24T03:53:11Z</time>
      </trkpt>
      <trkpt lat="47.7651" lon="-1.98099">
        <ele>65</ele>
        <time>2007-12-24T03:53:17Z</time>
      </trkpt>
      <trkpt lat="47.76501" lon="-1.98072">
        <ele>65</ele>
        <time>2007-12-24T03:53:25Z</time>
      </trkpt>
      <trkpt lat="47.765" lon="-1.98061">
        <ele>65</ele>
        <time>2007-12-24T03:53:28Z</time>
      </trkpt>
      <trkpt lat="47.7649" lon="-1.98056">
        <ele>64</ele>
        <time>2007-12-24T03:53:32Z</time>
      </trkpt>
      <trkpt lat="47.76467" lon="-1.98057">
        <ele>63</ele>
        <time>2007-12-24T03:53:42Z</time>
      </trkpt>
      <trkpt lat="47.76454" lon="-1.98056">
        <ele>62</ele>
        <time>2007-12-24T03:53:47Z</time>
      </trkpt>
      <trkpt lat="47.76445" lon="-1.98032">
        <ele>62</ele>
        <time>2007-12-24T03:53:54Z</time>
      </trkpt>
      <trkpt lat="47.76445" lon="-1.98026">
        <ele>62</ele>
        <time>2007-12-24T03:53:56Z</time>
      </trkpt>
      <trkpt lat="47.76447" lon="-1.97996">
        <ele>63</ele>
        <time>2007-12-24T03:54:04Z</time>
      </trkpt>
      <trkpt lat="47.76448" lon="-1.97977">
        <ele>63</ele>
        <time>2007-12-24T03:54:09Z</time>
      </trkpt>
      <trkpt lat="47.76448" lon="-1.9797">
        <ele>63</ele>
        <time>2007-12-24T03:54:11Z</time>
      </trkpt>
      <trkpt lat="47.76448" lon="-1.97965">
        <ele>64</ele>
        <time>2007-12-24T03:54:12Z</time>
      </trkpt>
      <trkpt lat="47.7645" lon="-1.97945">
        <ele>64</ele>
        <time>2007-12-24T03:54:18Z</time>
      </trkpt>
      <trkpt lat="47.76453" lon="-1.97893">
        <ele>65</ele>
        <time>2007-12-24T03:54:32Z</time>
      </trkpt>
      <trkpt lat="47.76459" lon="-1.97829">
        <ele>67</ele>
        <time>2007-12-24T03:54:49Z</time>
      </trkpt>
      <trkpt lat="47.76464" lon="-1.97768">
        <ele>68</ele>
        <time>2007-12-24T03:55:06Z</time>
      </trkpt>
      <trkpt lat="47.76467" lon="-1.9771">
        <ele>69</ele>
        <time>2007-12-24T03:55:22Z</time>
      </trkpt>
      <trkpt lat="47.76468" lon="-1.97696">
        <ele>69</ele>
        <time>2007-12-24T03:55:25Z</time>
      </trkpt>
      <trkpt lat="47.76457" lon="-1.97651">
        <ele>69</ele>
        <time>2007-12-24T03:55:38Z</time>
      </trkpt>
      <trkpt lat="47.76445" lon="-1.97609">
        <ele>69</ele>
        <time>2007-12-24T03:55:51Z</time>
      </trkpt>
      <trkpt lat="47.76442" lon="-1.97569">
        <ele>69</ele>
        <time>2007-12-24T03:56:01Z</time>
      </trkpt>
      <trkpt lat="47.76448" lon="-1.97531">
        <ele>70</ele>
        <time>2007-12-24T03:56:12Z</time>
      </trkpt>
      <trkpt lat="47.76472" lon="-1.97489">
        <ele>71</ele>
        <time>2007-12-24T03:56:27Z</time>
      </trkpt>
      <trkpt lat="47.76475" lon="-1.97475">
        <ele>71</ele>
        <time>2007-12-24T03:56:31Z</time>
      </trkpt>
      <trkpt lat="47.76473" lon="-1.97444">
        <ele>71</ele>
        <time>2007-12-24T03:56:39Z</time>
      </trkpt>
      <trkpt lat="47.76466" lon="-1.9738">
        <ele>70</ele>
        <time>2007-12-24T03:56:56Z</time>
      </trkpt>
      <trkpt lat="47.76465" lon="-1.97359">
        <ele>70</ele>
        <time>2007-12-24T03:57:02Z</time>
      </trkpt>
      <trkpt lat="47.7647" lon="-1.97339">
        <ele>70</ele>
        <time>2007-12-24T03:57:08Z</time>
      </trkpt>
      <trkpt lat="47.76475" lon="-1.97294">
        <ele>71</ele>
        <time>2007-12-24T03:57:20Z</time>
      </trkpt>
      <trkpt lat="47.76479" lon="-1.97222">
        <ele>70</ele>
        <time>2007-12-24T03:57:39Z</time>
      </trkpt>
      <trkpt lat="47.76478" lon="-1.97164">
        <ele>70</ele>
        <time>2007-12-24T03:57:55Z</time>
      </trkpt>
      <trkpt lat="47.76478" lon="-1.97158">
        <ele>70</ele>
        <time>2007-12-24T03:57:57Z</time>
      </trkpt>
      <trkpt lat="47.7647" lon="-1.97134">
        <ele>70</ele>
        <time>2007-12-24T03:58:04Z</time>
      </trkpt>
      <trkpt lat="47.76465" lon="-1.97107">
        <ele>70</ele>
        <time>2007-12-24T03:58:12Z</time>
      </trkpt>
      <trkpt lat="47.76467" lon="-1.97034">
        <ele>71</ele>
        <time>2007-12-24T03:58:31Z</time>
      </trkpt>
      <trkpt lat="47.7647" lon="-1.96966">
        <ele>72</ele>
        <time>2007-12-24T03:58:49Z</time>
      </trkpt>
      <trkpt lat="47.76471" lon="-1.96933">
        <ele>72</ele>
        <time>2007-12-24T03:58:58Z</time>
      </trkpt>
      <trkpt lat="47.76466" lon="-1.96886">
        <ele>72</ele>
        <time>2007-12-24T03:59:11Z</time>
      </trkpt>
      <trkpt lat="47.76467" lon="-1.96844">
        <ele>73</ele>
        <time>2007-12-24T03:59:23Z</time>
      </trkpt>
      <trkpt lat="47.76457" lon="-1.96818">
        <ele>72</ele>
        <time>2007-12-24T03:59:30Z</time>
      </trkpt>
      <trkpt lat="47.76443" lon="-1.9678">
        <ele>70</ele>
        <time>2007-12-24T03:59:42Z</time>
      </trkpt>
      <trkpt lat="47.76442" lon="-1.96757">
        <ele>70</ele>
        <time>2007-12-24T03:59:48Z</time>
      </trkpt>
      <trkpt lat="47.76437" lon="-1.96729">
        <ele>70</ele>
        <time>2007-12-24T03:59:56Z</time>
      </trkpt>
      <trkpt lat="47.7643" lon="-1.96707">
        <ele>69</ele>
        <time>2007-12-24T04:00:03Z</time>
      </trkpt>
      <trkpt lat="47.76418" lon="-1.96703">
        <ele>68</ele>
        <time>2007-12-24T04:00:08Z</time>
      </trkpt>
      <trkpt lat="47.7641" lon="-1.96703">
        <ele>68</ele>
        <time>2007-12-24T04:00:11Z</time>
      </trkpt>
      <trkpt lat="47.76367" lon="-1.96685">
        <ele>66</ele>
        <time>2007-12-24T04:00:29Z</time>
      </trkpt>
      <trkpt lat="47.76335" lon="-1.96671">
        <ele>65</ele>
        <time>2007-12-24T04:00:42Z</time>
      </trkpt>
      <trkpt lat="47.76329" lon="-1.96669">
        <ele>65</ele>
        <time>2007-12-24T04:00:45Z</time>
      </trkpt>
      <trkpt lat="47.76304" lon="-1.96673">
        <ele>64</ele>
        <time>2007-12-24T04:00:55Z</time>
      </trkpt>
      <trkpt lat="47.76298" lon="-1.9668">
        <ele>64</ele>
        <time>2007-12-24T04:00:58Z</time>
      </trkpt>
      <trkpt lat="47.76283" lon="-1.96694">
        <ele>63</ele>
        <time>2007-12-24T04:01:05Z</time>
      </trkpt>
      <trkpt lat="47.76267" lon="-1.96679">
        <ele>61</ele>
        <time>2007-12-24T04:01:12Z</time>
      </trkpt>
      <trkpt lat="47.76241" lon="-1.96671">
        <ele>60</ele>
        <time>2007-12-24T04:01:23Z</time>
      </trkpt>
      <trkpt lat="47.7621" lon="-1.96656">
        <ele>58</ele>
        <time>2007-12-24T04:01:36Z</time>
      </trkpt>
      <trkpt lat="47.76205" lon="-1.9665">
        <ele>57</ele>
        <time>2007-12-24T04:01:38Z</time>
      </trkpt>
      <trkpt lat="47.76178" lon="-1.96626">
        <ele>55</ele>
        <time>2007-12-24T04:01:51Z</time>
      </trkpt>
      <trkpt lat="47.76167" lon="-1.96617">
        <ele>54</ele>
        <time>2007-12-24T04:01:56Z</time>
      </trkpt>
      <trkpt lat="47.76142" lon="-1.96614">
        <ele>52</ele>
        <time>2007-12-24T04:02:06Z</time>
      </trkpt>
      <trkpt lat="47.76117" lon="-1.96617">
        <ele>50</ele>
        <time>2007-12-24T04:02:16Z</time>
      </trkpt>
      <trkpt lat="47.76113" lon="-1.96617">
        <ele>50</ele>
        <time>2007-12-24T04:02:18Z</time>
      </trkpt>
      <trkpt lat="47.76111" lon="-1.96617">
        <ele>50</ele>
        <time>2007-12-24T04:02:18Z</time>
      </trkpt>
      <trkpt lat="47.76113" lon="-1.96617">
        <ele>50</ele>
        <time>2007-12-24T04:02:19Z</time>
      </trkpt>
      <trkpt lat="47.76111" lon="-1.9662">
        <ele>50</ele>
        <time>2007-12-24T04:02:20Z</time>
      </trkpt>
      <trkpt lat="47.76103" lon="-1.96627">
        <ele>49</ele>
        <time>2007-12-24T04:02:24Z</time>
      </trkpt>
      <trkpt lat="47.76094" lon="-1.96639">
        <ele>49</ele>
        <time>2007-12-24T04:02:29Z</time>
      </trkpt>
      <trkpt lat="47.76071" lon="-1.96674">
        <ele>48</ele>
        <time>2007-12-24T04:02:42Z</time>
      </trkpt>
      <trkpt lat="47.76046" lon="-1.96706">
        <ele>48</ele>
        <time>2007-12-24T04:02:55Z</time>
      </trkpt>
      <trkpt lat="47.76035" lon="-1.96725">
        <ele>48</ele>
        <time>2007-12-24T04:03:02Z</time>
      </trkpt>
      <trkpt lat="47.76023" lon="-1.96734">
        <ele>49</ele>
        <time>2007-12-24T04:03:07Z</time>
      </trkpt>
      <trkpt lat="47.76018" lon="-1.96738">
        <ele>50</ele>
        <time>2007-12-24T04:03:10Z</time>
      </trkpt>
      <trkpt lat="47.76017" lon="-1.9674">
        <ele>50</ele>
        <time>2007-12-24T04:03:10Z</time>
      </trkpt>
      <trkpt lat="47.7601" lon="-1.96749">
        <ele>50</ele>
        <time>2007-12-24T04:03:14Z</time>
      </trkpt>
      <trkpt lat="47.76004" lon="-1.96749">
        <ele>51</ele>
        <time>2007-12-24T04:03:17Z</time>
      </trkpt>
      <trkpt lat="47.76" lon="-1.96743">
        <ele>52</ele>
        <time>2007-12-24T04:03:19Z</time>
      </trkpt>
      <trkpt lat="47.75996" lon="-1.96739">
        <ele>53</ele>
        <time>2007-12-24T04:03:20Z</time>
      </trkpt>
      <trkpt lat="47.75996" lon="-1.96738">
        <ele>53</ele>
        <time>2007-12-24T04:03:21Z</time>
      </trkpt>
      <trkpt lat="47.75996" lon="-1.96735">
        <ele>53</ele>
        <time>2007-12-24T04:03:22Z</time>
      </trkpt>
      <trkpt lat="47.75997" lon="-1.96726">
        <ele>54</ele>
        <time>2007-12-24T04:03:24Z</time>
      </trkpt>
      <trkpt lat="47.75998" lon="-1.96718">
        <ele>54</ele>
        <time>2007-12-24T04:03:26Z</time>
      </trkpt>
      <trkpt lat="47.75998" lon="-1.9671">
        <ele>55</ele>
        <time>2007-12-24T04:03:28Z</time>
      </trkpt>
      <trkpt lat="47.75993" lon="-1.96706">
        <ele>56</ele>
        <time>2007-12-24T04:03:31Z</time>
      </trkpt>
      <trkpt lat="47.75987" lon="-1.96704">
        <ele>57</ele>
        <time>2007-12-24T04:03:33Z</time>
      </trkpt>
      <trkpt lat="47.75983" lon="-1.967">
        <ele>58</ele>
        <time>2007-12-24T04:03:35Z</time>
      </trkpt>
      <trkpt lat="47.7598" lon="-1.96693">
        <ele>58</ele>
        <time>2007-12-24T04:03:37Z</time>
      </trkpt>
      <trkpt lat="47.75979" lon="-1.96677">
        <ele>59</ele>
        <time>2007-12-24T04:03:42Z</time>
      </trkpt>
      <trkpt lat="47.75979" lon="-1.96674">
        <ele>60</ele>
        <time>2007-12-24T04:03:42Z</time>
      </trkpt>
      <trkpt lat="47.75983" lon="-1.9667">
        <ele>59</ele>
        <time>2007-12-24T04:03:44Z</time>
      </trkpt>
      <trkpt lat="47.75985" lon="-1.96669">
        <ele>59</ele>
        <time>2007-12-24T04:03:45Z</time>
      </trkpt>
      <trkpt lat="47.75998" lon="-1.96665">
        <ele>57</ele>
        <time>2007-12-24T04:03:51Z</time>
      </trkpt>
      <trkpt lat="47.76002" lon="-1.96662">
        <ele>57</ele>
        <time>2007-12-24T04:03:52Z</time>
      </trkpt>
      <trkpt lat="47.76015" lon="-1.9665">
        <ele>54</ele>
        <time>2007-12-24T04:03:59Z</time>
      </trkpt>
      <trkpt lat="47.76017" lon="-1.96642">
        <ele>54</ele>
        <time>2007-12-24T04:04:01Z</time>
      </trkpt>
      <trkpt lat="47.7602" lon="-1.96626">
        <ele>54</ele>
        <time>2007-12-24T04:04:05Z</time>
      </trkpt>
      <trkpt lat="47.76021" lon="-1.96612">
        <ele>54</ele>
        <time>2007-12-24T04:04:09Z</time>
      </trkpt>
      <trkpt lat="47.7602" lon="-1.96602">
        <ele>54</ele>
        <time>2007-12-24T04:04:12Z</time>
      </trkpt>
      <trkpt lat="47.76019" lon="-1.96596">
        <ele>55</ele>
        <time>2007-12-24T04:04:13Z</time>
      </trkpt>
      <trkpt lat="47.76015" lon="-1.96587">
        <ele>56</ele>
        <time>2007-12-24T04:04:16Z</time>
      </trkpt>
      <trkpt lat="47.76015" lon="-1.96586">
        <ele>56</ele>
        <time>2007-12-24T04:04:17Z</time>
      </trkpt>
      <trkpt lat="47.76012" lon="-1.96572">
        <ele>56</ele>
        <time>2007-12-24T04:04:20Z</time>
      </trkpt>
      <trkpt lat="47.76012" lon="-1.96562">
        <ele>56</ele>
        <time>2007-12-24T04:04:23Z</time>
      </trkpt>
      <trkpt lat="47.76012" lon="-1.96556">
        <ele>56</ele>
        <time>2007-12-24T04:04:25Z</time>
      </trkpt>
      <trkpt lat="47.76014" lon="-1.96543">
        <ele>56</ele>
        <time>2007-12-24T04:04:28Z</time>
      </trkpt>
      <trkpt lat="47.76013" lon="-1.96539">
        <ele>56</ele>
        <time>2007-12-24T04:04:30Z</time>
      </trkpt>
      <trkpt lat="47.76013" lon="-1.96536">
        <ele>56</ele>
        <time>2007-12-24T04:04:30Z</time>
      </trkpt>
      <trkpt lat="47.76013" lon="-1.96534">
        <ele>56</ele>
        <time>2007-12-24T04:04:31Z</time>
      </trkpt>
      <trkpt lat="47.7601" lon="-1.96526">
        <ele>56</ele>
        <time>2007-12-24T04:04:34Z</time>
      </trkpt>
      <trkpt lat="47.76008" lon="-1.9652">
        <ele>57</ele>
        <time>2007-12-24T04:04:35Z</time>
      </trkpt>
      <trkpt lat="47.76007" lon="-1.9651">
        <ele>56</ele>
        <time>2007-12-24T04:04:38Z</time>
      </trkpt>
      <trkpt lat="47.76005" lon="-1.96495">
        <ele>55</ele>
        <time>2007-12-24T04:04:42Z</time>
      </trkpt>
      <trkpt lat="47.75997" lon="-1.96489">
        <ele>55</ele>
        <time>2007-12-24T04:04:46Z</time>
      </trkpt>
      <trkpt lat="47.7598" lon="-1.96478">
        <ele>55</ele>
        <time>2007-12-24T04:04:53Z</time>
      </trkpt>
      <trkpt lat="47.75977" lon="-1.96473">
        <ele>55</ele>
        <time>2007-12-24T04:04:55Z</time>
      </trkpt>
      <trkpt lat="47.7597" lon="-1.96466">
        <ele>55</ele>
        <time>2007-12-24T04:04:58Z</time>
      </trkpt>
      <trkpt lat="47.75961" lon="-1.9646">
        <ele>54</ele>
        <time>2007-12-24T04:05:02Z</time>
      </trkpt>
      <trkpt lat="47.75952" lon="-1.96456">
        <ele>54</ele>
        <time>2007-12-24T04:05:06Z</time>
      </trkpt>
      <trkpt lat="47.75948" lon="-1.96455">
        <ele>54</ele>
        <time>2007-12-24T04:05:08Z</time>
      </trkpt>
      <trkpt lat="47.75937" lon="-1.9645">
        <ele>54</ele>
        <time>2007-12-24T04:05:12Z</time>
      </trkpt>
      <trkpt lat="47.75926" lon="-1.9645">
        <ele>54</ele>
        <time>2007-12-24T04:05:17Z</time>
      </trkpt>
      <trkpt lat="47.75918" lon="-1.96446">
        <ele>54</ele>
        <time>2007-12-24T04:05:20Z</time>
      </trkpt>
      <trkpt lat="47.75904" lon="-1.96445">
        <ele>54</ele>
        <time>2007-12-24T04:05:26Z</time>
      </trkpt>
      <trkpt lat="47.7589" lon="-1.96444">
        <ele>55</ele>
        <time>2007-12-24T04:05:31Z</time>
      </trkpt>
      <trkpt lat="47.7588" lon="-1.96442">
        <ele>55</ele>
        <time>2007-12-24T04:05:35Z</time>
      </trkpt>
      <trkpt lat="47.75867" lon="-1.96442">
        <ele>56</ele>
        <time>2007-12-24T04:05:41Z</time>
      </trkpt>
      <trkpt lat="47.75865" lon="-1.96442">
        <ele>56</ele>
        <time>2007-12-24T04:05:41Z</time>
      </trkpt>
      <trkpt lat="47.75859" lon="-1.96438">
        <ele>57</ele>
        <time>2007-12-24T04:05:44Z</time>
      </trkpt>
      <trkpt lat="47.75847" lon="-1.9643">
        <ele>58</ele>
        <time>2007-12-24T04:05:49Z</time>
      </trkpt>
      <trkpt lat="47.75835" lon="-1.9643">
        <ele>58</ele>
        <time>2007-12-24T04:05:54Z</time>
      </trkpt>
      <trkpt lat="47.75822" lon="-1.9642">
        <ele>58</ele>
        <time>2007-12-24T04:06:00Z</time>
      </trkpt>
      <trkpt lat="47.75814" lon="-1.96423">
        <ele>59</ele>
        <time>2007-12-24T04:06:03Z</time>
      </trkpt>
      <trkpt lat="47.75806" lon="-1.9643">
        <ele>60</ele>
        <time>2007-12-24T04:06:07Z</time>
      </trkpt>
      <trkpt lat="47.75812" lon="-1.96446">
        <ele>60</ele>
        <time>2007-12-24T04:06:12Z</time>
      </trkpt>
      <trkpt lat="47.75813" lon="-1.96452">
        <ele>61</ele>
        <time>2007-12-24T04:06:13Z</time>
      </trkpt>
      <trkpt lat="47.75822" lon="-1.96453">
        <ele>60</ele>
        <time>2007-12-24T04:06:17Z</time>
      </trkpt>
      <trkpt lat="47.75826" lon="-1.96453">
        <ele>60</ele>
        <time>2007-12-24T04:06:19Z</time>
      </trkpt>
      <trkpt lat="47.75835" lon="-1.96461">
        <ele>61</ele>
        <time>2007-12-24T04:06:23Z</time>
      </trkpt>
      <trkpt lat="47.75842" lon="-1.96466">
        <ele>61</ele>
        <time>2007-12-24T04:06:26Z</time>
      </trkpt>
      <trkpt lat="47.75857" lon="-1.96467">
        <ele>60</ele>
        <time>2007-12-24T04:06:32Z</time>
      </trkpt>
      <trkpt lat="47.75873" lon="-1.96467">
        <ele>60</ele>
        <time>2007-12-24T04:06:39Z</time>
      </trkpt>
      <trkpt lat="47.75887" lon="-1.96467">
        <ele>59</ele>
        <time>2007-12-24T04:06:44Z</time>
      </trkpt>
      <trkpt lat="47.75893" lon="-1.96461">
        <ele>58</ele>
        <time>2007-12-24T04:06:47Z</time>
      </trkpt>
      <trkpt lat="47.7591" lon="-1.9647">
        <ele>59</ele>
        <time>2007-12-24T04:06:54Z</time>
      </trkpt>
      <trkpt lat="47.7592" lon="-1.96471">
        <ele>59</ele>
        <time>2007-12-24T04:06:58Z</time>
      </trkpt>
      <trkpt lat="47.75926" lon="-1.9647">
        <ele>58</ele>
        <time>2007-12-24T04:07:01Z</time>
      </trkpt>
      <trkpt lat="47.75935" lon="-1.96478">
        <ele>59</ele>
        <time>2007-12-24T04:07:05Z</time>
      </trkpt>
      <trkpt lat="47.75936" lon="-1.96478">
        <ele>59</ele>
        <time>2007-12-24T04:07:05Z</time>
      </trkpt>
      <trkpt lat="47.7595" lon="-1.96479">
        <ele>59</ele>
        <time>2007-12-24T04:07:11Z</time>
      </trkpt>
      <trkpt lat="47.75954" lon="-1.9648">
        <ele>59</ele>
        <time>2007-12-24T04:07:12Z</time>
      </trkpt>
      <trkpt lat="47.7597" lon="-1.96485">
        <ele>58</ele>
        <time>2007-12-24T04:07:19Z</time>
      </trkpt>
      <trkpt lat="47.75978" lon="-1.96493">
        <ele>58</ele>
        <time>2007-12-24T04:07:23Z</time>
      </trkpt>
      <trkpt lat="47.75976" lon="-1.96513">
        <ele>61</ele>
        <time>2007-12-24T04:07:28Z</time>
      </trkpt>
      <trkpt lat="47.75975" lon="-1.96517">
        <ele>62</ele>
        <time>2007-12-24T04:07:29Z</time>
      </trkpt>
      <trkpt lat="47.75965" lon="-1.96547">
        <ele>64</ele>
        <time>2007-12-24T04:07:38Z</time>
      </trkpt>
      <trkpt lat="47.75955" lon="-1.96556">
        <ele>65</ele>
        <time>2007-12-24T04:07:43Z</time>
      </trkpt>
      <trkpt lat="47.75944" lon="-1.96572">
        <ele>66</ele>
        <time>2007-12-24T04:07:49Z</time>
      </trkpt>
      <trkpt lat="47.75942" lon="-1.96578">
        <ele>66</ele>
        <time>2007-12-24T04:07:51Z</time>
      </trkpt>
      <trkpt lat="47.75928" lon="-1.96589">
        <ele>67</ele>
        <time>2007-12-24T04:07:57Z</time>
      </trkpt>
      <trkpt lat="47.75893" lon="-1.96597">
        <ele>68</ele>
        <time>2007-12-24T04:08:11Z</time>
      </trkpt>
      <trkpt lat="47.75862" lon="-1.96597">
        <ele>68</ele>
        <time>2007-12-24T04:08:24Z</time>
      </trkpt>
      <trkpt lat="47.75848" lon="-1.96596">
        <ele>68</ele>
        <time>2007-12-24T04:08:29Z</time>
      </trkpt>
      <trkpt lat="47.75813" lon="-1.96594">
        <ele>68</ele>
        <time>2007-12-24T04:08:43Z</time>
      </trkpt>
      <trkpt lat="47.7579" lon="-1.96591">
        <ele>68</ele>
        <time>2007-12-24T04:08:53Z</time>
      </trkpt>
      <trkpt lat="47.75778" lon="-1.96582">
        <ele>67</ele>
        <time>2007-12-24T04:08:58Z</time>
      </trkpt>
      <trkpt lat="47.75774" lon="-1.96572">
        <ele>67</ele>
        <time>2007-12-24T04:09:01Z</time>
      </trkpt>
      <trkpt lat="47.75765" lon="-1.96557">
        <ele>67</ele>
        <time>2007-12-24T04:09:07Z</time>
      </trkpt>
      <trkpt lat="47.7575" lon="-1.96528">
        <ele>66</ele>
        <time>2007-12-24T04:09:17Z</time>
      </trkpt>
      <trkpt lat="47.75747" lon="-1.96519">
        <ele>66</ele>
        <time>2007-12-24T04:09:19Z</time>
      </trkpt>
      <trkpt lat="47.75745" lon="-1.96488">
        <ele>65</ele>
        <time>2007-12-24T04:09:28Z</time>
      </trkpt>
      <trkpt lat="47.7575" lon="-1.96463">
        <ele>64</ele>
        <time>2007-12-24T04:09:35Z</time>
      </trkpt>
      <trkpt lat="47.75754" lon="-1.96447">
        <ele>64</ele>
        <time>2007-12-24T04:09:39Z</time>
      </trkpt>
      <trkpt lat="47.75745" lon="-1.96442">
        <ele>64</ele>
        <time>2007-12-24T04:09:43Z</time>
      </trkpt>
      <trkpt lat="47.75737" lon="-1.96426">
        <ele>63</ele>
        <time>2007-12-24T04:09:48Z</time>
      </trkpt>
      <trkpt lat="47.7574" lon="-1.9642">
        <ele>63</ele>
        <time>2007-12-24T04:09:50Z</time>
      </trkpt>
      <trkpt lat="47.75743" lon="-1.96419">
        <ele>63</ele>
        <time>2007-12-24T04:09:51Z</time>
      </trkpt>
      <trkpt lat="47.7574" lon="-1.96407">
        <ele>62</ele>
        <time>2007-12-24T04:09:55Z</time>
      </trkpt>
      <trkpt lat="47.75741" lon="-1.96395">
        <ele>61</ele>
        <time>2007-12-24T04:09:58Z</time>
      </trkpt>
      <trkpt lat="47.75745" lon="-1.96373">
        <ele>60</ele>
        <time>2007-12-24T04:10:04Z</time>
      </trkpt>
      <trkpt lat="47.7574" lon="-1.9635">
        <ele>59</ele>
        <time>2007-12-24T04:10:11Z</time>
      </trkpt>
      <trkpt lat="47.75736" lon="-1.96336">
        <ele>58</ele>
        <time>2007-12-24T04:10:15Z</time>
      </trkpt>
      <trkpt lat="47.75732" lon="-1.96318">
        <ele>57</ele>
        <time>2007-12-24T04:10:20Z</time>
      </trkpt>
      <trkpt lat="47.75731" lon="-1.96296">
        <ele>56</ele>
        <time>2007-12-24T04:10:26Z</time>
      </trkpt>
      <trkpt lat="47.75736" lon="-1.96254">
        <ele>58</ele>
        <time>2007-12-24T04:10:38Z</time>
      </trkpt>
      <trkpt lat="47.75738" lon="-1.96232">
        <ele>59</ele>
        <time>2007-12-24T04:10:43Z</time>
      </trkpt>
      <trkpt lat="47.7573" lon="-1.9621">
        <ele>60</ele>
        <time>2007-12-24T04:10:50Z</time>
      </trkpt>
      <trkpt lat="47.75723" lon="-1.96187">
        <ele>60</ele>
        <time>2007-12-24T04:10:57Z</time>
      </trkpt>
      <trkpt lat="47.7572" lon="-1.96171">
        <ele>61</ele>
        <time>2007-12-24T04:11:01Z</time>
      </trkpt>
      <trkpt lat="47.75715" lon="-1.96149">
        <ele>61</ele>
        <time>2007-12-24T04:11:08Z</time>
      </trkpt>
      <trkpt lat="47.75712" lon="-1.96138">
        <ele>61</ele>
        <time>2007-12-24T04:11:11Z</time>
      </trkpt>
      <trkpt lat="47.75708" lon="-1.96127">
        <ele>61</ele>
        <time>2007-12-24T04:11:14Z</time>
      </trkpt>
      <trkpt lat="47.757" lon="-1.96102">
        <ele>60</ele>
        <time>2007-12-24T04:11:22Z</time>
      </trkpt>
      <trkpt lat="47.75694" lon="-1.96085">
        <ele>60</ele>
        <time>2007-12-24T04:11:27Z</time>
      </trkpt>
      <trkpt lat="47.75694" lon="-1.96082">
        <ele>60</ele>
        <time>2007-12-24T04:11:28Z</time>
      </trkpt>
      <trkpt lat="47.75693" lon="-1.96072">
        <ele>61</ele>
        <time>2007-12-24T04:11:31Z</time>
      </trkpt>
      <trkpt lat="47.75695" lon="-1.9606">
        <ele>61</ele>
        <time>2007-12-24T04:11:34Z</time>
      </trkpt>
      <trkpt lat="47.75698" lon="-1.96029">
        <ele>63</ele>
        <time>2007-12-24T04:11:42Z</time>
      </trkpt>
      <trkpt lat="47.75688" lon="-1.96013">
        <ele>62</ele>
        <time>2007-12-24T04:11:48Z</time>
      </trkpt>
      <trkpt lat="47.75677" lon="-1.96">
        <ele>61</ele>
        <time>2007-12-24T04:11:54Z</time>
      </trkpt>
      <trkpt lat="47.75672" lon="-1.95973">
        <ele>60</ele>
        <time>2007-12-24T04:12:01Z</time>
      </trkpt>
      <trkpt lat="47.75677" lon="-1.95961">
        <ele>61</ele>
        <time>2007-12-24T04:12:05Z</time>
      </trkpt>
      <trkpt lat="47.75678" lon="-1.95948">
        <ele>61</ele>
        <time>2007-12-24T04:12:09Z</time>
      </trkpt>
      <trkpt lat="47.75678" lon="-1.95945">
        <ele>61</ele>
        <time>2007-12-24T04:12:10Z</time>
      </trkpt>
      <trkpt lat="47.75681" lon="-1.95924">
        <ele>62</ele>
        <time>2007-12-24T04:12:16Z</time>
      </trkpt>
      <trkpt lat="47.75685" lon="-1.95902">
        <ele>63</ele>
        <time>2007-12-24T04:12:21Z</time>
      </trkpt>
      <trkpt lat="47.75672" lon="-1.95891">
        <ele>62</ele>
        <time>2007-12-24T04:12:27Z</time>
      </trkpt>
      <trkpt lat="47.75658" lon="-1.95876">
        <ele>60</ele>
        <time>2007-12-24T04:12:34Z</time>
      </trkpt>
      <trkpt lat="47.75655" lon="-1.95862">
        <ele>60</ele>
        <time>2007-12-24T04:12:38Z</time>
      </trkpt>
      <trkpt lat="47.75658" lon="-1.95841">
        <ele>61</ele>
        <time>2007-12-24T04:12:44Z</time>
      </trkpt>
      <trkpt lat="47.75658" lon="-1.95827">
        <ele>61</ele>
        <time>2007-12-24T04:12:48Z</time>
      </trkpt>
      <trkpt lat="47.75653" lon="-1.95807">
        <ele>61</ele>
        <time>2007-12-24T04:12:54Z</time>
      </trkpt>
      <trkpt lat="47.75653" lon="-1.95788">
        <ele>61</ele>
        <time>2007-12-24T04:12:59Z</time>
      </trkpt>
      <trkpt lat="47.75657" lon="-1.95769">
        <ele>62</ele>
        <time>2007-12-24T04:13:04Z</time>
      </trkpt>
      <trkpt lat="47.75658" lon="-1.95763">
        <ele>62</ele>
        <time>2007-12-24T04:13:06Z</time>
      </trkpt>
      <trkpt lat="47.75663" lon="-1.95745">
        <ele>62</ele>
        <time>2007-12-24T04:13:11Z</time>
      </trkpt>
      <trkpt lat="47.75663" lon="-1.95732">
        <ele>62</ele>
        <time>2007-12-24T04:13:15Z</time>
      </trkpt>
      <trkpt lat="47.75665" lon="-1.95721">
        <ele>62</ele>
        <time>2007-12-24T04:13:17Z</time>
      </trkpt>
      <trkpt lat="47.75673" lon="-1.95705">
        <ele>63</ele>
        <time>2007-12-24T04:13:23Z</time>
      </trkpt>
      <trkpt lat="47.75685" lon="-1.95702">
        <ele>64</ele>
        <time>2007-12-24T04:13:28Z</time>
      </trkpt>
      <trkpt lat="47.75692" lon="-1.95705">
        <ele>64</ele>
        <time>2007-12-24T04:13:31Z</time>
      </trkpt>
      <trkpt lat="47.75705" lon="-1.95723">
        <ele>65</ele>
        <time>2007-12-24T04:13:38Z</time>
      </trkpt>
      <trkpt lat="47.75715" lon="-1.95746">
        <ele>66</ele>
        <time>2007-12-24T04:13:45Z</time>
      </trkpt>
      <trkpt lat="47.75717" lon="-1.95747">
        <ele>66</ele>
        <time>2007-12-24T04:13:46Z</time>
      </trkpt>
      <trkpt lat="47.75734" lon="-1.95744">
        <ele>67</ele>
        <time>2007-12-24T04:13:53Z</time>
      </trkpt>
      <trkpt lat="47.75753" lon="-1.95735">
        <ele>68</ele>
        <time>2007-12-24T04:14:01Z</time>
      </trkpt>
      <trkpt lat="47.75771" lon="-1.95735">
        <ele>68</ele>
        <time>2007-12-24T04:14:08Z</time>
      </trkpt>
      <trkpt lat="47.75787" lon="-1.9574">
        <ele>68</ele>
        <time>2007-12-24T04:14:14Z</time>
      </trkpt>
      <trkpt lat="47.75798" lon="-1.95737">
        <ele>68</ele>
        <time>2007-12-24T04:14:19Z</time>
      </trkpt>
      <trkpt lat="47.75816" lon="-1.95746">
        <ele>69</ele>
        <time>2007-12-24T04:14:27Z</time>
      </trkpt>
      <trkpt lat="47.7583" lon="-1.95758">
        <ele>69</ele>
        <time>2007-12-24T04:14:33Z</time>
      </trkpt>
      <trkpt lat="47.75846" lon="-1.9578">
        <ele>70</ele>
        <time>2007-12-24T04:14:42Z</time>
      </trkpt>
      <trkpt lat="47.75848" lon="-1.95786">
        <ele>70</ele>
        <time>2007-12-24T04:14:44Z</time>
      </trkpt>
      <trkpt lat="47.75849" lon="-1.95814">
        <ele>71</ele>
        <time>2007-12-24T04:14:51Z</time>
      </trkpt>
      <trkpt lat="47.75845" lon="-1.95843">
        <ele>71</ele>
        <time>2007-12-24T04:14:59Z</time>
      </trkpt>
      <trkpt lat="47.75838" lon="-1.95878">
        <ele>71</ele>
        <time>2007-12-24T04:15:09Z</time>
      </trkpt>
      <trkpt lat="47.75831" lon="-1.95913">
        <ele>71</ele>
        <time>2007-12-24T04:15:19Z</time>
      </trkpt>
      <trkpt lat="47.75823" lon="-1.95976">
        <ele>71</ele>
        <time>2007-12-24T04:15:36Z</time>
      </trkpt>
      <trkpt lat="47.75814" lon="-1.96039">
        <ele>71</ele>
        <time>2007-12-24T04:15:53Z</time>
      </trkpt>
      <trkpt lat="47.75803" lon="-1.96081">
        <ele>70</ele>
        <time>2007-12-24T04:16:06Z</time>
      </trkpt>
      <trkpt lat="47.75792" lon="-1.96134">
        <ele>68</ele>
        <time>2007-12-24T04:16:20Z</time>
      </trkpt>
      <trkpt lat="47.75789" lon="-1.96154">
        <ele>68</ele>
        <time>2007-12-24T04:16:26Z</time>
      </trkpt>
      <trkpt lat="47.75782" lon="-1.96183">
        <ele>67</ele>
        <time>2007-12-24T04:16:34Z</time>
      </trkpt>
      <trkpt lat="47.75776" lon="-1.9619">
        <ele>66</ele>
        <time>2007-12-24T04:16:37Z</time>
      </trkpt>
      <trkpt lat="47.75773" lon="-1.96203">
        <ele>65</ele>
        <time>2007-12-24T04:16:41Z</time>
      </trkpt>
      <trkpt lat="47.75773" lon="-1.96217">
        <ele>65</ele>
        <time>2007-12-24T04:16:45Z</time>
      </trkpt>
      <trkpt lat="47.75777" lon="-1.96222">
        <ele>65</ele>
        <time>2007-12-24T04:16:47Z</time>
      </trkpt>
      <trkpt lat="47.75783" lon="-1.96223">
        <ele>66</ele>
        <time>2007-12-24T04:16:49Z</time>
      </trkpt>
      <trkpt lat="47.75793" lon="-1.96234">
        <ele>67</ele>
        <time>2007-12-24T04:16:54Z</time>
      </trkpt>
      <trkpt lat="47.75808" lon="-1.96249">
        <ele>67</ele>
        <time>2007-12-24T04:17:02Z</time>
      </trkpt>
      <trkpt lat="47.75817" lon="-1.96259">
        <ele>67</ele>
        <time>2007-12-24T04:17:06Z</time>
      </trkpt>
      <trkpt lat="47.75828" lon="-1.9626">
        <ele>68</ele>
        <time>2007-12-24T04:17:10Z</time>
      </trkpt>
      <trkpt lat="47.75838" lon="-1.96272">
        <ele>68</ele>
        <time>2007-12-24T04:17:15Z</time>
      </trkpt>
      <trkpt lat="47.75848" lon="-1.96277">
        <ele>69</ele>
        <time>2007-12-24T04:17:20Z</time>
      </trkpt>
      <trkpt lat="47.75872" lon="-1.96295">
        <ele>70</ele>
        <time>2007-12-24T04:17:30Z</time>
      </trkpt>
      <trkpt lat="47.75882" lon="-1.96307">
        <ele>70</ele>
        <time>2007-12-24T04:17:35Z</time>
      </trkpt>
      <trkpt lat="47.75894" lon="-1.96314">
        <ele>70</ele>
        <time>2007-12-24T04:17:41Z</time>
      </trkpt>
      <trkpt lat="47.75902" lon="-1.96329">
        <ele>68</ele>
        <time>2007-12-24T04:17:46Z</time>
      </trkpt>
      <trkpt lat="47.75913" lon="-1.96326">
        <ele>69</ele>
        <time>2007-12-24T04:17:50Z</time>
      </trkpt>
      <trkpt lat="47.7592" lon="-1.96322">
        <ele>69</ele>
        <time>2007-12-24T04:17:53Z</time>
      </trkpt>
      <trkpt lat="47.75933" lon="-1.96314">
        <ele>69</ele>
        <time>2007-12-24T04:17:59Z</time>
      </trkpt>
      <trkpt lat="47.75948" lon="-1.96313">
        <ele>69</ele>
        <time>2007-12-24T04:18:05Z</time>
      </trkpt>
      <trkpt lat="47.75965" lon="-1.96313">
        <ele>68</ele>
        <time>2007-12-24T04:18:12Z</time>
      </trkpt>
      <trkpt lat="47.75978" lon="-1.96311">
        <ele>68</ele>
        <time>2007-12-24T04:18:17Z</time>
      </trkpt>
      <trkpt lat="47.75998" lon="-1.96318">
        <ele>67</ele>
        <time>2007-12-24T04:18:25Z</time>
      </trkpt>
      <trkpt lat="47.76007" lon="-1.96316">
        <ele>67</ele>
        <time>2007-12-24T04:18:29Z</time>
      </trkpt>
      <trkpt lat="47.76013" lon="-1.96325">
        <ele>66</ele>
        <time>2007-12-24T04:18:32Z</time>
      </trkpt>
      <trkpt lat="47.76023" lon="-1.96327">
        <ele>66</ele>
        <time>2007-12-24T04:18:36Z</time>
      </trkpt>
      <trkpt lat="47.76037" lon="-1.96325">
        <ele>66</ele>
        <time>2007-12-24T04:18:42Z</time>
      </trkpt>
      <trkpt lat="47.76043" lon="-1.96336">
        <ele>65</ele>
        <time>2007-12-24T04:18:45Z</time>
      </trkpt>
      <trkpt lat="47.76052" lon="-1.96333">
        <ele>65</ele>
        <time>2007-12-24T04:18:49Z</time>
      </trkpt>
      <trkpt lat="47.76058" lon="-1.96335">
        <ele>65</ele>
        <time>2007-12-24T04:18:52Z</time>
      </trkpt>
      <trkpt lat="47.76072" lon="-1.96342">
        <ele>64</ele>
        <time>2007-12-24T04:18:57Z</time>
      </trkpt>
      <trkpt lat="47.76085" lon="-1.96351">
        <ele>63</ele>
        <time>2007-12-24T04:19:03Z</time>
      </trkpt>
      <trkpt lat="47.76102" lon="-1.96354">
        <ele>63</ele>
        <time>2007-12-24T04:19:10Z</time>
      </trkpt>
      <trkpt lat="47.76106" lon="-1.96365">
        <ele>62</ele>
        <time>2007-12-24T04:19:13Z</time>
      </trkpt>
      <trkpt lat="47.76103" lon="-1.96388">
        <ele>61</ele>
        <time>2007-12-24T04:19:20Z</time>
      </trkpt>
      <trkpt lat="47.76097" lon="-1.96405">
        <ele>60</ele>
        <time>2007-12-24T04:19:25Z</time>
      </trkpt>
      <trkpt lat="47.7608" lon="-1.9642">
        <ele>58</ele>
        <time>2007-12-24T04:19:33Z</time>
      </trkpt>
      <trkpt lat="47.76072" lon="-1.96423">
        <ele>58</ele>
        <time>2007-12-24T04:19:36Z</time>
      </trkpt>
      <trkpt lat="47.76062" lon="-1.96414">
        <ele>57</ele>
        <time>2007-12-24T04:19:41Z</time>
      </trkpt>
      <trkpt lat="47.7606" lon="-1.9641">
        <ele>58</ele>
        <time>2007-12-24T04:19:42Z</time>
      </trkpt>
      <trkpt lat="47.76054" lon="-1.96391">
        <ele>59</ele>
        <time>2007-12-24T04:19:48Z</time>
      </trkpt>
      <trkpt lat="47.76048" lon="-1.96378">
        <ele>60</ele>
        <time>2007-12-24T04:19:52Z</time>
      </trkpt>
      <trkpt lat="47.76036" lon="-1.96376">
        <ele>60</ele>
        <time>2007-12-24T04:19:57Z</time>
      </trkpt>
      <trkpt lat="47.76032" lon="-1.96377">
        <ele>60</ele>
        <time>2007-12-24T04:19:59Z</time>
      </trkpt>
      <trkpt lat="47.76025" lon="-1.9638">
        <ele>60</ele>
        <time>2007-12-24T04:20:02Z</time>
      </trkpt>
      <trkpt lat="47.76017" lon="-1.96379">
        <ele>60</ele>
        <time>2007-12-24T04:20:05Z</time>
      </trkpt>
      <trkpt lat="47.7601" lon="-1.96372">
        <ele>61</ele>
        <time>2007-12-24T04:20:08Z</time>
      </trkpt>
      <trkpt lat="47.76008" lon="-1.96367">
        <ele>61</ele>
        <time>2007-12-24T04:20:09Z</time>
      </trkpt>
      <trkpt lat="47.76003" lon="-1.96366">
        <ele>61</ele>
        <time>2007-12-24T04:20:12Z</time>
      </trkpt>
      <trkpt lat="47.75992" lon="-1.9637">
        <ele>61</ele>
        <time>2007-12-24T04:20:16Z</time>
      </trkpt>
      <trkpt lat="47.75985" lon="-1.96367">
        <ele>62</ele>
        <time>2007-12-24T04:20:19Z</time>
      </trkpt>
      <trkpt lat="47.75977" lon="-1.96362">
        <ele>63</ele>
        <time>2007-12-24T04:20:23Z</time>
      </trkpt>
      <trkpt lat="47.75967" lon="-1.96357">
        <ele>63</ele>
        <time>2007-12-24T04:20:27Z</time>
      </trkpt>
      <trkpt lat="47.75965" lon="-1.96357">
        <ele>63</ele>
        <time>2007-12-24T04:20:28Z</time>
      </trkpt>
      <trkpt lat="47.75958" lon="-1.96368">
        <ele>62</ele>
        <time>2007-12-24T04:20:32Z</time>
      </trkpt>
      <trkpt lat="47.75948" lon="-1.96369">
        <ele>63</ele>
        <time>2007-12-24T04:20:36Z</time>
      </trkpt>
      <trkpt lat="47.75945" lon="-1.96367">
        <ele>63</ele>
        <time>2007-12-24T04:20:37Z</time>
      </trkpt>
      <trkpt lat="47.75936" lon="-1.9637">
        <ele>63</ele>
        <time>2007-12-24T04:20:41Z</time>
      </trkpt>
      <trkpt lat="47.75925" lon="-1.96365">
        <ele>65</ele>
        <time>2007-12-24T04:20:46Z</time>
      </trkpt>
      <trkpt lat="47.75913" lon="-1.96366">
        <ele>65</ele>
        <time>2007-12-24T04:20:50Z</time>
      </trkpt>
      <trkpt lat="47.75905" lon="-1.96366">
        <ele>65</ele>
        <time>2007-12-24T04:20:53Z</time>
      </trkpt>
      <trkpt lat="47.75903" lon="-1.96366">
        <ele>65</ele>
        <time>2007-12-24T04:20:54Z</time>
      </trkpt>
      <trkpt lat="47.75895" lon="-1.96368">
        <ele>65</ele>
        <time>2007-12-24T04:20:57Z</time>
      </trkpt>
      <trkpt lat="47.75891" lon="-1.96372">
        <ele>64</ele>
        <time>2007-12-24T04:20:59Z</time>
      </trkpt>
      <trkpt lat="47.7589" lon="-1.96375">
        <ele>64</ele>
        <time>2007-12-24T04:21:00Z</time>
      </trkpt>
      <trkpt lat="47.7589" lon="-1.96377">
        <ele>63</ele>
        <time>2007-12-24T04:21:01Z</time>
      </trkpt>
      <trkpt lat="47.75889" lon="-1.96377">
        <ele>63</ele>
        <time>2007-12-24T04:21:01Z</time>
      </trkpt>
      <trkpt lat="47.7589" lon="-1.96379">
        <ele>63</ele>
        <time>2007-12-24T04:21:02Z</time>
      </trkpt>
      <trkpt lat="47.7589" lon="-1.96384">
        <ele>63</ele>
        <time>2007-12-24T04:21:03Z</time>
      </trkpt>
      <trkpt lat="47.7589" lon="-1.96388">
        <ele>62</ele>
        <time>2007-12-24T04:21:04Z</time>
      </trkpt>
      <trkpt lat="47.75892" lon="-1.96391">
        <ele>62</ele>
        <time>2007-12-24T04:21:05Z</time>
      </trkpt>
      <trkpt lat="47.75892" lon="-1.96392">
        <ele>62</ele>
        <time>2007-12-24T04:21:06Z</time>
      </trkpt>
      <trkpt lat="47.75892" lon="-1.96393">
        <ele>61</ele>
        <time>2007-12-24T04:21:06Z</time>
      </trkpt>
      <trkpt lat="47.75893" lon="-1.96395">
        <ele>61</ele>
        <time>2007-12-24T04:21:07Z</time>
      </trkpt>
      <trkpt lat="47.75897" lon="-1.96398">
        <ele>61</ele>
        <time>2007-12-24T04:21:09Z</time>
      </trkpt>
      <trkpt lat="47.75907" lon="-1.964">
        <ele>61</ele>
        <time>2007-12-24T04:21:13Z</time>
      </trkpt>
      <trkpt lat="47.7591" lon="-1.964">
        <ele>61</ele>
        <time>2007-12-24T04:21:14Z</time>
      </trkpt>
      <trkpt lat="47.7593" lon="-1.96403">
        <ele>60</ele>
        <time>2007-12-24T04:21:22Z</time>
      </trkpt>
      <trkpt lat="47.75947" lon="-1.96403">
        <ele>59</ele>
        <time>2007-12-24T04:21:29Z</time>
      </trkpt>
      <trkpt lat="47.75965" lon="-1.96406">
        <ele>58</ele>
        <time>2007-12-24T04:21:36Z</time>
      </trkpt>
      <trkpt lat="47.75984" lon="-1.96409">
        <ele>57</ele>
        <time>2007-12-24T04:21:43Z</time>
      </trkpt>
      <trkpt lat="47.76003" lon="-1.96415">
        <ele>55</ele>
        <time>2007-12-24T04:21:52Z</time>
      </trkpt>
      <trkpt lat="47.76027" lon="-1.96427">
        <ele>54</ele>
        <time>2007-12-24T04:22:01Z</time>
      </trkpt>
      <trkpt lat="47.76039" lon="-1.96444">
        <ele>52</ele>
        <time>2007-12-24T04:22:08Z</time>
      </trkpt>
      <trkpt lat="47.76047" lon="-1.96462">
        <ele>51</ele>
        <time>2007-12-24T04:22:14Z</time>
      </trkpt>
      <trkpt lat="47.76058" lon="-1.96485">
        <ele>52</ele>
        <time>2007-12-24T04:22:22Z</time>
      </trkpt>
      <trkpt lat="47.76068" lon="-1.96517">
        <ele>53</ele>
        <time>2007-12-24T04:22:31Z</time>
      </trkpt>
      <trkpt lat="47.76074" lon="-1.96527">
        <ele>53</ele>
        <time>2007-12-24T04:22:35Z</time>
      </trkpt>
      <trkpt lat="47.76076" lon="-1.96532">
        <ele>53</ele>
        <time>2007-12-24T04:22:36Z</time>
      </trkpt>
      <trkpt lat="47.76086" lon="-1.9654">
        <ele>53</ele>
        <time>2007-12-24T04:22:41Z</time>
      </trkpt>
      <trkpt lat="47.76098" lon="-1.96535">
        <ele>53</ele>
        <time>2007-12-24T04:22:46Z</time>
      </trkpt>
      <trkpt lat="47.76101" lon="-1.9652">
        <ele>54</ele>
        <time>2007-12-24T04:22:50Z</time>
      </trkpt>
      <trkpt lat="47.76101" lon="-1.96512">
        <ele>54</ele>
        <time>2007-12-24T04:22:52Z</time>
      </trkpt>
      <trkpt lat="47.76109" lon="-1.96502">
        <ele>55</ele>
        <time>2007-12-24T04:22:56Z</time>
      </trkpt>
      <trkpt lat="47.76107" lon="-1.96497">
        <ele>55</ele>
        <time>2007-12-24T04:22:58Z</time>
      </trkpt>
      <trkpt lat="47.76105" lon="-1.96492">
        <ele>55</ele>
        <time>2007-12-24T04:22:59Z</time>
      </trkpt>
      <trkpt lat="47.76108" lon="-1.96478">
        <ele>56</ele>
        <time>2007-12-24T04:23:03Z</time>
      </trkpt>
      <trkpt lat="47.7611" lon="-1.96472">
        <ele>56</ele>
        <time>2007-12-24T04:23:05Z</time>
      </trkpt>
      <trkpt lat="47.76112" lon="-1.9645">
        <ele>58</ele>
        <time>2007-12-24T04:23:11Z</time>
      </trkpt>
      <trkpt lat="47.76112" lon="-1.96442">
        <ele>58</ele>
        <time>2007-12-24T04:23:13Z</time>
      </trkpt>
      <trkpt lat="47.76117" lon="-1.96435">
        <ele>58</ele>
        <time>2007-12-24T04:23:16Z</time>
      </trkpt>
      <trkpt lat="47.76119" lon="-1.96413">
        <ele>60</ele>
        <time>2007-12-24T04:23:22Z</time>
      </trkpt>
      <trkpt lat="47.76118" lon="-1.96389">
        <ele>61</ele>
        <time>2007-12-24T04:23:28Z</time>
      </trkpt>
      <trkpt lat="47.76118" lon="-1.96353">
        <ele>63</ele>
        <time>2007-12-24T04:23:38Z</time>
      </trkpt>
      <trkpt lat="47.76119" lon="-1.96329">
        <ele>64</ele>
        <time>2007-12-24T04:23:45Z</time>
      </trkpt>
      <trkpt lat="47.76118" lon="-1.9631">
        <ele>65</ele>
        <time>2007-12-24T04:23:50Z</time>
      </trkpt>
      <trkpt lat="47.76115" lon="-1.96305">
        <ele>65</ele>
        <time>2007-12-24T04:23:52Z</time>
      </trkpt>
      <trkpt lat="47.76115" lon="-1.96303">
        <ele>65</ele>
        <time>2007-12-24T04:23:52Z</time>
      </trkpt>
      <trkpt lat="47.76113" lon="-1.96299">
        <ele>65</ele>
        <time>2007-12-24T04:23:53Z</time>
      </trkpt>
      <trkpt lat="47.76112" lon="-1.96299">
        <ele>65</ele>
        <time>2007-12-24T04:23:54Z</time>
      </trkpt>
      <trkpt lat="47.76112" lon="-1.96298">
        <ele>65</ele>
        <time>2007-12-24T04:23:54Z</time>
      </trkpt>
      <trkpt lat="47.76112" lon="-1.96299">
        <ele>65</ele>
        <time>2007-12-24T04:23:54Z</time>
      </trkpt>
      <trkpt lat="47.76113" lon="-1.96302">
        <ele>65</ele>
        <time>2007-12-24T04:23:55Z</time>
      </trkpt>
      <trkpt lat="47.76115" lon="-1.96302">
        <ele>65</ele>
        <time>2007-12-24T04:23:56Z</time>
      </trkpt>
      <trkpt lat="47.76118" lon="-1.96301">
        <ele>65</ele>
        <time>2007-12-24T04:23:57Z</time>
      </trkpt>
      <trkpt lat="47.76125" lon="-1.96281">
        <ele>65</ele>
        <time>2007-12-24T04:24:03Z</time>
      </trkpt>
      <trkpt lat="47.76133" lon="-1.96259">
        <ele>66</ele>
        <time>2007-12-24T04:24:10Z</time>
      </trkpt>
      <trkpt lat="47.76137" lon="-1.96239">
        <ele>66</ele>
        <time>2007-12-24T04:24:16Z</time>
      </trkpt>
      <trkpt lat="47.76145" lon="-1.96201">
        <ele>67</ele>
        <time>2007-12-24T04:24:26Z</time>
      </trkpt>
      <trkpt lat="47.7615" lon="-1.96173">
        <ele>68</ele>
        <time>2007-12-24T04:24:34Z</time>
      </trkpt>
      <trkpt lat="47.76153" lon="-1.96148">
        <ele>68</ele>
        <time>2007-12-24T04:24:41Z</time>
      </trkpt>
      <trkpt lat="47.76156" lon="-1.96133">
        <ele>69</ele>
        <time>2007-12-24T04:24:45Z</time>
      </trkpt>
      <trkpt lat="47.76165" lon="-1.96092">
        <ele>69</ele>
        <time>2007-12-24T04:24:57Z</time>
      </trkpt>
      <trkpt lat="47.76174" lon="-1.96042">
        <ele>69</ele>
        <time>2007-12-24T04:25:11Z</time>
      </trkpt>
      <trkpt lat="47.76179" lon="-1.96009">
        <ele>69</ele>
        <time>2007-12-24T04:25:20Z</time>
      </trkpt>
      <trkpt lat="47.76192" lon="-1.95939">
        <ele>68</ele>
        <time>2007-12-24T04:25:39Z</time>
      </trkpt>
      <trkpt lat="47.76202" lon="-1.95893">
        <ele>67</ele>
        <time>2007-12-24T04:25:52Z</time>
      </trkpt>
      <trkpt lat="47.76215" lon="-1.95872">
        <ele>67</ele>
        <time>2007-12-24T04:26:00Z</time>
      </trkpt>
      <trkpt lat="47.76231" lon="-1.95871">
        <ele>66</ele>
        <time>2007-12-24T04:26:07Z</time>
      </trkpt>
      <trkpt lat="47.76265" lon="-1.95877">
        <ele>65</ele>
        <time>2007-12-24T04:26:20Z</time>
      </trkpt>
      <trkpt lat="47.76325" lon="-1.9589">
        <ele>62</ele>
        <time>2007-12-24T04:26:45Z</time>
      </trkpt>
      <trkpt lat="47.76398" lon="-1.95907">
        <ele>62</ele>
        <time>2007-12-24T04:27:14Z</time>
      </trkpt>
      <trkpt lat="47.76435" lon="-1.9591">
        <ele>63</ele>
        <time>2007-12-24T04:27:29Z</time>
      </trkpt>
      <trkpt lat="47.76465" lon="-1.95909">
        <ele>65</ele>
        <time>2007-12-24T04:27:41Z</time>
      </trkpt>
      <trkpt lat="47.76482" lon="-1.95908">
        <ele>66</ele>
        <time>2007-12-24T04:27:48Z</time>
      </trkpt>
      <trkpt lat="47.76515" lon="-1.95904">
        <ele>67</ele>
        <time>2007-12-24T04:28:01Z</time>
      </trkpt>
      <trkpt lat="47.76533" lon="-1.95903">
        <ele>68</ele>
        <time>2007-12-24T04:28:08Z</time>
      </trkpt>
      <trkpt lat="47.76564" lon="-1.95902">
        <ele>70</ele>
        <time>2007-12-24T04:28:20Z</time>
      </trkpt>
      <trkpt lat="47.76593" lon="-1.95903">
        <ele>72</ele>
        <time>2007-12-24T04:28:32Z</time>
      </trkpt>
      <trkpt lat="47.76607" lon="-1.9592">
        <ele>73</ele>
        <time>2007-12-24T04:28:40Z</time>
      </trkpt>
      <trkpt lat="47.76622" lon="-1.95942">
        <ele>73</ele>
        <time>2007-12-24T04:28:48Z</time>
      </trkpt>
      <trkpt lat="47.76642" lon="-1.95949">
        <ele>74</ele>
        <time>2007-12-24T04:28:56Z</time>
      </trkpt>
      <trkpt lat="47.7666" lon="-1.95942">
        <ele>76</ele>
        <time>2007-12-24T04:29:04Z</time>
      </trkpt>
      <trkpt lat="47.7668" lon="-1.95928">
        <ele>78</ele>
        <time>2007-12-24T04:29:12Z</time>
      </trkpt>
      <trkpt lat="47.76697" lon="-1.95917">
        <ele>79</ele>
        <time>2007-12-24T04:29:20Z</time>
      </trkpt>
      <trkpt lat="47.767" lon="-1.95902">
        <ele>79</ele>
        <time>2007-12-24T04:29:24Z</time>
      </trkpt>
      <trkpt lat="47.76695" lon="-1.95862">
        <ele>80</ele>
        <time>2007-12-24T04:29:35Z</time>
      </trkpt>
      <trkpt lat="47.76692" lon="-1.95818">
        <ele>80</ele>
        <time>2007-12-24T04:29:47Z</time>
      </trkpt>
      <trkpt lat="47.76693" lon="-1.95773">
        <ele>80</ele>
        <time>2007-12-24T04:29:59Z</time>
      </trkpt>
      <trkpt lat="47.76688" lon="-1.95764">
        <ele>80</ele>
        <time>2007-12-24T04:30:02Z</time>
      </trkpt>
      <trkpt lat="47.7668" lon="-1.95762">
        <ele>80</ele>
        <time>2007-12-24T04:30:05Z</time>
      </trkpt>
      <trkpt lat="47.7667" lon="-1.95737">
        <ele>81</ele>
        <time>2007-12-24T04:30:13Z</time>
      </trkpt>
      <trkpt lat="47.76665" lon="-1.95713">
        <ele>81</ele>
        <time>2007-12-24T04:30:20Z</time>
      </trkpt>
      <trkpt lat="47.76665" lon="-1.95681">
        <ele>81</ele>
        <time>2007-12-24T04:30:29Z</time>
      </trkpt>
      <trkpt lat="47.76663" lon="-1.95653">
        <ele>82</ele>
        <time>2007-12-24T04:30:36Z</time>
      </trkpt>
      <trkpt lat="47.76658" lon="-1.95631">
        <ele>82</ele>
        <time>2007-12-24T04:30:43Z</time>
      </trkpt>
      <trkpt lat="47.7666" lon="-1.95611">
        <ele>83</ele>
        <time>2007-12-24T04:30:48Z</time>
      </trkpt>
      <trkpt lat="47.76663" lon="-1.95585">
        <ele>83</ele>
        <time>2007-12-24T04:30:55Z</time>
      </trkpt>
      <trkpt lat="47.76661" lon="-1.95561">
        <ele>84</ele>
        <time>2007-12-24T04:31:02Z</time>
      </trkpt>
      <trkpt lat="47.76665" lon="-1.95534">
        <ele>84</ele>
        <time>2007-12-24T04:31:09Z</time>
      </trkpt>
      <trkpt lat="47.76668" lon="-1.95504">
        <ele>85</ele>
        <time>2007-12-24T04:31:17Z</time>
      </trkpt>
      <trkpt lat="47.76665" lon="-1.9547">
        <ele>85</ele>
        <time>2007-12-24T04:31:26Z</time>
      </trkpt>
      <trkpt lat="47.76663" lon="-1.95453">
        <ele>85</ele>
        <time>2007-12-24T04:31:31Z</time>
      </trkpt>
      <trkpt lat="47.76662" lon="-1.95433">
        <ele>85</ele>
        <time>2007-12-24T04:31:36Z</time>
      </trkpt>
      <trkpt lat="47.7666" lon="-1.95408">
        <ele>85</ele>
        <time>2007-12-24T04:31:43Z</time>
      </trkpt>
      <trkpt lat="47.76662" lon="-1.95386">
        <ele>86</ele>
        <time>2007-12-24T04:31:49Z</time>
      </trkpt>
      <trkpt lat="47.76662" lon="-1.95373">
        <ele>86</ele>
        <time>2007-12-24T04:31:53Z</time>
      </trkpt>
      <trkpt lat="47.7667" lon="-1.9536">
        <ele>86</ele>
        <time>2007-12-24T04:31:58Z</time>
      </trkpt>
      <trkpt lat="47.76673" lon="-1.95351">
        <ele>86</ele>
        <time>2007-12-24T04:32:00Z</time>
      </trkpt>
      <trkpt lat="47.76682" lon="-1.95335">
        <ele>86</ele>
        <time>2007-12-24T04:32:06Z</time>
      </trkpt>
      <trkpt lat="47.76685" lon="-1.95294">
        <ele>87</ele>
        <time>2007-12-24T04:32:17Z</time>
      </trkpt>
      <trkpt lat="47.76682" lon="-1.95244">
        <ele>89</ele>
        <time>2007-12-24T04:32:30Z</time>
      </trkpt>
      <trkpt lat="47.76675" lon="-1.95227">
        <ele>89</ele>
        <time>2007-12-24T04:32:36Z</time>
      </trkpt>
      <trkpt lat="47.76666" lon="-1.95217">
        <ele>89</ele>
        <time>2007-12-24T04:32:40Z</time>
      </trkpt>
      <trkpt lat="47.76657" lon="-1.95218">
        <ele>89</ele>
        <time>2007-12-24T04:32:44Z</time>
      </trkpt>
      <trkpt lat="47.76647" lon="-1.95211">
        <ele>88</ele>
        <time>2007-12-24T04:32:49Z</time>
      </trkpt>
      <trkpt lat="47.76642" lon="-1.95197">
        <ele>88</ele>
        <time>2007-12-24T04:32:53Z</time>
      </trkpt>
      <trkpt lat="47.76642" lon="-1.95193">
        <ele>88</ele>
        <time>2007-12-24T04:32:54Z</time>
      </trkpt>
      <trkpt lat="47.76636" lon="-1.95171">
        <ele>88</ele>
        <time>2007-12-24T04:33:00Z</time>
      </trkpt>
      <trkpt lat="47.76638" lon="-1.9516">
        <ele>88</ele>
        <time>2007-12-24T04:33:03Z</time>
      </trkpt>
      <trkpt lat="47.76639" lon="-1.95133">
        <ele>88</ele>
        <time>2007-12-24T04:33:10Z</time>
      </trkpt>
      <trkpt lat="47.76639" lon="-1.95127">
        <ele>88</ele>
        <time>2007-12-24T04:33:12Z</time>
      </trkpt>
      <trkpt lat="47.7664" lon="-1.95108">
        <ele>88</ele>
        <time>2007-12-24T04:33:17Z</time>
      </trkpt>
      <trkpt lat="47.76648" lon="-1.9508">
        <ele>88</ele>
        <time>2007-12-24T04:33:25Z</time>
      </trkpt>
      <trkpt lat="47.76657" lon="-1.95053">
        <ele>88</ele>
        <time>2007-12-24T04:33:33Z</time>
      </trkpt>
      <trkpt lat="47.76659" lon="-1.95046">
        <ele>88</ele>
        <time>2007-12-24T04:33:35Z</time>
      </trkpt>
      <trkpt lat="47.76665" lon="-1.95018">
        <ele>88</ele>
        <time>2007-12-24T04:33:43Z</time>
      </trkpt>
      <trkpt lat="47.76672" lon="-1.95">
        <ele>88</ele>
        <time>2007-12-24T04:33:49Z</time>
      </trkpt>
      <trkpt lat="47.76673" lon="-1.94996">
        <ele>88</ele>
        <time>2007-12-24T04:33:50Z</time>
      </trkpt>
      <trkpt lat="47.76671" lon="-1.94967">
        <ele>88</ele>
        <time>2007-12-24T04:33:58Z</time>
      </trkpt>
      <trkpt lat="47.76664" lon="-1.94917">
        <ele>88</ele>
        <time>2007-12-24T04:34:12Z</time>
      </trkpt>
      <trkpt lat="47.76655" lon="-1.94857">
        <ele>87</ele>
        <time>2007-12-24T04:34:29Z</time>
      </trkpt>
      <trkpt lat="47.7664" lon="-1.94757">
        <ele>89</ele>
        <time>2007-12-24T04:34:56Z</time>
      </trkpt>
      <trkpt lat="47.76635" lon="-1.94718">
        <ele>89</ele>
        <time>2007-12-24T04:35:07Z</time>
      </trkpt>
      <trkpt lat="47.76632" lon="-1.94704">
        <ele>89</ele>
        <time>2007-12-24T04:35:11Z</time>
      </trkpt>
      <trkpt lat="47.7664" lon="-1.94695">
        <ele>89</ele>
        <time>2007-12-24T04:35:15Z</time>
      </trkpt>
      <trkpt lat="47.76648" lon="-1.94697">
        <ele>90</ele>
        <time>2007-12-24T04:35:18Z</time>
      </trkpt>
      <trkpt lat="47.76656" lon="-1.94702">
        <ele>90</ele>
        <time>2007-12-24T04:35:21Z</time>
      </trkpt>
      <trkpt lat="47.7666" lon="-1.94695">
        <ele>90</ele>
        <time>2007-12-24T04:35:24Z</time>
      </trkpt>
      <trkpt lat="47.76663" lon="-1.94683">
        <ele>91</ele>
        <time>2007-12-24T04:35:27Z</time>
      </trkpt>
      <trkpt lat="47.7667" lon="-1.9468">
        <ele>91</ele>
        <time>2007-12-24T04:35:30Z</time>
      </trkpt>
      <trkpt lat="47.76671" lon="-1.9468">
        <ele>91</ele>
        <time>2007-12-24T04:35:31Z</time>
      </trkpt>
      <trkpt lat="47.76675" lon="-1.9468">
        <ele>91</ele>
        <time>2007-12-24T04:35:32Z</time>
      </trkpt>
      <trkpt lat="47.7668" lon="-1.94695">
        <ele>91</ele>
        <time>2007-12-24T04:35:36Z</time>
      </trkpt>
      <trkpt lat="47.7668" lon="-1.94697">
        <ele>91</ele>
        <time>2007-12-24T04:35:37Z</time>
      </trkpt>
      <trkpt lat="47.76687" lon="-1.94699">
        <ele>91</ele>
        <time>2007-12-24T04:35:40Z</time>
      </trkpt>
      <trkpt lat="47.76697" lon="-1.94705">
        <ele>91</ele>
        <time>2007-12-24T04:35:44Z</time>
      </trkpt>
      <trkpt lat="47.76707" lon="-1.94703">
        <ele>90</ele>
        <time>2007-12-24T04:35:48Z</time>
      </trkpt>
      <trkpt lat="47.76725" lon="-1.94708">
        <ele>89</ele>
        <time>2007-12-24T04:35:56Z</time>
      </trkpt>
      <trkpt lat="47.7673" lon="-1.94708">
        <ele>89</ele>
        <time>2007-12-24T04:35:58Z</time>
      </trkpt>
      <trkpt lat="47.76735" lon="-1.947">
        <ele>88</ele>
        <time>2007-12-24T04:36:01Z</time>
      </trkpt>
      <trkpt lat="47.76747" lon="-1.9468">
        <ele>87</ele>
        <time>2007-12-24T04:36:08Z</time>
      </trkpt>
      <trkpt lat="47.76747" lon="-1.94668">
        <ele>88</ele>
        <time>2007-12-24T04:36:11Z</time>
      </trkpt>
      <trkpt lat="47.76745" lon="-1.94664">
        <ele>88</ele>
        <time>2007-12-24T04:36:13Z</time>
      </trkpt>
      <trkpt lat="47.76739" lon="-1.94655">
        <ele>89</ele>
        <time>2007-12-24T04:36:16Z</time>
      </trkpt>
      <trkpt lat="47.76733" lon="-1.94635">
        <ele>89</ele>
        <time>2007-12-24T04:36:22Z</time>
      </trkpt>
      <trkpt lat="47.7673" lon="-1.94616">
        <ele>90</ele>
        <time>2007-12-24T04:36:27Z</time>
      </trkpt>
      <trkpt lat="47.76732" lon="-1.94602">
        <ele>89</ele>
        <time>2007-12-24T04:36:31Z</time>
      </trkpt>
      <trkpt lat="47.76735" lon="-1.94583">
        <ele>89</ele>
        <time>2007-12-24T04:36:36Z</time>
      </trkpt>
      <trkpt lat="47.76739" lon="-1.94551">
        <ele>88</ele>
        <time>2007-12-24T04:36:45Z</time>
      </trkpt>
      <trkpt lat="47.7674" lon="-1.94568">
        <ele>88</ele>
        <time>2007-12-24T04:36:50Z</time>
      </trkpt>
      <trkpt lat="47.76724" lon="-1.9414">
        <ele>90</ele>
        <time>2007-12-24T04:38:45Z</time>
      </trkpt>
      <trkpt lat="47.7676" lon="-1.93895">
        <ele>85</ele>
        <time>2007-12-24T04:39:52Z</time>
      </trkpt>
      <trkpt lat="47.76721" lon="-1.93846">
        <ele>86</ele>
        <time>2007-12-24T04:40:13Z</time>
      </trkpt>
      <trkpt lat="47.7664" lon="-1.93845">
        <ele>90</ele>
        <time>2007-12-24T04:40:45Z</time>
      </trkpt>
      <trkpt lat="47.76536" lon="-1.93851">
        <ele>89</ele>
        <time>2007-12-24T04:41:27Z</time>
      </trkpt>
      <trkpt lat="47.76492" lon="-1.93687">
        <ele>89</ele>
        <time>2007-12-24T04:42:14Z</time>
      </trkpt>
      <trkpt lat="47.76628" lon="-1.93424">
        <ele>89</ele>
        <time>2007-12-24T04:43:44Z</time>
      </trkpt>
      <trkpt lat="47.76623" lon="-1.93217">
        <ele>86</ele>
        <time>2007-12-24T04:44:39Z</time>
      </trkpt>
      <trkpt lat="47.76247" lon="-1.93253">
        <ele>88</ele>
        <time>2007-12-24T04:47:10Z</time>
      </trkpt>
      <trkpt lat="47.76322" lon="-1.92932">
        <ele>87</ele>
        <time>2007-12-24T04:48:42Z</time>
      </trkpt>
      <trkpt lat="47.76353" lon="-1.92574">
        <ele>86</ele>
        <time>2007-12-24T04:50:19Z</time>
      </trkpt>
      <trkpt lat="47.7614" lon="-1.92617">
        <ele>85</ele>
        <time>2007-12-24T04:51:45Z</time>
      </trkpt>
      <trkpt lat="47.75969" lon="-1.92637">
        <ele>74</ele>
        <time>2007-12-24T04:52:54Z</time>
      </trkpt>
      <trkpt lat="47.75825" lon="-1.92632">
        <ele>71</ele>
        <time>2007-12-24T04:53:51Z</time>
      </trkpt>
      <trkpt lat="47.75746" lon="-1.92672">
        <ele>71</ele>
        <time>2007-12-24T04:54:25Z</time>
      </trkpt>
      <trkpt lat="47.7562" lon="-1.92414">
        <ele>81</ele>
        <time>2007-12-24T04:55:50Z</time>
      </trkpt>
      <trkpt lat="47.75625" lon="-1.92288">
        <ele>81</ele>
        <time>2007-12-24T04:56:24Z</time>
      </trkpt>
      <trkpt lat="47.75554" lon="-1.92256">
        <ele>79</ele>
        <time>2007-12-24T04:56:54Z</time>
      </trkpt>
      <trkpt lat="47.75406" lon="-1.92237">
        <ele>72</ele>
        <time>2007-12-24T04:57:54Z</time>
      </trkpt>
      <trkpt lat="47.75246" lon="-1.92205">
        <ele>63</ele>
        <time>2007-12-24T04:58:58Z</time>
      </trkpt>
      <trkpt lat="47.75131" lon="-1.92262">
        <ele>66</ele>
        <time>2007-12-24T04:59:47Z</time>
      </trkpt>
      <trkpt lat="47.74959" lon="-1.92295">
        <ele>73</ele>
        <time>2007-12-24T05:00:56Z</time>
      </trkpt>
      <trkpt lat="47.7471" lon="-1.92321">
        <ele>70</ele>
        <time>2007-12-24T05:02:36Z</time>
      </trkpt>
      <trkpt lat="47.74707" lon="-1.92148">
        <ele>64</ele>
        <time>2007-12-24T05:03:23Z</time>
      </trkpt>
      <trkpt lat="47.74755" lon="-1.92077">
        <ele>58</ele>
        <time>2007-12-24T05:03:50Z</time>
      </trkpt>
      <trkpt lat="47.7471" lon="-1.91961">
        <ele>64</ele>
        <time>2007-12-24T05:04:26Z</time>
      </trkpt>
      <trkpt lat="47.74731" lon="-1.91735">
        <ele>81</ele>
        <time>2007-12-24T05:05:28Z</time>
      </trkpt>
      <trkpt lat="47.74821" lon="-1.91736">
        <ele>86</ele>
        <time>2007-12-24T05:06:04Z</time>
      </trkpt>
      <trkpt lat="47.74962" lon="-1.91466">
        <ele>90</ele>
        <time>2007-12-24T05:07:35Z</time>
      </trkpt>
      <trkpt lat="47.74773" lon="-1.90958">
        <ele>93</ele>
        <time>2007-12-24T05:10:12Z</time>
      </trkpt>
      <trkpt lat="47.74394" lon="-1.90847">
        <ele>90</ele>
        <time>2007-12-24T05:12:46Z</time>
      </trkpt>
      <trkpt lat="47.73947" lon="-1.90717">
        <ele>85</ele>
        <time>2007-12-24T05:15:49Z</time>
      </trkpt>
      <trkpt lat="47.73614" lon="-1.90638">
        <ele>80</ele>
        <time>2007-12-24T05:18:04Z</time>
      </trkpt>
      <trkpt lat="47.7349" lon="-1.90614">
        <ele>70</ele>
        <time>2007-12-24T05:18:54Z</time>
      </trkpt>
      <trkpt lat="47.73394" lon="-1.90606">
        <ele>62</ele>
        <time>2007-12-24T05:19:32Z</time>
      </trkpt>
      <trkpt lat="47.73403" lon="-1.90247">
        <ele>58</ele>
        <time>2007-12-24T05:21:09Z</time>
      </trkpt>
      <trkpt lat="47.73443" lon="-1.89389">
        <ele>76</ele>
        <time>2007-12-24T05:25:01Z</time>
      </trkpt>
      <trkpt lat="47.73477" lon="-1.89398">
        <ele>78</ele>
        <time>2007-12-24T05:25:15Z</time>
      </trkpt>
      <trkpt lat="47.73666" lon="-1.8958">
        <ele>81</ele>
        <time>2007-12-24T05:26:45Z</time>
      </trkpt>
      <trkpt lat="47.737" lon="-1.89577">
        <ele>81</ele>
        <time>2007-12-24T05:26:58Z</time>
      </trkpt>
      <trkpt lat="47.74046" lon="-1.89487">
        <ele>89</ele>
        <time>2007-12-24T05:29:19Z</time>
      </trkpt>
      <trkpt lat="47.74034" lon="-1.89226">
        <ele>87</ele>
        <time>2007-12-24T05:30:29Z</time>
      </trkpt>
      <trkpt lat="47.74216" lon="-1.89387">
        <ele>90</ele>
        <time>2007-12-24T05:31:54Z</time>
      </trkpt>
      <trkpt lat="47.74302" lon="-1.89037">
        <ele>76</ele>
        <time>2007-12-24T05:33:34Z</time>
      </trkpt>
      <trkpt lat="47.74473" lon="-1.88858">
        <ele>89</ele>
        <time>2007-12-24T05:34:58Z</time>
      </trkpt>
      <trkpt lat="47.74598" lon="-1.88223">
        <ele>87</ele>
        <time>2007-12-24T05:37:56Z</time>
      </trkpt>
      <trkpt lat="47.74598" lon="-1.88224">
        <ele>87</ele>
        <time>2007-12-24T05:37:57Z</time>
      </trkpt>
      <trkpt lat="47.74587" lon="-1.88199">
        <ele>86</ele>
        <time>2007-12-24T05:38:05Z</time>
      </trkpt>
      <trkpt lat="47.74585" lon="-1.88181">
        <ele>86</ele>
        <time>2007-12-24T05:38:10Z</time>
      </trkpt>
      <trkpt lat="47.74578" lon="-1.88108">
        <ele>85</ele>
        <time>2007-12-24T05:38:30Z</time>
      </trkpt>
      <trkpt lat="47.74575" lon="-1.88052">
        <ele>84</ele>
        <time>2007-12-24T05:38:45Z</time>
      </trkpt>
      <trkpt lat="47.7458" lon="-1.87973">
        <ele>83</ele>
        <time>2007-12-24T05:39:06Z</time>
      </trkpt>
      <trkpt lat="47.74581" lon="-1.87955">
        <ele>83</ele>
        <time>2007-12-24T05:39:11Z</time>
      </trkpt>
      <trkpt lat="47.74595" lon="-1.87926">
        <ele>82</ele>
        <time>2007-12-24T05:39:20Z</time>
      </trkpt>
      <trkpt lat="47.74612" lon="-1.87923">
        <ele>82</ele>
        <time>2007-12-24T05:39:27Z</time>
      </trkpt>
      <trkpt lat="47.74643" lon="-1.87927">
        <ele>82</ele>
        <time>2007-12-24T05:39:40Z</time>
      </trkpt>
      <trkpt lat="47.7467" lon="-1.8793">
        <ele>80</ele>
        <time>2007-12-24T05:39:51Z</time>
      </trkpt>
      <trkpt lat="47.74685" lon="-1.87915">
        <ele>79</ele>
        <time>2007-12-24T05:39:58Z</time>
      </trkpt>
      <trkpt lat="47.74687" lon="-1.879">
        <ele>78</ele>
        <time>2007-12-24T05:40:02Z</time>
      </trkpt>
      <trkpt lat="47.74682" lon="-1.87838">
        <ele>77</ele>
        <time>2007-12-24T05:40:19Z</time>
      </trkpt>
      <trkpt lat="47.74679" lon="-1.87778">
        <ele>77</ele>
        <time>2007-12-24T05:40:35Z</time>
      </trkpt>
      <trkpt lat="47.74675" lon="-1.87709">
        <ele>75</ele>
        <time>2007-12-24T05:40:54Z</time>
      </trkpt>
      <trkpt lat="47.74673" lon="-1.87697">
        <ele>74</ele>
        <time>2007-12-24T05:40:57Z</time>
      </trkpt>
      <trkpt lat="47.74672" lon="-1.87649">
        <ele>71</ele>
        <time>2007-12-24T05:41:10Z</time>
      </trkpt>
      <trkpt lat="47.7467" lon="-1.87614">
        <ele>68</ele>
        <time>2007-12-24T05:41:20Z</time>
      </trkpt>
      <trkpt lat="47.74672" lon="-1.87565">
        <ele>63</ele>
        <time>2007-12-24T05:41:33Z</time>
      </trkpt>
      <trkpt lat="47.74677" lon="-1.87524">
        <ele>60</ele>
        <time>2007-12-24T05:41:44Z</time>
      </trkpt>
      <trkpt lat="47.74683" lon="-1.87483">
        <ele>57</ele>
        <time>2007-12-24T05:41:55Z</time>
      </trkpt>
      <trkpt lat="47.74691" lon="-1.87425">
        <ele>53</ele>
        <time>2007-12-24T05:42:11Z</time>
      </trkpt>
      <trkpt lat="47.74695" lon="-1.87395">
        <ele>50</ele>
        <time>2007-12-24T05:42:19Z</time>
      </trkpt>
      <trkpt lat="47.747" lon="-1.87357">
        <ele>47</ele>
        <time>2007-12-24T05:42:30Z</time>
      </trkpt>
      <trkpt lat="47.74701" lon="-1.87345">
        <ele>46</ele>
        <time>2007-12-24T05:42:33Z</time>
      </trkpt>
      <trkpt lat="47.74708" lon="-1.87329">
        <ele>45</ele>
        <time>2007-12-24T05:42:38Z</time>
      </trkpt>
      <trkpt lat="47.74732" lon="-1.87304">
        <ele>45</ele>
        <time>2007-12-24T05:42:50Z</time>
      </trkpt>
      <trkpt lat="47.74752" lon="-1.87261">
        <ele>43</ele>
        <time>2007-12-24T05:43:04Z</time>
      </trkpt>
      <trkpt lat="47.74752" lon="-1.87225">
        <ele>41</ele>
        <time>2007-12-24T05:43:13Z</time>
      </trkpt>
      <trkpt lat="47.74738" lon="-1.87146">
        <ele>36</ele>
        <time>2007-12-24T05:43:36Z</time>
      </trkpt>
      <trkpt lat="47.74737" lon="-1.87132">
        <ele>36</ele>
        <time>2007-12-24T05:43:39Z</time>
      </trkpt>
      <trkpt lat="47.7472" lon="-1.87083">
        <ele>33</ele>
        <time>2007-12-24T05:43:54Z</time>
      </trkpt>
      <trkpt lat="47.74684" lon="-1.86988">
        <ele>30</ele>
        <time>2007-12-24T05:44:24Z</time>
      </trkpt>
      <trkpt lat="47.74673" lon="-1.8697">
        <ele>30</ele>
        <time>2007-12-24T05:44:30Z</time>
      </trkpt>
      <trkpt lat="47.7466" lon="-1.86908">
        <ele>30</ele>
        <time>2007-12-24T05:44:47Z</time>
      </trkpt>
      <trkpt lat="47.74648" lon="-1.86845">
        <ele>29</ele>
        <time>2007-12-24T05:45:05Z</time>
      </trkpt>
      <trkpt lat="47.74634" lon="-1.86764">
        <ele>28</ele>
        <time>2007-12-24T05:45:28Z</time>
      </trkpt>
      <trkpt lat="47.74639" lon="-1.86736">
        <ele>27</ele>
        <time>2007-12-24T05:45:36Z</time>
      </trkpt>
      <trkpt lat="47.74647" lon="-1.8673">
        <ele>27</ele>
        <time>2007-12-24T05:45:39Z</time>
      </trkpt>
      <trkpt lat="47.74695" lon="-1.8672">
        <ele>29</ele>
        <time>2007-12-24T05:45:59Z</time>
      </trkpt>
      <trkpt lat="47.74719" lon="-1.86734">
        <ele>29</ele>
        <time>2007-12-24T05:46:09Z</time>
      </trkpt>
      <trkpt lat="47.74745" lon="-1.86764">
        <ele>31</ele>
        <time>2007-12-24T05:46:22Z</time>
      </trkpt>
      <trkpt lat="47.74748" lon="-1.86766">
        <ele>31</ele>
        <time>2007-12-24T05:46:23Z</time>
      </trkpt>
      <trkpt lat="47.74755" lon="-1.86758">
        <ele>32</ele>
        <time>2007-12-24T05:46:27Z</time>
      </trkpt>
      <trkpt lat="47.74755" lon="-1.86746">
        <ele>33</ele>
        <time>2007-12-24T05:46:30Z</time>
      </trkpt>
      <trkpt lat="47.74746" lon="-1.86713">
        <ele>33</ele>
        <time>2007-12-24T05:46:40Z</time>
      </trkpt>
      <trkpt lat="47.74752" lon="-1.86705">
        <ele>35</ele>
        <time>2007-12-24T05:46:43Z</time>
      </trkpt>
      <trkpt lat="47.74752" lon="-1.86706">
        <ele>35</ele>
        <time>2007-12-24T05:46:43Z</time>
      </trkpt>
      <trkpt lat="47.74756" lon="-1.8671">
        <ele>35</ele>
        <time>2007-12-24T05:46:45Z</time>
      </trkpt>
      <trkpt lat="47.74762" lon="-1.86711">
        <ele>36</ele>
        <time>2007-12-24T05:46:48Z</time>
      </trkpt>
      <trkpt lat="47.74764" lon="-1.86713">
        <ele>36</ele>
        <time>2007-12-24T05:46:48Z</time>
      </trkpt>
      <trkpt lat="47.74768" lon="-1.86721">
        <ele>36</ele>
        <time>2007-12-24T05:46:51Z</time>
      </trkpt>
      <trkpt lat="47.7477" lon="-1.86721">
        <ele>37</ele>
        <time>2007-12-24T05:46:52Z</time>
      </trkpt>
      <trkpt lat="47.74778" lon="-1.86728">
        <ele>37</ele>
        <time>2007-12-24T05:46:56Z</time>
      </trkpt>
      <trkpt lat="47.74786" lon="-1.86739">
        <ele>38</ele>
        <time>2007-12-24T05:47:00Z</time>
      </trkpt>
      <trkpt lat="47.74792" lon="-1.86746">
        <ele>38</ele>
        <time>2007-12-24T05:47:03Z</time>
      </trkpt>
      <trkpt lat="47.748" lon="-1.86755">
        <ele>39</ele>
        <time>2007-12-24T05:47:07Z</time>
      </trkpt>
      <trkpt lat="47.74805" lon="-1.86759">
        <ele>40</ele>
        <time>2007-12-24T05:47:09Z</time>
      </trkpt>
      <trkpt lat="47.74815" lon="-1.86765">
        <ele>41</ele>
        <time>2007-12-24T05:47:14Z</time>
      </trkpt>
      <trkpt lat="47.74822" lon="-1.86773">
        <ele>41</ele>
        <time>2007-12-24T05:47:17Z</time>
      </trkpt>
      <trkpt lat="47.74828" lon="-1.86779">
        <ele>42</ele>
        <time>2007-12-24T05:47:20Z</time>
      </trkpt>
      <trkpt lat="47.74828" lon="-1.86782">
        <ele>41</ele>
        <time>2007-12-24T05:47:21Z</time>
      </trkpt>
      <trkpt lat="47.74836" lon="-1.86789">
        <ele>42</ele>
        <time>2007-12-24T05:47:25Z</time>
      </trkpt>
      <trkpt lat="47.74845" lon="-1.86796">
        <ele>43</ele>
        <time>2007-12-24T05:47:29Z</time>
      </trkpt>
      <trkpt lat="47.74852" lon="-1.86807">
        <ele>43</ele>
        <time>2007-12-24T05:47:33Z</time>
      </trkpt>
      <trkpt lat="47.74856" lon="-1.86816">
        <ele>43</ele>
        <time>2007-12-24T05:47:36Z</time>
      </trkpt>
      <trkpt lat="47.74868" lon="-1.86828">
        <ele>43</ele>
        <time>2007-12-24T05:47:41Z</time>
      </trkpt>
      <trkpt lat="47.7488" lon="-1.8684">
        <ele>43</ele>
        <time>2007-12-24T05:47:47Z</time>
      </trkpt>
      <trkpt lat="47.74884" lon="-1.8684">
        <ele>44</ele>
        <time>2007-12-24T05:47:49Z</time>
      </trkpt>
      <trkpt lat="47.74892" lon="-1.86846">
        <ele>44</ele>
        <time>2007-12-24T05:47:52Z</time>
      </trkpt>
      <trkpt lat="47.74898" lon="-1.86858">
        <ele>44</ele>
        <time>2007-12-24T05:47:56Z</time>
      </trkpt>
      <trkpt lat="47.74908" lon="-1.86864">
        <ele>45</ele>
        <time>2007-12-24T05:48:01Z</time>
      </trkpt>
      <trkpt lat="47.74922" lon="-1.86869">
        <ele>45</ele>
        <time>2007-12-24T05:48:06Z</time>
      </trkpt>
      <trkpt lat="47.7493" lon="-1.86872">
        <ele>46</ele>
        <time>2007-12-24T05:48:10Z</time>
      </trkpt>
      <trkpt lat="47.7493" lon="-1.86871">
        <ele>46</ele>
        <time>2007-12-24T05:48:10Z</time>
      </trkpt>
      <trkpt lat="47.74927" lon="-1.86859">
        <ele>47</ele>
        <time>2007-12-24T05:48:13Z</time>
      </trkpt>
      <trkpt lat="47.74923" lon="-1.86849">
        <ele>47</ele>
        <time>2007-12-24T05:48:16Z</time>
      </trkpt>
      <trkpt lat="47.74921" lon="-1.8684">
        <ele>48</ele>
        <time>2007-12-24T05:48:19Z</time>
      </trkpt>
      <trkpt lat="47.74929" lon="-1.86835">
        <ele>49</ele>
        <time>2007-12-24T05:48:22Z</time>
      </trkpt>
      <trkpt lat="47.74937" lon="-1.86833">
        <ele>50</ele>
        <time>2007-12-24T05:48:25Z</time>
      </trkpt>
      <trkpt lat="47.7494" lon="-1.86832">
        <ele>51</ele>
        <time>2007-12-24T05:48:27Z</time>
      </trkpt>
      <trkpt lat="47.7495" lon="-1.86835">
        <ele>52</ele>
        <time>2007-12-24T05:48:31Z</time>
      </trkpt>
      <trkpt lat="47.74958" lon="-1.86835">
        <ele>52</ele>
        <time>2007-12-24T05:48:34Z</time>
      </trkpt>
      <trkpt lat="47.74964" lon="-1.86835">
        <ele>53</ele>
        <time>2007-12-24T05:48:36Z</time>
      </trkpt>
      <trkpt lat="47.74978" lon="-1.8684">
        <ele>54</ele>
        <time>2007-12-24T05:48:42Z</time>
      </trkpt>
      <trkpt lat="47.7499" lon="-1.86844">
        <ele>54</ele>
        <time>2007-12-24T05:48:47Z</time>
      </trkpt>
      <trkpt lat="47.75003" lon="-1.86849">
        <ele>55</ele>
        <time>2007-12-24T05:48:53Z</time>
      </trkpt>
      <trkpt lat="47.75011" lon="-1.86846">
        <ele>56</ele>
        <time>2007-12-24T05:48:56Z</time>
      </trkpt>
      <trkpt lat="47.75017" lon="-1.86849">
        <ele>56</ele>
        <time>2007-12-24T05:48:58Z</time>
      </trkpt>
      <trkpt lat="47.7502" lon="-1.86845">
        <ele>56</ele>
        <time>2007-12-24T05:49:00Z</time>
      </trkpt>
      <trkpt lat="47.75022" lon="-1.86842">
        <ele>57</ele>
        <time>2007-12-24T05:49:01Z</time>
      </trkpt>
      <trkpt lat="47.7502" lon="-1.86837">
        <ele>57</ele>
        <time>2007-12-24T05:49:03Z</time>
      </trkpt>
      <trkpt lat="47.75015" lon="-1.86829">
        <ele>58</ele>
        <time>2007-12-24T05:49:06Z</time>
      </trkpt>
      <trkpt lat="47.75009" lon="-1.86825">
        <ele>58</ele>
        <time>2007-12-24T05:49:08Z</time>
      </trkpt>
      <trkpt lat="47.75" lon="-1.86818">
        <ele>58</ele>
        <time>2007-12-24T05:49:12Z</time>
      </trkpt>
      <trkpt lat="47.75" lon="-1.86817">
        <ele>59</ele>
        <time>2007-12-24T05:49:13Z</time>
      </trkpt>
      <trkpt lat="47.74998" lon="-1.8681">
        <ele>59</ele>
        <time>2007-12-24T05:49:14Z</time>
      </trkpt>
      <trkpt lat="47.75007" lon="-1.86802">
        <ele>61</ele>
        <time>2007-12-24T05:49:18Z</time>
      </trkpt>
      <trkpt lat="47.7501" lon="-1.86798">
        <ele>61</ele>
        <time>2007-12-24T05:49:20Z</time>
      </trkpt>
      <trkpt lat="47.75024" lon="-1.86802">
        <ele>62</ele>
        <time>2007-12-24T05:49:26Z</time>
      </trkpt>
      <trkpt lat="47.75028" lon="-1.86804">
        <ele>61</ele>
        <time>2007-12-24T05:49:28Z</time>
      </trkpt>
      <trkpt lat="47.75032" lon="-1.8681">
        <ele>61</ele>
        <time>2007-12-24T05:49:30Z</time>
      </trkpt>
      <trkpt lat="47.75038" lon="-1.86815">
        <ele>61</ele>
        <time>2007-12-24T05:49:33Z</time>
      </trkpt>
      <trkpt lat="47.75048" lon="-1.86808">
        <ele>62</ele>
        <time>2007-12-24T05:49:37Z</time>
      </trkpt>
      <trkpt lat="47.7505" lon="-1.868">
        <ele>63</ele>
        <time>2007-12-24T05:49:39Z</time>
      </trkpt>
      <trkpt lat="47.75049" lon="-1.86788">
        <ele>64</ele>
        <time>2007-12-24T05:49:42Z</time>
      </trkpt>
      <trkpt lat="47.75043" lon="-1.86785">
        <ele>64</ele>
        <time>2007-12-24T05:49:45Z</time>
      </trkpt>
      <trkpt lat="47.75033" lon="-1.8678">
        <ele>64</ele>
        <time>2007-12-24T05:49:49Z</time>
      </trkpt>
      <trkpt lat="47.75023" lon="-1.86771">
        <ele>65</ele>
        <time>2007-12-24T05:49:54Z</time>
      </trkpt>
      <trkpt lat="47.7502" lon="-1.8677">
        <ele>65</ele>
        <time>2007-12-24T05:49:55Z</time>
      </trkpt>
      <trkpt lat="47.75012" lon="-1.86762">
        <ele>66</ele>
        <time>2007-12-24T05:49:59Z</time>
      </trkpt>
      <trkpt lat="47.75011" lon="-1.86758">
        <ele>66</ele>
        <time>2007-12-24T05:50:00Z</time>
      </trkpt>
      <trkpt lat="47.75019" lon="-1.86755">
        <ele>67</ele>
        <time>2007-12-24T05:50:03Z</time>
      </trkpt>
      <trkpt lat="47.75027" lon="-1.86748">
        <ele>68</ele>
        <time>2007-12-24T05:50:07Z</time>
      </trkpt>
      <trkpt lat="47.75027" lon="-1.86742">
        <ele>68</ele>
        <time>2007-12-24T05:50:09Z</time>
      </trkpt>
      <trkpt lat="47.7502" lon="-1.8673">
        <ele>69</ele>
        <time>2007-12-24T05:50:13Z</time>
      </trkpt>
      <trkpt lat="47.7502" lon="-1.86715">
        <ele>71</ele>
        <time>2007-12-24T05:50:17Z</time>
      </trkpt>
      <trkpt lat="47.75027" lon="-1.86707">
        <ele>72</ele>
        <time>2007-12-24T05:50:20Z</time>
      </trkpt>
      <trkpt lat="47.75027" lon="-1.86704">
        <ele>72</ele>
        <time>2007-12-24T05:50:21Z</time>
      </trkpt>
      <trkpt lat="47.75025" lon="-1.86696">
        <ele>73</ele>
        <time>2007-12-24T05:50:23Z</time>
      </trkpt>
      <trkpt lat="47.75017" lon="-1.86687">
        <ele>74</ele>
        <time>2007-12-24T05:50:27Z</time>
      </trkpt>
      <trkpt lat="47.75012" lon="-1.86675">
        <ele>75</ele>
        <time>2007-12-24T05:50:31Z</time>
      </trkpt>
      <trkpt lat="47.7501" lon="-1.86673">
        <ele>75</ele>
        <time>2007-12-24T05:50:32Z</time>
      </trkpt>
      <trkpt lat="47.75005" lon="-1.86662">
        <ele>76</ele>
        <time>2007-12-24T05:50:36Z</time>
      </trkpt>
      <trkpt lat="47.75001" lon="-1.8665">
        <ele>77</ele>
        <time>2007-12-24T05:50:39Z</time>
      </trkpt>
      <trkpt lat="47.74999" lon="-1.86645">
        <ele>77</ele>
        <time>2007-12-24T05:50:41Z</time>
      </trkpt>
      <trkpt lat="47.74991" lon="-1.86637">
        <ele>77</ele>
        <time>2007-12-24T05:50:45Z</time>
      </trkpt>
      <trkpt lat="47.74995" lon="-1.86625">
        <ele>78</ele>
        <time>2007-12-24T05:50:48Z</time>
      </trkpt>
      <trkpt lat="47.75004" lon="-1.86617">
        <ele>79</ele>
        <time>2007-12-24T05:50:52Z</time>
      </trkpt>
      <trkpt lat="47.75008" lon="-1.86615">
        <ele>79</ele>
        <time>2007-12-24T05:50:54Z</time>
      </trkpt>
      <trkpt lat="47.75015" lon="-1.86622">
        <ele>79</ele>
        <time>2007-12-24T05:50:57Z</time>
      </trkpt>
      <trkpt lat="47.75024" lon="-1.86623">
        <ele>79</ele>
        <time>2007-12-24T05:51:01Z</time>
      </trkpt>
      <trkpt lat="47.75025" lon="-1.86608">
        <ele>80</ele>
        <time>2007-12-24T05:51:05Z</time>
      </trkpt>
      <trkpt lat="47.75022" lon="-1.866">
        <ele>80</ele>
        <time>2007-12-24T05:51:07Z</time>
      </trkpt>
      <trkpt lat="47.75015" lon="-1.86597">
        <ele>80</ele>
        <time>2007-12-24T05:51:10Z</time>
      </trkpt>
      <trkpt lat="47.75008" lon="-1.86583">
        <ele>81</ele>
        <time>2007-12-24T05:51:15Z</time>
      </trkpt>
      <trkpt lat="47.75003" lon="-1.86576">
        <ele>81</ele>
        <time>2007-12-24T05:51:18Z</time>
      </trkpt>
      <trkpt lat="47.74997" lon="-1.86556">
        <ele>81</ele>
        <time>2007-12-24T05:51:24Z</time>
      </trkpt>
      <trkpt lat="47.7499" lon="-1.86533">
        <ele>81</ele>
        <time>2007-12-24T05:51:30Z</time>
      </trkpt>
      <trkpt lat="47.74988" lon="-1.86526">
        <ele>81</ele>
        <time>2007-12-24T05:51:32Z</time>
      </trkpt>
      <trkpt lat="47.74985" lon="-1.8652">
        <ele>80</ele>
        <time>2007-12-24T05:51:34Z</time>
      </trkpt>
      <trkpt lat="47.7498" lon="-1.86531">
        <ele>80</ele>
        <time>2007-12-24T05:51:38Z</time>
      </trkpt>
      <trkpt lat="47.74972" lon="-1.86542">
        <ele>79</ele>
        <time>2007-12-24T05:51:42Z</time>
      </trkpt>
      <trkpt lat="47.7497" lon="-1.8655">
        <ele>79</ele>
        <time>2007-12-24T05:51:45Z</time>
      </trkpt>
      <trkpt lat="47.7497" lon="-1.86567">
        <ele>79</ele>
        <time>2007-12-24T05:51:49Z</time>
      </trkpt>
      <trkpt lat="47.74974" lon="-1.86576">
        <ele>79</ele>
        <time>2007-12-24T05:51:52Z</time>
      </trkpt>
      <trkpt lat="47.74965" lon="-1.86582">
        <ele>78</ele>
        <time>2007-12-24T05:51:56Z</time>
      </trkpt>
      <trkpt lat="47.74955" lon="-1.86577">
        <ele>77</ele>
        <time>2007-12-24T05:52:00Z</time>
      </trkpt>
      <trkpt lat="47.7495" lon="-1.86583">
        <ele>76</ele>
        <time>2007-12-24T05:52:03Z</time>
      </trkpt>
      <trkpt lat="47.74947" lon="-1.86598">
        <ele>75</ele>
        <time>2007-12-24T05:52:07Z</time>
      </trkpt>
      <trkpt lat="47.74938" lon="-1.86602">
        <ele>74</ele>
        <time>2007-12-24T05:52:11Z</time>
      </trkpt>
      <trkpt lat="47.74933" lon="-1.86596">
        <ele>74</ele>
        <time>2007-12-24T05:52:13Z</time>
      </trkpt>
      <trkpt lat="47.74925" lon="-1.86587">
        <ele>74</ele>
        <time>2007-12-24T05:52:17Z</time>
      </trkpt>
      <trkpt lat="47.74922" lon="-1.86585">
        <ele>73</ele>
        <time>2007-12-24T05:52:19Z</time>
      </trkpt>
      <trkpt lat="47.74916" lon="-1.86605">
        <ele>72</ele>
        <time>2007-12-24T05:52:25Z</time>
      </trkpt>
      <trkpt lat="47.7491" lon="-1.86606">
        <ele>71</ele>
        <time>2007-12-24T05:52:27Z</time>
      </trkpt>
      <trkpt lat="47.749" lon="-1.86603">
        <ele>70</ele>
        <time>2007-12-24T05:52:31Z</time>
      </trkpt>
      <trkpt lat="47.7489" lon="-1.86594">
        <ele>70</ele>
        <time>2007-12-24T05:52:36Z</time>
      </trkpt>
      <trkpt lat="47.74887" lon="-1.86605">
        <ele>69</ele>
        <time>2007-12-24T05:52:39Z</time>
      </trkpt>
      <trkpt lat="47.74873" lon="-1.86613">
        <ele>67</ele>
        <time>2007-12-24T05:52:45Z</time>
      </trkpt>
      <trkpt lat="47.7486" lon="-1.86611">
        <ele>65</ele>
        <time>2007-12-24T05:52:50Z</time>
      </trkpt>
      <trkpt lat="47.74855" lon="-1.86595">
        <ele>65</ele>
        <time>2007-12-24T05:52:55Z</time>
      </trkpt>
      <trkpt lat="47.74847" lon="-1.86586">
        <ele>64</ele>
        <time>2007-12-24T05:52:59Z</time>
      </trkpt>
      <trkpt lat="47.74845" lon="-1.86594">
        <ele>64</ele>
        <time>2007-12-24T05:53:01Z</time>
      </trkpt>
      <trkpt lat="47.74836" lon="-1.86607">
        <ele>62</ele>
        <time>2007-12-24T05:53:07Z</time>
      </trkpt>
      <trkpt lat="47.74835" lon="-1.86605">
        <ele>62</ele>
        <time>2007-12-24T05:53:07Z</time>
      </trkpt>
      <trkpt lat="47.74835" lon="-1.86603">
        <ele>62</ele>
        <time>2007-12-24T05:53:08Z</time>
      </trkpt>
      <trkpt lat="47.74832" lon="-1.86585">
        <ele>62</ele>
        <time>2007-12-24T05:53:13Z</time>
      </trkpt>
      <trkpt lat="47.74833" lon="-1.86557">
        <ele>64</ele>
        <time>2007-12-24T05:53:21Z</time>
      </trkpt>
      <trkpt lat="47.74832" lon="-1.86538">
        <ele>64</ele>
        <time>2007-12-24T05:53:26Z</time>
      </trkpt>
      <trkpt lat="47.74827" lon="-1.86537">
        <ele>63</ele>
        <time>2007-12-24T05:53:28Z</time>
      </trkpt>
      <trkpt lat="47.74827" lon="-1.86535">
        <ele>63</ele>
        <time>2007-12-24T05:53:28Z</time>
      </trkpt>
      <trkpt lat="47.74825" lon="-1.86535">
        <ele>63</ele>
        <time>2007-12-24T05:53:29Z</time>
      </trkpt>
      <trkpt lat="47.74823" lon="-1.86537">
        <ele>62</ele>
        <time>2007-12-24T05:53:30Z</time>
      </trkpt>
      <trkpt lat="47.74823" lon="-1.86538">
        <ele>62</ele>
        <time>2007-12-24T05:53:30Z</time>
      </trkpt>
      <trkpt lat="47.74822" lon="-1.86539">
        <ele>62</ele>
        <time>2007-12-24T05:53:31Z</time>
      </trkpt>
      <trkpt lat="47.74821" lon="-1.86545">
        <ele>62</ele>
        <time>2007-12-24T05:53:32Z</time>
      </trkpt>
      <trkpt lat="47.7482" lon="-1.86551">
        <ele>61</ele>
        <time>2007-12-24T05:53:34Z</time>
      </trkpt>
      <trkpt lat="47.74822" lon="-1.86578">
        <ele>61</ele>
        <time>2007-12-24T05:53:41Z</time>
      </trkpt>
      <trkpt lat="47.74825" lon="-1.86602">
        <ele>61</ele>
        <time>2007-12-24T05:53:48Z</time>
      </trkpt>
      <trkpt lat="47.74827" lon="-1.8663">
        <ele>58</ele>
        <time>2007-12-24T05:53:55Z</time>
      </trkpt>
      <trkpt lat="47.74831" lon="-1.86654">
        <ele>56</ele>
        <time>2007-12-24T05:54:02Z</time>
      </trkpt>
      <trkpt lat="47.74841" lon="-1.86663">
        <ele>57</ele>
        <time>2007-12-24T05:54:07Z</time>
      </trkpt>
      <trkpt lat="47.74845" lon="-1.86667">
        <ele>57</ele>
        <time>2007-12-24T05:54:08Z</time>
      </trkpt>
      <trkpt lat="47.74849" lon="-1.86679">
        <ele>56</ele>
        <time>2007-12-24T05:54:12Z</time>
      </trkpt>
      <trkpt lat="47.74838" lon="-1.86682">
        <ele>54</ele>
        <time>2007-12-24T05:54:16Z</time>
      </trkpt>
      <trkpt lat="47.74833" lon="-1.86682">
        <ele>53</ele>
        <time>2007-12-24T05:54:18Z</time>
      </trkpt>
      <trkpt lat="47.7483" lon="-1.86678">
        <ele>53</ele>
        <time>2007-12-24T05:54:20Z</time>
      </trkpt>
      <trkpt lat="47.74822" lon="-1.86662">
        <ele>53</ele>
        <time>2007-12-24T05:54:25Z</time>
      </trkpt>
      <trkpt lat="47.74815" lon="-1.86645">
        <ele>54</ele>
        <time>2007-12-24T05:54:31Z</time>
      </trkpt>
      <trkpt lat="47.7481" lon="-1.8664">
        <ele>53</ele>
        <time>2007-12-24T05:54:33Z</time>
      </trkpt>
      <trkpt lat="47.74805" lon="-1.86633">
        <ele>52</ele>
        <time>2007-12-24T05:54:36Z</time>
      </trkpt>
      <trkpt lat="47.748" lon="-1.86621">
        <ele>52</ele>
        <time>2007-12-24T05:54:39Z</time>
      </trkpt>
      <trkpt lat="47.7479" lon="-1.86612">
        <ele>51</ele>
        <time>2007-12-24T05:54:44Z</time>
      </trkpt>
      <trkpt lat="47.74789" lon="-1.86603">
        <ele>51</ele>
        <time>2007-12-24T05:54:47Z</time>
      </trkpt>
      <trkpt lat="47.74781" lon="-1.866">
        <ele>49</ele>
        <time>2007-12-24T05:54:50Z</time>
      </trkpt>
      <trkpt lat="47.74781" lon="-1.86608">
        <ele>49</ele>
        <time>2007-12-24T05:54:52Z</time>
      </trkpt>
      <trkpt lat="47.74781" lon="-1.86612">
        <ele>48</ele>
        <time>2007-12-24T05:54:53Z</time>
      </trkpt>
      <trkpt lat="47.74785" lon="-1.86619">
        <ele>49</ele>
        <time>2007-12-24T05:54:55Z</time>
      </trkpt>
      <trkpt lat="47.74788" lon="-1.86636">
        <ele>48</ele>
        <time>2007-12-24T05:55:00Z</time>
      </trkpt>
      <trkpt lat="47.7479" lon="-1.86642">
        <ele>48</ele>
        <time>2007-12-24T05:55:02Z</time>
      </trkpt>
      <trkpt lat="47.74787" lon="-1.86642">
        <ele>48</ele>
        <time>2007-12-24T05:55:03Z</time>
      </trkpt>
      <trkpt lat="47.74778" lon="-1.86643">
        <ele>45</ele>
        <time>2007-12-24T05:55:06Z</time>
      </trkpt>
      <trkpt lat="47.74772" lon="-1.86637">
        <ele>44</ele>
        <time>2007-12-24T05:55:09Z</time>
      </trkpt>
      <trkpt lat="47.74764" lon="-1.86633">
        <ele>43</ele>
        <time>2007-12-24T05:55:13Z</time>
      </trkpt>
      <trkpt lat="47.74754" lon="-1.86618">
        <ele>42</ele>
        <time>2007-12-24T05:55:18Z</time>
      </trkpt>
      <trkpt lat="47.74747" lon="-1.866">
        <ele>41</ele>
        <time>2007-12-24T05:55:24Z</time>
      </trkpt>
      <trkpt lat="47.7474" lon="-1.86581">
        <ele>40</ele>
        <time>2007-12-24T05:55:30Z</time>
      </trkpt>
      <trkpt lat="47.74733" lon="-1.8658">
        <ele>39</ele>
        <time>2007-12-24T05:55:32Z</time>
      </trkpt>
      <trkpt lat="47.74728" lon="-1.86576">
        <ele>38</ele>
        <time>2007-12-24T05:55:35Z</time>
      </trkpt>
      <trkpt lat="47.74727" lon="-1.86559">
        <ele>38</ele>
        <time>2007-12-24T05:55:40Z</time>
      </trkpt>
      <trkpt lat="47.74727" lon="-1.86521">
        <ele>38</ele>
        <time>2007-12-24T05:55:50Z</time>
      </trkpt>
      <trkpt lat="47.74733" lon="-1.86468">
        <ele>40</ele>
        <time>2007-12-24T05:56:04Z</time>
      </trkpt>
      <trkpt lat="47.74735" lon="-1.86419">
        <ele>40</ele>
        <time>2007-12-24T05:56:18Z</time>
      </trkpt>
      <trkpt lat="47.74733" lon="-1.86395">
        <ele>40</ele>
        <time>2007-12-24T05:56:24Z</time>
      </trkpt>
      <trkpt lat="47.74727" lon="-1.86341">
        <ele>40</ele>
        <time>2007-12-24T05:56:39Z</time>
      </trkpt>
      <trkpt lat="47.74715" lon="-1.86275">
        <ele>39</ele>
        <time>2007-12-24T05:56:57Z</time>
      </trkpt>
      <trkpt lat="47.74698" lon="-1.86177">
        <ele>38</ele>
        <time>2007-12-24T05:57:24Z</time>
      </trkpt>
      <trkpt lat="47.74682" lon="-1.86066">
        <ele>38</ele>
        <time>2007-12-24T05:57:55Z</time>
      </trkpt>
      <trkpt lat="47.74668" lon="-1.85984">
        <ele>37</ele>
        <time>2007-12-24T05:58:18Z</time>
      </trkpt>
      <trkpt lat="47.7466" lon="-1.85928">
        <ele>36</ele>
        <time>2007-12-24T05:58:33Z</time>
      </trkpt>
      <trkpt lat="47.7466" lon="-1.85915">
        <ele>37</ele>
        <time>2007-12-24T05:58:37Z</time>
      </trkpt>
      <trkpt lat="47.74665" lon="-1.85898">
        <ele>37</ele>
        <time>2007-12-24T05:58:41Z</time>
      </trkpt>
      <trkpt lat="47.74678" lon="-1.85884">
        <ele>39</ele>
        <time>2007-12-24T05:58:48Z</time>
      </trkpt>
      <trkpt lat="47.74687" lon="-1.85874">
        <ele>40</ele>
        <time>2007-12-24T05:58:52Z</time>
      </trkpt>
      <trkpt lat="47.74691" lon="-1.85867">
        <ele>41</ele>
        <time>2007-12-24T05:58:55Z</time>
      </trkpt>
      <trkpt lat="47.74705" lon="-1.85848">
        <ele>43</ele>
        <time>2007-12-24T05:59:02Z</time>
      </trkpt>
      <trkpt lat="47.74718" lon="-1.85828">
        <ele>44</ele>
        <time>2007-12-24T05:59:10Z</time>
      </trkpt>
      <trkpt lat="47.7473" lon="-1.8581">
        <ele>46</ele>
        <time>2007-12-24T05:59:17Z</time>
      </trkpt>
      <trkpt lat="47.74744" lon="-1.8579">
        <ele>48</ele>
        <time>2007-12-24T05:59:24Z</time>
      </trkpt>
      <trkpt lat="47.74757" lon="-1.8577">
        <ele>50</ele>
        <time>2007-12-24T05:59:32Z</time>
      </trkpt>
      <trkpt lat="47.74767" lon="-1.85752">
        <ele>52</ele>
        <time>2007-12-24T05:59:38Z</time>
      </trkpt>
      <trkpt lat="47.74778" lon="-1.85733">
        <ele>53</ele>
        <time>2007-12-24T05:59:45Z</time>
      </trkpt>
      <trkpt lat="47.74793" lon="-1.8571">
        <ele>55</ele>
        <time>2007-12-24T05:59:54Z</time>
      </trkpt>
      <trkpt lat="47.74812" lon="-1.8568">
        <ele>57</ele>
        <time>2007-12-24T06:00:05Z</time>
      </trkpt>
      <trkpt lat="47.74827" lon="-1.85655">
        <ele>60</ele>
        <time>2007-12-24T06:00:14Z</time>
      </trkpt>
      <trkpt lat="47.7484" lon="-1.85632">
        <ele>62</ele>
        <time>2007-12-24T06:00:22Z</time>
      </trkpt>
      <trkpt lat="47.74855" lon="-1.85609">
        <ele>64</ele>
        <time>2007-12-24T06:00:31Z</time>
      </trkpt>
      <trkpt lat="47.74865" lon="-1.8559">
        <ele>65</ele>
        <time>2007-12-24T06:00:37Z</time>
      </trkpt>
      <trkpt lat="47.74874" lon="-1.85578">
        <ele>67</ele>
        <time>2007-12-24T06:00:42Z</time>
      </trkpt>
      <trkpt lat="47.74884" lon="-1.85563">
        <ele>68</ele>
        <time>2007-12-24T06:00:47Z</time>
      </trkpt>
      <trkpt lat="47.74887" lon="-1.85559">
        <ele>68</ele>
        <time>2007-12-24T06:00:49Z</time>
      </trkpt>
      <trkpt lat="47.74891" lon="-1.85548">
        <ele>68</ele>
        <time>2007-12-24T06:00:53Z</time>
      </trkpt>
      <trkpt lat="47.74905" lon="-1.85525">
        <ele>69</ele>
        <time>2007-12-24T06:01:01Z</time>
      </trkpt>
      <trkpt lat="47.74912" lon="-1.85512">
        <ele>70</ele>
        <time>2007-12-24T06:01:05Z</time>
      </trkpt>
      <trkpt lat="47.74913" lon="-1.85498">
        <ele>70</ele>
        <time>2007-12-24T06:01:09Z</time>
      </trkpt>
      <trkpt lat="47.74915" lon="-1.85497">
        <ele>70</ele>
        <time>2007-12-24T06:01:10Z</time>
      </trkpt>
      <trkpt lat="47.7492" lon="-1.85497">
        <ele>70</ele>
        <time>2007-12-24T06:01:12Z</time>
      </trkpt>
      <trkpt lat="47.74923" lon="-1.85497">
        <ele>70</ele>
        <time>2007-12-24T06:01:13Z</time>
      </trkpt>
      <trkpt lat="47.74929" lon="-1.85498">
        <ele>70</ele>
        <time>2007-12-24T06:01:15Z</time>
      </trkpt>
      <trkpt lat="47.74929" lon="-1.85496">
        <ele>70</ele>
        <time>2007-12-24T06:01:16Z</time>
      </trkpt>
      <trkpt lat="47.7493" lon="-1.85495">
        <ele>70</ele>
        <time>2007-12-24T06:01:16Z</time>
      </trkpt>
      <trkpt lat="47.74929" lon="-1.85495">
        <ele>70</ele>
        <time>2007-12-24T06:01:17Z</time>
      </trkpt>
      <trkpt lat="47.74929" lon="-1.85496">
        <ele>70</ele>
        <time>2007-12-24T06:01:17Z</time>
      </trkpt>
      <trkpt lat="47.74927" lon="-1.85497">
        <ele>70</ele>
        <time>2007-12-24T06:01:18Z</time>
      </trkpt>
      <trkpt lat="47.74927" lon="-1.85495">
        <ele>70</ele>
        <time>2007-12-24T06:01:18Z</time>
      </trkpt>
      <trkpt lat="47.74923" lon="-1.85494">
        <ele>70</ele>
        <time>2007-12-24T06:01:19Z</time>
      </trkpt>
      <trkpt lat="47.74923" lon="-1.85491">
        <ele>70</ele>
        <time>2007-12-24T06:01:20Z</time>
      </trkpt>
      <trkpt lat="47.74917" lon="-1.85477">
        <ele>70</ele>
        <time>2007-12-24T06:01:25Z</time>
      </trkpt>
      <trkpt lat="47.74922" lon="-1.85463">
        <ele>70</ele>
        <time>2007-12-24T06:01:29Z</time>
      </trkpt>
      <trkpt lat="47.74927" lon="-1.8546">
        <ele>70</ele>
        <time>2007-12-24T06:01:31Z</time>
      </trkpt>
      <trkpt lat="47.74938" lon="-1.85456">
        <ele>69</ele>
        <time>2007-12-24T06:01:36Z</time>
      </trkpt>
      <trkpt lat="47.74955" lon="-1.85433">
        <ele>68</ele>
        <time>2007-12-24T06:01:45Z</time>
      </trkpt>
      <trkpt lat="47.74965" lon="-1.85425">
        <ele>66</ele>
        <time>2007-12-24T06:01:50Z</time>
      </trkpt>
      <trkpt lat="47.7497" lon="-1.85422">
        <ele>66</ele>
        <time>2007-12-24T06:01:52Z</time>
      </trkpt>
      <trkpt lat="47.74982" lon="-1.85423">
        <ele>64</ele>
        <time>2007-12-24T06:01:56Z</time>
      </trkpt>
      <trkpt lat="47.74985" lon="-1.85429">
        <ele>64</ele>
        <time>2007-12-24T06:01:58Z</time>
      </trkpt>
      <trkpt lat="47.74996" lon="-1.85426">
        <ele>62</ele>
        <time>2007-12-24T06:02:03Z</time>
      </trkpt>
      <trkpt lat="47.75" lon="-1.85422">
        <ele>61</ele>
        <time>2007-12-24T06:02:05Z</time>
      </trkpt>
      <trkpt lat="47.75002" lon="-1.85415">
        <ele>60</ele>
        <time>2007-12-24T06:02:07Z</time>
      </trkpt>
      <trkpt lat="47.75005" lon="-1.85401">
        <ele>59</ele>
        <time>2007-12-24T06:02:11Z</time>
      </trkpt>
      <trkpt lat="47.75005" lon="-1.854">
        <ele>59</ele>
        <time>2007-12-24T06:02:11Z</time>
      </trkpt>
      <trkpt lat="47.75005" lon="-1.85397">
        <ele>59</ele>
        <time>2007-12-24T06:02:12Z</time>
      </trkpt>
      <trkpt lat="47.75003" lon="-1.85392">
        <ele>59</ele>
        <time>2007-12-24T06:02:13Z</time>
      </trkpt>
      <trkpt lat="47.75003" lon="-1.85376">
        <ele>58</ele>
        <time>2007-12-24T06:02:18Z</time>
      </trkpt>
      <trkpt lat="47.75005" lon="-1.85372">
        <ele>58</ele>
        <time>2007-12-24T06:02:19Z</time>
      </trkpt>
      <trkpt lat="47.75003" lon="-1.85355">
        <ele>57</ele>
        <time>2007-12-24T06:02:24Z</time>
      </trkpt>
      <trkpt lat="47.75002" lon="-1.85348">
        <ele>57</ele>
        <time>2007-12-24T06:02:25Z</time>
      </trkpt>
      <trkpt lat="47.75" lon="-1.85343">
        <ele>57</ele>
        <time>2007-12-24T06:02:27Z</time>
      </trkpt>
      <trkpt lat="47.75002" lon="-1.85336">
        <ele>56</ele>
        <time>2007-12-24T06:02:29Z</time>
      </trkpt>
      <trkpt lat="47.75002" lon="-1.85335">
        <ele>56</ele>
        <time>2007-12-24T06:02:29Z</time>
      </trkpt>
      <trkpt lat="47.75004" lon="-1.85333">
        <ele>56</ele>
        <time>2007-12-24T06:02:30Z</time>
      </trkpt>
      <trkpt lat="47.75007" lon="-1.85331">
        <ele>55</ele>
        <time>2007-12-24T06:02:32Z</time>
      </trkpt>
      <trkpt lat="47.7501" lon="-1.85327">
        <ele>54</ele>
        <time>2007-12-24T06:02:33Z</time>
      </trkpt>
      <trkpt lat="47.75012" lon="-1.85324">
        <ele>54</ele>
        <time>2007-12-24T06:02:34Z</time>
      </trkpt>
      <trkpt lat="47.7501" lon="-1.85304">
        <ele>53</ele>
        <time>2007-12-24T06:02:40Z</time>
      </trkpt>
      <trkpt lat="47.75009" lon="-1.85285">
        <ele>52</ele>
        <time>2007-12-24T06:02:45Z</time>
      </trkpt>
      <trkpt lat="47.7501" lon="-1.85268">
        <ele>52</ele>
        <time>2007-12-24T06:02:50Z</time>
      </trkpt>
      <trkpt lat="47.75008" lon="-1.85255">
        <ele>52</ele>
        <time>2007-12-24T06:02:53Z</time>
      </trkpt>
      <trkpt lat="47.75008" lon="-1.85253">
        <ele>52</ele>
        <time>2007-12-24T06:02:54Z</time>
      </trkpt>
      <trkpt lat="47.75013" lon="-1.85233">
        <ele>51</ele>
        <time>2007-12-24T06:02:59Z</time>
      </trkpt>
      <trkpt lat="47.75017" lon="-1.85196">
        <ele>50</ele>
        <time>2007-12-24T06:03:10Z</time>
      </trkpt>
      <trkpt lat="47.7502" lon="-1.85166">
        <ele>49</ele>
        <time>2007-12-24T06:03:18Z</time>
      </trkpt>
      <trkpt lat="47.75025" lon="-1.85142">
        <ele>48</ele>
        <time>2007-12-24T06:03:24Z</time>
      </trkpt>
      <trkpt lat="47.75029" lon="-1.8513">
        <ele>47</ele>
        <time>2007-12-24T06:03:28Z</time>
      </trkpt>
      <trkpt lat="47.75034" lon="-1.85098">
        <ele>45</ele>
        <time>2007-12-24T06:03:37Z</time>
      </trkpt>
      <trkpt lat="47.75033" lon="-1.85075">
        <ele>44</ele>
        <time>2007-12-24T06:03:43Z</time>
      </trkpt>
      <trkpt lat="47.75035" lon="-1.85054">
        <ele>44</ele>
        <time>2007-12-24T06:03:49Z</time>
      </trkpt>
      <trkpt lat="47.75032" lon="-1.85041">
        <ele>43</ele>
        <time>2007-12-24T06:03:52Z</time>
      </trkpt>
      <trkpt lat="47.75023" lon="-1.8503">
        <ele>42</ele>
        <time>2007-12-24T06:03:57Z</time>
      </trkpt>
      <trkpt lat="47.75017" lon="-1.8502">
        <ele>41</ele>
        <time>2007-12-24T06:04:01Z</time>
      </trkpt>
      <trkpt lat="47.75018" lon="-1.84992">
        <ele>40</ele>
        <time>2007-12-24T06:04:08Z</time>
      </trkpt>
      <trkpt lat="47.7502" lon="-1.84989">
        <ele>39</ele>
        <time>2007-12-24T06:04:09Z</time>
      </trkpt>
      <trkpt lat="47.75027" lon="-1.84981">
        <ele>39</ele>
        <time>2007-12-24T06:04:13Z</time>
      </trkpt>
      <trkpt lat="47.75033" lon="-1.84974">
        <ele>40</ele>
        <time>2007-12-24T06:04:16Z</time>
      </trkpt>
      <trkpt lat="47.75035" lon="-1.84955">
        <ele>39</ele>
        <time>2007-12-24T06:04:21Z</time>
      </trkpt>
      <trkpt lat="47.75035" lon="-1.84924">
        <ele>38</ele>
        <time>2007-12-24T06:04:29Z</time>
      </trkpt>
      <trkpt lat="47.75035" lon="-1.84915">
        <ele>38</ele>
        <time>2007-12-24T06:04:32Z</time>
      </trkpt>
      <trkpt lat="47.7504" lon="-1.8491">
        <ele>39</ele>
        <time>2007-12-24T06:04:34Z</time>
      </trkpt>
      <trkpt lat="47.75042" lon="-1.8491">
        <ele>39</ele>
        <time>2007-12-24T06:04:35Z</time>
      </trkpt>
      <trkpt lat="47.75045" lon="-1.8491">
        <ele>40</ele>
        <time>2007-12-24T06:04:36Z</time>
      </trkpt>
      <trkpt lat="47.75052" lon="-1.84917">
        <ele>41</ele>
        <time>2007-12-24T06:04:40Z</time>
      </trkpt>
      <trkpt lat="47.75058" lon="-1.84915">
        <ele>42</ele>
        <time>2007-12-24T06:04:42Z</time>
      </trkpt>
      <trkpt lat="47.75063" lon="-1.84918">
        <ele>43</ele>
        <time>2007-12-24T06:04:45Z</time>
      </trkpt>
      <trkpt lat="47.75062" lon="-1.84927">
        <ele>43</ele>
        <time>2007-12-24T06:04:47Z</time>
      </trkpt>
      <trkpt lat="47.75057" lon="-1.84928">
        <ele>42</ele>
        <time>2007-12-24T06:04:49Z</time>
      </trkpt>
      <trkpt lat="47.75048" lon="-1.84942">
        <ele>41</ele>
        <time>2007-12-24T06:04:54Z</time>
      </trkpt>
      <trkpt lat="47.75052" lon="-1.84949">
        <ele>42</ele>
        <time>2007-12-24T06:04:57Z</time>
      </trkpt>
      <trkpt lat="47.75055" lon="-1.84952">
        <ele>43</ele>
        <time>2007-12-24T06:04:58Z</time>
      </trkpt>
      <trkpt lat="47.7506" lon="-1.84951">
        <ele>44</ele>
        <time>2007-12-24T06:05:00Z</time>
      </trkpt>
      <trkpt lat="47.75067" lon="-1.84941">
        <ele>44</ele>
        <time>2007-12-24T06:05:04Z</time>
      </trkpt>
      <trkpt lat="47.75068" lon="-1.8494">
        <ele>45</ele>
        <time>2007-12-24T06:05:04Z</time>
      </trkpt>
      <trkpt lat="47.75074" lon="-1.84945">
        <ele>45</ele>
        <time>2007-12-24T06:05:07Z</time>
      </trkpt>
      <trkpt lat="47.75074" lon="-1.84946">
        <ele>45</ele>
        <time>2007-12-24T06:05:07Z</time>
      </trkpt>
      <trkpt lat="47.7507" lon="-1.84953">
        <ele>45</ele>
        <time>2007-12-24T06:05:10Z</time>
      </trkpt>
      <trkpt lat="47.75068" lon="-1.84968">
        <ele>45</ele>
        <time>2007-12-24T06:05:14Z</time>
      </trkpt>
      <trkpt lat="47.75058" lon="-1.84971">
        <ele>44</ele>
        <time>2007-12-24T06:05:18Z</time>
      </trkpt>
      <trkpt lat="47.75051" lon="-1.84973">
        <ele>43</ele>
        <time>2007-12-24T06:05:21Z</time>
      </trkpt>
      <trkpt lat="47.75045" lon="-1.84982">
        <ele>42</ele>
        <time>2007-12-24T06:05:24Z</time>
      </trkpt>
      <trkpt lat="47.75043" lon="-1.84992">
        <ele>42</ele>
        <time>2007-12-24T06:05:27Z</time>
      </trkpt>
      <trkpt lat="47.75047" lon="-1.84995">
        <ele>43</ele>
        <time>2007-12-24T06:05:29Z</time>
      </trkpt>
      <trkpt lat="47.75048" lon="-1.8501">
        <ele>43</ele>
        <time>2007-12-24T06:05:33Z</time>
      </trkpt>
      <trkpt lat="47.7505" lon="-1.85012">
        <ele>43</ele>
        <time>2007-12-24T06:05:34Z</time>
      </trkpt>
      <trkpt lat="47.7505" lon="-1.85026">
        <ele>44</ele>
        <time>2007-12-24T06:05:37Z</time>
      </trkpt>
      <trkpt lat="47.75054" lon="-1.85028">
        <ele>44</ele>
        <time>2007-12-24T06:05:39Z</time>
      </trkpt>
      <trkpt lat="47.75057" lon="-1.85013">
        <ele>44</ele>
        <time>2007-12-24T06:05:43Z</time>
      </trkpt>
      <trkpt lat="47.7506" lon="-1.85011">
        <ele>44</ele>
        <time>2007-12-24T06:05:44Z</time>
      </trkpt>
      <trkpt lat="47.75062" lon="-1.85015">
        <ele>45</ele>
        <time>2007-12-24T06:05:46Z</time>
      </trkpt>
      <trkpt lat="47.75067" lon="-1.85025">
        <ele>46</ele>
        <time>2007-12-24T06:05:49Z</time>
      </trkpt>
      <trkpt lat="47.7507" lon="-1.85034">
        <ele>46</ele>
        <time>2007-12-24T06:05:52Z</time>
      </trkpt>
      <trkpt lat="47.75074" lon="-1.85053">
        <ele>47</ele>
        <time>2007-12-24T06:05:57Z</time>
      </trkpt>
      <trkpt lat="47.75076" lon="-1.85056">
        <ele>47</ele>
        <time>2007-12-24T06:05:59Z</time>
      </trkpt>
      <trkpt lat="47.75078" lon="-1.85052">
        <ele>48</ele>
        <time>2007-12-24T06:06:00Z</time>
      </trkpt>
      <trkpt lat="47.7508" lon="-1.85044">
        <ele>48</ele>
        <time>2007-12-24T06:06:02Z</time>
      </trkpt>
      <trkpt lat="47.75085" lon="-1.85038">
        <ele>49</ele>
        <time>2007-12-24T06:06:05Z</time>
      </trkpt>
      <trkpt lat="47.7509" lon="-1.85029">
        <ele>51</ele>
        <time>2007-12-24T06:06:08Z</time>
      </trkpt>
      <trkpt lat="47.75095" lon="-1.85015">
        <ele>51</ele>
        <time>2007-12-24T06:06:12Z</time>
      </trkpt>
      <trkpt lat="47.75097" lon="-1.85007">
        <ele>51</ele>
        <time>2007-12-24T06:06:14Z</time>
      </trkpt>
      <trkpt lat="47.75094" lon="-1.84989">
        <ele>49</ele>
        <time>2007-12-24T06:06:19Z</time>
      </trkpt>
      <trkpt lat="47.75088" lon="-1.84983">
        <ele>48</ele>
        <time>2007-12-24T06:06:22Z</time>
      </trkpt>
      <trkpt lat="47.75088" lon="-1.84971">
        <ele>48</ele>
        <time>2007-12-24T06:06:25Z</time>
      </trkpt>
      <trkpt lat="47.75097" lon="-1.84958">
        <ele>48</ele>
        <time>2007-12-24T06:06:30Z</time>
      </trkpt>
      <trkpt lat="47.751" lon="-1.84956">
        <ele>49</ele>
        <time>2007-12-24T06:06:31Z</time>
      </trkpt>
      <trkpt lat="47.75103" lon="-1.84955">
        <ele>49</ele>
        <time>2007-12-24T06:06:33Z</time>
      </trkpt>
      <trkpt lat="47.75115" lon="-1.84943">
        <ele>50</ele>
        <time>2007-12-24T06:06:39Z</time>
      </trkpt>
      <trkpt lat="47.75127" lon="-1.84944">
        <ele>52</ele>
        <time>2007-12-24T06:06:43Z</time>
      </trkpt>
      <trkpt lat="47.75132" lon="-1.84949">
        <ele>53</ele>
        <time>2007-12-24T06:06:46Z</time>
      </trkpt>
      <trkpt lat="47.7513" lon="-1.84948">
        <ele>53</ele>
        <time>2007-12-24T06:06:47Z</time>
      </trkpt>
      <trkpt lat="47.75127" lon="-1.8495">
        <ele>52</ele>
        <time>2007-12-24T06:06:48Z</time>
      </trkpt>
      <trkpt lat="47.75113" lon="-1.84955">
        <ele>50</ele>
        <time>2007-12-24T06:06:54Z</time>
      </trkpt>
      <trkpt lat="47.75107" lon="-1.84967">
        <ele>50</ele>
        <time>2007-12-24T06:06:58Z</time>
      </trkpt>
      <trkpt lat="47.75108" lon="-1.84974">
        <ele>50</ele>
        <time>2007-12-24T06:07:00Z</time>
      </trkpt>
      <trkpt lat="47.75108" lon="-1.84975">
        <ele>51</ele>
        <time>2007-12-24T06:07:00Z</time>
      </trkpt>
      <trkpt lat="47.75113" lon="-1.84975">
        <ele>51</ele>
        <time>2007-12-24T06:07:02Z</time>
      </trkpt>
      <trkpt lat="47.75129" lon="-1.84964">
        <ele>52</ele>
        <time>2007-12-24T06:07:09Z</time>
      </trkpt>
      <trkpt lat="47.75137" lon="-1.8496">
        <ele>53</ele>
        <time>2007-12-24T06:07:12Z</time>
      </trkpt>
      <trkpt lat="47.75148" lon="-1.84955">
        <ele>55</ele>
        <time>2007-12-24T06:07:17Z</time>
      </trkpt>
      <trkpt lat="47.75156" lon="-1.84956">
        <ele>56</ele>
        <time>2007-12-24T06:07:20Z</time>
      </trkpt>
      <trkpt lat="47.75167" lon="-1.84955">
        <ele>58</ele>
        <time>2007-12-24T06:07:25Z</time>
      </trkpt>
      <trkpt lat="47.75174" lon="-1.84956">
        <ele>59</ele>
        <time>2007-12-24T06:07:27Z</time>
      </trkpt>
      <trkpt lat="47.75183" lon="-1.84955">
        <ele>60</ele>
        <time>2007-12-24T06:07:31Z</time>
      </trkpt>
      <trkpt lat="47.75191" lon="-1.84953">
        <ele>62</ele>
        <time>2007-12-24T06:07:35Z</time>
      </trkpt>
      <trkpt lat="47.75193" lon="-1.84957">
        <ele>62</ele>
        <time>2007-12-24T06:07:36Z</time>
      </trkpt>
      <trkpt lat="47.75193" lon="-1.84958">
        <ele>62</ele>
        <time>2007-12-24T06:07:36Z</time>
      </trkpt>
      <trkpt lat="47.7519" lon="-1.84966">
        <ele>61</ele>
        <time>2007-12-24T06:07:39Z</time>
      </trkpt>
      <trkpt lat="47.75184" lon="-1.84972">
        <ele>60</ele>
        <time>2007-12-24T06:07:42Z</time>
      </trkpt>
      <trkpt lat="47.75175" lon="-1.84979">
        <ele>60</ele>
        <time>2007-12-24T06:07:46Z</time>
      </trkpt>
      <trkpt lat="47.75174" lon="-1.84985">
        <ele>60</ele>
        <time>2007-12-24T06:07:48Z</time>
      </trkpt>
      <trkpt lat="47.75162" lon="-1.8499">
        <ele>59</ele>
        <time>2007-12-24T06:07:52Z</time>
      </trkpt>
      <trkpt lat="47.75153" lon="-1.84998">
        <ele>59</ele>
        <time>2007-12-24T06:07:57Z</time>
      </trkpt>
      <trkpt lat="47.75138" lon="-1.85004">
        <ele>57</ele>
        <time>2007-12-24T06:08:03Z</time>
      </trkpt>
      <trkpt lat="47.75127" lon="-1.85001">
        <ele>55</ele>
        <time>2007-12-24T06:08:07Z</time>
      </trkpt>
      <trkpt lat="47.75125" lon="-1.84999">
        <ele>55</ele>
        <time>2007-12-24T06:08:08Z</time>
      </trkpt>
      <trkpt lat="47.75116" lon="-1.85005">
        <ele>54</ele>
        <time>2007-12-24T06:08:12Z</time>
      </trkpt>
      <trkpt lat="47.75116" lon="-1.85013">
        <ele>55</ele>
        <time>2007-12-24T06:08:14Z</time>
      </trkpt>
      <trkpt lat="47.75124" lon="-1.85019">
        <ele>56</ele>
        <time>2007-12-24T06:08:18Z</time>
      </trkpt>
      <trkpt lat="47.7513" lon="-1.85021">
        <ele>57</ele>
        <time>2007-12-24T06:08:20Z</time>
      </trkpt>
      <trkpt lat="47.75132" lon="-1.85026">
        <ele>58</ele>
        <time>2007-12-24T06:08:22Z</time>
      </trkpt>
      <trkpt lat="47.75132" lon="-1.85037">
        <ele>59</ele>
        <time>2007-12-24T06:08:25Z</time>
      </trkpt>
      <trkpt lat="47.75137" lon="-1.8504">
        <ele>59</ele>
        <time>2007-12-24T06:08:27Z</time>
      </trkpt>
      <trkpt lat="47.75137" lon="-1.85042">
        <ele>59</ele>
        <time>2007-12-24T06:08:27Z</time>
      </trkpt>
      <trkpt lat="47.75138" lon="-1.85046">
        <ele>60</ele>
        <time>2007-12-24T06:08:29Z</time>
      </trkpt>
      <trkpt lat="47.75145" lon="-1.8505">
        <ele>61</ele>
        <time>2007-12-24T06:08:31Z</time>
      </trkpt>
      <trkpt lat="47.75142" lon="-1.85062">
        <ele>61</ele>
        <time>2007-12-24T06:08:35Z</time>
      </trkpt>
      <trkpt lat="47.75148" lon="-1.85061">
        <ele>62</ele>
        <time>2007-12-24T06:08:37Z</time>
      </trkpt>
      <trkpt lat="47.75154" lon="-1.8505">
        <ele>62</ele>
        <time>2007-12-24T06:08:41Z</time>
      </trkpt>
      <trkpt lat="47.75154" lon="-1.85045">
        <ele>62</ele>
        <time>2007-12-24T06:08:42Z</time>
      </trkpt>
      <trkpt lat="47.75162" lon="-1.85036">
        <ele>63</ele>
        <time>2007-12-24T06:08:46Z</time>
      </trkpt>
      <trkpt lat="47.75172" lon="-1.8503">
        <ele>63</ele>
        <time>2007-12-24T06:08:51Z</time>
      </trkpt>
      <trkpt lat="47.75181" lon="-1.85031">
        <ele>64</ele>
        <time>2007-12-24T06:08:55Z</time>
      </trkpt>
      <trkpt lat="47.75195" lon="-1.85026">
        <ele>64</ele>
        <time>2007-12-24T06:09:00Z</time>
      </trkpt>
      <trkpt lat="47.75208" lon="-1.85021">
        <ele>65</ele>
        <time>2007-12-24T06:09:06Z</time>
      </trkpt>
      <trkpt lat="47.75212" lon="-1.85014">
        <ele>65</ele>
        <time>2007-12-24T06:09:08Z</time>
      </trkpt>
      <trkpt lat="47.75212" lon="-1.84994">
        <ele>64</ele>
        <time>2007-12-24T06:09:13Z</time>
      </trkpt>
      <trkpt lat="47.75221" lon="-1.84976">
        <ele>65</ele>
        <time>2007-12-24T06:09:20Z</time>
      </trkpt>
      <trkpt lat="47.7523" lon="-1.84974">
        <ele>66</ele>
        <time>2007-12-24T06:09:23Z</time>
      </trkpt>
      <trkpt lat="47.7525" lon="-1.8498">
        <ele>67</ele>
        <time>2007-12-24T06:09:31Z</time>
      </trkpt>
      <trkpt lat="47.7527" lon="-1.84985">
        <ele>66</ele>
        <time>2007-12-24T06:09:39Z</time>
      </trkpt>
      <trkpt lat="47.75274" lon="-1.84983">
        <ele>66</ele>
        <time>2007-12-24T06:09:41Z</time>
      </trkpt>
      <trkpt lat="47.75278" lon="-1.8497">
        <ele>66</ele>
        <time>2007-12-24T06:09:45Z</time>
      </trkpt>
      <trkpt lat="47.7528" lon="-1.84938">
        <ele>66</ele>
        <time>2007-12-24T06:09:54Z</time>
      </trkpt>
      <trkpt lat="47.75282" lon="-1.84936">
        <ele>66</ele>
        <time>2007-12-24T06:09:54Z</time>
      </trkpt>
      <trkpt lat="47.75282" lon="-1.84935">
        <ele>66</ele>
        <time>2007-12-24T06:09:55Z</time>
      </trkpt>
      <trkpt lat="47.75283" lon="-1.84923">
        <ele>65</ele>
        <time>2007-12-24T06:09:58Z</time>
      </trkpt>
      <trkpt lat="47.75285" lon="-1.84892">
        <ele>65</ele>
        <time>2007-12-24T06:10:06Z</time>
      </trkpt>
      <trkpt lat="47.75285" lon="-1.84856">
        <ele>65</ele>
        <time>2007-12-24T06:10:16Z</time>
      </trkpt>
      <trkpt lat="47.75277" lon="-1.84842">
        <ele>65</ele>
        <time>2007-12-24T06:10:21Z</time>
      </trkpt>
      <trkpt lat="47.75257" lon="-1.84829">
        <ele>66</ele>
        <time>2007-12-24T06:10:30Z</time>
      </trkpt>
      <trkpt lat="47.75239" lon="-1.84807">
        <ele>66</ele>
        <time>2007-12-24T06:10:39Z</time>
      </trkpt>
      <trkpt lat="47.75237" lon="-1.84801">
        <ele>66</ele>
        <time>2007-12-24T06:10:41Z</time>
      </trkpt>
      <trkpt lat="47.75232" lon="-1.84785">
        <ele>66</ele>
        <time>2007-12-24T06:10:46Z</time>
      </trkpt>
      <trkpt lat="47.75227" lon="-1.84732">
        <ele>66</ele>
        <time>2007-12-24T06:11:00Z</time>
      </trkpt>
      <trkpt lat="47.75212" lon="-1.8466">
        <ele>65</ele>
        <time>2007-12-24T06:11:20Z</time>
      </trkpt>
      <trkpt lat="47.75201" lon="-1.84589">
        <ele>63</ele>
        <time>2007-12-24T06:11:40Z</time>
      </trkpt>
      <trkpt lat="47.75198" lon="-1.84527">
        <ele>62</ele>
        <time>2007-12-24T06:11:57Z</time>
      </trkpt>
      <trkpt lat="47.75192" lon="-1.84445">
        <ele>62</ele>
        <time>2007-12-24T06:12:19Z</time>
      </trkpt>
      <trkpt lat="47.75187" lon="-1.84419">
        <ele>62</ele>
        <time>2007-12-24T06:12:26Z</time>
      </trkpt>
      <trkpt lat="47.75192" lon="-1.84358">
        <ele>62</ele>
        <time>2007-12-24T06:12:43Z</time>
      </trkpt>
      <trkpt lat="47.75198" lon="-1.84296">
        <ele>61</ele>
        <time>2007-12-24T06:12:59Z</time>
      </trkpt>
      <trkpt lat="47.75207" lon="-1.84242">
        <ele>61</ele>
        <time>2007-12-24T06:13:15Z</time>
      </trkpt>
      <trkpt lat="47.75217" lon="-1.84175">
        <ele>59</ele>
        <time>2007-12-24T06:13:33Z</time>
      </trkpt>
      <trkpt lat="47.75223" lon="-1.84145">
        <ele>58</ele>
        <time>2007-12-24T06:13:41Z</time>
      </trkpt>
      <trkpt lat="47.75224" lon="-1.84126">
        <ele>57</ele>
        <time>2007-12-24T06:13:46Z</time>
      </trkpt>
      <trkpt lat="47.75236" lon="-1.84046">
        <ele>55</ele>
        <time>2007-12-24T06:14:09Z</time>
      </trkpt>
      <trkpt lat="47.75243" lon="-1.84003">
        <ele>53</ele>
        <time>2007-12-24T06:14:20Z</time>
      </trkpt>
      <trkpt lat="47.75252" lon="-1.83962">
        <ele>51</ele>
        <time>2007-12-24T06:14:32Z</time>
      </trkpt>
      <trkpt lat="47.75255" lon="-1.83943">
        <ele>50</ele>
        <time>2007-12-24T06:14:37Z</time>
      </trkpt>
      <trkpt lat="47.75265" lon="-1.83903">
        <ele>47</ele>
        <time>2007-12-24T06:14:49Z</time>
      </trkpt>
      <trkpt lat="47.75273" lon="-1.83875">
        <ele>42</ele>
        <time>2007-12-24T06:14:57Z</time>
      </trkpt>
      <trkpt lat="47.75275" lon="-1.8385">
        <ele>38</ele>
        <time>2007-12-24T06:15:04Z</time>
      </trkpt>
      <trkpt lat="47.75284" lon="-1.83845">
        <ele>36</ele>
        <time>2007-12-24T06:15:08Z</time>
      </trkpt>
      <trkpt lat="47.7529" lon="-1.83846">
        <ele>35</ele>
        <time>2007-12-24T06:15:10Z</time>
      </trkpt>
      <trkpt lat="47.75294" lon="-1.8385">
        <ele>35</ele>
        <time>2007-12-24T06:15:12Z</time>
      </trkpt>
      <trkpt lat="47.75306" lon="-1.83862">
        <ele>34</ele>
        <time>2007-12-24T06:15:18Z</time>
      </trkpt>
      <trkpt lat="47.75318" lon="-1.83879">
        <ele>34</ele>
        <time>2007-12-24T06:15:25Z</time>
      </trkpt>
      <trkpt lat="47.75322" lon="-1.83881">
        <ele>33</ele>
        <time>2007-12-24T06:15:26Z</time>
      </trkpt>
      <trkpt lat="47.75328" lon="-1.83901">
        <ele>33</ele>
        <time>2007-12-24T06:15:32Z</time>
      </trkpt>
      <trkpt lat="47.75333" lon="-1.83917">
        <ele>34</ele>
        <time>2007-12-24T06:15:37Z</time>
      </trkpt>
      <trkpt lat="47.7534" lon="-1.83944">
        <ele>35</ele>
        <time>2007-12-24T06:15:44Z</time>
      </trkpt>
      <trkpt lat="47.75351" lon="-1.83951">
        <ele>36</ele>
        <time>2007-12-24T06:15:50Z</time>
      </trkpt>
      <trkpt lat="47.75361" lon="-1.83957">
        <ele>36</ele>
        <time>2007-12-24T06:15:54Z</time>
      </trkpt>
      <trkpt lat="47.75363" lon="-1.83971">
        <ele>37</ele>
        <time>2007-12-24T06:15:58Z</time>
      </trkpt>
      <trkpt lat="47.75367" lon="-1.83983">
        <ele>37</ele>
        <time>2007-12-24T06:16:01Z</time>
      </trkpt>
      <trkpt lat="47.7537" lon="-1.83995">
        <ele>37</ele>
        <time>2007-12-24T06:16:05Z</time>
      </trkpt>
      <trkpt lat="47.75374" lon="-1.8401">
        <ele>37</ele>
        <time>2007-12-24T06:16:09Z</time>
      </trkpt>
      <trkpt lat="47.75375" lon="-1.84022">
        <ele>37</ele>
        <time>2007-12-24T06:16:12Z</time>
      </trkpt>
      <trkpt lat="47.75383" lon="-1.84047">
        <ele>38</ele>
        <time>2007-12-24T06:16:20Z</time>
      </trkpt>
      <trkpt lat="47.75385" lon="-1.84083">
        <ele>40</ele>
        <time>2007-12-24T06:16:29Z</time>
      </trkpt>
      <trkpt lat="47.75384" lon="-1.8412">
        <ele>41</ele>
        <time>2007-12-24T06:16:39Z</time>
      </trkpt>
      <trkpt lat="47.75383" lon="-1.84146">
        <ele>42</ele>
        <time>2007-12-24T06:16:46Z</time>
      </trkpt>
      <trkpt lat="47.75382" lon="-1.84146">
        <ele>42</ele>
        <time>2007-12-24T06:16:47Z</time>
      </trkpt>
      <trkpt lat="47.7538" lon="-1.84147">
        <ele>41</ele>
        <time>2007-12-24T06:16:47Z</time>
      </trkpt>
      <trkpt lat="47.75379" lon="-1.84147">
        <ele>41</ele>
        <time>2007-12-24T06:16:48Z</time>
      </trkpt>
      <trkpt lat="47.75377" lon="-1.84148">
        <ele>41</ele>
        <time>2007-12-24T06:16:49Z</time>
      </trkpt>
      <trkpt lat="47.75377" lon="-1.8415">
        <ele>41</ele>
        <time>2007-12-24T06:16:49Z</time>
      </trkpt>
      <trkpt lat="47.75377" lon="-1.84152">
        <ele>41</ele>
        <time>2007-12-24T06:16:50Z</time>
      </trkpt>
      <trkpt lat="47.75377" lon="-1.84154">
        <ele>41</ele>
        <time>2007-12-24T06:16:50Z</time>
      </trkpt>
      <trkpt lat="47.75377" lon="-1.84167">
        <ele>42</ele>
        <time>2007-12-24T06:16:54Z</time>
      </trkpt>
      <trkpt lat="47.75375" lon="-1.84188">
        <ele>42</ele>
        <time>2007-12-24T06:17:00Z</time>
      </trkpt>
      <trkpt lat="47.75372" lon="-1.84225">
        <ele>43</ele>
        <time>2007-12-24T06:17:10Z</time>
      </trkpt>
      <trkpt lat="47.75372" lon="-1.84251">
        <ele>45</ele>
        <time>2007-12-24T06:17:17Z</time>
      </trkpt>
      <trkpt lat="47.7537" lon="-1.84271">
        <ele>45</ele>
        <time>2007-12-24T06:17:22Z</time>
      </trkpt>
      <trkpt lat="47.75372" lon="-1.84281">
        <ele>46</ele>
        <time>2007-12-24T06:17:25Z</time>
      </trkpt>
      <trkpt lat="47.75382" lon="-1.84286">
        <ele>48</ele>
        <time>2007-12-24T06:17:29Z</time>
      </trkpt>
      <trkpt lat="47.75397" lon="-1.84288">
        <ele>51</ele>
        <time>2007-12-24T06:17:35Z</time>
      </trkpt>
      <trkpt lat="47.75407" lon="-1.8429">
        <ele>53</ele>
        <time>2007-12-24T06:17:39Z</time>
      </trkpt>
      <trkpt lat="47.75419" lon="-1.84292">
        <ele>55</ele>
        <time>2007-12-24T06:17:44Z</time>
      </trkpt>
      <trkpt lat="47.75433" lon="-1.84295">
        <ele>57</ele>
        <time>2007-12-24T06:17:50Z</time>
      </trkpt>
      <trkpt lat="47.75445" lon="-1.84296">
        <ele>59</ele>
        <time>2007-12-24T06:17:54Z</time>
      </trkpt>
      <trkpt lat="47.75462" lon="-1.84299">
        <ele>61</ele>
        <time>2007-12-24T06:18:01Z</time>
      </trkpt>
      <trkpt lat="47.75476" lon="-1.84302">
        <ele>62</ele>
        <time>2007-12-24T06:18:07Z</time>
      </trkpt>
      <trkpt lat="47.7549" lon="-1.84305">
        <ele>64</ele>
        <time>2007-12-24T06:18:13Z</time>
      </trkpt>
      <trkpt lat="47.75503" lon="-1.84306">
        <ele>65</ele>
        <time>2007-12-24T06:18:18Z</time>
      </trkpt>
      <trkpt lat="47.75512" lon="-1.84307">
        <ele>65</ele>
        <time>2007-12-24T06:18:21Z</time>
      </trkpt>
      <trkpt lat="47.75517" lon="-1.84308">
        <ele>66</ele>
        <time>2007-12-24T06:18:24Z</time>
      </trkpt>
      <trkpt lat="47.75535" lon="-1.8431">
        <ele>67</ele>
        <time>2007-12-24T06:18:31Z</time>
      </trkpt>
      <trkpt lat="47.75553" lon="-1.84314">
        <ele>68</ele>
        <time>2007-12-24T06:18:38Z</time>
      </trkpt>
      <trkpt lat="47.75582" lon="-1.84319">
        <ele>69</ele>
        <time>2007-12-24T06:18:50Z</time>
      </trkpt>
      <trkpt lat="47.75608" lon="-1.84323">
        <ele>69</ele>
        <time>2007-12-24T06:19:00Z</time>
      </trkpt>
      <trkpt lat="47.75637" lon="-1.84328">
        <ele>68</ele>
        <time>2007-12-24T06:19:12Z</time>
      </trkpt>
      <trkpt lat="47.75667" lon="-1.84331">
        <ele>66</ele>
        <time>2007-12-24T06:19:24Z</time>
      </trkpt>
      <trkpt lat="47.7569" lon="-1.84335">
        <ele>64</ele>
        <time>2007-12-24T06:19:33Z</time>
      </trkpt>
      <trkpt lat="47.75704" lon="-1.84339">
        <ele>63</ele>
        <time>2007-12-24T06:19:39Z</time>
      </trkpt>
      <trkpt lat="47.75723" lon="-1.84344">
        <ele>61</ele>
        <time>2007-12-24T06:19:47Z</time>
      </trkpt>
      <trkpt lat="47.75737" lon="-1.84357">
        <ele>59</ele>
        <time>2007-12-24T06:19:53Z</time>
      </trkpt>
      <trkpt lat="47.7574" lon="-1.84365">
        <ele>59</ele>
        <time>2007-12-24T06:19:56Z</time>
      </trkpt>
      <trkpt lat="47.75737" lon="-1.84411">
        <ele>61</ele>
        <time>2007-12-24T06:20:08Z</time>
      </trkpt>
      <trkpt lat="47.75733" lon="-1.8445">
        <ele>63</ele>
        <time>2007-12-24T06:20:19Z</time>
      </trkpt>
      <trkpt lat="47.7573" lon="-1.84479">
        <ele>64</ele>
        <time>2007-12-24T06:20:27Z</time>
      </trkpt>
      <trkpt lat="47.75727" lon="-1.84506">
        <ele>65</ele>
        <time>2007-12-24T06:20:34Z</time>
      </trkpt>
      <trkpt lat="47.75725" lon="-1.84512">
        <ele>66</ele>
        <time>2007-12-24T06:20:36Z</time>
      </trkpt>
      <trkpt lat="47.75724" lon="-1.8454">
        <ele>67</ele>
        <time>2007-12-24T06:20:43Z</time>
      </trkpt>
      <trkpt lat="47.75717" lon="-1.84592">
        <ele>69</ele>
        <time>2007-12-24T06:20:58Z</time>
      </trkpt>
      <trkpt lat="47.7571" lon="-1.84651">
        <ele>70</ele>
        <time>2007-12-24T06:21:14Z</time>
      </trkpt>
      <trkpt lat="47.75705" lon="-1.84702">
        <ele>70</ele>
        <time>2007-12-24T06:21:28Z</time>
      </trkpt>
      <trkpt lat="47.75697" lon="-1.84778">
        <ele>71</ele>
        <time>2007-12-24T06:21:48Z</time>
      </trkpt>
      <trkpt lat="47.75691" lon="-1.84829">
        <ele>73</ele>
        <time>2007-12-24T06:22:02Z</time>
      </trkpt>
      <trkpt lat="47.75688" lon="-1.84857">
        <ele>74</ele>
        <time>2007-12-24T06:22:10Z</time>
      </trkpt>
      <trkpt lat="47.75688" lon="-1.84862">
        <ele>74</ele>
        <time>2007-12-24T06:22:11Z</time>
      </trkpt>
      <trkpt lat="47.75685" lon="-1.84886">
        <ele>76</ele>
        <time>2007-12-24T06:22:18Z</time>
      </trkpt>
      <trkpt lat="47.75693" lon="-1.8489">
        <ele>75</ele>
        <time>2007-12-24T06:22:21Z</time>
      </trkpt>
      <trkpt lat="47.75695" lon="-1.84887">
        <ele>75</ele>
        <time>2007-12-24T06:22:22Z</time>
      </trkpt>
      <trkpt lat="47.7571" lon="-1.84856">
        <ele>73</ele>
        <time>2007-12-24T06:22:33Z</time>
      </trkpt>
      <trkpt lat="47.75728" lon="-1.84818">
        <ele>70</ele>
        <time>2007-12-24T06:22:45Z</time>
      </trkpt>
      <trkpt lat="47.7575" lon="-1.84771">
        <ele>67</ele>
        <time>2007-12-24T06:23:01Z</time>
      </trkpt>
      <trkpt lat="47.75775" lon="-1.8472">
        <ele>64</ele>
        <time>2007-12-24T06:23:18Z</time>
      </trkpt>
      <trkpt lat="47.75782" lon="-1.84706">
        <ele>63</ele>
        <time>2007-12-24T06:23:22Z</time>
      </trkpt>
      <trkpt lat="47.75801" lon="-1.84665">
        <ele>60</ele>
        <time>2007-12-24T06:23:36Z</time>
      </trkpt>
      <trkpt lat="47.75822" lon="-1.84623">
        <ele>56</ele>
        <time>2007-12-24T06:23:50Z</time>
      </trkpt>
      <trkpt lat="47.75848" lon="-1.84565">
        <ele>55</ele>
        <time>2007-12-24T06:24:09Z</time>
      </trkpt>
      <trkpt lat="47.75851" lon="-1.8455">
        <ele>56</ele>
        <time>2007-12-24T06:24:13Z</time>
      </trkpt>
      <trkpt lat="47.75856" lon="-1.8451">
        <ele>58</ele>
        <time>2007-12-24T06:24:24Z</time>
      </trkpt>
      <trkpt lat="47.75857" lon="-1.84462">
        <ele>59</ele>
        <time>2007-12-24T06:24:37Z</time>
      </trkpt>
      <trkpt lat="47.75859" lon="-1.84447">
        <ele>59</ele>
        <time>2007-12-24T06:24:41Z</time>
      </trkpt>
      <trkpt lat="47.75862" lon="-1.84422">
        <ele>59</ele>
        <time>2007-12-24T06:24:48Z</time>
      </trkpt>
      <trkpt lat="47.75855" lon="-1.84417">
        <ele>58</ele>
        <time>2007-12-24T06:24:51Z</time>
      </trkpt>
      <trkpt lat="47.75853" lon="-1.8443">
        <ele>58</ele>
        <time>2007-12-24T06:24:55Z</time>
      </trkpt>
      <trkpt lat="47.75849" lon="-1.84445">
        <ele>58</ele>
        <time>2007-12-24T06:24:59Z</time>
      </trkpt>
      <trkpt lat="47.75843" lon="-1.84453">
        <ele>57</ele>
        <time>2007-12-24T06:25:02Z</time>
      </trkpt>
      <trkpt lat="47.75843" lon="-1.84472">
        <ele>57</ele>
        <time>2007-12-24T06:25:07Z</time>
      </trkpt>
      <trkpt lat="47.75842" lon="-1.84493">
        <ele>57</ele>
        <time>2007-12-24T06:25:13Z</time>
      </trkpt>
      <trkpt lat="47.7584" lon="-1.84498">
        <ele>56</ele>
        <time>2007-12-24T06:25:14Z</time>
      </trkpt>
      <trkpt lat="47.7584" lon="-1.84502">
        <ele>56</ele>
        <time>2007-12-24T06:25:16Z</time>
      </trkpt>
      <trkpt lat="47.75829" lon="-1.84513">
        <ele>55</ele>
        <time>2007-12-24T06:25:21Z</time>
      </trkpt>
      <trkpt lat="47.75823" lon="-1.84515">
        <ele>54</ele>
        <time>2007-12-24T06:25:23Z</time>
      </trkpt>
      <trkpt lat="47.75819" lon="-1.84512">
        <ele>54</ele>
        <time>2007-12-24T06:25:25Z</time>
      </trkpt>
      <trkpt lat="47.75817" lon="-1.84503">
        <ele>53</ele>
        <time>2007-12-24T06:25:28Z</time>
      </trkpt>
      <trkpt lat="47.75817" lon="-1.845">
        <ele>53</ele>
        <time>2007-12-24T06:25:28Z</time>
      </trkpt>
      <trkpt lat="47.75823" lon="-1.84493">
        <ele>54</ele>
        <time>2007-12-24T06:25:32Z</time>
      </trkpt>
      <trkpt lat="47.75826" lon="-1.84481">
        <ele>54</ele>
        <time>2007-12-24T06:25:35Z</time>
      </trkpt>
      <trkpt lat="47.75826" lon="-1.84477">
        <ele>54</ele>
        <time>2007-12-24T06:25:36Z</time>
      </trkpt>
      <trkpt lat="47.75824" lon="-1.8446">
        <ele>54</ele>
        <time>2007-12-24T06:25:41Z</time>
      </trkpt>
      <trkpt lat="47.7582" lon="-1.84445">
        <ele>53</ele>
        <time>2007-12-24T06:25:45Z</time>
      </trkpt>
      <trkpt lat="47.75812" lon="-1.84434">
        <ele>51</ele>
        <time>2007-12-24T06:25:50Z</time>
      </trkpt>
      <trkpt lat="47.75807" lon="-1.84427">
        <ele>50</ele>
        <time>2007-12-24T06:25:52Z</time>
      </trkpt>
      <trkpt lat="47.75802" lon="-1.84418">
        <ele>51</ele>
        <time>2007-12-24T06:25:56Z</time>
      </trkpt>
      <trkpt lat="47.75809" lon="-1.84402">
        <ele>50</ele>
        <time>2007-12-24T06:26:01Z</time>
      </trkpt>
      <trkpt lat="47.75813" lon="-1.84403">
        <ele>51</ele>
        <time>2007-12-24T06:26:03Z</time>
      </trkpt>
      <trkpt lat="47.75815" lon="-1.84403">
        <ele>51</ele>
        <time>2007-12-24T06:26:03Z</time>
      </trkpt>
      <trkpt lat="47.75817" lon="-1.84403">
        <ele>51</ele>
        <time>2007-12-24T06:26:04Z</time>
      </trkpt>
      <trkpt lat="47.7582" lon="-1.84401">
        <ele>52</ele>
        <time>2007-12-24T06:26:06Z</time>
      </trkpt>
      <trkpt lat="47.75822" lon="-1.84383">
        <ele>52</ele>
        <time>2007-12-24T06:26:11Z</time>
      </trkpt>
      <trkpt lat="47.75822" lon="-1.84373">
        <ele>52</ele>
        <time>2007-12-24T06:26:13Z</time>
      </trkpt>
      <trkpt lat="47.75827" lon="-1.84355">
        <ele>52</ele>
        <time>2007-12-24T06:26:19Z</time>
      </trkpt>
      <trkpt lat="47.75833" lon="-1.84337">
        <ele>53</ele>
        <time>2007-12-24T06:26:24Z</time>
      </trkpt>
      <trkpt lat="47.75835" lon="-1.84333">
        <ele>53</ele>
        <time>2007-12-24T06:26:25Z</time>
      </trkpt>
      <trkpt lat="47.75835" lon="-1.8433">
        <ele>53</ele>
        <time>2007-12-24T06:26:26Z</time>
      </trkpt>
      <trkpt lat="47.75827" lon="-1.84328">
        <ele>51</ele>
        <time>2007-12-24T06:26:29Z</time>
      </trkpt>
      <trkpt lat="47.75823" lon="-1.84337">
        <ele>51</ele>
        <time>2007-12-24T06:26:32Z</time>
      </trkpt>
      <trkpt lat="47.75815" lon="-1.84347">
        <ele>50</ele>
        <time>2007-12-24T06:26:36Z</time>
      </trkpt>
      <trkpt lat="47.75813" lon="-1.84347">
        <ele>50</ele>
        <time>2007-12-24T06:26:37Z</time>
      </trkpt>
      <trkpt lat="47.7581" lon="-1.84334">
        <ele>49</ele>
        <time>2007-12-24T06:26:41Z</time>
      </trkpt>
      <trkpt lat="47.75813" lon="-1.84322">
        <ele>49</ele>
        <time>2007-12-24T06:26:44Z</time>
      </trkpt>
      <trkpt lat="47.75818" lon="-1.84313">
        <ele>49</ele>
        <time>2007-12-24T06:26:47Z</time>
      </trkpt>
      <trkpt lat="47.75825" lon="-1.84315">
        <ele>51</ele>
        <time>2007-12-24T06:26:50Z</time>
      </trkpt>
      <trkpt lat="47.75825" lon="-1.84317">
        <ele>51</ele>
        <time>2007-12-24T06:26:51Z</time>
      </trkpt>
      <trkpt lat="47.7583" lon="-1.84317">
        <ele>52</ele>
        <time>2007-12-24T06:26:53Z</time>
      </trkpt>
      <trkpt lat="47.75838" lon="-1.84316">
        <ele>53</ele>
        <time>2007-12-24T06:26:56Z</time>
      </trkpt>
      <trkpt lat="47.75845" lon="-1.84315">
        <ele>55</ele>
        <time>2007-12-24T06:26:59Z</time>
      </trkpt>
      <trkpt lat="47.75852" lon="-1.84314">
        <ele>56</ele>
        <time>2007-12-24T06:27:02Z</time>
      </trkpt>
      <trkpt lat="47.75855" lon="-1.84314">
        <ele>56</ele>
        <time>2007-12-24T06:27:03Z</time>
      </trkpt>
      <trkpt lat="47.75863" lon="-1.84315">
        <ele>57</ele>
        <time>2007-12-24T06:27:06Z</time>
      </trkpt>
      <trkpt lat="47.7588" lon="-1.84315">
        <ele>59</ele>
        <time>2007-12-24T06:27:13Z</time>
      </trkpt>
      <trkpt lat="47.75891" lon="-1.84314">
        <ele>61</ele>
        <time>2007-12-24T06:27:17Z</time>
      </trkpt>
      <trkpt lat="47.75897" lon="-1.84302">
        <ele>61</ele>
        <time>2007-12-24T06:27:21Z</time>
      </trkpt>
      <trkpt lat="47.75905" lon="-1.84271">
        <ele>62</ele>
        <time>2007-12-24T06:27:30Z</time>
      </trkpt>
      <trkpt lat="47.75915" lon="-1.84235">
        <ele>63</ele>
        <time>2007-12-24T06:27:41Z</time>
      </trkpt>
      <trkpt lat="47.75924" lon="-1.84206">
        <ele>63</ele>
        <time>2007-12-24T06:27:49Z</time>
      </trkpt>
      <trkpt lat="47.75933" lon="-1.84185">
        <ele>64</ele>
        <time>2007-12-24T06:27:56Z</time>
      </trkpt>
      <trkpt lat="47.7594" lon="-1.84187">
        <ele>64</ele>
        <time>2007-12-24T06:27:59Z</time>
      </trkpt>
      <trkpt lat="47.75944" lon="-1.84224">
        <ele>65</ele>
        <time>2007-12-24T06:28:09Z</time>
      </trkpt>
      <trkpt lat="47.75943" lon="-1.8426">
        <ele>65</ele>
        <time>2007-12-24T06:28:19Z</time>
      </trkpt>
      <trkpt lat="47.75945" lon="-1.84297">
        <ele>66</ele>
        <time>2007-12-24T06:28:29Z</time>
      </trkpt>
      <trkpt lat="47.75948" lon="-1.84347">
        <ele>66</ele>
        <time>2007-12-24T06:28:42Z</time>
      </trkpt>
      <trkpt lat="47.75949" lon="-1.84365">
        <ele>66</ele>
        <time>2007-12-24T06:28:47Z</time>
      </trkpt>
      <trkpt lat="47.7595" lon="-1.84413">
        <ele>67</ele>
        <time>2007-12-24T06:29:00Z</time>
      </trkpt>
      <trkpt lat="47.75951" lon="-1.84461">
        <ele>68</ele>
        <time>2007-12-24T06:29:13Z</time>
      </trkpt>
      <trkpt lat="47.75952" lon="-1.8448">
        <ele>68</ele>
        <time>2007-12-24T06:29:18Z</time>
      </trkpt>
      <trkpt lat="47.75954" lon="-1.84505">
        <ele>68</ele>
        <time>2007-12-24T06:29:25Z</time>
      </trkpt>
      <trkpt lat="47.75955" lon="-1.84561">
        <ele>69</ele>
        <time>2007-12-24T06:29:40Z</time>
      </trkpt>
      <trkpt lat="47.75957" lon="-1.84617">
        <ele>70</ele>
        <time>2007-12-24T06:29:55Z</time>
      </trkpt>
      <trkpt lat="47.75955" lon="-1.84661">
        <ele>69</ele>
        <time>2007-12-24T06:30:07Z</time>
      </trkpt>
      <trkpt lat="47.75955" lon="-1.8468">
        <ele>69</ele>
        <time>2007-12-24T06:30:12Z</time>
      </trkpt>
      <trkpt lat="47.75955" lon="-1.84695">
        <ele>69</ele>
        <time>2007-12-24T06:30:16Z</time>
      </trkpt>
      <trkpt lat="47.75953" lon="-1.84743">
        <ele>68</ele>
        <time>2007-12-24T06:30:29Z</time>
      </trkpt>
      <trkpt lat="47.75956" lon="-1.84779">
        <ele>69</ele>
        <time>2007-12-24T06:30:39Z</time>
      </trkpt>
      <trkpt lat="47.75956" lon="-1.84792">
        <ele>70</ele>
        <time>2007-12-24T06:30:42Z</time>
      </trkpt>
      <trkpt lat="47.75957" lon="-1.84837">
        <ele>70</ele>
        <time>2007-12-24T06:30:55Z</time>
      </trkpt>
      <trkpt lat="47.75957" lon="-1.84859">
        <ele>71</ele>
        <time>2007-12-24T06:31:00Z</time>
      </trkpt>
      <trkpt lat="47.7596" lon="-1.84883">
        <ele>72</ele>
        <time>2007-12-24T06:31:07Z</time>
      </trkpt>
      <trkpt lat="47.75961" lon="-1.84919">
        <ele>72</ele>
        <time>2007-12-24T06:31:17Z</time>
      </trkpt>
      <trkpt lat="47.75962" lon="-1.84955">
        <ele>73</ele>
        <time>2007-12-24T06:31:26Z</time>
      </trkpt>
      <trkpt lat="47.75955" lon="-1.84999">
        <ele>73</ele>
        <time>2007-12-24T06:31:38Z</time>
      </trkpt>
      <trkpt lat="47.75948" lon="-1.85044">
        <ele>73</ele>
        <time>2007-12-24T06:31:51Z</time>
      </trkpt>
      <trkpt lat="47.75945" lon="-1.85058">
        <ele>73</ele>
        <time>2007-12-24T06:31:55Z</time>
      </trkpt>
      <trkpt lat="47.75941" lon="-1.85087">
        <ele>73</ele>
        <time>2007-12-24T06:32:03Z</time>
      </trkpt>
      <trkpt lat="47.75935" lon="-1.85142">
        <ele>72</ele>
        <time>2007-12-24T06:32:18Z</time>
      </trkpt>
      <trkpt lat="47.75925" lon="-1.85186">
        <ele>71</ele>
        <time>2007-12-24T06:32:30Z</time>
      </trkpt>
      <trkpt lat="47.7592" lon="-1.85217">
        <ele>71</ele>
        <time>2007-12-24T06:32:39Z</time>
      </trkpt>
      <trkpt lat="47.75927" lon="-1.85253">
        <ele>72</ele>
        <time>2007-12-24T06:32:49Z</time>
      </trkpt>
      <trkpt lat="47.75941" lon="-1.85257">
        <ele>73</ele>
        <time>2007-12-24T06:32:55Z</time>
      </trkpt>
      <trkpt lat="47.75952" lon="-1.85258">
        <ele>74</ele>
        <time>2007-12-24T06:32:59Z</time>
      </trkpt>
      <trkpt lat="47.75975" lon="-1.8526">
        <ele>75</ele>
        <time>2007-12-24T06:33:08Z</time>
      </trkpt>
      <trkpt lat="47.75985" lon="-1.85261">
        <ele>76</ele>
        <time>2007-12-24T06:33:13Z</time>
      </trkpt>
      <trkpt lat="47.76017" lon="-1.85263">
        <ele>78</ele>
        <time>2007-12-24T06:33:25Z</time>
      </trkpt>
      <trkpt lat="47.76053" lon="-1.85266">
        <ele>79</ele>
        <time>2007-12-24T06:33:40Z</time>
      </trkpt>
      <trkpt lat="47.76082" lon="-1.8527">
        <ele>81</ele>
        <time>2007-12-24T06:33:51Z</time>
      </trkpt>
      <trkpt lat="47.76119" lon="-1.85276">
        <ele>84</ele>
        <time>2007-12-24T06:34:06Z</time>
      </trkpt>
      <trkpt lat="47.76149" lon="-1.8528">
        <ele>85</ele>
        <time>2007-12-24T06:34:18Z</time>
      </trkpt>
      <trkpt lat="47.76174" lon="-1.85282">
        <ele>87</ele>
        <time>2007-12-24T06:34:28Z</time>
      </trkpt>
      <trkpt lat="47.76176" lon="-1.85282">
        <ele>87</ele>
        <time>2007-12-24T06:34:29Z</time>
      </trkpt>
      <trkpt lat="47.76201" lon="-1.85291">
        <ele>88</ele>
        <time>2007-12-24T06:34:39Z</time>
      </trkpt>
      <trkpt lat="47.76227" lon="-1.85288">
        <ele>89</ele>
        <time>2007-12-24T06:34:50Z</time>
      </trkpt>
      <trkpt lat="47.76255" lon="-1.85291">
        <ele>91</ele>
        <time>2007-12-24T06:35:01Z</time>
      </trkpt>
      <trkpt lat="47.76275" lon="-1.85292">
        <ele>92</ele>
        <time>2007-12-24T06:35:09Z</time>
      </trkpt>
      <trkpt lat="47.76303" lon="-1.85295">
        <ele>93</ele>
        <time>2007-12-24T06:35:20Z</time>
      </trkpt>
      <trkpt lat="47.76331" lon="-1.85299">
        <ele>93</ele>
        <time>2007-12-24T06:35:32Z</time>
      </trkpt>
      <trkpt lat="47.7636" lon="-1.85302">
        <ele>93</ele>
        <time>2007-12-24T06:35:43Z</time>
      </trkpt>
      <trkpt lat="47.7639" lon="-1.85303">
        <ele>92</ele>
        <time>2007-12-24T06:35:55Z</time>
      </trkpt>
      <trkpt lat="47.76421" lon="-1.85309">
        <ele>92</ele>
        <time>2007-12-24T06:36:08Z</time>
      </trkpt>
      <trkpt lat="47.76457" lon="-1.85312">
        <ele>91</ele>
        <time>2007-12-24T06:36:22Z</time>
      </trkpt>
      <trkpt lat="47.76488" lon="-1.85317">
        <ele>90</ele>
        <time>2007-12-24T06:36:35Z</time>
      </trkpt>
      <trkpt lat="47.76527" lon="-1.8532">
        <ele>87</ele>
        <time>2007-12-24T06:36:50Z</time>
      </trkpt>
      <trkpt lat="47.76543" lon="-1.85338">
        <ele>87</ele>
        <time>2007-12-24T06:36:58Z</time>
      </trkpt>
      <trkpt lat="47.76549" lon="-1.85349">
        <ele>86</ele>
        <time>2007-12-24T06:37:02Z</time>
      </trkpt>
      <trkpt lat="47.7656" lon="-1.85347">
        <ele>85</ele>
        <time>2007-12-24T06:37:07Z</time>
      </trkpt>
      <trkpt lat="47.76567" lon="-1.85343">
        <ele>85</ele>
        <time>2007-12-24T06:37:09Z</time>
      </trkpt>
      <trkpt lat="47.7658" lon="-1.85341">
        <ele>83</ele>
        <time>2007-12-24T06:37:15Z</time>
      </trkpt>
      <trkpt lat="47.76588" lon="-1.85344">
        <ele>82</ele>
        <time>2007-12-24T06:37:18Z</time>
      </trkpt>
      <trkpt lat="47.76595" lon="-1.85352">
        <ele>81</ele>
        <time>2007-12-24T06:37:21Z</time>
      </trkpt>
      <trkpt lat="47.76593" lon="-1.85365">
        <ele>81</ele>
        <time>2007-12-24T06:37:25Z</time>
      </trkpt>
      <trkpt lat="47.76598" lon="-1.8537">
        <ele>79</ele>
        <time>2007-12-24T06:37:28Z</time>
      </trkpt>
      <trkpt lat="47.76603" lon="-1.85376">
        <ele>78</ele>
        <time>2007-12-24T06:37:30Z</time>
      </trkpt>
      <trkpt lat="47.76607" lon="-1.85378">
        <ele>77</ele>
        <time>2007-12-24T06:37:32Z</time>
      </trkpt>
      <trkpt lat="47.76615" lon="-1.85375">
        <ele>76</ele>
        <time>2007-12-24T06:37:35Z</time>
      </trkpt>
      <trkpt lat="47.76622" lon="-1.85369">
        <ele>75</ele>
        <time>2007-12-24T06:37:38Z</time>
      </trkpt>
      <trkpt lat="47.76625" lon="-1.8536">
        <ele>75</ele>
        <time>2007-12-24T06:37:41Z</time>
      </trkpt>
      <trkpt lat="47.76635" lon="-1.85355">
        <ele>73</ele>
        <time>2007-12-24T06:37:45Z</time>
      </trkpt>
      <trkpt lat="47.76635" lon="-1.85354">
        <ele>73</ele>
        <time>2007-12-24T06:37:46Z</time>
      </trkpt>
      <trkpt lat="47.7664" lon="-1.85352">
        <ele>72</ele>
        <time>2007-12-24T06:37:48Z</time>
      </trkpt>
      <trkpt lat="47.7664" lon="-1.85363">
        <ele>72</ele>
        <time>2007-12-24T06:37:51Z</time>
      </trkpt>
      <trkpt lat="47.76632" lon="-1.85376">
        <ele>72</ele>
        <time>2007-12-24T06:37:55Z</time>
      </trkpt>
      <trkpt lat="47.76634" lon="-1.8539">
        <ele>71</ele>
        <time>2007-12-24T06:37:59Z</time>
      </trkpt>
      <trkpt lat="47.7664" lon="-1.85402">
        <ele>68</ele>
        <time>2007-12-24T06:38:03Z</time>
      </trkpt>
      <trkpt lat="47.76642" lon="-1.85405">
        <ele>68</ele>
        <time>2007-12-24T06:38:04Z</time>
      </trkpt>
      <trkpt lat="47.76646" lon="-1.85405">
        <ele>67</ele>
        <time>2007-12-24T06:38:06Z</time>
      </trkpt>
      <trkpt lat="47.76663" lon="-1.85393">
        <ele>64</ele>
        <time>2007-12-24T06:38:14Z</time>
      </trkpt>
      <trkpt lat="47.76669" lon="-1.85382">
        <ele>64</ele>
        <time>2007-12-24T06:38:17Z</time>
      </trkpt>
      <trkpt lat="47.76682" lon="-1.85375">
        <ele>62</ele>
        <time>2007-12-24T06:38:23Z</time>
      </trkpt>
      <trkpt lat="47.7669" lon="-1.85364">
        <ele>62</ele>
        <time>2007-12-24T06:38:27Z</time>
      </trkpt>
      <trkpt lat="47.76695" lon="-1.8535">
        <ele>62</ele>
        <time>2007-12-24T06:38:32Z</time>
      </trkpt>
      <trkpt lat="47.76702" lon="-1.85349">
        <ele>61</ele>
        <time>2007-12-24T06:38:34Z</time>
      </trkpt>
      <trkpt lat="47.76713" lon="-1.85353">
        <ele>59</ele>
        <time>2007-12-24T06:38:39Z</time>
      </trkpt>
      <trkpt lat="47.7672" lon="-1.85368">
        <ele>57</ele>
        <time>2007-12-24T06:38:44Z</time>
      </trkpt>
      <trkpt lat="47.76732" lon="-1.85379">
        <ele>55</ele>
        <time>2007-12-24T06:38:50Z</time>
      </trkpt>
      <trkpt lat="47.76734" lon="-1.85389">
        <ele>55</ele>
        <time>2007-12-24T06:38:52Z</time>
      </trkpt>
      <trkpt lat="47.76742" lon="-1.85401">
        <ele>53</ele>
        <time>2007-12-24T06:38:57Z</time>
      </trkpt>
      <trkpt lat="47.76747" lon="-1.85405">
        <ele>52</ele>
        <time>2007-12-24T06:38:59Z</time>
      </trkpt>
      <trkpt lat="47.76762" lon="-1.85414">
        <ele>50</ele>
        <time>2007-12-24T06:39:06Z</time>
      </trkpt>
      <trkpt lat="47.76766" lon="-1.85432">
        <ele>49</ele>
        <time>2007-12-24T06:39:11Z</time>
      </trkpt>
      <trkpt lat="47.76774" lon="-1.85432">
        <ele>48</ele>
        <time>2007-12-24T06:39:14Z</time>
      </trkpt>
      <trkpt lat="47.7678" lon="-1.8541">
        <ele>47</ele>
        <time>2007-12-24T06:39:20Z</time>
      </trkpt>
      <trkpt lat="47.76787" lon="-1.8539">
        <ele>46</ele>
        <time>2007-12-24T06:39:26Z</time>
      </trkpt>
      <trkpt lat="47.76792" lon="-1.85385">
        <ele>45</ele>
        <time>2007-12-24T06:39:29Z</time>
      </trkpt>
      <trkpt lat="47.76798" lon="-1.85382">
        <ele>43</ele>
        <time>2007-12-24T06:39:31Z</time>
      </trkpt>
      <trkpt lat="47.76804" lon="-1.85378">
        <ele>42</ele>
        <time>2007-12-24T06:39:34Z</time>
      </trkpt>
      <trkpt lat="47.76807" lon="-1.85362">
        <ele>41</ele>
        <time>2007-12-24T06:39:38Z</time>
      </trkpt>
      <trkpt lat="47.76809" lon="-1.85347">
        <ele>42</ele>
        <time>2007-12-24T06:39:42Z</time>
      </trkpt>
      <trkpt lat="47.76817" lon="-1.85347">
        <ele>40</ele>
        <time>2007-12-24T06:39:46Z</time>
      </trkpt>
      <trkpt lat="47.76823" lon="-1.85339">
        <ele>38</ele>
        <time>2007-12-24T06:39:49Z</time>
      </trkpt>
      <trkpt lat="47.76834" lon="-1.85331">
        <ele>36</ele>
        <time>2007-12-24T06:39:54Z</time>
      </trkpt>
      <trkpt lat="47.76836" lon="-1.85326">
        <ele>35</ele>
        <time>2007-12-24T06:39:55Z</time>
      </trkpt>
      <trkpt lat="47.76836" lon="-1.85325">
        <ele>35</ele>
        <time>2007-12-24T06:39:56Z</time>
      </trkpt>
      <trkpt lat="47.76837" lon="-1.85312">
        <ele>35</ele>
        <time>2007-12-24T06:39:59Z</time>
      </trkpt>
      <trkpt lat="47.76837" lon="-1.85306">
        <ele>35</ele>
        <time>2007-12-24T06:40:01Z</time>
      </trkpt>
      <trkpt lat="47.76841" lon="-1.85286">
        <ele>34</ele>
        <time>2007-12-24T06:40:06Z</time>
      </trkpt>
      <trkpt lat="47.76848" lon="-1.85262">
        <ele>33</ele>
        <time>2007-12-24T06:40:13Z</time>
      </trkpt>
      <trkpt lat="47.76857" lon="-1.85235">
        <ele>31</ele>
        <time>2007-12-24T06:40:21Z</time>
      </trkpt>
      <trkpt lat="47.76877" lon="-1.85224">
        <ele>31</ele>
        <time>2007-12-24T06:40:30Z</time>
      </trkpt>
      <trkpt lat="47.76888" lon="-1.85168">
        <ele>28</ele>
        <time>2007-12-24T06:40:46Z</time>
      </trkpt>
      <trkpt lat="47.76889" lon="-1.85121">
        <ele>27</ele>
        <time>2007-12-24T06:40:58Z</time>
      </trkpt>
      <trkpt lat="47.76892" lon="-1.85114">
        <ele>26</ele>
        <time>2007-12-24T06:41:00Z</time>
      </trkpt>
      <trkpt lat="47.76881" lon="-1.85175">
        <ele>29</ele>
        <time>2007-12-24T06:41:17Z</time>
      </trkpt>
      <trkpt lat="47.76888" lon="-1.852">
        <ele>29</ele>
        <time>2007-12-24T06:41:25Z</time>
      </trkpt>
      <trkpt lat="47.7689" lon="-1.85197">
        <ele>29</ele>
        <time>2007-12-24T06:41:26Z</time>
      </trkpt>
      <trkpt lat="47.76895" lon="-1.85193">
        <ele>28</ele>
        <time>2007-12-24T06:41:28Z</time>
      </trkpt>
      <trkpt lat="47.76895" lon="-1.85213">
        <ele>30</ele>
        <time>2007-12-24T06:41:33Z</time>
      </trkpt>
      <trkpt lat="47.76896" lon="-1.85218">
        <ele>30</ele>
        <time>2007-12-24T06:41:35Z</time>
      </trkpt>
      <trkpt lat="47.769" lon="-1.85229">
        <ele>30</ele>
        <time>2007-12-24T06:41:38Z</time>
      </trkpt>
      <trkpt lat="47.76905" lon="-1.85232">
        <ele>31</ele>
        <time>2007-12-24T06:41:40Z</time>
      </trkpt>
      <trkpt lat="47.76915" lon="-1.85225">
        <ele>34</ele>
        <time>2007-12-24T06:41:45Z</time>
      </trkpt>
      <trkpt lat="47.76939" lon="-1.85207">
        <ele>40</ele>
        <time>2007-12-24T06:41:55Z</time>
      </trkpt>
      <trkpt lat="47.76947" lon="-1.852">
        <ele>43</ele>
        <time>2007-12-24T06:41:59Z</time>
      </trkpt>
      <trkpt lat="47.76962" lon="-1.8519">
        <ele>48</ele>
        <time>2007-12-24T06:42:06Z</time>
      </trkpt>
      <trkpt lat="47.76966" lon="-1.85193">
        <ele>50</ele>
        <time>2007-12-24T06:42:08Z</time>
      </trkpt>
      <trkpt lat="47.76966" lon="-1.85195">
        <ele>50</ele>
        <time>2007-12-24T06:42:08Z</time>
      </trkpt>
      <trkpt lat="47.76974" lon="-1.85202">
        <ele>53</ele>
        <time>2007-12-24T06:42:12Z</time>
      </trkpt>
      <trkpt lat="47.76974" lon="-1.85205">
        <ele>53</ele>
        <time>2007-12-24T06:42:12Z</time>
      </trkpt>
      <trkpt lat="47.7698" lon="-1.8521">
        <ele>56</ele>
        <time>2007-12-24T06:42:15Z</time>
      </trkpt>
      <trkpt lat="47.7699" lon="-1.85207">
        <ele>60</ele>
        <time>2007-12-24T06:42:19Z</time>
      </trkpt>
      <trkpt lat="47.76993" lon="-1.852">
        <ele>61</ele>
        <time>2007-12-24T06:42:22Z</time>
      </trkpt>
      <trkpt lat="47.77003" lon="-1.8518">
        <ele>62</ele>
        <time>2007-12-24T06:42:28Z</time>
      </trkpt>
      <trkpt lat="47.77012" lon="-1.85168">
        <ele>62</ele>
        <time>2007-12-24T06:42:33Z</time>
      </trkpt>
      <trkpt lat="47.77027" lon="-1.85139">
        <ele>63</ele>
        <time>2007-12-24T06:42:43Z</time>
      </trkpt>
      <trkpt lat="47.77033" lon="-1.8513">
        <ele>63</ele>
        <time>2007-12-24T06:42:46Z</time>
      </trkpt>
      <trkpt lat="47.7704" lon="-1.85124">
        <ele>64</ele>
        <time>2007-12-24T06:42:50Z</time>
      </trkpt>
      <trkpt lat="47.77058" lon="-1.85127">
        <ele>67</ele>
        <time>2007-12-24T06:42:57Z</time>
      </trkpt>
      <trkpt lat="47.77076" lon="-1.85117">
        <ele>68</ele>
        <time>2007-12-24T06:43:04Z</time>
      </trkpt>
      <trkpt lat="47.77092" lon="-1.8511">
        <ele>69</ele>
        <time>2007-12-24T06:43:11Z</time>
      </trkpt>
      <trkpt lat="47.77112" lon="-1.85103">
        <ele>70</ele>
        <time>2007-12-24T06:43:19Z</time>
      </trkpt>
      <trkpt lat="47.7713" lon="-1.85098">
        <ele>71</ele>
        <time>2007-12-24T06:43:27Z</time>
      </trkpt>
      <trkpt lat="47.77135" lon="-1.85097">
        <ele>71</ele>
        <time>2007-12-24T06:43:28Z</time>
      </trkpt>
      <trkpt lat="47.77163" lon="-1.85082">
        <ele>71</ele>
        <time>2007-12-24T06:43:41Z</time>
      </trkpt>
      <trkpt lat="47.77185" lon="-1.85077">
        <ele>71</ele>
        <time>2007-12-24T06:43:49Z</time>
      </trkpt>
      <trkpt lat="47.77195" lon="-1.85076">
        <ele>72</ele>
        <time>2007-12-24T06:43:53Z</time>
      </trkpt>
      <trkpt lat="47.77217" lon="-1.85069">
        <ele>73</ele>
        <time>2007-12-24T06:44:03Z</time>
      </trkpt>
      <trkpt lat="47.77233" lon="-1.85059">
        <ele>74</ele>
        <time>2007-12-24T06:44:09Z</time>
      </trkpt>
      <trkpt lat="47.77268" lon="-1.85042">
        <ele>76</ele>
        <time>2007-12-24T06:44:24Z</time>
      </trkpt>
      <trkpt lat="47.7728" lon="-1.85035">
        <ele>77</ele>
        <time>2007-12-24T06:44:29Z</time>
      </trkpt>
      <trkpt lat="47.77302" lon="-1.85024">
        <ele>78</ele>
        <time>2007-12-24T06:44:39Z</time>
      </trkpt>
      <trkpt lat="47.77335" lon="-1.85009">
        <ele>79</ele>
        <time>2007-12-24T06:44:52Z</time>
      </trkpt>
      <trkpt lat="47.77339" lon="-1.85069">
        <ele>81</ele>
        <time>2007-12-24T06:45:09Z</time>
      </trkpt>
      <trkpt lat="47.77339" lon="-1.85065">
        <ele>80</ele>
        <time>2007-12-24T06:45:10Z</time>
      </trkpt>
      <trkpt lat="47.77337" lon="-1.85071">
        <ele>80</ele>
        <time>2007-12-24T06:45:12Z</time>
      </trkpt>
      <trkpt lat="47.77335" lon="-1.85074">
        <ele>80</ele>
        <time>2007-12-24T06:45:13Z</time>
      </trkpt>
      <trkpt lat="47.7733" lon="-1.85089">
        <ele>80</ele>
        <time>2007-12-24T06:45:17Z</time>
      </trkpt>
      <trkpt lat="47.77318" lon="-1.85125">
        <ele>80</ele>
        <time>2007-12-24T06:45:28Z</time>
      </trkpt>
      <trkpt lat="47.77302" lon="-1.85189">
        <ele>81</ele>
        <time>2007-12-24T06:45:47Z</time>
      </trkpt>
      <trkpt lat="47.77292" lon="-1.85271">
        <ele>82</ele>
        <time>2007-12-24T06:46:09Z</time>
      </trkpt>
      <trkpt lat="47.7729" lon="-1.85354">
        <ele>83</ele>
        <time>2007-12-24T06:46:31Z</time>
      </trkpt>
      <trkpt lat="47.7729" lon="-1.85374">
        <ele>83</ele>
        <time>2007-12-24T06:46:37Z</time>
      </trkpt>
      <trkpt lat="47.77296" lon="-1.85435">
        <ele>84</ele>
        <time>2007-12-24T06:46:53Z</time>
      </trkpt>
      <trkpt lat="47.77307" lon="-1.8551">
        <ele>85</ele>
        <time>2007-12-24T06:47:14Z</time>
      </trkpt>
      <trkpt lat="47.77315" lon="-1.85574">
        <ele>86</ele>
        <time>2007-12-24T06:47:31Z</time>
      </trkpt>
      <trkpt lat="47.77327" lon="-1.85677">
        <ele>89</ele>
        <time>2007-12-24T06:47:59Z</time>
      </trkpt>
      <trkpt lat="47.77332" lon="-1.85725">
        <ele>90</ele>
        <time>2007-12-24T06:48:13Z</time>
      </trkpt>
      <trkpt lat="47.77338" lon="-1.85771">
        <ele>90</ele>
        <time>2007-12-24T06:48:25Z</time>
      </trkpt>
      <trkpt lat="47.77348" lon="-1.85845">
        <ele>91</ele>
        <time>2007-12-24T06:48:45Z</time>
      </trkpt>
      <trkpt lat="47.77355" lon="-1.85902">
        <ele>92</ele>
        <time>2007-12-24T06:49:01Z</time>
      </trkpt>
      <trkpt lat="47.77362" lon="-1.85973">
        <ele>93</ele>
        <time>2007-12-24T06:49:20Z</time>
      </trkpt>
      <trkpt lat="47.7736" lon="-1.86016">
        <ele>94</ele>
        <time>2007-12-24T06:49:32Z</time>
      </trkpt>
      <trkpt lat="47.77355" lon="-1.86064">
        <ele>94</ele>
        <time>2007-12-24T06:49:45Z</time>
      </trkpt>
      <trkpt lat="47.77347" lon="-1.86109">
        <ele>95</ele>
        <time>2007-12-24T06:49:58Z</time>
      </trkpt>
      <trkpt lat="47.77345" lon="-1.86116">
        <ele>95</ele>
        <time>2007-12-24T06:49:59Z</time>
      </trkpt>
      <trkpt lat="47.77335" lon="-1.86171">
        <ele>96</ele>
        <time>2007-12-24T06:50:15Z</time>
      </trkpt>
      <trkpt lat="47.77334" lon="-1.86194">
        <ele>96</ele>
        <time>2007-12-24T06:50:21Z</time>
      </trkpt>
      <trkpt lat="47.77332" lon="-1.86201">
        <ele>96</ele>
        <time>2007-12-24T06:50:23Z</time>
      </trkpt>
      <trkpt lat="47.77325" lon="-1.86242">
        <ele>97</ele>
        <time>2007-12-24T06:50:34Z</time>
      </trkpt>
      <trkpt lat="47.77318" lon="-1.86289">
        <ele>97</ele>
        <time>2007-12-24T06:50:47Z</time>
      </trkpt>
      <trkpt lat="47.77317" lon="-1.86312">
        <ele>97</ele>
        <time>2007-12-24T06:50:53Z</time>
      </trkpt>
      <trkpt lat="47.77305" lon="-1.86328">
        <ele>97</ele>
        <time>2007-12-24T06:51:00Z</time>
      </trkpt>
      <trkpt lat="47.77298" lon="-1.86329">
        <ele>97</ele>
        <time>2007-12-24T06:51:03Z</time>
      </trkpt>
      <trkpt lat="47.77278" lon="-1.86335">
        <ele>97</ele>
        <time>2007-12-24T06:51:11Z</time>
      </trkpt>
      <trkpt lat="47.77273" lon="-1.86342">
        <ele>97</ele>
        <time>2007-12-24T06:51:14Z</time>
      </trkpt>
      <trkpt lat="47.77273" lon="-1.86345">
        <ele>97</ele>
        <time>2007-12-24T06:51:14Z</time>
      </trkpt>
      <trkpt lat="47.77282" lon="-1.86363">
        <ele>97</ele>
        <time>2007-12-24T06:51:20Z</time>
      </trkpt>
      <trkpt lat="47.77299" lon="-1.86387">
        <ele>98</ele>
        <time>2007-12-24T06:51:30Z</time>
      </trkpt>
      <trkpt lat="47.77311" lon="-1.86405">
        <ele>98</ele>
        <time>2007-12-24T06:51:37Z</time>
      </trkpt>
      <trkpt lat="47.77329" lon="-1.86426">
        <ele>98</ele>
        <time>2007-12-24T06:51:46Z</time>
      </trkpt>
      <trkpt lat="47.77347" lon="-1.86442">
        <ele>98</ele>
        <time>2007-12-24T06:51:54Z</time>
      </trkpt>
      <trkpt lat="47.77372" lon="-1.86452">
        <ele>98</ele>
        <time>2007-12-24T06:52:05Z</time>
      </trkpt>
      <trkpt lat="47.77393" lon="-1.86462">
        <ele>98</ele>
        <time>2007-12-24T06:52:13Z</time>
      </trkpt>
      <trkpt lat="47.77407" lon="-1.86477">
        <ele>98</ele>
        <time>2007-12-24T06:52:20Z</time>
      </trkpt>
      <trkpt lat="47.77415" lon="-1.865">
        <ele>98</ele>
        <time>2007-12-24T06:52:27Z</time>
      </trkpt>
      <trkpt lat="47.77421" lon="-1.86523">
        <ele>98</ele>
        <time>2007-12-24T06:52:34Z</time>
      </trkpt>
      <trkpt lat="47.77427" lon="-1.86543">
        <ele>98</ele>
        <time>2007-12-24T06:52:40Z</time>
      </trkpt>
      <trkpt lat="47.77435" lon="-1.86565">
        <ele>97</ele>
        <time>2007-12-24T06:52:47Z</time>
      </trkpt>
      <trkpt lat="47.77438" lon="-1.86573">
        <ele>97</ele>
        <time>2007-12-24T06:52:49Z</time>
      </trkpt>
      <trkpt lat="47.7744" lon="-1.86581">
        <ele>97</ele>
        <time>2007-12-24T06:52:51Z</time>
      </trkpt>
      <trkpt lat="47.77446" lon="-1.86597">
        <ele>97</ele>
        <time>2007-12-24T06:52:56Z</time>
      </trkpt>
      <trkpt lat="47.7745" lon="-1.86614">
        <ele>96</ele>
        <time>2007-12-24T06:53:01Z</time>
      </trkpt>
      <trkpt lat="47.7745" lon="-1.86638">
        <ele>96</ele>
        <time>2007-12-24T06:53:08Z</time>
      </trkpt>
      <trkpt lat="47.77452" lon="-1.86668">
        <ele>96</ele>
        <time>2007-12-24T06:53:15Z</time>
      </trkpt>
      <trkpt lat="47.77452" lon="-1.8671">
        <ele>96</ele>
        <time>2007-12-24T06:53:27Z</time>
      </trkpt>
      <trkpt lat="47.77453" lon="-1.8673">
        <ele>95</ele>
        <time>2007-12-24T06:53:32Z</time>
      </trkpt>
      <trkpt lat="47.77457" lon="-1.86748">
        <ele>95</ele>
        <time>2007-12-24T06:53:37Z</time>
      </trkpt>
      <trkpt lat="47.7746" lon="-1.86766">
        <ele>95</ele>
        <time>2007-12-24T06:53:42Z</time>
      </trkpt>
      <trkpt lat="47.77464" lon="-1.86792">
        <ele>95</ele>
        <time>2007-12-24T06:53:49Z</time>
      </trkpt>
      <trkpt lat="47.77467" lon="-1.86805">
        <ele>94</ele>
        <time>2007-12-24T06:53:53Z</time>
      </trkpt>
      <trkpt lat="47.77467" lon="-1.86816">
        <ele>94</ele>
        <time>2007-12-24T06:53:56Z</time>
      </trkpt>
      <trkpt lat="47.7747" lon="-1.8683">
        <ele>94</ele>
        <time>2007-12-24T06:54:00Z</time>
      </trkpt>
      <trkpt lat="47.77477" lon="-1.86855">
        <ele>94</ele>
        <time>2007-12-24T06:54:07Z</time>
      </trkpt>
      <trkpt lat="47.77483" lon="-1.86874">
        <ele>93</ele>
        <time>2007-12-24T06:54:13Z</time>
      </trkpt>
      <trkpt lat="47.77493" lon="-1.86894">
        <ele>92</ele>
        <time>2007-12-24T06:54:20Z</time>
      </trkpt>
      <trkpt lat="47.77502" lon="-1.86907">
        <ele>91</ele>
        <time>2007-12-24T06:54:25Z</time>
      </trkpt>
      <trkpt lat="47.77508" lon="-1.86921">
        <ele>90</ele>
        <time>2007-12-24T06:54:29Z</time>
      </trkpt>
      <trkpt lat="47.77518" lon="-1.86948">
        <ele>90</ele>
        <time>2007-12-24T06:54:38Z</time>
      </trkpt>
      <trkpt lat="47.77527" lon="-1.86968">
        <ele>88</ele>
        <time>2007-12-24T06:54:44Z</time>
      </trkpt>
      <trkpt lat="47.77533" lon="-1.86989">
        <ele>87</ele>
        <time>2007-12-24T06:54:50Z</time>
      </trkpt>
      <trkpt lat="47.7754" lon="-1.8701">
        <ele>86</ele>
        <time>2007-12-24T06:54:56Z</time>
      </trkpt>
      <trkpt lat="47.77548" lon="-1.8703">
        <ele>85</ele>
        <time>2007-12-24T06:55:03Z</time>
      </trkpt>
      <trkpt lat="47.77553" lon="-1.87045">
        <ele>83</ele>
        <time>2007-12-24T06:55:07Z</time>
      </trkpt>
      <trkpt lat="47.77563" lon="-1.87056">
        <ele>82</ele>
        <time>2007-12-24T06:55:12Z</time>
      </trkpt>
      <trkpt lat="47.77582" lon="-1.87068">
        <ele>78</ele>
        <time>2007-12-24T06:55:20Z</time>
      </trkpt>
      <trkpt lat="47.77603" lon="-1.87084">
        <ele>75</ele>
        <time>2007-12-24T06:55:30Z</time>
      </trkpt>
      <trkpt lat="47.77607" lon="-1.87085">
        <ele>74</ele>
        <time>2007-12-24T06:55:31Z</time>
      </trkpt>
      <trkpt lat="47.77613" lon="-1.87097">
        <ele>73</ele>
        <time>2007-12-24T06:55:35Z</time>
      </trkpt>
      <trkpt lat="47.77617" lon="-1.8711">
        <ele>73</ele>
        <time>2007-12-24T06:55:39Z</time>
      </trkpt>
      <trkpt lat="47.77622" lon="-1.87127">
        <ele>72</ele>
        <time>2007-12-24T06:55:44Z</time>
      </trkpt>
      <trkpt lat="47.77626" lon="-1.87138">
        <ele>71</ele>
        <time>2007-12-24T06:55:48Z</time>
      </trkpt>
      <trkpt lat="47.77638" lon="-1.87166">
        <ele>69</ele>
        <time>2007-12-24T06:55:57Z</time>
      </trkpt>
      <trkpt lat="47.77643" lon="-1.87186">
        <ele>68</ele>
        <time>2007-12-24T06:56:02Z</time>
      </trkpt>
      <trkpt lat="47.77645" lon="-1.87205">
        <ele>67</ele>
        <time>2007-12-24T06:56:08Z</time>
      </trkpt>
      <trkpt lat="47.77645" lon="-1.8723">
        <ele>67</ele>
        <time>2007-12-24T06:56:14Z</time>
      </trkpt>
      <trkpt lat="47.77648" lon="-1.87252">
        <ele>66</ele>
        <time>2007-12-24T06:56:20Z</time>
      </trkpt>
      <trkpt lat="47.77656" lon="-1.87268">
        <ele>65</ele>
        <time>2007-12-24T06:56:26Z</time>
      </trkpt>
      <trkpt lat="47.77678" lon="-1.87293">
        <ele>62</ele>
        <time>2007-12-24T06:56:37Z</time>
      </trkpt>
      <trkpt lat="47.77682" lon="-1.87298">
        <ele>62</ele>
        <time>2007-12-24T06:56:39Z</time>
      </trkpt>
      <trkpt lat="47.77683" lon="-1.87309">
        <ele>62</ele>
        <time>2007-12-24T06:56:42Z</time>
      </trkpt>
      <trkpt lat="47.77685" lon="-1.8731">
        <ele>62</ele>
        <time>2007-12-24T06:56:42Z</time>
      </trkpt>
      <trkpt lat="47.7769" lon="-1.87325">
        <ele>61</ele>
        <time>2007-12-24T06:56:47Z</time>
      </trkpt>
      <trkpt lat="47.77693" lon="-1.87331">
        <ele>61</ele>
        <time>2007-12-24T06:56:49Z</time>
      </trkpt>
      <trkpt lat="47.777" lon="-1.87351">
        <ele>60</ele>
        <time>2007-12-24T06:56:55Z</time>
      </trkpt>
      <trkpt lat="47.77703" lon="-1.87367">
        <ele>60</ele>
        <time>2007-12-24T06:57:00Z</time>
      </trkpt>
      <trkpt lat="47.77708" lon="-1.8738">
        <ele>59</ele>
        <time>2007-12-24T06:57:04Z</time>
      </trkpt>
      <trkpt lat="47.77715" lon="-1.87386">
        <ele>58</ele>
        <time>2007-12-24T06:57:07Z</time>
      </trkpt>
      <trkpt lat="47.77721" lon="-1.87381">
        <ele>57</ele>
        <time>2007-12-24T06:57:10Z</time>
      </trkpt>
      <trkpt lat="47.77729" lon="-1.87379">
        <ele>56</ele>
        <time>2007-12-24T06:57:13Z</time>
      </trkpt>
      <trkpt lat="47.77738" lon="-1.87373">
        <ele>54</ele>
        <time>2007-12-24T06:57:17Z</time>
      </trkpt>
      <trkpt lat="47.77746" lon="-1.87366">
        <ele>52</ele>
        <time>2007-12-24T06:57:20Z</time>
      </trkpt>
      <trkpt lat="47.77754" lon="-1.87358">
        <ele>51</ele>
        <time>2007-12-24T06:57:24Z</time>
      </trkpt>
      <trkpt lat="47.7776" lon="-1.87355">
        <ele>49</ele>
        <time>2007-12-24T06:57:27Z</time>
      </trkpt>
      <trkpt lat="47.77769" lon="-1.87347">
        <ele>47</ele>
        <time>2007-12-24T06:57:31Z</time>
      </trkpt>
      <trkpt lat="47.77775" lon="-1.8735">
        <ele>46</ele>
        <time>2007-12-24T06:57:34Z</time>
      </trkpt>
      <trkpt lat="47.77782" lon="-1.87363">
        <ele>44</ele>
        <time>2007-12-24T06:57:38Z</time>
      </trkpt>
      <trkpt lat="47.77782" lon="-1.87368">
        <ele>44</ele>
        <time>2007-12-24T06:57:39Z</time>
      </trkpt>
      <trkpt lat="47.77785" lon="-1.87385">
        <ele>43</ele>
        <time>2007-12-24T06:57:44Z</time>
      </trkpt>
      <trkpt lat="47.7779" lon="-1.87391">
        <ele>42</ele>
        <time>2007-12-24T06:57:47Z</time>
      </trkpt>
      <trkpt lat="47.778" lon="-1.87373">
        <ele>40</ele>
        <time>2007-12-24T06:57:53Z</time>
      </trkpt>
      <trkpt lat="47.7781" lon="-1.87339">
        <ele>40</ele>
        <time>2007-12-24T06:58:03Z</time>
      </trkpt>
      <trkpt lat="47.77813" lon="-1.8731">
        <ele>41</ele>
        <time>2007-12-24T06:58:11Z</time>
      </trkpt>
      <trkpt lat="47.77812" lon="-1.87271">
        <ele>41</ele>
        <time>2007-12-24T06:58:21Z</time>
      </trkpt>
      <trkpt lat="47.77808" lon="-1.8723">
        <ele>42</ele>
        <time>2007-12-24T06:58:32Z</time>
      </trkpt>
      <trkpt lat="47.77807" lon="-1.87189">
        <ele>42</ele>
        <time>2007-12-24T06:58:43Z</time>
      </trkpt>
      <trkpt lat="47.77808" lon="-1.87158">
        <ele>43</ele>
        <time>2007-12-24T06:58:52Z</time>
      </trkpt>
      <trkpt lat="47.7781" lon="-1.87143">
        <ele>43</ele>
        <time>2007-12-24T06:58:56Z</time>
      </trkpt>
      <trkpt lat="47.77811" lon="-1.87114">
        <ele>45</ele>
        <time>2007-12-24T06:59:04Z</time>
      </trkpt>
      <trkpt lat="47.7782" lon="-1.8709">
        <ele>44</ele>
        <time>2007-12-24T06:59:11Z</time>
      </trkpt>
      <trkpt lat="47.77833" lon="-1.87064">
        <ele>44</ele>
        <time>2007-12-24T06:59:20Z</time>
      </trkpt>
      <trkpt lat="47.77847" lon="-1.87044">
        <ele>43</ele>
        <time>2007-12-24T06:59:27Z</time>
      </trkpt>
      <trkpt lat="47.77856" lon="-1.87022">
        <ele>43</ele>
        <time>2007-12-24T06:59:34Z</time>
      </trkpt>
      <trkpt lat="47.77869" lon="-1.86994">
        <ele>42</ele>
        <time>2007-12-24T06:59:43Z</time>
      </trkpt>
      <trkpt lat="47.77875" lon="-1.86974">
        <ele>41</ele>
        <time>2007-12-24T06:59:49Z</time>
      </trkpt>
      <trkpt lat="47.77888" lon="-1.86953">
        <ele>40</ele>
        <time>2007-12-24T06:59:57Z</time>
      </trkpt>
      <trkpt lat="47.779" lon="-1.8694">
        <ele>39</ele>
        <time>2007-12-24T07:00:03Z</time>
      </trkpt>
      <trkpt lat="47.77911" lon="-1.86929">
        <ele>38</ele>
        <time>2007-12-24T07:00:08Z</time>
      </trkpt>
      <trkpt lat="47.77922" lon="-1.86922">
        <ele>37</ele>
        <time>2007-12-24T07:00:13Z</time>
      </trkpt>
      <trkpt lat="47.77932" lon="-1.86914">
        <ele>36</ele>
        <time>2007-12-24T07:00:18Z</time>
      </trkpt>
      <trkpt lat="47.77945" lon="-1.86904">
        <ele>36</ele>
        <time>2007-12-24T07:00:24Z</time>
      </trkpt>
      <trkpt lat="47.77961" lon="-1.86892">
        <ele>35</ele>
        <time>2007-12-24T07:00:31Z</time>
      </trkpt>
      <trkpt lat="47.77984" lon="-1.86874">
        <ele>34</ele>
        <time>2007-12-24T07:00:41Z</time>
      </trkpt>
      <trkpt lat="47.77997" lon="-1.86863">
        <ele>33</ele>
        <time>2007-12-24T07:00:47Z</time>
      </trkpt>
      <trkpt lat="47.7801" lon="-1.86838">
        <ele>32</ele>
        <time>2007-12-24T07:00:55Z</time>
      </trkpt>
      <trkpt lat="47.78018" lon="-1.86816">
        <ele>32</ele>
        <time>2007-12-24T07:01:02Z</time>
      </trkpt>
      <trkpt lat="47.78012" lon="-1.86804">
        <ele>32</ele>
        <time>2007-12-24T07:01:06Z</time>
      </trkpt>
      <trkpt lat="47.77978" lon="-1.86775">
        <ele>37</ele>
        <time>2007-12-24T07:01:22Z</time>
      </trkpt>
      <trkpt lat="47.77972" lon="-1.86771">
        <ele>37</ele>
        <time>2007-12-24T07:01:25Z</time>
      </trkpt>
      <trkpt lat="47.77946" lon="-1.86748">
        <ele>41</ele>
        <time>2007-12-24T07:01:37Z</time>
      </trkpt>
      <trkpt lat="47.77926" lon="-1.8673">
        <ele>44</ele>
        <time>2007-12-24T07:01:46Z</time>
      </trkpt>
      <trkpt lat="47.77914" lon="-1.86718">
        <ele>45</ele>
        <time>2007-12-24T07:01:52Z</time>
      </trkpt>
      <trkpt lat="47.77907" lon="-1.86714">
        <ele>45</ele>
        <time>2007-12-24T07:01:55Z</time>
      </trkpt>
      <trkpt lat="47.77872" lon="-1.86681">
        <ele>48</ele>
        <time>2007-12-24T07:02:11Z</time>
      </trkpt>
      <trkpt lat="47.77833" lon="-1.86649">
        <ele>51</ele>
        <time>2007-12-24T07:02:29Z</time>
      </trkpt>
      <trkpt lat="47.77798" lon="-1.86616">
        <ele>53</ele>
        <time>2007-12-24T07:02:46Z</time>
      </trkpt>
      <trkpt lat="47.77767" lon="-1.86586">
        <ele>55</ele>
        <time>2007-12-24T07:03:01Z</time>
      </trkpt>
      <trkpt lat="47.77747" lon="-1.86565">
        <ele>57</ele>
        <time>2007-12-24T07:03:11Z</time>
      </trkpt>
      <trkpt lat="47.7774" lon="-1.86551">
        <ele>58</ele>
        <time>2007-12-24T07:03:15Z</time>
      </trkpt>
      <trkpt lat="47.7774" lon="-1.86532">
        <ele>59</ele>
        <time>2007-12-24T07:03:20Z</time>
      </trkpt>
      <trkpt lat="47.77745" lon="-1.86515">
        <ele>59</ele>
        <time>2007-12-24T07:03:25Z</time>
      </trkpt>
      <trkpt lat="47.77743" lon="-1.86508">
        <ele>60</ele>
        <time>2007-12-24T07:03:27Z</time>
      </trkpt>
      <trkpt lat="47.7774" lon="-1.86488">
        <ele>60</ele>
        <time>2007-12-24T07:03:33Z</time>
      </trkpt>
      <trkpt lat="47.77743" lon="-1.86459">
        <ele>61</ele>
        <time>2007-12-24T07:03:41Z</time>
      </trkpt>
      <trkpt lat="47.77745" lon="-1.86441">
        <ele>61</ele>
        <time>2007-12-24T07:03:46Z</time>
      </trkpt>
      <trkpt lat="47.77748" lon="-1.86425">
        <ele>62</ele>
        <time>2007-12-24T07:03:50Z</time>
      </trkpt>
      <trkpt lat="47.7775" lon="-1.86409">
        <ele>63</ele>
        <time>2007-12-24T07:03:55Z</time>
      </trkpt>
      <trkpt lat="47.77745" lon="-1.86394">
        <ele>64</ele>
        <time>2007-12-24T07:03:59Z</time>
      </trkpt>
      <trkpt lat="47.77733" lon="-1.86388">
        <ele>66</ele>
        <time>2007-12-24T07:04:04Z</time>
      </trkpt>
      <trkpt lat="47.77727" lon="-1.8638">
        <ele>67</ele>
        <time>2007-12-24T07:04:07Z</time>
      </trkpt>
      <trkpt lat="47.77727" lon="-1.86373">
        <ele>68</ele>
        <time>2007-12-24T07:04:09Z</time>
      </trkpt>
      <trkpt lat="47.77728" lon="-1.86355">
        <ele>69</ele>
        <time>2007-12-24T07:04:14Z</time>
      </trkpt>
      <trkpt lat="47.77727" lon="-1.86352">
        <ele>70</ele>
        <time>2007-12-24T07:04:15Z</time>
      </trkpt>
      <trkpt lat="47.77732" lon="-1.86345">
        <ele>70</ele>
        <time>2007-12-24T07:04:18Z</time>
      </trkpt>
      <trkpt lat="47.7773" lon="-1.86333">
        <ele>71</ele>
        <time>2007-12-24T07:04:21Z</time>
      </trkpt>
      <trkpt lat="47.77745" lon="-1.86317">
        <ele>72</ele>
        <time>2007-12-24T07:04:29Z</time>
      </trkpt>
      <trkpt lat="47.77757" lon="-1.86317">
        <ele>71</ele>
        <time>2007-12-24T07:04:33Z</time>
      </trkpt>
      <trkpt lat="47.77757" lon="-1.8631">
        <ele>71</ele>
        <time>2007-12-24T07:04:35Z</time>
      </trkpt>
      <trkpt lat="47.77751" lon="-1.86306">
        <ele>72</ele>
        <time>2007-12-24T07:04:38Z</time>
      </trkpt>
      <trkpt lat="47.77745" lon="-1.86298">
        <ele>73</ele>
        <time>2007-12-24T07:04:41Z</time>
      </trkpt>
      <trkpt lat="47.77742" lon="-1.86288">
        <ele>74</ele>
        <time>2007-12-24T07:04:44Z</time>
      </trkpt>
      <trkpt lat="47.77742" lon="-1.86284">
        <ele>74</ele>
        <time>2007-12-24T07:04:45Z</time>
      </trkpt>
      <trkpt lat="47.77742" lon="-1.86278">
        <ele>74</ele>
        <time>2007-12-24T07:04:47Z</time>
      </trkpt>
      <trkpt lat="47.77752" lon="-1.86253">
        <ele>74</ele>
        <time>2007-12-24T07:04:54Z</time>
      </trkpt>
      <trkpt lat="47.77757" lon="-1.86237">
        <ele>74</ele>
        <time>2007-12-24T07:04:59Z</time>
      </trkpt>
      <trkpt lat="47.77761" lon="-1.86234">
        <ele>74</ele>
        <time>2007-12-24T07:05:01Z</time>
      </trkpt>
      <trkpt lat="47.77765" lon="-1.86223">
        <ele>73</ele>
        <time>2007-12-24T07:05:04Z</time>
      </trkpt>
      <trkpt lat="47.77767" lon="-1.86214">
        <ele>73</ele>
        <time>2007-12-24T07:05:07Z</time>
      </trkpt>
      <trkpt lat="47.77764" lon="-1.86196">
        <ele>73</ele>
        <time>2007-12-24T07:05:12Z</time>
      </trkpt>
      <trkpt lat="47.77762" lon="-1.86176">
        <ele>73</ele>
        <time>2007-12-24T07:05:17Z</time>
      </trkpt>
      <trkpt lat="47.77753" lon="-1.86162">
        <ele>73</ele>
        <time>2007-12-24T07:05:22Z</time>
      </trkpt>
      <trkpt lat="47.77749" lon="-1.86142">
        <ele>73</ele>
        <time>2007-12-24T07:05:28Z</time>
      </trkpt>
      <trkpt lat="47.77745" lon="-1.86123">
        <ele>73</ele>
        <time>2007-12-24T07:05:33Z</time>
      </trkpt>
      <trkpt lat="47.77739" lon="-1.8611">
        <ele>73</ele>
        <time>2007-12-24T07:05:38Z</time>
      </trkpt>
      <trkpt lat="47.77733" lon="-1.8609">
        <ele>73</ele>
        <time>2007-12-24T07:05:43Z</time>
      </trkpt>
      <trkpt lat="47.77738" lon="-1.86072">
        <ele>72</ele>
        <time>2007-12-24T07:05:49Z</time>
      </trkpt>
      <trkpt lat="47.7774" lon="-1.86063">
        <ele>71</ele>
        <time>2007-12-24T07:05:51Z</time>
      </trkpt>
      <trkpt lat="47.7774" lon="-1.86043">
        <ele>70</ele>
        <time>2007-12-24T07:05:57Z</time>
      </trkpt>
      <trkpt lat="47.77741" lon="-1.86038">
        <ele>69</ele>
        <time>2007-12-24T07:05:58Z</time>
      </trkpt>
      <trkpt lat="47.77743" lon="-1.86023">
        <ele>68</ele>
        <time>2007-12-24T07:06:02Z</time>
      </trkpt>
      <trkpt lat="47.77745" lon="-1.86017">
        <ele>67</ele>
        <time>2007-12-24T07:06:04Z</time>
      </trkpt>
      <trkpt lat="47.77747" lon="-1.86011">
        <ele>67</ele>
        <time>2007-12-24T07:06:06Z</time>
      </trkpt>
      <trkpt lat="47.77747" lon="-1.8601">
        <ele>67</ele>
        <time>2007-12-24T07:06:06Z</time>
      </trkpt>
      <trkpt lat="47.7775" lon="-1.86002">
        <ele>65</ele>
        <time>2007-12-24T07:06:09Z</time>
      </trkpt>
      <trkpt lat="47.77745" lon="-1.85983">
        <ele>64</ele>
        <time>2007-12-24T07:06:14Z</time>
      </trkpt>
      <trkpt lat="47.77747" lon="-1.85971">
        <ele>63</ele>
        <time>2007-12-24T07:06:17Z</time>
      </trkpt>
      <trkpt lat="47.77748" lon="-1.85969">
        <ele>63</ele>
        <time>2007-12-24T07:06:18Z</time>
      </trkpt>
      <trkpt lat="47.77757" lon="-1.85967">
        <ele>62</ele>
        <time>2007-12-24T07:06:22Z</time>
      </trkpt>
      <trkpt lat="47.7776" lon="-1.85963">
        <ele>61</ele>
        <time>2007-12-24T07:06:23Z</time>
      </trkpt>
      <trkpt lat="47.7776" lon="-1.85956">
        <ele>60</ele>
        <time>2007-12-24T07:06:25Z</time>
      </trkpt>
      <trkpt lat="47.77759" lon="-1.85946">
        <ele>59</ele>
        <time>2007-12-24T07:06:28Z</time>
      </trkpt>
      <trkpt lat="47.77758" lon="-1.85939">
        <ele>58</ele>
        <time>2007-12-24T07:06:30Z</time>
      </trkpt>
      <trkpt lat="47.7776" lon="-1.85934">
        <ele>58</ele>
        <time>2007-12-24T07:06:31Z</time>
      </trkpt>
      <trkpt lat="47.77758" lon="-1.85923">
        <ele>57</ele>
        <time>2007-12-24T07:06:34Z</time>
      </trkpt>
      <trkpt lat="47.77755" lon="-1.85915">
        <ele>56</ele>
        <time>2007-12-24T07:06:37Z</time>
      </trkpt>
      <trkpt lat="47.7775" lon="-1.85903">
        <ele>56</ele>
        <time>2007-12-24T07:06:41Z</time>
      </trkpt>
      <trkpt lat="47.77745" lon="-1.85894">
        <ele>56</ele>
        <time>2007-12-24T07:06:44Z</time>
      </trkpt>
      <trkpt lat="47.77747" lon="-1.85887">
        <ele>55</ele>
        <time>2007-12-24T07:06:46Z</time>
      </trkpt>
      <trkpt lat="47.77747" lon="-1.85874">
        <ele>54</ele>
        <time>2007-12-24T07:06:49Z</time>
      </trkpt>
      <trkpt lat="47.7775" lon="-1.85862">
        <ele>52</ele>
        <time>2007-12-24T07:06:53Z</time>
      </trkpt>
      <trkpt lat="47.77757" lon="-1.85854">
        <ele>50</ele>
        <time>2007-12-24T07:06:56Z</time>
      </trkpt>
      <trkpt lat="47.77762" lon="-1.85855">
        <ele>50</ele>
        <time>2007-12-24T07:06:58Z</time>
      </trkpt>
      <trkpt lat="47.77768" lon="-1.85857">
        <ele>49</ele>
        <time>2007-12-24T07:07:01Z</time>
      </trkpt>
      <trkpt lat="47.7778" lon="-1.8586">
        <ele>47</ele>
        <time>2007-12-24T07:07:06Z</time>
      </trkpt>
      <trkpt lat="47.778" lon="-1.85874">
        <ele>47</ele>
        <time>2007-12-24T07:07:15Z</time>
      </trkpt>
      <trkpt lat="47.7781" lon="-1.8588">
        <ele>48</ele>
        <time>2007-12-24T07:07:19Z</time>
      </trkpt>
      <trkpt lat="47.77832" lon="-1.85893">
        <ele>48</ele>
        <time>2007-12-24T07:07:28Z</time>
      </trkpt>
      <trkpt lat="47.77846" lon="-1.85905">
        <ele>48</ele>
        <time>2007-12-24T07:07:35Z</time>
      </trkpt>
      <trkpt lat="47.77865" lon="-1.85915">
        <ele>47</ele>
        <time>2007-12-24T07:07:43Z</time>
      </trkpt>
      <trkpt lat="47.77883" lon="-1.85922">
        <ele>48</ele>
        <time>2007-12-24T07:07:50Z</time>
      </trkpt>
      <trkpt lat="47.77903" lon="-1.85926">
        <ele>49</ele>
        <time>2007-12-24T07:07:58Z</time>
      </trkpt>
      <trkpt lat="47.7792" lon="-1.85929">
        <ele>49</ele>
        <time>2007-12-24T07:08:05Z</time>
      </trkpt>
      <trkpt lat="47.77925" lon="-1.85917">
        <ele>49</ele>
        <time>2007-12-24T07:08:09Z</time>
      </trkpt>
      <trkpt lat="47.77934" lon="-1.85903">
        <ele>48</ele>
        <time>2007-12-24T07:08:14Z</time>
      </trkpt>
      <trkpt lat="47.77935" lon="-1.85895">
        <ele>47</ele>
        <time>2007-12-24T07:08:16Z</time>
      </trkpt>
      <trkpt lat="47.7794" lon="-1.85887">
        <ele>46</ele>
        <time>2007-12-24T07:08:19Z</time>
      </trkpt>
      <trkpt lat="47.7795" lon="-1.85885">
        <ele>46</ele>
        <time>2007-12-24T07:08:24Z</time>
      </trkpt>
      <trkpt lat="47.77959" lon="-1.85897">
        <ele>47</ele>
        <time>2007-12-24T07:08:28Z</time>
      </trkpt>
      <trkpt lat="47.77963" lon="-1.85905">
        <ele>47</ele>
        <time>2007-12-24T07:08:31Z</time>
      </trkpt>
      <trkpt lat="47.77963" lon="-1.85906">
        <ele>47</ele>
        <time>2007-12-24T07:08:31Z</time>
      </trkpt>
      <trkpt lat="47.7797" lon="-1.85917">
        <ele>46</ele>
        <time>2007-12-24T07:08:35Z</time>
      </trkpt>
      <trkpt lat="47.77973" lon="-1.85918">
        <ele>46</ele>
        <time>2007-12-24T07:08:37Z</time>
      </trkpt>
      <trkpt lat="47.7798" lon="-1.85909">
        <ele>44</ele>
        <time>2007-12-24T07:08:40Z</time>
      </trkpt>
      <trkpt lat="47.7798" lon="-1.85907">
        <ele>44</ele>
        <time>2007-12-24T07:08:41Z</time>
      </trkpt>
      <trkpt lat="47.77987" lon="-1.85902">
        <ele>42</ele>
        <time>2007-12-24T07:08:44Z</time>
      </trkpt>
      <trkpt lat="47.77992" lon="-1.85891">
        <ele>41</ele>
        <time>2007-12-24T07:08:47Z</time>
      </trkpt>
      <trkpt lat="47.77995" lon="-1.85882">
        <ele>40</ele>
        <time>2007-12-24T07:08:50Z</time>
      </trkpt>
      <trkpt lat="47.78005" lon="-1.85879">
        <ele>38</ele>
        <time>2007-12-24T07:08:54Z</time>
      </trkpt>
      <trkpt lat="47.78013" lon="-1.85881">
        <ele>38</ele>
        <time>2007-12-24T07:08:58Z</time>
      </trkpt>
      <trkpt lat="47.78015" lon="-1.85892">
        <ele>38</ele>
        <time>2007-12-24T07:09:01Z</time>
      </trkpt>
      <trkpt lat="47.78025" lon="-1.859">
        <ele>37</ele>
        <time>2007-12-24T07:09:05Z</time>
      </trkpt>
      <trkpt lat="47.78027" lon="-1.85896">
        <ele>36</ele>
        <time>2007-12-24T07:09:06Z</time>
      </trkpt>
      <trkpt lat="47.78035" lon="-1.85889">
        <ele>36</ele>
        <time>2007-12-24T07:09:10Z</time>
      </trkpt>
      <trkpt lat="47.78035" lon="-1.85885">
        <ele>36</ele>
        <time>2007-12-24T07:09:11Z</time>
      </trkpt>
      <trkpt lat="47.7804" lon="-1.85891">
        <ele>35</ele>
        <time>2007-12-24T07:09:14Z</time>
      </trkpt>
      <trkpt lat="47.78037" lon="-1.85915">
        <ele>35</ele>
        <time>2007-12-24T07:09:20Z</time>
      </trkpt>
      <trkpt lat="47.78042" lon="-1.85925">
        <ele>35</ele>
        <time>2007-12-24T07:09:23Z</time>
      </trkpt>
      <trkpt lat="47.78047" lon="-1.85929">
        <ele>34</ele>
        <time>2007-12-24T07:09:26Z</time>
      </trkpt>
      <trkpt lat="47.78046" lon="-1.85945">
        <ele>34</ele>
        <time>2007-12-24T07:09:30Z</time>
      </trkpt>
      <trkpt lat="47.78052" lon="-1.85951">
        <ele>34</ele>
        <time>2007-12-24T07:09:33Z</time>
      </trkpt>
      <trkpt lat="47.78056" lon="-1.85944">
        <ele>34</ele>
        <time>2007-12-24T07:09:35Z</time>
      </trkpt>
      <trkpt lat="47.78057" lon="-1.85916">
        <ele>33</ele>
        <time>2007-12-24T07:09:43Z</time>
      </trkpt>
      <trkpt lat="47.78062" lon="-1.85874">
        <ele>33</ele>
        <time>2007-12-24T07:09:55Z</time>
      </trkpt>
      <trkpt lat="47.78065" lon="-1.85847">
        <ele>32</ele>
        <time>2007-12-24T07:10:02Z</time>
      </trkpt>
      <trkpt lat="47.78071" lon="-1.85833">
        <ele>32</ele>
        <time>2007-12-24T07:10:06Z</time>
      </trkpt>
      <trkpt lat="47.78103" lon="-1.85834">
        <ele>29</ele>
        <time>2007-12-24T07:10:19Z</time>
      </trkpt>
      <trkpt lat="47.78114" lon="-1.85834">
        <ele>29</ele>
        <time>2007-12-24T07:10:23Z</time>
      </trkpt>
      <trkpt lat="47.78147" lon="-1.85837">
        <ele>27</ele>
        <time>2007-12-24T07:10:37Z</time>
      </trkpt>
      <trkpt lat="47.78177" lon="-1.85854">
        <ele>25</ele>
        <time>2007-12-24T07:10:49Z</time>
      </trkpt>
      <trkpt lat="47.78207" lon="-1.85877">
        <ele>23</ele>
        <time>2007-12-24T07:11:03Z</time>
      </trkpt>
      <trkpt lat="47.78235" lon="-1.85894">
        <ele>20</ele>
        <time>2007-12-24T07:11:15Z</time>
      </trkpt>
      <trkpt lat="47.78252" lon="-1.85903">
        <ele>19</ele>
        <time>2007-12-24T07:11:22Z</time>
      </trkpt>
      <trkpt lat="47.78272" lon="-1.8592">
        <ele>17</ele>
        <time>2007-12-24T07:11:32Z</time>
      </trkpt>
      <trkpt lat="47.78292" lon="-1.85938">
        <ele>16</ele>
        <time>2007-12-24T07:11:41Z</time>
      </trkpt>
      <trkpt lat="47.78298" lon="-1.85947">
        <ele>16</ele>
        <time>2007-12-24T07:11:45Z</time>
      </trkpt>
      <trkpt lat="47.78327" lon="-1.85992">
        <ele>15</ele>
        <time>2007-12-24T07:12:01Z</time>
      </trkpt>
      <trkpt lat="47.78352" lon="-1.86043">
        <ele>14</ele>
        <time>2007-12-24T07:12:18Z</time>
      </trkpt>
      <trkpt lat="47.78375" lon="-1.86068">
        <ele>15</ele>
        <time>2007-12-24T07:12:30Z</time>
      </trkpt>
      <trkpt lat="47.78385" lon="-1.86072">
        <ele>15</ele>
        <time>2007-12-24T07:12:34Z</time>
      </trkpt>
      <trkpt lat="47.78412" lon="-1.86073">
        <ele>15</ele>
        <time>2007-12-24T07:12:45Z</time>
      </trkpt>
      <trkpt lat="47.78445" lon="-1.86076">
        <ele>15</ele>
        <time>2007-12-24T07:12:58Z</time>
      </trkpt>
      <trkpt lat="47.7846" lon="-1.86078">
        <ele>15</ele>
        <time>2007-12-24T07:13:04Z</time>
      </trkpt>
      <trkpt lat="47.78499" lon="-1.86083">
        <ele>15</ele>
        <time>2007-12-24T07:13:19Z</time>
      </trkpt>
      <trkpt lat="47.78545" lon="-1.8609">
        <ele>16</ele>
        <time>2007-12-24T07:13:38Z</time>
      </trkpt>
      <trkpt lat="47.78591" lon="-1.86096">
        <ele>16</ele>
        <time>2007-12-24T07:13:57Z</time>
      </trkpt>
      <trkpt lat="47.78607" lon="-1.86094">
        <ele>17</ele>
        <time>2007-12-24T07:14:03Z</time>
      </trkpt>
      <trkpt lat="47.78616" lon="-1.8607">
        <ele>17</ele>
        <time>2007-12-24T07:14:10Z</time>
      </trkpt>
      <trkpt lat="47.7862" lon="-1.86016">
        <ele>17</ele>
        <time>2007-12-24T07:14:25Z</time>
      </trkpt>
      <trkpt lat="47.7862" lon="-1.85939">
        <ele>17</ele>
        <time>2007-12-24T07:14:46Z</time>
      </trkpt>
      <trkpt lat="47.78622" lon="-1.85873">
        <ele>18</ele>
        <time>2007-12-24T07:15:03Z</time>
      </trkpt>
      <trkpt lat="47.78622" lon="-1.85837">
        <ele>18</ele>
        <time>2007-12-24T07:15:13Z</time>
      </trkpt>
      <trkpt lat="47.78622" lon="-1.85819">
        <ele>19</ele>
        <time>2007-12-24T07:15:18Z</time>
      </trkpt>
      <trkpt lat="47.78624" lon="-1.85811">
        <ele>19</ele>
        <time>2007-12-24T07:15:20Z</time>
      </trkpt>
      <trkpt lat="47.78623" lon="-1.85772">
        <ele>20</ele>
        <time>2007-12-24T07:15:31Z</time>
      </trkpt>
      <trkpt lat="47.78623" lon="-1.85754">
        <ele>21</ele>
        <time>2007-12-24T07:15:35Z</time>
      </trkpt>
      <trkpt lat="47.78618" lon="-1.85737">
        <ele>21</ele>
        <time>2007-12-24T07:15:40Z</time>
      </trkpt>
      <trkpt lat="47.78612" lon="-1.85735">
        <ele>21</ele>
        <time>2007-12-24T07:15:43Z</time>
      </trkpt>
      <trkpt lat="47.7861" lon="-1.85735">
        <ele>21</ele>
        <time>2007-12-24T07:15:44Z</time>
      </trkpt>
      <trkpt lat="47.78587" lon="-1.85735">
        <ele>20</ele>
        <time>2007-12-24T07:15:53Z</time>
      </trkpt>
      <trkpt lat="47.7856" lon="-1.8573">
        <ele>19</ele>
        <time>2007-12-24T07:16:04Z</time>
      </trkpt>
      <trkpt lat="47.78527" lon="-1.85723">
        <ele>18</ele>
        <time>2007-12-24T07:16:17Z</time>
      </trkpt>
      <trkpt lat="47.78509" lon="-1.85722">
        <ele>18</ele>
        <time>2007-12-24T07:16:25Z</time>
      </trkpt>
      <trkpt lat="47.78491" lon="-1.85724">
        <ele>18</ele>
        <time>2007-12-24T07:16:32Z</time>
      </trkpt>
      <trkpt lat="47.78472" lon="-1.85724">
        <ele>17</ele>
        <time>2007-12-24T07:16:39Z</time>
      </trkpt>
      <trkpt lat="47.78467" lon="-1.85718">
        <ele>17</ele>
        <time>2007-12-24T07:16:42Z</time>
      </trkpt>
      <trkpt lat="47.78448" lon="-1.85704">
        <ele>17</ele>
        <time>2007-12-24T07:16:51Z</time>
      </trkpt>
      <trkpt lat="47.78442" lon="-1.857">
        <ele>16</ele>
        <time>2007-12-24T07:16:53Z</time>
      </trkpt>
      <trkpt lat="47.78434" lon="-1.85691">
        <ele>16</ele>
        <time>2007-12-24T07:16:57Z</time>
      </trkpt>
      <trkpt lat="47.78433" lon="-1.85687">
        <ele>16</ele>
        <time>2007-12-24T07:16:58Z</time>
      </trkpt>
      <trkpt lat="47.78427" lon="-1.85672">
        <ele>16</ele>
        <time>2007-12-24T07:17:03Z</time>
      </trkpt>
      <trkpt lat="47.78415" lon="-1.85643">
        <ele>17</ele>
        <time>2007-12-24T07:17:12Z</time>
      </trkpt>
      <trkpt lat="47.7841" lon="-1.85632">
        <ele>17</ele>
        <time>2007-12-24T07:17:16Z</time>
      </trkpt>
      <trkpt lat="47.78407" lon="-1.85607">
        <ele>18</ele>
        <time>2007-12-24T07:17:23Z</time>
      </trkpt>
      <trkpt lat="47.78396" lon="-1.85571">
        <ele>18</ele>
        <time>2007-12-24T07:17:33Z</time>
      </trkpt>
      <trkpt lat="47.78385" lon="-1.85541">
        <ele>17</ele>
        <time>2007-12-24T07:17:42Z</time>
      </trkpt>
      <trkpt lat="47.7838" lon="-1.85523">
        <ele>18</ele>
        <time>2007-12-24T07:17:48Z</time>
      </trkpt>
      <trkpt lat="47.78367" lon="-1.85501">
        <ele>18</ele>
        <time>2007-12-24T07:17:56Z</time>
      </trkpt>
      <trkpt lat="47.78355" lon="-1.8548">
        <ele>18</ele>
        <time>2007-12-24T07:18:03Z</time>
      </trkpt>
      <trkpt lat="47.78348" lon="-1.85465">
        <ele>20</ele>
        <time>2007-12-24T07:18:08Z</time>
      </trkpt>
      <trkpt lat="47.78348" lon="-1.85452">
        <ele>22</ele>
        <time>2007-12-24T07:18:11Z</time>
      </trkpt>
      <trkpt lat="47.78354" lon="-1.85437">
        <ele>24</ele>
        <time>2007-12-24T07:18:16Z</time>
      </trkpt>
      <trkpt lat="47.78362" lon="-1.85417">
        <ele>27</ele>
        <time>2007-12-24T07:18:22Z</time>
      </trkpt>
      <trkpt lat="47.78369" lon="-1.85398">
        <ele>29</ele>
        <time>2007-12-24T07:18:28Z</time>
      </trkpt>
      <trkpt lat="47.78378" lon="-1.8539">
        <ele>28</ele>
        <time>2007-12-24T07:18:32Z</time>
      </trkpt>
      <trkpt lat="47.78385" lon="-1.85403">
        <ele>27</ele>
        <time>2007-12-24T07:18:37Z</time>
      </trkpt>
      <trkpt lat="47.78395" lon="-1.85426">
        <ele>26</ele>
        <time>2007-12-24T07:18:44Z</time>
      </trkpt>
      <trkpt lat="47.78402" lon="-1.85436">
        <ele>26</ele>
        <time>2007-12-24T07:18:48Z</time>
      </trkpt>
      <trkpt lat="47.78405" lon="-1.8544">
        <ele>26</ele>
        <time>2007-12-24T07:18:50Z</time>
      </trkpt>
      <trkpt lat="47.78415" lon="-1.85451">
        <ele>26</ele>
        <time>2007-12-24T07:18:54Z</time>
      </trkpt>
      <trkpt lat="47.78423" lon="-1.85448">
        <ele>26</ele>
        <time>2007-12-24T07:18:58Z</time>
      </trkpt>
      <trkpt lat="47.78425" lon="-1.85448">
        <ele>26</ele>
        <time>2007-12-24T07:18:58Z</time>
      </trkpt>
      <trkpt lat="47.78432" lon="-1.85446">
        <ele>26</ele>
        <time>2007-12-24T07:19:01Z</time>
      </trkpt>
      <trkpt lat="47.78432" lon="-1.8544">
        <ele>26</ele>
        <time>2007-12-24T07:19:03Z</time>
      </trkpt>
      <trkpt lat="47.7843" lon="-1.85429">
        <ele>25</ele>
        <time>2007-12-24T07:19:06Z</time>
      </trkpt>
      <trkpt lat="47.78434" lon="-1.85425">
        <ele>25</ele>
        <time>2007-12-24T07:19:08Z</time>
      </trkpt>
      <trkpt lat="47.78434" lon="-1.85424">
        <ele>25</ele>
        <time>2007-12-24T07:19:08Z</time>
      </trkpt>
      <trkpt lat="47.78435" lon="-1.85422">
        <ele>24</ele>
        <time>2007-12-24T07:19:09Z</time>
      </trkpt>
      <trkpt lat="47.7844" lon="-1.85417">
        <ele>23</ele>
        <time>2007-12-24T07:19:11Z</time>
      </trkpt>
      <trkpt lat="47.78442" lon="-1.85417">
        <ele>23</ele>
        <time>2007-12-24T07:19:12Z</time>
      </trkpt>
      <trkpt lat="47.78443" lon="-1.85415">
        <ele>23</ele>
        <time>2007-12-24T07:19:13Z</time>
      </trkpt>
      <trkpt lat="47.78445" lon="-1.85415">
        <ele>23</ele>
        <time>2007-12-24T07:19:14Z</time>
      </trkpt>
      <trkpt lat="47.78447" lon="-1.85414">
        <ele>22</ele>
        <time>2007-12-24T07:19:14Z</time>
      </trkpt>
      <trkpt lat="47.78449" lon="-1.85409">
        <ele>21</ele>
        <time>2007-12-24T07:19:16Z</time>
      </trkpt>
      <trkpt lat="47.7845" lon="-1.85403">
        <ele>20</ele>
        <time>2007-12-24T07:19:18Z</time>
      </trkpt>
      <trkpt lat="47.78452" lon="-1.85398">
        <ele>19</ele>
        <time>2007-12-24T07:19:19Z</time>
      </trkpt>
      <trkpt lat="47.7845" lon="-1.85391">
        <ele>18</ele>
        <time>2007-12-24T07:19:21Z</time>
      </trkpt>
      <trkpt lat="47.78449" lon="-1.85388">
        <ele>18</ele>
        <time>2007-12-24T07:19:22Z</time>
      </trkpt>
      <trkpt lat="47.78448" lon="-1.85387">
        <ele>18</ele>
        <time>2007-12-24T07:19:23Z</time>
      </trkpt>
      <trkpt lat="47.78448" lon="-1.85383">
        <ele>17</ele>
        <time>2007-12-24T07:19:24Z</time>
      </trkpt>
      <trkpt lat="47.78448" lon="-1.85382">
        <ele>17</ele>
        <time>2007-12-24T07:19:24Z</time>
      </trkpt>
      <trkpt lat="47.78448" lon="-1.8538">
        <ele>17</ele>
        <time>2007-12-24T07:19:24Z</time>
      </trkpt>
      <trkpt lat="47.78448" lon="-1.85378">
        <ele>16</ele>
        <time>2007-12-24T07:19:25Z</time>
      </trkpt>
      <trkpt lat="47.78448" lon="-1.85376">
        <ele>16</ele>
        <time>2007-12-24T07:19:25Z</time>
      </trkpt>
      <trkpt lat="47.78448" lon="-1.85374">
        <ele>16</ele>
        <time>2007-12-24T07:19:26Z</time>
      </trkpt>
      <trkpt lat="47.78448" lon="-1.85371">
        <ele>15</ele>
        <time>2007-12-24T07:19:27Z</time>
      </trkpt>
      <trkpt lat="47.78448" lon="-1.85368">
        <ele>15</ele>
        <time>2007-12-24T07:19:28Z</time>
      </trkpt>
      <trkpt lat="47.78445" lon="-1.85365">
        <ele>15</ele>
        <time>2007-12-24T07:19:29Z</time>
      </trkpt>
      <trkpt lat="47.78442" lon="-1.85354">
        <ele>14</ele>
        <time>2007-12-24T07:19:32Z</time>
      </trkpt>
      <trkpt lat="47.7844" lon="-1.85349">
        <ele>13</ele>
        <time>2007-12-24T07:19:34Z</time>
      </trkpt>
      <trkpt lat="47.7843" lon="-1.85335">
        <ele>13</ele>
        <time>2007-12-24T07:19:39Z</time>
      </trkpt>
      <trkpt lat="47.78422" lon="-1.85322">
        <ele>14</ele>
        <time>2007-12-24T07:19:44Z</time>
      </trkpt>
      <trkpt lat="47.7842" lon="-1.85318">
        <ele>14</ele>
        <time>2007-12-24T07:19:46Z</time>
      </trkpt>
      <trkpt lat="47.78413" lon="-1.85306">
        <ele>15</ele>
        <time>2007-12-24T07:19:50Z</time>
      </trkpt>
      <trkpt lat="47.78405" lon="-1.85301">
        <ele>17</ele>
        <time>2007-12-24T07:19:53Z</time>
      </trkpt>
      <trkpt lat="47.78398" lon="-1.85288">
        <ele>18</ele>
        <time>2007-12-24T07:19:58Z</time>
      </trkpt>
      <trkpt lat="47.78397" lon="-1.85283">
        <ele>18</ele>
        <time>2007-12-24T07:19:59Z</time>
      </trkpt>
      <trkpt lat="47.7839" lon="-1.85262">
        <ele>16</ele>
        <time>2007-12-24T07:20:06Z</time>
      </trkpt>
      <trkpt lat="47.78387" lon="-1.85248">
        <ele>14</ele>
        <time>2007-12-24T07:20:09Z</time>
      </trkpt>
      <trkpt lat="47.78385" lon="-1.85247">
        <ele>14</ele>
        <time>2007-12-24T07:20:10Z</time>
      </trkpt>
      <trkpt lat="47.78385" lon="-1.85246">
        <ele>14</ele>
        <time>2007-12-24T07:20:11Z</time>
      </trkpt>
      <trkpt lat="47.78382" lon="-1.85235">
        <ele>13</ele>
        <time>2007-12-24T07:20:14Z</time>
      </trkpt>
      <trkpt lat="47.78373" lon="-1.85221">
        <ele>13</ele>
        <time>2007-12-24T07:20:19Z</time>
      </trkpt>
      <trkpt lat="47.78372" lon="-1.85217">
        <ele>12</ele>
        <time>2007-12-24T07:20:20Z</time>
      </trkpt>
      <trkpt lat="47.78353" lon="-1.852">
        <ele>15</ele>
        <time>2007-12-24T07:20:29Z</time>
      </trkpt>
      <trkpt lat="47.78342" lon="-1.85185">
        <ele>15</ele>
        <time>2007-12-24T07:20:35Z</time>
      </trkpt>
      <trkpt lat="47.78335" lon="-1.85179">
        <ele>14</ele>
        <time>2007-12-24T07:20:38Z</time>
      </trkpt>
      <trkpt lat="47.78319" lon="-1.85167">
        <ele>14</ele>
        <time>2007-12-24T07:20:45Z</time>
      </trkpt>
      <trkpt lat="47.78301" lon="-1.85157">
        <ele>15</ele>
        <time>2007-12-24T07:20:53Z</time>
      </trkpt>
      <trkpt lat="47.78279" lon="-1.85144">
        <ele>13</ele>
        <time>2007-12-24T07:21:03Z</time>
      </trkpt>
      <trkpt lat="47.78271" lon="-1.85137">
        <ele>13</ele>
        <time>2007-12-24T07:21:06Z</time>
      </trkpt>
      <trkpt lat="47.78257" lon="-1.85135">
        <ele>14</ele>
        <time>2007-12-24T07:21:12Z</time>
      </trkpt>
      <trkpt lat="47.78232" lon="-1.85158">
        <ele>14</ele>
        <time>2007-12-24T07:21:24Z</time>
      </trkpt>
      <trkpt lat="47.78216" lon="-1.85173">
        <ele>13</ele>
        <time>2007-12-24T07:21:31Z</time>
      </trkpt>
      <trkpt lat="47.78206" lon="-1.85206">
        <ele>14</ele>
        <time>2007-12-24T07:21:41Z</time>
      </trkpt>
      <trkpt lat="47.78202" lon="-1.8525">
        <ele>15</ele>
        <time>2007-12-24T07:21:53Z</time>
      </trkpt>
      <trkpt lat="47.78203" lon="-1.85263">
        <ele>15</ele>
        <time>2007-12-24T07:21:56Z</time>
      </trkpt>
      <trkpt lat="47.78204" lon="-1.85279">
        <ele>15</ele>
        <time>2007-12-24T07:22:01Z</time>
      </trkpt>
      <trkpt lat="47.7821" lon="-1.8529">
        <ele>16</ele>
        <time>2007-12-24T07:22:05Z</time>
      </trkpt>
      <trkpt lat="47.78216" lon="-1.85318">
        <ele>17</ele>
        <time>2007-12-24T07:22:12Z</time>
      </trkpt>
      <trkpt lat="47.78215" lon="-1.85327">
        <ele>16</ele>
        <time>2007-12-24T07:22:15Z</time>
      </trkpt>
      <trkpt lat="47.78219" lon="-1.85337">
        <ele>16</ele>
        <time>2007-12-24T07:22:18Z</time>
      </trkpt>
      <trkpt lat="47.78192" lon="-1.85285">
        <ele>14</ele>
        <time>2007-12-24T07:22:36Z</time>
      </trkpt>
      <trkpt lat="47.78188" lon="-1.85211">
        <ele>12</ele>
        <time>2007-12-24T07:22:56Z</time>
      </trkpt>
      <trkpt lat="47.78201" lon="-1.85146">
        <ele>10</ele>
        <time>2007-12-24T07:23:15Z</time>
      </trkpt>
      <trkpt lat="47.78234" lon="-1.85054">
        <ele>7</ele>
        <time>2007-12-24T07:23:42Z</time>
      </trkpt>
      <trkpt lat="47.78221" lon="-1.85026">
        <ele>7</ele>
        <time>2007-12-24T07:23:51Z</time>
      </trkpt>
      <trkpt lat="47.78192" lon="-1.84948">
        <ele>9</ele>
        <time>2007-12-24T07:24:15Z</time>
      </trkpt>
      <trkpt lat="47.78274" lon="-1.84824">
        <ele>6</ele>
        <time>2007-12-24T07:25:02Z</time>
      </trkpt>
      <trkpt lat="47.78325" lon="-1.84694">
        <ele>5</ele>
        <time>2007-12-24T07:25:43Z</time>
      </trkpt>
      <trkpt lat="47.78469" lon="-1.84766">
        <ele>5</ele>
        <time>2007-12-24T07:26:43Z</time>
      </trkpt>
      <trkpt lat="47.78532" lon="-1.84794">
        <ele>5</ele>
        <time>2007-12-24T07:27:09Z</time>
      </trkpt>
      <trkpt lat="47.78644" lon="-1.84737">
        <ele>5</ele>
        <time>2007-12-24T07:27:57Z</time>
      </trkpt>
      <trkpt lat="47.78755" lon="-1.84571">
        <ele>5</ele>
        <time>2007-12-24T07:29:00Z</time>
      </trkpt>
      <trkpt lat="47.78818" lon="-1.84463">
        <ele>5</ele>
        <time>2007-12-24T07:29:38Z</time>
      </trkpt>
      <trkpt lat="47.78935" lon="-1.84351">
        <ele>5</ele>
        <time>2007-12-24T07:30:34Z</time>
      </trkpt>
      <trkpt lat="47.79057" lon="-1.84255">
        <ele>5</ele>
        <time>2007-12-24T07:31:29Z</time>
      </trkpt>
      <trkpt lat="47.79151" lon="-1.84138">
        <ele>5</ele>
        <time>2007-12-24T07:32:18Z</time>
      </trkpt>
      <trkpt lat="47.79275" lon="-1.84084">
        <ele>5</ele>
        <time>2007-12-24T07:33:10Z</time>
      </trkpt>
      <trkpt lat="47.79415" lon="-1.84023">
        <ele>4</ele>
        <time>2007-12-24T07:34:08Z</time>
      </trkpt>
      <trkpt lat="47.79582" lon="-1.84052">
        <ele>5</ele>
        <time>2007-12-24T07:35:16Z</time>
      </trkpt>
      <trkpt lat="47.79861" lon="-1.84321">
        <ele>5</ele>
        <time>2007-12-24T07:37:29Z</time>
      </trkpt>
      <trkpt lat="47.79941" lon="-1.84358">
        <ele>5</ele>
        <time>2007-12-24T07:38:02Z</time>
      </trkpt>
      <trkpt lat="47.80141" lon="-1.8442">
        <ele>5</ele>
        <time>2007-12-24T07:39:24Z</time>
      </trkpt>
      <trkpt lat="47.8025" lon="-1.8452">
        <ele>5</ele>
        <time>2007-12-24T07:40:15Z</time>
      </trkpt>
      <trkpt lat="47.80351" lon="-1.846">
        <ele>6</ele>
        <time>2007-12-24T07:41:01Z</time>
      </trkpt>
      <trkpt lat="47.80448" lon="-1.84635">
        <ele>7</ele>
        <time>2007-12-24T07:41:41Z</time>
      </trkpt>
      <trkpt lat="47.80522" lon="-1.84648">
        <ele>7</ele>
        <time>2007-12-24T07:42:11Z</time>
      </trkpt>
      <trkpt lat="47.80619" lon="-1.84658">
        <ele>7</ele>
        <time>2007-12-24T07:42:50Z</time>
      </trkpt>
      <trkpt lat="47.80768" lon="-1.84694">
        <ele>8</ele>
        <time>2007-12-24T07:43:50Z</time>
      </trkpt>
      <trkpt lat="47.80912" lon="-1.84729">
        <ele>8</ele>
        <time>2007-12-24T07:44:49Z</time>
      </trkpt>
      <trkpt lat="47.80986" lon="-1.84708">
        <ele>8</ele>
        <time>2007-12-24T07:45:19Z</time>
      </trkpt>
      <trkpt lat="47.81069" lon="-1.8468">
        <ele>8</ele>
        <time>2007-12-24T07:45:53Z</time>
      </trkpt>
      <trkpt lat="47.81165" lon="-1.84635">
        <ele>7</ele>
        <time>2007-12-24T07:46:33Z</time>
      </trkpt>
      <trkpt lat="47.81287" lon="-1.84511">
        <ele>8</ele>
        <time>2007-12-24T07:47:32Z</time>
      </trkpt>
      <trkpt lat="47.8145" lon="-1.84327">
        <ele>10</ele>
        <time>2007-12-24T07:48:54Z</time>
      </trkpt>
      <trkpt lat="47.81483" lon="-1.84293">
        <ele>10</ele>
        <time>2007-12-24T07:49:10Z</time>
      </trkpt>
      <trkpt lat="47.81556" lon="-1.84138">
        <ele>9</ele>
        <time>2007-12-24T07:50:01Z</time>
      </trkpt>
      <trkpt lat="47.81567" lon="-1.84032">
        <ele>8</ele>
        <time>2007-12-24T07:50:30Z</time>
      </trkpt>
      <trkpt lat="47.81549" lon="-1.83883">
        <ele>7</ele>
        <time>2007-12-24T07:51:11Z</time>
      </trkpt>
      <trkpt lat="47.81491" lon="-1.83752">
        <ele>7</ele>
        <time>2007-12-24T07:51:53Z</time>
      </trkpt>
      <trkpt lat="47.81456" lon="-1.83669">
        <ele>7</ele>
        <time>2007-12-24T07:52:19Z</time>
      </trkpt>
      <trkpt lat="47.81474" lon="-1.83556">
        <ele>7</ele>
        <time>2007-12-24T07:52:50Z</time>
      </trkpt>
      <trkpt lat="47.81519" lon="-1.83433">
        <ele>7</ele>
        <time>2007-12-24T07:53:28Z</time>
      </trkpt>
      <trkpt lat="47.81596" lon="-1.83278">
        <ele>7</ele>
        <time>2007-12-24T07:54:20Z</time>
      </trkpt>
      <trkpt lat="47.81642" lon="-1.83115">
        <ele>7</ele>
        <time>2007-12-24T07:55:07Z</time>
      </trkpt>
      <trkpt lat="47.81675" lon="-1.83008">
        <ele>7</ele>
        <time>2007-12-24T07:55:39Z</time>
      </trkpt>
      <trkpt lat="47.81751" lon="-1.82919">
        <ele>8</ele>
        <time>2007-12-24T07:56:18Z</time>
      </trkpt>
      <trkpt lat="47.818" lon="-1.82937">
        <ele>8</ele>
        <time>2007-12-24T07:56:38Z</time>
      </trkpt>
      <trkpt lat="47.81881" lon="-1.82934">
        <ele>8</ele>
        <time>2007-12-24T07:57:10Z</time>
      </trkpt>
      <trkpt lat="47.81936" lon="-1.82904">
        <ele>8</ele>
        <time>2007-12-24T07:57:34Z</time>
      </trkpt>
      <trkpt lat="47.82004" lon="-1.82805">
        <ele>7</ele>
        <time>2007-12-24T07:58:12Z</time>
      </trkpt>
      <trkpt lat="47.82089" lon="-1.82655">
        <ele>7</ele>
        <time>2007-12-24T07:59:05Z</time>
      </trkpt>
      <trkpt lat="47.82149" lon="-1.82547">
        <ele>7</ele>
        <time>2007-12-24T07:59:43Z</time>
      </trkpt>
      <trkpt lat="47.82189" lon="-1.82446">
        <ele>7</ele>
        <time>2007-12-24T08:00:14Z</time>
      </trkpt>
      <trkpt lat="47.8223" lon="-1.82359">
        <ele>8</ele>
        <time>2007-12-24T08:00:42Z</time>
      </trkpt>
      <trkpt lat="47.82256" lon="-1.82288">
        <ele>7</ele>
        <time>2007-12-24T08:01:04Z</time>
      </trkpt>
      <trkpt lat="47.82099" lon="-1.82178">
        <ele>8</ele>
        <time>2007-12-24T08:02:14Z</time>
      </trkpt>
      <trkpt lat="47.8216" lon="-1.81992">
        <ele>9</ele>
        <time>2007-12-24T08:03:09Z</time>
      </trkpt>
      <trkpt lat="47.8219" lon="-1.81958">
        <ele>9</ele>
        <time>2007-12-24T08:03:24Z</time>
      </trkpt>
      <trkpt lat="47.8226" lon="-1.81887">
        <ele>7</ele>
        <time>2007-12-24T08:03:58Z</time>
      </trkpt>
      <trkpt lat="47.82327" lon="-1.81832">
        <ele>7</ele>
        <time>2007-12-24T08:04:29Z</time>
      </trkpt>
      <trkpt lat="47.82337" lon="-1.81776">
        <ele>7</ele>
        <time>2007-12-24T08:04:45Z</time>
      </trkpt>
      <trkpt lat="47.82439" lon="-1.81596">
        <ele>7.955141</ele>
        <time>2007-12-24T08:06:58Z</time>
      </trkpt>
      <trkpt lat="47.82498" lon="-1.81594">
        <ele>7.067547</ele>
        <time>2007-12-24T08:08:54Z</time>
      </trkpt>
      <trkpt lat="47.82546" lon="-1.81504">
        <ele>7.503125</ele>
        <time>2007-12-24T08:10:14Z</time>
      </trkpt>
      <trkpt lat="47.82521" lon="-1.81449">
        <ele>8.077297</ele>
        <time>2007-12-24T08:10:24Z</time>
      </trkpt>
      <trkpt lat="47.82527" lon="-1.81409">
        <ele>8.139984</ele>
        <time>2007-12-24T08:10:38Z</time>
      </trkpt>
      <trkpt lat="47.82875" lon="-1.80868">
        <ele>11.80625</ele>
        <time>2007-12-24T08:11:07Z</time>
      </trkpt>
      <trkpt lat="47.82911" lon="-1.80878">
        <ele>11.60625</ele>
        <time>2007-12-24T08:11:23Z</time>
      </trkpt>
      <trkpt lat="47.82935" lon="-1.8096">
        <ele>10.10312</ele>
        <time>2007-12-24T08:11:37Z</time>
      </trkpt>
      <trkpt lat="47.83027" lon="-1.81171">
        <ele>8</ele>
        <time>2007-12-24T08:12:00Z</time>
      </trkpt>
      <trkpt lat="47.83074" lon="-1.81098">
        <ele>7</ele>
        <time>2007-12-24T08:12:53Z</time>
      </trkpt>
      <trkpt lat="47.83185" lon="-1.80853">
        <ele>7</ele>
        <time>2007-12-24T08:13:46Z</time>
      </trkpt>
      <trkpt lat="47.83285" lon="-1.80671">
        <ele>8</ele>
        <time>2007-12-24T08:14:49Z</time>
      </trkpt>
      <trkpt lat="47.83315" lon="-1.80595">
        <ele>8</ele>
        <time>2007-12-24T08:15:13Z</time>
      </trkpt>
      <trkpt lat="47.8333" lon="-1.80549">
        <ele>8</ele>
        <time>2007-12-24T08:15:27Z</time>
      </trkpt>
      <trkpt lat="47.83346" lon="-1.80477">
        <ele>9</ele>
        <time>2007-12-24T08:15:47Z</time>
      </trkpt>
      <trkpt lat="47.83402" lon="-1.80348">
        <ele>9</ele>
        <time>2007-12-24T08:16:28Z</time>
      </trkpt>
      <trkpt lat="47.83345" lon="-1.8027">
        <ele>10</ele>
        <time>2007-12-24T08:17:00Z</time>
      </trkpt>
      <trkpt lat="47.83309" lon="-1.80197">
        <ele>12</ele>
        <time>2007-12-24T08:17:24Z</time>
      </trkpt>
      <trkpt lat="47.83319" lon="-1.80147">
        <ele>12</ele>
        <time>2007-12-24T08:17:38Z</time>
      </trkpt>
      <trkpt lat="47.83409" lon="-1.79981">
        <ele>11</ele>
        <time>2007-12-24T08:18:35Z</time>
      </trkpt>
      <trkpt lat="47.83414" lon="-1.79907">
        <ele>12</ele>
        <time>2007-12-24T08:18:55Z</time>
      </trkpt>
      <trkpt lat="47.83397" lon="-1.79866">
        <ele>13.11608</ele>
        <time>2007-12-24T08:19:07Z</time>
      </trkpt>
      <trkpt lat="47.83361" lon="-1.79856">
        <ele>14.82808</ele>
        <time>2007-12-24T08:19:17Z</time>
      </trkpt>
      <trkpt lat="47.8334" lon="-1.79834">
        <ele>15.75813</ele>
        <time>2007-12-24T08:19:34Z</time>
      </trkpt>
      <trkpt lat="47.83309" lon="-1.79805">
        <ele>16.91312</ele>
        <time>2007-12-24T08:19:56Z</time>
      </trkpt>
      <trkpt lat="47.83292" lon="-1.79771">
        <ele>18.21313</ele>
        <time>2007-12-24T08:20:20Z</time>
      </trkpt>
      <trkpt lat="47.83258" lon="-1.79721">
        <ele>20.51312</ele>
        <time>2007-12-24T08:20:53Z</time>
      </trkpt>
      <trkpt lat="47.83215" lon="-1.79671">
        <ele>23.39242</ele>
        <time>2007-12-24T08:21:43Z</time>
      </trkpt>
      <trkpt lat="47.83122" lon="-1.7961">
        <ele>30.39173</ele>
        <time>2007-12-24T08:22:07Z</time>
      </trkpt>
      <trkpt lat="47.83124" lon="-1.7957">
        <ele>31.16813</ele>
        <time>2007-12-24T08:22:41Z</time>
      </trkpt>
      <trkpt lat="47.83422" lon="-1.79145">
        <ele>19.66875</ele>
        <time>2007-12-24T08:23:11Z</time>
      </trkpt>
      <trkpt lat="47.83465" lon="-1.78834">
        <ele>11.71</ele>
        <time>2007-12-24T08:24:00Z</time>
      </trkpt>
      <trkpt lat="47.83515" lon="-1.78705">
        <ele>10.71</ele>
        <time>2007-12-24T08:24:40Z</time>
      </trkpt>
      <trkpt lat="47.83563" lon="-1.78608">
        <ele>10.35812</ele>
        <time>2007-12-24T08:25:18Z</time>
      </trkpt>
      <trkpt lat="47.83642" lon="-1.78414">
        <ele>11.75813</ele>
        <time>2007-12-24T08:26:05Z</time>
      </trkpt>
      <trkpt lat="47.83714" lon="-1.78292">
        <ele>12.15812</ele>
        <time>2007-12-24T08:26:49Z</time>
      </trkpt>
      <trkpt lat="47.83764" lon="-1.78276">
        <ele>10.48164</ele>
        <time>2007-12-24T08:27:37Z</time>
      </trkpt>
      <trkpt lat="47.83815" lon="-1.78233">
        <ele>9.104671</ele>
        <time>2007-12-24T08:28:57Z</time>
      </trkpt>
      <trkpt lat="47.83862" lon="-1.78183">
        <ele>9.703125</ele>
        <time>2007-12-24T08:29:17Z</time>
      </trkpt>
      <trkpt lat="47.83899" lon="-1.78153">
        <ele>10.45805</ele>
        <time>2007-12-24T08:29:33Z</time>
      </trkpt>
      <trkpt lat="47.83922" lon="-1.78128">
        <ele>10.66572</ele>
        <time>2007-12-24T08:29:52Z</time>
      </trkpt>
      <trkpt lat="47.83936" lon="-1.78082">
        <ele>11</ele>
        <time>2007-12-24T08:30:07Z</time>
      </trkpt>
      <trkpt lat="47.83925" lon="-1.78071">
        <ele>12</ele>
        <time>2007-12-24T08:30:12Z</time>
      </trkpt>
      <trkpt lat="47.83761" lon="-1.77865">
        <ele>24</ele>
        <time>2007-12-24T08:31:38Z</time>
      </trkpt>
      <trkpt lat="47.83736" lon="-1.77799">
        <ele>26</ele>
        <time>2007-12-24T08:31:58Z</time>
      </trkpt>
      <trkpt lat="47.83737" lon="-1.7777">
        <ele>27</ele>
        <time>2007-12-24T08:32:06Z</time>
      </trkpt>
      <trkpt lat="47.83762" lon="-1.7765">
        <ele>26</ele>
        <time>2007-12-24T08:32:40Z</time>
      </trkpt>
      <trkpt lat="47.83723" lon="-1.77533">
        <ele>31</ele>
        <time>2007-12-24T08:33:15Z</time>
      </trkpt>
      <trkpt lat="47.83664" lon="-1.77467">
        <ele>36</ele>
        <time>2007-12-24T08:33:44Z</time>
      </trkpt>
      <trkpt lat="47.83678" lon="-1.77394">
        <ele>38</ele>
        <time>2007-12-24T08:34:04Z</time>
      </trkpt>
      <trkpt lat="47.83648" lon="-1.77027">
        <ele>34</ele>
        <time>2007-12-24T08:35:44Z</time>
      </trkpt>
      <trkpt lat="47.8365" lon="-1.76491">
        <ele>24</ele>
        <time>2007-12-24T08:38:08Z</time>
      </trkpt>
      <trkpt lat="47.83799" lon="-1.76524">
        <ele>25</ele>
        <time>2007-12-24T08:39:08Z</time>
      </trkpt>
      <trkpt lat="47.83636" lon="-1.75858">
        <ele>28</ele>
        <time>2007-12-24T08:42:19Z</time>
      </trkpt>
      <trkpt lat="47.83684" lon="-1.75876">
        <ele>29</ele>
        <time>2007-12-24T08:42:39Z</time>
      </trkpt>
      <trkpt lat="47.83909" lon="-1.74656">
        <ele>48</ele>
        <time>2007-12-24T08:48:19Z</time>
      </trkpt>
      <trkpt lat="47.84044" lon="-1.74659">
        <ele>52</ele>
        <time>2007-12-24T08:49:13Z</time>
      </trkpt>
      <trkpt lat="47.84142" lon="-1.74623">
        <ele>60</ele>
        <time>2007-12-24T08:49:53Z</time>
      </trkpt>
      <trkpt lat="47.84227" lon="-1.74584">
        <ele>62</ele>
        <time>2007-12-24T08:50:29Z</time>
      </trkpt>
      <trkpt lat="47.84306" lon="-1.74597">
        <ele>64</ele>
        <time>2007-12-24T08:51:00Z</time>
      </trkpt>
      <trkpt lat="47.84388" lon="-1.74606">
        <ele>66.01136</ele>
        <time>2007-12-24T08:51:39Z</time>
      </trkpt>
      <trkpt lat="47.84552" lon="-1.74648">
        <ele>73</ele>
        <time>2007-12-24T08:52:42Z</time>
      </trkpt>
      <trkpt lat="47.84716" lon="-1.74764">
        <ele>86</ele>
        <time>2007-12-24T08:53:54Z</time>
      </trkpt>
      <trkpt lat="47.84824" lon="-1.7488">
        <ele>101.3748</ele>
        <time>2007-12-24T08:55:11Z</time>
      </trkpt>
      <trkpt lat="47.8479" lon="-1.75085">
        <ele>101.7294</ele>
        <time>2007-12-24T08:55:45Z</time>
      </trkpt>
      <trkpt lat="47.84948" lon="-1.75021">
        <ele>109</ele>
        <time>2007-12-24T08:56:18Z</time>
      </trkpt>
      <trkpt lat="47.84961" lon="-1.75406">
        <ele>107</ele>
        <time>2007-12-24T08:58:02Z</time>
      </trkpt>
      <trkpt lat="47.84978" lon="-1.75778">
        <ele>95</ele>
        <time>2007-12-24T08:59:42Z</time>
      </trkpt>
      <trkpt lat="47.85198" lon="-1.75739">
        <ele>103</ele>
        <time>2007-12-24T09:01:11Z</time>
      </trkpt>
      <trkpt lat="47.85371" lon="-1.75715">
        <ele>110</ele>
        <time>2007-12-24T09:02:21Z</time>
      </trkpt>
      <trkpt lat="47.856" lon="-1.75674">
        <ele>115</ele>
        <time>2007-12-24T09:03:53Z</time>
      </trkpt>
      <trkpt lat="47.8562" lon="-1.75761">
        <ele>115</ele>
        <time>2007-12-24T09:04:18Z</time>
      </trkpt>
      <trkpt lat="47.85639" lon="-1.7586">
        <ele>115</ele>
        <time>2007-12-24T09:04:45Z</time>
      </trkpt>
      <trkpt lat="47.85683" lon="-1.76007">
        <ele>114</ele>
        <time>2007-12-24T09:05:29Z</time>
      </trkpt>
      <trkpt lat="47.85741" lon="-1.76142">
        <ele>112</ele>
        <time>2007-12-24T09:06:12Z</time>
      </trkpt>
      <trkpt lat="47.85826" lon="-1.76248">
        <ele>108</ele>
        <time>2007-12-24T09:06:56Z</time>
      </trkpt>
      <trkpt lat="47.85908" lon="-1.76299">
        <ele>100</ele>
        <time>2007-12-24T09:07:31Z</time>
      </trkpt>
      <trkpt lat="47.85941" lon="-1.76378">
        <ele>97</ele>
        <time>2007-12-24T09:07:57Z</time>
      </trkpt>
      <trkpt lat="47.85984" lon="-1.76425">
        <ele>93</ele>
        <time>2007-12-24T09:08:18Z</time>
      </trkpt>
      <trkpt lat="47.86012" lon="-1.76531">
        <ele>87</ele>
        <time>2007-12-24T09:08:49Z</time>
      </trkpt>
      <trkpt lat="47.86035" lon="-1.76701">
        <ele>72</ele>
        <time>2007-12-24T09:09:35Z</time>
      </trkpt>
      <trkpt lat="47.86145" lon="-1.76702">
        <ele>63</ele>
        <time>2007-12-24T09:10:19Z</time>
      </trkpt>
      <trkpt lat="47.86148" lon="-1.76695">
        <ele>62.62938</ele>
        <time>2007-12-24T09:10:35Z</time>
      </trkpt>
      <trkpt lat="47.86188" lon="-1.76698">
        <ele>59.91938</ele>
        <time>2007-12-24T09:10:45Z</time>
      </trkpt>
      <trkpt lat="47.86232" lon="-1.76735">
        <ele>55.92849</ele>
        <time>2007-12-24T09:11:09Z</time>
      </trkpt>
      <trkpt lat="47.86263" lon="-1.76738">
        <ele>53.62625</ele>
        <time>2007-12-24T09:11:29Z</time>
      </trkpt>
      <trkpt lat="47.86294" lon="-1.76754">
        <ele>50.42625</ele>
        <time>2007-12-24T09:11:56Z</time>
      </trkpt>
      <trkpt lat="47.86334" lon="-1.76777">
        <ele>45.77692</ele>
        <time>2007-12-24T09:12:08Z</time>
      </trkpt>
      <trkpt lat="47.86392" lon="-1.76778">
        <ele>41</ele>
        <time>2007-12-24T09:12:22Z</time>
      </trkpt>
      <trkpt lat="47.8642" lon="-1.76757">
        <ele>39</ele>
        <time>2007-12-24T09:12:34Z</time>
      </trkpt>
      <trkpt lat="47.86492" lon="-1.76769">
        <ele>34.39317</ele>
        <time>2007-12-24T09:12:52Z</time>
      </trkpt>
      <trkpt lat="47.86564" lon="-1.76774">
        <ele>26.22305</ele>
        <time>2007-12-24T09:13:09Z</time>
      </trkpt>
      <trkpt lat="47.86557" lon="-1.76714">
        <ele>33</ele>
        <time>2007-12-24T09:13:31Z</time>
      </trkpt>
      <trkpt lat="47.86583" lon="-1.76676">
        <ele>30</ele>
        <time>2007-12-24T09:13:46Z</time>
      </trkpt>
      <trkpt lat="47.86625" lon="-1.76696">
        <ele>27</ele>
        <time>2007-12-24T09:14:04Z</time>
      </trkpt>
      <trkpt lat="47.86647" lon="-1.76701">
        <ele>32</ele>
        <time>2007-12-24T09:14:13Z</time>
      </trkpt>
      <trkpt lat="47.8666" lon="-1.76665">
        <ele>32</ele>
        <time>2007-12-24T09:14:24Z</time>
      </trkpt>
      <trkpt lat="47.86687" lon="-1.76544">
        <ele>38</ele>
        <time>2007-12-24T09:14:58Z</time>
      </trkpt>
      <trkpt lat="47.86723" lon="-1.76406">
        <ele>50</ele>
        <time>2007-12-24T09:15:37Z</time>
      </trkpt>
      <trkpt lat="47.86753" lon="-1.7619">
        <ele>52</ele>
        <time>2007-12-24T09:16:37Z</time>
      </trkpt>
      <trkpt lat="47.8678" lon="-1.76129">
        <ele>53</ele>
        <time>2007-12-24T09:16:56Z</time>
      </trkpt>
      <trkpt lat="47.86803" lon="-1.7613">
        <ele>56</ele>
        <time>2007-12-24T09:17:05Z</time>
      </trkpt>
      <trkpt lat="47.86818" lon="-1.76149">
        <ele>58</ele>
        <time>2007-12-24T09:17:13Z</time>
      </trkpt>
      <trkpt lat="47.86893" lon="-1.76164">
        <ele>66</ele>
        <time>2007-12-24T09:17:44Z</time>
      </trkpt>
      <trkpt lat="47.87007" lon="-1.76156">
        <ele>81</ele>
        <time>2007-12-24T09:18:29Z</time>
      </trkpt>
      <trkpt lat="47.87102" lon="-1.76194">
        <ele>90</ele>
        <time>2007-12-24T09:19:09Z</time>
      </trkpt>
      <trkpt lat="47.87226" lon="-1.76241">
        <ele>99</ele>
        <time>2007-12-24T09:20:00Z</time>
      </trkpt>
      <trkpt lat="47.87216" lon="-1.76337">
        <ele>97</ele>
        <time>2007-12-24T09:20:26Z</time>
      </trkpt>
      <trkpt lat="47.87192" lon="-1.76446">
        <ele>93</ele>
        <time>2007-12-24T09:20:57Z</time>
      </trkpt>
      <trkpt lat="47.87215" lon="-1.765">
        <ele>91</ele>
        <time>2007-12-24T09:21:14Z</time>
      </trkpt>
      <trkpt lat="47.87239" lon="-1.76587">
        <ele>89</ele>
        <time>2007-12-24T09:21:39Z</time>
      </trkpt>
      <trkpt lat="47.87227" lon="-1.76699">
        <ele>85</ele>
        <time>2007-12-24T09:22:10Z</time>
      </trkpt>
      <trkpt lat="47.87252" lon="-1.76804">
        <ele>80</ele>
        <time>2007-12-24T09:22:40Z</time>
      </trkpt>
      <trkpt lat="47.87254" lon="-1.76862">
        <ele>77</ele>
        <time>2007-12-24T09:22:55Z</time>
      </trkpt>
      <trkpt lat="47.87258" lon="-1.77022">
        <ele>69</ele>
        <time>2007-12-24T09:23:38Z</time>
      </trkpt>
      <trkpt lat="47.87227" lon="-1.7712">
        <ele>61</ele>
        <time>2007-12-24T09:24:07Z</time>
      </trkpt>
      <trkpt lat="47.8718" lon="-1.77238">
        <ele>49</ele>
        <time>2007-12-24T09:24:44Z</time>
      </trkpt>
      <trkpt lat="47.87136" lon="-1.77267">
        <ele>44</ele>
        <time>2007-12-24T09:25:03Z</time>
      </trkpt>
      <trkpt lat="47.87083" lon="-1.77307">
        <ele>41</ele>
        <time>2007-12-24T09:25:27Z</time>
      </trkpt>
      <trkpt lat="47.87075" lon="-1.77486">
        <ele>18</ele>
        <time>2007-12-24T09:26:15Z</time>
      </trkpt>
      <trkpt lat="47.87184" lon="-1.77572">
        <ele>18</ele>
        <time>2007-12-24T09:27:05Z</time>
      </trkpt>
      <trkpt lat="47.87335" lon="-1.77647">
        <ele>20</ele>
        <time>2007-12-24T09:28:09Z</time>
      </trkpt>
      <trkpt lat="47.87334" lon="-1.77658">
        <ele>18</ele>
        <time>2007-12-24T09:28:11Z</time>
      </trkpt>
      <trkpt lat="47.87412" lon="-1.77674">
        <ele>19</ele>
        <time>2007-12-24T09:28:43Z</time>
      </trkpt>
      <trkpt lat="47.87558" lon="-1.77702">
        <ele>13</ele>
        <time>2007-12-24T09:29:42Z</time>
      </trkpt>
      <trkpt lat="47.87675" lon="-1.77718">
        <ele>15</ele>
        <time>2007-12-24T09:30:29Z</time>
      </trkpt>
      <trkpt lat="47.87845" lon="-1.77785">
        <ele>17</ele>
        <time>2007-12-24T09:31:39Z</time>
      </trkpt>
      <trkpt lat="47.87909" lon="-1.77873">
        <ele>12</ele>
        <time>2007-12-24T09:32:14Z</time>
      </trkpt>
      <trkpt lat="47.87995" lon="-1.77946">
        <ele>10</ele>
        <time>2007-12-24T09:32:54Z</time>
      </trkpt>
      <trkpt lat="47.88194" lon="-1.78113">
        <ele>11</ele>
        <time>2007-12-24T09:34:25Z</time>
      </trkpt>
      <trkpt lat="47.88446" lon="-1.78286">
        <ele>17</ele>
        <time>2007-12-24T09:36:16Z</time>
      </trkpt>
      <trkpt lat="47.8858" lon="-1.78465">
        <ele>10</ele>
        <time>2007-12-24T09:37:28Z</time>
      </trkpt>
      <trkpt lat="47.88666" lon="-1.78498">
        <ele>9</ele>
        <time>2007-12-24T09:38:04Z</time>
      </trkpt>
      <trkpt lat="47.88781" lon="-1.78449">
        <ele>9</ele>
        <time>2007-12-24T09:38:52Z</time>
      </trkpt>
      <trkpt lat="47.88874" lon="-1.7841">
        <ele>9</ele>
        <time>2007-12-24T09:39:30Z</time>
      </trkpt>
      <trkpt lat="47.88963" lon="-1.78397">
        <ele>8</ele>
        <time>2007-12-24T09:40:06Z</time>
      </trkpt>
      <trkpt lat="47.8902" lon="-1.78361">
        <ele>8</ele>
        <time>2007-12-24T09:40:31Z</time>
      </trkpt>
      <trkpt lat="47.89055" lon="-1.78268">
        <ele>10</ele>
        <time>2007-12-24T09:41:00Z</time>
      </trkpt>
      <trkpt lat="47.89089" lon="-1.78214">
        <ele>10</ele>
        <time>2007-12-24T09:41:20Z</time>
      </trkpt>
      <trkpt lat="47.89135" lon="-1.78187">
        <ele>10</ele>
        <time>2007-12-24T09:41:39Z</time>
      </trkpt>
      <trkpt lat="47.89157" lon="-1.78154">
        <ele>10</ele>
        <time>2007-12-24T09:41:52Z</time>
      </trkpt>
      <trkpt lat="47.89159" lon="-1.78156">
        <ele>10</ele>
        <time>2007-12-24T09:41:52Z</time>
      </trkpt>
      <trkpt lat="47.89159" lon="-1.78157">
        <ele>10</ele>
        <time>2007-12-24T09:41:53Z</time>
      </trkpt>
      <trkpt lat="47.89159" lon="-1.78158">
        <ele>10</ele>
        <time>2007-12-24T09:41:53Z</time>
      </trkpt>
      <trkpt lat="47.89166" lon="-1.78138">
        <ele>10</ele>
        <time>2007-12-24T09:41:59Z</time>
      </trkpt>
      <trkpt lat="47.89167" lon="-1.7811">
        <ele>10</ele>
        <time>2007-12-24T09:42:07Z</time>
      </trkpt>
      <trkpt lat="47.89157" lon="-1.78077">
        <ele>11</ele>
        <time>2007-12-24T09:42:17Z</time>
      </trkpt>
      <trkpt lat="47.89151" lon="-1.7807">
        <ele>11</ele>
        <time>2007-12-24T09:42:20Z</time>
      </trkpt>
      <trkpt lat="47.89108" lon="-1.7801">
        <ele>15</ele>
        <time>2007-12-24T09:42:43Z</time>
      </trkpt>
      <trkpt lat="47.89075" lon="-1.77956">
        <ele>18</ele>
        <time>2007-12-24T09:43:03Z</time>
      </trkpt>
      <trkpt lat="47.89052" lon="-1.77907">
        <ele>21</ele>
        <time>2007-12-24T09:43:19Z</time>
      </trkpt>
      <trkpt lat="47.89033" lon="-1.77862">
        <ele>22</ele>
        <time>2007-12-24T09:43:33Z</time>
      </trkpt>
      <trkpt lat="47.8902" lon="-1.77831">
        <ele>23</ele>
        <time>2007-12-24T09:43:43Z</time>
      </trkpt>
      <trkpt lat="47.89014" lon="-1.77815">
        <ele>23</ele>
        <time>2007-12-24T09:43:48Z</time>
      </trkpt>
      <trkpt lat="47.89008" lon="-1.77803">
        <ele>23</ele>
        <time>2007-12-24T09:43:52Z</time>
      </trkpt>
      <trkpt lat="47.89008" lon="-1.77802">
        <ele>23</ele>
        <time>2007-12-24T09:43:52Z</time>
      </trkpt>
      <trkpt lat="47.8901" lon="-1.77802">
        <ele>23</ele>
        <time>2007-12-24T09:43:53Z</time>
      </trkpt>
      <trkpt lat="47.89012" lon="-1.77802">
        <ele>23</ele>
        <time>2007-12-24T09:43:54Z</time>
      </trkpt>
      <trkpt lat="47.89012" lon="-1.77803">
        <ele>23</ele>
        <time>2007-12-24T09:43:54Z</time>
      </trkpt>
      <trkpt lat="47.8901" lon="-1.77802">
        <ele>23</ele>
        <time>2007-12-24T09:43:55Z</time>
      </trkpt>
      <trkpt lat="47.89007" lon="-1.77797">
        <ele>24</ele>
        <time>2007-12-24T09:43:57Z</time>
      </trkpt>
      <trkpt lat="47.88997" lon="-1.77769">
        <ele>24</ele>
        <time>2007-12-24T09:44:05Z</time>
      </trkpt>
      <trkpt lat="47.88985" lon="-1.77738">
        <ele>26</ele>
        <time>2007-12-24T09:44:15Z</time>
      </trkpt>
      <trkpt lat="47.88958" lon="-1.77676">
        <ele>27</ele>
        <time>2007-12-24T09:44:34Z</time>
      </trkpt>
      <trkpt lat="47.88933" lon="-1.77625">
        <ele>29</ele>
        <time>2007-12-24T09:44:51Z</time>
      </trkpt>
      <trkpt lat="47.88927" lon="-1.77614">
        <ele>29</ele>
        <time>2007-12-24T09:44:55Z</time>
      </trkpt>
      <trkpt lat="47.8891" lon="-1.7758">
        <ele>30</ele>
        <time>2007-12-24T09:45:07Z</time>
      </trkpt>
      <trkpt lat="47.88908" lon="-1.77558">
        <ele>30</ele>
        <time>2007-12-24T09:45:12Z</time>
      </trkpt>
      <trkpt lat="47.88914" lon="-1.77551">
        <ele>30</ele>
        <time>2007-12-24T09:45:15Z</time>
      </trkpt>
      <trkpt lat="47.8894" lon="-1.7752">
        <ele>29</ele>
        <time>2007-12-24T09:45:29Z</time>
      </trkpt>
      <trkpt lat="47.88963" lon="-1.77489">
        <ele>28</ele>
        <time>2007-12-24T09:45:41Z</time>
      </trkpt>
      <trkpt lat="47.88997" lon="-1.77445">
        <ele>28</ele>
        <time>2007-12-24T09:45:59Z</time>
      </trkpt>
      <trkpt lat="47.89022" lon="-1.7741">
        <ele>27</ele>
        <time>2007-12-24T09:46:13Z</time>
      </trkpt>
      <trkpt lat="47.89037" lon="-1.77388">
        <ele>27</ele>
        <time>2007-12-24T09:46:21Z</time>
      </trkpt>
      <trkpt lat="47.89058" lon="-1.77357">
        <ele>25</ele>
        <time>2007-12-24T09:46:33Z</time>
      </trkpt>
      <trkpt lat="47.89079" lon="-1.77329">
        <ele>24</ele>
        <time>2007-12-24T09:46:44Z</time>
      </trkpt>
      <trkpt lat="47.89102" lon="-1.77306">
        <ele>22</ele>
        <time>2007-12-24T09:46:55Z</time>
      </trkpt>
      <trkpt lat="47.89129" lon="-1.77285">
        <ele>21</ele>
        <time>2007-12-24T09:47:08Z</time>
      </trkpt>
      <trkpt lat="47.89146" lon="-1.77269">
        <ele>20</ele>
        <time>2007-12-24T09:47:16Z</time>
      </trkpt>
      <trkpt lat="47.89155" lon="-1.77262">
        <ele>20</ele>
        <time>2007-12-24T09:47:20Z</time>
      </trkpt>
      <trkpt lat="47.89171" lon="-1.77247">
        <ele>19</ele>
        <time>2007-12-24T09:47:28Z</time>
      </trkpt>
      <trkpt lat="47.89182" lon="-1.77235">
        <ele>19</ele>
        <time>2007-12-24T09:47:33Z</time>
      </trkpt>
      <trkpt lat="47.892" lon="-1.77206">
        <ele>17</ele>
        <time>2007-12-24T09:47:43Z</time>
      </trkpt>
      <trkpt lat="47.89216" lon="-1.77175">
        <ele>16</ele>
        <time>2007-12-24T09:47:54Z</time>
      </trkpt>
      <trkpt lat="47.8923" lon="-1.77152">
        <ele>14</ele>
        <time>2007-12-24T09:48:02Z</time>
      </trkpt>
      <trkpt lat="47.89232" lon="-1.77148">
        <ele>14</ele>
        <time>2007-12-24T09:48:04Z</time>
      </trkpt>
      <trkpt lat="47.89227" lon="-1.77132">
        <ele>15</ele>
        <time>2007-12-24T09:48:08Z</time>
      </trkpt>
      <trkpt lat="47.89213" lon="-1.77119">
        <ele>14</ele>
        <time>2007-12-24T09:48:15Z</time>
      </trkpt>
      <trkpt lat="47.89193" lon="-1.77091">
        <ele>15</ele>
        <time>2007-12-24T09:48:26Z</time>
      </trkpt>
      <trkpt lat="47.89178" lon="-1.77056">
        <ele>15</ele>
        <time>2007-12-24T09:48:37Z</time>
      </trkpt>
      <trkpt lat="47.8917" lon="-1.77036">
        <ele>15</ele>
        <time>2007-12-24T09:48:43Z</time>
      </trkpt>
      <trkpt lat="47.8917" lon="-1.77017">
        <ele>16</ele>
        <time>2007-12-24T09:48:48Z</time>
      </trkpt>
      <trkpt lat="47.89173" lon="-1.76997">
        <ele>17</ele>
        <time>2007-12-24T09:48:54Z</time>
      </trkpt>
      <trkpt lat="47.89173" lon="-1.76978">
        <ele>18</ele>
        <time>2007-12-24T09:48:59Z</time>
      </trkpt>
      <trkpt lat="47.89187" lon="-1.76946">
        <ele>23</ele>
        <time>2007-12-24T09:49:09Z</time>
      </trkpt>
      <trkpt lat="47.89191" lon="-1.76929">
        <ele>25</ele>
        <time>2007-12-24T09:49:14Z</time>
      </trkpt>
      <trkpt lat="47.89202" lon="-1.76892">
        <ele>29</ele>
        <time>2007-12-24T09:49:25Z</time>
      </trkpt>
      <trkpt lat="47.89202" lon="-1.76877">
        <ele>30</ele>
        <time>2007-12-24T09:49:29Z</time>
      </trkpt>
      <trkpt lat="47.8919" lon="-1.76879">
        <ele>30</ele>
        <time>2007-12-24T09:49:33Z</time>
      </trkpt>
      <trkpt lat="47.89184" lon="-1.76886">
        <ele>29</ele>
        <time>2007-12-24T09:49:37Z</time>
      </trkpt>
      <trkpt lat="47.89168" lon="-1.76887">
        <ele>27</ele>
        <time>2007-12-24T09:49:43Z</time>
      </trkpt>
      <trkpt lat="47.89163" lon="-1.76881">
        <ele>27</ele>
        <time>2007-12-24T09:49:46Z</time>
      </trkpt>
      <trkpt lat="47.8915" lon="-1.76858">
        <ele>28</ele>
        <time>2007-12-24T09:49:53Z</time>
      </trkpt>
      <trkpt lat="47.89142" lon="-1.76842">
        <ele>30</ele>
        <time>2007-12-24T09:49:59Z</time>
      </trkpt>
      <trkpt lat="47.8914" lon="-1.76842">
        <ele>29</ele>
        <time>2007-12-24T09:50:00Z</time>
      </trkpt>
      <trkpt lat="47.89138" lon="-1.7684">
        <ele>30</ele>
        <time>2007-12-24T09:50:01Z</time>
      </trkpt>
      <trkpt lat="47.89135" lon="-1.76839">
        <ele>29</ele>
        <time>2007-12-24T09:50:02Z</time>
      </trkpt>
      <trkpt lat="47.89127" lon="-1.7684">
        <ele>27</ele>
        <time>2007-12-24T09:50:05Z</time>
      </trkpt>
      <trkpt lat="47.89112" lon="-1.76828">
        <ele>26</ele>
        <time>2007-12-24T09:50:12Z</time>
      </trkpt>
      <trkpt lat="47.89097" lon="-1.76814">
        <ele>24</ele>
        <time>2007-12-24T09:50:19Z</time>
      </trkpt>
      <trkpt lat="47.8909" lon="-1.76806">
        <ele>24</ele>
        <time>2007-12-24T09:50:23Z</time>
      </trkpt>
      <trkpt lat="47.89085" lon="-1.76786">
        <ele>25</ele>
        <time>2007-12-24T09:50:28Z</time>
      </trkpt>
      <trkpt lat="47.89085" lon="-1.76782">
        <ele>26</ele>
        <time>2007-12-24T09:50:29Z</time>
      </trkpt>
      <trkpt lat="47.89084" lon="-1.76773">
        <ele>26</ele>
        <time>2007-12-24T09:50:32Z</time>
      </trkpt>
      <trkpt lat="47.89075" lon="-1.76752">
        <ele>26</ele>
        <time>2007-12-24T09:50:39Z</time>
      </trkpt>
      <trkpt lat="47.8907" lon="-1.76753">
        <ele>24</ele>
        <time>2007-12-24T09:50:41Z</time>
      </trkpt>
      <trkpt lat="47.89068" lon="-1.76757">
        <ele>23</ele>
        <time>2007-12-24T09:50:42Z</time>
      </trkpt>
      <trkpt lat="47.89067" lon="-1.7676">
        <ele>23</ele>
        <time>2007-12-24T09:50:43Z</time>
      </trkpt>
      <trkpt lat="47.89064" lon="-1.76764">
        <ele>22</ele>
        <time>2007-12-24T09:50:45Z</time>
      </trkpt>
      <trkpt lat="47.89058" lon="-1.76763">
        <ele>21</ele>
        <time>2007-12-24T09:50:47Z</time>
      </trkpt>
      <trkpt lat="47.89055" lon="-1.7676">
        <ele>20</ele>
        <time>2007-12-24T09:50:48Z</time>
      </trkpt>
      <trkpt lat="47.89054" lon="-1.76756">
        <ele>20</ele>
        <time>2007-12-24T09:50:49Z</time>
      </trkpt>
      <trkpt lat="47.89046" lon="-1.7675">
        <ele>19</ele>
        <time>2007-12-24T09:50:53Z</time>
      </trkpt>
      <trkpt lat="47.89045" lon="-1.76728">
        <ele>21</ele>
        <time>2007-12-24T09:50:59Z</time>
      </trkpt>
      <trkpt lat="47.89053" lon="-1.76701">
        <ele>24</ele>
        <time>2007-12-24T09:51:06Z</time>
      </trkpt>
      <trkpt lat="47.89048" lon="-1.76679">
        <ele>26</ele>
        <time>2007-12-24T09:51:13Z</time>
      </trkpt>
      <trkpt lat="47.8904" lon="-1.76647">
        <ele>27</ele>
        <time>2007-12-24T09:51:22Z</time>
      </trkpt>
      <trkpt lat="47.89035" lon="-1.76623">
        <ele>28</ele>
        <time>2007-12-24T09:51:29Z</time>
      </trkpt>
      <trkpt lat="47.89028" lon="-1.7659">
        <ele>29</ele>
        <time>2007-12-24T09:51:38Z</time>
      </trkpt>
      <trkpt lat="47.89025" lon="-1.76579">
        <ele>29</ele>
        <time>2007-12-24T09:51:41Z</time>
      </trkpt>
      <trkpt lat="47.89016" lon="-1.7656">
        <ele>27</ele>
        <time>2007-12-24T09:51:47Z</time>
      </trkpt>
      <trkpt lat="47.89017" lon="-1.76546">
        <ele>29</ele>
        <time>2007-12-24T09:51:51Z</time>
      </trkpt>
      <trkpt lat="47.89014" lon="-1.76542">
        <ele>28</ele>
        <time>2007-12-24T09:51:53Z</time>
      </trkpt>
      <trkpt lat="47.89014" lon="-1.7654">
        <ele>28</ele>
        <time>2007-12-24T09:51:53Z</time>
      </trkpt>
      <trkpt lat="47.89008" lon="-1.7653">
        <ele>28</ele>
        <time>2007-12-24T09:51:57Z</time>
      </trkpt>
      <trkpt lat="47.89008" lon="-1.76528">
        <ele>28</ele>
        <time>2007-12-24T09:51:57Z</time>
      </trkpt>
      <trkpt lat="47.8901" lon="-1.7653">
        <ele>28</ele>
        <time>2007-12-24T09:51:58Z</time>
      </trkpt>
      <trkpt lat="47.89012" lon="-1.7653">
        <ele>29</ele>
        <time>2007-12-24T09:51:59Z</time>
      </trkpt>
      <trkpt lat="47.89012" lon="-1.76528">
        <ele>29</ele>
        <time>2007-12-24T09:51:59Z</time>
      </trkpt>
      <trkpt lat="47.89013" lon="-1.76528">
        <ele>29</ele>
        <time>2007-12-24T09:52:00Z</time>
      </trkpt>
      <trkpt lat="47.89013" lon="-1.76527">
        <ele>29</ele>
        <time>2007-12-24T09:52:00Z</time>
      </trkpt>
      <trkpt lat="47.89015" lon="-1.76528">
        <ele>30</ele>
        <time>2007-12-24T09:52:01Z</time>
      </trkpt>
      <trkpt lat="47.89017" lon="-1.76528">
        <ele>30</ele>
        <time>2007-12-24T09:52:02Z</time>
      </trkpt>
      <trkpt lat="47.89017" lon="-1.76527">
        <ele>30</ele>
        <time>2007-12-24T09:52:02Z</time>
      </trkpt>
      <trkpt lat="47.89019" lon="-1.76527">
        <ele>31</ele>
        <time>2007-12-24T09:52:03Z</time>
      </trkpt>
      <trkpt lat="47.89018" lon="-1.76528">
        <ele>31</ele>
        <time>2007-12-24T09:52:03Z</time>
      </trkpt>
      <trkpt lat="47.89022" lon="-1.76539">
        <ele>31</ele>
        <time>2007-12-24T09:52:07Z</time>
      </trkpt>
      <trkpt lat="47.89028" lon="-1.76556">
        <ele>32</ele>
        <time>2007-12-24T09:52:12Z</time>
      </trkpt>
      <trkpt lat="47.89032" lon="-1.76568">
        <ele>32</ele>
        <time>2007-12-24T09:52:15Z</time>
      </trkpt>
      <trkpt lat="47.89042" lon="-1.76584">
        <ele>34</ele>
        <time>2007-12-24T09:52:21Z</time>
      </trkpt>
      <trkpt lat="47.89046" lon="-1.7659">
        <ele>35</ele>
        <time>2007-12-24T09:52:24Z</time>
      </trkpt>
      <trkpt lat="47.89054" lon="-1.76597">
        <ele>36</ele>
        <time>2007-12-24T09:52:27Z</time>
      </trkpt>
      <trkpt lat="47.89058" lon="-1.76602">
        <ele>36</ele>
        <time>2007-12-24T09:52:29Z</time>
      </trkpt>
      <trkpt lat="47.89062" lon="-1.76605">
        <ele>37</ele>
        <time>2007-12-24T09:52:31Z</time>
      </trkpt>
      <trkpt lat="47.89065" lon="-1.76609">
        <ele>37</ele>
        <time>2007-12-24T09:52:33Z</time>
      </trkpt>
      <trkpt lat="47.8907" lon="-1.7661">
        <ele>38</ele>
        <time>2007-12-24T09:52:35Z</time>
      </trkpt>
      <trkpt lat="47.89077" lon="-1.76625">
        <ele>38</ele>
        <time>2007-12-24T09:52:39Z</time>
      </trkpt>
      <trkpt lat="47.89077" lon="-1.7663">
        <ele>38</ele>
        <time>2007-12-24T09:52:41Z</time>
      </trkpt>
      <trkpt lat="47.89078" lon="-1.76635">
        <ele>38</ele>
        <time>2007-12-24T09:52:43Z</time>
      </trkpt>
      <trkpt lat="47.8908" lon="-1.76649">
        <ele>37</ele>
        <time>2007-12-24T09:52:46Z</time>
      </trkpt>
      <trkpt lat="47.89083" lon="-1.76656">
        <ele>37</ele>
        <time>2007-12-24T09:52:49Z</time>
      </trkpt>
      <trkpt lat="47.89097" lon="-1.76662">
        <ele>40</ele>
        <time>2007-12-24T09:52:54Z</time>
      </trkpt>
      <trkpt lat="47.89105" lon="-1.76673">
        <ele>40</ele>
        <time>2007-12-24T09:52:59Z</time>
      </trkpt>
      <trkpt lat="47.89111" lon="-1.76679">
        <ele>40</ele>
        <time>2007-12-24T09:53:02Z</time>
      </trkpt>
      <trkpt lat="47.89117" lon="-1.76685">
        <ele>40</ele>
        <time>2007-12-24T09:53:04Z</time>
      </trkpt>
      <trkpt lat="47.89123" lon="-1.767">
        <ele>40</ele>
        <time>2007-12-24T09:53:09Z</time>
      </trkpt>
      <trkpt lat="47.8913" lon="-1.76706">
        <ele>40</ele>
        <time>2007-12-24T09:53:12Z</time>
      </trkpt>
      <trkpt lat="47.89139" lon="-1.76718">
        <ele>40</ele>
        <time>2007-12-24T09:53:17Z</time>
      </trkpt>
      <trkpt lat="47.89145" lon="-1.76725">
        <ele>40</ele>
        <time>2007-12-24T09:53:20Z</time>
      </trkpt>
      <trkpt lat="47.89147" lon="-1.76734">
        <ele>40</ele>
        <time>2007-12-24T09:53:23Z</time>
      </trkpt>
      <trkpt lat="47.89147" lon="-1.76737">
        <ele>39</ele>
        <time>2007-12-24T09:53:23Z</time>
      </trkpt>
      <trkpt lat="47.89157" lon="-1.76739">
        <ele>40</ele>
        <time>2007-12-24T09:53:28Z</time>
      </trkpt>
      <trkpt lat="47.89165" lon="-1.76743">
        <ele>41</ele>
        <time>2007-12-24T09:53:31Z</time>
      </trkpt>
      <trkpt lat="47.89167" lon="-1.76747">
        <ele>40</ele>
        <time>2007-12-24T09:53:32Z</time>
      </trkpt>
      <trkpt lat="47.89169" lon="-1.76747">
        <ele>41</ele>
        <time>2007-12-24T09:53:33Z</time>
      </trkpt>
      <trkpt lat="47.8917" lon="-1.76747">
        <ele>41</ele>
        <time>2007-12-24T09:53:33Z</time>
      </trkpt>
      <trkpt lat="47.89175" lon="-1.76751">
        <ele>41</ele>
        <time>2007-12-24T09:53:36Z</time>
      </trkpt>
      <trkpt lat="47.89183" lon="-1.76748">
        <ele>42</ele>
        <time>2007-12-24T09:53:39Z</time>
      </trkpt>
      <trkpt lat="47.8919" lon="-1.76746">
        <ele>42</ele>
        <time>2007-12-24T09:53:42Z</time>
      </trkpt>
      <trkpt lat="47.89198" lon="-1.7675">
        <ele>41</ele>
        <time>2007-12-24T09:53:45Z</time>
      </trkpt>
      <trkpt lat="47.89202" lon="-1.76747">
        <ele>42</ele>
        <time>2007-12-24T09:53:47Z</time>
      </trkpt>
      <trkpt lat="47.89205" lon="-1.76747">
        <ele>42</ele>
        <time>2007-12-24T09:53:48Z</time>
      </trkpt>
      <trkpt lat="47.8921" lon="-1.7675">
        <ele>41</ele>
        <time>2007-12-24T09:53:50Z</time>
      </trkpt>
      <trkpt lat="47.89218" lon="-1.76746">
        <ele>41</ele>
        <time>2007-12-24T09:53:54Z</time>
      </trkpt>
      <trkpt lat="47.89225" lon="-1.76748">
        <ele>41</ele>
        <time>2007-12-24T09:53:57Z</time>
      </trkpt>
      <trkpt lat="47.8923" lon="-1.76744">
        <ele>41</ele>
        <time>2007-12-24T09:53:59Z</time>
      </trkpt>
      <trkpt lat="47.89225" lon="-1.76727">
        <ele>42</ele>
        <time>2007-12-24T09:54:04Z</time>
      </trkpt>
      <trkpt lat="47.89229" lon="-1.76711">
        <ele>43</ele>
        <time>2007-12-24T09:54:08Z</time>
      </trkpt>
      <trkpt lat="47.8923" lon="-1.76704">
        <ele>43</ele>
        <time>2007-12-24T09:54:10Z</time>
      </trkpt>
      <trkpt lat="47.89232" lon="-1.76688">
        <ele>43</ele>
        <time>2007-12-24T09:54:15Z</time>
      </trkpt>
      <trkpt lat="47.89237" lon="-1.76672">
        <ele>44</ele>
        <time>2007-12-24T09:54:19Z</time>
      </trkpt>
      <trkpt lat="47.89242" lon="-1.76662">
        <ele>44</ele>
        <time>2007-12-24T09:54:23Z</time>
      </trkpt>
      <trkpt lat="47.89243" lon="-1.76651">
        <ele>44</ele>
        <time>2007-12-24T09:54:25Z</time>
      </trkpt>
      <trkpt lat="47.89247" lon="-1.76654">
        <ele>44</ele>
        <time>2007-12-24T09:54:27Z</time>
      </trkpt>
      <trkpt lat="47.89247" lon="-1.76655">
        <ele>44</ele>
        <time>2007-12-24T09:54:27Z</time>
      </trkpt>
      <trkpt lat="47.89247" lon="-1.76671">
        <ele>43</ele>
        <time>2007-12-24T09:54:32Z</time>
      </trkpt>
      <trkpt lat="47.89248" lon="-1.76691">
        <ele>42</ele>
        <time>2007-12-24T09:54:37Z</time>
      </trkpt>
      <trkpt lat="47.89248" lon="-1.76713">
        <ele>41</ele>
        <time>2007-12-24T09:54:43Z</time>
      </trkpt>
      <trkpt lat="47.8925" lon="-1.76742">
        <ele>39</ele>
        <time>2007-12-24T09:54:51Z</time>
      </trkpt>
      <trkpt lat="47.8925" lon="-1.76762">
        <ele>39</ele>
        <time>2007-12-24T09:54:56Z</time>
      </trkpt>
      <trkpt lat="47.89252" lon="-1.76776">
        <ele>38</ele>
        <time>2007-12-24T09:55:00Z</time>
      </trkpt>
      <trkpt lat="47.89256" lon="-1.76777">
        <ele>37</ele>
        <time>2007-12-24T09:55:02Z</time>
      </trkpt>
      <trkpt lat="47.89265" lon="-1.76781">
        <ele>36</ele>
        <time>2007-12-24T09:55:05Z</time>
      </trkpt>
      <trkpt lat="47.89268" lon="-1.76781">
        <ele>36</ele>
        <time>2007-12-24T09:55:07Z</time>
      </trkpt>
      <trkpt lat="47.89283" lon="-1.76783">
        <ele>34</ele>
        <time>2007-12-24T09:55:13Z</time>
      </trkpt>
      <trkpt lat="47.89292" lon="-1.76792">
        <ele>32</ele>
        <time>2007-12-24T09:55:17Z</time>
      </trkpt>
      <trkpt lat="47.89303" lon="-1.76801">
        <ele>30</ele>
        <time>2007-12-24T09:55:22Z</time>
      </trkpt>
      <trkpt lat="47.8931" lon="-1.76812">
        <ele>28</ele>
        <time>2007-12-24T09:55:26Z</time>
      </trkpt>
      <trkpt lat="47.89317" lon="-1.76817">
        <ele>27</ele>
        <time>2007-12-24T09:55:29Z</time>
      </trkpt>
      <trkpt lat="47.89318" lon="-1.76817">
        <ele>27</ele>
        <time>2007-12-24T09:55:30Z</time>
      </trkpt>
      <trkpt lat="47.8932" lon="-1.76817">
        <ele>26</ele>
        <time>2007-12-24T09:55:30Z</time>
      </trkpt>
      <trkpt lat="47.89321" lon="-1.76811">
        <ele>26</ele>
        <time>2007-12-24T09:55:32Z</time>
      </trkpt>
      <trkpt lat="47.89323" lon="-1.76805">
        <ele>25</ele>
        <time>2007-12-24T09:55:34Z</time>
      </trkpt>
      <trkpt lat="47.89323" lon="-1.76803">
        <ele>25</ele>
        <time>2007-12-24T09:55:34Z</time>
      </trkpt>
      <trkpt lat="47.89323" lon="-1.76802">
        <ele>25</ele>
        <time>2007-12-24T09:55:35Z</time>
      </trkpt>
      <trkpt lat="47.89322" lon="-1.76815">
        <ele>26</ele>
        <time>2007-12-24T09:55:38Z</time>
      </trkpt>
      <trkpt lat="47.89322" lon="-1.76818">
        <ele>26</ele>
        <time>2007-12-24T09:55:39Z</time>
      </trkpt>
      <trkpt lat="47.89327" lon="-1.76827">
        <ele>24</ele>
        <time>2007-12-24T09:55:42Z</time>
      </trkpt>
      <trkpt lat="47.89333" lon="-1.76818">
        <ele>22</ele>
        <time>2007-12-24T09:55:46Z</time>
      </trkpt>
      <trkpt lat="47.89338" lon="-1.76803">
        <ele>21</ele>
        <time>2007-12-24T09:55:50Z</time>
      </trkpt>
      <trkpt lat="47.89335" lon="-1.76792">
        <ele>22</ele>
        <time>2007-12-24T09:55:53Z</time>
      </trkpt>
      <trkpt lat="47.8933" lon="-1.76782">
        <ele>24</ele>
        <time>2007-12-24T09:55:57Z</time>
      </trkpt>
      <trkpt lat="47.8933" lon="-1.7678">
        <ele>24</ele>
        <time>2007-12-24T09:55:57Z</time>
      </trkpt>
      <trkpt lat="47.89328" lon="-1.76778">
        <ele>25</ele>
        <time>2007-12-24T09:55:58Z</time>
      </trkpt>
      <trkpt lat="47.89326" lon="-1.76776">
        <ele>25</ele>
        <time>2007-12-24T09:55:59Z</time>
      </trkpt>
      <trkpt lat="47.89326" lon="-1.76775">
        <ele>26</ele>
        <time>2007-12-24T09:55:59Z</time>
      </trkpt>
      <trkpt lat="47.89324" lon="-1.7677">
        <ele>27</ele>
        <time>2007-12-24T09:56:01Z</time>
      </trkpt>
      <trkpt lat="47.89316" lon="-1.76758">
        <ele>30</ele>
        <time>2007-12-24T09:56:06Z</time>
      </trkpt>
      <trkpt lat="47.89315" lon="-1.76751">
        <ele>30</ele>
        <time>2007-12-24T09:56:07Z</time>
      </trkpt>
      <trkpt lat="47.89322" lon="-1.76747">
        <ele>29</ele>
        <time>2007-12-24T09:56:10Z</time>
      </trkpt>
      <trkpt lat="47.89323" lon="-1.76748">
        <ele>28</ele>
        <time>2007-12-24T09:56:11Z</time>
      </trkpt>
      <trkpt lat="47.89333" lon="-1.7675">
        <ele>25</ele>
        <time>2007-12-24T09:56:15Z</time>
      </trkpt>
      <trkpt lat="47.89335" lon="-1.76749">
        <ele>24</ele>
        <time>2007-12-24T09:56:16Z</time>
      </trkpt>
      <trkpt lat="47.89337" lon="-1.76748">
        <ele>24</ele>
        <time>2007-12-24T09:56:16Z</time>
      </trkpt>
      <trkpt lat="47.89339" lon="-1.76748">
        <ele>23</ele>
        <time>2007-12-24T09:56:17Z</time>
      </trkpt>
      <trkpt lat="47.8934" lon="-1.76747">
        <ele>23</ele>
        <time>2007-12-24T09:56:18Z</time>
      </trkpt>
      <trkpt lat="47.8935" lon="-1.76746">
        <ele>20</ele>
        <time>2007-12-24T09:56:22Z</time>
      </trkpt>
      <trkpt lat="47.89355" lon="-1.7674">
        <ele>19</ele>
        <time>2007-12-24T09:56:24Z</time>
      </trkpt>
      <trkpt lat="47.89362" lon="-1.76725">
        <ele>17</ele>
        <time>2007-12-24T09:56:29Z</time>
      </trkpt>
      <trkpt lat="47.89367" lon="-1.76709">
        <ele>18</ele>
        <time>2007-12-24T09:56:34Z</time>
      </trkpt>
      <trkpt lat="47.89373" lon="-1.76687">
        <ele>19</ele>
        <time>2007-12-24T09:56:40Z</time>
      </trkpt>
      <trkpt lat="47.89372" lon="-1.7667">
        <ele>21</ele>
        <time>2007-12-24T09:56:45Z</time>
      </trkpt>
      <trkpt lat="47.89374" lon="-1.76656">
        <ele>22</ele>
        <time>2007-12-24T09:56:49Z</time>
      </trkpt>
      <trkpt lat="47.89372" lon="-1.7664">
        <ele>24</ele>
        <time>2007-12-24T09:56:53Z</time>
      </trkpt>
      <trkpt lat="47.89372" lon="-1.76628">
        <ele>26</ele>
        <time>2007-12-24T09:56:56Z</time>
      </trkpt>
      <trkpt lat="47.89375" lon="-1.76608">
        <ele>27</ele>
        <time>2007-12-24T09:57:02Z</time>
      </trkpt>
      <trkpt lat="47.89373" lon="-1.76593">
        <ele>30</ele>
        <time>2007-12-24T09:57:06Z</time>
      </trkpt>
      <trkpt lat="47.89375" lon="-1.76568">
        <ele>30</ele>
        <time>2007-12-24T09:57:13Z</time>
      </trkpt>
      <trkpt lat="47.89385" lon="-1.76546">
        <ele>25</ele>
        <time>2007-12-24T09:57:20Z</time>
      </trkpt>
      <trkpt lat="47.89387" lon="-1.76536">
        <ele>24</ele>
        <time>2007-12-24T09:57:23Z</time>
      </trkpt>
      <trkpt lat="47.89387" lon="-1.7653">
        <ele>24</ele>
        <time>2007-12-24T09:57:24Z</time>
      </trkpt>
      <trkpt lat="47.8939" lon="-1.76513">
        <ele>23</ele>
        <time>2007-12-24T09:57:29Z</time>
      </trkpt>
      <trkpt lat="47.89392" lon="-1.76505">
        <ele>22</ele>
        <time>2007-12-24T09:57:32Z</time>
      </trkpt>
      <trkpt lat="47.8939" lon="-1.76502">
        <ele>23</ele>
        <time>2007-12-24T09:57:33Z</time>
      </trkpt>
      <trkpt lat="47.89386" lon="-1.76491">
        <ele>26</ele>
        <time>2007-12-24T09:57:36Z</time>
      </trkpt>
      <trkpt lat="47.89387" lon="-1.76478">
        <ele>26</ele>
        <time>2007-12-24T09:57:39Z</time>
      </trkpt>
      <trkpt lat="47.89385" lon="-1.76471">
        <ele>27</ele>
        <time>2007-12-24T09:57:41Z</time>
      </trkpt>
      <trkpt lat="47.89381" lon="-1.76443">
        <ele>30</ele>
        <time>2007-12-24T09:57:49Z</time>
      </trkpt>
      <trkpt lat="47.89387" lon="-1.76422">
        <ele>28</ele>
        <time>2007-12-24T09:57:55Z</time>
      </trkpt>
      <trkpt lat="47.89386" lon="-1.76414">
        <ele>29</ele>
        <time>2007-12-24T09:57:57Z</time>
      </trkpt>
      <trkpt lat="47.89385" lon="-1.76383">
        <ele>31</ele>
        <time>2007-12-24T09:58:06Z</time>
      </trkpt>
      <trkpt lat="47.89378" lon="-1.76371">
        <ele>34</ele>
        <time>2007-12-24T09:58:10Z</time>
      </trkpt>
      <trkpt lat="47.89373" lon="-1.76357">
        <ele>36</ele>
        <time>2007-12-24T09:58:14Z</time>
      </trkpt>
      <trkpt lat="47.89371" lon="-1.7635">
        <ele>36</ele>
        <time>2007-12-24T09:58:16Z</time>
      </trkpt>
      <trkpt lat="47.89373" lon="-1.76341">
        <ele>36</ele>
        <time>2007-12-24T09:58:19Z</time>
      </trkpt>
      <trkpt lat="47.89385" lon="-1.7634">
        <ele>33</ele>
        <time>2007-12-24T09:58:23Z</time>
      </trkpt>
      <trkpt lat="47.89392" lon="-1.76332">
        <ele>30</ele>
        <time>2007-12-24T09:58:27Z</time>
      </trkpt>
      <trkpt lat="47.89393" lon="-1.76308">
        <ele>31</ele>
        <time>2007-12-24T09:58:34Z</time>
      </trkpt>
      <trkpt lat="47.89393" lon="-1.76295">
        <ele>32</ele>
        <time>2007-12-24T09:58:37Z</time>
      </trkpt>
      <trkpt lat="47.89398" lon="-1.76273">
        <ele>33</ele>
        <time>2007-12-24T09:58:43Z</time>
      </trkpt>
      <trkpt lat="47.894" lon="-1.7627">
        <ele>33</ele>
        <time>2007-12-24T09:58:44Z</time>
      </trkpt>
      <trkpt lat="47.894" lon="-1.76265">
        <ele>34</ele>
        <time>2007-12-24T09:58:46Z</time>
      </trkpt>
      <trkpt lat="47.89405" lon="-1.76242">
        <ele>35</ele>
        <time>2007-12-24T09:58:52Z</time>
      </trkpt>
      <trkpt lat="47.89422" lon="-1.76215">
        <ele>36</ele>
        <time>2007-12-24T09:59:02Z</time>
      </trkpt>
      <trkpt lat="47.8944" lon="-1.76172">
        <ele>37</ele>
        <time>2007-12-24T09:59:16Z</time>
      </trkpt>
      <trkpt lat="47.89452" lon="-1.76155">
        <ele>35</ele>
        <time>2007-12-24T09:59:22Z</time>
      </trkpt>
      <trkpt lat="47.89467" lon="-1.76123">
        <ele>37</ele>
        <time>2007-12-24T09:59:33Z</time>
      </trkpt>
      <trkpt lat="47.89477" lon="-1.76092">
        <ele>40</ele>
        <time>2007-12-24T09:59:42Z</time>
      </trkpt>
      <trkpt lat="47.89484" lon="-1.76076">
        <ele>40</ele>
        <time>2007-12-24T09:59:47Z</time>
      </trkpt>
      <trkpt lat="47.8949" lon="-1.76058">
        <ele>40</ele>
        <time>2007-12-24T09:59:53Z</time>
      </trkpt>
      <trkpt lat="47.89499" lon="-1.76041">
        <ele>36</ele>
        <time>2007-12-24T09:59:58Z</time>
      </trkpt>
      <trkpt lat="47.89505" lon="-1.76026">
        <ele>34</ele>
        <time>2007-12-24T10:00:03Z</time>
      </trkpt>
      <trkpt lat="47.89506" lon="-1.76023">
        <ele>33</ele>
        <time>2007-12-24T10:00:04Z</time>
      </trkpt>
      <trkpt lat="47.89508" lon="-1.76023">
        <ele>32</ele>
        <time>2007-12-24T10:00:05Z</time>
      </trkpt>
      <trkpt lat="47.8951" lon="-1.76019">
        <ele>32</ele>
        <time>2007-12-24T10:00:06Z</time>
      </trkpt>
      <trkpt lat="47.89512" lon="-1.76019">
        <ele>31</ele>
        <time>2007-12-24T10:00:07Z</time>
      </trkpt>
      <trkpt lat="47.89514" lon="-1.76016">
        <ele>30</ele>
        <time>2007-12-24T10:00:08Z</time>
      </trkpt>
      <trkpt lat="47.89515" lon="-1.76017">
        <ele>30</ele>
        <time>2007-12-24T10:00:09Z</time>
      </trkpt>
      <trkpt lat="47.89517" lon="-1.76013">
        <ele>29</ele>
        <time>2007-12-24T10:00:10Z</time>
      </trkpt>
      <trkpt lat="47.89515" lon="-1.76013">
        <ele>30</ele>
        <time>2007-12-24T10:00:11Z</time>
      </trkpt>
      <trkpt lat="47.89514" lon="-1.76013">
        <ele>31</ele>
        <time>2007-12-24T10:00:11Z</time>
      </trkpt>
      <trkpt lat="47.89512" lon="-1.76013">
        <ele>32</ele>
        <time>2007-12-24T10:00:12Z</time>
      </trkpt>
      <trkpt lat="47.89512" lon="-1.76012">
        <ele>32</ele>
        <time>2007-12-24T10:00:13Z</time>
      </trkpt>
      <trkpt lat="47.8951" lon="-1.76005">
        <ele>33</ele>
        <time>2007-12-24T10:00:14Z</time>
      </trkpt>
      <trkpt lat="47.89495" lon="-1.75994">
        <ele>39</ele>
        <time>2007-12-24T10:00:21Z</time>
      </trkpt>
      <trkpt lat="47.89468" lon="-1.75973">
        <ele>43</ele>
        <time>2007-12-24T10:00:33Z</time>
      </trkpt>
      <trkpt lat="47.89465" lon="-1.7597">
        <ele>43</ele>
        <time>2007-12-24T10:00:35Z</time>
      </trkpt>
      <trkpt lat="47.89462" lon="-1.75965">
        <ele>42</ele>
        <time>2007-12-24T10:00:37Z</time>
      </trkpt>
      <trkpt lat="47.89457" lon="-1.75959">
        <ele>42</ele>
        <time>2007-12-24T10:00:39Z</time>
      </trkpt>
      <trkpt lat="47.89453" lon="-1.75952">
        <ele>42</ele>
        <time>2007-12-24T10:00:42Z</time>
      </trkpt>
      <trkpt lat="47.89452" lon="-1.75945">
        <ele>41</ele>
        <time>2007-12-24T10:00:43Z</time>
      </trkpt>
      <trkpt lat="47.89452" lon="-1.7594">
        <ele>40</ele>
        <time>2007-12-24T10:00:45Z</time>
      </trkpt>
      <trkpt lat="47.8945" lon="-1.75939">
        <ele>40</ele>
        <time>2007-12-24T10:00:46Z</time>
      </trkpt>
      <trkpt lat="47.89442" lon="-1.75939">
        <ele>42</ele>
        <time>2007-12-24T10:00:49Z</time>
      </trkpt>
      <trkpt lat="47.89432" lon="-1.75931">
        <ele>43</ele>
        <time>2007-12-24T10:00:53Z</time>
      </trkpt>
      <trkpt lat="47.89428" lon="-1.75929">
        <ele>43</ele>
        <time>2007-12-24T10:00:55Z</time>
      </trkpt>
      <trkpt lat="47.89425" lon="-1.75927">
        <ele>43</ele>
        <time>2007-12-24T10:00:56Z</time>
      </trkpt>
      <trkpt lat="47.89418" lon="-1.75923">
        <ele>44</ele>
        <time>2007-12-24T10:00:59Z</time>
      </trkpt>
      <trkpt lat="47.89402" lon="-1.75912">
        <ele>45</ele>
        <time>2007-12-24T10:01:07Z</time>
      </trkpt>
      <trkpt lat="47.89397" lon="-1.75901">
        <ele>46</ele>
        <time>2007-12-24T10:01:10Z</time>
      </trkpt>
      <trkpt lat="47.89397" lon="-1.75893">
        <ele>46</ele>
        <time>2007-12-24T10:01:12Z</time>
      </trkpt>
      <trkpt lat="47.89397" lon="-1.75892">
        <ele>46</ele>
        <time>2007-12-24T10:01:12Z</time>
      </trkpt>
      <trkpt lat="47.89398" lon="-1.75892">
        <ele>46</ele>
        <time>2007-12-24T10:01:13Z</time>
      </trkpt>
      <trkpt lat="47.8941" lon="-1.75837">
        <ele>46</ele>
        <time>2007-12-24T10:01:28Z</time>
      </trkpt>
      <trkpt lat="47.89413" lon="-1.75827">
        <ele>46</ele>
        <time>2007-12-24T10:01:31Z</time>
      </trkpt>
      <trkpt lat="47.89421" lon="-1.75814">
        <ele>47</ele>
        <time>2007-12-24T10:01:36Z</time>
      </trkpt>
      <trkpt lat="47.89427" lon="-1.75795">
        <ele>48</ele>
        <time>2007-12-24T10:01:42Z</time>
      </trkpt>
      <trkpt lat="47.89428" lon="-1.75793">
        <ele>48</ele>
        <time>2007-12-24T10:01:42Z</time>
      </trkpt>
      <trkpt lat="47.89428" lon="-1.75792">
        <ele>48</ele>
        <time>2007-12-24T10:01:43Z</time>
      </trkpt>
      <trkpt lat="47.8943" lon="-1.75791">
        <ele>48</ele>
        <time>2007-12-24T10:01:44Z</time>
      </trkpt>
      <trkpt lat="47.89426" lon="-1.75779">
        <ele>48</ele>
        <time>2007-12-24T10:01:47Z</time>
      </trkpt>
      <trkpt lat="47.89426" lon="-1.75777">
        <ele>48</ele>
        <time>2007-12-24T10:01:47Z</time>
      </trkpt>
      <trkpt lat="47.89422" lon="-1.75765">
        <ele>49</ele>
        <time>2007-12-24T10:01:51Z</time>
      </trkpt>
      <trkpt lat="47.89422" lon="-1.75757">
        <ele>49</ele>
        <time>2007-12-24T10:01:53Z</time>
      </trkpt>
      <trkpt lat="47.89423" lon="-1.75747">
        <ele>49</ele>
        <time>2007-12-24T10:01:56Z</time>
      </trkpt>
      <trkpt lat="47.89423" lon="-1.75744">
        <ele>49</ele>
        <time>2007-12-24T10:01:57Z</time>
      </trkpt>
      <trkpt lat="47.89437" lon="-1.75737">
        <ele>48</ele>
        <time>2007-12-24T10:02:03Z</time>
      </trkpt>
      <trkpt lat="47.8945" lon="-1.75747">
        <ele>48</ele>
        <time>2007-12-24T10:02:09Z</time>
      </trkpt>
      <trkpt lat="47.89487" lon="-1.75773">
        <ele>47</ele>
        <time>2007-12-24T10:02:25Z</time>
      </trkpt>
      <trkpt lat="47.89493" lon="-1.7578">
        <ele>47</ele>
        <time>2007-12-24T10:02:28Z</time>
      </trkpt>
      <trkpt lat="47.89502" lon="-1.75784">
        <ele>47</ele>
        <time>2007-12-24T10:02:32Z</time>
      </trkpt>
      <trkpt lat="47.8951" lon="-1.75763">
        <ele>46</ele>
        <time>2007-12-24T10:02:38Z</time>
      </trkpt>
      <trkpt lat="47.89515" lon="-1.75754">
        <ele>45</ele>
        <time>2007-12-24T10:02:41Z</time>
      </trkpt>
      <trkpt lat="47.89527" lon="-1.75759">
        <ele>45</ele>
        <time>2007-12-24T10:02:46Z</time>
      </trkpt>
      <trkpt lat="47.89531" lon="-1.75748">
        <ele>44</ele>
        <time>2007-12-24T10:02:50Z</time>
      </trkpt>
      <trkpt lat="47.89528" lon="-1.75732">
        <ele>44</ele>
        <time>2007-12-24T10:02:54Z</time>
      </trkpt>
      <trkpt lat="47.89534" lon="-1.75717">
        <ele>43</ele>
        <time>2007-12-24T10:02:59Z</time>
      </trkpt>
      <trkpt lat="47.89538" lon="-1.75717">
        <ele>42</ele>
        <time>2007-12-24T10:03:00Z</time>
      </trkpt>
      <trkpt lat="47.89548" lon="-1.75702">
        <ele>41</ele>
        <time>2007-12-24T10:03:06Z</time>
      </trkpt>
      <trkpt lat="47.89553" lon="-1.75699">
        <ele>41</ele>
        <time>2007-12-24T10:03:08Z</time>
      </trkpt>
      <trkpt lat="47.89559" lon="-1.75702">
        <ele>40</ele>
        <time>2007-12-24T10:03:10Z</time>
      </trkpt>
      <trkpt lat="47.89567" lon="-1.75698">
        <ele>39</ele>
        <time>2007-12-24T10:03:14Z</time>
      </trkpt>
      <trkpt lat="47.89567" lon="-1.75695">
        <ele>39</ele>
        <time>2007-12-24T10:03:15Z</time>
      </trkpt>
      <trkpt lat="47.89563" lon="-1.75683">
        <ele>39</ele>
        <time>2007-12-24T10:03:18Z</time>
      </trkpt>
      <trkpt lat="47.89563" lon="-1.75676">
        <ele>39</ele>
        <time>2007-12-24T10:03:20Z</time>
      </trkpt>
      <trkpt lat="47.8956" lon="-1.75662">
        <ele>38</ele>
        <time>2007-12-24T10:03:24Z</time>
      </trkpt>
      <trkpt lat="47.89555" lon="-1.75647">
        <ele>38</ele>
        <time>2007-12-24T10:03:28Z</time>
      </trkpt>
      <trkpt lat="47.89552" lon="-1.75641">
        <ele>38</ele>
        <time>2007-12-24T10:03:31Z</time>
      </trkpt>
      <trkpt lat="47.89552" lon="-1.75642">
        <ele>38</ele>
        <time>2007-12-24T10:03:31Z</time>
      </trkpt>
      <trkpt lat="47.89545" lon="-1.75653">
        <ele>40</ele>
        <time>2007-12-24T10:03:35Z</time>
      </trkpt>
      <trkpt lat="47.89543" lon="-1.75656">
        <ele>40</ele>
        <time>2007-12-24T10:03:36Z</time>
      </trkpt>
      <trkpt lat="47.89537" lon="-1.75653">
        <ele>40</ele>
        <time>2007-12-24T10:03:39Z</time>
      </trkpt>
      <trkpt lat="47.89535" lon="-1.75652">
        <ele>40</ele>
        <time>2007-12-24T10:03:40Z</time>
      </trkpt>
      <trkpt lat="47.89533" lon="-1.7565">
        <ele>40</ele>
        <time>2007-12-24T10:03:40Z</time>
      </trkpt>
      <trkpt lat="47.89521" lon="-1.75652">
        <ele>41</ele>
        <time>2007-12-24T10:03:45Z</time>
      </trkpt>
      <trkpt lat="47.89515" lon="-1.75649">
        <ele>41</ele>
        <time>2007-12-24T10:03:48Z</time>
      </trkpt>
      <trkpt lat="47.89512" lon="-1.75635">
        <ele>40</ele>
        <time>2007-12-24T10:03:52Z</time>
      </trkpt>
      <trkpt lat="47.8951" lon="-1.75626">
        <ele>39</ele>
        <time>2007-12-24T10:03:54Z</time>
      </trkpt>
      <trkpt lat="47.89512" lon="-1.75608">
        <ele>38</ele>
        <time>2007-12-24T10:03:59Z</time>
      </trkpt>
      <trkpt lat="47.89508" lon="-1.75601">
        <ele>38</ele>
        <time>2007-12-24T10:04:01Z</time>
      </trkpt>
      <trkpt lat="47.89507" lon="-1.75592">
        <ele>37</ele>
        <time>2007-12-24T10:04:04Z</time>
      </trkpt>
      <trkpt lat="47.89507" lon="-1.75579">
        <ele>36</ele>
        <time>2007-12-24T10:04:08Z</time>
      </trkpt>
      <trkpt lat="47.89515" lon="-1.75565">
        <ele>33</ele>
        <time>2007-12-24T10:04:12Z</time>
      </trkpt>
      <trkpt lat="47.89519" lon="-1.75561">
        <ele>33</ele>
        <time>2007-12-24T10:04:14Z</time>
      </trkpt>
      <trkpt lat="47.89527" lon="-1.75558">
        <ele>31</ele>
        <time>2007-12-24T10:04:18Z</time>
      </trkpt>
      <trkpt lat="47.89528" lon="-1.75558">
        <ele>31</ele>
        <time>2007-12-24T10:04:18Z</time>
      </trkpt>
      <trkpt lat="47.8953" lon="-1.75558">
        <ele>31</ele>
        <time>2007-12-24T10:04:19Z</time>
      </trkpt>
      <trkpt lat="47.89532" lon="-1.75557">
        <ele>31</ele>
        <time>2007-12-24T10:04:20Z</time>
      </trkpt>
      <trkpt lat="47.89535" lon="-1.75557">
        <ele>30</ele>
        <time>2007-12-24T10:04:21Z</time>
      </trkpt>
      <trkpt lat="47.89542" lon="-1.75558">
        <ele>30</ele>
        <time>2007-12-24T10:04:24Z</time>
      </trkpt>
      <trkpt lat="47.89548" lon="-1.75567">
        <ele>31</ele>
        <time>2007-12-24T10:04:27Z</time>
      </trkpt>
      <trkpt lat="47.89552" lon="-1.75568">
        <ele>31</ele>
        <time>2007-12-24T10:04:29Z</time>
      </trkpt>
      <trkpt lat="47.89554" lon="-1.75568">
        <ele>31</ele>
        <time>2007-12-24T10:04:30Z</time>
      </trkpt>
      <trkpt lat="47.89558" lon="-1.75567">
        <ele>30</ele>
        <time>2007-12-24T10:04:31Z</time>
      </trkpt>
      <trkpt lat="47.89558" lon="-1.75563">
        <ele>30</ele>
        <time>2007-12-24T10:04:32Z</time>
      </trkpt>
      <trkpt lat="47.89558" lon="-1.75555">
        <ele>29</ele>
        <time>2007-12-24T10:04:35Z</time>
      </trkpt>
      <trkpt lat="47.89558" lon="-1.75548">
        <ele>28</ele>
        <time>2007-12-24T10:04:36Z</time>
      </trkpt>
      <trkpt lat="47.8956" lon="-1.75548">
        <ele>28</ele>
        <time>2007-12-24T10:04:37Z</time>
      </trkpt>
      <trkpt lat="47.8956" lon="-1.75549">
        <ele>28</ele>
        <time>2007-12-24T10:04:37Z</time>
      </trkpt>
      <trkpt lat="47.89558" lon="-1.75547">
        <ele>28</ele>
        <time>2007-12-24T10:04:38Z</time>
      </trkpt>
      <trkpt lat="47.8956" lon="-1.75533">
        <ele>26</ele>
        <time>2007-12-24T10:04:42Z</time>
      </trkpt>
      <trkpt lat="47.89567" lon="-1.75518">
        <ele>28</ele>
        <time>2007-12-24T10:04:47Z</time>
      </trkpt>
      <trkpt lat="47.89567" lon="-1.75512">
        <ele>29</ele>
        <time>2007-12-24T10:04:49Z</time>
      </trkpt>
      <trkpt lat="47.8956" lon="-1.75465">
        <ele>36</ele>
        <time>2007-12-24T10:05:02Z</time>
      </trkpt>
      <trkpt lat="47.8956" lon="-1.75458">
        <ele>37</ele>
        <time>2007-12-24T10:05:03Z</time>
      </trkpt>
      <trkpt lat="47.89563" lon="-1.75444">
        <ele>39</ele>
        <time>2007-12-24T10:05:08Z</time>
      </trkpt>
      <trkpt lat="47.8957" lon="-1.75446">
        <ele>41</ele>
        <time>2007-12-24T10:05:11Z</time>
      </trkpt>
      <trkpt lat="47.89571" lon="-1.75453">
        <ele>41</ele>
        <time>2007-12-24T10:05:12Z</time>
      </trkpt>
      <trkpt lat="47.89573" lon="-1.75457">
        <ele>42</ele>
        <time>2007-12-24T10:05:14Z</time>
      </trkpt>
      <trkpt lat="47.8958" lon="-1.75467">
        <ele>43</ele>
        <time>2007-12-24T10:05:18Z</time>
      </trkpt>
      <trkpt lat="47.89591" lon="-1.75478">
        <ele>43</ele>
        <time>2007-12-24T10:05:23Z</time>
      </trkpt>
      <trkpt lat="47.89603" lon="-1.7549">
        <ele>41</ele>
        <time>2007-12-24T10:05:29Z</time>
      </trkpt>
      <trkpt lat="47.89617" lon="-1.75499">
        <ele>40</ele>
        <time>2007-12-24T10:05:35Z</time>
      </trkpt>
      <trkpt lat="47.89635" lon="-1.75503">
        <ele>41</ele>
        <time>2007-12-24T10:05:42Z</time>
      </trkpt>
      <trkpt lat="47.89645" lon="-1.75505">
        <ele>41</ele>
        <time>2007-12-24T10:05:46Z</time>
      </trkpt>
      <trkpt lat="47.89662" lon="-1.75512">
        <ele>41</ele>
        <time>2007-12-24T10:05:53Z</time>
      </trkpt>
      <trkpt lat="47.89688" lon="-1.75518">
        <ele>42</ele>
        <time>2007-12-24T10:06:04Z</time>
      </trkpt>
      <trkpt lat="47.89717" lon="-1.75526">
        <ele>44</ele>
        <time>2007-12-24T10:06:15Z</time>
      </trkpt>
      <trkpt lat="47.8974" lon="-1.75538">
        <ele>42</ele>
        <time>2007-12-24T10:06:25Z</time>
      </trkpt>
      <trkpt lat="47.89753" lon="-1.75545">
        <ele>42</ele>
        <time>2007-12-24T10:06:31Z</time>
      </trkpt>
      <trkpt lat="47.89761" lon="-1.75549">
        <ele>41</ele>
        <time>2007-12-24T10:06:34Z</time>
      </trkpt>
      <trkpt lat="47.89763" lon="-1.75549">
        <ele>41</ele>
        <time>2007-12-24T10:06:35Z</time>
      </trkpt>
      <trkpt lat="47.89765" lon="-1.75547">
        <ele>42</ele>
        <time>2007-12-24T10:06:36Z</time>
      </trkpt>
      <trkpt lat="47.89767" lon="-1.75547">
        <ele>42</ele>
        <time>2007-12-24T10:06:36Z</time>
      </trkpt>
      <trkpt lat="47.89782" lon="-1.75553">
        <ele>39</ele>
        <time>2007-12-24T10:06:43Z</time>
      </trkpt>
      <trkpt lat="47.89787" lon="-1.75555">
        <ele>39</ele>
        <time>2007-12-24T10:06:45Z</time>
      </trkpt>
      <trkpt lat="47.89796" lon="-1.75548">
        <ele>41</ele>
        <time>2007-12-24T10:06:49Z</time>
      </trkpt>
      <trkpt lat="47.89798" lon="-1.75544">
        <ele>41</ele>
        <time>2007-12-24T10:06:50Z</time>
      </trkpt>
      <trkpt lat="47.89817" lon="-1.75494">
        <ele>43</ele>
        <time>2007-12-24T10:07:06Z</time>
      </trkpt>
      <trkpt lat="47.89822" lon="-1.75479">
        <ele>44</ele>
        <time>2007-12-24T10:07:10Z</time>
      </trkpt>
      <trkpt lat="47.8983" lon="-1.75451">
        <ele>44</ele>
        <time>2007-12-24T10:07:18Z</time>
      </trkpt>
      <trkpt lat="47.89828" lon="-1.75435">
        <ele>45</ele>
        <time>2007-12-24T10:07:23Z</time>
      </trkpt>
      <trkpt lat="47.89827" lon="-1.75427">
        <ele>46</ele>
        <time>2007-12-24T10:07:25Z</time>
      </trkpt>
      <trkpt lat="47.89822" lon="-1.75415">
        <ele>47</ele>
        <time>2007-12-24T10:07:29Z</time>
      </trkpt>
      <trkpt lat="47.89792" lon="-1.75394">
        <ele>51</ele>
        <time>2007-12-24T10:07:42Z</time>
      </trkpt>
      <trkpt lat="47.89788" lon="-1.7539">
        <ele>51</ele>
        <time>2007-12-24T10:07:44Z</time>
      </trkpt>
      <trkpt lat="47.8979" lon="-1.75365">
        <ele>51</ele>
        <time>2007-12-24T10:07:51Z</time>
      </trkpt>
      <trkpt lat="47.89797" lon="-1.75347">
        <ele>51</ele>
        <time>2007-12-24T10:07:56Z</time>
      </trkpt>
      <trkpt lat="47.89797" lon="-1.75335">
        <ele>51</ele>
        <time>2007-12-24T10:07:59Z</time>
      </trkpt>
      <trkpt lat="47.89787" lon="-1.75327">
        <ele>52</ele>
        <time>2007-12-24T10:08:04Z</time>
      </trkpt>
      <trkpt lat="47.89765" lon="-1.75316">
        <ele>54</ele>
        <time>2007-12-24T10:08:13Z</time>
      </trkpt>
      <trkpt lat="47.89739" lon="-1.75292">
        <ele>56</ele>
        <time>2007-12-24T10:08:25Z</time>
      </trkpt>
      <trkpt lat="47.89735" lon="-1.75283">
        <ele>56</ele>
        <time>2007-12-24T10:08:28Z</time>
      </trkpt>
      <trkpt lat="47.89707" lon="-1.75225">
        <ele>60</ele>
        <time>2007-12-24T10:08:48Z</time>
      </trkpt>
      <trkpt lat="47.897" lon="-1.75209">
        <ele>60</ele>
        <time>2007-12-24T10:08:53Z</time>
      </trkpt>
      <trkpt lat="47.89703" lon="-1.75178">
        <ele>61</ele>
        <time>2007-12-24T10:09:01Z</time>
      </trkpt>
      <trkpt lat="47.89713" lon="-1.75156">
        <ele>61</ele>
        <time>2007-12-24T10:09:08Z</time>
      </trkpt>
      <trkpt lat="47.89716" lon="-1.75146">
        <ele>61</ele>
        <time>2007-12-24T10:09:11Z</time>
      </trkpt>
      <trkpt lat="47.89715" lon="-1.75112">
        <ele>61</ele>
        <time>2007-12-24T10:09:20Z</time>
      </trkpt>
      <trkpt lat="47.89707" lon="-1.75074">
        <ele>62</ele>
        <time>2007-12-24T10:09:31Z</time>
      </trkpt>
      <trkpt lat="47.89707" lon="-1.7507">
        <ele>62</ele>
        <time>2007-12-24T10:09:32Z</time>
      </trkpt>
      <trkpt lat="47.89712" lon="-1.75056">
        <ele>62</ele>
        <time>2007-12-24T10:09:36Z</time>
      </trkpt>
      <trkpt lat="47.89722" lon="-1.75053">
        <ele>61</ele>
        <time>2007-12-24T10:09:40Z</time>
      </trkpt>
      <trkpt lat="47.89735" lon="-1.75045">
        <ele>60</ele>
        <time>2007-12-24T10:09:46Z</time>
      </trkpt>
      <trkpt lat="47.89753" lon="-1.7504">
        <ele>58</ele>
        <time>2007-12-24T10:09:54Z</time>
      </trkpt>
      <trkpt lat="47.89765" lon="-1.75028">
        <ele>57</ele>
        <time>2007-12-24T10:09:59Z</time>
      </trkpt>
      <trkpt lat="47.89768" lon="-1.75019">
        <ele>57</ele>
        <time>2007-12-24T10:10:02Z</time>
      </trkpt>
      <trkpt lat="47.89768" lon="-1.75008">
        <ele>57</ele>
        <time>2007-12-24T10:10:05Z</time>
      </trkpt>
      <trkpt lat="47.8977" lon="-1.74968">
        <ele>56</ele>
        <time>2007-12-24T10:10:16Z</time>
      </trkpt>
      <trkpt lat="47.89773" lon="-1.74915">
        <ele>55</ele>
        <time>2007-12-24T10:10:30Z</time>
      </trkpt>
      <trkpt lat="47.89782" lon="-1.74878">
        <ele>53</ele>
        <time>2007-12-24T10:10:41Z</time>
      </trkpt>
      <trkpt lat="47.89793" lon="-1.74835">
        <ele>49</ele>
        <time>2007-12-24T10:10:53Z</time>
      </trkpt>
      <trkpt lat="47.89802" lon="-1.7479">
        <ele>46</ele>
        <time>2007-12-24T10:11:05Z</time>
      </trkpt>
      <trkpt lat="47.89802" lon="-1.74784">
        <ele>45</ele>
        <time>2007-12-24T10:11:07Z</time>
      </trkpt>
      <trkpt lat="47.89805" lon="-1.74739">
        <ele>43</ele>
        <time>2007-12-24T10:11:19Z</time>
      </trkpt>
      <trkpt lat="47.89811" lon="-1.74695">
        <ele>43</ele>
        <time>2007-12-24T10:11:31Z</time>
      </trkpt>
      <trkpt lat="47.89827" lon="-1.74641">
        <ele>44</ele>
        <time>2007-12-24T10:11:47Z</time>
      </trkpt>
      <trkpt lat="47.89838" lon="-1.74586">
        <ele>44</ele>
        <time>2007-12-24T10:12:02Z</time>
      </trkpt>
      <trkpt lat="47.89847" lon="-1.7454">
        <ele>42</ele>
        <time>2007-12-24T10:12:15Z</time>
      </trkpt>
      <trkpt lat="47.89848" lon="-1.7453">
        <ele>42</ele>
        <time>2007-12-24T10:12:18Z</time>
      </trkpt>
      <trkpt lat="47.89835" lon="-1.74515">
        <ele>42</ele>
        <time>2007-12-24T10:12:25Z</time>
      </trkpt>
      <trkpt lat="47.89827" lon="-1.74513">
        <ele>43</ele>
        <time>2007-12-24T10:12:28Z</time>
      </trkpt>
      <trkpt lat="47.89817" lon="-1.74504">
        <ele>44</ele>
        <time>2007-12-24T10:12:33Z</time>
      </trkpt>
      <trkpt lat="47.8982" lon="-1.74478">
        <ele>44</ele>
        <time>2007-12-24T10:12:40Z</time>
      </trkpt>
      <trkpt lat="47.89832" lon="-1.74427">
        <ele>43</ele>
        <time>2007-12-24T10:12:54Z</time>
      </trkpt>
      <trkpt lat="47.89841" lon="-1.74384">
        <ele>42</ele>
        <time>2007-12-24T10:13:07Z</time>
      </trkpt>
      <trkpt lat="47.89848" lon="-1.74368">
        <ele>41</ele>
        <time>2007-12-24T10:13:12Z</time>
      </trkpt>
      <trkpt lat="47.8987" lon="-1.74344">
        <ele>40</ele>
        <time>2007-12-24T10:13:22Z</time>
      </trkpt>
      <trkpt lat="47.89885" lon="-1.74332">
        <ele>38</ele>
        <time>2007-12-24T10:13:29Z</time>
      </trkpt>
      <trkpt lat="47.89918" lon="-1.74318">
        <ele>36</ele>
        <time>2007-12-24T10:13:43Z</time>
      </trkpt>
      <trkpt lat="47.8996" lon="-1.74302">
        <ele>33</ele>
        <time>2007-12-24T10:14:00Z</time>
      </trkpt>
      <trkpt lat="47.90003" lon="-1.74285">
        <ele>30</ele>
        <time>2007-12-24T10:14:18Z</time>
      </trkpt>
      <trkpt lat="47.90042" lon="-1.74269">
        <ele>28</ele>
        <time>2007-12-24T10:14:34Z</time>
      </trkpt>
      <trkpt lat="47.9007" lon="-1.74258">
        <ele>26</ele>
        <time>2007-12-24T10:14:46Z</time>
      </trkpt>
      <trkpt lat="47.90113" lon="-1.74233">
        <ele>25</ele>
        <time>2007-12-24T10:15:04Z</time>
      </trkpt>
      <trkpt lat="47.90157" lon="-1.74197">
        <ele>25</ele>
        <time>2007-12-24T10:15:24Z</time>
      </trkpt>
      <trkpt lat="47.90201" lon="-1.74148">
        <ele>24</ele>
        <time>2007-12-24T10:15:47Z</time>
      </trkpt>
      <trkpt lat="47.90241" lon="-1.74105">
        <ele>22</ele>
        <time>2007-12-24T10:16:06Z</time>
      </trkpt>
      <trkpt lat="47.9028" lon="-1.74063">
        <ele>21</ele>
        <time>2007-12-24T10:16:26Z</time>
      </trkpt>
      <trkpt lat="47.90323" lon="-1.74016">
        <ele>20</ele>
        <time>2007-12-24T10:16:47Z</time>
      </trkpt>
      <trkpt lat="47.90355" lon="-1.73986">
        <ele>18</ele>
        <time>2007-12-24T10:17:02Z</time>
      </trkpt>
      <trkpt lat="47.90385" lon="-1.73968">
        <ele>17</ele>
        <time>2007-12-24T10:17:15Z</time>
      </trkpt>
      <trkpt lat="47.90429" lon="-1.73962">
        <ele>16</ele>
        <time>2007-12-24T10:17:32Z</time>
      </trkpt>
      <trkpt lat="47.90431" lon="-1.73963">
        <ele>16</ele>
        <time>2007-12-24T10:17:34Z</time>
      </trkpt>
      <trkpt lat="47.90443" lon="-1.73964">
        <ele>15</ele>
        <time>2007-12-24T10:17:38Z</time>
      </trkpt>
      <trkpt lat="47.90457" lon="-1.73966">
        <ele>15</ele>
        <time>2007-12-24T10:17:44Z</time>
      </trkpt>
      <trkpt lat="47.90468" lon="-1.73969">
        <ele>15</ele>
        <time>2007-12-24T10:17:49Z</time>
      </trkpt>
      <trkpt lat="47.90474" lon="-1.73969">
        <ele>14</ele>
        <time>2007-12-24T10:17:51Z</time>
      </trkpt>
      <trkpt lat="47.9051" lon="-1.73974">
        <ele>13</ele>
        <time>2007-12-24T10:18:05Z</time>
      </trkpt>
      <trkpt lat="47.90545" lon="-1.73982">
        <ele>12</ele>
        <time>2007-12-24T10:18:19Z</time>
      </trkpt>
      <trkpt lat="47.90549" lon="-1.73983">
        <ele>12</ele>
        <time>2007-12-24T10:18:21Z</time>
      </trkpt>
      <trkpt lat="47.90553" lon="-1.73983">
        <ele>12</ele>
        <time>2007-12-24T10:18:23Z</time>
      </trkpt>
      <trkpt lat="47.90565" lon="-1.73986">
        <ele>12</ele>
        <time>2007-12-24T10:18:27Z</time>
      </trkpt>
      <trkpt lat="47.9057" lon="-1.73986">
        <ele>12</ele>
        <time>2007-12-24T10:18:30Z</time>
      </trkpt>
      <trkpt lat="47.90577" lon="-1.73986">
        <ele>12</ele>
        <time>2007-12-24T10:18:32Z</time>
      </trkpt>
      <trkpt lat="47.90598" lon="-1.7399">
        <ele>13</ele>
        <time>2007-12-24T10:18:41Z</time>
      </trkpt>
      <trkpt lat="47.90617" lon="-1.73995">
        <ele>14</ele>
        <time>2007-12-24T10:18:49Z</time>
      </trkpt>
      <trkpt lat="47.90632" lon="-1.74002">
        <ele>14</ele>
        <time>2007-12-24T10:18:55Z</time>
      </trkpt>
      <trkpt lat="47.90644" lon="-1.74029">
        <ele>14</ele>
        <time>2007-12-24T10:19:03Z</time>
      </trkpt>
      <trkpt lat="47.90646" lon="-1.74035">
        <ele>14</ele>
        <time>2007-12-24T10:19:05Z</time>
      </trkpt>
      <trkpt lat="47.90662" lon="-1.74075">
        <ele>15</ele>
        <time>2007-12-24T10:19:18Z</time>
      </trkpt>
      <trkpt lat="47.9067" lon="-1.74096">
        <ele>15</ele>
        <time>2007-12-24T10:19:24Z</time>
      </trkpt>
      <trkpt lat="47.90684" lon="-1.74145">
        <ele>14</ele>
        <time>2007-12-24T10:19:39Z</time>
      </trkpt>
      <trkpt lat="47.90695" lon="-1.74205">
        <ele>14</ele>
        <time>2007-12-24T10:19:55Z</time>
      </trkpt>
      <trkpt lat="47.90702" lon="-1.74248">
        <ele>14</ele>
        <time>2007-12-24T10:20:07Z</time>
      </trkpt>
      <trkpt lat="47.90705" lon="-1.74296">
        <ele>14</ele>
        <time>2007-12-24T10:20:20Z</time>
      </trkpt>
      <trkpt lat="47.90707" lon="-1.74316">
        <ele>15</ele>
        <time>2007-12-24T10:20:25Z</time>
      </trkpt>
      <trkpt lat="47.90706" lon="-1.74339">
        <ele>15</ele>
        <time>2007-12-24T10:20:32Z</time>
      </trkpt>
      <trkpt lat="47.90708" lon="-1.74359">
        <ele>15</ele>
        <time>2007-12-24T10:20:37Z</time>
      </trkpt>
      <trkpt lat="47.90707" lon="-1.74367">
        <ele>14</ele>
        <time>2007-12-24T10:20:39Z</time>
      </trkpt>
      <trkpt lat="47.90705" lon="-1.74397">
        <ele>13</ele>
        <time>2007-12-24T10:20:47Z</time>
      </trkpt>
      <trkpt lat="47.90706" lon="-1.74418">
        <ele>13</ele>
        <time>2007-12-24T10:20:53Z</time>
      </trkpt>
      <trkpt lat="47.90712" lon="-1.74483">
        <ele>12</ele>
        <time>2007-12-24T10:21:11Z</time>
      </trkpt>
      <trkpt lat="47.90714" lon="-1.7451">
        <ele>12</ele>
        <time>2007-12-24T10:21:18Z</time>
      </trkpt>
      <trkpt lat="47.90715" lon="-1.74549">
        <ele>11</ele>
        <time>2007-12-24T10:21:28Z</time>
      </trkpt>
      <trkpt lat="47.90717" lon="-1.74562">
        <ele>11</ele>
        <time>2007-12-24T10:21:32Z</time>
      </trkpt>
      <trkpt lat="47.9072" lon="-1.74585">
        <ele>12</ele>
        <time>2007-12-24T10:21:38Z</time>
      </trkpt>
      <trkpt lat="47.90722" lon="-1.74604">
        <ele>12</ele>
        <time>2007-12-24T10:21:43Z</time>
      </trkpt>
      <trkpt lat="47.90733" lon="-1.74631">
        <ele>14</ele>
        <time>2007-12-24T10:21:52Z</time>
      </trkpt>
      <trkpt lat="47.90738" lon="-1.74641">
        <ele>15</ele>
        <time>2007-12-24T10:21:55Z</time>
      </trkpt>
      <trkpt lat="47.90742" lon="-1.74643">
        <ele>15</ele>
        <time>2007-12-24T10:21:57Z</time>
      </trkpt>
      <trkpt lat="47.90749" lon="-1.74658">
        <ele>16</ele>
        <time>2007-12-24T10:22:02Z</time>
      </trkpt>
      <trkpt lat="47.9075" lon="-1.74675">
        <ele>17</ele>
        <time>2007-12-24T10:22:06Z</time>
      </trkpt>
      <trkpt lat="47.90733" lon="-1.74732">
        <ele>18</ele>
        <time>2007-12-24T10:22:23Z</time>
      </trkpt>
      <trkpt lat="47.9071" lon="-1.74815">
        <ele>18</ele>
        <time>2007-12-24T10:22:47Z</time>
      </trkpt>
      <trkpt lat="47.90683" lon="-1.74875">
        <ele>19</ele>
        <time>2007-12-24T10:23:06Z</time>
      </trkpt>
      <trkpt lat="47.90673" lon="-1.74917">
        <ele>19</ele>
        <time>2007-12-24T10:23:18Z</time>
      </trkpt>
      <trkpt lat="47.90669" lon="-1.7501">
        <ele>20</ele>
        <time>2007-12-24T10:23:43Z</time>
      </trkpt>
      <trkpt lat="47.90662" lon="-1.75047">
        <ele>22</ele>
        <time>2007-12-24T10:23:53Z</time>
      </trkpt>
      <trkpt lat="47.90647" lon="-1.75087">
        <ele>23</ele>
        <time>2007-12-24T10:24:06Z</time>
      </trkpt>
      <trkpt lat="47.90628" lon="-1.7515">
        <ele>24</ele>
        <time>2007-12-24T10:24:25Z</time>
      </trkpt>
      <trkpt lat="47.90613" lon="-1.75194">
        <ele>24</ele>
        <time>2007-12-24T10:24:38Z</time>
      </trkpt>
      <trkpt lat="47.90607" lon="-1.7521">
        <ele>24</ele>
        <time>2007-12-24T10:24:43Z</time>
      </trkpt>
      <trkpt lat="47.90597" lon="-1.75237">
        <ele>23</ele>
        <time>2007-12-24T10:24:51Z</time>
      </trkpt>
      <trkpt lat="47.90578" lon="-1.75287">
        <ele>21</ele>
        <time>2007-12-24T10:25:06Z</time>
      </trkpt>
      <trkpt lat="47.90567" lon="-1.75317">
        <ele>20</ele>
        <time>2007-12-24T10:25:15Z</time>
      </trkpt>
      <trkpt lat="47.90565" lon="-1.75335">
        <ele>19</ele>
        <time>2007-12-24T10:25:20Z</time>
      </trkpt>
      <trkpt lat="47.90583" lon="-1.75343">
        <ele>19</ele>
        <time>2007-12-24T10:25:28Z</time>
      </trkpt>
      <trkpt lat="47.9062" lon="-1.75342">
        <ele>21</ele>
        <time>2007-12-24T10:25:43Z</time>
      </trkpt>
      <trkpt lat="47.90652" lon="-1.75345">
        <ele>24</ele>
        <time>2007-12-24T10:25:55Z</time>
      </trkpt>
      <trkpt lat="47.9069" lon="-1.75348">
        <ele>26</ele>
        <time>2007-12-24T10:26:11Z</time>
      </trkpt>
      <trkpt lat="47.90705" lon="-1.75348">
        <ele>26</ele>
        <time>2007-12-24T10:26:17Z</time>
      </trkpt>
      <trkpt lat="47.90714" lon="-1.75348">
        <ele>27</ele>
        <time>2007-12-24T10:26:20Z</time>
      </trkpt>
      <trkpt lat="47.90728" lon="-1.7535">
        <ele>28</ele>
        <time>2007-12-24T10:26:26Z</time>
      </trkpt>
      <trkpt lat="47.90757" lon="-1.75353">
        <ele>30</ele>
        <time>2007-12-24T10:26:38Z</time>
      </trkpt>
      <trkpt lat="47.90795" lon="-1.75357">
        <ele>32</ele>
        <time>2007-12-24T10:26:53Z</time>
      </trkpt>
      <trkpt lat="47.90837" lon="-1.75358">
        <ele>34</ele>
        <time>2007-12-24T10:27:10Z</time>
      </trkpt>
      <trkpt lat="47.90842" lon="-1.75359">
        <ele>35</ele>
        <time>2007-12-24T10:27:12Z</time>
      </trkpt>
      <trkpt lat="47.90845" lon="-1.75377">
        <ele>35</ele>
        <time>2007-12-24T10:27:16Z</time>
      </trkpt>
      <trkpt lat="47.90842" lon="-1.7538">
        <ele>35</ele>
        <time>2007-12-24T10:27:18Z</time>
      </trkpt>
      <trkpt lat="47.90823" lon="-1.75412">
        <ele>35</ele>
        <time>2007-12-24T10:27:30Z</time>
      </trkpt>
      <trkpt lat="47.90812" lon="-1.75454">
        <ele>35</ele>
        <time>2007-12-24T10:27:42Z</time>
      </trkpt>
      <trkpt lat="47.90795" lon="-1.75513">
        <ele>35</ele>
        <time>2007-12-24T10:27:59Z</time>
      </trkpt>
      <trkpt lat="47.90776" lon="-1.75563">
        <ele>34</ele>
        <time>2007-12-24T10:28:14Z</time>
      </trkpt>
      <trkpt lat="47.90775" lon="-1.75568">
        <ele>34</ele>
        <time>2007-12-24T10:28:16Z</time>
      </trkpt>
      <trkpt lat="47.90769" lon="-1.75591">
        <ele>34</ele>
        <time>2007-12-24T10:28:22Z</time>
      </trkpt>
      <trkpt lat="47.90752" lon="-1.75648">
        <ele>32</ele>
        <time>2007-12-24T10:28:39Z</time>
      </trkpt>
      <trkpt lat="47.90745" lon="-1.75696">
        <ele>32</ele>
        <time>2007-12-24T10:28:52Z</time>
      </trkpt>
      <trkpt lat="47.90747" lon="-1.75726">
        <ele>32</ele>
        <time>2007-12-24T10:29:00Z</time>
      </trkpt>
      <trkpt lat="47.90747" lon="-1.75734">
        <ele>32</ele>
        <time>2007-12-24T10:29:02Z</time>
      </trkpt>
      <trkpt lat="47.90747" lon="-1.75748">
        <ele>32</ele>
        <time>2007-12-24T10:29:06Z</time>
      </trkpt>
      <trkpt lat="47.90752" lon="-1.75778">
        <ele>32</ele>
        <time>2007-12-24T10:29:14Z</time>
      </trkpt>
      <trkpt lat="47.9076" lon="-1.75818">
        <ele>32</ele>
        <time>2007-12-24T10:29:26Z</time>
      </trkpt>
      <trkpt lat="47.90767" lon="-1.75847">
        <ele>32</ele>
        <time>2007-12-24T10:29:34Z</time>
      </trkpt>
      <trkpt lat="47.9077" lon="-1.75872">
        <ele>31</ele>
        <time>2007-12-24T10:29:41Z</time>
      </trkpt>
      <trkpt lat="47.90768" lon="-1.75888">
        <ele>30</ele>
        <time>2007-12-24T10:29:45Z</time>
      </trkpt>
      <trkpt lat="47.90768" lon="-1.75907">
        <ele>28</ele>
        <time>2007-12-24T10:29:50Z</time>
      </trkpt>
      <trkpt lat="47.90774" lon="-1.75969">
        <ele>25</ele>
        <time>2007-12-24T10:30:07Z</time>
      </trkpt>
      <trkpt lat="47.9078" lon="-1.75994">
        <ele>24</ele>
        <time>2007-12-24T10:30:14Z</time>
      </trkpt>
      <trkpt lat="47.90787" lon="-1.76023">
        <ele>22</ele>
        <time>2007-12-24T10:30:22Z</time>
      </trkpt>
      <trkpt lat="47.908" lon="-1.76054">
        <ele>22</ele>
        <time>2007-12-24T10:30:32Z</time>
      </trkpt>
      <trkpt lat="47.90828" lon="-1.76086">
        <ele>22</ele>
        <time>2007-12-24T10:30:46Z</time>
      </trkpt>
      <trkpt lat="47.90833" lon="-1.76092">
        <ele>22</ele>
        <time>2007-12-24T10:30:49Z</time>
      </trkpt>
      <trkpt lat="47.9085" lon="-1.7611">
        <ele>23</ele>
        <time>2007-12-24T10:30:57Z</time>
      </trkpt>
      <trkpt lat="47.90868" lon="-1.76126">
        <ele>23</ele>
        <time>2007-12-24T10:31:06Z</time>
      </trkpt>
      <trkpt lat="47.90888" lon="-1.76139">
        <ele>24</ele>
        <time>2007-12-24T10:31:14Z</time>
      </trkpt>
      <trkpt lat="47.90919" lon="-1.76157">
        <ele>26</ele>
        <time>2007-12-24T10:31:28Z</time>
      </trkpt>
      <trkpt lat="47.90951" lon="-1.7618">
        <ele>28</ele>
        <time>2007-12-24T10:31:42Z</time>
      </trkpt>
      <trkpt lat="47.9099" lon="-1.7619">
        <ele>30</ele>
        <time>2007-12-24T10:31:58Z</time>
      </trkpt>
      <trkpt lat="47.91028" lon="-1.76217">
        <ele>31</ele>
        <time>2007-12-24T10:32:15Z</time>
      </trkpt>
      <trkpt lat="47.91072" lon="-1.7626">
        <ele>31</ele>
        <time>2007-12-24T10:32:36Z</time>
      </trkpt>
      <trkpt lat="47.91106" lon="-1.76294">
        <ele>31</ele>
        <time>2007-12-24T10:32:52Z</time>
      </trkpt>
      <trkpt lat="47.91134" lon="-1.76313">
        <ele>31</ele>
        <time>2007-12-24T10:33:04Z</time>
      </trkpt>
      <trkpt lat="47.91172" lon="-1.76328">
        <ele>31</ele>
        <time>2007-12-24T10:33:20Z</time>
      </trkpt>
      <trkpt lat="47.91189" lon="-1.76332">
        <ele>31</ele>
        <time>2007-12-24T10:33:27Z</time>
      </trkpt>
      <trkpt lat="47.91209" lon="-1.76333">
        <ele>31</ele>
        <time>2007-12-24T10:33:35Z</time>
      </trkpt>
      <trkpt lat="47.9123" lon="-1.76338">
        <ele>32</ele>
        <time>2007-12-24T10:33:44Z</time>
      </trkpt>
      <trkpt lat="47.91258" lon="-1.76344">
        <ele>32</ele>
        <time>2007-12-24T10:33:55Z</time>
      </trkpt>
      <trkpt lat="47.91262" lon="-1.76344">
        <ele>32</ele>
        <time>2007-12-24T10:33:56Z</time>
      </trkpt>
      <trkpt lat="47.91267" lon="-1.76344">
        <ele>32</ele>
        <time>2007-12-24T10:33:59Z</time>
      </trkpt>
      <trkpt lat="47.91265" lon="-1.76345">
        <ele>32</ele>
        <time>2007-12-24T10:33:59Z</time>
      </trkpt>
      <trkpt lat="47.91264" lon="-1.76346">
        <ele>32</ele>
        <time>2007-12-24T10:34:00Z</time>
      </trkpt>
      <trkpt lat="47.91264" lon="-1.76345">
        <ele>32</ele>
        <time>2007-12-24T10:34:00Z</time>
      </trkpt>
      <trkpt lat="47.91269" lon="-1.76326">
        <ele>33</ele>
        <time>2007-12-24T10:34:06Z</time>
      </trkpt>
      <trkpt lat="47.91276" lon="-1.76289">
        <ele>34</ele>
        <time>2007-12-24T10:34:17Z</time>
      </trkpt>
      <trkpt lat="47.91282" lon="-1.76279">
        <ele>34</ele>
        <time>2007-12-24T10:34:20Z</time>
      </trkpt>
      <trkpt lat="47.91299" lon="-1.76252">
        <ele>34</ele>
        <time>2007-12-24T10:34:30Z</time>
      </trkpt>
      <trkpt lat="47.91312" lon="-1.76245">
        <ele>35</ele>
        <time>2007-12-24T10:34:35Z</time>
      </trkpt>
      <trkpt lat="47.91314" lon="-1.76249">
        <ele>35</ele>
        <time>2007-12-24T10:34:37Z</time>
      </trkpt>
      <trkpt lat="47.91334" lon="-1.7626">
        <ele>34</ele>
        <time>2007-12-24T10:34:45Z</time>
      </trkpt>
      <trkpt lat="47.91352" lon="-1.76277">
        <ele>34</ele>
        <time>2007-12-24T10:34:54Z</time>
      </trkpt>
      <trkpt lat="47.91372" lon="-1.7629">
        <ele>33</ele>
        <time>2007-12-24T10:35:03Z</time>
      </trkpt>
      <trkpt lat="47.91392" lon="-1.76288">
        <ele>32</ele>
        <time>2007-12-24T10:35:10Z</time>
      </trkpt>
      <trkpt lat="47.9141" lon="-1.76287">
        <ele>31</ele>
        <time>2007-12-24T10:35:18Z</time>
      </trkpt>
      <trkpt lat="47.91423" lon="-1.76284">
        <ele>30</ele>
        <time>2007-12-24T10:35:23Z</time>
      </trkpt>
      <trkpt lat="47.9144" lon="-1.76282">
        <ele>28</ele>
        <time>2007-12-24T10:35:30Z</time>
      </trkpt>
      <trkpt lat="47.9145" lon="-1.7628">
        <ele>27</ele>
        <time>2007-12-24T10:35:34Z</time>
      </trkpt>
      <trkpt lat="47.91468" lon="-1.76279">
        <ele>25</ele>
        <time>2007-12-24T10:35:41Z</time>
      </trkpt>
      <trkpt lat="47.9147" lon="-1.76279">
        <ele>24</ele>
        <time>2007-12-24T10:35:42Z</time>
      </trkpt>
      <trkpt lat="47.91479" lon="-1.76277">
        <ele>23</ele>
        <time>2007-12-24T10:35:46Z</time>
      </trkpt>
      <trkpt lat="47.91483" lon="-1.76276">
        <ele>23</ele>
        <time>2007-12-24T10:35:47Z</time>
      </trkpt>
      <trkpt lat="47.91493" lon="-1.76275">
        <ele>21</ele>
        <time>2007-12-24T10:35:51Z</time>
      </trkpt>
      <trkpt lat="47.91513" lon="-1.76275">
        <ele>20</ele>
        <time>2007-12-24T10:35:59Z</time>
      </trkpt>
      <trkpt lat="47.91547" lon="-1.76269">
        <ele>18</ele>
        <time>2007-12-24T10:36:13Z</time>
      </trkpt>
      <trkpt lat="47.91565" lon="-1.76262">
        <ele>17</ele>
        <time>2007-12-24T10:36:20Z</time>
      </trkpt>
      <trkpt lat="47.91588" lon="-1.76253">
        <ele>17</ele>
        <time>2007-12-24T10:36:30Z</time>
      </trkpt>
      <trkpt lat="47.91627" lon="-1.7624">
        <ele>16</ele>
        <time>2007-12-24T10:36:46Z</time>
      </trkpt>
      <trkpt lat="47.91654" lon="-1.76231">
        <ele>16</ele>
        <time>2007-12-24T10:36:57Z</time>
      </trkpt>
      <trkpt lat="47.91695" lon="-1.76222">
        <ele>16</ele>
        <time>2007-12-24T10:37:14Z</time>
      </trkpt>
      <trkpt lat="47.9173" lon="-1.76199">
        <ele>16</ele>
        <time>2007-12-24T10:37:29Z</time>
      </trkpt>
      <trkpt lat="47.91755" lon="-1.76182">
        <ele>17</ele>
        <time>2007-12-24T10:37:40Z</time>
      </trkpt>
      <trkpt lat="47.91787" lon="-1.76165">
        <ele>17</ele>
        <time>2007-12-24T10:37:54Z</time>
      </trkpt>
      <trkpt lat="47.91822" lon="-1.76148">
        <ele>17</ele>
        <time>2007-12-24T10:38:08Z</time>
      </trkpt>
      <trkpt lat="47.91842" lon="-1.76139">
        <ele>17</ele>
        <time>2007-12-24T10:38:17Z</time>
      </trkpt>
      <trkpt lat="47.91872" lon="-1.76128">
        <ele>17</ele>
        <time>2007-12-24T10:38:29Z</time>
      </trkpt>
      <trkpt lat="47.91902" lon="-1.76122">
        <ele>17</ele>
        <time>2007-12-24T10:38:41Z</time>
      </trkpt>
      <trkpt lat="47.9193" lon="-1.7611">
        <ele>17</ele>
        <time>2007-12-24T10:38:53Z</time>
      </trkpt>
      <trkpt lat="47.91938" lon="-1.76108">
        <ele>17</ele>
        <time>2007-12-24T10:38:56Z</time>
      </trkpt>
      <trkpt lat="47.91942" lon="-1.76107">
        <ele>17</ele>
        <time>2007-12-24T10:38:58Z</time>
      </trkpt>
      <trkpt lat="47.91947" lon="-1.76105">
        <ele>17</ele>
        <time>2007-12-24T10:39:00Z</time>
      </trkpt>
      <trkpt lat="47.9195" lon="-1.76101">
        <ele>18</ele>
        <time>2007-12-24T10:39:01Z</time>
      </trkpt>
      <trkpt lat="47.91955" lon="-1.7608">
        <ele>19</ele>
        <time>2007-12-24T10:39:08Z</time>
      </trkpt>
      <trkpt lat="47.91957" lon="-1.76072">
        <ele>19</ele>
        <time>2007-12-24T10:39:10Z</time>
      </trkpt>
      <trkpt lat="47.91957" lon="-1.76063">
        <ele>19</ele>
        <time>2007-12-24T10:39:12Z</time>
      </trkpt>
      <trkpt lat="47.91956" lon="-1.76017">
        <ele>21</ele>
        <time>2007-12-24T10:39:24Z</time>
      </trkpt>
      <trkpt lat="47.9196" lon="-1.75976">
        <ele>22</ele>
        <time>2007-12-24T10:39:35Z</time>
      </trkpt>
      <trkpt lat="47.91962" lon="-1.75947">
        <ele>23</ele>
        <time>2007-12-24T10:39:43Z</time>
      </trkpt>
      <trkpt lat="47.91965" lon="-1.75936">
        <ele>24</ele>
        <time>2007-12-24T10:39:47Z</time>
      </trkpt>
      <trkpt lat="47.91972" lon="-1.75925">
        <ele>24</ele>
        <time>2007-12-24T10:39:50Z</time>
      </trkpt>
      <trkpt lat="47.91985" lon="-1.7592">
        <ele>23</ele>
        <time>2007-12-24T10:39:56Z</time>
      </trkpt>
      <trkpt lat="47.92007" lon="-1.75908">
        <ele>22</ele>
        <time>2007-12-24T10:40:05Z</time>
      </trkpt>
      <trkpt lat="47.92028" lon="-1.75898">
        <ele>21</ele>
        <time>2007-12-24T10:40:14Z</time>
      </trkpt>
      <trkpt lat="47.92057" lon="-1.75878">
        <ele>19</ele>
        <time>2007-12-24T10:40:27Z</time>
      </trkpt>
      <trkpt lat="47.9208" lon="-1.75864">
        <ele>17</ele>
        <time>2007-12-24T10:40:37Z</time>
      </trkpt>
      <trkpt lat="47.92103" lon="-1.75851">
        <ele>15</ele>
        <time>2007-12-24T10:40:47Z</time>
      </trkpt>
      <trkpt lat="47.92122" lon="-1.75845">
        <ele>14</ele>
        <time>2007-12-24T10:40:54Z</time>
      </trkpt>
      <trkpt lat="47.92132" lon="-1.75841">
        <ele>14</ele>
        <time>2007-12-24T10:40:59Z</time>
      </trkpt>
      <trkpt lat="47.92149" lon="-1.75837">
        <ele>13</ele>
        <time>2007-12-24T10:41:05Z</time>
      </trkpt>
      <trkpt lat="47.92159" lon="-1.75834">
        <ele>12</ele>
        <time>2007-12-24T10:41:09Z</time>
      </trkpt>
      <trkpt lat="47.92168" lon="-1.75827">
        <ele>12</ele>
        <time>2007-12-24T10:41:14Z</time>
      </trkpt>
      <trkpt lat="47.92172" lon="-1.75828">
        <ele>12</ele>
        <time>2007-12-24T10:41:15Z</time>
      </trkpt>
      <trkpt lat="47.92173" lon="-1.75828">
        <ele>12</ele>
        <time>2007-12-24T10:41:16Z</time>
      </trkpt>
      <trkpt lat="47.92175" lon="-1.75828">
        <ele>12</ele>
        <time>2007-12-24T10:41:16Z</time>
      </trkpt>
      <trkpt lat="47.92177" lon="-1.75828">
        <ele>12</ele>
        <time>2007-12-24T10:41:17Z</time>
      </trkpt>
      <trkpt lat="47.92178" lon="-1.75827">
        <ele>12</ele>
        <time>2007-12-24T10:41:18Z</time>
      </trkpt>
      <trkpt lat="47.92178" lon="-1.75825">
        <ele>12</ele>
        <time>2007-12-24T10:41:18Z</time>
      </trkpt>
      <trkpt lat="47.92178" lon="-1.75824">
        <ele>12</ele>
        <time>2007-12-24T10:41:19Z</time>
      </trkpt>
      <trkpt lat="47.9218" lon="-1.75817">
        <ele>12</ele>
        <time>2007-12-24T10:41:21Z</time>
      </trkpt>
      <trkpt lat="47.92182" lon="-1.75788">
        <ele>12</ele>
        <time>2007-12-24T10:41:28Z</time>
      </trkpt>
      <trkpt lat="47.92182" lon="-1.75756">
        <ele>12</ele>
        <time>2007-12-24T10:41:37Z</time>
      </trkpt>
      <trkpt lat="47.92182" lon="-1.75723">
        <ele>13</ele>
        <time>2007-12-24T10:41:46Z</time>
      </trkpt>
      <trkpt lat="47.9218" lon="-1.75705">
        <ele>14</ele>
        <time>2007-12-24T10:41:51Z</time>
      </trkpt>
      <trkpt lat="47.92162" lon="-1.75707">
        <ele>18</ele>
        <time>2007-12-24T10:41:58Z</time>
      </trkpt>
      <trkpt lat="47.92148" lon="-1.7571">
        <ele>21</ele>
        <time>2007-12-24T10:42:03Z</time>
      </trkpt>
      <trkpt lat="47.92135" lon="-1.75711">
        <ele>24</ele>
        <time>2007-12-24T10:42:09Z</time>
      </trkpt>
      <trkpt lat="47.9213" lon="-1.75715">
        <ele>25</ele>
        <time>2007-12-24T10:42:11Z</time>
      </trkpt>
      <trkpt lat="47.92119" lon="-1.7572">
        <ele>27</ele>
        <time>2007-12-24T10:42:16Z</time>
      </trkpt>
      <trkpt lat="47.92113" lon="-1.75718">
        <ele>29</ele>
        <time>2007-12-24T10:42:18Z</time>
      </trkpt>
      <trkpt lat="47.9211" lon="-1.7572">
        <ele>29</ele>
        <time>2007-12-24T10:42:19Z</time>
      </trkpt>
      <trkpt lat="47.92098" lon="-1.7572">
        <ele>32</ele>
        <time>2007-12-24T10:42:24Z</time>
      </trkpt>
      <trkpt lat="47.92088" lon="-1.75719">
        <ele>34</ele>
        <time>2007-12-24T10:42:28Z</time>
      </trkpt>
      <trkpt lat="47.92085" lon="-1.75718">
        <ele>34</ele>
        <time>2007-12-24T10:42:29Z</time>
      </trkpt>
      <trkpt lat="47.92082" lon="-1.75718">
        <ele>35</ele>
        <time>2007-12-24T10:42:31Z</time>
      </trkpt>
      <trkpt lat="47.92078" lon="-1.75721">
        <ele>35</ele>
        <time>2007-12-24T10:42:32Z</time>
      </trkpt>
      <trkpt lat="47.92067" lon="-1.75717">
        <ele>37</ele>
        <time>2007-12-24T10:42:37Z</time>
      </trkpt>
      <trkpt lat="47.92065" lon="-1.75713">
        <ele>38</ele>
        <time>2007-12-24T10:42:38Z</time>
      </trkpt>
      <trkpt lat="47.92062" lon="-1.757">
        <ele>42</ele>
        <time>2007-12-24T10:42:42Z</time>
      </trkpt>
      <trkpt lat="47.92065" lon="-1.75685">
        <ele>44</ele>
        <time>2007-12-24T10:42:46Z</time>
      </trkpt>
      <trkpt lat="47.9207" lon="-1.75674">
        <ele>45</ele>
        <time>2007-12-24T10:42:50Z</time>
      </trkpt>
      <trkpt lat="47.92073" lon="-1.75658">
        <ele>47</ele>
        <time>2007-12-24T10:42:54Z</time>
      </trkpt>
      <trkpt lat="47.92077" lon="-1.75648">
        <ele>47</ele>
        <time>2007-12-24T10:42:57Z</time>
      </trkpt>
      <trkpt lat="47.92084" lon="-1.75625">
        <ele>45</ele>
        <time>2007-12-24T10:43:04Z</time>
      </trkpt>
      <trkpt lat="47.9209" lon="-1.75598">
        <ele>44</ele>
        <time>2007-12-24T10:43:12Z</time>
      </trkpt>
      <trkpt lat="47.9209" lon="-1.75581">
        <ele>43</ele>
        <time>2007-12-24T10:43:16Z</time>
      </trkpt>
      <trkpt lat="47.92082" lon="-1.75564">
        <ele>44</ele>
        <time>2007-12-24T10:43:22Z</time>
      </trkpt>
      <trkpt lat="47.92078" lon="-1.75553">
        <ele>44</ele>
        <time>2007-12-24T10:43:25Z</time>
      </trkpt>
      <trkpt lat="47.92075" lon="-1.75544">
        <ele>44</ele>
        <time>2007-12-24T10:43:28Z</time>
      </trkpt>
      <trkpt lat="47.92067" lon="-1.75525">
        <ele>46</ele>
        <time>2007-12-24T10:43:34Z</time>
      </trkpt>
      <trkpt lat="47.92067" lon="-1.75519">
        <ele>46</ele>
        <time>2007-12-24T10:43:36Z</time>
      </trkpt>
      <trkpt lat="47.92065" lon="-1.75512">
        <ele>45</ele>
        <time>2007-12-24T10:43:38Z</time>
      </trkpt>
      <trkpt lat="47.92061" lon="-1.75499">
        <ele>44</ele>
        <time>2007-12-24T10:43:42Z</time>
      </trkpt>
      <trkpt lat="47.92057" lon="-1.75483">
        <ele>43</ele>
        <time>2007-12-24T10:43:46Z</time>
      </trkpt>
      <trkpt lat="47.92057" lon="-1.75481">
        <ele>42</ele>
        <time>2007-12-24T10:43:47Z</time>
      </trkpt>
      <trkpt lat="47.92052" lon="-1.75462">
        <ele>41</ele>
        <time>2007-12-24T10:43:52Z</time>
      </trkpt>
      <trkpt lat="47.9205" lon="-1.75447">
        <ele>39</ele>
        <time>2007-12-24T10:43:56Z</time>
      </trkpt>
      <trkpt lat="47.92046" lon="-1.7543">
        <ele>37</ele>
        <time>2007-12-24T10:44:01Z</time>
      </trkpt>
      <trkpt lat="47.92045" lon="-1.75423">
        <ele>37</ele>
        <time>2007-12-24T10:44:03Z</time>
      </trkpt>
      <trkpt lat="47.92042" lon="-1.75412">
        <ele>36</ele>
        <time>2007-12-24T10:44:06Z</time>
      </trkpt>
      <trkpt lat="47.92039" lon="-1.75392">
        <ele>34</ele>
        <time>2007-12-24T10:44:12Z</time>
      </trkpt>
      <trkpt lat="47.92039" lon="-1.75374">
        <ele>33</ele>
        <time>2007-12-24T10:44:17Z</time>
      </trkpt>
      <trkpt lat="47.92038" lon="-1.75356">
        <ele>32</ele>
        <time>2007-12-24T10:44:21Z</time>
      </trkpt>
      <trkpt lat="47.92035" lon="-1.75348">
        <ele>33</ele>
        <time>2007-12-24T10:44:24Z</time>
      </trkpt>
      <trkpt lat="47.92035" lon="-1.75347">
        <ele>33</ele>
        <time>2007-12-24T10:44:24Z</time>
      </trkpt>
      <trkpt lat="47.92035" lon="-1.75346">
        <ele>32</ele>
        <time>2007-12-24T10:44:25Z</time>
      </trkpt>
      <trkpt lat="47.92035" lon="-1.75343">
        <ele>32</ele>
        <time>2007-12-24T10:44:25Z</time>
      </trkpt>
      <trkpt lat="47.92035" lon="-1.75341">
        <ele>32</ele>
        <time>2007-12-24T10:44:26Z</time>
      </trkpt>
      <trkpt lat="47.92036" lon="-1.75339">
        <ele>31</ele>
        <time>2007-12-24T10:44:27Z</time>
      </trkpt>
      <trkpt lat="47.92037" lon="-1.75333">
        <ele>31</ele>
        <time>2007-12-24T10:44:28Z</time>
      </trkpt>
      <trkpt lat="47.92035" lon="-1.75327">
        <ele>31</ele>
        <time>2007-12-24T10:44:30Z</time>
      </trkpt>
      <trkpt lat="47.92035" lon="-1.75325">
        <ele>31</ele>
        <time>2007-12-24T10:44:30Z</time>
      </trkpt>
      <trkpt lat="47.92037" lon="-1.75323">
        <ele>30</ele>
        <time>2007-12-24T10:44:31Z</time>
      </trkpt>
      <trkpt lat="47.92035" lon="-1.7532">
        <ele>31</ele>
        <time>2007-12-24T10:44:32Z</time>
      </trkpt>
      <trkpt lat="47.92035" lon="-1.75319">
        <ele>30</ele>
        <time>2007-12-24T10:44:33Z</time>
      </trkpt>
      <trkpt lat="47.92033" lon="-1.75315">
        <ele>31</ele>
        <time>2007-12-24T10:44:34Z</time>
      </trkpt>
      <trkpt lat="47.92033" lon="-1.75309">
        <ele>31</ele>
        <time>2007-12-24T10:44:36Z</time>
      </trkpt>
      <trkpt lat="47.92033" lon="-1.75308">
        <ele>31</ele>
        <time>2007-12-24T10:44:36Z</time>
      </trkpt>
      <trkpt lat="47.92033" lon="-1.75307">
        <ele>31</ele>
        <time>2007-12-24T10:44:36Z</time>
      </trkpt>
      <trkpt lat="47.92033" lon="-1.75305">
        <ele>31</ele>
        <time>2007-12-24T10:44:37Z</time>
      </trkpt>
      <trkpt lat="47.92033" lon="-1.75301">
        <ele>31</ele>
        <time>2007-12-24T10:44:38Z</time>
      </trkpt>
      <trkpt lat="47.92031" lon="-1.75301">
        <ele>32</ele>
        <time>2007-12-24T10:44:38Z</time>
      </trkpt>
      <trkpt lat="47.92031" lon="-1.75299">
        <ele>32</ele>
        <time>2007-12-24T10:44:39Z</time>
      </trkpt>
      <trkpt lat="47.92033" lon="-1.75293">
        <ele>31</ele>
        <time>2007-12-24T10:44:41Z</time>
      </trkpt>
      <trkpt lat="47.92031" lon="-1.75293">
        <ele>31</ele>
        <time>2007-12-24T10:44:41Z</time>
      </trkpt>
      <trkpt lat="47.92031" lon="-1.75292">
        <ele>31</ele>
        <time>2007-12-24T10:44:42Z</time>
      </trkpt>
      <trkpt lat="47.92031" lon="-1.75291">
        <ele>31</ele>
        <time>2007-12-24T10:44:42Z</time>
      </trkpt>
      <trkpt lat="47.92033" lon="-1.75288">
        <ele>31</ele>
        <time>2007-12-24T10:44:43Z</time>
      </trkpt>
      <trkpt lat="47.92033" lon="-1.75287">
        <ele>31</ele>
        <time>2007-12-24T10:44:44Z</time>
      </trkpt>
      <trkpt lat="47.92033" lon="-1.75285">
        <ele>31</ele>
        <time>2007-12-24T10:44:44Z</time>
      </trkpt>
      <trkpt lat="47.92033" lon="-1.75284">
        <ele>30</ele>
        <time>2007-12-24T10:44:44Z</time>
      </trkpt>
      <trkpt lat="47.92032" lon="-1.75281">
        <ele>31</ele>
        <time>2007-12-24T10:44:45Z</time>
      </trkpt>
      <trkpt lat="47.92032" lon="-1.7528">
        <ele>31</ele>
        <time>2007-12-24T10:44:45Z</time>
      </trkpt>
      <trkpt lat="47.9203" lon="-1.75273">
        <ele>31</ele>
        <time>2007-12-24T10:44:47Z</time>
      </trkpt>
      <trkpt lat="47.9203" lon="-1.75272">
        <ele>31</ele>
        <time>2007-12-24T10:44:48Z</time>
      </trkpt>
      <trkpt lat="47.92032" lon="-1.75272">
        <ele>31</ele>
        <time>2007-12-24T10:44:48Z</time>
      </trkpt>
      <trkpt lat="47.92032" lon="-1.75271">
        <ele>31</ele>
        <time>2007-12-24T10:44:49Z</time>
      </trkpt>
      <trkpt lat="47.92032" lon="-1.75264">
        <ele>30</ele>
        <time>2007-12-24T10:44:51Z</time>
      </trkpt>
      <trkpt lat="47.92034" lon="-1.75245">
        <ele>29</ele>
        <time>2007-12-24T10:44:56Z</time>
      </trkpt>
      <trkpt lat="47.92031" lon="-1.75214">
        <ele>31</ele>
        <time>2007-12-24T10:45:04Z</time>
      </trkpt>
      <trkpt lat="47.92031" lon="-1.75212">
        <ele>31</ele>
        <time>2007-12-24T10:45:05Z</time>
      </trkpt>
      <trkpt lat="47.92036" lon="-1.75186">
        <ele>29</ele>
        <time>2007-12-24T10:45:12Z</time>
      </trkpt>
      <trkpt lat="47.92037" lon="-1.7517">
        <ele>28</ele>
        <time>2007-12-24T10:45:16Z</time>
      </trkpt>
      <trkpt lat="47.92037" lon="-1.75159">
        <ele>29</ele>
        <time>2007-12-24T10:45:19Z</time>
      </trkpt>
      <trkpt lat="47.92037" lon="-1.75155">
        <ele>29</ele>
        <time>2007-12-24T10:45:20Z</time>
      </trkpt>
      <trkpt lat="47.92033" lon="-1.75129">
        <ele>31</ele>
        <time>2007-12-24T10:45:27Z</time>
      </trkpt>
      <trkpt lat="47.9203" lon="-1.75109">
        <ele>32</ele>
        <time>2007-12-24T10:45:33Z</time>
      </trkpt>
      <trkpt lat="47.92032" lon="-1.75095">
        <ele>32</ele>
        <time>2007-12-24T10:45:37Z</time>
      </trkpt>
      <trkpt lat="47.92032" lon="-1.75074">
        <ele>32</ele>
        <time>2007-12-24T10:45:42Z</time>
      </trkpt>
      <trkpt lat="47.92028" lon="-1.75063">
        <ele>33</ele>
        <time>2007-12-24T10:45:46Z</time>
      </trkpt>
      <trkpt lat="47.92023" lon="-1.75054">
        <ele>34</ele>
        <time>2007-12-24T10:45:49Z</time>
      </trkpt>
      <trkpt lat="47.92021" lon="-1.75045">
        <ele>34</ele>
        <time>2007-12-24T10:45:51Z</time>
      </trkpt>
      <trkpt lat="47.92019" lon="-1.75037">
        <ele>35</ele>
        <time>2007-12-24T10:45:54Z</time>
      </trkpt>
      <trkpt lat="47.92012" lon="-1.7501">
        <ele>37</ele>
        <time>2007-12-24T10:46:01Z</time>
      </trkpt>
      <trkpt lat="47.9201" lon="-1.75005">
        <ele>38</ele>
        <time>2007-12-24T10:46:03Z</time>
      </trkpt>
      <trkpt lat="47.92006" lon="-1.74991">
        <ele>39</ele>
        <time>2007-12-24T10:46:07Z</time>
      </trkpt>
      <trkpt lat="47.9201" lon="-1.74974">
        <ele>39</ele>
        <time>2007-12-24T10:46:12Z</time>
      </trkpt>
      <trkpt lat="47.92013" lon="-1.74961">
        <ele>40</ele>
        <time>2007-12-24T10:46:15Z</time>
      </trkpt>
      <trkpt lat="47.92016" lon="-1.7492">
        <ele>42</ele>
        <time>2007-12-24T10:46:26Z</time>
      </trkpt>
      <trkpt lat="47.92015" lon="-1.74907">
        <ele>43</ele>
        <time>2007-12-24T10:46:30Z</time>
      </trkpt>
      <trkpt lat="47.92017" lon="-1.74863">
        <ele>46</ele>
        <time>2007-12-24T10:46:42Z</time>
      </trkpt>
      <trkpt lat="47.92019" lon="-1.74798">
        <ele>48</ele>
        <time>2007-12-24T10:46:59Z</time>
      </trkpt>
      <trkpt lat="47.92022" lon="-1.74757">
        <ele>50</ele>
        <time>2007-12-24T10:47:10Z</time>
      </trkpt>
      <trkpt lat="47.9203" lon="-1.74729">
        <ele>50</ele>
        <time>2007-12-24T10:47:19Z</time>
      </trkpt>
      <trkpt lat="47.9204" lon="-1.74696">
        <ele>51</ele>
        <time>2007-12-24T10:47:28Z</time>
      </trkpt>
      <trkpt lat="47.92047" lon="-1.7468">
        <ele>51</ele>
        <time>2007-12-24T10:47:33Z</time>
      </trkpt>
      <trkpt lat="47.92055" lon="-1.74657">
        <ele>52</ele>
        <time>2007-12-24T10:47:40Z</time>
      </trkpt>
      <trkpt lat="47.92065" lon="-1.74638">
        <ele>51</ele>
        <time>2007-12-24T10:47:47Z</time>
      </trkpt>
      <trkpt lat="47.92075" lon="-1.74627">
        <ele>50</ele>
        <time>2007-12-24T10:47:52Z</time>
      </trkpt>
      <trkpt lat="47.92082" lon="-1.7462">
        <ele>49</ele>
        <time>2007-12-24T10:47:55Z</time>
      </trkpt>
      <trkpt lat="47.9209" lon="-1.74615">
        <ele>48</ele>
        <time>2007-12-24T10:47:59Z</time>
      </trkpt>
      <trkpt lat="47.92097" lon="-1.7461">
        <ele>47</ele>
        <time>2007-12-24T10:48:02Z</time>
      </trkpt>
      <trkpt lat="47.92105" lon="-1.74604">
        <ele>46</ele>
        <time>2007-12-24T10:48:05Z</time>
      </trkpt>
      <trkpt lat="47.9211" lon="-1.74599">
        <ele>46</ele>
        <time>2007-12-24T10:48:08Z</time>
      </trkpt>
      <trkpt lat="47.92127" lon="-1.74594">
        <ele>44</ele>
        <time>2007-12-24T10:48:15Z</time>
      </trkpt>
      <trkpt lat="47.92135" lon="-1.74588">
        <ele>43</ele>
        <time>2007-12-24T10:48:18Z</time>
      </trkpt>
      <trkpt lat="47.92145" lon="-1.74581">
        <ele>41</ele>
        <time>2007-12-24T10:48:23Z</time>
      </trkpt>
      <trkpt lat="47.9215" lon="-1.74577">
        <ele>41</ele>
        <time>2007-12-24T10:48:25Z</time>
      </trkpt>
      <trkpt lat="47.92152" lon="-1.74576">
        <ele>40</ele>
        <time>2007-12-24T10:48:26Z</time>
      </trkpt>
      <trkpt lat="47.92153" lon="-1.74573">
        <ele>40</ele>
        <time>2007-12-24T10:48:27Z</time>
      </trkpt>
      <trkpt lat="47.92155" lon="-1.74572">
        <ele>40</ele>
        <time>2007-12-24T10:48:27Z</time>
      </trkpt>
      <trkpt lat="47.92157" lon="-1.7457">
        <ele>40</ele>
        <time>2007-12-24T10:48:28Z</time>
      </trkpt>
      <trkpt lat="47.92162" lon="-1.74567">
        <ele>39</ele>
        <time>2007-12-24T10:48:30Z</time>
      </trkpt>
      <trkpt lat="47.92166" lon="-1.74567">
        <ele>39</ele>
        <time>2007-12-24T10:48:32Z</time>
      </trkpt>
      <trkpt lat="47.92168" lon="-1.74565">
        <ele>38</ele>
        <time>2007-12-24T10:48:33Z</time>
      </trkpt>
      <trkpt lat="47.92174" lon="-1.74563">
        <ele>38</ele>
        <time>2007-12-24T10:48:35Z</time>
      </trkpt>
      <trkpt lat="47.9219" lon="-1.74555">
        <ele>36</ele>
        <time>2007-12-24T10:48:42Z</time>
      </trkpt>
      <trkpt lat="47.92199" lon="-1.7455">
        <ele>35</ele>
        <time>2007-12-24T10:48:46Z</time>
      </trkpt>
      <trkpt lat="47.92213" lon="-1.74542">
        <ele>34</ele>
        <time>2007-12-24T10:48:52Z</time>
      </trkpt>
      <trkpt lat="47.92225" lon="-1.74531">
        <ele>33</ele>
        <time>2007-12-24T10:48:58Z</time>
      </trkpt>
      <trkpt lat="47.92235" lon="-1.74523">
        <ele>32</ele>
        <time>2007-12-24T10:49:03Z</time>
      </trkpt>
      <trkpt lat="47.92245" lon="-1.74515">
        <ele>30</ele>
        <time>2007-12-24T10:49:07Z</time>
      </trkpt>
      <trkpt lat="47.92253" lon="-1.74512">
        <ele>29</ele>
        <time>2007-12-24T10:49:10Z</time>
      </trkpt>
      <trkpt lat="47.92267" lon="-1.74478">
        <ele>27</ele>
        <time>2007-12-24T10:49:21Z</time>
      </trkpt>
      <trkpt lat="47.9227" lon="-1.74468">
        <ele>27</ele>
        <time>2007-12-24T10:49:24Z</time>
      </trkpt>
      <trkpt lat="47.92285" lon="-1.74452">
        <ele>25</ele>
        <time>2007-12-24T10:49:31Z</time>
      </trkpt>
      <trkpt lat="47.92298" lon="-1.74445">
        <ele>24</ele>
        <time>2007-12-24T10:49:37Z</time>
      </trkpt>
      <trkpt lat="47.92321" lon="-1.74419">
        <ele>23</ele>
        <time>2007-12-24T10:49:49Z</time>
      </trkpt>
      <trkpt lat="47.92327" lon="-1.74412">
        <ele>23</ele>
        <time>2007-12-24T10:49:51Z</time>
      </trkpt>
      <trkpt lat="47.9234" lon="-1.74388">
        <ele>24</ele>
        <time>2007-12-24T10:50:00Z</time>
      </trkpt>
      <trkpt lat="47.92343" lon="-1.74373">
        <ele>25</ele>
        <time>2007-12-24T10:50:04Z</time>
      </trkpt>
      <trkpt lat="47.92347" lon="-1.74337">
        <ele>27</ele>
        <time>2007-12-24T10:50:14Z</time>
      </trkpt>
      <trkpt lat="47.92353" lon="-1.743">
        <ele>27</ele>
        <time>2007-12-24T10:50:24Z</time>
      </trkpt>
      <trkpt lat="47.92362" lon="-1.74263">
        <ele>26</ele>
        <time>2007-12-24T10:50:35Z</time>
      </trkpt>
      <trkpt lat="47.92367" lon="-1.74233">
        <ele>25</ele>
        <time>2007-12-24T10:50:43Z</time>
      </trkpt>
      <trkpt lat="47.92363" lon="-1.7421">
        <ele>24</ele>
        <time>2007-12-24T10:50:49Z</time>
      </trkpt>
      <trkpt lat="47.9236" lon="-1.7419">
        <ele>23</ele>
        <time>2007-12-24T10:50:54Z</time>
      </trkpt>
      <trkpt lat="47.92349" lon="-1.74124">
        <ele>23</ele>
        <time>2007-12-24T10:51:13Z</time>
      </trkpt>
      <trkpt lat="47.92345" lon="-1.74073">
        <ele>25</ele>
        <time>2007-12-24T10:51:27Z</time>
      </trkpt>
      <trkpt lat="47.92345" lon="-1.74033">
        <ele>28</ele>
        <time>2007-12-24T10:51:37Z</time>
      </trkpt>
      <trkpt lat="47.92343" lon="-1.74022">
        <ele>29</ele>
        <time>2007-12-24T10:51:40Z</time>
      </trkpt>
      <trkpt lat="47.92334" lon="-1.73984">
        <ele>33</ele>
        <time>2007-12-24T10:51:51Z</time>
      </trkpt>
      <trkpt lat="47.92332" lon="-1.73964">
        <ele>34</ele>
        <time>2007-12-24T10:51:57Z</time>
      </trkpt>
      <trkpt lat="47.92332" lon="-1.7396">
        <ele>35</ele>
        <time>2007-12-24T10:51:58Z</time>
      </trkpt>
      <trkpt lat="47.9233" lon="-1.73952">
        <ele>35</ele>
        <time>2007-12-24T10:52:00Z</time>
      </trkpt>
      <trkpt lat="47.92315" lon="-1.73944">
        <ele>36</ele>
        <time>2007-12-24T10:52:06Z</time>
      </trkpt>
      <trkpt lat="47.92302" lon="-1.73934">
        <ele>36</ele>
        <time>2007-12-24T10:52:12Z</time>
      </trkpt>
      <trkpt lat="47.92282" lon="-1.73917">
        <ele>37</ele>
        <time>2007-12-24T10:52:22Z</time>
      </trkpt>
      <trkpt lat="47.9227" lon="-1.73906">
        <ele>38</ele>
        <time>2007-12-24T10:52:27Z</time>
      </trkpt>
      <trkpt lat="47.92264" lon="-1.739">
        <ele>39</ele>
        <time>2007-12-24T10:52:30Z</time>
      </trkpt>
      <trkpt lat="47.92248" lon="-1.73887">
        <ele>41</ele>
        <time>2007-12-24T10:52:37Z</time>
      </trkpt>
      <trkpt lat="47.92224" lon="-1.73869">
        <ele>45</ele>
        <time>2007-12-24T10:52:48Z</time>
      </trkpt>
      <trkpt lat="47.92216" lon="-1.73865">
        <ele>46</ele>
        <time>2007-12-24T10:52:51Z</time>
      </trkpt>
      <trkpt lat="47.92192" lon="-1.73852">
        <ele>49</ele>
        <time>2007-12-24T10:53:02Z</time>
      </trkpt>
      <trkpt lat="47.92182" lon="-1.73847">
        <ele>50</ele>
        <time>2007-12-24T10:53:06Z</time>
      </trkpt>
      <trkpt lat="47.92152" lon="-1.73835">
        <ele>53</ele>
        <time>2007-12-24T10:53:18Z</time>
      </trkpt>
      <trkpt lat="47.92141" lon="-1.73836">
        <ele>54</ele>
        <time>2007-12-24T10:53:23Z</time>
      </trkpt>
      <trkpt lat="47.9212" lon="-1.73835">
        <ele>56</ele>
        <time>2007-12-24T10:53:31Z</time>
      </trkpt>
      <trkpt lat="47.92105" lon="-1.73834">
        <ele>57</ele>
        <time>2007-12-24T10:53:37Z</time>
      </trkpt>
      <trkpt lat="47.9206" lon="-1.73832">
        <ele>60</ele>
        <time>2007-12-24T10:53:55Z</time>
      </trkpt>
      <trkpt lat="47.92015" lon="-1.73819">
        <ele>60</ele>
        <time>2007-12-24T10:54:13Z</time>
      </trkpt>
      <trkpt lat="47.91972" lon="-1.73786">
        <ele>61</ele>
        <time>2007-12-24T10:54:33Z</time>
      </trkpt>
      <trkpt lat="47.91948" lon="-1.7378">
        <ele>62</ele>
        <time>2007-12-24T10:54:42Z</time>
      </trkpt>
      <trkpt lat="47.9191" lon="-1.73777">
        <ele>62</ele>
        <time>2007-12-24T10:54:58Z</time>
      </trkpt>
      <trkpt lat="47.91865" lon="-1.7378">
        <ele>62</ele>
        <time>2007-12-24T10:55:16Z</time>
      </trkpt>
      <trkpt lat="47.91862" lon="-1.73778">
        <ele>62</ele>
        <time>2007-12-24T10:55:17Z</time>
      </trkpt>
      <trkpt lat="47.91854" lon="-1.73764">
        <ele>63</ele>
        <time>2007-12-24T10:55:22Z</time>
      </trkpt>
      <trkpt lat="47.91853" lon="-1.73745">
        <ele>63</ele>
        <time>2007-12-24T10:55:27Z</time>
      </trkpt>
      <trkpt lat="47.91853" lon="-1.73655">
        <ele>65</ele>
        <time>2007-12-24T10:55:51Z</time>
      </trkpt>
      <trkpt lat="47.91853" lon="-1.73587">
        <ele>67</ele>
        <time>2007-12-24T10:56:10Z</time>
      </trkpt>
      <trkpt lat="47.91838" lon="-1.73494">
        <ele>68</ele>
        <time>2007-12-24T10:56:35Z</time>
      </trkpt>
      <trkpt lat="47.91831" lon="-1.73464">
        <ele>69</ele>
        <time>2007-12-24T10:56:44Z</time>
      </trkpt>
      <trkpt lat="47.9183" lon="-1.73456">
        <ele>69</ele>
        <time>2007-12-24T10:56:46Z</time>
      </trkpt>
      <trkpt lat="47.91824" lon="-1.73423">
        <ele>70</ele>
        <time>2007-12-24T10:56:55Z</time>
      </trkpt>
      <trkpt lat="47.91822" lon="-1.73415">
        <ele>70</ele>
        <time>2007-12-24T10:56:58Z</time>
      </trkpt>
      <trkpt lat="47.91817" lon="-1.73394">
        <ele>71</ele>
        <time>2007-12-24T10:57:04Z</time>
      </trkpt>
      <trkpt lat="47.91807" lon="-1.73347">
        <ele>72</ele>
        <time>2007-12-24T10:57:17Z</time>
      </trkpt>
      <trkpt lat="47.91797" lon="-1.73289">
        <ele>73</ele>
        <time>2007-12-24T10:57:33Z</time>
      </trkpt>
      <trkpt lat="47.91793" lon="-1.73262">
        <ele>73</ele>
        <time>2007-12-24T10:57:40Z</time>
      </trkpt>
      <trkpt lat="47.91793" lon="-1.73255">
        <ele>74</ele>
        <time>2007-12-24T10:57:42Z</time>
      </trkpt>
      <trkpt lat="47.91794" lon="-1.73234">
        <ele>74</ele>
        <time>2007-12-24T10:57:48Z</time>
      </trkpt>
      <trkpt lat="47.91792" lon="-1.73224">
        <ele>74</ele>
        <time>2007-12-24T10:57:50Z</time>
      </trkpt>
      <trkpt lat="47.91792" lon="-1.73216">
        <ele>75</ele>
        <time>2007-12-24T10:57:53Z</time>
      </trkpt>
      <trkpt lat="47.91792" lon="-1.7321">
        <ele>75</ele>
        <time>2007-12-24T10:57:54Z</time>
      </trkpt>
      <trkpt lat="47.91793" lon="-1.73175">
        <ele>76</ele>
        <time>2007-12-24T10:58:04Z</time>
      </trkpt>
      <trkpt lat="47.91793" lon="-1.73168">
        <ele>76</ele>
        <time>2007-12-24T10:58:06Z</time>
      </trkpt>
      <trkpt lat="47.91794" lon="-1.73141">
        <ele>76</ele>
        <time>2007-12-24T10:58:13Z</time>
      </trkpt>
      <trkpt lat="47.91792" lon="-1.73079">
        <ele>76</ele>
        <time>2007-12-24T10:58:30Z</time>
      </trkpt>
      <trkpt lat="47.91809" lon="-1.73017">
        <ele>73</ele>
        <time>2007-12-24T10:58:48Z</time>
      </trkpt>
      <trkpt lat="47.91828" lon="-1.72937">
        <ele>68</ele>
        <time>2007-12-24T10:59:10Z</time>
      </trkpt>
      <trkpt lat="47.91839" lon="-1.72894">
        <ele>65</ele>
        <time>2007-12-24T10:59:23Z</time>
      </trkpt>
      <trkpt lat="47.91854" lon="-1.72863">
        <ele>63</ele>
        <time>2007-12-24T10:59:33Z</time>
      </trkpt>
      <trkpt lat="47.91855" lon="-1.72862">
        <ele>63</ele>
        <time>2007-12-24T10:59:34Z</time>
      </trkpt>
      <trkpt lat="47.91865" lon="-1.7286">
        <ele>62</ele>
        <time>2007-12-24T10:59:38Z</time>
      </trkpt>
      <trkpt lat="47.91885" lon="-1.72858">
        <ele>60</ele>
        <time>2007-12-24T10:59:45Z</time>
      </trkpt>
      <trkpt lat="47.91902" lon="-1.72856">
        <ele>59</ele>
        <time>2007-12-24T10:59:52Z</time>
      </trkpt>
      <trkpt lat="47.91912" lon="-1.72855">
        <ele>59</ele>
        <time>2007-12-24T10:59:56Z</time>
      </trkpt>
      <trkpt lat="47.9193" lon="-1.72852">
        <ele>58</ele>
        <time>2007-12-24T11:00:04Z</time>
      </trkpt>
      <trkpt lat="47.9195" lon="-1.72855">
        <ele>57</ele>
        <time>2007-12-24T11:00:12Z</time>
      </trkpt>
      <trkpt lat="47.91973" lon="-1.72868">
        <ele>57</ele>
        <time>2007-12-24T11:00:22Z</time>
      </trkpt>
      <trkpt lat="47.9199" lon="-1.72882">
        <ele>56</ele>
        <time>2007-12-24T11:00:29Z</time>
      </trkpt>
      <trkpt lat="47.92005" lon="-1.72897">
        <ele>55</ele>
        <time>2007-12-24T11:00:36Z</time>
      </trkpt>
      <trkpt lat="47.92015" lon="-1.72915">
        <ele>55</ele>
        <time>2007-12-24T11:00:43Z</time>
      </trkpt>
      <trkpt lat="47.92027" lon="-1.72935">
        <ele>55</ele>
        <time>2007-12-24T11:00:50Z</time>
      </trkpt>
      <trkpt lat="47.92028" lon="-1.72936">
        <ele>55</ele>
        <time>2007-12-24T11:00:50Z</time>
      </trkpt>
      <trkpt lat="47.92033" lon="-1.72939">
        <ele>55</ele>
        <time>2007-12-24T11:00:53Z</time>
      </trkpt>
      <trkpt lat="47.9204" lon="-1.72941">
        <ele>54</ele>
        <time>2007-12-24T11:00:55Z</time>
      </trkpt>
      <trkpt lat="47.92053" lon="-1.72952">
        <ele>52</ele>
        <time>2007-12-24T11:01:02Z</time>
      </trkpt>
      <trkpt lat="47.92065" lon="-1.72959">
        <ele>50</ele>
        <time>2007-12-24T11:01:07Z</time>
      </trkpt>
      <trkpt lat="47.92075" lon="-1.72967">
        <ele>49</ele>
        <time>2007-12-24T11:01:11Z</time>
      </trkpt>
      <trkpt lat="47.92085" lon="-1.72963">
        <ele>47</ele>
        <time>2007-12-24T11:01:15Z</time>
      </trkpt>
      <trkpt lat="47.92087" lon="-1.72955">
        <ele>47</ele>
        <time>2007-12-24T11:01:18Z</time>
      </trkpt>
      <trkpt lat="47.92086" lon="-1.72923">
        <ele>44</ele>
        <time>2007-12-24T11:01:26Z</time>
      </trkpt>
      <trkpt lat="47.9209" lon="-1.72893">
        <ele>42</ele>
        <time>2007-12-24T11:01:34Z</time>
      </trkpt>
      <trkpt lat="47.92092" lon="-1.72866">
        <ele>41</ele>
        <time>2007-12-24T11:01:41Z</time>
      </trkpt>
      <trkpt lat="47.92092" lon="-1.72845">
        <ele>40</ele>
        <time>2007-12-24T11:01:47Z</time>
      </trkpt>
      <trkpt lat="47.92092" lon="-1.7284">
        <ele>40</ele>
        <time>2007-12-24T11:01:49Z</time>
      </trkpt>
      <trkpt lat="47.92093" lon="-1.72832">
        <ele>40</ele>
        <time>2007-12-24T11:01:51Z</time>
      </trkpt>
      <trkpt lat="47.921" lon="-1.72831">
        <ele>39</ele>
        <time>2007-12-24T11:01:53Z</time>
      </trkpt>
      <trkpt lat="47.92119" lon="-1.72828">
        <ele>37</ele>
        <time>2007-12-24T11:02:01Z</time>
      </trkpt>
      <trkpt lat="47.92142" lon="-1.72825">
        <ele>36</ele>
        <time>2007-12-24T11:02:10Z</time>
      </trkpt>
      <trkpt lat="47.92156" lon="-1.72825">
        <ele>35</ele>
        <time>2007-12-24T11:02:16Z</time>
      </trkpt>
      <trkpt lat="47.92172" lon="-1.72826">
        <ele>34</ele>
        <time>2007-12-24T11:02:22Z</time>
      </trkpt>
      <trkpt lat="47.92187" lon="-1.72831">
        <ele>32</ele>
        <time>2007-12-24T11:02:29Z</time>
      </trkpt>
      <trkpt lat="47.92205" lon="-1.72837">
        <ele>30</ele>
        <time>2007-12-24T11:02:36Z</time>
      </trkpt>
      <trkpt lat="47.92227" lon="-1.72842">
        <ele>28</ele>
        <time>2007-12-24T11:02:45Z</time>
      </trkpt>
      <trkpt lat="47.92237" lon="-1.72842">
        <ele>27</ele>
        <time>2007-12-24T11:02:49Z</time>
      </trkpt>
      <trkpt lat="47.92248" lon="-1.72844">
        <ele>26</ele>
        <time>2007-12-24T11:02:53Z</time>
      </trkpt>
      <trkpt lat="47.9227" lon="-1.72851">
        <ele>25</ele>
        <time>2007-12-24T11:03:02Z</time>
      </trkpt>
      <trkpt lat="47.92276" lon="-1.72857">
        <ele>24</ele>
        <time>2007-12-24T11:03:05Z</time>
      </trkpt>
      <trkpt lat="47.92292" lon="-1.72856">
        <ele>23</ele>
        <time>2007-12-24T11:03:11Z</time>
      </trkpt>
      <trkpt lat="47.92307" lon="-1.72859">
        <ele>25</ele>
        <time>2007-12-24T11:03:18Z</time>
      </trkpt>
      <trkpt lat="47.92317" lon="-1.72864">
        <ele>26</ele>
        <time>2007-12-24T11:03:22Z</time>
      </trkpt>
      <trkpt lat="47.92331" lon="-1.72865">
        <ele>28</ele>
        <time>2007-12-24T11:03:28Z</time>
      </trkpt>
      <trkpt lat="47.92338" lon="-1.72863">
        <ele>30</ele>
        <time>2007-12-24T11:03:30Z</time>
      </trkpt>
      <trkpt lat="47.92365" lon="-1.72865">
        <ele>35</ele>
        <time>2007-12-24T11:03:41Z</time>
      </trkpt>
      <trkpt lat="47.9237" lon="-1.72869">
        <ele>36</ele>
        <time>2007-12-24T11:03:43Z</time>
      </trkpt>
      <trkpt lat="47.92384" lon="-1.72878">
        <ele>38</ele>
        <time>2007-12-24T11:03:49Z</time>
      </trkpt>
      <trkpt lat="47.92397" lon="-1.72902">
        <ele>38</ele>
        <time>2007-12-24T11:03:58Z</time>
      </trkpt>
      <trkpt lat="47.92409" lon="-1.72928">
        <ele>38</ele>
        <time>2007-12-24T11:04:06Z</time>
      </trkpt>
      <trkpt lat="47.92415" lon="-1.72955">
        <ele>36</ele>
        <time>2007-12-24T11:04:14Z</time>
      </trkpt>
      <trkpt lat="47.9242" lon="-1.72968">
        <ele>34</ele>
        <time>2007-12-24T11:04:18Z</time>
      </trkpt>
      <trkpt lat="47.92423" lon="-1.72973">
        <ele>34</ele>
        <time>2007-12-24T11:04:20Z</time>
      </trkpt>
      <trkpt lat="47.9243" lon="-1.72987">
        <ele>33</ele>
        <time>2007-12-24T11:04:24Z</time>
      </trkpt>
      <trkpt lat="47.92436" lon="-1.73004">
        <ele>32</ele>
        <time>2007-12-24T11:04:29Z</time>
      </trkpt>
      <trkpt lat="47.9244" lon="-1.73005">
        <ele>33</ele>
        <time>2007-12-24T11:04:31Z</time>
      </trkpt>
      <trkpt lat="47.92444" lon="-1.73006">
        <ele>33</ele>
        <time>2007-12-24T11:04:32Z</time>
      </trkpt>
      <trkpt lat="47.92444" lon="-1.73008">
        <ele>33</ele>
        <time>2007-12-24T11:04:33Z</time>
      </trkpt>
      <trkpt lat="47.92445" lon="-1.73008">
        <ele>34</ele>
        <time>2007-12-24T11:04:33Z</time>
      </trkpt>
      <trkpt lat="47.92445" lon="-1.7301">
        <ele>33</ele>
        <time>2007-12-24T11:04:34Z</time>
      </trkpt>
      <trkpt lat="47.92445" lon="-1.73008">
        <ele>34</ele>
        <time>2007-12-24T11:04:35Z</time>
      </trkpt>
      <trkpt lat="47.92444" lon="-1.73005">
        <ele>34</ele>
        <time>2007-12-24T11:04:36Z</time>
      </trkpt>
      <trkpt lat="47.92444" lon="-1.73004">
        <ele>34</ele>
        <time>2007-12-24T11:04:36Z</time>
      </trkpt>
      <trkpt lat="47.92443" lon="-1.73001">
        <ele>34</ele>
        <time>2007-12-24T11:04:37Z</time>
      </trkpt>
      <trkpt lat="47.92447" lon="-1.73005">
        <ele>34</ele>
        <time>2007-12-24T11:04:39Z</time>
      </trkpt>
      <trkpt lat="47.92448" lon="-1.73009">
        <ele>34</ele>
        <time>2007-12-24T11:04:40Z</time>
      </trkpt>
      <trkpt lat="47.92452" lon="-1.73012">
        <ele>35</ele>
        <time>2007-12-24T11:04:42Z</time>
      </trkpt>
      <trkpt lat="47.92455" lon="-1.73016">
        <ele>35</ele>
        <time>2007-12-24T11:04:43Z</time>
      </trkpt>
      <trkpt lat="47.92467" lon="-1.73023">
        <ele>37</ele>
        <time>2007-12-24T11:04:49Z</time>
      </trkpt>
      <trkpt lat="47.9247" lon="-1.73025">
        <ele>37</ele>
        <time>2007-12-24T11:04:50Z</time>
      </trkpt>
      <trkpt lat="47.92475" lon="-1.73027">
        <ele>38</ele>
        <time>2007-12-24T11:04:52Z</time>
      </trkpt>
      <trkpt lat="47.92488" lon="-1.73032">
        <ele>39</ele>
        <time>2007-12-24T11:04:57Z</time>
      </trkpt>
      <trkpt lat="47.92492" lon="-1.73045">
        <ele>39</ele>
        <time>2007-12-24T11:05:01Z</time>
      </trkpt>
      <trkpt lat="47.92494" lon="-1.73068">
        <ele>37</ele>
        <time>2007-12-24T11:05:07Z</time>
      </trkpt>
      <trkpt lat="47.92498" lon="-1.73087">
        <ele>37</ele>
        <time>2007-12-24T11:05:13Z</time>
      </trkpt>
      <trkpt lat="47.9251" lon="-1.73131">
        <ele>40</ele>
        <time>2007-12-24T11:05:25Z</time>
      </trkpt>
      <trkpt lat="47.9251" lon="-1.73135">
        <ele>40</ele>
        <time>2007-12-24T11:05:26Z</time>
      </trkpt>
      <trkpt lat="47.92512" lon="-1.73152">
        <ele>41</ele>
        <time>2007-12-24T11:05:31Z</time>
      </trkpt>
      <trkpt lat="47.92514" lon="-1.73173">
        <ele>41</ele>
        <time>2007-12-24T11:05:37Z</time>
      </trkpt>
      <trkpt lat="47.92515" lon="-1.7321">
        <ele>41</ele>
        <time>2007-12-24T11:05:46Z</time>
      </trkpt>
      <trkpt lat="47.92517" lon="-1.73232">
        <ele>42</ele>
        <time>2007-12-24T11:05:53Z</time>
      </trkpt>
      <trkpt lat="47.92516" lon="-1.7325">
        <ele>42</ele>
        <time>2007-12-24T11:05:57Z</time>
      </trkpt>
      <trkpt lat="47.92517" lon="-1.73266">
        <ele>43</ele>
        <time>2007-12-24T11:06:02Z</time>
      </trkpt>
      <trkpt lat="47.92515" lon="-1.73267">
        <ele>42</ele>
        <time>2007-12-24T11:06:02Z</time>
      </trkpt>
      <trkpt lat="47.92513" lon="-1.73267">
        <ele>42</ele>
        <time>2007-12-24T11:06:03Z</time>
      </trkpt>
      <trkpt lat="47.92514" lon="-1.73252">
        <ele>42</ele>
        <time>2007-12-24T11:06:07Z</time>
      </trkpt>
      <trkpt lat="47.92505" lon="-1.73224">
        <ele>39</ele>
        <time>2007-12-24T11:06:15Z</time>
      </trkpt>
      <trkpt lat="47.92502" lon="-1.7321">
        <ele>37</ele>
        <time>2007-12-24T11:06:20Z</time>
      </trkpt>
      <trkpt lat="47.925" lon="-1.73195">
        <ele>37</ele>
        <time>2007-12-24T11:06:24Z</time>
      </trkpt>
      <trkpt lat="47.92501" lon="-1.73184">
        <ele>37</ele>
        <time>2007-12-24T11:06:26Z</time>
      </trkpt>
      <trkpt lat="47.925" lon="-1.73175">
        <ele>37</ele>
        <time>2007-12-24T11:06:29Z</time>
      </trkpt>
      <trkpt lat="47.92498" lon="-1.73174">
        <ele>36</ele>
        <time>2007-12-24T11:06:30Z</time>
      </trkpt>
      <trkpt lat="47.92491" lon="-1.73182">
        <ele>34</ele>
        <time>2007-12-24T11:06:33Z</time>
      </trkpt>
      <trkpt lat="47.92482" lon="-1.73196">
        <ele>31</ele>
        <time>2007-12-24T11:06:39Z</time>
      </trkpt>
      <trkpt lat="47.92478" lon="-1.73198">
        <ele>30</ele>
        <time>2007-12-24T11:06:40Z</time>
      </trkpt>
      <trkpt lat="47.92477" lon="-1.732">
        <ele>29</ele>
        <time>2007-12-24T11:06:41Z</time>
      </trkpt>
      <trkpt lat="47.92465" lon="-1.73203">
        <ele>25</ele>
        <time>2007-12-24T11:06:46Z</time>
      </trkpt>
      <trkpt lat="47.9245" lon="-1.73208">
        <ele>23</ele>
        <time>2007-12-24T11:06:52Z</time>
      </trkpt>
      <trkpt lat="47.92445" lon="-1.73203">
        <ele>23</ele>
        <time>2007-12-24T11:06:55Z</time>
      </trkpt>
      <trkpt lat="47.92445" lon="-1.73188">
        <ele>23</ele>
        <time>2007-12-24T11:06:58Z</time>
      </trkpt>
      <trkpt lat="47.92445" lon="-1.7315">
        <ele>23</ele>
        <time>2007-12-24T11:07:09Z</time>
      </trkpt>
      <trkpt lat="47.92442" lon="-1.73116">
        <ele>24</ele>
        <time>2007-12-24T11:07:18Z</time>
      </trkpt>
      <trkpt lat="47.92445" lon="-1.73083">
        <ele>25</ele>
        <time>2007-12-24T11:07:27Z</time>
      </trkpt>
      <trkpt lat="47.92447" lon="-1.73079">
        <ele>26</ele>
        <time>2007-12-24T11:07:28Z</time>
      </trkpt>
      <trkpt lat="47.9245" lon="-1.73068">
        <ele>27</ele>
        <time>2007-12-24T11:07:31Z</time>
      </trkpt>
      <trkpt lat="47.92457" lon="-1.73056">
        <ele>30</ele>
        <time>2007-12-24T11:07:36Z</time>
      </trkpt>
      <trkpt lat="47.9246" lon="-1.7305">
        <ele>32</ele>
        <time>2007-12-24T11:07:38Z</time>
      </trkpt>
      <trkpt lat="47.92462" lon="-1.73049">
        <ele>32</ele>
        <time>2007-12-24T11:07:39Z</time>
      </trkpt>
      <trkpt lat="47.92464" lon="-1.73045">
        <ele>33</ele>
        <time>2007-12-24T11:07:40Z</time>
      </trkpt>
      <trkpt lat="47.92462" lon="-1.73029">
        <ele>35</ele>
        <time>2007-12-24T11:07:44Z</time>
      </trkpt>
      <trkpt lat="47.9245" lon="-1.7301">
        <ele>35</ele>
        <time>2007-12-24T11:07:51Z</time>
      </trkpt>
      <trkpt lat="47.92428" lon="-1.72992">
        <ele>32</ele>
        <time>2007-12-24T11:08:01Z</time>
      </trkpt>
      <trkpt lat="47.92416" lon="-1.72987">
        <ele>30</ele>
        <time>2007-12-24T11:08:06Z</time>
      </trkpt>
      <trkpt lat="47.92412" lon="-1.7298">
        <ele>30</ele>
        <time>2007-12-24T11:08:09Z</time>
      </trkpt>
      <trkpt lat="47.92403" lon="-1.72961">
        <ele>32</ele>
        <time>2007-12-24T11:08:15Z</time>
      </trkpt>
      <trkpt lat="47.92393" lon="-1.7295">
        <ele>31</ele>
        <time>2007-12-24T11:08:20Z</time>
      </trkpt>
      <trkpt lat="47.92387" lon="-1.72946">
        <ele>30</ele>
        <time>2007-12-24T11:08:22Z</time>
      </trkpt>
      <trkpt lat="47.92382" lon="-1.72954">
        <ele>28</ele>
        <time>2007-12-24T11:08:26Z</time>
      </trkpt>
      <trkpt lat="47.9237" lon="-1.72975">
        <ele>24</ele>
        <time>2007-12-24T11:08:33Z</time>
      </trkpt>
      <trkpt lat="47.92363" lon="-1.73008">
        <ele>22</ele>
        <time>2007-12-24T11:08:42Z</time>
      </trkpt>
      <trkpt lat="47.92368" lon="-1.73043">
        <ele>22</ele>
        <time>2007-12-24T11:08:52Z</time>
      </trkpt>
      <trkpt lat="47.92375" lon="-1.73048">
        <ele>22</ele>
        <time>2007-12-24T11:08:54Z</time>
      </trkpt>
      <trkpt lat="47.92394" lon="-1.7306">
        <ele>22</ele>
        <time>2007-12-24T11:09:03Z</time>
      </trkpt>
      <trkpt lat="47.924" lon="-1.73073">
        <ele>22</ele>
        <time>2007-12-24T11:09:07Z</time>
      </trkpt>
      <trkpt lat="47.92405" lon="-1.73105">
        <ele>22</ele>
        <time>2007-12-24T11:09:16Z</time>
      </trkpt>
      <trkpt lat="47.92405" lon="-1.73125">
        <ele>22</ele>
        <time>2007-12-24T11:09:21Z</time>
      </trkpt>
      <trkpt lat="47.92405" lon="-1.73132">
        <ele>22</ele>
        <time>2007-12-24T11:09:23Z</time>
      </trkpt>
      <trkpt lat="47.92408" lon="-1.73159">
        <ele>22</ele>
        <time>2007-12-24T11:09:30Z</time>
      </trkpt>
      <trkpt lat="47.92409" lon="-1.73193">
        <ele>23</ele>
        <time>2007-12-24T11:09:40Z</time>
      </trkpt>
      <trkpt lat="47.92407" lon="-1.73208">
        <ele>23</ele>
        <time>2007-12-24T11:09:44Z</time>
      </trkpt>
      <trkpt lat="47.92406" lon="-1.73223">
        <ele>23</ele>
        <time>2007-12-24T11:09:48Z</time>
      </trkpt>
      <trkpt lat="47.92407" lon="-1.7327">
        <ele>23</ele>
        <time>2007-12-24T11:10:00Z</time>
      </trkpt>
      <trkpt lat="47.92407" lon="-1.7329">
        <ele>23</ele>
        <time>2007-12-24T11:10:06Z</time>
      </trkpt>
      <trkpt lat="47.92408" lon="-1.73303">
        <ele>23</ele>
        <time>2007-12-24T11:10:09Z</time>
      </trkpt>
      <trkpt lat="47.92427" lon="-1.733">
        <ele>23</ele>
        <time>2007-12-24T11:10:17Z</time>
      </trkpt>
      <trkpt lat="47.92431" lon="-1.73292">
        <ele>23</ele>
        <time>2007-12-24T11:10:20Z</time>
      </trkpt>
      <trkpt lat="47.92438" lon="-1.73277">
        <ele>24</ele>
        <time>2007-12-24T11:10:25Z</time>
      </trkpt>
      <trkpt lat="47.92442" lon="-1.73273">
        <ele>24</ele>
        <time>2007-12-24T11:10:26Z</time>
      </trkpt>
      <trkpt lat="47.92448" lon="-1.73265">
        <ele>24</ele>
        <time>2007-12-24T11:10:30Z</time>
      </trkpt>
      <trkpt lat="47.92457" lon="-1.73256">
        <ele>24</ele>
        <time>2007-12-24T11:10:34Z</time>
      </trkpt>
      <trkpt lat="47.9246" lon="-1.73262">
        <ele>26</ele>
        <time>2007-12-24T11:10:36Z</time>
      </trkpt>
      <trkpt lat="47.92464" lon="-1.73272">
        <ele>27</ele>
        <time>2007-12-24T11:10:39Z</time>
      </trkpt>
      <trkpt lat="47.92466" lon="-1.7328">
        <ele>28</ele>
        <time>2007-12-24T11:10:41Z</time>
      </trkpt>
      <trkpt lat="47.9248" lon="-1.73309">
        <ele>32</ele>
        <time>2007-12-24T11:10:51Z</time>
      </trkpt>
      <trkpt lat="47.92493" lon="-1.73352">
        <ele>35</ele>
        <time>2007-12-24T11:11:03Z</time>
      </trkpt>
      <trkpt lat="47.9251" lon="-1.73386">
        <ele>38</ele>
        <time>2007-12-24T11:11:15Z</time>
      </trkpt>
      <trkpt lat="47.92517" lon="-1.734">
        <ele>39</ele>
        <time>2007-12-24T11:11:19Z</time>
      </trkpt>
      <trkpt lat="47.92524" lon="-1.73413">
        <ele>40</ele>
        <time>2007-12-24T11:11:24Z</time>
      </trkpt>
      <trkpt lat="47.92532" lon="-1.73443">
        <ele>40</ele>
        <time>2007-12-24T11:11:33Z</time>
      </trkpt>
      <trkpt lat="47.92535" lon="-1.73467">
        <ele>39</ele>
        <time>2007-12-24T11:11:39Z</time>
      </trkpt>
      <trkpt lat="47.92533" lon="-1.73485">
        <ele>38</ele>
        <time>2007-12-24T11:11:44Z</time>
      </trkpt>
      <trkpt lat="47.92527" lon="-1.73518">
        <ele>35</ele>
        <time>2007-12-24T11:11:53Z</time>
      </trkpt>
      <trkpt lat="47.92527" lon="-1.73521">
        <ele>35</ele>
        <time>2007-12-24T11:11:54Z</time>
      </trkpt>
      <trkpt lat="47.9252" lon="-1.73545">
        <ele>32</ele>
        <time>2007-12-24T11:12:01Z</time>
      </trkpt>
      <trkpt lat="47.92512" lon="-1.73575">
        <ele>30</ele>
        <time>2007-12-24T11:12:10Z</time>
      </trkpt>
      <trkpt lat="47.92509" lon="-1.73601">
        <ele>30</ele>
        <time>2007-12-24T11:12:17Z</time>
      </trkpt>
      <trkpt lat="47.9251" lon="-1.73611">
        <ele>31</ele>
        <time>2007-12-24T11:12:20Z</time>
      </trkpt>
      <trkpt lat="47.92507" lon="-1.73618">
        <ele>30</ele>
        <time>2007-12-24T11:12:22Z</time>
      </trkpt>
      <trkpt lat="47.92505" lon="-1.73621">
        <ele>30</ele>
        <time>2007-12-24T11:12:23Z</time>
      </trkpt>
      <trkpt lat="47.92507" lon="-1.73607">
        <ele>30</ele>
        <time>2007-12-24T11:12:26Z</time>
      </trkpt>
      <trkpt lat="47.92517" lon="-1.73586">
        <ele>32</ele>
        <time>2007-12-24T11:12:33Z</time>
      </trkpt>
      <trkpt lat="47.92518" lon="-1.73576">
        <ele>33</ele>
        <time>2007-12-24T11:12:36Z</time>
      </trkpt>
      <trkpt lat="47.92533" lon="-1.73533">
        <ele>37</ele>
        <time>2007-12-24T11:12:49Z</time>
      </trkpt>
      <trkpt lat="47.92538" lon="-1.73515">
        <ele>39</ele>
        <time>2007-12-24T11:12:54Z</time>
      </trkpt>
      <trkpt lat="47.92543" lon="-1.73485">
        <ele>41</ele>
        <time>2007-12-24T11:13:03Z</time>
      </trkpt>
      <trkpt lat="47.92543" lon="-1.7346">
        <ele>42</ele>
        <time>2007-12-24T11:13:09Z</time>
      </trkpt>
      <trkpt lat="47.9254" lon="-1.73442">
        <ele>42</ele>
        <time>2007-12-24T11:13:14Z</time>
      </trkpt>
      <trkpt lat="47.92537" lon="-1.73415">
        <ele>43</ele>
        <time>2007-12-24T11:13:21Z</time>
      </trkpt>
      <trkpt lat="47.92537" lon="-1.73407">
        <ele>43</ele>
        <time>2007-12-24T11:13:24Z</time>
      </trkpt>
      <trkpt lat="47.92537" lon="-1.73392">
        <ele>44</ele>
        <time>2007-12-24T11:13:28Z</time>
      </trkpt>
      <trkpt lat="47.92541" lon="-1.73394">
        <ele>45</ele>
        <time>2007-12-24T11:13:29Z</time>
      </trkpt>
      <trkpt lat="47.92552" lon="-1.73413">
        <ele>46</ele>
        <time>2007-12-24T11:13:36Z</time>
      </trkpt>
      <trkpt lat="47.92553" lon="-1.7342">
        <ele>46</ele>
        <time>2007-12-24T11:13:38Z</time>
      </trkpt>
      <trkpt lat="47.92558" lon="-1.73432">
        <ele>47</ele>
        <time>2007-12-24T11:13:42Z</time>
      </trkpt>
      <trkpt lat="47.92568" lon="-1.73459">
        <ele>49</ele>
        <time>2007-12-24T11:13:50Z</time>
      </trkpt>
      <trkpt lat="47.9257" lon="-1.73471">
        <ele>49</ele>
        <time>2007-12-24T11:13:53Z</time>
      </trkpt>
      <trkpt lat="47.92577" lon="-1.73513">
        <ele>51</ele>
        <time>2007-12-24T11:14:05Z</time>
      </trkpt>
      <trkpt lat="47.92577" lon="-1.73528">
        <ele>51</ele>
        <time>2007-12-24T11:14:09Z</time>
      </trkpt>
      <trkpt lat="47.92578" lon="-1.73548">
        <ele>52</ele>
        <time>2007-12-24T11:14:14Z</time>
      </trkpt>
      <trkpt lat="47.92575" lon="-1.73563">
        <ele>51</ele>
        <time>2007-12-24T11:14:19Z</time>
      </trkpt>
      <trkpt lat="47.92568" lon="-1.73607">
        <ele>50</ele>
        <time>2007-12-24T11:14:31Z</time>
      </trkpt>
      <trkpt lat="47.92567" lon="-1.7363">
        <ele>50</ele>
        <time>2007-12-24T11:14:37Z</time>
      </trkpt>
      <trkpt lat="47.92569" lon="-1.73662">
        <ele>50</ele>
        <time>2007-12-24T11:14:46Z</time>
      </trkpt>
      <trkpt lat="47.92573" lon="-1.73683">
        <ele>51</ele>
        <time>2007-12-24T11:14:52Z</time>
      </trkpt>
      <trkpt lat="47.92574" lon="-1.73701">
        <ele>50</ele>
        <time>2007-12-24T11:14:56Z</time>
      </trkpt>
      <trkpt lat="47.92577" lon="-1.73722">
        <ele>49</ele>
        <time>2007-12-24T11:15:02Z</time>
      </trkpt>
      <trkpt lat="47.92582" lon="-1.73735">
        <ele>50</ele>
        <time>2007-12-24T11:15:06Z</time>
      </trkpt>
      <trkpt lat="47.92583" lon="-1.73738">
        <ele>50</ele>
        <time>2007-12-24T11:15:07Z</time>
      </trkpt>
      <trkpt lat="47.92583" lon="-1.73742">
        <ele>49</ele>
        <time>2007-12-24T11:15:08Z</time>
      </trkpt>
      <trkpt lat="47.92585" lon="-1.73745">
        <ele>50</ele>
        <time>2007-12-24T11:15:09Z</time>
      </trkpt>
      <trkpt lat="47.92585" lon="-1.7375">
        <ele>49</ele>
        <time>2007-12-24T11:15:11Z</time>
      </trkpt>
      <trkpt lat="47.92585" lon="-1.73755">
        <ele>49</ele>
        <time>2007-12-24T11:15:12Z</time>
      </trkpt>
      <trkpt lat="47.92587" lon="-1.73758">
        <ele>49</ele>
        <time>2007-12-24T11:15:13Z</time>
      </trkpt>
      <trkpt lat="47.92587" lon="-1.73761">
        <ele>49</ele>
        <time>2007-12-24T11:15:14Z</time>
      </trkpt>
      <trkpt lat="47.92585" lon="-1.73767">
        <ele>48</ele>
        <time>2007-12-24T11:15:16Z</time>
      </trkpt>
      <trkpt lat="47.92583" lon="-1.73778">
        <ele>47</ele>
        <time>2007-12-24T11:15:19Z</time>
      </trkpt>
      <trkpt lat="47.92584" lon="-1.73796">
        <ele>45</ele>
        <time>2007-12-24T11:15:23Z</time>
      </trkpt>
      <trkpt lat="47.92582" lon="-1.73816">
        <ele>43</ele>
        <time>2007-12-24T11:15:29Z</time>
      </trkpt>
      <trkpt lat="47.9258" lon="-1.73828">
        <ele>41</ele>
        <time>2007-12-24T11:15:32Z</time>
      </trkpt>
      <trkpt lat="47.92577" lon="-1.73847">
        <ele>38</ele>
        <time>2007-12-24T11:15:37Z</time>
      </trkpt>
      <trkpt lat="47.92577" lon="-1.73851">
        <ele>38</ele>
        <time>2007-12-24T11:15:38Z</time>
      </trkpt>
      <trkpt lat="47.92576" lon="-1.73873">
        <ele>35</ele>
        <time>2007-12-24T11:15:45Z</time>
      </trkpt>
      <trkpt lat="47.92577" lon="-1.73887">
        <ele>34</ele>
        <time>2007-12-24T11:15:48Z</time>
      </trkpt>
      <trkpt lat="47.92577" lon="-1.73893">
        <ele>34</ele>
        <time>2007-12-24T11:15:50Z</time>
      </trkpt>
      <trkpt lat="47.92579" lon="-1.73909">
        <ele>35</ele>
        <time>2007-12-24T11:15:54Z</time>
      </trkpt>
      <trkpt lat="47.92572" lon="-1.73922">
        <ele>32</ele>
        <time>2007-12-24T11:15:59Z</time>
      </trkpt>
      <trkpt lat="47.9256" lon="-1.73931">
        <ele>29</ele>
        <time>2007-12-24T11:16:04Z</time>
      </trkpt>
      <trkpt lat="47.92552" lon="-1.73957">
        <ele>27</ele>
        <time>2007-12-24T11:16:12Z</time>
      </trkpt>
      <trkpt lat="47.92551" lon="-1.73969">
        <ele>28</ele>
        <time>2007-12-24T11:16:15Z</time>
      </trkpt>
      <trkpt lat="47.92546" lon="-1.74007">
        <ele>28</ele>
        <time>2007-12-24T11:16:25Z</time>
      </trkpt>
      <trkpt lat="47.92547" lon="-1.74021">
        <ele>29</ele>
        <time>2007-12-24T11:16:29Z</time>
      </trkpt>
      <trkpt lat="47.92549" lon="-1.7404">
        <ele>29</ele>
        <time>2007-12-24T11:16:34Z</time>
      </trkpt>
      <trkpt lat="47.92549" lon="-1.74041">
        <ele>29</ele>
        <time>2007-12-24T11:16:34Z</time>
      </trkpt>
      <trkpt lat="47.92551" lon="-1.7406">
        <ele>28</ele>
        <time>2007-12-24T11:16:40Z</time>
      </trkpt>
      <trkpt lat="47.92557" lon="-1.74065">
        <ele>30</ele>
        <time>2007-12-24T11:16:42Z</time>
      </trkpt>
      <trkpt lat="47.92563" lon="-1.74064">
        <ele>31</ele>
        <time>2007-12-24T11:16:45Z</time>
      </trkpt>
      <trkpt lat="47.92565" lon="-1.74064">
        <ele>31</ele>
        <time>2007-12-24T11:16:45Z</time>
      </trkpt>
      <trkpt lat="47.92571" lon="-1.74076">
        <ele>32</ele>
        <time>2007-12-24T11:16:50Z</time>
      </trkpt>
      <trkpt lat="47.92573" lon="-1.74092">
        <ele>30</ele>
        <time>2007-12-24T11:16:54Z</time>
      </trkpt>
      <trkpt lat="47.92573" lon="-1.74097">
        <ele>30</ele>
        <time>2007-12-24T11:16:55Z</time>
      </trkpt>
      <trkpt lat="47.92574" lon="-1.74106">
        <ele>28</ele>
        <time>2007-12-24T11:16:58Z</time>
      </trkpt>
      <trkpt lat="47.92572" lon="-1.74108">
        <ele>28</ele>
        <time>2007-12-24T11:16:59Z</time>
      </trkpt>
      <trkpt lat="47.92564" lon="-1.74112">
        <ele>26</ele>
        <time>2007-12-24T11:17:02Z</time>
      </trkpt>
      <trkpt lat="47.92562" lon="-1.74113">
        <ele>25</ele>
        <time>2007-12-24T11:17:03Z</time>
      </trkpt>
      <trkpt lat="47.9256" lon="-1.74113">
        <ele>25</ele>
        <time>2007-12-24T11:17:04Z</time>
      </trkpt>
      <trkpt lat="47.92558" lon="-1.74113">
        <ele>24</ele>
        <time>2007-12-24T11:17:04Z</time>
      </trkpt>
      <trkpt lat="47.92558" lon="-1.74115">
        <ele>24</ele>
        <time>2007-12-24T11:17:05Z</time>
      </trkpt>
      <trkpt lat="47.92557" lon="-1.74121">
        <ele>23</ele>
        <time>2007-12-24T11:17:07Z</time>
      </trkpt>
      <trkpt lat="47.92558" lon="-1.74125">
        <ele>22</ele>
        <time>2007-12-24T11:17:08Z</time>
      </trkpt>
      <trkpt lat="47.9256" lon="-1.74128">
        <ele>22</ele>
        <time>2007-12-24T11:17:09Z</time>
      </trkpt>
      <trkpt lat="47.92562" lon="-1.74132">
        <ele>22</ele>
        <time>2007-12-24T11:17:10Z</time>
      </trkpt>
      <trkpt lat="47.92563" lon="-1.74133">
        <ele>22</ele>
        <time>2007-12-24T11:17:11Z</time>
      </trkpt>
      <trkpt lat="47.92565" lon="-1.74137">
        <ele>21</ele>
        <time>2007-12-24T11:17:12Z</time>
      </trkpt>
      <trkpt lat="47.92569" lon="-1.74141">
        <ele>22</ele>
        <time>2007-12-24T11:17:14Z</time>
      </trkpt>
      <trkpt lat="47.9257" lon="-1.74145">
        <ele>21</ele>
        <time>2007-12-24T11:17:15Z</time>
      </trkpt>
      <trkpt lat="47.92575" lon="-1.74152">
        <ele>21</ele>
        <time>2007-12-24T11:17:18Z</time>
      </trkpt>
      <trkpt lat="47.92585" lon="-1.74169">
        <ele>21</ele>
        <time>2007-12-24T11:17:24Z</time>
      </trkpt>
      <trkpt lat="47.92595" lon="-1.74175">
        <ele>22</ele>
        <time>2007-12-24T11:17:28Z</time>
      </trkpt>
      <trkpt lat="47.92607" lon="-1.74184">
        <ele>23</ele>
        <time>2007-12-24T11:17:33Z</time>
      </trkpt>
      <trkpt lat="47.92617" lon="-1.74188">
        <ele>24</ele>
        <time>2007-12-24T11:17:38Z</time>
      </trkpt>
      <trkpt lat="47.92622" lon="-1.74189">
        <ele>25</ele>
        <time>2007-12-24T11:17:40Z</time>
      </trkpt>
      <trkpt lat="47.92623" lon="-1.74188">
        <ele>25</ele>
        <time>2007-12-24T11:17:40Z</time>
      </trkpt>
      <trkpt lat="47.92633" lon="-1.74188">
        <ele>27</ele>
        <time>2007-12-24T11:17:44Z</time>
      </trkpt>
      <trkpt lat="47.92642" lon="-1.7419">
        <ele>28</ele>
        <time>2007-12-24T11:17:48Z</time>
      </trkpt>
      <trkpt lat="47.92644" lon="-1.7419">
        <ele>29</ele>
        <time>2007-12-24T11:17:49Z</time>
      </trkpt>
      <trkpt lat="47.92645" lon="-1.74192">
        <ele>29</ele>
        <time>2007-12-24T11:17:49Z</time>
      </trkpt>
      <trkpt lat="47.92646" lon="-1.74193">
        <ele>29</ele>
        <time>2007-12-24T11:17:50Z</time>
      </trkpt>
      <trkpt lat="47.92652" lon="-1.74199">
        <ele>29</ele>
        <time>2007-12-24T11:17:53Z</time>
      </trkpt>
      <trkpt lat="47.92654" lon="-1.74205">
        <ele>29</ele>
        <time>2007-12-24T11:17:54Z</time>
      </trkpt>
      <trkpt lat="47.92665" lon="-1.74209">
        <ele>31</ele>
        <time>2007-12-24T11:17:59Z</time>
      </trkpt>
      <trkpt lat="47.92665" lon="-1.7421">
        <ele>31</ele>
        <time>2007-12-24T11:17:59Z</time>
      </trkpt>
      <trkpt lat="47.9267" lon="-1.74218">
        <ele>31</ele>
        <time>2007-12-24T11:18:02Z</time>
      </trkpt>
      <trkpt lat="47.92674" lon="-1.74222">
        <ele>32</ele>
        <time>2007-12-24T11:18:04Z</time>
      </trkpt>
      <trkpt lat="47.92678" lon="-1.74239">
        <ele>32</ele>
        <time>2007-12-24T11:18:09Z</time>
      </trkpt>
      <trkpt lat="47.92675" lon="-1.7426">
        <ele>30</ele>
        <time>2007-12-24T11:18:15Z</time>
      </trkpt>
      <trkpt lat="47.92675" lon="-1.7427">
        <ele>29</ele>
        <time>2007-12-24T11:18:17Z</time>
      </trkpt>
      <trkpt lat="47.92675" lon="-1.74295">
        <ele>28</ele>
        <time>2007-12-24T11:18:24Z</time>
      </trkpt>
      <trkpt lat="47.9268" lon="-1.7433">
        <ele>29</ele>
        <time>2007-12-24T11:18:34Z</time>
      </trkpt>
      <trkpt lat="47.92683" lon="-1.74345">
        <ele>29</ele>
        <time>2007-12-24T11:18:38Z</time>
      </trkpt>
      <trkpt lat="47.92687" lon="-1.74374">
        <ele>30</ele>
        <time>2007-12-24T11:18:46Z</time>
      </trkpt>
      <trkpt lat="47.92683" lon="-1.74409">
        <ele>29</ele>
        <time>2007-12-24T11:18:55Z</time>
      </trkpt>
      <trkpt lat="47.9268" lon="-1.7443">
        <ele>28</ele>
        <time>2007-12-24T11:19:01Z</time>
      </trkpt>
      <trkpt lat="47.92678" lon="-1.74451">
        <ele>28</ele>
        <time>2007-12-24T11:19:07Z</time>
      </trkpt>
      <trkpt lat="47.92678" lon="-1.74455">
        <ele>28</ele>
        <time>2007-12-24T11:19:08Z</time>
      </trkpt>
      <trkpt lat="47.92674" lon="-1.74468">
        <ele>28</ele>
        <time>2007-12-24T11:19:12Z</time>
      </trkpt>
      <trkpt lat="47.92673" lon="-1.74489">
        <ele>28</ele>
        <time>2007-12-24T11:19:18Z</time>
      </trkpt>
      <trkpt lat="47.92671" lon="-1.74494">
        <ele>28</ele>
        <time>2007-12-24T11:19:19Z</time>
      </trkpt>
      <trkpt lat="47.92656" lon="-1.74517">
        <ele>25</ele>
        <time>2007-12-24T11:19:28Z</time>
      </trkpt>
      <trkpt lat="47.92648" lon="-1.74532">
        <ele>23</ele>
        <time>2007-12-24T11:19:33Z</time>
      </trkpt>
      <trkpt lat="47.92652" lon="-1.74549">
        <ele>24</ele>
        <time>2007-12-24T11:19:38Z</time>
      </trkpt>
      <trkpt lat="47.92659" lon="-1.74559">
        <ele>24</ele>
        <time>2007-12-24T11:19:41Z</time>
      </trkpt>
      <trkpt lat="47.92671" lon="-1.74571">
        <ele>25</ele>
        <time>2007-12-24T11:19:47Z</time>
      </trkpt>
      <trkpt lat="47.92697" lon="-1.74587">
        <ele>27</ele>
        <time>2007-12-24T11:19:58Z</time>
      </trkpt>
      <trkpt lat="47.92727" lon="-1.74603">
        <ele>27</ele>
        <time>2007-12-24T11:20:11Z</time>
      </trkpt>
      <trkpt lat="47.92754" lon="-1.74627">
        <ele>27</ele>
        <time>2007-12-24T11:20:24Z</time>
      </trkpt>
      <trkpt lat="47.9277" lon="-1.74636">
        <ele>27</ele>
        <time>2007-12-24T11:20:31Z</time>
      </trkpt>
      <trkpt lat="47.92788" lon="-1.74641">
        <ele>27</ele>
        <time>2007-12-24T11:20:38Z</time>
      </trkpt>
      <trkpt lat="47.92802" lon="-1.74646">
        <ele>27</ele>
        <time>2007-12-24T11:20:44Z</time>
      </trkpt>
      <trkpt lat="47.92805" lon="-1.74659">
        <ele>26</ele>
        <time>2007-12-24T11:20:47Z</time>
      </trkpt>
      <trkpt lat="47.92806" lon="-1.74668">
        <ele>25</ele>
        <time>2007-12-24T11:20:50Z</time>
      </trkpt>
      <trkpt lat="47.92817" lon="-1.74722">
        <ele>20</ele>
        <time>2007-12-24T11:21:05Z</time>
      </trkpt>
      <trkpt lat="47.92818" lon="-1.74742">
        <ele>19</ele>
        <time>2007-12-24T11:21:10Z</time>
      </trkpt>
      <trkpt lat="47.9282" lon="-1.74755">
        <ele>18</ele>
        <time>2007-12-24T11:21:14Z</time>
      </trkpt>
      <trkpt lat="47.92822" lon="-1.7478">
        <ele>17</ele>
        <time>2007-12-24T11:21:21Z</time>
      </trkpt>
      <trkpt lat="47.92821" lon="-1.74807">
        <ele>17</ele>
        <time>2007-12-24T11:21:28Z</time>
      </trkpt>
      <trkpt lat="47.9282" lon="-1.74831">
        <ele>16</ele>
        <time>2007-12-24T11:21:34Z</time>
      </trkpt>
      <trkpt lat="47.9282" lon="-1.74845">
        <ele>16</ele>
        <time>2007-12-24T11:21:38Z</time>
      </trkpt>
      <trkpt lat="47.92811" lon="-1.74886">
        <ele>16</ele>
        <time>2007-12-24T11:21:50Z</time>
      </trkpt>
      <trkpt lat="47.9281" lon="-1.749">
        <ele>16</ele>
        <time>2007-12-24T11:21:53Z</time>
      </trkpt>
      <trkpt lat="47.92805" lon="-1.7496">
        <ele>16</ele>
        <time>2007-12-24T11:22:10Z</time>
      </trkpt>
      <trkpt lat="47.92798" lon="-1.74988">
        <ele>16</ele>
        <time>2007-12-24T11:22:18Z</time>
      </trkpt>
      <trkpt lat="47.92792" lon="-1.74998">
        <ele>15</ele>
        <time>2007-12-24T11:22:21Z</time>
      </trkpt>
      <trkpt lat="47.92791" lon="-1.75018">
        <ele>15</ele>
        <time>2007-12-24T11:22:27Z</time>
      </trkpt>
      <trkpt lat="47.92797" lon="-1.75057">
        <ele>15</ele>
        <time>2007-12-24T11:22:37Z</time>
      </trkpt>
      <trkpt lat="47.92796" lon="-1.75063">
        <ele>15</ele>
        <time>2007-12-24T11:22:39Z</time>
      </trkpt>
      <trkpt lat="47.92788" lon="-1.75086">
        <ele>15</ele>
        <time>2007-12-24T11:22:46Z</time>
      </trkpt>
      <trkpt lat="47.92768" lon="-1.7511">
        <ele>14</ele>
        <time>2007-12-24T11:22:56Z</time>
      </trkpt>
      <trkpt lat="47.92756" lon="-1.75123">
        <ele>14</ele>
        <time>2007-12-24T11:23:02Z</time>
      </trkpt>
      <trkpt lat="47.92747" lon="-1.75156">
        <ele>14</ele>
        <time>2007-12-24T11:23:12Z</time>
      </trkpt>
      <trkpt lat="47.92747" lon="-1.75215">
        <ele>14</ele>
        <time>2007-12-24T11:23:28Z</time>
      </trkpt>
      <trkpt lat="47.92745" lon="-1.75274">
        <ele>14</ele>
        <time>2007-12-24T11:23:43Z</time>
      </trkpt>
      <trkpt lat="47.92744" lon="-1.75342">
        <ele>14</ele>
        <time>2007-12-24T11:24:02Z</time>
      </trkpt>
      <trkpt lat="47.92738" lon="-1.754">
        <ele>13</ele>
        <time>2007-12-24T11:24:17Z</time>
      </trkpt>
      <trkpt lat="47.92738" lon="-1.75452">
        <ele>13</ele>
        <time>2007-12-24T11:24:31Z</time>
      </trkpt>
      <trkpt lat="47.92748" lon="-1.7551">
        <ele>11</ele>
        <time>2007-12-24T11:24:48Z</time>
      </trkpt>
      <trkpt lat="47.92762" lon="-1.7556">
        <ele>11</ele>
        <time>2007-12-24T11:25:02Z</time>
      </trkpt>
      <trkpt lat="47.92773" lon="-1.75606">
        <ele>11</ele>
        <time>2007-12-24T11:25:15Z</time>
      </trkpt>
      <trkpt lat="47.92775" lon="-1.75629">
        <ele>11</ele>
        <time>2007-12-24T11:25:21Z</time>
      </trkpt>
      <trkpt lat="47.92781" lon="-1.75669">
        <ele>11</ele>
        <time>2007-12-24T11:25:32Z</time>
      </trkpt>
      <trkpt lat="47.9279" lon="-1.75686">
        <ele>11</ele>
        <time>2007-12-24T11:25:38Z</time>
      </trkpt>
      <trkpt lat="47.92809" lon="-1.75714">
        <ele>11</ele>
        <time>2007-12-24T11:25:49Z</time>
      </trkpt>
      <trkpt lat="47.92817" lon="-1.7572">
        <ele>11</ele>
        <time>2007-12-24T11:25:52Z</time>
      </trkpt>
      <trkpt lat="47.9286" lon="-1.7575">
        <ele>12</ele>
        <time>2007-12-24T11:26:12Z</time>
      </trkpt>
      <trkpt lat="47.9289" lon="-1.75769">
        <ele>13</ele>
        <time>2007-12-24T11:26:25Z</time>
      </trkpt>
      <trkpt lat="47.92919" lon="-1.75802">
        <ele>13</ele>
        <time>2007-12-24T11:26:39Z</time>
      </trkpt>
      <trkpt lat="47.92945" lon="-1.75843">
        <ele>12</ele>
        <time>2007-12-24T11:26:54Z</time>
      </trkpt>
      <trkpt lat="47.92963" lon="-1.75869">
        <ele>12</ele>
        <time>2007-12-24T11:27:04Z</time>
      </trkpt>
      <trkpt lat="47.92988" lon="-1.75896">
        <ele>12</ele>
        <time>2007-12-24T11:27:16Z</time>
      </trkpt>
      <trkpt lat="47.93043" lon="-1.75918">
        <ele>12</ele>
        <time>2007-12-24T11:27:39Z</time>
      </trkpt>
      <trkpt lat="47.93086" lon="-1.75931">
        <ele>13</ele>
        <time>2007-12-24T11:27:57Z</time>
      </trkpt>
      <trkpt lat="47.9313" lon="-1.75938">
        <ele>13</ele>
        <time>2007-12-24T11:28:14Z</time>
      </trkpt>
      <trkpt lat="47.9317" lon="-1.75939">
        <ele>12</ele>
        <time>2007-12-24T11:28:31Z</time>
      </trkpt>
      <trkpt lat="47.93185" lon="-1.75935">
        <ele>12</ele>
        <time>2007-12-24T11:28:37Z</time>
      </trkpt>
      <trkpt lat="47.93197" lon="-1.7592">
        <ele>13</ele>
        <time>2007-12-24T11:28:43Z</time>
      </trkpt>
      <trkpt lat="47.93195" lon="-1.75892">
        <ele>14</ele>
        <time>2007-12-24T11:28:51Z</time>
      </trkpt>
      <trkpt lat="47.93193" lon="-1.75887">
        <ele>14</ele>
        <time>2007-12-24T11:28:52Z</time>
      </trkpt>
      <trkpt lat="47.93176" lon="-1.75839">
        <ele>16</ele>
        <time>2007-12-24T11:29:07Z</time>
      </trkpt>
      <trkpt lat="47.93167" lon="-1.75802">
        <ele>17</ele>
        <time>2007-12-24T11:29:17Z</time>
      </trkpt>
      <trkpt lat="47.93167" lon="-1.75796">
        <ele>17</ele>
        <time>2007-12-24T11:29:19Z</time>
      </trkpt>
      <trkpt lat="47.93157" lon="-1.75747">
        <ele>18</ele>
        <time>2007-12-24T11:29:33Z</time>
      </trkpt>
      <trkpt lat="47.93135" lon="-1.75685">
        <ele>19</ele>
        <time>2007-12-24T11:29:52Z</time>
      </trkpt>
      <trkpt lat="47.93147" lon="-1.75692">
        <ele>19</ele>
        <time>2007-12-24T11:29:57Z</time>
      </trkpt>
      <trkpt lat="47.93157" lon="-1.7568">
        <ele>19</ele>
        <time>2007-12-24T11:30:02Z</time>
      </trkpt>
      <trkpt lat="47.93164" lon="-1.75677">
        <ele>19</ele>
        <time>2007-12-24T11:30:05Z</time>
      </trkpt>
      <trkpt lat="47.93203" lon="-1.7566">
        <ele>20</ele>
        <time>2007-12-24T11:30:21Z</time>
      </trkpt>
      <trkpt lat="47.9325" lon="-1.75636">
        <ele>21</ele>
        <time>2007-12-24T11:30:41Z</time>
      </trkpt>
      <trkpt lat="47.93284" lon="-1.75615">
        <ele>22</ele>
        <time>2007-12-24T11:30:56Z</time>
      </trkpt>
      <trkpt lat="47.93328" lon="-1.7559">
        <ele>23</ele>
        <time>2007-12-24T11:31:15Z</time>
      </trkpt>
      <trkpt lat="47.93357" lon="-1.75576">
        <ele>23</ele>
        <time>2007-12-24T11:31:27Z</time>
      </trkpt>
      <trkpt lat="47.93365" lon="-1.75573">
        <ele>23</ele>
        <time>2007-12-24T11:31:30Z</time>
      </trkpt>
      <trkpt lat="47.93392" lon="-1.75554">
        <ele>22</ele>
        <time>2007-12-24T11:31:42Z</time>
      </trkpt>
      <trkpt lat="47.93402" lon="-1.75543">
        <ele>22</ele>
        <time>2007-12-24T11:31:47Z</time>
      </trkpt>
      <trkpt lat="47.93423" lon="-1.75525">
        <ele>21</ele>
        <time>2007-12-24T11:31:57Z</time>
      </trkpt>
      <trkpt lat="47.93447" lon="-1.75495">
        <ele>21</ele>
        <time>2007-12-24T11:32:09Z</time>
      </trkpt>
      <trkpt lat="47.93474" lon="-1.75466">
        <ele>21</ele>
        <time>2007-12-24T11:32:22Z</time>
      </trkpt>
      <trkpt lat="47.93478" lon="-1.7545">
        <ele>21</ele>
        <time>2007-12-24T11:32:27Z</time>
      </trkpt>
      <trkpt lat="47.93481" lon="-1.7543">
        <ele>23</ele>
        <time>2007-12-24T11:32:33Z</time>
      </trkpt>
      <trkpt lat="47.93492" lon="-1.7541">
        <ele>23</ele>
        <time>2007-12-24T11:32:40Z</time>
      </trkpt>
      <trkpt lat="47.935" lon="-1.75391">
        <ele>24</ele>
        <time>2007-12-24T11:32:46Z</time>
      </trkpt>
      <trkpt lat="47.93507" lon="-1.75373">
        <ele>26</ele>
        <time>2007-12-24T11:32:51Z</time>
      </trkpt>
      <trkpt lat="47.93518" lon="-1.75343">
        <ele>26</ele>
        <time>2007-12-24T11:33:00Z</time>
      </trkpt>
      <trkpt lat="47.93529" lon="-1.75306">
        <ele>27</ele>
        <time>2007-12-24T11:33:11Z</time>
      </trkpt>
      <trkpt lat="47.93545" lon="-1.75257">
        <ele>28</ele>
        <time>2007-12-24T11:33:26Z</time>
      </trkpt>
      <trkpt lat="47.9355" lon="-1.75239">
        <ele>29</ele>
        <time>2007-12-24T11:33:31Z</time>
      </trkpt>
      <trkpt lat="47.93555" lon="-1.75218">
        <ele>31</ele>
        <time>2007-12-24T11:33:37Z</time>
      </trkpt>
      <trkpt lat="47.93565" lon="-1.752">
        <ele>32</ele>
        <time>2007-12-24T11:33:43Z</time>
      </trkpt>
      <trkpt lat="47.93572" lon="-1.75196">
        <ele>32</ele>
        <time>2007-12-24T11:33:46Z</time>
      </trkpt>
      <trkpt lat="47.936" lon="-1.75182">
        <ele>33</ele>
        <time>2007-12-24T11:33:58Z</time>
      </trkpt>
      <trkpt lat="47.93612" lon="-1.75187">
        <ele>31</ele>
        <time>2007-12-24T11:34:03Z</time>
      </trkpt>
      <trkpt lat="47.93624" lon="-1.75189">
        <ele>29</ele>
        <time>2007-12-24T11:34:08Z</time>
      </trkpt>
      <trkpt lat="47.9364" lon="-1.75184">
        <ele>29</ele>
        <time>2007-12-24T11:34:14Z</time>
      </trkpt>
      <trkpt lat="47.93653" lon="-1.75167">
        <ele>31</ele>
        <time>2007-12-24T11:34:21Z</time>
      </trkpt>
      <trkpt lat="47.93672" lon="-1.75143">
        <ele>31</ele>
        <time>2007-12-24T11:34:31Z</time>
      </trkpt>
      <trkpt lat="47.93683" lon="-1.75121">
        <ele>33</ele>
        <time>2007-12-24T11:34:39Z</time>
      </trkpt>
      <trkpt lat="47.93685" lon="-1.75092">
        <ele>36</ele>
        <time>2007-12-24T11:34:47Z</time>
      </trkpt>
      <trkpt lat="47.93689" lon="-1.75049">
        <ele>40</ele>
        <time>2007-12-24T11:34:58Z</time>
      </trkpt>
      <trkpt lat="47.9369" lon="-1.75015">
        <ele>43</ele>
        <time>2007-12-24T11:35:07Z</time>
      </trkpt>
      <trkpt lat="47.93692" lon="-1.74994">
        <ele>44</ele>
        <time>2007-12-24T11:35:13Z</time>
      </trkpt>
      <trkpt lat="47.93695" lon="-1.74947">
        <ele>48</ele>
        <time>2007-12-24T11:35:26Z</time>
      </trkpt>
      <trkpt lat="47.93698" lon="-1.74905">
        <ele>50</ele>
        <time>2007-12-24T11:35:37Z</time>
      </trkpt>
      <trkpt lat="47.93704" lon="-1.74858">
        <ele>51</ele>
        <time>2007-12-24T11:35:50Z</time>
      </trkpt>
      <trkpt lat="47.93712" lon="-1.74802">
        <ele>52</ele>
        <time>2007-12-24T11:36:05Z</time>
      </trkpt>
      <trkpt lat="47.93717" lon="-1.74761">
        <ele>53</ele>
        <time>2007-12-24T11:36:16Z</time>
      </trkpt>
      <trkpt lat="47.93719" lon="-1.74739">
        <ele>54</ele>
        <time>2007-12-24T11:36:22Z</time>
      </trkpt>
      <trkpt lat="47.93722" lon="-1.747">
        <ele>56</ele>
        <time>2007-12-24T11:36:33Z</time>
      </trkpt>
      <trkpt lat="47.93725" lon="-1.74662">
        <ele>57</ele>
        <time>2007-12-24T11:36:43Z</time>
      </trkpt>
      <trkpt lat="47.9373" lon="-1.7463">
        <ele>58</ele>
        <time>2007-12-24T11:36:52Z</time>
      </trkpt>
      <trkpt lat="47.93737" lon="-1.74594">
        <ele>59</ele>
        <time>2007-12-24T11:37:02Z</time>
      </trkpt>
      <trkpt lat="47.93738" lon="-1.74553">
        <ele>59</ele>
        <time>2007-12-24T11:37:13Z</time>
      </trkpt>
      <trkpt lat="47.93739" lon="-1.74513">
        <ele>60</ele>
        <time>2007-12-24T11:37:24Z</time>
      </trkpt>
      <trkpt lat="47.9374" lon="-1.74472">
        <ele>60</ele>
        <time>2007-12-24T11:37:35Z</time>
      </trkpt>
      <trkpt lat="47.93745" lon="-1.74411">
        <ele>61</ele>
        <time>2007-12-24T11:37:51Z</time>
      </trkpt>
      <trkpt lat="47.9375" lon="-1.74368">
        <ele>62</ele>
        <time>2007-12-24T11:38:03Z</time>
      </trkpt>
      <trkpt lat="47.9376" lon="-1.74355">
        <ele>62</ele>
        <time>2007-12-24T11:38:08Z</time>
      </trkpt>
      <trkpt lat="47.93784" lon="-1.74345">
        <ele>62</ele>
        <time>2007-12-24T11:38:18Z</time>
      </trkpt>
      <trkpt lat="47.938" lon="-1.74342">
        <ele>62</ele>
        <time>2007-12-24T11:38:25Z</time>
      </trkpt>
      <trkpt lat="47.9382" lon="-1.7434">
        <ele>63</ele>
        <time>2007-12-24T11:38:33Z</time>
      </trkpt>
      <trkpt lat="47.93835" lon="-1.74339">
        <ele>64</ele>
        <time>2007-12-24T11:38:39Z</time>
      </trkpt>
      <trkpt lat="47.93855" lon="-1.74347">
        <ele>65</ele>
        <time>2007-12-24T11:38:47Z</time>
      </trkpt>
      <trkpt lat="47.93874" lon="-1.74351">
        <ele>67</ele>
        <time>2007-12-24T11:38:54Z</time>
      </trkpt>
      <trkpt lat="47.93887" lon="-1.74356">
        <ele>68</ele>
        <time>2007-12-24T11:39:00Z</time>
      </trkpt>
      <trkpt lat="47.93905" lon="-1.74367">
        <ele>69</ele>
        <time>2007-12-24T11:39:08Z</time>
      </trkpt>
      <trkpt lat="47.9392" lon="-1.74383">
        <ele>69</ele>
        <time>2007-12-24T11:39:15Z</time>
      </trkpt>
      <trkpt lat="47.93932" lon="-1.74399">
        <ele>68</ele>
        <time>2007-12-24T11:39:22Z</time>
      </trkpt>
      <trkpt lat="47.93944" lon="-1.74417">
        <ele>68</ele>
        <time>2007-12-24T11:39:28Z</time>
      </trkpt>
      <trkpt lat="47.93955" lon="-1.74433">
        <ele>67</ele>
        <time>2007-12-24T11:39:34Z</time>
      </trkpt>
      <trkpt lat="47.93975" lon="-1.74462">
        <ele>66</ele>
        <time>2007-12-24T11:39:46Z</time>
      </trkpt>
      <trkpt lat="47.93994" lon="-1.74475">
        <ele>66</ele>
        <time>2007-12-24T11:39:54Z</time>
      </trkpt>
      <trkpt lat="47.94016" lon="-1.7448">
        <ele>66</ele>
        <time>2007-12-24T11:40:03Z</time>
      </trkpt>
      <trkpt lat="47.94027" lon="-1.74483">
        <ele>66</ele>
        <time>2007-12-24T11:40:08Z</time>
      </trkpt>
      <trkpt lat="47.94538" lon="-1.74337">
        <ele>43</ele>
        <time>2007-12-24T11:43:36Z</time>
      </trkpt>
      <trkpt lat="47.94538" lon="-1.7434">
        <ele>43</ele>
        <time>2007-12-24T11:43:37Z</time>
      </trkpt>
      <trkpt lat="47.9454" lon="-1.7434">
        <ele>43</ele>
        <time>2007-12-24T11:43:37Z</time>
      </trkpt>
      <trkpt lat="47.94552" lon="-1.7434">
        <ele>41</ele>
        <time>2007-12-24T11:43:42Z</time>
      </trkpt>
      <trkpt lat="47.94555" lon="-1.74339">
        <ele>40</ele>
        <time>2007-12-24T11:43:43Z</time>
      </trkpt>
      <trkpt lat="47.94567" lon="-1.74355">
        <ele>38</ele>
        <time>2007-12-24T11:43:50Z</time>
      </trkpt>
      <trkpt lat="47.9457" lon="-1.74358">
        <ele>38</ele>
        <time>2007-12-24T11:43:51Z</time>
      </trkpt>
      <trkpt lat="47.94588" lon="-1.7438">
        <ele>35</ele>
        <time>2007-12-24T11:44:01Z</time>
      </trkpt>
      <trkpt lat="47.94615" lon="-1.7442">
        <ele>31</ele>
        <time>2007-12-24T11:44:16Z</time>
      </trkpt>
      <trkpt lat="47.94634" lon="-1.74477">
        <ele>29</ele>
        <time>2007-12-24T11:44:33Z</time>
      </trkpt>
      <trkpt lat="47.94641" lon="-1.74533">
        <ele>27</ele>
        <time>2007-12-24T11:44:48Z</time>
      </trkpt>
      <trkpt lat="47.94648" lon="-1.74565">
        <ele>26</ele>
        <time>2007-12-24T11:44:57Z</time>
      </trkpt>
      <trkpt lat="47.94668" lon="-1.74594">
        <ele>25</ele>
        <time>2007-12-24T11:45:08Z</time>
      </trkpt>
      <trkpt lat="47.94675" lon="-1.74599">
        <ele>24</ele>
        <time>2007-12-24T11:45:11Z</time>
      </trkpt>
      <trkpt lat="47.94737" lon="-1.74626">
        <ele>21</ele>
        <time>2007-12-24T11:45:37Z</time>
      </trkpt>
      <trkpt lat="47.94743" lon="-1.74628">
        <ele>20</ele>
        <time>2007-12-24T11:45:40Z</time>
      </trkpt>
      <trkpt lat="47.9475" lon="-1.74632">
        <ele>20</ele>
        <time>2007-12-24T11:45:43Z</time>
      </trkpt>
      <trkpt lat="47.9478" lon="-1.74641">
        <ele>18</ele>
        <time>2007-12-24T11:45:55Z</time>
      </trkpt>
      <trkpt lat="47.94815" lon="-1.74652">
        <ele>18</ele>
        <time>2007-12-24T11:46:09Z</time>
      </trkpt>
      <trkpt lat="47.94837" lon="-1.74653">
        <ele>20</ele>
        <time>2007-12-24T11:46:18Z</time>
      </trkpt>
      <trkpt lat="47.94859" lon="-1.74647">
        <ele>22</ele>
        <time>2007-12-24T11:46:27Z</time>
      </trkpt>
      <trkpt lat="47.9487" lon="-1.74641">
        <ele>23</ele>
        <time>2007-12-24T11:46:32Z</time>
      </trkpt>
      <trkpt lat="47.94874" lon="-1.7464">
        <ele>23</ele>
        <time>2007-12-24T11:46:33Z</time>
      </trkpt>
      <trkpt lat="47.94905" lon="-1.74628">
        <ele>26</ele>
        <time>2007-12-24T11:46:46Z</time>
      </trkpt>
      <trkpt lat="47.9493" lon="-1.74622">
        <ele>27</ele>
        <time>2007-12-24T11:46:56Z</time>
      </trkpt>
      <trkpt lat="47.94957" lon="-1.74612">
        <ele>29</ele>
        <time>2007-12-24T11:47:07Z</time>
      </trkpt>
      <trkpt lat="47.94979" lon="-1.74604">
        <ele>31</ele>
        <time>2007-12-24T11:47:16Z</time>
      </trkpt>
      <trkpt lat="47.95" lon="-1.74595">
        <ele>34</ele>
        <time>2007-12-24T11:47:25Z</time>
      </trkpt>
      <trkpt lat="47.95023" lon="-1.74584">
        <ele>36</ele>
        <time>2007-12-24T11:47:35Z</time>
      </trkpt>
      <trkpt lat="47.95052" lon="-1.7457">
        <ele>37</ele>
        <time>2007-12-24T11:47:47Z</time>
      </trkpt>
      <trkpt lat="47.95077" lon="-1.7456">
        <ele>37</ele>
        <time>2007-12-24T11:47:57Z</time>
      </trkpt>
      <trkpt lat="47.95107" lon="-1.74548">
        <ele>37</ele>
        <time>2007-12-24T11:48:10Z</time>
      </trkpt>
      <trkpt lat="47.95134" lon="-1.7454">
        <ele>38</ele>
        <time>2007-12-24T11:48:21Z</time>
      </trkpt>
      <trkpt lat="47.95161" lon="-1.74528">
        <ele>40</ele>
        <time>2007-12-24T11:48:32Z</time>
      </trkpt>
      <trkpt lat="47.95177" lon="-1.74517">
        <ele>42</ele>
        <time>2007-12-24T11:48:39Z</time>
      </trkpt>
      <trkpt lat="47.95184" lon="-1.7451">
        <ele>43</ele>
        <time>2007-12-24T11:48:42Z</time>
      </trkpt>
      <trkpt lat="47.95192" lon="-1.74499">
        <ele>44</ele>
        <time>2007-12-24T11:48:47Z</time>
      </trkpt>
      <trkpt lat="47.95203" lon="-1.7449">
        <ele>46</ele>
        <time>2007-12-24T11:48:52Z</time>
      </trkpt>
      <trkpt lat="47.95217" lon="-1.74479">
        <ele>48</ele>
        <time>2007-12-24T11:48:58Z</time>
      </trkpt>
      <trkpt lat="47.95232" lon="-1.74464">
        <ele>51</ele>
        <time>2007-12-24T11:49:05Z</time>
      </trkpt>
      <trkpt lat="47.95243" lon="-1.7445">
        <ele>54</ele>
        <time>2007-12-24T11:49:11Z</time>
      </trkpt>
      <trkpt lat="47.95255" lon="-1.74434">
        <ele>56</ele>
        <time>2007-12-24T11:49:18Z</time>
      </trkpt>
      <trkpt lat="47.95262" lon="-1.74428">
        <ele>57</ele>
        <time>2007-12-24T11:49:21Z</time>
      </trkpt>
      <trkpt lat="47.95272" lon="-1.74421">
        <ele>57</ele>
        <time>2007-12-24T11:49:25Z</time>
      </trkpt>
      <trkpt lat="47.9528" lon="-1.74416">
        <ele>58</ele>
        <time>2007-12-24T11:49:29Z</time>
      </trkpt>
      <trkpt lat="47.95289" lon="-1.7441">
        <ele>58</ele>
        <time>2007-12-24T11:49:33Z</time>
      </trkpt>
      <trkpt lat="47.95299" lon="-1.74402">
        <ele>59</ele>
        <time>2007-12-24T11:49:37Z</time>
      </trkpt>
      <trkpt lat="47.9531" lon="-1.74393">
        <ele>60</ele>
        <time>2007-12-24T11:49:42Z</time>
      </trkpt>
      <trkpt lat="47.9532" lon="-1.74388">
        <ele>60</ele>
        <time>2007-12-24T11:49:46Z</time>
      </trkpt>
      <trkpt lat="47.95328" lon="-1.74378">
        <ele>61</ele>
        <time>2007-12-24T11:49:51Z</time>
      </trkpt>
      <trkpt lat="47.9534" lon="-1.74367">
        <ele>62</ele>
        <time>2007-12-24T11:49:56Z</time>
      </trkpt>
      <trkpt lat="47.9535" lon="-1.7436">
        <ele>63</ele>
        <time>2007-12-24T11:50:01Z</time>
      </trkpt>
      <trkpt lat="47.95356" lon="-1.74352">
        <ele>63</ele>
        <time>2007-12-24T11:50:04Z</time>
      </trkpt>
      <trkpt lat="47.9536" lon="-1.74348">
        <ele>64</ele>
        <time>2007-12-24T11:50:06Z</time>
      </trkpt>
      <trkpt lat="47.95373" lon="-1.74337">
        <ele>64</ele>
        <time>2007-12-24T11:50:12Z</time>
      </trkpt>
      <trkpt lat="47.95377" lon="-1.74337">
        <ele>64</ele>
        <time>2007-12-24T11:50:13Z</time>
      </trkpt>
      <trkpt lat="47.95397" lon="-1.74327">
        <ele>64</ele>
        <time>2007-12-24T11:50:22Z</time>
      </trkpt>
      <trkpt lat="47.95414" lon="-1.74325">
        <ele>64</ele>
        <time>2007-12-24T11:50:29Z</time>
      </trkpt>
      <trkpt lat="47.95435" lon="-1.74323">
        <ele>63</ele>
        <time>2007-12-24T11:50:37Z</time>
      </trkpt>
      <trkpt lat="47.95442" lon="-1.74325">
        <ele>62</ele>
        <time>2007-12-24T11:50:40Z</time>
      </trkpt>
      <trkpt lat="47.95447" lon="-1.7432">
        <ele>62</ele>
        <time>2007-12-24T11:50:42Z</time>
      </trkpt>
      <trkpt lat="47.95452" lon="-1.74302">
        <ele>63</ele>
        <time>2007-12-24T11:50:48Z</time>
      </trkpt>
      <trkpt lat="47.95445" lon="-1.74282">
        <ele>64</ele>
        <time>2007-12-24T11:50:54Z</time>
      </trkpt>
      <trkpt lat="47.95438" lon="-1.7426">
        <ele>66</ele>
        <time>2007-12-24T11:51:00Z</time>
      </trkpt>
      <trkpt lat="47.95432" lon="-1.74247">
        <ele>67</ele>
        <time>2007-12-24T11:51:04Z</time>
      </trkpt>
      <trkpt lat="47.95428" lon="-1.74237">
        <ele>68</ele>
        <time>2007-12-24T11:51:08Z</time>
      </trkpt>
      <trkpt lat="47.9542" lon="-1.74221">
        <ele>69</ele>
        <time>2007-12-24T11:51:13Z</time>
      </trkpt>
      <trkpt lat="47.95417" lon="-1.74203">
        <ele>70</ele>
        <time>2007-12-24T11:51:18Z</time>
      </trkpt>
      <trkpt lat="47.95409" lon="-1.74186">
        <ele>71</ele>
        <time>2007-12-24T11:51:23Z</time>
      </trkpt>
      <trkpt lat="47.95403" lon="-1.74164">
        <ele>72</ele>
        <time>2007-12-24T11:51:30Z</time>
      </trkpt>
      <trkpt lat="47.954" lon="-1.74137">
        <ele>73</ele>
        <time>2007-12-24T11:51:37Z</time>
      </trkpt>
      <trkpt lat="47.95403" lon="-1.74115">
        <ele>74</ele>
        <time>2007-12-24T11:51:43Z</time>
      </trkpt>
      <trkpt lat="47.95403" lon="-1.7411">
        <ele>74</ele>
        <time>2007-12-24T11:51:45Z</time>
      </trkpt>
      <trkpt lat="47.9541" lon="-1.74086">
        <ele>75</ele>
        <time>2007-12-24T11:51:52Z</time>
      </trkpt>
      <trkpt lat="47.95412" lon="-1.7407">
        <ele>76</ele>
        <time>2007-12-24T11:51:56Z</time>
      </trkpt>
      <trkpt lat="47.95406" lon="-1.74062">
        <ele>77</ele>
        <time>2007-12-24T11:51:59Z</time>
      </trkpt>
      <trkpt lat="47.95395" lon="-1.74054">
        <ele>78</ele>
        <time>2007-12-24T11:52:04Z</time>
      </trkpt>
      <trkpt lat="47.95378" lon="-1.74045">
        <ele>79</ele>
        <time>2007-12-24T11:52:11Z</time>
      </trkpt>
      <trkpt lat="47.95365" lon="-1.74037">
        <ele>80</ele>
        <time>2007-12-24T11:52:17Z</time>
      </trkpt>
      <trkpt lat="47.95348" lon="-1.74027">
        <ele>81</ele>
        <time>2007-12-24T11:52:24Z</time>
      </trkpt>
      <trkpt lat="47.95332" lon="-1.74021">
        <ele>82</ele>
        <time>2007-12-24T11:52:31Z</time>
      </trkpt>
      <trkpt lat="47.9533" lon="-1.74018">
        <ele>82</ele>
        <time>2007-12-24T11:52:32Z</time>
      </trkpt>
      <trkpt lat="47.95323" lon="-1.74001">
        <ele>83</ele>
        <time>2007-12-24T11:52:37Z</time>
      </trkpt>
      <trkpt lat="47.95324" lon="-1.73994">
        <ele>84</ele>
        <time>2007-12-24T11:52:39Z</time>
      </trkpt>
      <trkpt lat="47.95324" lon="-1.73977">
        <ele>85</ele>
        <time>2007-12-24T11:52:44Z</time>
      </trkpt>
      <trkpt lat="47.95327" lon="-1.73952">
        <ele>86</ele>
        <time>2007-12-24T11:52:50Z</time>
      </trkpt>
      <trkpt lat="47.95328" lon="-1.73932">
        <ele>87</ele>
        <time>2007-12-24T11:52:56Z</time>
      </trkpt>
      <trkpt lat="47.9533" lon="-1.73913">
        <ele>87</ele>
        <time>2007-12-24T11:53:01Z</time>
      </trkpt>
      <trkpt lat="47.9533" lon="-1.73895">
        <ele>88</ele>
        <time>2007-12-24T11:53:06Z</time>
      </trkpt>
      <trkpt lat="47.9533" lon="-1.73875">
        <ele>89</ele>
        <time>2007-12-24T11:53:11Z</time>
      </trkpt>
      <trkpt lat="47.9533" lon="-1.73859">
        <ele>90</ele>
        <time>2007-12-24T11:53:16Z</time>
      </trkpt>
      <trkpt lat="47.95332" lon="-1.73832">
        <ele>90</ele>
        <time>2007-12-24T11:53:23Z</time>
      </trkpt>
      <trkpt lat="47.95335" lon="-1.73812">
        <ele>91</ele>
        <time>2007-12-24T11:53:28Z</time>
      </trkpt>
      <trkpt lat="47.95335" lon="-1.73795">
        <ele>91</ele>
        <time>2007-12-24T11:53:33Z</time>
      </trkpt>
      <trkpt lat="47.95337" lon="-1.73774">
        <ele>92</ele>
        <time>2007-12-24T11:53:39Z</time>
      </trkpt>
      <trkpt lat="47.95336" lon="-1.73749">
        <ele>92</ele>
        <time>2007-12-24T11:53:45Z</time>
      </trkpt>
      <trkpt lat="47.95339" lon="-1.73723">
        <ele>93</ele>
        <time>2007-12-24T11:53:52Z</time>
      </trkpt>
      <trkpt lat="47.95339" lon="-1.73715">
        <ele>93</ele>
        <time>2007-12-24T11:53:54Z</time>
      </trkpt>
      <trkpt lat="47.95337" lon="-1.73699">
        <ele>93</ele>
        <time>2007-12-24T11:53:59Z</time>
      </trkpt>
      <trkpt lat="47.95335" lon="-1.7368">
        <ele>94</ele>
        <time>2007-12-24T11:54:04Z</time>
      </trkpt>
      <trkpt lat="47.9534" lon="-1.73659">
        <ele>93</ele>
        <time>2007-12-24T11:54:10Z</time>
      </trkpt>
      <trkpt lat="47.95339" lon="-1.73637">
        <ele>93</ele>
        <time>2007-12-24T11:54:16Z</time>
      </trkpt>
      <trkpt lat="47.9534" lon="-1.73615">
        <ele>93</ele>
        <time>2007-12-24T11:54:22Z</time>
      </trkpt>
      <trkpt lat="47.95342" lon="-1.73588">
        <ele>94</ele>
        <time>2007-12-24T11:54:29Z</time>
      </trkpt>
      <trkpt lat="47.95342" lon="-1.73572">
        <ele>94</ele>
        <time>2007-12-24T11:54:33Z</time>
      </trkpt>
      <trkpt lat="47.95341" lon="-1.73556">
        <ele>94</ele>
        <time>2007-12-24T11:54:38Z</time>
      </trkpt>
      <trkpt lat="47.95342" lon="-1.73537">
        <ele>94</ele>
        <time>2007-12-24T11:54:43Z</time>
      </trkpt>
      <trkpt lat="47.9534" lon="-1.73529">
        <ele>95</ele>
        <time>2007-12-24T11:54:45Z</time>
      </trkpt>
      <trkpt lat="47.95343" lon="-1.73498">
        <ele>95</ele>
        <time>2007-12-24T11:54:53Z</time>
      </trkpt>
      <trkpt lat="47.95343" lon="-1.73489">
        <ele>95</ele>
        <time>2007-12-24T11:54:56Z</time>
      </trkpt>
      <trkpt lat="47.95347" lon="-1.73474">
        <ele>95</ele>
        <time>2007-12-24T11:55:00Z</time>
      </trkpt>
      <trkpt lat="47.95348" lon="-1.73452">
        <ele>95</ele>
        <time>2007-12-24T11:55:06Z</time>
      </trkpt>
      <trkpt lat="47.95352" lon="-1.73432">
        <ele>95</ele>
        <time>2007-12-24T11:55:12Z</time>
      </trkpt>
      <trkpt lat="47.95352" lon="-1.73413">
        <ele>95</ele>
        <time>2007-12-24T11:55:17Z</time>
      </trkpt>
      <trkpt lat="47.95351" lon="-1.73405">
        <ele>95</ele>
        <time>2007-12-24T11:55:19Z</time>
      </trkpt>
      <trkpt lat="47.95353" lon="-1.73404">
        <ele>95</ele>
        <time>2007-12-24T11:55:20Z</time>
      </trkpt>
      <trkpt lat="47.95355" lon="-1.73404">
        <ele>94</ele>
        <time>2007-12-24T11:55:20Z</time>
      </trkpt>
      <trkpt lat="47.95355" lon="-1.73401">
        <ele>94</ele>
        <time>2007-12-24T11:55:21Z</time>
      </trkpt>
      <trkpt lat="47.95357" lon="-1.73393">
        <ele>94</ele>
        <time>2007-12-24T11:55:23Z</time>
      </trkpt>
      <trkpt lat="47.95365" lon="-1.73384">
        <ele>93</ele>
        <time>2007-12-24T11:55:27Z</time>
      </trkpt>
      <trkpt lat="47.95386" lon="-1.73386">
        <ele>91</ele>
        <time>2007-12-24T11:55:36Z</time>
      </trkpt>
      <trkpt lat="47.95405" lon="-1.73388">
        <ele>88</ele>
        <time>2007-12-24T11:55:44Z</time>
      </trkpt>
      <trkpt lat="47.95417" lon="-1.73389">
        <ele>86</ele>
        <time>2007-12-24T11:55:48Z</time>
      </trkpt>
      <trkpt lat="47.95425" lon="-1.73389">
        <ele>85</ele>
        <time>2007-12-24T11:55:52Z</time>
      </trkpt>
      <trkpt lat="47.95437" lon="-1.73391">
        <ele>83</ele>
        <time>2007-12-24T11:55:56Z</time>
      </trkpt>
      <trkpt lat="47.95455" lon="-1.73393">
        <ele>80</ele>
        <time>2007-12-24T11:56:04Z</time>
      </trkpt>
      <trkpt lat="47.9547" lon="-1.73397">
        <ele>78</ele>
        <time>2007-12-24T11:56:10Z</time>
      </trkpt>
      <trkpt lat="47.95486" lon="-1.73403">
        <ele>76</ele>
        <time>2007-12-24T11:56:16Z</time>
      </trkpt>
      <trkpt lat="47.95495" lon="-1.73403">
        <ele>75</ele>
        <time>2007-12-24T11:56:20Z</time>
      </trkpt>
      <trkpt lat="47.95505" lon="-1.73406">
        <ele>74</ele>
        <time>2007-12-24T11:56:24Z</time>
      </trkpt>
      <trkpt lat="47.95533" lon="-1.7341">
        <ele>71</ele>
        <time>2007-12-24T11:56:35Z</time>
      </trkpt>
      <trkpt lat="47.95558" lon="-1.73414">
        <ele>69</ele>
        <time>2007-12-24T11:56:45Z</time>
      </trkpt>
      <trkpt lat="47.95582" lon="-1.73417">
        <ele>67</ele>
        <time>2007-12-24T11:56:55Z</time>
      </trkpt>
      <trkpt lat="47.95596" lon="-1.73419">
        <ele>65</ele>
        <time>2007-12-24T11:57:01Z</time>
      </trkpt>
      <trkpt lat="47.95612" lon="-1.73424">
        <ele>64</ele>
        <time>2007-12-24T11:57:07Z</time>
      </trkpt>
      <trkpt lat="47.95615" lon="-1.73426">
        <ele>63</ele>
        <time>2007-12-24T11:57:09Z</time>
      </trkpt>
      <trkpt lat="47.95617" lon="-1.73427">
        <ele>63</ele>
        <time>2007-12-24T11:57:09Z</time>
      </trkpt>
      <trkpt lat="47.95625" lon="-1.73419">
        <ele>62</ele>
        <time>2007-12-24T11:57:13Z</time>
      </trkpt>
      <trkpt lat="47.95627" lon="-1.73413">
        <ele>62</ele>
        <time>2007-12-24T11:57:15Z</time>
      </trkpt>
      <trkpt lat="47.95631" lon="-1.73412">
        <ele>62</ele>
        <time>2007-12-24T11:57:17Z</time>
      </trkpt>
      <trkpt lat="47.95635" lon="-1.73397">
        <ele>62</ele>
        <time>2007-12-24T11:57:21Z</time>
      </trkpt>
      <trkpt lat="47.95638" lon="-1.73398">
        <ele>61</ele>
        <time>2007-12-24T11:57:22Z</time>
      </trkpt>
      <trkpt lat="47.95638" lon="-1.73402">
        <ele>61</ele>
        <time>2007-12-24T11:57:23Z</time>
      </trkpt>
      <trkpt lat="47.95639" lon="-1.73414">
        <ele>61</ele>
        <time>2007-12-24T11:57:27Z</time>
      </trkpt>
      <trkpt lat="47.9564" lon="-1.73422">
        <ele>61</ele>
        <time>2007-12-24T11:57:29Z</time>
      </trkpt>
      <trkpt lat="47.95643" lon="-1.73438">
        <ele>60</ele>
        <time>2007-12-24T11:57:33Z</time>
      </trkpt>
      <trkpt lat="47.95655" lon="-1.73462">
        <ele>59</ele>
        <time>2007-12-24T11:57:41Z</time>
      </trkpt>
      <trkpt lat="47.95674" lon="-1.73501">
        <ele>57</ele>
        <time>2007-12-24T11:57:54Z</time>
      </trkpt>
      <trkpt lat="47.95678" lon="-1.73507">
        <ele>56</ele>
        <time>2007-12-24T11:57:56Z</time>
      </trkpt>
      <trkpt lat="47.95686" lon="-1.73508">
        <ele>56</ele>
        <time>2007-12-24T11:58:00Z</time>
      </trkpt>
      <trkpt lat="47.9569" lon="-1.7351">
        <ele>55</ele>
        <time>2007-12-24T11:58:01Z</time>
      </trkpt>
      <trkpt lat="47.95692" lon="-1.7351">
        <ele>55</ele>
        <time>2007-12-24T11:58:02Z</time>
      </trkpt>
      <trkpt lat="47.95692" lon="-1.73508">
        <ele>55</ele>
        <time>2007-12-24T11:58:02Z</time>
      </trkpt>
      <trkpt lat="47.95694" lon="-1.73509">
        <ele>55</ele>
        <time>2007-12-24T11:58:03Z</time>
      </trkpt>
      <trkpt lat="47.957" lon="-1.73513">
        <ele>54</ele>
        <time>2007-12-24T11:58:06Z</time>
      </trkpt>
      <trkpt lat="47.9571" lon="-1.73517">
        <ele>53</ele>
        <time>2007-12-24T11:58:10Z</time>
      </trkpt>
      <trkpt lat="47.95737" lon="-1.73527">
        <ele>51</ele>
        <time>2007-12-24T11:58:21Z</time>
      </trkpt>
      <trkpt lat="47.95769" lon="-1.73537">
        <ele>47</ele>
        <time>2007-12-24T11:58:34Z</time>
      </trkpt>
      <trkpt lat="47.95788" lon="-1.73542">
        <ele>45</ele>
        <time>2007-12-24T11:58:42Z</time>
      </trkpt>
      <trkpt lat="47.95805" lon="-1.73548">
        <ele>43</ele>
        <time>2007-12-24T11:58:49Z</time>
      </trkpt>
      <trkpt lat="47.95818" lon="-1.73553">
        <ele>42</ele>
        <time>2007-12-24T11:58:55Z</time>
      </trkpt>
      <trkpt lat="47.95867" lon="-1.73574">
        <ele>38</ele>
        <time>2007-12-24T11:59:15Z</time>
      </trkpt>
      <trkpt lat="47.9588" lon="-1.73579">
        <ele>37</ele>
        <time>2007-12-24T11:59:20Z</time>
      </trkpt>
      <trkpt lat="47.95928" lon="-1.73593">
        <ele>34</ele>
        <time>2007-12-24T11:59:40Z</time>
      </trkpt>
      <trkpt lat="47.95935" lon="-1.73595">
        <ele>33</ele>
        <time>2007-12-24T11:59:42Z</time>
      </trkpt>
      <trkpt lat="47.95972" lon="-1.73604">
        <ele>31</ele>
        <time>2007-12-24T11:59:58Z</time>
      </trkpt>
      <trkpt lat="47.95984" lon="-1.73608">
        <ele>30</ele>
        <time>2007-12-24T12:00:02Z</time>
      </trkpt>
      <trkpt lat="47.95998" lon="-1.73619">
        <ele>29</ele>
        <time>2007-12-24T12:00:09Z</time>
      </trkpt>
      <trkpt lat="47.96019" lon="-1.73623">
        <ele>28</ele>
        <time>2007-12-24T12:00:17Z</time>
      </trkpt>
      <trkpt lat="47.96029" lon="-1.73625">
        <ele>28</ele>
        <time>2007-12-24T12:00:21Z</time>
      </trkpt>
      <trkpt lat="47.9605" lon="-1.73631">
        <ele>27</ele>
        <time>2007-12-24T12:00:30Z</time>
      </trkpt>
      <trkpt lat="47.96092" lon="-1.73628">
        <ele>24</ele>
        <time>2007-12-24T12:00:47Z</time>
      </trkpt>
      <trkpt lat="47.96097" lon="-1.73628">
        <ele>24</ele>
        <time>2007-12-24T12:00:49Z</time>
      </trkpt>
      <trkpt lat="47.96117" lon="-1.73628">
        <ele>22</ele>
        <time>2007-12-24T12:00:57Z</time>
      </trkpt>
      <trkpt lat="47.96144" lon="-1.73615">
        <ele>20</ele>
        <time>2007-12-24T12:01:08Z</time>
      </trkpt>
      <trkpt lat="47.96156" lon="-1.73617">
        <ele>20</ele>
        <time>2007-12-24T12:01:13Z</time>
      </trkpt>
      <trkpt lat="47.96158" lon="-1.73619">
        <ele>20</ele>
        <time>2007-12-24T12:01:14Z</time>
      </trkpt>
      <trkpt lat="47.96177" lon="-1.73618">
        <ele>20</ele>
        <time>2007-12-24T12:01:21Z</time>
      </trkpt>
      <trkpt lat="47.96191" lon="-1.73614">
        <ele>21</ele>
        <time>2007-12-24T12:01:27Z</time>
      </trkpt>
      <trkpt lat="47.96202" lon="-1.73612">
        <ele>21</ele>
        <time>2007-12-24T12:01:32Z</time>
      </trkpt>
      <trkpt lat="47.96213" lon="-1.73612">
        <ele>22</ele>
        <time>2007-12-24T12:01:36Z</time>
      </trkpt>
      <trkpt lat="47.9623" lon="-1.73617">
        <ele>23</ele>
        <time>2007-12-24T12:01:43Z</time>
      </trkpt>
      <trkpt lat="47.96235" lon="-1.73618">
        <ele>23</ele>
        <time>2007-12-24T12:01:45Z</time>
      </trkpt>
      <trkpt lat="47.96248" lon="-1.73622">
        <ele>24</ele>
        <time>2007-12-24T12:01:50Z</time>
      </trkpt>
      <trkpt lat="47.96262" lon="-1.73609">
        <ele>25</ele>
        <time>2007-12-24T12:01:57Z</time>
      </trkpt>
      <trkpt lat="47.96262" lon="-1.73607">
        <ele>25</ele>
        <time>2007-12-24T12:01:57Z</time>
      </trkpt>
      <trkpt lat="47.96265" lon="-1.73591">
        <ele>25</ele>
        <time>2007-12-24T12:02:02Z</time>
      </trkpt>
      <trkpt lat="47.96267" lon="-1.7358">
        <ele>26</ele>
        <time>2007-12-24T12:02:05Z</time>
      </trkpt>
      <trkpt lat="47.96267" lon="-1.73577">
        <ele>26</ele>
        <time>2007-12-24T12:02:05Z</time>
      </trkpt>
      <trkpt lat="47.96268" lon="-1.73572">
        <ele>26</ele>
        <time>2007-12-24T12:02:07Z</time>
      </trkpt>
      <trkpt lat="47.96275" lon="-1.73535">
        <ele>26</ele>
        <time>2007-12-24T12:02:17Z</time>
      </trkpt>
      <trkpt lat="47.96283" lon="-1.73534">
        <ele>27</ele>
        <time>2007-12-24T12:02:20Z</time>
      </trkpt>
      <trkpt lat="47.96307" lon="-1.73537">
        <ele>27</ele>
        <time>2007-12-24T12:02:30Z</time>
      </trkpt>
      <trkpt lat="47.96324" lon="-1.73538">
        <ele>27</ele>
        <time>2007-12-24T12:02:37Z</time>
      </trkpt>
      <trkpt lat="47.96334" lon="-1.73539">
        <ele>27</ele>
        <time>2007-12-24T12:02:41Z</time>
      </trkpt>
      <trkpt lat="47.96336" lon="-1.73541">
        <ele>27</ele>
        <time>2007-12-24T12:02:42Z</time>
      </trkpt>
      <trkpt lat="47.96357" lon="-1.73542">
        <ele>27</ele>
        <time>2007-12-24T12:02:50Z</time>
      </trkpt>
      <trkpt lat="47.96395" lon="-1.73545">
        <ele>26</ele>
        <time>2007-12-24T12:03:05Z</time>
      </trkpt>
      <trkpt lat="47.96424" lon="-1.73547">
        <ele>26</ele>
        <time>2007-12-24T12:03:17Z</time>
      </trkpt>
      <trkpt lat="47.96438" lon="-1.73546">
        <ele>26</ele>
        <time>2007-12-24T12:03:23Z</time>
      </trkpt>
      <trkpt lat="47.96465" lon="-1.73546">
        <ele>27</ele>
        <time>2007-12-24T12:03:33Z</time>
      </trkpt>
      <trkpt lat="47.96488" lon="-1.73545">
        <ele>28</ele>
        <time>2007-12-24T12:03:43Z</time>
      </trkpt>
      <trkpt lat="47.96512" lon="-1.73542">
        <ele>29</ele>
        <time>2007-12-24T12:03:52Z</time>
      </trkpt>
      <trkpt lat="47.9654" lon="-1.73538">
        <ele>30</ele>
        <time>2007-12-24T12:04:03Z</time>
      </trkpt>
      <trkpt lat="47.96563" lon="-1.73531">
        <ele>30</ele>
        <time>2007-12-24T12:04:13Z</time>
      </trkpt>
      <trkpt lat="47.96598" lon="-1.73518">
        <ele>30</ele>
        <time>2007-12-24T12:04:27Z</time>
      </trkpt>
      <trkpt lat="47.96628" lon="-1.73501">
        <ele>31</ele>
        <time>2007-12-24T12:04:40Z</time>
      </trkpt>
      <trkpt lat="47.9666" lon="-1.73483">
        <ele>31</ele>
        <time>2007-12-24T12:04:54Z</time>
      </trkpt>
      <trkpt lat="47.96694" lon="-1.73469">
        <ele>30</ele>
        <time>2007-12-24T12:05:08Z</time>
      </trkpt>
      <trkpt lat="47.96721" lon="-1.73455">
        <ele>29</ele>
        <time>2007-12-24T12:05:20Z</time>
      </trkpt>
      <trkpt lat="47.96727" lon="-1.73453">
        <ele>29</ele>
        <time>2007-12-24T12:05:22Z</time>
      </trkpt>
      <trkpt lat="47.96752" lon="-1.73455">
        <ele>27</ele>
        <time>2007-12-24T12:05:32Z</time>
      </trkpt>
      <trkpt lat="47.96768" lon="-1.73467">
        <ele>25</ele>
        <time>2007-12-24T12:05:39Z</time>
      </trkpt>
      <trkpt lat="47.96773" lon="-1.7348">
        <ele>25</ele>
        <time>2007-12-24T12:05:43Z</time>
      </trkpt>
      <trkpt lat="47.96783" lon="-1.73499">
        <ele>25</ele>
        <time>2007-12-24T12:05:50Z</time>
      </trkpt>
      <trkpt lat="47.96802" lon="-1.73517">
        <ele>26</ele>
        <time>2007-12-24T12:05:59Z</time>
      </trkpt>
      <trkpt lat="47.96825" lon="-1.73527">
        <ele>27</ele>
        <time>2007-12-24T12:06:08Z</time>
      </trkpt>
      <trkpt lat="47.96855" lon="-1.73532">
        <ele>30</ele>
        <time>2007-12-24T12:06:20Z</time>
      </trkpt>
      <trkpt lat="47.96895" lon="-1.73542">
        <ele>32</ele>
        <time>2007-12-24T12:06:37Z</time>
      </trkpt>
      <trkpt lat="47.96923" lon="-1.73553">
        <ele>33</ele>
        <time>2007-12-24T12:06:48Z</time>
      </trkpt>
      <trkpt lat="47.96948" lon="-1.73557">
        <ele>34</ele>
        <time>2007-12-24T12:06:58Z</time>
      </trkpt>
      <trkpt lat="47.96972" lon="-1.73559">
        <ele>36</ele>
        <time>2007-12-24T12:07:08Z</time>
      </trkpt>
      <trkpt lat="47.96992" lon="-1.73558">
        <ele>37</ele>
        <time>2007-12-24T12:07:16Z</time>
      </trkpt>
      <trkpt lat="47.97007" lon="-1.73558">
        <ele>38</ele>
        <time>2007-12-24T12:07:22Z</time>
      </trkpt>
      <trkpt lat="47.97022" lon="-1.73559">
        <ele>40</ele>
        <time>2007-12-24T12:07:28Z</time>
      </trkpt>
      <trkpt lat="47.9704" lon="-1.7356">
        <ele>42</ele>
        <time>2007-12-24T12:07:35Z</time>
      </trkpt>
      <trkpt lat="47.97058" lon="-1.73565">
        <ele>43</ele>
        <time>2007-12-24T12:07:42Z</time>
      </trkpt>
      <trkpt lat="47.9708" lon="-1.73565">
        <ele>45</ele>
        <time>2007-12-24T12:07:51Z</time>
      </trkpt>
      <trkpt lat="47.97099" lon="-1.73569">
        <ele>46</ele>
        <time>2007-12-24T12:07:59Z</time>
      </trkpt>
      <trkpt lat="47.97115" lon="-1.73571">
        <ele>47</ele>
        <time>2007-12-24T12:08:05Z</time>
      </trkpt>
      <trkpt lat="47.97137" lon="-1.73577">
        <ele>49</ele>
        <time>2007-12-24T12:08:14Z</time>
      </trkpt>
      <trkpt lat="47.97155" lon="-1.73582">
        <ele>50</ele>
        <time>2007-12-24T12:08:21Z</time>
      </trkpt>
      <trkpt lat="47.97174" lon="-1.73589">
        <ele>51</ele>
        <time>2007-12-24T12:08:29Z</time>
      </trkpt>
      <trkpt lat="47.97198" lon="-1.73593">
        <ele>53</ele>
        <time>2007-12-24T12:08:39Z</time>
      </trkpt>
      <trkpt lat="47.97217" lon="-1.736">
        <ele>55</ele>
        <time>2007-12-24T12:08:47Z</time>
      </trkpt>
      <trkpt lat="47.97227" lon="-1.73605">
        <ele>57</ele>
        <time>2007-12-24T12:08:51Z</time>
      </trkpt>
      <trkpt lat="47.97247" lon="-1.73608">
        <ele>59</ele>
        <time>2007-12-24T12:08:59Z</time>
      </trkpt>
      <trkpt lat="47.97265" lon="-1.73614">
        <ele>61</ele>
        <time>2007-12-24T12:09:06Z</time>
      </trkpt>
      <trkpt lat="47.97272" lon="-1.73618">
        <ele>63</ele>
        <time>2007-12-24T12:09:09Z</time>
      </trkpt>
      <trkpt lat="47.97284" lon="-1.73622">
        <ele>64</ele>
        <time>2007-12-24T12:09:14Z</time>
      </trkpt>
      <trkpt lat="47.97296" lon="-1.73627">
        <ele>66</ele>
        <time>2007-12-24T12:09:20Z</time>
      </trkpt>
      <trkpt lat="47.97306" lon="-1.73632">
        <ele>67</ele>
        <time>2007-12-24T12:09:24Z</time>
      </trkpt>
      <trkpt lat="47.97308" lon="-1.73632">
        <ele>68</ele>
        <time>2007-12-24T12:09:24Z</time>
      </trkpt>
      <trkpt lat="47.9731" lon="-1.73633">
        <ele>68</ele>
        <time>2007-12-24T12:09:25Z</time>
      </trkpt>
      <trkpt lat="47.97316" lon="-1.73639">
        <ele>69</ele>
        <time>2007-12-24T12:09:28Z</time>
      </trkpt>
      <trkpt lat="47.97325" lon="-1.73644">
        <ele>70</ele>
        <time>2007-12-24T12:09:32Z</time>
      </trkpt>
      <trkpt lat="47.97335" lon="-1.73646">
        <ele>71</ele>
        <time>2007-12-24T12:09:36Z</time>
      </trkpt>
      <trkpt lat="47.97338" lon="-1.73649">
        <ele>72</ele>
        <time>2007-12-24T12:09:37Z</time>
      </trkpt>
      <trkpt lat="47.97352" lon="-1.7365">
        <ele>73</ele>
        <time>2007-12-24T12:09:43Z</time>
      </trkpt>
      <trkpt lat="47.97369" lon="-1.73648">
        <ele>74</ele>
        <time>2007-12-24T12:09:50Z</time>
      </trkpt>
      <trkpt lat="47.97371" lon="-1.73647">
        <ele>75</ele>
        <time>2007-12-24T12:09:51Z</time>
      </trkpt>
      <trkpt lat="47.97388" lon="-1.73649">
        <ele>76</ele>
        <time>2007-12-24T12:09:58Z</time>
      </trkpt>
      <trkpt lat="47.97393" lon="-1.73649">
        <ele>77</ele>
        <time>2007-12-24T12:09:59Z</time>
      </trkpt>
      <trkpt lat="47.97412" lon="-1.73647">
        <ele>78</ele>
        <time>2007-12-24T12:10:07Z</time>
      </trkpt>
      <trkpt lat="47.9743" lon="-1.73644">
        <ele>79</ele>
        <time>2007-12-24T12:10:14Z</time>
      </trkpt>
      <trkpt lat="47.97447" lon="-1.73642">
        <ele>80</ele>
        <time>2007-12-24T12:10:21Z</time>
      </trkpt>
      <trkpt lat="47.97462" lon="-1.73638">
        <ele>81</ele>
        <time>2007-12-24T12:10:27Z</time>
      </trkpt>
      <trkpt lat="47.9748" lon="-1.73632">
        <ele>81</ele>
        <time>2007-12-24T12:10:35Z</time>
      </trkpt>
      <trkpt lat="47.97485" lon="-1.73631">
        <ele>81</ele>
        <time>2007-12-24T12:10:37Z</time>
      </trkpt>
      <trkpt lat="47.97503" lon="-1.7363">
        <ele>83</ele>
        <time>2007-12-24T12:10:44Z</time>
      </trkpt>
      <trkpt lat="47.97519" lon="-1.73632">
        <ele>84</ele>
        <time>2007-12-24T12:10:50Z</time>
      </trkpt>
      <trkpt lat="47.97527" lon="-1.73642">
        <ele>84</ele>
        <time>2007-12-24T12:10:54Z</time>
      </trkpt>
      <trkpt lat="47.97541" lon="-1.73652">
        <ele>84</ele>
        <time>2007-12-24T12:11:01Z</time>
      </trkpt>
      <trkpt lat="47.97557" lon="-1.7366">
        <ele>84</ele>
        <time>2007-12-24T12:11:07Z</time>
      </trkpt>
      <trkpt lat="47.9757" lon="-1.73667">
        <ele>84</ele>
        <time>2007-12-24T12:11:13Z</time>
      </trkpt>
      <trkpt lat="47.97585" lon="-1.73666">
        <ele>84</ele>
        <time>2007-12-24T12:11:19Z</time>
      </trkpt>
      <trkpt lat="47.97599" lon="-1.73684">
        <ele>82</ele>
        <time>2007-12-24T12:11:26Z</time>
      </trkpt>
      <trkpt lat="47.97584" lon="-1.73814">
        <ele>71</ele>
        <time>2007-12-24T12:12:02Z</time>
      </trkpt>
      <trkpt lat="47.97533" lon="-1.7382">
        <ele>72</ele>
        <time>2007-12-24T12:12:22Z</time>
      </trkpt>
      <trkpt lat="47.97491" lon="-1.73837">
        <ele>73</ele>
        <time>2007-12-24T12:12:40Z</time>
      </trkpt>
      <trkpt lat="47.97427" lon="-1.73929">
        <ele>68</ele>
        <time>2007-12-24T12:13:15Z</time>
      </trkpt>
      <trkpt lat="47.97466" lon="-1.73979">
        <ele>64</ele>
        <time>2007-12-24T12:13:36Z</time>
      </trkpt>
      <trkpt lat="47.97516" lon="-1.74033">
        <ele>60</ele>
        <time>2007-12-24T12:14:01Z</time>
      </trkpt>
      <trkpt lat="47.9749" lon="-1.74115">
        <ele>53</ele>
        <time>2007-12-24T12:14:25Z</time>
      </trkpt>
      <trkpt lat="47.97424" lon="-1.74274">
        <ele>40</ele>
        <time>2007-12-24T12:15:15Z</time>
      </trkpt>
      <trkpt lat="47.97359" lon="-1.74474">
        <ele>27</ele>
        <time>2007-12-24T12:16:15Z</time>
      </trkpt>
      <trkpt lat="47.97431" lon="-1.74523">
        <ele>30</ele>
        <time>2007-12-24T12:16:47Z</time>
      </trkpt>
      <trkpt lat="47.97496" lon="-1.74595">
        <ele>35</ele>
        <time>2007-12-24T12:17:19Z</time>
      </trkpt>
      <trkpt lat="47.97553" lon="-1.74633">
        <ele>41</ele>
        <time>2007-12-24T12:17:44Z</time>
      </trkpt>
      <trkpt lat="47.97596" lon="-1.74619">
        <ele>47</ele>
        <time>2007-12-24T12:18:01Z</time>
      </trkpt>
      <trkpt lat="47.97585" lon="-1.74575">
        <ele>51</ele>
        <time>2007-12-24T12:18:14Z</time>
      </trkpt>
      <trkpt lat="47.97597" lon="-1.74536">
        <ele>58</ele>
        <time>2007-12-24T12:18:26Z</time>
      </trkpt>
      <trkpt lat="47.9763" lon="-1.74569">
        <ele>59</ele>
        <time>2007-12-24T12:18:41Z</time>
      </trkpt>
      <trkpt lat="47.9766" lon="-1.74611">
        <ele>58</ele>
        <time>2007-12-24T12:18:58Z</time>
      </trkpt>
      <trkpt lat="47.97694" lon="-1.74597">
        <ele>64</ele>
        <time>2007-12-24T12:19:12Z</time>
      </trkpt>
      <trkpt lat="47.97754" lon="-1.74535">
        <ele>72</ele>
        <time>2007-12-24T12:19:41Z</time>
      </trkpt>
      <trkpt lat="47.97823" lon="-1.74496">
        <ele>74</ele>
        <time>2007-12-24T12:20:11Z</time>
      </trkpt>
      <trkpt lat="47.97919" lon="-1.74487">
        <ele>82</ele>
        <time>2007-12-24T12:20:49Z</time>
      </trkpt>
      <trkpt lat="47.97998" lon="-1.74517">
        <ele>80</ele>
        <time>2007-12-24T12:21:22Z</time>
      </trkpt>
      <trkpt lat="47.98073" lon="-1.74566">
        <ele>78</ele>
        <time>2007-12-24T12:21:55Z</time>
      </trkpt>
      <trkpt lat="47.98086" lon="-1.74543">
        <ele>78</ele>
        <time>2007-12-24T12:22:03Z</time>
      </trkpt>
      <trkpt lat="47.98108" lon="-1.74465">
        <ele>78</ele>
        <time>2007-12-24T12:22:26Z</time>
      </trkpt>
      <trkpt lat="47.9812" lon="-1.74382">
        <ele>83</ele>
        <time>2007-12-24T12:22:48Z</time>
      </trkpt>
      <trkpt lat="47.98115" lon="-1.74301">
        <ele>86</ele>
        <time>2007-12-24T12:23:10Z</time>
      </trkpt>
      <trkpt lat="47.98113" lon="-1.74264">
        <ele>87</ele>
        <time>2007-12-24T12:23:20Z</time>
      </trkpt>
      <trkpt lat="47.98143" lon="-1.74264">
        <ele>88</ele>
        <time>2007-12-24T12:23:32Z</time>
      </trkpt>
      <trkpt lat="47.9815" lon="-1.7427">
        <ele>87</ele>
        <time>2007-12-24T12:23:35Z</time>
      </trkpt>
      <trkpt lat="47.98182" lon="-1.74278">
        <ele>87</ele>
        <time>2007-12-24T12:23:48Z</time>
      </trkpt>
      <trkpt lat="47.98198" lon="-1.74285">
        <ele>86</ele>
        <time>2007-12-24T12:23:55Z</time>
      </trkpt>
      <trkpt lat="47.98202" lon="-1.74287">
        <ele>86</ele>
        <time>2007-12-24T12:23:56Z</time>
      </trkpt>
      <trkpt lat="47.98218" lon="-1.74296">
        <ele>86</ele>
        <time>2007-12-24T12:24:03Z</time>
      </trkpt>
      <trkpt lat="47.98227" lon="-1.743">
        <ele>85</ele>
        <time>2007-12-24T12:24:07Z</time>
      </trkpt>
      <trkpt lat="47.9824" lon="-1.74312">
        <ele>85</ele>
        <time>2007-12-24T12:24:13Z</time>
      </trkpt>
      <trkpt lat="47.98253" lon="-1.74325">
        <ele>85</ele>
        <time>2007-12-24T12:24:20Z</time>
      </trkpt>
      <trkpt lat="47.98271" lon="-1.74327">
        <ele>85</ele>
        <time>2007-12-24T12:24:27Z</time>
      </trkpt>
      <trkpt lat="47.98288" lon="-1.74321">
        <ele>86</ele>
        <time>2007-12-24T12:24:34Z</time>
      </trkpt>
      <trkpt lat="47.98302" lon="-1.74316">
        <ele>87</ele>
        <time>2007-12-24T12:24:39Z</time>
      </trkpt>
      <trkpt lat="47.98319" lon="-1.743">
        <ele>88</ele>
        <time>2007-12-24T12:24:47Z</time>
      </trkpt>
      <trkpt lat="47.98333" lon="-1.74295">
        <ele>88</ele>
        <time>2007-12-24T12:24:53Z</time>
      </trkpt>
      <trkpt lat="47.98355" lon="-1.74289">
        <ele>89</ele>
        <time>2007-12-24T12:25:02Z</time>
      </trkpt>
      <trkpt lat="47.98367" lon="-1.74283">
        <ele>89</ele>
        <time>2007-12-24T12:25:07Z</time>
      </trkpt>
      <trkpt lat="47.98375" lon="-1.7428">
        <ele>89</ele>
        <time>2007-12-24T12:25:11Z</time>
      </trkpt>
      <trkpt lat="47.9839" lon="-1.74277">
        <ele>89</ele>
        <time>2007-12-24T12:25:17Z</time>
      </trkpt>
      <trkpt lat="47.98413" lon="-1.74275">
        <ele>89</ele>
        <time>2007-12-24T12:25:26Z</time>
      </trkpt>
      <trkpt lat="47.98428" lon="-1.74276">
        <ele>89</ele>
        <time>2007-12-24T12:25:32Z</time>
      </trkpt>
      <trkpt lat="47.98436" lon="-1.74277">
        <ele>89</ele>
        <time>2007-12-24T12:25:35Z</time>
      </trkpt>
      <trkpt lat="47.98448" lon="-1.74274">
        <ele>89</ele>
        <time>2007-12-24T12:25:40Z</time>
      </trkpt>
      <trkpt lat="47.9847" lon="-1.74274">
        <ele>89</ele>
        <time>2007-12-24T12:25:49Z</time>
      </trkpt>
      <trkpt lat="47.98487" lon="-1.74272">
        <ele>89</ele>
        <time>2007-12-24T12:25:55Z</time>
      </trkpt>
      <trkpt lat="47.98502" lon="-1.74272">
        <ele>89</ele>
        <time>2007-12-24T12:26:01Z</time>
      </trkpt>
      <trkpt lat="47.98512" lon="-1.74272">
        <ele>89</ele>
        <time>2007-12-24T12:26:05Z</time>
      </trkpt>
      <trkpt lat="47.98515" lon="-1.74284">
        <ele>89</ele>
        <time>2007-12-24T12:26:09Z</time>
      </trkpt>
      <trkpt lat="47.98515" lon="-1.74286">
        <ele>89</ele>
        <time>2007-12-24T12:26:10Z</time>
      </trkpt>
      <trkpt lat="47.98513" lon="-1.7431">
        <ele>89</ele>
        <time>2007-12-24T12:26:16Z</time>
      </trkpt>
      <trkpt lat="47.98513" lon="-1.74314">
        <ele>89</ele>
        <time>2007-12-24T12:26:17Z</time>
      </trkpt>
      <trkpt lat="47.98513" lon="-1.74325">
        <ele>89</ele>
        <time>2007-12-24T12:26:20Z</time>
      </trkpt>
      <trkpt lat="47.9851" lon="-1.74365">
        <ele>88</ele>
        <time>2007-12-24T12:26:31Z</time>
      </trkpt>
      <trkpt lat="47.98507" lon="-1.74403">
        <ele>87</ele>
        <time>2007-12-24T12:26:41Z</time>
      </trkpt>
      <trkpt lat="47.98503" lon="-1.74438">
        <ele>86</ele>
        <time>2007-12-24T12:26:51Z</time>
      </trkpt>
      <trkpt lat="47.98498" lon="-1.74497">
        <ele>84</ele>
        <time>2007-12-24T12:27:06Z</time>
      </trkpt>
      <trkpt lat="47.98495" lon="-1.74531">
        <ele>83</ele>
        <time>2007-12-24T12:27:16Z</time>
      </trkpt>
      <trkpt lat="47.98493" lon="-1.74561">
        <ele>82</ele>
        <time>2007-12-24T12:27:24Z</time>
      </trkpt>
      <trkpt lat="47.9849" lon="-1.74595">
        <ele>81</ele>
        <time>2007-12-24T12:27:33Z</time>
      </trkpt>
      <trkpt lat="47.9849" lon="-1.74607">
        <ele>80</ele>
        <time>2007-12-24T12:27:36Z</time>
      </trkpt>
      <trkpt lat="47.98505" lon="-1.74615">
        <ele>80</ele>
        <time>2007-12-24T12:27:42Z</time>
      </trkpt>
      <trkpt lat="47.98528" lon="-1.74624">
        <ele>80</ele>
        <time>2007-12-24T12:27:52Z</time>
      </trkpt>
      <trkpt lat="47.98545" lon="-1.74635">
        <ele>79</ele>
        <time>2007-12-24T12:27:59Z</time>
      </trkpt>
      <trkpt lat="47.98564" lon="-1.74648">
        <ele>78</ele>
        <time>2007-12-24T12:28:08Z</time>
      </trkpt>
      <trkpt lat="47.98585" lon="-1.74664">
        <ele>77</ele>
        <time>2007-12-24T12:28:17Z</time>
      </trkpt>
      <trkpt lat="47.98592" lon="-1.74664">
        <ele>77</ele>
        <time>2007-12-24T12:28:20Z</time>
      </trkpt>
      <trkpt lat="47.98594" lon="-1.74664">
        <ele>77</ele>
        <time>2007-12-24T12:28:21Z</time>
      </trkpt>
      <trkpt lat="47.98597" lon="-1.74665">
        <ele>77</ele>
        <time>2007-12-24T12:28:22Z</time>
      </trkpt>
      <trkpt lat="47.98607" lon="-1.74669">
        <ele>77</ele>
        <time>2007-12-24T12:28:26Z</time>
      </trkpt>
      <trkpt lat="47.9862" lon="-1.74674">
        <ele>76</ele>
        <time>2007-12-24T12:28:31Z</time>
      </trkpt>
      <trkpt lat="47.98637" lon="-1.74684">
        <ele>75</ele>
        <time>2007-12-24T12:28:39Z</time>
      </trkpt>
      <trkpt lat="47.98643" lon="-1.74688">
        <ele>75</ele>
        <time>2007-12-24T12:28:42Z</time>
      </trkpt>
      <trkpt lat="47.98665" lon="-1.74702">
        <ele>74</ele>
        <time>2007-12-24T12:28:51Z</time>
      </trkpt>
      <trkpt lat="47.98679" lon="-1.74711">
        <ele>74</ele>
        <time>2007-12-24T12:28:57Z</time>
      </trkpt>
      <trkpt lat="47.98681" lon="-1.74712">
        <ele>73</ele>
        <time>2007-12-24T12:28:58Z</time>
      </trkpt>
      <trkpt lat="47.98699" lon="-1.7472">
        <ele>73</ele>
        <time>2007-12-24T12:29:05Z</time>
      </trkpt>
      <trkpt lat="47.98712" lon="-1.74728">
        <ele>72</ele>
        <time>2007-12-24T12:29:11Z</time>
      </trkpt>
      <trkpt lat="47.98717" lon="-1.74736">
        <ele>71</ele>
        <time>2007-12-24T12:29:14Z</time>
      </trkpt>
      <trkpt lat="47.98727" lon="-1.74746">
        <ele>70</ele>
        <time>2007-12-24T12:29:19Z</time>
      </trkpt>
      <trkpt lat="47.98747" lon="-1.74756">
        <ele>69</ele>
        <time>2007-12-24T12:29:27Z</time>
      </trkpt>
      <trkpt lat="47.98757" lon="-1.74763">
        <ele>68</ele>
        <time>2007-12-24T12:29:32Z</time>
      </trkpt>
      <trkpt lat="47.9876" lon="-1.74767">
        <ele>68</ele>
        <time>2007-12-24T12:29:33Z</time>
      </trkpt>
      <trkpt lat="47.98775" lon="-1.74777">
        <ele>67</ele>
        <time>2007-12-24T12:29:40Z</time>
      </trkpt>
      <trkpt lat="47.98782" lon="-1.74782">
        <ele>67</ele>
        <time>2007-12-24T12:29:43Z</time>
      </trkpt>
      <trkpt lat="47.98793" lon="-1.74795">
        <ele>66</ele>
        <time>2007-12-24T12:29:49Z</time>
      </trkpt>
      <trkpt lat="47.98814" lon="-1.74799">
        <ele>65</ele>
        <time>2007-12-24T12:29:57Z</time>
      </trkpt>
      <trkpt lat="47.9882" lon="-1.74799">
        <ele>65</ele>
        <time>2007-12-24T12:30:00Z</time>
      </trkpt>
      <trkpt lat="47.9884" lon="-1.74806">
        <ele>64</ele>
        <time>2007-12-24T12:30:08Z</time>
      </trkpt>
      <trkpt lat="47.98855" lon="-1.74811">
        <ele>62</ele>
        <time>2007-12-24T12:30:14Z</time>
      </trkpt>
      <trkpt lat="47.98862" lon="-1.74814">
        <ele>62</ele>
        <time>2007-12-24T12:30:17Z</time>
      </trkpt>
      <trkpt lat="47.98867" lon="-1.74814">
        <ele>62</ele>
        <time>2007-12-24T12:30:19Z</time>
      </trkpt>
      <trkpt lat="47.98871" lon="-1.74814">
        <ele>61</ele>
        <time>2007-12-24T12:30:21Z</time>
      </trkpt>
      <trkpt lat="47.98883" lon="-1.74817">
        <ele>60</ele>
        <time>2007-12-24T12:30:25Z</time>
      </trkpt>
      <trkpt lat="47.98902" lon="-1.74822">
        <ele>59</ele>
        <time>2007-12-24T12:30:33Z</time>
      </trkpt>
      <trkpt lat="47.98918" lon="-1.74823">
        <ele>58</ele>
        <time>2007-12-24T12:30:40Z</time>
      </trkpt>
      <trkpt lat="47.98928" lon="-1.74823">
        <ele>57</ele>
        <time>2007-12-24T12:30:44Z</time>
      </trkpt>
      <trkpt lat="47.98938" lon="-1.74823">
        <ele>57</ele>
        <time>2007-12-24T12:30:48Z</time>
      </trkpt>
      <trkpt lat="47.98955" lon="-1.74826">
        <ele>56</ele>
        <time>2007-12-24T12:30:55Z</time>
      </trkpt>
      <trkpt lat="47.9896" lon="-1.74829">
        <ele>56</ele>
        <time>2007-12-24T12:30:56Z</time>
      </trkpt>
      <trkpt lat="47.98962" lon="-1.74845">
        <ele>56</ele>
        <time>2007-12-24T12:31:01Z</time>
      </trkpt>
      <trkpt lat="47.98962" lon="-1.74853">
        <ele>56</ele>
        <time>2007-12-24T12:31:03Z</time>
      </trkpt>
      <trkpt lat="47.98962" lon="-1.7486">
        <ele>56</ele>
        <time>2007-12-24T12:31:05Z</time>
      </trkpt>
      <trkpt lat="47.98962" lon="-1.74879">
        <ele>57</ele>
        <time>2007-12-24T12:31:10Z</time>
      </trkpt>
      <trkpt lat="47.98961" lon="-1.74891">
        <ele>58</ele>
        <time>2007-12-24T12:31:13Z</time>
      </trkpt>
      <trkpt lat="47.98961" lon="-1.74893">
        <ele>58</ele>
        <time>2007-12-24T12:31:14Z</time>
      </trkpt>
      <trkpt lat="47.98962" lon="-1.74913">
        <ele>59</ele>
        <time>2007-12-24T12:31:19Z</time>
      </trkpt>
      <trkpt lat="47.98962" lon="-1.74929">
        <ele>60</ele>
        <time>2007-12-24T12:31:23Z</time>
      </trkpt>
      <trkpt lat="47.98958" lon="-1.74959">
        <ele>62</ele>
        <time>2007-12-24T12:31:31Z</time>
      </trkpt>
      <trkpt lat="47.98957" lon="-1.74981">
        <ele>63</ele>
        <time>2007-12-24T12:31:37Z</time>
      </trkpt>
      <trkpt lat="47.98957" lon="-1.74997">
        <ele>64</ele>
        <time>2007-12-24T12:31:42Z</time>
      </trkpt>
      <trkpt lat="47.98955" lon="-1.75001">
        <ele>64</ele>
        <time>2007-12-24T12:31:43Z</time>
      </trkpt>
      <trkpt lat="47.9895" lon="-1.75024">
        <ele>66</ele>
        <time>2007-12-24T12:31:49Z</time>
      </trkpt>
      <trkpt lat="47.98947" lon="-1.75044">
        <ele>67</ele>
        <time>2007-12-24T12:31:55Z</time>
      </trkpt>
      <trkpt lat="47.98947" lon="-1.75064">
        <ele>67</ele>
        <time>2007-12-24T12:32:00Z</time>
      </trkpt>
      <trkpt lat="47.98946" lon="-1.75087">
        <ele>68</ele>
        <time>2007-12-24T12:32:06Z</time>
      </trkpt>
      <trkpt lat="47.98945" lon="-1.75105">
        <ele>68</ele>
        <time>2007-12-24T12:32:11Z</time>
      </trkpt>
      <trkpt lat="47.98947" lon="-1.75116">
        <ele>68</ele>
        <time>2007-12-24T12:32:14Z</time>
      </trkpt>
      <trkpt lat="47.98962" lon="-1.7513">
        <ele>67</ele>
        <time>2007-12-24T12:32:22Z</time>
      </trkpt>
      <trkpt lat="47.98967" lon="-1.75137">
        <ele>66</ele>
        <time>2007-12-24T12:32:24Z</time>
      </trkpt>
      <trkpt lat="47.98967" lon="-1.75157">
        <ele>66</ele>
        <time>2007-12-24T12:32:30Z</time>
      </trkpt>
      <trkpt lat="47.98962" lon="-1.75188">
        <ele>67</ele>
        <time>2007-12-24T12:32:38Z</time>
      </trkpt>
      <trkpt lat="47.98957" lon="-1.75208">
        <ele>68</ele>
        <time>2007-12-24T12:32:44Z</time>
      </trkpt>
      <trkpt lat="47.98953" lon="-1.75229">
        <ele>68</ele>
        <time>2007-12-24T12:32:50Z</time>
      </trkpt>
      <trkpt lat="47.98953" lon="-1.75237">
        <ele>68</ele>
        <time>2007-12-24T12:32:52Z</time>
      </trkpt>
      <trkpt lat="47.98952" lon="-1.75263">
        <ele>68</ele>
        <time>2007-12-24T12:32:59Z</time>
      </trkpt>
      <trkpt lat="47.9895" lon="-1.75293">
        <ele>67</ele>
        <time>2007-12-24T12:33:07Z</time>
      </trkpt>
      <trkpt lat="47.98948" lon="-1.75325">
        <ele>66</ele>
        <time>2007-12-24T12:33:16Z</time>
      </trkpt>
      <trkpt lat="47.98952" lon="-1.75353">
        <ele>65</ele>
        <time>2007-12-24T12:33:23Z</time>
      </trkpt>
      <trkpt lat="47.98953" lon="-1.75383">
        <ele>63</ele>
        <time>2007-12-24T12:33:31Z</time>
      </trkpt>
      <trkpt lat="47.98958" lon="-1.75413">
        <ele>60</ele>
        <time>2007-12-24T12:33:40Z</time>
      </trkpt>
      <trkpt lat="47.98965" lon="-1.75447">
        <ele>56</ele>
        <time>2007-12-24T12:33:49Z</time>
      </trkpt>
      <trkpt lat="47.98965" lon="-1.75452">
        <ele>56</ele>
        <time>2007-12-24T12:33:50Z</time>
      </trkpt>
      <trkpt lat="47.98978" lon="-1.75467">
        <ele>54</ele>
        <time>2007-12-24T12:33:57Z</time>
      </trkpt>
      <trkpt lat="47.98995" lon="-1.75473">
        <ele>53</ele>
        <time>2007-12-24T12:34:04Z</time>
      </trkpt>
      <trkpt lat="47.99004" lon="-1.75475">
        <ele>52</ele>
        <time>2007-12-24T12:34:07Z</time>
      </trkpt>
      <trkpt lat="47.99008" lon="-1.75482">
        <ele>51</ele>
        <time>2007-12-24T12:34:10Z</time>
      </trkpt>
      <trkpt lat="47.99015" lon="-1.75482">
        <ele>51</ele>
        <time>2007-12-24T12:34:13Z</time>
      </trkpt>
      <trkpt lat="47.9902" lon="-1.75479">
        <ele>51</ele>
        <time>2007-12-24T12:34:15Z</time>
      </trkpt>
      <trkpt lat="47.99022" lon="-1.75479">
        <ele>51</ele>
        <time>2007-12-24T12:34:16Z</time>
      </trkpt>
      <trkpt lat="47.9903" lon="-1.75477">
        <ele>51</ele>
        <time>2007-12-24T12:34:19Z</time>
      </trkpt>
      <trkpt lat="47.99038" lon="-1.7548">
        <ele>50</ele>
        <time>2007-12-24T12:34:22Z</time>
      </trkpt>
      <trkpt lat="47.99041" lon="-1.7548">
        <ele>50</ele>
        <time>2007-12-24T12:34:24Z</time>
      </trkpt>
      <trkpt lat="47.99042" lon="-1.75481">
        <ele>50</ele>
        <time>2007-12-24T12:34:24Z</time>
      </trkpt>
      <trkpt lat="47.99042" lon="-1.75484">
        <ele>49</ele>
        <time>2007-12-24T12:34:25Z</time>
      </trkpt>
      <trkpt lat="47.99043" lon="-1.75484">
        <ele>49</ele>
        <time>2007-12-24T12:34:25Z</time>
      </trkpt>
      <trkpt lat="47.99043" lon="-1.75486">
        <ele>49</ele>
        <time>2007-12-24T12:34:26Z</time>
      </trkpt>
      <trkpt lat="47.99045" lon="-1.75498">
        <ele>46</ele>
        <time>2007-12-24T12:34:29Z</time>
      </trkpt>
      <trkpt lat="47.99045" lon="-1.75501">
        <ele>46</ele>
        <time>2007-12-24T12:34:30Z</time>
      </trkpt>
      <trkpt lat="47.99045" lon="-1.75508">
        <ele>45</ele>
        <time>2007-12-24T12:34:32Z</time>
      </trkpt>
      <trkpt lat="47.99044" lon="-1.75513">
        <ele>44</ele>
        <time>2007-12-24T12:34:33Z</time>
      </trkpt>
      <trkpt lat="47.99044" lon="-1.75515">
        <ele>44</ele>
        <time>2007-12-24T12:34:34Z</time>
      </trkpt>
      <trkpt lat="47.99044" lon="-1.75517">
        <ele>44</ele>
        <time>2007-12-24T12:34:35Z</time>
      </trkpt>
      <trkpt lat="47.99042" lon="-1.75519">
        <ele>44</ele>
        <time>2007-12-24T12:34:35Z</time>
      </trkpt>
      <trkpt lat="47.99042" lon="-1.7552">
        <ele>44</ele>
        <time>2007-12-24T12:34:36Z</time>
      </trkpt>
      <trkpt lat="47.99038" lon="-1.75527">
        <ele>43</ele>
        <time>2007-12-24T12:34:38Z</time>
      </trkpt>
      <trkpt lat="47.99038" lon="-1.75528">
        <ele>42</ele>
        <time>2007-12-24T12:34:38Z</time>
      </trkpt>
      <trkpt lat="47.99038" lon="-1.75533">
        <ele>41</ele>
        <time>2007-12-24T12:34:40Z</time>
      </trkpt>
      <trkpt lat="47.99037" lon="-1.75535">
        <ele>40</ele>
        <time>2007-12-24T12:34:41Z</time>
      </trkpt>
      <trkpt lat="47.99037" lon="-1.75536">
        <ele>40</ele>
        <time>2007-12-24T12:34:41Z</time>
      </trkpt>
      <trkpt lat="47.99037" lon="-1.75539">
        <ele>39</ele>
        <time>2007-12-24T12:34:42Z</time>
      </trkpt>
      <trkpt lat="47.99037" lon="-1.7554">
        <ele>38</ele>
        <time>2007-12-24T12:34:42Z</time>
      </trkpt>
      <trkpt lat="47.99039" lon="-1.75545">
        <ele>36</ele>
        <time>2007-12-24T12:34:44Z</time>
      </trkpt>
      <trkpt lat="47.9904" lon="-1.75545">
        <ele>36</ele>
        <time>2007-12-24T12:34:44Z</time>
      </trkpt>
      <trkpt lat="47.9904" lon="-1.75548">
        <ele>35</ele>
        <time>2007-12-24T12:34:45Z</time>
      </trkpt>
      <trkpt lat="47.99041" lon="-1.75549">
        <ele>34</ele>
        <time>2007-12-24T12:34:46Z</time>
      </trkpt>
      <trkpt lat="47.99041" lon="-1.75552">
        <ele>34</ele>
        <time>2007-12-24T12:34:46Z</time>
      </trkpt>
      <trkpt lat="47.99041" lon="-1.75553">
        <ele>33</ele>
        <time>2007-12-24T12:34:47Z</time>
      </trkpt>
      <trkpt lat="47.9904" lon="-1.75555">
        <ele>33</ele>
        <time>2007-12-24T12:34:47Z</time>
      </trkpt>
      <trkpt lat="47.99041" lon="-1.75556">
        <ele>32</ele>
        <time>2007-12-24T12:34:48Z</time>
      </trkpt>
      <trkpt lat="47.99041" lon="-1.75559">
        <ele>31</ele>
        <time>2007-12-24T12:34:49Z</time>
      </trkpt>
      <trkpt lat="47.99041" lon="-1.7556">
        <ele>31</ele>
        <time>2007-12-24T12:34:49Z</time>
      </trkpt>
      <trkpt lat="47.99043" lon="-1.7556">
        <ele>30</ele>
        <time>2007-12-24T12:34:50Z</time>
      </trkpt>
      <trkpt lat="47.99041" lon="-1.75563">
        <ele>30</ele>
        <time>2007-12-24T12:34:51Z</time>
      </trkpt>
      <trkpt lat="47.99042" lon="-1.75566">
        <ele>29</ele>
        <time>2007-12-24T12:34:52Z</time>
      </trkpt>
      <trkpt lat="47.99042" lon="-1.75567">
        <ele>28</ele>
        <time>2007-12-24T12:34:52Z</time>
      </trkpt>
      <trkpt lat="47.99043" lon="-1.75567">
        <ele>28</ele>
        <time>2007-12-24T12:34:53Z</time>
      </trkpt>
      <trkpt lat="47.99043" lon="-1.75565">
        <ele>28</ele>
        <time>2007-12-24T12:34:53Z</time>
      </trkpt>
      <trkpt lat="47.99045" lon="-1.75565">
        <ele>28</ele>
        <time>2007-12-24T12:34:54Z</time>
      </trkpt>
      <trkpt lat="47.99045" lon="-1.75563">
        <ele>29</ele>
        <time>2007-12-24T12:34:55Z</time>
      </trkpt>
      <trkpt lat="47.99045" lon="-1.75561">
        <ele>29</ele>
        <time>2007-12-24T12:34:55Z</time>
      </trkpt>
      <trkpt lat="47.99043" lon="-1.75561">
        <ele>30</ele>
        <time>2007-12-24T12:34:56Z</time>
      </trkpt>
      <trkpt lat="47.99043" lon="-1.7556">
        <ele>30</ele>
        <time>2007-12-24T12:34:56Z</time>
      </trkpt>
      <trkpt lat="47.99043" lon="-1.75559">
        <ele>31</ele>
        <time>2007-12-24T12:34:56Z</time>
      </trkpt>
      <trkpt lat="47.99043" lon="-1.75556">
        <ele>32</ele>
        <time>2007-12-24T12:34:57Z</time>
      </trkpt>
      <trkpt lat="47.99043" lon="-1.75555">
        <ele>32</ele>
        <time>2007-12-24T12:34:58Z</time>
      </trkpt>
      <trkpt lat="47.99043" lon="-1.75553">
        <ele>33</ele>
        <time>2007-12-24T12:34:58Z</time>
      </trkpt>
      <trkpt lat="47.99043" lon="-1.75552">
        <ele>33</ele>
        <time>2007-12-24T12:34:58Z</time>
      </trkpt>
      <trkpt lat="47.99041" lon="-1.75552">
        <ele>34</ele>
        <time>2007-12-24T12:34:59Z</time>
      </trkpt>
      <trkpt lat="47.99041" lon="-1.75549">
        <ele>34</ele>
        <time>2007-12-24T12:35:00Z</time>
      </trkpt>
      <trkpt lat="47.99041" lon="-1.75548">
        <ele>35</ele>
        <time>2007-12-24T12:35:00Z</time>
      </trkpt>
      <trkpt lat="47.99039" lon="-1.75548">
        <ele>35</ele>
        <time>2007-12-24T12:35:01Z</time>
      </trkpt>
      <trkpt lat="47.99037" lon="-1.75548">
        <ele>35</ele>
        <time>2007-12-24T12:35:02Z</time>
      </trkpt>
      <trkpt lat="47.99039" lon="-1.75547">
        <ele>36</ele>
        <time>2007-12-24T12:35:03Z</time>
      </trkpt>
      <trkpt lat="47.99037" lon="-1.75546">
        <ele>36</ele>
        <time>2007-12-24T12:35:03Z</time>
      </trkpt>
      <trkpt lat="47.99037" lon="-1.75543">
        <ele>37</ele>
        <time>2007-12-24T12:35:04Z</time>
      </trkpt>
      <trkpt lat="47.99037" lon="-1.75542">
        <ele>38</ele>
        <time>2007-12-24T12:35:05Z</time>
      </trkpt>
      <trkpt lat="47.99037" lon="-1.75535">
        <ele>40</ele>
        <time>2007-12-24T12:35:06Z</time>
      </trkpt>
      <trkpt lat="47.99037" lon="-1.75533">
        <ele>41</ele>
        <time>2007-12-24T12:35:07Z</time>
      </trkpt>
      <trkpt lat="47.99038" lon="-1.75529">
        <ele>42</ele>
        <time>2007-12-24T12:35:08Z</time>
      </trkpt>
      <trkpt lat="47.99038" lon="-1.75528">
        <ele>42</ele>
        <time>2007-12-24T12:35:08Z</time>
      </trkpt>
      <trkpt lat="47.99038" lon="-1.75525">
        <ele>43</ele>
        <time>2007-12-24T12:35:09Z</time>
      </trkpt>
      <trkpt lat="47.99038" lon="-1.75523">
        <ele>44</ele>
        <time>2007-12-24T12:35:10Z</time>
      </trkpt>
      <trkpt lat="47.9904" lon="-1.75521">
        <ele>44</ele>
        <time>2007-12-24T12:35:11Z</time>
      </trkpt>
      <trkpt lat="47.99042" lon="-1.7552">
        <ele>44</ele>
        <time>2007-12-24T12:35:11Z</time>
      </trkpt>
      <trkpt lat="47.99042" lon="-1.75519">
        <ele>44</ele>
        <time>2007-12-24T12:35:12Z</time>
      </trkpt>
      <trkpt lat="47.99042" lon="-1.75517">
        <ele>44</ele>
        <time>2007-12-24T12:35:12Z</time>
      </trkpt>
      <trkpt lat="47.99044" lon="-1.75513">
        <ele>44</ele>
        <time>2007-12-24T12:35:13Z</time>
      </trkpt>
      <trkpt lat="47.99044" lon="-1.75505">
        <ele>46</ele>
        <time>2007-12-24T12:35:16Z</time>
      </trkpt>
      <trkpt lat="47.99044" lon="-1.75504">
        <ele>46</ele>
        <time>2007-12-24T12:35:16Z</time>
      </trkpt>
      <trkpt lat="47.99044" lon="-1.75501">
        <ele>46</ele>
        <time>2007-12-24T12:35:17Z</time>
      </trkpt>
      <trkpt lat="47.99045" lon="-1.755">
        <ele>46</ele>
        <time>2007-12-24T12:35:17Z</time>
      </trkpt>
      <trkpt lat="47.99045" lon="-1.75493">
        <ele>47</ele>
        <time>2007-12-24T12:35:19Z</time>
      </trkpt>
      <trkpt lat="47.99047" lon="-1.75486">
        <ele>48</ele>
        <time>2007-12-24T12:35:21Z</time>
      </trkpt>
      <trkpt lat="47.99047" lon="-1.75485">
        <ele>48</ele>
        <time>2007-12-24T12:35:22Z</time>
      </trkpt>
      <trkpt lat="47.99055" lon="-1.75477">
        <ele>48</ele>
        <time>2007-12-24T12:35:25Z</time>
      </trkpt>
      <trkpt lat="47.99057" lon="-1.75474">
        <ele>49</ele>
        <time>2007-12-24T12:35:26Z</time>
      </trkpt>
      <trkpt lat="47.9906" lon="-1.7547">
        <ele>49</ele>
        <time>2007-12-24T12:35:28Z</time>
      </trkpt>
      <trkpt lat="47.99067" lon="-1.75467">
        <ele>49</ele>
        <time>2007-12-24T12:35:31Z</time>
      </trkpt>
      <trkpt lat="47.99068" lon="-1.75467">
        <ele>49</ele>
        <time>2007-12-24T12:35:32Z</time>
      </trkpt>
      <trkpt lat="47.99068" lon="-1.75466">
        <ele>50</ele>
        <time>2007-12-24T12:35:32Z</time>
      </trkpt>
      <trkpt lat="47.99074" lon="-1.75462">
        <ele>50</ele>
        <time>2007-12-24T12:35:34Z</time>
      </trkpt>
      <trkpt lat="47.99074" lon="-1.7546">
        <ele>51</ele>
        <time>2007-12-24T12:35:35Z</time>
      </trkpt>
      <trkpt lat="47.99075" lon="-1.7546">
        <ele>50</ele>
        <time>2007-12-24T12:35:35Z</time>
      </trkpt>
      <trkpt lat="47.9908" lon="-1.75457">
        <ele>50</ele>
        <time>2007-12-24T12:35:37Z</time>
      </trkpt>
      <trkpt lat="47.99087" lon="-1.75459">
        <ele>50</ele>
        <time>2007-12-24T12:35:40Z</time>
      </trkpt>
      <trkpt lat="47.99097" lon="-1.75457">
        <ele>46</ele>
        <time>2007-12-24T12:35:44Z</time>
      </trkpt>
      <trkpt lat="47.99101" lon="-1.75453">
        <ele>45</ele>
        <time>2007-12-24T12:35:46Z</time>
      </trkpt>
      <trkpt lat="47.99101" lon="-1.75445">
        <ele>47</ele>
        <time>2007-12-24T12:35:49Z</time>
      </trkpt>
      <trkpt lat="47.99103" lon="-1.75435">
        <ele>48</ele>
        <time>2007-12-24T12:35:51Z</time>
      </trkpt>
      <trkpt lat="47.9911" lon="-1.75423">
        <ele>47</ele>
        <time>2007-12-24T12:35:55Z</time>
      </trkpt>
      <trkpt lat="47.99118" lon="-1.75408">
        <ele>48</ele>
        <time>2007-12-24T12:36:01Z</time>
      </trkpt>
      <trkpt lat="47.9912" lon="-1.75399">
        <ele>49</ele>
        <time>2007-12-24T12:36:03Z</time>
      </trkpt>
      <trkpt lat="47.99129" lon="-1.75392">
        <ele>48</ele>
        <time>2007-12-24T12:36:07Z</time>
      </trkpt>
      <trkpt lat="47.99143" lon="-1.75379">
        <ele>46</ele>
        <time>2007-12-24T12:36:14Z</time>
      </trkpt>
      <trkpt lat="47.9915" lon="-1.75375">
        <ele>45</ele>
        <time>2007-12-24T12:36:17Z</time>
      </trkpt>
      <trkpt lat="47.99152" lon="-1.75371">
        <ele>45</ele>
        <time>2007-12-24T12:36:18Z</time>
      </trkpt>
      <trkpt lat="47.99155" lon="-1.75371">
        <ele>45</ele>
        <time>2007-12-24T12:36:20Z</time>
      </trkpt>
      <trkpt lat="47.99166" lon="-1.75374">
        <ele>42</ele>
        <time>2007-12-24T12:36:24Z</time>
      </trkpt>
      <trkpt lat="47.99177" lon="-1.75367">
        <ele>42</ele>
        <time>2007-12-24T12:36:29Z</time>
      </trkpt>
      <trkpt lat="47.9919" lon="-1.75369">
        <ele>38</ele>
        <time>2007-12-24T12:36:34Z</time>
      </trkpt>
      <trkpt lat="47.99195" lon="-1.75362">
        <ele>38</ele>
        <time>2007-12-24T12:36:37Z</time>
      </trkpt>
      <trkpt lat="47.992" lon="-1.75354">
        <ele>38</ele>
        <time>2007-12-24T12:36:40Z</time>
      </trkpt>
      <trkpt lat="47.99204" lon="-1.75342">
        <ele>39</ele>
        <time>2007-12-24T12:36:43Z</time>
      </trkpt>
      <trkpt lat="47.99204" lon="-1.75331">
        <ele>41</ele>
        <time>2007-12-24T12:36:46Z</time>
      </trkpt>
      <trkpt lat="47.99207" lon="-1.75315">
        <ele>43</ele>
        <time>2007-12-24T12:36:51Z</time>
      </trkpt>
      <trkpt lat="47.99202" lon="-1.7531">
        <ele>45</ele>
        <time>2007-12-24T12:36:53Z</time>
      </trkpt>
      <trkpt lat="47.99198" lon="-1.75307">
        <ele>46</ele>
        <time>2007-12-24T12:36:55Z</time>
      </trkpt>
      <trkpt lat="47.99193" lon="-1.75298">
        <ele>48</ele>
        <time>2007-12-24T12:36:58Z</time>
      </trkpt>
      <trkpt lat="47.99189" lon="-1.75289">
        <ele>49</ele>
        <time>2007-12-24T12:37:01Z</time>
      </trkpt>
      <trkpt lat="47.992" lon="-1.75268">
        <ele>50</ele>
        <time>2007-12-24T12:37:08Z</time>
      </trkpt>
      <trkpt lat="47.99214" lon="-1.75257">
        <ele>49</ele>
        <time>2007-12-24T12:37:14Z</time>
      </trkpt>
      <trkpt lat="47.99222" lon="-1.75256">
        <ele>49</ele>
        <time>2007-12-24T12:37:18Z</time>
      </trkpt>
      <trkpt lat="47.99228" lon="-1.75251">
        <ele>49</ele>
        <time>2007-12-24T12:37:20Z</time>
      </trkpt>
      <trkpt lat="47.99241" lon="-1.75248">
        <ele>50</ele>
        <time>2007-12-24T12:37:26Z</time>
      </trkpt>
      <trkpt lat="47.9925" lon="-1.75246">
        <ele>50</ele>
        <time>2007-12-24T12:37:29Z</time>
      </trkpt>
      <trkpt lat="47.99267" lon="-1.75241">
        <ele>51</ele>
        <time>2007-12-24T12:37:36Z</time>
      </trkpt>
      <trkpt lat="47.99275" lon="-1.75244">
        <ele>51</ele>
        <time>2007-12-24T12:37:39Z</time>
      </trkpt>
      <trkpt lat="47.99275" lon="-1.75257">
        <ele>50</ele>
        <time>2007-12-24T12:37:43Z</time>
      </trkpt>
      <trkpt lat="47.99275" lon="-1.75264">
        <ele>50</ele>
        <time>2007-12-24T12:37:45Z</time>
      </trkpt>
      <trkpt lat="47.99275" lon="-1.75284">
        <ele>46</ele>
        <time>2007-12-24T12:37:50Z</time>
      </trkpt>
      <trkpt lat="47.99275" lon="-1.75288">
        <ele>45</ele>
        <time>2007-12-24T12:37:51Z</time>
      </trkpt>
      <trkpt lat="47.99277" lon="-1.7529">
        <ele>44</ele>
        <time>2007-12-24T12:37:52Z</time>
      </trkpt>
      <trkpt lat="47.99281" lon="-1.75285">
        <ele>44</ele>
        <time>2007-12-24T12:37:54Z</time>
      </trkpt>
      <trkpt lat="47.99287" lon="-1.75278">
        <ele>46</ele>
        <time>2007-12-24T12:37:57Z</time>
      </trkpt>
      <trkpt lat="47.99295" lon="-1.75274">
        <ele>44</ele>
        <time>2007-12-24T12:38:01Z</time>
      </trkpt>
      <trkpt lat="47.99298" lon="-1.75267">
        <ele>45</ele>
        <time>2007-12-24T12:38:03Z</time>
      </trkpt>
      <trkpt lat="47.99306" lon="-1.75267">
        <ele>43</ele>
        <time>2007-12-24T12:38:06Z</time>
      </trkpt>
      <trkpt lat="47.99314" lon="-1.75265">
        <ele>42</ele>
        <time>2007-12-24T12:38:09Z</time>
      </trkpt>
      <trkpt lat="47.99323" lon="-1.75258">
        <ele>41</ele>
        <time>2007-12-24T12:38:13Z</time>
      </trkpt>
      <trkpt lat="47.99325" lon="-1.75257">
        <ele>41</ele>
        <time>2007-12-24T12:38:14Z</time>
      </trkpt>
      <trkpt lat="47.99335" lon="-1.75258">
        <ele>37</ele>
        <time>2007-12-24T12:38:18Z</time>
      </trkpt>
      <trkpt lat="47.99339" lon="-1.75257">
        <ele>36</ele>
        <time>2007-12-24T12:38:20Z</time>
      </trkpt>
      <trkpt lat="47.99345" lon="-1.7525">
        <ele>35</ele>
        <time>2007-12-24T12:38:23Z</time>
      </trkpt>
      <trkpt lat="47.99347" lon="-1.75247">
        <ele>35</ele>
        <time>2007-12-24T12:38:24Z</time>
      </trkpt>
      <trkpt lat="47.99355" lon="-1.75234">
        <ele>36</ele>
        <time>2007-12-24T12:38:29Z</time>
      </trkpt>
      <trkpt lat="47.99358" lon="-1.75216">
        <ele>40</ele>
        <time>2007-12-24T12:38:34Z</time>
      </trkpt>
      <trkpt lat="47.99358" lon="-1.75208">
        <ele>41</ele>
        <time>2007-12-24T12:38:36Z</time>
      </trkpt>
      <trkpt lat="47.99357" lon="-1.75205">
        <ele>42</ele>
        <time>2007-12-24T12:38:36Z</time>
      </trkpt>
      <trkpt lat="47.9936" lon="-1.75191">
        <ele>43</ele>
        <time>2007-12-24T12:38:41Z</time>
      </trkpt>
      <trkpt lat="47.99362" lon="-1.75181">
        <ele>44</ele>
        <time>2007-12-24T12:38:43Z</time>
      </trkpt>
      <trkpt lat="47.99358" lon="-1.75164">
        <ele>47</ele>
        <time>2007-12-24T12:38:48Z</time>
      </trkpt>
      <trkpt lat="47.99354" lon="-1.75157">
        <ele>48</ele>
        <time>2007-12-24T12:38:51Z</time>
      </trkpt>
      <trkpt lat="47.9933" lon="-1.75123">
        <ele>50</ele>
        <time>2007-12-24T12:39:04Z</time>
      </trkpt>
      <trkpt lat="47.99315" lon="-1.75103">
        <ele>49</ele>
        <time>2007-12-24T12:39:12Z</time>
      </trkpt>
      <trkpt lat="47.99314" lon="-1.75101">
        <ele>49</ele>
        <time>2007-12-24T12:39:13Z</time>
      </trkpt>
      <trkpt lat="47.99307" lon="-1.75089">
        <ele>48</ele>
        <time>2007-12-24T12:39:17Z</time>
      </trkpt>
      <trkpt lat="47.99308" lon="-1.75077">
        <ele>47</ele>
        <time>2007-12-24T12:39:20Z</time>
      </trkpt>
      <trkpt lat="47.99309" lon="-1.75069">
        <ele>47</ele>
        <time>2007-12-24T12:39:22Z</time>
      </trkpt>
      <trkpt lat="47.99307" lon="-1.75058">
        <ele>46</ele>
        <time>2007-12-24T12:39:25Z</time>
      </trkpt>
      <trkpt lat="47.99307" lon="-1.75055">
        <ele>46</ele>
        <time>2007-12-24T12:39:26Z</time>
      </trkpt>
      <trkpt lat="47.99312" lon="-1.75046">
        <ele>45</ele>
        <time>2007-12-24T12:39:29Z</time>
      </trkpt>
      <trkpt lat="47.99312" lon="-1.75043">
        <ele>45</ele>
        <time>2007-12-24T12:39:30Z</time>
      </trkpt>
      <trkpt lat="47.9931" lon="-1.75035">
        <ele>45</ele>
        <time>2007-12-24T12:39:32Z</time>
      </trkpt>
      <trkpt lat="47.99312" lon="-1.75035">
        <ele>45</ele>
        <time>2007-12-24T12:39:33Z</time>
      </trkpt>
      <trkpt lat="47.99312" lon="-1.75034">
        <ele>45</ele>
        <time>2007-12-24T12:39:33Z</time>
      </trkpt>
      <trkpt lat="47.99312" lon="-1.7503">
        <ele>44</ele>
        <time>2007-12-24T12:39:35Z</time>
      </trkpt>
      <trkpt lat="47.99312" lon="-1.75028">
        <ele>44</ele>
        <time>2007-12-24T12:39:35Z</time>
      </trkpt>
      <trkpt lat="47.99314" lon="-1.75028">
        <ele>44</ele>
        <time>2007-12-24T12:39:36Z</time>
      </trkpt>
      <trkpt lat="47.99314" lon="-1.75025">
        <ele>44</ele>
        <time>2007-12-24T12:39:36Z</time>
      </trkpt>
      <trkpt lat="47.99314" lon="-1.75023">
        <ele>44</ele>
        <time>2007-12-24T12:39:37Z</time>
      </trkpt>
      <trkpt lat="47.99314" lon="-1.75021">
        <ele>44</ele>
        <time>2007-12-24T12:39:37Z</time>
      </trkpt>
      <trkpt lat="47.99315" lon="-1.75016">
        <ele>44</ele>
        <time>2007-12-24T12:39:39Z</time>
      </trkpt>
      <trkpt lat="47.99317" lon="-1.75012">
        <ele>43</ele>
        <time>2007-12-24T12:39:40Z</time>
      </trkpt>
      <trkpt lat="47.99318" lon="-1.75011">
        <ele>43</ele>
        <time>2007-12-24T12:39:41Z</time>
      </trkpt>
      <trkpt lat="47.9932" lon="-1.75008">
        <ele>44</ele>
        <time>2007-12-24T12:39:42Z</time>
      </trkpt>
      <trkpt lat="47.99322" lon="-1.75007">
        <ele>44</ele>
        <time>2007-12-24T12:39:43Z</time>
      </trkpt>
      <trkpt lat="47.99325" lon="-1.75001">
        <ele>44</ele>
        <time>2007-12-24T12:39:45Z</time>
      </trkpt>
      <trkpt lat="47.99329" lon="-1.74993">
        <ele>45</ele>
        <time>2007-12-24T12:39:47Z</time>
      </trkpt>
      <trkpt lat="47.99329" lon="-1.7499">
        <ele>46</ele>
        <time>2007-12-24T12:39:48Z</time>
      </trkpt>
      <trkpt lat="47.99333" lon="-1.74985">
        <ele>46</ele>
        <time>2007-12-24T12:39:50Z</time>
      </trkpt>
      <trkpt lat="47.99332" lon="-1.74986">
        <ele>46</ele>
        <time>2007-12-24T12:39:51Z</time>
      </trkpt>
      <trkpt lat="47.99335" lon="-1.74986">
        <ele>46</ele>
        <time>2007-12-24T12:39:52Z</time>
      </trkpt>
      <trkpt lat="47.9934" lon="-1.7499">
        <ele>46</ele>
        <time>2007-12-24T12:39:54Z</time>
      </trkpt>
      <trkpt lat="47.99348" lon="-1.74994">
        <ele>47</ele>
        <time>2007-12-24T12:39:58Z</time>
      </trkpt>
      <trkpt lat="47.99362" lon="-1.74995">
        <ele>48</ele>
        <time>2007-12-24T12:40:03Z</time>
      </trkpt>
      <trkpt lat="47.99376" lon="-1.74997">
        <ele>48</ele>
        <time>2007-12-24T12:40:09Z</time>
      </trkpt>
      <trkpt lat="47.99382" lon="-1.74998">
        <ele>48</ele>
        <time>2007-12-24T12:40:11Z</time>
      </trkpt>
      <trkpt lat="47.99386" lon="-1.75005">
        <ele>47</ele>
        <time>2007-12-24T12:40:14Z</time>
      </trkpt>
      <trkpt lat="47.9939" lon="-1.75009">
        <ele>47</ele>
        <time>2007-12-24T12:40:15Z</time>
      </trkpt>
      <trkpt lat="47.99398" lon="-1.75013">
        <ele>46</ele>
        <time>2007-12-24T12:40:19Z</time>
      </trkpt>
      <trkpt lat="47.99412" lon="-1.75012">
        <ele>45</ele>
        <time>2007-12-24T12:40:24Z</time>
      </trkpt>
      <trkpt lat="47.99422" lon="-1.75015">
        <ele>45</ele>
        <time>2007-12-24T12:40:28Z</time>
      </trkpt>
      <trkpt lat="47.99427" lon="-1.75015">
        <ele>46</ele>
        <time>2007-12-24T12:40:30Z</time>
      </trkpt>
      <trkpt lat="47.99433" lon="-1.75017">
        <ele>46</ele>
        <time>2007-12-24T12:40:33Z</time>
      </trkpt>
      <trkpt lat="47.99435" lon="-1.75017">
        <ele>47</ele>
        <time>2007-12-24T12:40:34Z</time>
      </trkpt>
      <trkpt lat="47.99437" lon="-1.75017">
        <ele>47</ele>
        <time>2007-12-24T12:40:35Z</time>
      </trkpt>
      <trkpt lat="47.9944" lon="-1.75018">
        <ele>47</ele>
        <time>2007-12-24T12:40:36Z</time>
      </trkpt>
      <trkpt lat="47.99441" lon="-1.7502">
        <ele>47</ele>
        <time>2007-12-24T12:40:37Z</time>
      </trkpt>
      <trkpt lat="47.99445" lon="-1.75037">
        <ele>42</ele>
        <time>2007-12-24T12:40:41Z</time>
      </trkpt>
      <trkpt lat="47.99452" lon="-1.75044">
        <ele>41</ele>
        <time>2007-12-24T12:40:45Z</time>
      </trkpt>
      <trkpt lat="47.99457" lon="-1.75045">
        <ele>41</ele>
        <time>2007-12-24T12:40:47Z</time>
      </trkpt>
      <trkpt lat="47.99467" lon="-1.75047">
        <ele>41</ele>
        <time>2007-12-24T12:40:51Z</time>
      </trkpt>
      <trkpt lat="47.99483" lon="-1.75048">
        <ele>40</ele>
        <time>2007-12-24T12:40:57Z</time>
      </trkpt>
      <trkpt lat="47.99498" lon="-1.75045">
        <ele>40</ele>
        <time>2007-12-24T12:41:03Z</time>
      </trkpt>
      <trkpt lat="47.99505" lon="-1.75044">
        <ele>41</ele>
        <time>2007-12-24T12:41:06Z</time>
      </trkpt>
      <trkpt lat="47.99506" lon="-1.75049">
        <ele>38</ele>
        <time>2007-12-24T12:41:08Z</time>
      </trkpt>
      <trkpt lat="47.99508" lon="-1.75049">
        <ele>38</ele>
        <time>2007-12-24T12:41:08Z</time>
      </trkpt>
      <trkpt lat="47.99508" lon="-1.75046">
        <ele>39</ele>
        <time>2007-12-24T12:41:09Z</time>
      </trkpt>
      <trkpt lat="47.9951" lon="-1.75042">
        <ele>41</ele>
        <time>2007-12-24T12:41:10Z</time>
      </trkpt>
      <trkpt lat="47.9951" lon="-1.7504">
        <ele>42</ele>
        <time>2007-12-24T12:41:11Z</time>
      </trkpt>
      <trkpt lat="47.9951" lon="-1.75037">
        <ele>43</ele>
        <time>2007-12-24T12:41:12Z</time>
      </trkpt>
      <trkpt lat="47.99518" lon="-1.7503">
        <ele>46</ele>
        <time>2007-12-24T12:41:15Z</time>
      </trkpt>
      <trkpt lat="47.99531" lon="-1.75028">
        <ele>47</ele>
        <time>2007-12-24T12:41:21Z</time>
      </trkpt>
      <trkpt lat="47.9954" lon="-1.75032">
        <ele>45</ele>
        <time>2007-12-24T12:41:25Z</time>
      </trkpt>
      <trkpt lat="47.99553" lon="-1.75025">
        <ele>46</ele>
        <time>2007-12-24T12:41:30Z</time>
      </trkpt>
      <trkpt lat="47.99564" lon="-1.75019">
        <ele>45</ele>
        <time>2007-12-24T12:41:34Z</time>
      </trkpt>
      <trkpt lat="47.99575" lon="-1.7501">
        <ele>44</ele>
        <time>2007-12-24T12:41:40Z</time>
      </trkpt>
      <trkpt lat="47.99597" lon="-1.74984">
        <ele>43</ele>
        <time>2007-12-24T12:41:51Z</time>
      </trkpt>
      <trkpt lat="47.99605" lon="-1.74958">
        <ele>44</ele>
        <time>2007-12-24T12:41:59Z</time>
      </trkpt>
      <trkpt lat="47.99613" lon="-1.74914">
        <ele>43</ele>
        <time>2007-12-24T12:42:11Z</time>
      </trkpt>
      <trkpt lat="47.99614" lon="-1.74894">
        <ele>42</ele>
        <time>2007-12-24T12:42:16Z</time>
      </trkpt>
      <trkpt lat="47.9961" lon="-1.74876">
        <ele>43</ele>
        <time>2007-12-24T12:42:21Z</time>
      </trkpt>
      <trkpt lat="47.99612" lon="-1.74861">
        <ele>42</ele>
        <time>2007-12-24T12:42:25Z</time>
      </trkpt>
      <trkpt lat="47.99627" lon="-1.7486">
        <ele>37</ele>
        <time>2007-12-24T12:42:31Z</time>
      </trkpt>
      <trkpt lat="47.99639" lon="-1.74873">
        <ele>35</ele>
        <time>2007-12-24T12:42:37Z</time>
      </trkpt>
      <trkpt lat="47.99645" lon="-1.74893">
        <ele>34</ele>
        <time>2007-12-24T12:42:43Z</time>
      </trkpt>
      <trkpt lat="47.99647" lon="-1.7491">
        <ele>34</ele>
        <time>2007-12-24T12:42:48Z</time>
      </trkpt>
      <trkpt lat="47.99647" lon="-1.74936">
        <ele>36</ele>
        <time>2007-12-24T12:42:55Z</time>
      </trkpt>
      <trkpt lat="47.99653" lon="-1.74957">
        <ele>36</ele>
        <time>2007-12-24T12:43:01Z</time>
      </trkpt>
      <trkpt lat="47.99657" lon="-1.74969">
        <ele>36</ele>
        <time>2007-12-24T12:43:04Z</time>
      </trkpt>
      <trkpt lat="47.99662" lon="-1.74997">
        <ele>31</ele>
        <time>2007-12-24T12:43:12Z</time>
      </trkpt>
      <trkpt lat="47.99662" lon="-1.75024">
        <ele>27</ele>
        <time>2007-12-24T12:43:19Z</time>
      </trkpt>
      <trkpt lat="47.99662" lon="-1.75052">
        <ele>24</ele>
        <time>2007-12-24T12:43:27Z</time>
      </trkpt>
      <trkpt lat="47.99659" lon="-1.75067">
        <ele>24</ele>
        <time>2007-12-24T12:43:31Z</time>
      </trkpt>
      <trkpt lat="47.99654" lon="-1.75094">
        <ele>23</ele>
        <time>2007-12-24T12:43:39Z</time>
      </trkpt>
      <trkpt lat="47.99652" lon="-1.751">
        <ele>22</ele>
        <time>2007-12-24T12:43:41Z</time>
      </trkpt>
      <trkpt lat="47.99649" lon="-1.75123">
        <ele>20</ele>
        <time>2007-12-24T12:43:47Z</time>
      </trkpt>
      <trkpt lat="47.99651" lon="-1.75131">
        <ele>20</ele>
        <time>2007-12-24T12:43:49Z</time>
      </trkpt>
      <trkpt lat="47.99661" lon="-1.75151">
        <ele>18</ele>
        <time>2007-12-24T12:43:56Z</time>
      </trkpt>
      <trkpt lat="47.99679" lon="-1.75172">
        <ele>17</ele>
        <time>2007-12-24T12:44:05Z</time>
      </trkpt>
      <trkpt lat="47.99691" lon="-1.75181">
        <ele>18</ele>
        <time>2007-12-24T12:44:10Z</time>
      </trkpt>
      <trkpt lat="47.99701" lon="-1.75192">
        <ele>18</ele>
        <time>2007-12-24T12:44:15Z</time>
      </trkpt>
      <trkpt lat="47.99709" lon="-1.752">
        <ele>19</ele>
        <time>2007-12-24T12:44:19Z</time>
      </trkpt>
      <trkpt lat="47.99705" lon="-1.75206">
        <ele>18</ele>
        <time>2007-12-24T12:44:21Z</time>
      </trkpt>
      <trkpt lat="47.99697" lon="-1.75212">
        <ele>17</ele>
        <time>2007-12-24T12:44:25Z</time>
      </trkpt>
      <trkpt lat="47.99697" lon="-1.75211">
        <ele>17</ele>
        <time>2007-12-24T12:44:25Z</time>
      </trkpt>
      <trkpt lat="47.99688" lon="-1.75215">
        <ele>16</ele>
        <time>2007-12-24T12:44:29Z</time>
      </trkpt>
      <trkpt lat="47.99665" lon="-1.75226">
        <ele>14</ele>
        <time>2007-12-24T12:44:39Z</time>
      </trkpt>
      <trkpt lat="47.99638" lon="-1.75239">
        <ele>13</ele>
        <time>2007-12-24T12:44:50Z</time>
      </trkpt>
      <trkpt lat="47.99618" lon="-1.75249">
        <ele>15</ele>
        <time>2007-12-24T12:44:58Z</time>
      </trkpt>
      <trkpt lat="47.99613" lon="-1.75249">
        <ele>15</ele>
        <time>2007-12-24T12:45:00Z</time>
      </trkpt>
      <trkpt lat="47.99613" lon="-1.75246">
        <ele>15</ele>
        <time>2007-12-24T12:45:01Z</time>
      </trkpt>
      <trkpt lat="47.99625" lon="-1.75235">
        <ele>13</ele>
        <time>2007-12-24T12:45:07Z</time>
      </trkpt>
      <trkpt lat="47.99635" lon="-1.75239">
        <ele>13</ele>
        <time>2007-12-24T12:45:11Z</time>
      </trkpt>
      <trkpt lat="47.99638" lon="-1.75246">
        <ele>14</ele>
        <time>2007-12-24T12:45:13Z</time>
      </trkpt>
      <trkpt lat="47.99647" lon="-1.75275">
        <ele>15</ele>
        <time>2007-12-24T12:45:22Z</time>
      </trkpt>
      <trkpt lat="47.9965" lon="-1.75304">
        <ele>16</ele>
        <time>2007-12-24T12:45:30Z</time>
      </trkpt>
      <trkpt lat="47.99655" lon="-1.75332">
        <ele>18</ele>
        <time>2007-12-24T12:45:38Z</time>
      </trkpt>
      <trkpt lat="47.99648" lon="-1.75361">
        <ele>22</ele>
        <time>2007-12-24T12:45:46Z</time>
      </trkpt>
      <trkpt lat="47.99638" lon="-1.75374">
        <ele>25</ele>
        <time>2007-12-24T12:45:51Z</time>
      </trkpt>
      <trkpt lat="47.99627" lon="-1.75383">
        <ele>28</ele>
        <time>2007-12-24T12:45:56Z</time>
      </trkpt>
      <trkpt lat="47.99609" lon="-1.75382">
        <ele>33</ele>
        <time>2007-12-24T12:46:03Z</time>
      </trkpt>
      <trkpt lat="47.99587" lon="-1.75377">
        <ele>38</ele>
        <time>2007-12-24T12:46:12Z</time>
      </trkpt>
      <trkpt lat="47.99575" lon="-1.75385">
        <ele>40</ele>
        <time>2007-12-24T12:46:17Z</time>
      </trkpt>
      <trkpt lat="47.99576" lon="-1.75413">
        <ele>43</ele>
        <time>2007-12-24T12:46:25Z</time>
      </trkpt>
      <trkpt lat="47.99577" lon="-1.7546">
        <ele>47</ele>
        <time>2007-12-24T12:46:37Z</time>
      </trkpt>
      <trkpt lat="47.99564" lon="-1.75513">
        <ele>50</ele>
        <time>2007-12-24T12:46:52Z</time>
      </trkpt>
      <trkpt lat="47.99527" lon="-1.75532">
        <ele>50</ele>
        <time>2007-12-24T12:47:08Z</time>
      </trkpt>
      <trkpt lat="47.9949" lon="-1.75547">
        <ele>51</ele>
        <time>2007-12-24T12:47:23Z</time>
      </trkpt>
      <trkpt lat="47.99447" lon="-1.75691">
        <ele>51</ele>
        <time>2007-12-24T12:48:06Z</time>
      </trkpt>
      <trkpt lat="47.99427" lon="-1.7582">
        <ele>53</ele>
        <time>2007-12-24T12:48:41Z</time>
      </trkpt>
      <trkpt lat="47.99437" lon="-1.75972">
        <ele>52</ele>
        <time>2007-12-24T12:49:22Z</time>
      </trkpt>
      <trkpt lat="47.9942" lon="-1.76082">
        <ele>50</ele>
        <time>2007-12-24T12:49:52Z</time>
      </trkpt>
      <trkpt lat="47.99409" lon="-1.76121">
        <ele>50</ele>
        <time>2007-12-24T12:50:04Z</time>
      </trkpt>
      <trkpt lat="47.99449" lon="-1.76285">
        <ele>54</ele>
        <time>2007-12-24T12:50:50Z</time>
      </trkpt>
      <trkpt lat="47.99545" lon="-1.76481">
        <ele>54</ele>
        <time>2007-12-24T12:51:56Z</time>
      </trkpt>
      <trkpt lat="47.99529" lon="-1.7657">
        <ele>51</ele>
        <time>2007-12-24T12:52:20Z</time>
      </trkpt>
      <trkpt lat="47.99499" lon="-1.76729">
        <ele>47</ele>
        <time>2007-12-24T12:53:05Z</time>
      </trkpt>
      <trkpt lat="47.99506" lon="-1.76769">
        <ele>45</ele>
        <time>2007-12-24T12:53:16Z</time>
      </trkpt>
      <trkpt lat="47.99596" lon="-1.76776">
        <ele>42</ele>
        <time>2007-12-24T12:53:52Z</time>
      </trkpt>
      <trkpt lat="47.99709" lon="-1.76812">
        <ele>40</ele>
        <time>2007-12-24T12:54:38Z</time>
      </trkpt>
      <trkpt lat="47.99794" lon="-1.76798">
        <ele>29</ele>
        <time>2007-12-24T12:55:12Z</time>
      </trkpt>
      <trkpt lat="47.99839" lon="-1.76843">
        <ele>23</ele>
        <time>2007-12-24T12:55:34Z</time>
      </trkpt>
      <trkpt lat="47.99857" lon="-1.76917">
        <ele>25</ele>
        <time>2007-12-24T12:55:55Z</time>
      </trkpt>
      <trkpt lat="47.99891" lon="-1.76977">
        <ele>16</ele>
        <time>2007-12-24T12:56:16Z</time>
      </trkpt>
      <trkpt lat="47.99903" lon="-1.77136">
        <ele>17</ele>
        <time>2007-12-24T12:56:59Z</time>
      </trkpt>
      <trkpt lat="47.99921" lon="-1.77275">
        <ele>17</ele>
        <time>2007-12-24T12:57:37Z</time>
      </trkpt>
      <trkpt lat="47.99991" lon="-1.77253">
        <ele>17</ele>
        <time>2007-12-24T12:58:05Z</time>
      </trkpt>
      <trkpt lat="48.0006" lon="-1.77296">
        <ele>17</ele>
        <time>2007-12-24T12:58:35Z</time>
      </trkpt>
      <trkpt lat="48.00115" lon="-1.77367">
        <ele>17</ele>
        <time>2007-12-24T12:59:05Z</time>
      </trkpt>
      <trkpt lat="48.00199" lon="-1.77494">
        <ele>15</ele>
        <time>2007-12-24T12:59:52Z</time>
      </trkpt>
      <trkpt lat="48.00196" lon="-1.77538">
        <ele>15</ele>
        <time>2007-12-24T13:00:04Z</time>
      </trkpt>
      <trkpt lat="48.00308" lon="-1.77526">
        <ele>16</ele>
        <time>2007-12-24T13:00:49Z</time>
      </trkpt>
      <trkpt lat="48.00322" lon="-1.77762">
        <ele>16</ele>
        <time>2007-12-24T13:01:52Z</time>
      </trkpt>
      <trkpt lat="48.00342" lon="-1.77854">
        <ele>17</ele>
        <time>2007-12-24T13:02:18Z</time>
      </trkpt>
      <trkpt lat="48.00428" lon="-1.78019">
        <ele>17</ele>
        <time>2007-12-24T13:03:15Z</time>
      </trkpt>
      <trkpt lat="48.00426" lon="-1.78078">
        <ele>16</ele>
        <time>2007-12-24T13:03:30Z</time>
      </trkpt>
      <trkpt lat="48.00394" lon="-1.78157">
        <ele>16</ele>
        <time>2007-12-24T13:03:55Z</time>
      </trkpt>
      <trkpt lat="48.00354" lon="-1.78395">
        <ele>16</ele>
        <time>2007-12-24T13:05:01Z</time>
      </trkpt>
      <trkpt lat="48.00373" lon="-1.78424">
        <ele>16</ele>
        <time>2007-12-24T13:05:12Z</time>
      </trkpt>
      <trkpt lat="48.00469" lon="-1.78461">
        <ele>16</ele>
        <time>2007-12-24T13:05:51Z</time>
      </trkpt>
      <trkpt lat="48.00571" lon="-1.78507">
        <ele>16</ele>
        <time>2007-12-24T13:06:34Z</time>
      </trkpt>
      <trkpt lat="48.00661" lon="-1.785">
        <ele>16</ele>
        <time>2007-12-24T13:07:10Z</time>
      </trkpt>
      <trkpt lat="48.00724" lon="-1.78495">
        <ele>16</ele>
        <time>2007-12-24T13:07:35Z</time>
      </trkpt>
      <trkpt lat="48.00785" lon="-1.78449">
        <ele>16</ele>
        <time>2007-12-24T13:08:03Z</time>
      </trkpt>
      <trkpt lat="48.0083" lon="-1.78385">
        <ele>17</ele>
        <time>2007-12-24T13:08:28Z</time>
      </trkpt>
      <trkpt lat="48.0091" lon="-1.78338">
        <ele>17</ele>
        <time>2007-12-24T13:09:02Z</time>
      </trkpt>
      <trkpt lat="48.00945" lon="-1.78348">
        <ele>17</ele>
        <time>2007-12-24T13:09:16Z</time>
      </trkpt>
      <trkpt lat="48.00987" lon="-1.78335">
        <ele>17</ele>
        <time>2007-12-24T13:09:33Z</time>
      </trkpt>
      <trkpt lat="48.01069" lon="-1.7829">
        <ele>17</ele>
        <time>2007-12-24T13:10:08Z</time>
      </trkpt>
      <trkpt lat="48.0119" lon="-1.78249">
        <ele>18</ele>
        <time>2007-12-24T13:10:58Z</time>
      </trkpt>
      <trkpt lat="48.01256" lon="-1.78221">
        <ele>17</ele>
        <time>2007-12-24T13:11:26Z</time>
      </trkpt>
      <trkpt lat="48.01346" lon="-1.7815">
        <ele>18</ele>
        <time>2007-12-24T13:12:06Z</time>
      </trkpt>
      <trkpt lat="48.01396" lon="-1.78152">
        <ele>17</ele>
        <time>2007-12-24T13:12:26Z</time>
      </trkpt>
      <trkpt lat="48.01453" lon="-1.78203">
        <ele>16</ele>
        <time>2007-12-24T13:12:53Z</time>
      </trkpt>
      <trkpt lat="48.01539" lon="-1.78206">
        <ele>16</ele>
        <time>2007-12-24T13:13:27Z</time>
      </trkpt>
      <trkpt lat="48.01643" lon="-1.7815">
        <ele>16</ele>
        <time>2007-12-24T13:14:12Z</time>
      </trkpt>
      <trkpt lat="48.01712" lon="-1.78001">
        <ele>17</ele>
        <time>2007-12-24T13:15:00Z</time>
      </trkpt>
      <trkpt lat="48.01793" lon="-1.77877">
        <ele>17</ele>
        <time>2007-12-24T13:15:47Z</time>
      </trkpt>
      <trkpt lat="48.01903" lon="-1.77771">
        <ele>17</ele>
        <time>2007-12-24T13:16:39Z</time>
      </trkpt>
      <trkpt lat="48.01996" lon="-1.77682">
        <ele>17</ele>
        <time>2007-12-24T13:17:23Z</time>
      </trkpt>
      <trkpt lat="48.02059" lon="-1.77593">
        <ele>17</ele>
        <time>2007-12-24T13:17:58Z</time>
      </trkpt>
      <trkpt lat="48.02101" lon="-1.77516">
        <ele>18</ele>
        <time>2007-12-24T13:18:24Z</time>
      </trkpt>
      <trkpt lat="48.02177" lon="-1.77467">
        <ele>18</ele>
        <time>2007-12-24T13:18:57Z</time>
      </trkpt>
      <trkpt lat="48.02271" lon="-1.77418">
        <ele>18</ele>
        <time>2007-12-24T13:19:37Z</time>
      </trkpt>
      <trkpt lat="48.02349" lon="-1.7736">
        <ele>18</ele>
        <time>2007-12-24T13:20:12Z</time>
      </trkpt>
      <trkpt lat="48.02445" lon="-1.77267">
        <ele>18</ele>
        <time>2007-12-24T13:20:58Z</time>
      </trkpt>
      <trkpt lat="48.02504" lon="-1.77251">
        <ele>17</ele>
        <time>2007-12-24T13:21:22Z</time>
      </trkpt>
      <trkpt lat="48.02567" lon="-1.77257">
        <ele>17</ele>
        <time>2007-12-24T13:21:47Z</time>
      </trkpt>
      <trkpt lat="48.02678" lon="-1.77258">
        <ele>19</ele>
        <time>2007-12-24T13:22:32Z</time>
      </trkpt>
      <trkpt lat="48.02758" lon="-1.77264">
        <ele>20</ele>
        <time>2007-12-24T13:23:04Z</time>
      </trkpt>
      <trkpt lat="48.02861" lon="-1.7727">
        <ele>19</ele>
        <time>2007-12-24T13:23:45Z</time>
      </trkpt>
      <trkpt lat="48.02933" lon="-1.77268">
        <ele>19</ele>
        <time>2007-12-24T13:24:14Z</time>
      </trkpt>
      <trkpt lat="48.03065" lon="-1.77262">
        <ele>20</ele>
        <time>2007-12-24T13:25:07Z</time>
      </trkpt>
      <trkpt lat="48.03164" lon="-1.77269">
        <ele>18</ele>
        <time>2007-12-24T13:25:46Z</time>
      </trkpt>
      <trkpt lat="48.03291" lon="-1.77282">
        <ele>18</ele>
        <time>2007-12-24T13:26:37Z</time>
      </trkpt>
      <trkpt lat="48.03374" lon="-1.77292">
        <ele>18</ele>
        <time>2007-12-24T13:27:11Z</time>
      </trkpt>
      <trkpt lat="48.03445" lon="-1.77326">
        <ele>18</ele>
        <time>2007-12-24T13:27:40Z</time>
      </trkpt>
      <trkpt lat="48.03528" lon="-1.77459">
        <ele>18</ele>
        <time>2007-12-24T13:28:29Z</time>
      </trkpt>
      <trkpt lat="48.03563" lon="-1.77485">
        <ele>18</ele>
        <time>2007-12-24T13:28:45Z</time>
      </trkpt>
      <trkpt lat="48.03668" lon="-1.77446">
        <ele>18</ele>
        <time>2007-12-24T13:29:28Z</time>
      </trkpt>
      <trkpt lat="48.03779" lon="-1.77499">
        <ele>18</ele>
        <time>2007-12-24T13:30:15Z</time>
      </trkpt>
      <trkpt lat="48.03826" lon="-1.77553">
        <ele>18</ele>
        <time>2007-12-24T13:30:38Z</time>
      </trkpt>
      <trkpt lat="48.03913" lon="-1.77593">
        <ele>18</ele>
        <time>2007-12-24T13:31:15Z</time>
      </trkpt>
      <trkpt lat="48.04009" lon="-1.77598">
        <ele>18</ele>
        <time>2007-12-24T13:31:54Z</time>
      </trkpt>
      <trkpt lat="48.04049" lon="-1.77574">
        <ele>19</ele>
        <time>2007-12-24T13:32:10Z</time>
      </trkpt>
      <trkpt lat="48.04123" lon="-1.77512">
        <ele>20</ele>
        <time>2007-12-24T13:32:44Z</time>
      </trkpt>
      <trkpt lat="48.0417" lon="-1.77459">
        <ele>20</ele>
        <time>2007-12-24T13:33:08Z</time>
      </trkpt>
      <trkpt lat="48.04208" lon="-1.77401">
        <ele>20</ele>
        <time>2007-12-24T13:33:30Z</time>
      </trkpt>
      <trkpt lat="48.04264" lon="-1.77345">
        <ele>21</ele>
        <time>2007-12-24T13:33:57Z</time>
      </trkpt>
      <trkpt lat="48.04285" lon="-1.77307">
        <ele>21</ele>
        <time>2007-12-24T13:34:10Z</time>
      </trkpt>
      <trkpt lat="48.04266" lon="-1.77255">
        <ele>21</ele>
        <time>2007-12-24T13:34:26Z</time>
      </trkpt>
      <trkpt lat="48.04307" lon="-1.77214">
        <ele>19</ele>
        <time>2007-12-24T13:34:45Z</time>
      </trkpt>
      <trkpt lat="48.04346" lon="-1.77264">
        <ele>19</ele>
        <time>2007-12-24T13:35:06Z</time>
      </trkpt>
      <trkpt lat="48.04348" lon="-1.77326">
        <ele>19</ele>
        <time>2007-12-24T13:35:22Z</time>
      </trkpt>
      <trkpt lat="48.04438" lon="-1.77244">
        <ele>18</ele>
        <time>2007-12-24T13:36:05Z</time>
      </trkpt>
      <trkpt lat="48.0446" lon="-1.77197">
        <ele>18</ele>
        <time>2007-12-24T13:36:20Z</time>
      </trkpt>
      <trkpt lat="48.04406" lon="-1.77014">
        <ele>18</ele>
        <time>2007-12-24T13:37:13Z</time>
      </trkpt>
      <trkpt lat="48.04388" lon="-1.76895">
        <ele>20</ele>
        <time>2007-12-24T13:37:46Z</time>
      </trkpt>
      <trkpt lat="48.04415" lon="-1.76797">
        <ele>19</ele>
        <time>2007-12-24T13:38:15Z</time>
      </trkpt>
      <trkpt lat="48.04455" lon="-1.76713">
        <ele>19</ele>
        <time>2007-12-24T13:38:42Z</time>
      </trkpt>
      <trkpt lat="48.04543" lon="-1.76658">
        <ele>19</ele>
        <time>2007-12-24T13:39:20Z</time>
      </trkpt>
      <trkpt lat="48.04638" lon="-1.7662">
        <ele>19</ele>
        <time>2007-12-24T13:40:00Z</time>
      </trkpt>
      <trkpt lat="48.04761" lon="-1.76602">
        <ele>18</ele>
        <time>2007-12-24T13:40:49Z</time>
      </trkpt>
      <trkpt lat="48.04798" lon="-1.76605">
        <ele>18</ele>
        <time>2007-12-24T13:41:04Z</time>
      </trkpt>
      <trkpt lat="48.04827" lon="-1.76643">
        <ele>18</ele>
        <time>2007-12-24T13:41:20Z</time>
      </trkpt>
      <trkpt lat="48.04928" lon="-1.76631">
        <ele>18</ele>
        <time>2007-12-24T13:42:00Z</time>
      </trkpt>
      <trkpt lat="48.05009" lon="-1.76655">
        <ele>18</ele>
        <time>2007-12-24T13:42:33Z</time>
      </trkpt>
      <trkpt lat="48.05054" lon="-1.76658">
        <ele>18</ele>
        <time>2007-12-24T13:42:51Z</time>
      </trkpt>
      <trkpt lat="48.05081" lon="-1.7666">
        <ele>18</ele>
        <time>2007-12-24T13:43:02Z</time>
      </trkpt>
      <trkpt lat="48.05106" lon="-1.76642">
        <ele>18</ele>
        <time>2007-12-24T13:43:13Z</time>
      </trkpt>
      <trkpt lat="48.05703" lon="-1.76379">
        <ele>20</ele>
        <time>2007-12-24T13:47:22Z</time>
      </trkpt>
      <trkpt lat="48.06064" lon="-1.7623">
        <ele>19</ele>
        <time>2007-12-24T13:49:52Z</time>
      </trkpt>
      <trkpt lat="48.064" lon="-1.76092">
        <ele>19</ele>
        <time>2007-12-24T13:52:12Z</time>
      </trkpt>
      <trkpt lat="48.06433" lon="-1.76051">
        <ele>19</ele>
        <time>2007-12-24T13:52:29Z</time>
      </trkpt>
      <trkpt lat="48.06532" lon="-1.76017">
        <ele>19</ele>
        <time>2007-12-24T13:53:10Z</time>
      </trkpt>
      <trkpt lat="48.06564" lon="-1.76021">
        <ele>19</ele>
        <time>2007-12-24T13:53:22Z</time>
      </trkpt>
      <trkpt lat="48.0668" lon="-1.75871">
        <ele>19</ele>
        <time>2007-12-24T13:54:24Z</time>
      </trkpt>
      <trkpt lat="48.06787" lon="-1.75763">
        <ele>19</ele>
        <time>2007-12-24T13:55:15Z</time>
      </trkpt>
      <trkpt lat="48.06868" lon="-1.75745">
        <ele>19</ele>
        <time>2007-12-24T13:55:48Z</time>
      </trkpt>
      <trkpt lat="48.06917" lon="-1.75762">
        <ele>19</ele>
        <time>2007-12-24T13:56:08Z</time>
      </trkpt>
      <trkpt lat="48.06991" lon="-1.75856">
        <ele>20</ele>
        <time>2007-12-24T13:56:47Z</time>
      </trkpt>
      <trkpt lat="48.07048" lon="-1.7591">
        <ele>20</ele>
        <time>2007-12-24T13:57:14Z</time>
      </trkpt>
      <trkpt lat="48.07136" lon="-1.75903">
        <ele>20</ele>
        <time>2007-12-24T13:57:49Z</time>
      </trkpt>
      <trkpt lat="48.07202" lon="-1.75815">
        <ele>20</ele>
        <time>2007-12-24T13:58:25Z</time>
      </trkpt>
      <trkpt lat="48.07245" lon="-1.75724">
        <ele>20</ele>
        <time>2007-12-24T13:58:55Z</time>
      </trkpt>
      <trkpt lat="48.07313" lon="-1.75666">
        <ele>20</ele>
        <time>2007-12-24T13:59:26Z</time>
      </trkpt>
      <trkpt lat="48.07398" lon="-1.75544">
        <ele>20</ele>
        <time>2007-12-24T14:00:13Z</time>
      </trkpt>
      <trkpt lat="48.07446" lon="-1.7547">
        <ele>21</ele>
        <time>2007-12-24T14:00:40Z</time>
      </trkpt>
      <trkpt lat="48.07559" lon="-1.75375">
        <ele>22</ele>
        <time>2007-12-24T14:01:32Z</time>
      </trkpt>
      <trkpt lat="48.07629" lon="-1.75308">
        <ele>22</ele>
        <time>2007-12-24T14:02:06Z</time>
      </trkpt>
      <trkpt lat="48.07691" lon="-1.75264">
        <ele>20</ele>
        <time>2007-12-24T14:02:33Z</time>
      </trkpt>
      <trkpt lat="48.07763" lon="-1.75224">
        <ele>20</ele>
        <time>2007-12-24T14:03:04Z</time>
      </trkpt>
      <trkpt lat="48.07779" lon="-1.75218">
        <ele>20</ele>
        <time>2007-12-24T14:03:10Z</time>
      </trkpt>
      <trkpt lat="48.07831" lon="-1.75246">
        <ele>21</ele>
        <time>2007-12-24T14:03:33Z</time>
      </trkpt>
      <trkpt lat="48.07886" lon="-1.75273">
        <ele>21</ele>
        <time>2007-12-24T14:03:56Z</time>
      </trkpt>
      <trkpt lat="48.07941" lon="-1.7525">
        <ele>21</ele>
        <time>2007-12-24T14:04:19Z</time>
      </trkpt>
      <trkpt lat="48.08003" lon="-1.75159">
        <ele>20</ele>
        <time>2007-12-24T14:04:54Z</time>
      </trkpt>
      <trkpt lat="48.08058" lon="-1.75123">
        <ele>21</ele>
        <time>2007-12-24T14:05:18Z</time>
      </trkpt>
      <trkpt lat="48.08128" lon="-1.75132">
        <ele>22</ele>
        <time>2007-12-24T14:05:46Z</time>
      </trkpt>
      <trkpt lat="48.08191" lon="-1.75113">
        <ele>22</ele>
        <time>2007-12-24T14:06:12Z</time>
      </trkpt>
      <trkpt lat="48.08274" lon="-1.75076">
        <ele>22</ele>
        <time>2007-12-24T14:06:46Z</time>
      </trkpt>
      <trkpt lat="48.08365" lon="-1.75025">
        <ele>22</ele>
        <time>2007-12-24T14:07:25Z</time>
      </trkpt>
      <trkpt lat="48.08413" lon="-1.75029">
        <ele>22</ele>
        <time>2007-12-24T14:07:44Z</time>
      </trkpt>
      <trkpt lat="48.08523" lon="-1.7504">
        <ele>21</ele>
        <time>2007-12-24T14:08:28Z</time>
      </trkpt>
      <trkpt lat="48.08594" lon="-1.751">
        <ele>21</ele>
        <time>2007-12-24T14:09:01Z</time>
      </trkpt>
      <trkpt lat="48.08713" lon="-1.7521">
        <ele>21</ele>
        <time>2007-12-24T14:09:57Z</time>
      </trkpt>
      <trkpt lat="48.0878" lon="-1.75213">
        <ele>21</ele>
        <time>2007-12-24T14:10:24Z</time>
      </trkpt>
      <trkpt lat="48.08918" lon="-1.75186">
        <ele>21</ele>
        <time>2007-12-24T14:11:20Z</time>
      </trkpt>
      <trkpt lat="48.09011" lon="-1.75149">
        <ele>21</ele>
        <time>2007-12-24T14:11:58Z</time>
      </trkpt>
      <trkpt lat="48.09091" lon="-1.75149">
        <ele>20</ele>
        <time>2007-12-24T14:12:30Z</time>
      </trkpt>
      <trkpt lat="48.09187" lon="-1.75093">
        <ele>22</ele>
        <time>2007-12-24T14:13:11Z</time>
      </trkpt>
      <trkpt lat="48.09249" lon="-1.74929">
        <ele>22</ele>
        <time>2007-12-24T14:14:02Z</time>
      </trkpt>
      <trkpt lat="48.09316" lon="-1.74797">
        <ele>22</ele>
        <time>2007-12-24T14:14:46Z</time>
      </trkpt>
      <trkpt lat="48.09378" lon="-1.74654">
        <ele>23</ele>
        <time>2007-12-24T14:15:31Z</time>
      </trkpt>
      <trkpt lat="48.09382" lon="-1.74614">
        <ele>22</ele>
        <time>2007-12-24T14:15:42Z</time>
      </trkpt>
      <trkpt lat="48.09429" lon="-1.74533">
        <ele>21</ele>
        <time>2007-12-24T14:16:11Z</time>
      </trkpt>
      <trkpt lat="48.09552" lon="-1.745">
        <ele>21</ele>
        <time>2007-12-24T14:17:01Z</time>
      </trkpt>
      <trkpt lat="48.09668" lon="-1.74458">
        <ele>21</ele>
        <time>2007-12-24T14:17:49Z</time>
      </trkpt>
      <trkpt lat="48.09745" lon="-1.74444">
        <ele>22</ele>
        <time>2007-12-24T14:18:20Z</time>
      </trkpt>
      <trkpt lat="48.09839" lon="-1.74397">
        <ele>22</ele>
        <time>2007-12-24T14:18:59Z</time>
      </trkpt>
      <trkpt lat="48.09863" lon="-1.74362">
        <ele>22</ele>
        <time>2007-12-24T14:19:13Z</time>
      </trkpt>
      <trkpt lat="48.09854" lon="-1.74284">
        <ele>22</ele>
        <time>2007-12-24T14:19:34Z</time>
      </trkpt>
      <trkpt lat="48.09808" lon="-1.7426">
        <ele>22</ele>
        <time>2007-12-24T14:19:54Z</time>
      </trkpt>
      <trkpt lat="48.0978" lon="-1.74211">
        <ele>22</ele>
        <time>2007-12-24T14:20:11Z</time>
      </trkpt>
      <trkpt lat="48.09727" lon="-1.74117">
        <ele>22</ele>
        <time>2007-12-24T14:20:44Z</time>
      </trkpt>
      <trkpt lat="48.09691" lon="-1.74053">
        <ele>22</ele>
        <time>2007-12-24T14:21:06Z</time>
      </trkpt>
      <trkpt lat="48.0965" lon="-1.74003">
        <ele>22</ele>
        <time>2007-12-24T14:21:27Z</time>
      </trkpt>
      <trkpt lat="48.09617" lon="-1.74037">
        <ele>22</ele>
        <time>2007-12-24T14:21:43Z</time>
      </trkpt>
      <trkpt lat="48.09566" lon="-1.741">
        <ele>22</ele>
        <time>2007-12-24T14:22:10Z</time>
      </trkpt>
      <trkpt lat="48.09511" lon="-1.74116">
        <ele>22</ele>
        <time>2007-12-24T14:22:32Z</time>
      </trkpt>
      <trkpt lat="48.09475" lon="-1.74073">
        <ele>22</ele>
        <time>2007-12-24T14:22:51Z</time>
      </trkpt>
      <trkpt lat="48.09434" lon="-1.7401">
        <ele>22</ele>
        <time>2007-12-24T14:23:14Z</time>
      </trkpt>
      <trkpt lat="48.09419" lon="-1.73984">
        <ele>22</ele>
        <time>2007-12-24T14:23:23Z</time>
      </trkpt>
      <trkpt lat="48.0946" lon="-1.7392">
        <ele>23</ele>
        <time>2007-12-24T14:23:47Z</time>
      </trkpt>
      <trkpt lat="48.09497" lon="-1.7388">
        <ele>22</ele>
        <time>2007-12-24T14:24:05Z</time>
      </trkpt>
      <trkpt lat="48.09467" lon="-1.73817">
        <ele>23</ele>
        <time>2007-12-24T14:24:26Z</time>
      </trkpt>
      <trkpt lat="48.09445" lon="-1.73762">
        <ele>24</ele>
        <time>2007-12-24T14:24:43Z</time>
      </trkpt>
      <trkpt lat="48.09379" lon="-1.73713">
        <ele>25</ele>
        <time>2007-12-24T14:25:13Z</time>
      </trkpt>
      <trkpt lat="48.09402" lon="-1.73574">
        <ele>24</ele>
        <time>2007-12-24T14:25:51Z</time>
      </trkpt>
      <trkpt lat="48.09412" lon="-1.73463">
        <ele>23</ele>
        <time>2007-12-24T14:26:21Z</time>
      </trkpt>
      <trkpt lat="48.09398" lon="-1.73438">
        <ele>24</ele>
        <time>2007-12-24T14:26:30Z</time>
      </trkpt>
      <trkpt lat="48.09504" lon="-1.73283">
        <ele>23</ele>
        <time>2007-12-24T14:27:29Z</time>
      </trkpt>
      <trkpt lat="48.09541" lon="-1.73245">
        <ele>23</ele>
        <time>2007-12-24T14:27:47Z</time>
      </trkpt>
      <trkpt lat="48.09579" lon="-1.73265">
        <ele>23</ele>
        <time>2007-12-24T14:28:03Z</time>
      </trkpt>
      <trkpt lat="48.09643" lon="-1.73176">
        <ele>24</ele>
        <time>2007-12-24T14:28:38Z</time>
      </trkpt>
      <trkpt lat="48.09704" lon="-1.73237">
        <ele>23</ele>
        <time>2007-12-24T14:29:07Z</time>
      </trkpt>
      <trkpt lat="48.09724" lon="-1.73289">
        <ele>22</ele>
        <time>2007-12-24T14:29:24Z</time>
      </trkpt>
      <trkpt lat="48.09758" lon="-1.73313">
        <ele>22</ele>
        <time>2007-12-24T14:29:38Z</time>
      </trkpt>
      <trkpt lat="48.09754" lon="-1.73403">
        <ele>22</ele>
        <time>2007-12-24T14:30:03Z</time>
      </trkpt>
      <trkpt lat="48.09748" lon="-1.7354">
        <ele>23</ele>
        <time>2007-12-24T14:30:39Z</time>
      </trkpt>
      <trkpt lat="48.09726" lon="-1.73636">
        <ele>23</ele>
        <time>2007-12-24T14:31:06Z</time>
      </trkpt>
      <trkpt lat="48.09734" lon="-1.73717">
        <ele>23</ele>
        <time>2007-12-24T14:31:28Z</time>
      </trkpt>
      <trkpt lat="48.0978" lon="-1.73727">
        <ele>22</ele>
        <time>2007-12-24T14:31:47Z</time>
      </trkpt>
      <trkpt lat="48.09896" lon="-1.73558">
        <ele>21</ele>
        <time>2007-12-24T14:32:51Z</time>
      </trkpt>
      <trkpt lat="48.09906" lon="-1.73512">
        <ele>21</ele>
        <time>2007-12-24T14:33:04Z</time>
      </trkpt>
      <trkpt lat="48.09934" lon="-1.73491">
        <ele>21</ele>
        <time>2007-12-24T14:33:17Z</time>
      </trkpt>
      <trkpt lat="48.09935" lon="-1.73457">
        <ele>21</ele>
        <time>2007-12-24T14:33:26Z</time>
      </trkpt>
      <trkpt lat="48.09974" lon="-1.73456">
        <ele>22</ele>
        <time>2007-12-24T14:33:41Z</time>
      </trkpt>
      <trkpt lat="48.09917" lon="-1.7326">
        <ele>22</ele>
        <time>2007-12-24T14:34:38Z</time>
      </trkpt>
      <trkpt lat="48.09904" lon="-1.73136">
        <ele>22</ele>
        <time>2007-12-24T14:35:12Z</time>
      </trkpt>
      <trkpt lat="48.09915" lon="-1.73082">
        <ele>23</ele>
        <time>2007-12-24T14:35:27Z</time>
      </trkpt>
      <trkpt lat="48.09998" lon="-1.72995">
        <ele>23</ele>
        <time>2007-12-24T14:36:08Z</time>
      </trkpt>
      <trkpt lat="48.10036" lon="-1.72815">
        <ele>23</ele>
        <time>2007-12-24T14:36:58Z</time>
      </trkpt>
      <trkpt lat="48.10072" lon="-1.72608">
        <ele>23</ele>
        <time>2007-12-24T14:37:56Z</time>
      </trkpt>
      <trkpt lat="48.10134" lon="-1.72329">
        <ele>24</ele>
        <time>2007-12-24T14:39:14Z</time>
      </trkpt>
      <trkpt lat="48.10175" lon="-1.72249">
        <ele>24</ele>
        <time>2007-12-24T14:39:41Z</time>
      </trkpt>
      <trkpt lat="48.10254" lon="-1.72184">
        <ele>23</ele>
        <time>2007-12-24T14:40:17Z</time>
      </trkpt>
      <trkpt lat="48.10296" lon="-1.72133">
        <ele>23</ele>
        <time>2007-12-24T14:40:39Z</time>
      </trkpt>
      <trkpt lat="48.10358" lon="-1.71899">
        <ele>23</ele>
        <time>2007-12-24T14:41:46Z</time>
      </trkpt>
      <trkpt lat="48.10502" lon="-1.71709">
        <ele>23</ele>
        <time>2007-12-24T14:43:03Z</time>
      </trkpt>
      <trkpt lat="48.10605" lon="-1.71516">
        <ele>22</ele>
        <time>2007-12-24T14:44:09Z</time>
      </trkpt>
      <trkpt lat="48.10624" lon="-1.71353">
        <ele>23</ele>
        <time>2007-12-24T14:44:54Z</time>
      </trkpt>
      <trkpt lat="48.10624" lon="-1.71171">
        <ele>23</ele>
        <time>2007-12-24T14:45:42Z</time>
      </trkpt>
      <trkpt lat="48.10626" lon="-1.71111">
        <ele>23</ele>
        <time>2007-12-24T14:45:58Z</time>
      </trkpt>
      <trkpt lat="48.10632" lon="-1.71138">
        <ele>23</ele>
        <time>2007-12-23T18:24:32Z</time>
      </trkpt>
      <trkpt lat="48.10634" lon="-1.70811">
        <ele>24</ele>
        <time>2007-12-23T18:25:59Z</time>
      </trkpt>
      <trkpt lat="48.10646" lon="-1.70448">
        <ele>24</ele>
        <time>2007-12-23T18:27:36Z</time>
      </trkpt>
      <trkpt lat="48.10677" lon="-1.70108">
        <ele>24</ele>
        <time>2007-12-23T18:29:08Z</time>
      </trkpt>
      <trkpt lat="48.1072" lon="-1.69933">
        <ele>24</ele>
        <time>2007-12-23T18:29:58Z</time>
      </trkpt>
      <trkpt lat="48.10746" lon="-1.69792">
        <ele>24</ele>
        <time>2007-12-23T18:30:37Z</time>
      </trkpt>
      <trkpt lat="48.10781" lon="-1.69657">
        <ele>24</ele>
        <time>2007-12-23T18:31:16Z</time>
      </trkpt>
      <trkpt lat="48.10772" lon="-1.69522">
        <ele>25</ele>
        <time>2007-12-23T18:31:52Z</time>
      </trkpt>
      <trkpt lat="48.10758" lon="-1.6949">
        <ele>25</ele>
        <time>2007-12-23T18:32:02Z</time>
      </trkpt>
      <trkpt lat="48.10765" lon="-1.69478">
        <ele>25</ele>
        <time>2007-12-23T18:32:06Z</time>
      </trkpt>
      <trkpt lat="48.10807" lon="-1.69539">
        <ele>25</ele>
        <time>2007-12-23T18:32:30Z</time>
      </trkpt>
      <trkpt lat="48.10815" lon="-1.695">
        <ele>25</ele>
        <time>2007-12-23T18:32:41Z</time>
      </trkpt>
      <trkpt lat="48.10838" lon="-1.69496">
        <ele>25</ele>
        <time>2007-12-23T18:32:50Z</time>
      </trkpt>
      <trkpt lat="48.10852" lon="-1.69515">
        <ele>25</ele>
        <time>2007-12-23T18:32:58Z</time>
      </trkpt>
      <trkpt lat="48.10888" lon="-1.69508">
        <ele>25</ele>
        <time>2007-12-23T18:33:12Z</time>
      </trkpt>
      <trkpt lat="48.10899" lon="-1.69498">
        <ele>25</ele>
        <time>2007-12-23T18:33:17Z</time>
      </trkpt>
      <trkpt lat="48.10912" lon="-1.69498">
        <ele>25</ele>
        <time>2007-12-23T18:33:23Z</time>
      </trkpt>
      <trkpt lat="48.10937" lon="-1.69548">
        <ele>26</ele>
        <time>2007-12-23T18:33:39Z</time>
      </trkpt>
      <trkpt lat="48.10963" lon="-1.69531">
        <ele>26</ele>
        <time>2007-12-23T18:33:51Z</time>
      </trkpt>
      <trkpt lat="48.1098" lon="-1.69523">
        <ele>25</ele>
        <time>2007-12-23T18:33:58Z</time>
      </trkpt>
      <trkpt lat="48.10994" lon="-1.6951">
        <ele>25</ele>
        <time>2007-12-23T18:34:05Z</time>
      </trkpt>
      <trkpt lat="48.10995" lon="-1.6951">
        <ele>25</ele>
        <time>2007-12-23T18:34:05Z</time>
      </trkpt>
      <trkpt lat="48.11034" lon="-1.69533">
        <ele>26</ele>
        <time>2007-12-23T18:34:22Z</time>
      </trkpt>
      <trkpt lat="48.1105" lon="-1.69536">
        <ele>26</ele>
        <time>2007-12-23T18:34:28Z</time>
      </trkpt>
      <trkpt lat="48.11118" lon="-1.69426">
        <ele>26</ele>
        <time>2007-12-23T18:35:08Z</time>
      </trkpt>
      <trkpt lat="48.11144" lon="-1.69269">
        <ele>26</ele>
        <time>2007-12-23T18:35:51Z</time>
      </trkpt>
      <trkpt lat="48.11169" lon="-1.69169">
        <ele>25</ele>
        <time>2007-12-23T18:36:20Z</time>
      </trkpt>
      <trkpt lat="48.11195" lon="-1.69125">
        <ele>25</ele>
        <time>2007-12-23T18:36:36Z</time>
      </trkpt>
      <trkpt lat="48.11192" lon="-1.69112">
        <ele>24</ele>
        <time>2007-12-23T18:36:39Z</time>
      </trkpt>
      <trkpt lat="48.11206" lon="-1.69103">
        <ele>24</ele>
        <time>2007-12-23T18:36:46Z</time>
      </trkpt>
      <trkpt lat="48.11231" lon="-1.69086">
        <ele>25</ele>
        <time>2007-12-23T18:36:56Z</time>
      </trkpt>
      <trkpt lat="48.11242" lon="-1.69088">
        <ele>25</ele>
        <time>2007-12-23T18:37:01Z</time>
      </trkpt>
      <trkpt lat="48.11331" lon="-1.69043">
        <ele>25</ele>
        <time>2007-12-23T18:37:39Z</time>
      </trkpt>
      <trkpt lat="48.11444" lon="-1.68936">
        <ele>26</ele>
        <time>2007-12-23T18:38:32Z</time>
      </trkpt>
      <trkpt lat="48.11462" lon="-1.68889">
        <ele>27</ele>
        <time>2007-12-23T18:38:47Z</time>
      </trkpt>
      <trkpt lat="48.1147" lon="-1.68877">
        <ele>27</ele>
        <time>2007-12-23T18:38:51Z</time>
      </trkpt>
      <trkpt lat="48.11476" lon="-1.68879">
        <ele>27</ele>
        <time>2007-12-23T18:38:54Z</time>
      </trkpt>
      <trkpt lat="48.11487" lon="-1.68878">
        <ele>27</ele>
        <time>2007-12-23T18:38:58Z</time>
      </trkpt>
      <trkpt lat="48.1149" lon="-1.68871">
        <ele>27</ele>
        <time>2007-12-23T18:39:00Z</time>
      </trkpt>
      <trkpt lat="48.11514" lon="-1.68798">
        <ele>26</ele>
        <time>2007-12-23T18:39:22Z</time>
      </trkpt>
      <trkpt lat="48.11558" lon="-1.6876">
        <ele>26</ele>
        <time>2007-12-23T18:39:42Z</time>
      </trkpt>
      <trkpt lat="48.11573" lon="-1.68735">
        <ele>26</ele>
        <time>2007-12-23T18:39:51Z</time>
      </trkpt>
      <trkpt lat="48.11576" lon="-1.68734">
        <ele>26</ele>
        <time>2007-12-23T18:39:52Z</time>
      </trkpt>
      <trkpt lat="48.11651" lon="-1.68684">
        <ele>26</ele>
        <time>2007-12-23T18:40:25Z</time>
      </trkpt>
      <trkpt lat="48.11723" lon="-1.68649">
        <ele>26</ele>
        <time>2007-12-23T18:40:56Z</time>
      </trkpt>
      <trkpt lat="48.1176" lon="-1.68628">
        <ele>27</ele>
        <time>2007-12-23T18:41:11Z</time>
      </trkpt>
      <trkpt lat="48.11797" lon="-1.68596">
        <ele>27</ele>
        <time>2007-12-23T18:41:28Z</time>
      </trkpt>
      <trkpt lat="48.11799" lon="-1.6859">
        <ele>27</ele>
        <time>2007-12-23T18:41:30Z</time>
      </trkpt>
      <trkpt lat="48.11794" lon="-1.68563">
        <ele>27</ele>
        <time>2007-12-23T18:41:38Z</time>
      </trkpt>
      <trkpt lat="48.11794" lon="-1.68552">
        <ele>26</ele>
        <time>2007-12-23T18:41:41Z</time>
      </trkpt>
      <trkpt lat="48.11839" lon="-1.68525">
        <ele>26</ele>
        <time>2007-12-23T18:42:00Z</time>
      </trkpt>
      <trkpt lat="48.1188" lon="-1.68486">
        <ele>26</ele>
        <time>2007-12-23T18:42:20Z</time>
      </trkpt>
      <trkpt lat="48.11938" lon="-1.68399">
        <ele>26</ele>
        <time>2007-12-23T18:42:52Z</time>
      </trkpt>
      <trkpt lat="48.11998" lon="-1.68308">
        <ele>26</ele>
        <time>2007-12-23T18:43:27Z</time>
      </trkpt>
      <trkpt lat="48.12058" lon="-1.68226">
        <ele>27</ele>
        <time>2007-12-23T18:43:59Z</time>
      </trkpt>
      <trkpt lat="48.12066" lon="-1.68218">
        <ele>27</ele>
        <time>2007-12-23T18:44:03Z</time>
      </trkpt>
      <trkpt lat="48.12101" lon="-1.68174">
        <ele>27</ele>
        <time>2007-12-23T18:44:21Z</time>
      </trkpt>
      <trkpt lat="48.12135" lon="-1.68128">
        <ele>27</ele>
        <time>2007-12-23T18:44:40Z</time>
      </trkpt>
      <trkpt lat="48.12178" lon="-1.68066">
        <ele>26</ele>
        <time>2007-12-23T18:45:03Z</time>
      </trkpt>
      <trkpt lat="48.12216" lon="-1.68013">
        <ele>26</ele>
        <time>2007-12-23T18:45:24Z</time>
      </trkpt>
      <trkpt lat="48.12226" lon="-1.68002">
        <ele>26</ele>
        <time>2007-12-23T18:45:29Z</time>
      </trkpt>
      <trkpt lat="48.12239" lon="-1.67982">
        <ele>27</ele>
        <time>2007-12-23T18:45:37Z</time>
      </trkpt>
      <trkpt lat="48.12243" lon="-1.6797">
        <ele>27</ele>
        <time>2007-12-23T18:45:40Z</time>
      </trkpt>
      <trkpt lat="48.12193" lon="-1.67929">
        <ele>27</ele>
        <time>2007-12-23T18:46:03Z</time>
      </trkpt>
      <trkpt lat="48.12146" lon="-1.67899">
        <ele>27</ele>
        <time>2007-12-23T18:46:23Z</time>
      </trkpt>
      <trkpt lat="48.12131" lon="-1.67892">
        <ele>27</ele>
        <time>2007-12-23T18:46:30Z</time>
      </trkpt>
      <trkpt lat="48.12126" lon="-1.67887">
        <ele>27</ele>
        <time>2007-12-23T18:46:32Z</time>
      </trkpt>
      <trkpt lat="48.12125" lon="-1.67862">
        <ele>27</ele>
        <time>2007-12-23T18:46:39Z</time>
      </trkpt>
      <trkpt lat="48.12124" lon="-1.67767">
        <ele>27</ele>
        <time>2007-12-23T18:47:04Z</time>
      </trkpt>
      <trkpt lat="48.12122" lon="-1.67678">
        <ele>27</ele>
        <time>2007-12-23T18:47:28Z</time>
      </trkpt>
      <trkpt lat="48.12144" lon="-1.67586">
        <ele>27</ele>
        <time>2007-12-23T18:47:54Z</time>
      </trkpt>
      <trkpt lat="48.12155" lon="-1.67547">
        <ele>27</ele>
        <time>2007-12-23T18:48:06Z</time>
      </trkpt>
      <trkpt lat="48.1219" lon="-1.67528">
        <ele>27</ele>
        <time>2007-12-23T18:48:21Z</time>
      </trkpt>
      <trkpt lat="48.12192" lon="-1.67519">
        <ele>27</ele>
        <time>2007-12-23T18:48:23Z</time>
      </trkpt>
      <trkpt lat="48.12156" lon="-1.67468">
        <ele>27</ele>
        <time>2007-12-23T18:48:43Z</time>
      </trkpt>
      <trkpt lat="48.12149" lon="-1.67448">
        <ele>27</ele>
        <time>2007-12-23T18:48:49Z</time>
      </trkpt>
      <trkpt lat="48.1216" lon="-1.67394">
        <ele>27</ele>
        <time>2007-12-23T18:49:04Z</time>
      </trkpt>
      <trkpt lat="48.12194" lon="-1.67244">
        <ele>26</ele>
        <time>2007-12-23T18:49:46Z</time>
      </trkpt>
      <trkpt lat="48.12258" lon="-1.67147">
        <ele>26</ele>
        <time>2007-12-23T18:50:23Z</time>
      </trkpt>
      <trkpt lat="48.12306" lon="-1.67091">
        <ele>25</ele>
        <time>2007-12-23T18:50:47Z</time>
      </trkpt>
      <trkpt lat="48.12337" lon="-1.67084">
        <ele>25</ele>
        <time>2007-12-23T18:51:00Z</time>
      </trkpt>
      <trkpt lat="48.12345" lon="-1.67081">
        <ele>25</ele>
        <time>2007-12-23T18:51:03Z</time>
      </trkpt>
      <trkpt lat="48.12436" lon="-1.67061">
        <ele>26</ele>
        <time>2007-12-23T18:51:40Z</time>
      </trkpt>
      <trkpt lat="48.12503" lon="-1.67083">
        <ele>27</ele>
        <time>2007-12-23T18:52:07Z</time>
      </trkpt>
      <trkpt lat="48.1255" lon="-1.67122">
        <ele>27</ele>
        <time>2007-12-23T18:52:29Z</time>
      </trkpt>
      <trkpt lat="48.12552" lon="-1.67128">
        <ele>27</ele>
        <time>2007-12-23T18:52:31Z</time>
      </trkpt>
      <trkpt lat="48.12575" lon="-1.6716">
        <ele>27</ele>
        <time>2007-12-23T18:52:43Z</time>
      </trkpt>
      <trkpt lat="48.12594" lon="-1.67134">
        <ele>27</ele>
        <time>2007-12-23T18:52:53Z</time>
      </trkpt>
      <trkpt lat="48.12631" lon="-1.67065">
        <ele>27</ele>
        <time>2007-12-23T18:53:17Z</time>
      </trkpt>
      <trkpt lat="48.12671" lon="-1.66991">
        <ele>27</ele>
        <time>2007-12-23T18:53:42Z</time>
      </trkpt>
      <trkpt lat="48.12699" lon="-1.66955">
        <ele>27</ele>
        <time>2007-12-23T18:53:57Z</time>
      </trkpt>
      <trkpt lat="48.12715" lon="-1.6693">
        <ele>27</ele>
        <time>2007-12-23T18:54:06Z</time>
      </trkpt>
      <trkpt lat="48.12721" lon="-1.66911">
        <ele>27</ele>
        <time>2007-12-23T18:54:12Z</time>
      </trkpt>
      <trkpt lat="48.12734" lon="-1.66882">
        <ele>27</ele>
        <time>2007-12-23T18:54:21Z</time>
      </trkpt>
      <trkpt lat="48.12752" lon="-1.66848">
        <ele>27</ele>
        <time>2007-12-23T18:54:33Z</time>
      </trkpt>
      <trkpt lat="48.128" lon="-1.66786">
        <ele>28</ele>
        <time>2007-12-23T18:54:58Z</time>
      </trkpt>
      <trkpt lat="48.1284" lon="-1.66747">
        <ele>29</ele>
        <time>2007-12-23T18:55:17Z</time>
      </trkpt>
      <trkpt lat="48.12869" lon="-1.66732">
        <ele>29</ele>
        <time>2007-12-23T18:55:30Z</time>
      </trkpt>
      <trkpt lat="48.12901" lon="-1.66701">
        <ele>31</ele>
        <time>2007-12-23T18:55:45Z</time>
      </trkpt>
      <trkpt lat="48.12923" lon="-1.66682">
        <ele>32</ele>
        <time>2007-12-23T18:55:55Z</time>
      </trkpt>
      <trkpt lat="48.1297" lon="-1.66663">
        <ele>32</ele>
        <time>2007-12-23T18:56:14Z</time>
      </trkpt>
      <trkpt lat="48.13059" lon="-1.6663">
        <ele>32</ele>
        <time>2007-12-23T18:56:51Z</time>
      </trkpt>
      <trkpt lat="48.1313" lon="-1.66637">
        <ele>31</ele>
        <time>2007-12-23T18:57:20Z</time>
      </trkpt>
      <trkpt lat="48.13142" lon="-1.66636">
        <ele>32</ele>
        <time>2007-12-23T18:57:25Z</time>
      </trkpt>
      <trkpt lat="48.13163" lon="-1.66642">
        <ele>33</ele>
        <time>2007-12-23T18:57:33Z</time>
      </trkpt>
      <trkpt lat="48.13181" lon="-1.66653">
        <ele>33</ele>
        <time>2007-12-23T18:57:41Z</time>
      </trkpt>
      <trkpt lat="48.13192" lon="-1.66634">
        <ele>34</ele>
        <time>2007-12-23T18:57:48Z</time>
      </trkpt>
      <trkpt lat="48.13198" lon="-1.6662">
        <ele>34</ele>
        <time>2007-12-23T18:57:52Z</time>
      </trkpt>
      <trkpt lat="48.13214" lon="-1.66595">
        <ele>35</ele>
        <time>2007-12-23T18:58:01Z</time>
      </trkpt>
      <trkpt lat="48.13314" lon="-1.66562">
        <ele>40</ele>
        <time>2007-12-23T18:58:42Z</time>
      </trkpt>
      <trkpt lat="48.13399" lon="-1.66552">
        <ele>40</ele>
        <time>2007-12-23T18:59:16Z</time>
      </trkpt>
      <trkpt lat="48.13446" lon="-1.66538">
        <ele>38</ele>
        <time>2007-12-23T18:59:36Z</time>
      </trkpt>
      <trkpt lat="48.13543" lon="-1.66523">
        <ele>34</ele>
        <time>2007-12-23T19:00:15Z</time>
      </trkpt>
      <trkpt lat="48.13615" lon="-1.66526">
        <ele>33</ele>
        <time>2007-12-23T19:00:44Z</time>
      </trkpt>
      <trkpt lat="48.13637" lon="-1.66513">
        <ele>34</ele>
        <time>2007-12-23T19:00:53Z</time>
      </trkpt>
      <trkpt lat="48.13667" lon="-1.66505">
        <ele>33</ele>
        <time>2007-12-23T19:01:05Z</time>
      </trkpt>
      <trkpt lat="48.13731" lon="-1.66455">
        <ele>35</ele>
        <time>2007-12-23T19:01:34Z</time>
      </trkpt>
      <trkpt lat="48.13807" lon="-1.66393">
        <ele>40</ele>
        <time>2007-12-23T19:02:09Z</time>
      </trkpt>
      <trkpt lat="48.13853" lon="-1.66367">
        <ele>43</ele>
        <time>2007-12-23T19:02:28Z</time>
      </trkpt>
      <trkpt lat="48.13902" lon="-1.66342">
        <ele>46</ele>
        <time>2007-12-23T19:02:49Z</time>
      </trkpt>
      <trkpt lat="48.13943" lon="-1.66363">
        <ele>47</ele>
        <time>2007-12-23T19:03:06Z</time>
      </trkpt>
      <trkpt lat="48.13955" lon="-1.66362">
        <ele>48</ele>
        <time>2007-12-23T19:03:12Z</time>
      </trkpt>
      <trkpt lat="48.13968" lon="-1.66342">
        <ele>49</ele>
        <time>2007-12-23T19:03:19Z</time>
      </trkpt>
      <trkpt lat="48.13987" lon="-1.66323">
        <ele>50</ele>
        <time>2007-12-23T19:03:28Z</time>
      </trkpt>
      <trkpt lat="48.13994" lon="-1.66319">
        <ele>50</ele>
        <time>2007-12-23T19:03:31Z</time>
      </trkpt>
      <trkpt lat="48.14042" lon="-1.66313">
        <ele>50</ele>
        <time>2007-12-23T19:03:50Z</time>
      </trkpt>
      <trkpt lat="48.14052" lon="-1.66303">
        <ele>50</ele>
        <time>2007-12-23T19:03:55Z</time>
      </trkpt>
      <trkpt lat="48.1405" lon="-1.66285">
        <ele>50</ele>
        <time>2007-12-23T19:04:00Z</time>
      </trkpt>
      <trkpt lat="48.14058" lon="-1.66198">
        <ele>51</ele>
        <time>2007-12-23T19:04:23Z</time>
      </trkpt>
      <trkpt lat="48.14067" lon="-1.6618">
        <ele>51</ele>
        <time>2007-12-23T19:04:29Z</time>
      </trkpt>
      <trkpt lat="48.14069" lon="-1.66182">
        <ele>51</ele>
        <time>2007-12-23T19:04:31Z</time>
      </trkpt>
      <trkpt lat="48.14071" lon="-1.66185">
        <ele>51</ele>
        <time>2007-12-23T19:04:32Z</time>
      </trkpt>
      <trkpt lat="48.14079" lon="-1.66218">
        <ele>50</ele>
        <time>2007-12-23T19:04:41Z</time>
      </trkpt>
      <trkpt lat="48.14096" lon="-1.66223">
        <ele>50</ele>
        <time>2007-12-23T19:04:48Z</time>
      </trkpt>
      <trkpt lat="48.14112" lon="-1.66209">
        <ele>50</ele>
        <time>2007-12-23T19:04:55Z</time>
      </trkpt>
      <trkpt lat="48.14138" lon="-1.66132">
        <ele>50</ele>
        <time>2007-12-23T19:05:18Z</time>
      </trkpt>
      <trkpt lat="48.14151" lon="-1.65998">
        <ele>51</ele>
        <time>2007-12-23T19:05:55Z</time>
      </trkpt>
      <trkpt lat="48.14156" lon="-1.65909">
        <ele>52</ele>
        <time>2007-12-23T19:06:18Z</time>
      </trkpt>
      <trkpt lat="48.14156" lon="-1.65902">
        <ele>52</ele>
        <time>2007-12-23T19:06:20Z</time>
      </trkpt>
      <trkpt lat="48.14156" lon="-1.65899">
        <ele>52</ele>
        <time>2007-12-23T19:06:21Z</time>
      </trkpt>
      <trkpt lat="48.14146" lon="-1.65893">
        <ele>52</ele>
        <time>2007-12-23T19:06:25Z</time>
      </trkpt>
      <trkpt lat="48.14134" lon="-1.65885">
        <ele>52</ele>
        <time>2007-12-23T19:06:30Z</time>
      </trkpt>
      <trkpt lat="48.14123" lon="-1.65877">
        <ele>53</ele>
        <time>2007-12-23T19:06:35Z</time>
      </trkpt>
      <trkpt lat="48.14079" lon="-1.65879">
        <ele>55</ele>
        <time>2007-12-23T19:06:53Z</time>
      </trkpt>
      <trkpt lat="48.1407" lon="-1.65875">
        <ele>55</ele>
        <time>2007-12-23T19:06:57Z</time>
      </trkpt>
      <trkpt lat="48.14053" lon="-1.65864">
        <ele>56</ele>
        <time>2007-12-23T19:07:04Z</time>
      </trkpt>
      <trkpt lat="48.14052" lon="-1.65794">
        <ele>56</ele>
        <time>2007-12-23T19:07:23Z</time>
      </trkpt>
      <trkpt lat="48.14053" lon="-1.65773">
        <ele>56</ele>
        <time>2007-12-23T19:07:29Z</time>
      </trkpt>
      <trkpt lat="48.14051" lon="-1.65763">
        <ele>56</ele>
        <time>2007-12-23T19:07:31Z</time>
      </trkpt>
      <trkpt lat="48.14047" lon="-1.6576">
        <ele>56</ele>
        <time>2007-12-23T19:07:33Z</time>
      </trkpt>
      <trkpt lat="48.14043" lon="-1.65754">
        <ele>56</ele>
        <time>2007-12-23T19:07:36Z</time>
      </trkpt>
      <trkpt lat="48.14042" lon="-1.65751">
        <ele>56</ele>
        <time>2007-12-23T19:07:36Z</time>
      </trkpt>
      <trkpt lat="48.14034" lon="-1.6572">
        <ele>57</ele>
        <time>2007-12-23T19:07:45Z</time>
      </trkpt>
      <trkpt lat="48.13976" lon="-1.65712">
        <ele>57</ele>
        <time>2007-12-23T19:08:08Z</time>
      </trkpt>
      <trkpt lat="48.13946" lon="-1.65695">
        <ele>57</ele>
        <time>2007-12-23T19:08:21Z</time>
      </trkpt>
      <trkpt lat="48.13948" lon="-1.65676">
        <ele>57</ele>
        <time>2007-12-23T19:08:26Z</time>
      </trkpt>
      <trkpt lat="48.13939" lon="-1.65661">
        <ele>57</ele>
        <time>2007-12-23T19:08:32Z</time>
      </trkpt>
      <trkpt lat="48.13916" lon="-1.65657">
        <ele>57</ele>
        <time>2007-12-23T19:08:41Z</time>
      </trkpt>
      <trkpt lat="48.13873" lon="-1.65592">
        <ele>57</ele>
        <time>2007-12-23T19:09:05Z</time>
      </trkpt>
      <trkpt lat="48.13855" lon="-1.65571">
        <ele>56</ele>
        <time>2007-12-23T19:09:14Z</time>
      </trkpt>
      <trkpt lat="48.13849" lon="-1.65476">
        <ele>58</ele>
        <time>2007-12-23T19:09:40Z</time>
      </trkpt>
      <trkpt lat="48.13838" lon="-1.65305">
        <ele>59</ele>
        <time>2007-12-23T19:10:26Z</time>
      </trkpt>
      <trkpt lat="48.13829" lon="-1.6526">
        <ele>58</ele>
        <time>2007-12-23T19:10:38Z</time>
      </trkpt>
      <trkpt lat="48.13889" lon="-1.65257">
        <ele>60</ele>
        <time>2007-12-23T19:11:02Z</time>
      </trkpt>
      <trkpt lat="48.13957" lon="-1.6523">
        <ele>60</ele>
        <time>2007-12-23T19:11:30Z</time>
      </trkpt>
      <trkpt lat="48.14034" lon="-1.6514">
        <ele>62</ele>
        <time>2007-12-23T19:12:09Z</time>
      </trkpt>
      <trkpt lat="48.14045" lon="-1.6511">
        <ele>62</ele>
        <time>2007-12-23T19:12:18Z</time>
      </trkpt>
      <trkpt lat="48.14047" lon="-1.65103">
        <ele>62</ele>
        <time>2007-12-23T19:12:21Z</time>
      </trkpt>
      <trkpt lat="48.1409" lon="-1.64987">
        <ele>62</ele>
        <time>2007-12-23T19:12:56Z</time>
      </trkpt>
      <trkpt lat="48.14169" lon="-1.64896">
        <ele>62</ele>
        <time>2007-12-23T19:13:36Z</time>
      </trkpt>
      <trkpt lat="48.14177" lon="-1.64886">
        <ele>62</ele>
        <time>2007-12-23T19:13:40Z</time>
      </trkpt>
      <trkpt lat="48.14185" lon="-1.64853">
        <ele>62</ele>
        <time>2007-12-23T19:13:49Z</time>
      </trkpt>
      <trkpt lat="48.142" lon="-1.64822">
        <ele>62</ele>
        <time>2007-12-23T19:14:00Z</time>
      </trkpt>
      <trkpt lat="48.14244" lon="-1.64815">
        <ele>62</ele>
        <time>2007-12-23T19:14:17Z</time>
      </trkpt>
      <trkpt lat="48.14311" lon="-1.64776">
        <ele>61</ele>
        <time>2007-12-23T19:14:46Z</time>
      </trkpt>
      <trkpt lat="48.14375" lon="-1.64724">
        <ele>58</ele>
        <time>2007-12-23T19:15:15Z</time>
      </trkpt>
      <trkpt lat="48.14439" lon="-1.647">
        <ele>55</ele>
        <time>2007-12-23T19:15:42Z</time>
      </trkpt>
      <trkpt lat="48.14519" lon="-1.64687">
        <ele>51</ele>
        <time>2007-12-23T19:16:14Z</time>
      </trkpt>
      <trkpt lat="48.14545" lon="-1.64659">
        <ele>50</ele>
        <time>2007-12-23T19:16:27Z</time>
      </trkpt>
      <trkpt lat="48.14537" lon="-1.64572">
        <ele>51</ele>
        <time>2007-12-23T19:16:50Z</time>
      </trkpt>
      <trkpt lat="48.14516" lon="-1.64516">
        <ele>51</ele>
        <time>2007-12-23T19:17:07Z</time>
      </trkpt>
      <trkpt lat="48.14501" lon="-1.64498">
        <ele>51</ele>
        <time>2007-12-23T19:17:15Z</time>
      </trkpt>
      <trkpt lat="48.14493" lon="-1.64419">
        <ele>50</ele>
        <time>2007-12-23T19:17:36Z</time>
      </trkpt>
      <trkpt lat="48.14481" lon="-1.64265">
        <ele>47</ele>
        <time>2007-12-23T19:18:18Z</time>
      </trkpt>
      <trkpt lat="48.14488" lon="-1.64236">
        <ele>46</ele>
        <time>2007-12-23T19:18:26Z</time>
      </trkpt>
      <trkpt lat="48.14498" lon="-1.64216">
        <ele>45</ele>
        <time>2007-12-23T19:18:33Z</time>
      </trkpt>
      <trkpt lat="48.14497" lon="-1.64192">
        <ele>45</ele>
        <time>2007-12-23T19:18:39Z</time>
      </trkpt>
      <trkpt lat="48.14491" lon="-1.64182">
        <ele>46</ele>
        <time>2007-12-23T19:18:43Z</time>
      </trkpt>
      <trkpt lat="48.14477" lon="-1.64145">
        <ele>46</ele>
        <time>2007-12-23T19:18:54Z</time>
      </trkpt>
      <trkpt lat="48.14474" lon="-1.64131">
        <ele>46</ele>
        <time>2007-12-23T19:18:58Z</time>
      </trkpt>
      <trkpt lat="48.1446" lon="-1.64038">
        <ele>45</ele>
        <time>2007-12-23T19:19:23Z</time>
      </trkpt>
      <trkpt lat="48.14461" lon="-1.63981">
        <ele>45</ele>
        <time>2007-12-23T19:19:39Z</time>
      </trkpt>
      <trkpt lat="48.14462" lon="-1.63889">
        <ele>46</ele>
        <time>2007-12-23T19:20:03Z</time>
      </trkpt>
      <trkpt lat="48.14446" lon="-1.63836">
        <ele>47</ele>
        <time>2007-12-23T19:20:19Z</time>
      </trkpt>
      <trkpt lat="48.14453" lon="-1.63757">
        <ele>47</ele>
        <time>2007-12-23T19:20:40Z</time>
      </trkpt>
      <trkpt lat="48.14463" lon="-1.63617">
        <ele>48</ele>
        <time>2007-12-23T19:21:18Z</time>
      </trkpt>
      <trkpt lat="48.14445" lon="-1.63597">
        <ele>49</ele>
        <time>2007-12-23T19:21:26Z</time>
      </trkpt>
      <trkpt lat="48.14423" lon="-1.63605">
        <ele>50</ele>
        <time>2007-12-23T19:21:36Z</time>
      </trkpt>
      <trkpt lat="48.1442" lon="-1.63606">
        <ele>50</ele>
        <time>2007-12-23T19:21:37Z</time>
      </trkpt>
      <trkpt lat="48.14421" lon="-1.63607">
        <ele>50</ele>
        <time>2007-12-23T19:21:37Z</time>
      </trkpt>
      <trkpt lat="48.14417" lon="-1.6351">
        <ele>50</ele>
        <time>2007-12-23T19:22:03Z</time>
      </trkpt>
      <trkpt lat="48.14325" lon="-1.63206">
        <ele>55</ele>
        <time>2007-12-23T19:23:32Z</time>
      </trkpt>
      <trkpt lat="48.14278" lon="-1.63092">
        <ele>55</ele>
        <time>2007-12-23T19:24:08Z</time>
      </trkpt>
      <trkpt lat="48.14277" lon="-1.63087">
        <ele>54</ele>
        <time>2007-12-23T19:24:09Z</time>
      </trkpt>
      <trkpt lat="48.1428" lon="-1.63068">
        <ele>54</ele>
        <time>2007-12-23T19:24:15Z</time>
      </trkpt>
      <trkpt lat="48.14358" lon="-1.63029">
        <ele>52</ele>
        <time>2007-12-23T19:24:47Z</time>
      </trkpt>
      <trkpt lat="48.14443" lon="-1.62987">
        <ele>50</ele>
        <time>2007-12-23T19:25:23Z</time>
      </trkpt>
      <trkpt lat="48.14541" lon="-1.6294">
        <ele>48</ele>
        <time>2007-12-23T19:26:04Z</time>
      </trkpt>
      <trkpt lat="48.14557" lon="-1.62924">
        <ele>48</ele>
        <time>2007-12-23T19:26:12Z</time>
      </trkpt>
      <trkpt lat="48.14565" lon="-1.62905">
        <ele>48</ele>
        <time>2007-12-23T19:26:18Z</time>
      </trkpt>
      <trkpt lat="48.14574" lon="-1.62854">
        <ele>49</ele>
        <time>2007-12-23T19:26:32Z</time>
      </trkpt>
      <trkpt lat="48.14587" lon="-1.62824">
        <ele>49</ele>
        <time>2007-12-23T19:26:41Z</time>
      </trkpt>
      <trkpt lat="48.14591" lon="-1.62822">
        <ele>49</ele>
        <time>2007-12-23T19:26:43Z</time>
      </trkpt>
      <trkpt lat="48.14695" lon="-1.62776">
        <ele>48</ele>
        <time>2007-12-23T19:27:27Z</time>
      </trkpt>
      <trkpt lat="48.14774" lon="-1.62721">
        <ele>50</ele>
        <time>2007-12-23T19:28:02Z</time>
      </trkpt>
      <trkpt lat="48.14837" lon="-1.62601">
        <ele>52</ele>
        <time>2007-12-23T19:28:42Z</time>
      </trkpt>
      <trkpt lat="48.14864" lon="-1.62525">
        <ele>54</ele>
        <time>2007-12-23T19:29:05Z</time>
      </trkpt>
      <trkpt lat="48.14871" lon="-1.62514">
        <ele>54</ele>
        <time>2007-12-23T19:29:09Z</time>
      </trkpt>
      <trkpt lat="48.14899" lon="-1.62492">
        <ele>55</ele>
        <time>2007-12-23T19:29:22Z</time>
      </trkpt>
      <trkpt lat="48.14941" lon="-1.62489">
        <ele>55</ele>
        <time>2007-12-23T19:29:39Z</time>
      </trkpt>
      <trkpt lat="48.15044" lon="-1.62482">
        <ele>56</ele>
        <time>2007-12-23T19:30:20Z</time>
      </trkpt>
      <trkpt lat="48.15114" lon="-1.62479">
        <ele>54</ele>
        <time>2007-12-23T19:30:48Z</time>
      </trkpt>
      <trkpt lat="48.15171" lon="-1.6248">
        <ele>53</ele>
        <time>2007-12-23T19:31:11Z</time>
      </trkpt>
      <trkpt lat="48.15248" lon="-1.62483">
        <ele>51</ele>
        <time>2007-12-23T19:31:42Z</time>
      </trkpt>
      <trkpt lat="48.15283" lon="-1.62484">
        <ele>49</ele>
        <time>2007-12-23T19:31:56Z</time>
      </trkpt>
      <trkpt lat="48.15326" lon="-1.62486">
        <ele>48</ele>
        <time>2007-12-23T19:32:13Z</time>
      </trkpt>
      <trkpt lat="48.15382" lon="-1.62504">
        <ele>45</ele>
        <time>2007-12-23T19:32:36Z</time>
      </trkpt>
      <trkpt lat="48.15415" lon="-1.62539">
        <ele>44</ele>
        <time>2007-12-23T19:32:52Z</time>
      </trkpt>
      <trkpt lat="48.15448" lon="-1.62537">
        <ele>44</ele>
        <time>2007-12-23T19:33:06Z</time>
      </trkpt>
      <trkpt lat="48.15453" lon="-1.62532">
        <ele>45</ele>
        <time>2007-12-23T19:33:08Z</time>
      </trkpt>
      <trkpt lat="48.15494" lon="-1.62543">
        <ele>46</ele>
        <time>2007-12-23T19:33:25Z</time>
      </trkpt>
      <trkpt lat="48.15532" lon="-1.62512">
        <ele>47</ele>
        <time>2007-12-23T19:33:42Z</time>
      </trkpt>
      <trkpt lat="48.15528" lon="-1.62442">
        <ele>47</ele>
        <time>2007-12-23T19:34:00Z</time>
      </trkpt>
      <trkpt lat="48.15515" lon="-1.62425">
        <ele>46</ele>
        <time>2007-12-23T19:34:07Z</time>
      </trkpt>
      <trkpt lat="48.15511" lon="-1.6242">
        <ele>46</ele>
        <time>2007-12-23T19:34:09Z</time>
      </trkpt>
      <trkpt lat="48.1551" lon="-1.62347">
        <ele>46</ele>
        <time>2007-12-23T19:34:29Z</time>
      </trkpt>
      <trkpt lat="48.15548" lon="-1.62254">
        <ele>51</ele>
        <time>2007-12-23T19:34:58Z</time>
      </trkpt>
      <trkpt lat="48.1555" lon="-1.62245">
        <ele>51</ele>
        <time>2007-12-23T19:35:01Z</time>
      </trkpt>
      <trkpt lat="48.15552" lon="-1.62098">
        <ele>52</ele>
        <time>2007-12-23T19:35:40Z</time>
      </trkpt>
      <trkpt lat="48.15553" lon="-1.62066">
        <ele>52</ele>
        <time>2007-12-23T19:35:49Z</time>
      </trkpt>
      <trkpt lat="48.1556" lon="-1.61922">
        <ele>54</ele>
        <time>2007-12-23T19:36:27Z</time>
      </trkpt>
      <trkpt lat="48.15567" lon="-1.61903">
        <ele>54</ele>
        <time>2007-12-23T19:36:33Z</time>
      </trkpt>
      <trkpt lat="48.15648" lon="-1.61844">
        <ele>54</ele>
        <time>2007-12-23T19:37:09Z</time>
      </trkpt>
      <trkpt lat="48.15729" lon="-1.618">
        <ele>55</ele>
        <time>2007-12-23T19:37:43Z</time>
      </trkpt>
      <trkpt lat="48.15823" lon="-1.61701">
        <ele>55</ele>
        <time>2007-12-23T19:38:29Z</time>
      </trkpt>
      <trkpt lat="48.15901" lon="-1.61715">
        <ele>54</ele>
        <time>2007-12-23T19:39:01Z</time>
      </trkpt>
      <trkpt lat="48.15991" lon="-1.61626">
        <ele>55</ele>
        <time>2007-12-23T19:39:44Z</time>
      </trkpt>
      <trkpt lat="48.16143" lon="-1.61521">
        <ele>56</ele>
        <time>2007-12-23T19:40:51Z</time>
      </trkpt>
      <trkpt lat="48.16143" lon="-1.61522">
        <ele>56</ele>
        <time>2007-12-23T19:40:51Z</time>
      </trkpt>
      <trkpt lat="48.16129" lon="-1.61493">
        <ele>57</ele>
        <time>2007-12-23T19:41:01Z</time>
      </trkpt>
      <trkpt lat="48.16077" lon="-1.61363">
        <ele>61</ele>
        <time>2007-12-23T19:41:41Z</time>
      </trkpt>
      <trkpt lat="48.16054" lon="-1.61279">
        <ele>61</ele>
        <time>2007-12-23T19:42:05Z</time>
      </trkpt>
      <trkpt lat="48.16029" lon="-1.61166">
        <ele>62</ele>
        <time>2007-12-23T19:42:37Z</time>
      </trkpt>
      <trkpt lat="48.16021" lon="-1.61104">
        <ele>62</ele>
        <time>2007-12-23T19:42:54Z</time>
      </trkpt>
      <trkpt lat="48.16001" lon="-1.61095">
        <ele>62</ele>
        <time>2007-12-23T19:43:02Z</time>
      </trkpt>
      <trkpt lat="48.15977" lon="-1.61067">
        <ele>62</ele>
        <time>2007-12-23T19:43:15Z</time>
      </trkpt>
      <trkpt lat="48.1597" lon="-1.60939">
        <ele>63</ele>
        <time>2007-12-23T19:43:49Z</time>
      </trkpt>
      <trkpt lat="48.15931" lon="-1.6077">
        <ele>68</ele>
        <time>2007-12-23T19:44:37Z</time>
      </trkpt>
      <trkpt lat="48.15934" lon="-1.60619">
        <ele>73</ele>
        <time>2007-12-23T19:45:17Z</time>
      </trkpt>
      <trkpt lat="48.15956" lon="-1.60399">
        <ele>78</ele>
        <time>2007-12-23T19:46:16Z</time>
      </trkpt>
      <trkpt lat="48.1596" lon="-1.60358">
        <ele>79</ele>
        <time>2007-12-23T19:46:27Z</time>
      </trkpt>
      <trkpt lat="48.15967" lon="-1.60201">
        <ele>80</ele>
        <time>2007-12-23T19:47:10Z</time>
      </trkpt>
      <trkpt lat="48.15989" lon="-1.60016">
        <ele>81</ele>
        <time>2007-12-23T19:48:00Z</time>
      </trkpt>
      <trkpt lat="48.16001" lon="-1.5987">
        <ele>81</ele>
        <time>2007-12-23T19:48:39Z</time>
      </trkpt>
      <trkpt lat="48.16021" lon="-1.5976">
        <ele>81</ele>
        <time>2007-12-23T19:49:09Z</time>
      </trkpt>
      <trkpt lat="48.1604" lon="-1.59705">
        <ele>80</ele>
        <time>2007-12-23T19:49:26Z</time>
      </trkpt>
      <trkpt lat="48.16043" lon="-1.59706">
        <ele>80</ele>
        <time>2007-12-23T19:49:27Z</time>
      </trkpt>
      <trkpt lat="48.16046" lon="-1.59702">
        <ele>80</ele>
        <time>2007-12-23T19:49:29Z</time>
      </trkpt>
      <trkpt lat="48.16048" lon="-1.59679">
        <ele>80</ele>
        <time>2007-12-23T19:49:35Z</time>
      </trkpt>
      <trkpt lat="48.16056" lon="-1.59581">
        <ele>81</ele>
        <time>2007-12-23T19:50:01Z</time>
      </trkpt>
      <trkpt lat="48.16058" lon="-1.59552">
        <ele>81</ele>
        <time>2007-12-23T19:50:09Z</time>
      </trkpt>
      <trkpt lat="48.16069" lon="-1.59514">
        <ele>81</ele>
        <time>2007-12-23T19:50:20Z</time>
      </trkpt>
      <trkpt lat="48.16073" lon="-1.59502">
        <ele>81</ele>
        <time>2007-12-23T19:50:24Z</time>
      </trkpt>
      <trkpt lat="48.16076" lon="-1.59497">
        <ele>81</ele>
        <time>2007-12-23T19:50:25Z</time>
      </trkpt>
      <trkpt lat="48.16136" lon="-1.59415">
        <ele>80</ele>
        <time>2007-12-23T19:50:58Z</time>
      </trkpt>
      <trkpt lat="48.16203" lon="-1.59329">
        <ele>79</ele>
        <time>2007-12-23T19:51:33Z</time>
      </trkpt>
      <trkpt lat="48.16274" lon="-1.59268">
        <ele>78</ele>
        <time>2007-12-23T19:52:06Z</time>
      </trkpt>
      <trkpt lat="48.16357" lon="-1.59141">
        <ele>76</ele>
        <time>2007-12-23T19:52:53Z</time>
      </trkpt>
      <trkpt lat="48.16389" lon="-1.59135">
        <ele>75</ele>
        <time>2007-12-23T19:53:06Z</time>
      </trkpt>
      <trkpt lat="48.1641" lon="-1.59158">
        <ele>75</ele>
        <time>2007-12-23T19:53:17Z</time>
      </trkpt>
      <trkpt lat="48.1643" lon="-1.59169">
        <ele>74</ele>
        <time>2007-12-23T19:53:25Z</time>
      </trkpt>
      <trkpt lat="48.16446" lon="-1.59159">
        <ele>74</ele>
        <time>2007-12-23T19:53:32Z</time>
      </trkpt>
      <trkpt lat="48.16459" lon="-1.5915">
        <ele>74</ele>
        <time>2007-12-23T19:53:38Z</time>
      </trkpt>
      <trkpt lat="48.16472" lon="-1.59165">
        <ele>73</ele>
        <time>2007-12-23T19:53:45Z</time>
      </trkpt>
      <trkpt lat="48.16482" lon="-1.59179">
        <ele>73</ele>
        <time>2007-12-23T19:53:50Z</time>
      </trkpt>
      <trkpt lat="48.16497" lon="-1.59195">
        <ele>73</ele>
        <time>2007-12-23T19:53:57Z</time>
      </trkpt>
      <trkpt lat="48.1652" lon="-1.59227">
        <ele>73</ele>
        <time>2007-12-23T19:54:10Z</time>
      </trkpt>
      <trkpt lat="48.16532" lon="-1.59233">
        <ele>73</ele>
        <time>2007-12-23T19:54:15Z</time>
      </trkpt>
      <trkpt lat="48.16538" lon="-1.59239">
        <ele>73</ele>
        <time>2007-12-23T19:54:18Z</time>
      </trkpt>
      <trkpt lat="48.16541" lon="-1.59243">
        <ele>73</ele>
        <time>2007-12-23T19:54:20Z</time>
      </trkpt>
      <trkpt lat="48.1658" lon="-1.59185">
        <ele>73</ele>
        <time>2007-12-23T19:54:42Z</time>
      </trkpt>
      <trkpt lat="48.16649" lon="-1.59073">
        <ele>71</ele>
        <time>2007-12-23T19:55:22Z</time>
      </trkpt>
      <trkpt lat="48.16722" lon="-1.58967">
        <ele>70</ele>
        <time>2007-12-23T19:56:03Z</time>
      </trkpt>
      <trkpt lat="48.16802" lon="-1.58852">
        <ele>68</ele>
        <time>2007-12-23T19:56:47Z</time>
      </trkpt>
      <trkpt lat="48.16867" lon="-1.58758">
        <ele>68</ele>
        <time>2007-12-23T19:57:24Z</time>
      </trkpt>
      <trkpt lat="48.17235" lon="-1.5821">
        <ele>63</ele>
        <time>2007-12-23T20:00:51Z</time>
      </trkpt>
      <trkpt lat="48.17212" lon="-1.58175">
        <ele>65</ele>
        <time>2007-12-23T20:01:04Z</time>
      </trkpt>
      <trkpt lat="48.17202" lon="-1.58169">
        <ele>66</ele>
        <time>2007-12-23T20:01:08Z</time>
      </trkpt>
      <trkpt lat="48.17193" lon="-1.58158">
        <ele>66</ele>
        <time>2007-12-23T20:01:13Z</time>
      </trkpt>
      <trkpt lat="48.17172" lon="-1.58162">
        <ele>67</ele>
        <time>2007-12-23T20:01:22Z</time>
      </trkpt>
      <trkpt lat="48.17164" lon="-1.58151">
        <ele>68</ele>
        <time>2007-12-23T20:01:26Z</time>
      </trkpt>
      <trkpt lat="48.17172" lon="-1.58135">
        <ele>68</ele>
        <time>2007-12-23T20:01:31Z</time>
      </trkpt>
      <trkpt lat="48.17174" lon="-1.58123">
        <ele>68</ele>
        <time>2007-12-23T20:01:34Z</time>
      </trkpt>
      <trkpt lat="48.17176" lon="-1.58117">
        <ele>68</ele>
        <time>2007-12-23T20:01:36Z</time>
      </trkpt>
      <trkpt lat="48.17198" lon="-1.58122">
        <ele>67</ele>
        <time>2007-12-23T20:01:45Z</time>
      </trkpt>
      <trkpt lat="48.17204" lon="-1.58122">
        <ele>67</ele>
        <time>2007-12-23T18:24:32Z</time>
      </trkpt>
      <trkpt lat="48.17213" lon="-1.58106">
        <ele>67</ele>
        <time>2007-12-23T18:24:38Z</time>
      </trkpt>
      <trkpt lat="48.17226" lon="-1.58097">
        <ele>67</ele>
        <time>2007-12-23T18:24:43Z</time>
      </trkpt>
      <trkpt lat="48.17243" lon="-1.581">
        <ele>66</ele>
        <time>2007-12-23T18:24:50Z</time>
      </trkpt>
      <trkpt lat="48.17258" lon="-1.58096">
        <ele>66</ele>
        <time>2007-12-23T18:24:56Z</time>
      </trkpt>
      <trkpt lat="48.17268" lon="-1.58112">
        <ele>65</ele>
        <time>2007-12-23T18:25:02Z</time>
      </trkpt>
      <trkpt lat="48.17275" lon="-1.58116">
        <ele>65</ele>
        <time>2007-12-23T18:25:05Z</time>
      </trkpt>
      <trkpt lat="48.17286" lon="-1.58105">
        <ele>65</ele>
        <time>2007-12-23T18:25:10Z</time>
      </trkpt>
      <trkpt lat="48.17595" lon="-1.5762">
        <ele>73</ele>
        <time>2007-12-23T18:28:09Z</time>
      </trkpt>
      <trkpt lat="48.17628" lon="-1.57637">
        <ele>73</ele>
        <time>2007-12-23T18:28:23Z</time>
      </trkpt>
      <trkpt lat="48.17661" lon="-1.57653">
        <ele>72</ele>
        <time>2007-12-23T18:28:37Z</time>
      </trkpt>
      <trkpt lat="48.1768" lon="-1.57681">
        <ele>72</ele>
        <time>2007-12-23T18:28:48Z</time>
      </trkpt>
      <trkpt lat="48.17707" lon="-1.5769">
        <ele>72</ele>
        <time>2007-12-23T18:28:59Z</time>
      </trkpt>
      <trkpt lat="48.17833" lon="-1.57289">
        <ele>67</ele>
        <time>2007-12-23T18:30:57Z</time>
      </trkpt>
      <trkpt lat="48.17873" lon="-1.57241">
        <ele>66</ele>
        <time>2007-12-23T18:31:18Z</time>
      </trkpt>
      <trkpt lat="48.17961" lon="-1.57103">
        <ele>62</ele>
        <time>2007-12-23T18:32:09Z</time>
      </trkpt>
      <trkpt lat="48.17962" lon="-1.5707">
        <ele>62</ele>
        <time>2007-12-23T18:32:18Z</time>
      </trkpt>
      <trkpt lat="48.17991" lon="-1.57065">
        <ele>62</ele>
        <time>2007-12-23T18:32:30Z</time>
      </trkpt>
      <trkpt lat="48.18112" lon="-1.56869">
        <ele>73</ele>
        <time>2007-12-23T18:33:41Z</time>
      </trkpt>
      <trkpt lat="48.18193" lon="-1.56747">
        <ele>73</ele>
        <time>2007-12-23T18:34:27Z</time>
      </trkpt>
      <trkpt lat="48.18319" lon="-1.56551">
        <ele>69</ele>
        <time>2007-12-23T18:35:39Z</time>
      </trkpt>
      <trkpt lat="48.18401" lon="-1.56577">
        <ele>67</ele>
        <time>2007-12-23T18:36:13Z</time>
      </trkpt>
      <trkpt lat="48.18459" lon="-1.56585">
        <ele>69</ele>
        <time>2007-12-23T18:36:37Z</time>
      </trkpt>
      <trkpt lat="48.18519" lon="-1.56606">
        <ele>70</ele>
        <time>2007-12-23T18:37:01Z</time>
      </trkpt>
      <trkpt lat="48.18654" lon="-1.5668">
        <ele>75</ele>
        <time>2007-12-23T18:37:59Z</time>
      </trkpt>
      <trkpt lat="48.19235" lon="-1.56417">
        <ele>84</ele>
        <time>2007-12-23T18:42:01Z</time>
      </trkpt>
      <trkpt lat="48.19372" lon="-1.5635">
        <ele>83</ele>
        <time>2007-12-23T18:42:59Z</time>
      </trkpt>
      <trkpt lat="48.19541" lon="-1.56282">
        <ele>80</ele>
        <time>2007-12-23T18:44:09Z</time>
      </trkpt>
      <trkpt lat="48.19915" lon="-1.56003">
        <ele>76</ele>
        <time>2007-12-23T18:46:56Z</time>
      </trkpt>
      <trkpt lat="48.2004" lon="-1.55767">
        <ele>74</ele>
        <time>2007-12-23T18:48:17Z</time>
      </trkpt>
      <trkpt lat="48.19937" lon="-1.55661">
        <ele>75</ele>
        <time>2007-12-23T18:49:06Z</time>
      </trkpt>
      <trkpt lat="48.19904" lon="-1.55656">
        <ele>75</ele>
        <time>2007-12-23T18:49:20Z</time>
      </trkpt>
      <trkpt lat="48.19898" lon="-1.55622">
        <ele>75</ele>
        <time>2007-12-23T18:49:29Z</time>
      </trkpt>
      <trkpt lat="48.19698" lon="-1.55415">
        <ele>75</ele>
        <time>2007-12-23T18:51:07Z</time>
      </trkpt>
      <trkpt lat="48.19683" lon="-1.54565">
        <ele>87</ele>
        <time>2007-12-23T18:54:53Z</time>
      </trkpt>
      <trkpt lat="48.19771" lon="-1.54562">
        <ele>86</ele>
        <time>2007-12-23T18:55:29Z</time>
      </trkpt>
      <trkpt lat="48.19749" lon="-1.53517">
        <ele>86</ele>
        <time>2007-12-23T19:00:08Z</time>
      </trkpt>
      <trkpt lat="48.19716" lon="-1.53514">
        <ele>86</ele>
        <time>2007-12-23T19:00:21Z</time>
      </trkpt>
      <trkpt lat="48.19685" lon="-1.53559">
        <ele>86</ele>
        <time>2007-12-23T19:00:38Z</time>
      </trkpt>
      <trkpt lat="48.19671" lon="-1.53575">
        <ele>86</ele>
        <time>2007-12-23T19:00:45Z</time>
      </trkpt>
      <trkpt lat="48.1965" lon="-1.53587">
        <ele>87</ele>
        <time>2007-12-23T19:00:54Z</time>
      </trkpt>
      <trkpt lat="48.19629" lon="-1.53548">
        <ele>88</ele>
        <time>2007-12-23T19:01:07Z</time>
      </trkpt>
      <trkpt lat="48.19626" lon="-1.53518">
        <ele>88</ele>
        <time>2007-12-23T19:01:16Z</time>
      </trkpt>
      <trkpt lat="48.19607" lon="-1.53476">
        <ele>89</ele>
        <time>2007-12-23T19:01:29Z</time>
      </trkpt>
      <trkpt lat="48.1969" lon="-1.53411">
        <ele>89</ele>
        <time>2007-12-23T19:02:07Z</time>
      </trkpt>
      <trkpt lat="48.19728" lon="-1.53357">
        <ele>89</ele>
        <time>2007-12-23T19:02:28Z</time>
      </trkpt>
      <trkpt lat="48.19746" lon="-1.53264">
        <ele>90</ele>
        <time>2007-12-23T19:02:54Z</time>
      </trkpt>
      <trkpt lat="48.19786" lon="-1.5323">
        <ele>90</ele>
        <time>2007-12-23T19:03:12Z</time>
      </trkpt>
      <trkpt lat="48.19858" lon="-1.53148">
        <ele>91</ele>
        <time>2007-12-23T19:03:48Z</time>
      </trkpt>
      <trkpt lat="48.19876" lon="-1.53095">
        <ele>92</ele>
        <time>2007-12-23T19:04:04Z</time>
      </trkpt>
      <trkpt lat="48.1995" lon="-1.5302">
        <ele>92</ele>
        <time>2007-12-23T19:04:40Z</time>
      </trkpt>
      <trkpt lat="48.19991" lon="-1.52942">
        <ele>93</ele>
        <time>2007-12-23T19:05:06Z</time>
      </trkpt>
      <trkpt lat="48.20014" lon="-1.5292">
        <ele>93</ele>
        <time>2007-12-23T19:05:17Z</time>
      </trkpt>
      <trkpt lat="48.20039" lon="-1.52848">
        <ele>94</ele>
        <time>2007-12-23T19:05:39Z</time>
      </trkpt>
      <trkpt lat="48.20058" lon="-1.52819">
        <ele>94</ele>
        <time>2007-12-23T19:05:50Z</time>
      </trkpt>
      <trkpt lat="48.20068" lon="-1.52793">
        <ele>94</ele>
        <time>2007-12-23T19:05:58Z</time>
      </trkpt>
      <trkpt lat="48.20043" lon="-1.52727">
        <ele>96</ele>
        <time>2007-12-23T19:06:18Z</time>
      </trkpt>
      <trkpt lat="48.20017" lon="-1.52688">
        <ele>96</ele>
        <time>2007-12-23T19:06:33Z</time>
      </trkpt>
      <trkpt lat="48.1994" lon="-1.52639">
        <ele>98</ele>
        <time>2007-12-23T19:07:06Z</time>
      </trkpt>
      <trkpt lat="48.19943" lon="-1.52612">
        <ele>98</ele>
        <time>2007-12-23T19:07:13Z</time>
      </trkpt>
      <trkpt lat="48.20368" lon="-1.5236">
        <ele>100</ele>
        <time>2007-12-23T19:10:16Z</time>
      </trkpt>
      <trkpt lat="48.20402" lon="-1.52211">
        <ele>101</ele>
        <time>2007-12-23T19:10:58Z</time>
      </trkpt>
      <trkpt lat="48.20443" lon="-1.52133">
        <ele>102</ele>
        <time>2007-12-23T19:11:25Z</time>
      </trkpt>
      <trkpt lat="48.20594" lon="-1.52138">
        <ele>102</ele>
        <time>2007-12-23T19:12:25Z</time>
      </trkpt>
      <trkpt lat="48.20889" lon="-1.51708">
        <ele>100</ele>
        <time>2007-12-23T19:15:10Z</time>
      </trkpt>
      <trkpt lat="48.20924" lon="-1.5166">
        <ele>99</ele>
        <time>2007-12-23T19:15:29Z</time>
      </trkpt>
      <trkpt lat="48.21163" lon="-1.51304">
        <ele>96</ele>
        <time>2007-12-23T19:17:43Z</time>
      </trkpt>
      <trkpt lat="48.21298" lon="-1.51125">
        <ele>98</ele>
        <time>2007-12-23T19:18:55Z</time>
      </trkpt>
      <trkpt lat="48.21358" lon="-1.51005">
        <ele>99</ele>
        <time>2007-12-23T19:19:35Z</time>
      </trkpt>
      <trkpt lat="48.21372" lon="-1.50979">
        <ele>100</ele>
        <time>2007-12-23T19:19:44Z</time>
      </trkpt>
      <trkpt lat="48.21664" lon="-1.51287">
        <ele>102</ele>
        <time>2007-12-23T19:22:07Z</time>
      </trkpt>
      <trkpt lat="48.21838" lon="-1.51461">
        <ele>101</ele>
        <time>2007-12-23T19:23:31Z</time>
      </trkpt>
      <trkpt lat="48.2186" lon="-1.5149">
        <ele>101</ele>
        <time>2007-12-23T19:23:42Z</time>
      </trkpt>
      <trkpt lat="48.21951" lon="-1.51584">
        <ele>101</ele>
        <time>2007-12-23T19:24:27Z</time>
      </trkpt>
      <trkpt lat="48.2212" lon="-1.5157">
        <ele>98</ele>
        <time>2007-12-23T19:25:35Z</time>
      </trkpt>
      <trkpt lat="48.22164" lon="-1.51553">
        <ele>98</ele>
        <time>2007-12-23T19:25:53Z</time>
      </trkpt>
      <trkpt lat="48.22443" lon="-1.51344">
        <ele>101</ele>
        <time>2007-12-23T19:27:57Z</time>
      </trkpt>
      <trkpt lat="48.22451" lon="-1.51342">
        <ele>101</ele>
        <time>2007-12-23T18:24:32Z</time>
      </trkpt>
      <trkpt lat="48.22602" lon="-1.51464">
        <ele>96</ele>
        <time>2007-12-23T18:25:41Z</time>
      </trkpt>
      <trkpt lat="48.22729" lon="-1.51497">
        <ele>93</ele>
        <time>2007-12-23T18:26:32Z</time>
      </trkpt>
      <trkpt lat="48.22764" lon="-1.51469">
        <ele>92</ele>
        <time>2007-12-23T18:26:48Z</time>
      </trkpt>
      <trkpt lat="48.22935" lon="-1.51481">
        <ele>92</ele>
        <time>2007-12-23T18:27:56Z</time>
      </trkpt>
      <trkpt lat="48.22981" lon="-1.51424">
        <ele>97</ele>
        <time>2007-12-23T18:28:21Z</time>
      </trkpt>
      <trkpt lat="48.23148" lon="-1.51554">
        <ele>95</ele>
        <time>2007-12-23T18:29:36Z</time>
      </trkpt>
      <trkpt lat="48.23182" lon="-1.51698">
        <ele>88</ele>
        <time>2007-12-23T18:30:16Z</time>
      </trkpt>
      <trkpt lat="48.23183" lon="-1.51786">
        <ele>85</ele>
        <time>2007-12-23T18:30:40Z</time>
      </trkpt>
      <trkpt lat="48.23207" lon="-1.51815">
        <ele>85</ele>
        <time>2007-12-23T18:30:52Z</time>
      </trkpt>
      <trkpt lat="48.23299" lon="-1.51616">
        <ele>86</ele>
        <time>2007-12-23T18:31:57Z</time>
      </trkpt>
      <trkpt lat="48.23444" lon="-1.51596">
        <ele>94</ele>
        <time>2007-12-23T18:32:55Z</time>
      </trkpt>
      <trkpt lat="48.23876" lon="-1.52157">
        <ele>106</ele>
        <time>2007-12-23T18:36:43Z</time>
      </trkpt>
      <trkpt lat="48.24184" lon="-1.52149">
        <ele>78</ele>
        <time>2007-12-23T18:38:47Z</time>
      </trkpt>
      <trkpt lat="48.24448" lon="-1.52202">
        <ele>101</ele>
        <time>2007-12-23T18:40:33Z</time>
      </trkpt>
      <trkpt lat="48.24449" lon="-1.5225">
        <ele>101</ele>
        <time>2007-12-23T18:40:46Z</time>
      </trkpt>
      <trkpt lat="48.24526" lon="-1.52373">
        <ele>101</ele>
        <time>2007-12-23T18:41:31Z</time>
      </trkpt>
      <trkpt lat="48.24813" lon="-1.52327">
        <ele>83</ele>
        <time>2007-12-23T18:43:27Z</time>
      </trkpt>
      <trkpt lat="48.24957" lon="-1.52206">
        <ele>75</ele>
        <time>2007-12-23T18:44:33Z</time>
      </trkpt>
      <trkpt lat="48.25216" lon="-1.52181">
        <ele>71</ele>
        <time>2007-12-23T18:46:17Z</time>
      </trkpt>
      <trkpt lat="48.25259" lon="-1.52033">
        <ele>68</ele>
        <time>2007-12-23T18:47:00Z</time>
      </trkpt>
      <trkpt lat="48.2533" lon="-1.52008">
        <ele>66</ele>
        <time>2007-12-23T18:47:29Z</time>
      </trkpt>
      <trkpt lat="48.25335" lon="-1.5185">
        <ele>64</ele>
        <time>2007-12-23T18:48:11Z</time>
      </trkpt>
      <trkpt lat="48.25576" lon="-1.51777">
        <ele>62</ele>
        <time>2007-12-23T18:49:50Z</time>
      </trkpt>
      <trkpt lat="48.25608" lon="-1.51688">
        <ele>61</ele>
        <time>2007-12-23T18:50:16Z</time>
      </trkpt>
      <trkpt lat="48.26087" lon="-1.51437">
        <ele>57</ele>
        <time>2007-12-23T18:53:39Z</time>
      </trkpt>
      <trkpt lat="48.26591" lon="-1.51372">
        <ele>96</ele>
        <time>2007-12-23T18:57:02Z</time>
      </trkpt>
      <trkpt lat="48.2716" lon="-1.51718">
        <ele>106</ele>
        <time>2007-12-23T19:01:08Z</time>
      </trkpt>
      <trkpt lat="48.27463" lon="-1.51612">
        <ele>80</ele>
        <time>2007-12-23T19:03:12Z</time>
      </trkpt>
      <trkpt lat="48.27508" lon="-1.51319">
        <ele>80</ele>
        <time>2007-12-23T19:04:32Z</time>
      </trkpt>
      <trkpt lat="48.27648" lon="-1.50911">
        <ele>80</ele>
        <time>2007-12-23T19:06:34Z</time>
      </trkpt>
      <trkpt lat="48.27668" lon="-1.50781">
        <ele>81</ele>
        <time>2007-12-23T19:07:10Z</time>
      </trkpt>
      <trkpt lat="48.27746" lon="-1.50591">
        <ele>81</ele>
        <time>2007-12-23T19:08:10Z</time>
      </trkpt>
      <trkpt lat="48.27765" lon="-1.50495">
        <ele>84</ele>
        <time>2007-12-23T19:08:36Z</time>
      </trkpt>
      <trkpt lat="48.27957" lon="-1.50259">
        <ele>84</ele>
        <time>2007-12-23T19:10:16Z</time>
      </trkpt>
      <trkpt lat="48.27927" lon="-1.50085">
        <ele>85</ele>
        <time>2007-12-23T19:11:03Z</time>
      </trkpt>
      <trkpt lat="48.27849" lon="-1.49587">
        <ele>85</ele>
        <time>2007-12-23T19:13:20Z</time>
      </trkpt>
      <trkpt lat="48.27837" lon="-1.49266">
        <ele>81</ele>
        <time>2007-12-23T19:14:46Z</time>
      </trkpt>
      <trkpt lat="48.27777" lon="-1.48742">
        <ele>83</ele>
        <time>2007-12-23T19:17:07Z</time>
      </trkpt>
      <trkpt lat="48.27871" lon="-1.48543">
        <ele>75</ele>
        <time>2007-12-23T19:18:12Z</time>
      </trkpt>
      <trkpt lat="48.27815" lon="-1.48482">
        <ele>80</ele>
        <time>2007-12-23T19:18:40Z</time>
      </trkpt>
      <trkpt lat="48.27818" lon="-1.4831">
        <ele>77</ele>
        <time>2007-12-23T19:19:26Z</time>
      </trkpt>
      <trkpt lat="48.27713" lon="-1.48137">
        <ele>80</ele>
        <time>2007-12-23T19:20:28Z</time>
      </trkpt>
      <trkpt lat="48.27712" lon="-1.4775">
        <ele>81</ele>
        <time>2007-12-23T19:22:11Z</time>
      </trkpt>
      <trkpt lat="48.27639" lon="-1.47171">
        <ele>82</ele>
        <time>2007-12-23T19:24:48Z</time>
      </trkpt>
      <trkpt lat="48.27554" lon="-1.46939">
        <ele>81</ele>
        <time>2007-12-23T19:25:59Z</time>
      </trkpt>
      <trkpt lat="48.2754" lon="-1.46685">
        <ele>80</ele>
        <time>2007-12-23T19:27:07Z</time>
      </trkpt>
      <trkpt lat="48.2749" lon="-1.465">
        <ele>82</ele>
        <time>2007-12-23T19:28:00Z</time>
      </trkpt>
      <trkpt lat="48.27555" lon="-1.46225">
        <ele>81</ele>
        <time>2007-12-23T19:29:18Z</time>
      </trkpt>
      <trkpt lat="48.27563" lon="-1.45679">
        <ele>86</ele>
        <time>2007-12-23T19:31:43Z</time>
      </trkpt>
      <trkpt lat="48.27579" lon="-1.45758">
        <ele>84</ele>
        <time>2007-12-23T19:32:05Z</time>
      </trkpt>
      <trkpt lat="48.27792" lon="-1.45918">
        <ele>76</ele>
        <time>2007-12-23T19:33:40Z</time>
      </trkpt>
      <trkpt lat="48.27844" lon="-1.45854">
        <ele>84</ele>
        <time>2007-12-23T19:34:07Z</time>
      </trkpt>
      <trkpt lat="48.27694" lon="-1.45668">
        <ele>78</ele>
        <time>2007-12-23T19:35:25Z</time>
      </trkpt>
      <trkpt lat="48.27738" lon="-1.4557">
        <ele>82</ele>
        <time>2007-12-23T19:35:56Z</time>
      </trkpt>
      <trkpt lat="48.2761" lon="-1.44927">
        <ele>82</ele>
        <time>2007-12-23T19:38:55Z</time>
      </trkpt>
      <trkpt lat="48.27637" lon="-1.44579">
        <ele>88</ele>
        <time>2007-12-23T19:40:28Z</time>
      </trkpt>
      <trkpt lat="48.27604" lon="-1.4434">
        <ele>91</ele>
        <time>2007-12-23T19:41:33Z</time>
      </trkpt>
      <trkpt lat="48.27536" lon="-1.44157">
        <ele>90</ele>
        <time>2007-12-23T19:42:29Z</time>
      </trkpt>
      <trkpt lat="48.2766" lon="-1.43383">
        <ele>105</ele>
        <time>2007-12-23T19:46:01Z</time>
      </trkpt>
      <trkpt lat="48.27649" lon="-1.43238">
        <ele>109</ele>
        <time>2007-12-23T19:46:40Z</time>
      </trkpt>
      <trkpt lat="48.27778" lon="-1.43264">
        <ele>102</ele>
        <time>2007-12-23T19:47:33Z</time>
      </trkpt>
      <trkpt lat="48.27792" lon="-1.43187">
        <ele>104</ele>
        <time>2007-12-23T19:47:54Z</time>
      </trkpt>
      <trkpt lat="48.28034" lon="-1.43157">
        <ele>100</ele>
        <time>2007-12-23T19:49:31Z</time>
      </trkpt>
      <trkpt lat="48.28104" lon="-1.43007">
        <ele>102</ele>
        <time>2007-12-23T19:50:20Z</time>
      </trkpt>
      <trkpt lat="48.27919" lon="-1.42735">
        <ele>109</ele>
        <time>2007-12-23T19:52:03Z</time>
      </trkpt>
      <trkpt lat="48.28037" lon="-1.42214">
        <ele>105</ele>
        <time>2007-12-23T19:54:30Z</time>
      </trkpt>
      <trkpt lat="48.28062" lon="-1.41781">
        <ele>106</ele>
        <time>2007-12-23T19:56:26Z</time>
      </trkpt>
      <trkpt lat="48.28015" lon="-1.41558">
        <ele>112</ele>
        <time>2007-12-23T19:57:28Z</time>
      </trkpt>
      <trkpt lat="48.28111" lon="-1.41447">
        <ele>107</ele>
        <time>2007-12-23T19:58:17Z</time>
      </trkpt>
      <trkpt lat="48.28119" lon="-1.4135">
        <ele>105</ele>
        <time>2007-12-23T19:58:43Z</time>
      </trkpt>
      <trkpt lat="48.28064" lon="-1.41083">
        <ele>99</ele>
        <time>2007-12-23T19:59:57Z</time>
      </trkpt>
      <trkpt lat="48.28404" lon="-1.40851">
        <ele>89</ele>
        <time>2007-12-23T20:02:27Z</time>
      </trkpt>
      <trkpt lat="48.284" lon="-1.40763">
        <ele>86</ele>
        <time>2007-12-23T20:02:50Z</time>
      </trkpt>
      <trkpt lat="48.28478" lon="-1.40583">
        <ele>85</ele>
        <time>2007-12-23T20:03:47Z</time>
      </trkpt>
      <trkpt lat="48.2875" lon="-1.40586">
        <ele>90</ele>
        <time>2007-12-23T20:05:36Z</time>
      </trkpt>
      <trkpt lat="48.29132" lon="-1.40468">
        <ele>94</ele>
        <time>2007-12-23T20:08:12Z</time>
      </trkpt>
      <trkpt lat="48.29471" lon="-1.40347">
        <ele>101</ele>
        <time>2007-12-23T20:10:32Z</time>
      </trkpt>
      <trkpt lat="48.29898" lon="-1.40452">
        <ele>92</ele>
        <time>2007-12-23T20:13:25Z</time>
      </trkpt>
      <trkpt lat="48.29948" lon="-1.40499">
        <ele>92</ele>
        <time>2007-12-23T20:13:48Z</time>
      </trkpt>
      <trkpt lat="48.30108" lon="-1.4044">
        <ele>82</ele>
        <time>2007-12-23T20:14:54Z</time>
      </trkpt>
      <trkpt lat="48.30134" lon="-1.40539">
        <ele>84</ele>
        <time>2007-12-23T20:15:23Z</time>
      </trkpt>
      <trkpt lat="48.3021" lon="-1.40612">
        <ele>81</ele>
        <time>2007-12-23T20:15:59Z</time>
      </trkpt>
      <trkpt lat="48.30209" lon="-1.40659">
        <ele>85</ele>
        <time>2007-12-23T20:16:11Z</time>
      </trkpt>
      <trkpt lat="48.3039" lon="-1.40831">
        <ele>75</ele>
        <time>2007-12-23T20:17:37Z</time>
      </trkpt>
      <trkpt lat="48.3042" lon="-1.40958">
        <ele>77</ele>
        <time>2007-12-23T20:18:13Z</time>
      </trkpt>
      <trkpt lat="48.3058" lon="-1.41145">
        <ele>75</ele>
        <time>2007-12-23T20:19:34Z</time>
      </trkpt>
      <trkpt lat="48.30629" lon="-1.41162">
        <ele>73</ele>
        <time>2007-12-23T20:19:54Z</time>
      </trkpt>
      <trkpt lat="48.30676" lon="-1.41313">
        <ele>74</ele>
        <time>2007-12-23T20:20:39Z</time>
      </trkpt>
      <trkpt lat="48.30863" lon="-1.41303">
        <ele>70</ele>
        <time>2007-12-23T20:21:54Z</time>
      </trkpt>
      <trkpt lat="48.30946" lon="-1.41252">
        <ele>61</ele>
        <time>2007-12-23T20:22:30Z</time>
      </trkpt>
      <trkpt lat="48.31049" lon="-1.41259">
        <ele>54</ele>
        <time>2007-12-23T20:23:11Z</time>
      </trkpt>
      <trkpt lat="48.31065" lon="-1.41324">
        <ele>52</ele>
        <time>2007-12-23T20:23:30Z</time>
      </trkpt>
      <trkpt lat="48.31123" lon="-1.41356">
        <ele>47</ele>
        <time>2007-12-23T20:23:54Z</time>
      </trkpt>
      <trkpt lat="48.31139" lon="-1.41269">
        <ele>45</ele>
        <time>2007-12-23T20:24:18Z</time>
      </trkpt>
      <trkpt lat="48.31081" lon="-1.41235">
        <ele>49</ele>
        <time>2007-12-23T20:24:43Z</time>
      </trkpt>
      <trkpt lat="48.31083" lon="-1.41191">
        <ele>44</ele>
        <time>2007-12-23T20:24:54Z</time>
      </trkpt>
      <trkpt lat="48.31114" lon="-1.41186">
        <ele>44</ele>
        <time>2007-12-23T20:25:07Z</time>
      </trkpt>
      <trkpt lat="48.3109" lon="-1.41164">
        <ele>44</ele>
        <time>2007-12-23T20:25:18Z</time>
      </trkpt>
      <trkpt lat="48.31164" lon="-1.4117">
        <ele>49</ele>
        <time>2007-12-23T20:25:48Z</time>
      </trkpt>
      <trkpt lat="48.31218" lon="-1.41197">
        <ele>63</ele>
        <time>2007-12-23T20:26:11Z</time>
      </trkpt>
      <trkpt lat="48.31213" lon="-1.41338">
        <ele>62</ele>
        <time>2007-12-23T20:26:48Z</time>
      </trkpt>
      <trkpt lat="48.31169" lon="-1.4144">
        <ele>58</ele>
        <time>2007-12-23T20:27:20Z</time>
      </trkpt>
      <trkpt lat="48.31128" lon="-1.41599">
        <ele>58</ele>
        <time>2007-12-23T20:28:06Z</time>
      </trkpt>
      <trkpt lat="48.31073" lon="-1.41646">
        <ele>49</ele>
        <time>2007-12-23T20:28:31Z</time>
      </trkpt>
      <trkpt lat="48.31023" lon="-1.41804">
        <ele>45</ele>
        <time>2007-12-23T20:29:18Z</time>
      </trkpt>
      <trkpt lat="48.31054" lon="-1.41955">
        <ele>46</ele>
        <time>2007-12-23T20:30:00Z</time>
      </trkpt>
      <trkpt lat="48.31078" lon="-1.42108">
        <ele>45</ele>
        <time>2007-12-23T20:30:42Z</time>
      </trkpt>
      <trkpt lat="48.31084" lon="-1.422">
        <ele>43</ele>
        <time>2007-12-23T20:31:07Z</time>
      </trkpt>
      <trkpt lat="48.31121" lon="-1.42324">
        <ele>44</ele>
        <time>2007-12-23T20:31:43Z</time>
      </trkpt>
      <trkpt lat="48.31147" lon="-1.42558">
        <ele>50</ele>
        <time>2007-12-23T20:32:46Z</time>
      </trkpt>
      <trkpt lat="48.3116" lon="-1.42775">
        <ele>45</ele>
        <time>2007-12-23T20:33:44Z</time>
      </trkpt>
      <trkpt lat="48.31257" lon="-1.4286">
        <ele>52</ele>
        <time>2007-12-23T20:34:29Z</time>
      </trkpt>
      <trkpt lat="48.31267" lon="-1.42948">
        <ele>46</ele>
        <time>2007-12-23T20:34:53Z</time>
      </trkpt>
      <trkpt lat="48.31172" lon="-1.43103">
        <ele>50</ele>
        <time>2007-12-23T20:35:49Z</time>
      </trkpt>
      <trkpt lat="48.31065" lon="-1.4317">
        <ele>58</ele>
        <time>2007-12-23T20:36:35Z</time>
      </trkpt>
      <trkpt lat="48.30906" lon="-1.43209">
        <ele>56</ele>
        <time>2007-12-23T20:37:40Z</time>
      </trkpt>
      <trkpt lat="48.30913" lon="-1.43263">
        <ele>58</ele>
        <time>2007-12-23T20:37:55Z</time>
      </trkpt>
      <trkpt lat="48.31022" lon="-1.43237">
        <ele>58</ele>
        <time>2007-12-23T20:38:39Z</time>
      </trkpt>
      <trkpt lat="48.31117" lon="-1.43217">
        <ele>57</ele>
        <time>2007-12-23T20:39:17Z</time>
      </trkpt>
      <trkpt lat="48.31229" lon="-1.43158">
        <ele>56</ele>
        <time>2007-12-23T20:40:05Z</time>
      </trkpt>
      <trkpt lat="48.3134" lon="-1.43227">
        <ele>58</ele>
        <time>2007-12-23T20:40:53Z</time>
      </trkpt>
      <trkpt lat="48.3134" lon="-1.43416">
        <ele>55</ele>
        <time>2007-12-23T20:41:43Z</time>
      </trkpt>
      <trkpt lat="48.3135" lon="-1.43663">
        <ele>46</ele>
        <time>2007-12-23T20:42:49Z</time>
      </trkpt>
      <trkpt lat="48.3133" lon="-1.43745">
        <ele>58</ele>
        <time>2007-12-23T20:43:12Z</time>
      </trkpt>
      <trkpt lat="48.3133" lon="-1.43958">
        <ele>74</ele>
        <time>2007-12-23T20:44:09Z</time>
      </trkpt>
      <trkpt lat="48.31318" lon="-1.43971">
        <ele>78</ele>
        <time>2007-12-23T20:44:15Z</time>
      </trkpt>
      <trkpt lat="48.31435" lon="-1.4404">
        <ele>73</ele>
        <time>2007-12-23T20:45:05Z</time>
      </trkpt>
      <trkpt lat="48.3145" lon="-1.44122">
        <ele>89</ele>
        <time>2007-12-23T20:45:28Z</time>
      </trkpt>
      <trkpt lat="48.31534" lon="-1.44121">
        <ele>77</ele>
        <time>2007-12-23T20:46:01Z</time>
      </trkpt>
      <trkpt lat="48.31569" lon="-1.44215">
        <ele>81</ele>
        <time>2007-12-23T20:46:30Z</time>
      </trkpt>
      <trkpt lat="48.31599" lon="-1.44402">
        <ele>79</ele>
        <time>2007-12-23T20:47:21Z</time>
      </trkpt>
      <trkpt lat="48.31639" lon="-1.44415">
        <ele>73</ele>
        <time>2007-12-23T20:47:37Z</time>
      </trkpt>
      <trkpt lat="48.31686" lon="-1.44642">
        <ele>63</ele>
        <time>2007-12-23T20:48:41Z</time>
      </trkpt>
      <trkpt lat="48.31677" lon="-1.44712">
        <ele>62</ele>
        <time>2007-12-23T20:49:00Z</time>
      </trkpt>
      <trkpt lat="48.31688" lon="-1.44908">
        <ele>68</ele>
        <time>2007-12-23T20:49:52Z</time>
      </trkpt>
      <trkpt lat="48.31707" lon="-1.44967">
        <ele>67</ele>
        <time>2007-12-23T20:50:09Z</time>
      </trkpt>
      <trkpt lat="48.31764" lon="-1.44944">
        <ele>62</ele>
        <time>2007-12-23T20:50:33Z</time>
      </trkpt>
      <trkpt lat="48.31777" lon="-1.45104">
        <ele>73</ele>
        <time>2007-12-23T20:51:16Z</time>
      </trkpt>
      <trkpt lat="48.3181" lon="-1.45173">
        <ele>73</ele>
        <time>2007-12-23T20:51:39Z</time>
      </trkpt>
      <trkpt lat="48.31829" lon="-1.45283">
        <ele>79</ele>
        <time>2007-12-23T20:52:09Z</time>
      </trkpt>
      <trkpt lat="48.31901" lon="-1.45366">
        <ele>61</ele>
        <time>2007-12-23T20:52:45Z</time>
      </trkpt>
      <trkpt lat="48.31896" lon="-1.45591">
        <ele>75</ele>
        <time>2007-12-23T20:53:45Z</time>
      </trkpt>
      <trkpt lat="48.31933" lon="-1.45769">
        <ele>62</ele>
        <time>2007-12-23T20:54:35Z</time>
      </trkpt>
      <trkpt lat="48.31899" lon="-1.45845">
        <ele>62</ele>
        <time>2007-12-23T20:54:59Z</time>
      </trkpt>
      <trkpt lat="48.31961" lon="-1.45947">
        <ele>60</ele>
        <time>2007-12-23T20:55:36Z</time>
      </trkpt>
      <trkpt lat="48.31949" lon="-1.46041">
        <ele>72</ele>
        <time>2007-12-23T20:56:01Z</time>
      </trkpt>
      <trkpt lat="48.31974" lon="-1.46181">
        <ele>60</ele>
        <time>2007-12-23T20:56:40Z</time>
      </trkpt>
      <trkpt lat="48.31928" lon="-1.46218">
        <ele>60</ele>
        <time>2007-12-23T20:57:01Z</time>
      </trkpt>
      <trkpt lat="48.32005" lon="-1.46321">
        <ele>62</ele>
        <time>2007-12-23T20:57:42Z</time>
      </trkpt>
      <trkpt lat="48.32005" lon="-1.46463">
        <ele>69</ele>
        <time>2007-12-23T20:58:20Z</time>
      </trkpt>
      <trkpt lat="48.32032" lon="-1.46532">
        <ele>65</ele>
        <time>2007-12-23T20:58:41Z</time>
      </trkpt>
      <trkpt lat="48.32004" lon="-1.46706">
        <ele>57</ele>
        <time>2007-12-23T20:59:29Z</time>
      </trkpt>
      <trkpt lat="48.31985" lon="-1.46752">
        <ele>58</ele>
        <time>2007-12-23T20:59:43Z</time>
      </trkpt>
      <trkpt lat="48.32012" lon="-1.46872">
        <ele>44</ele>
        <time>2007-12-23T21:00:17Z</time>
      </trkpt>
      <trkpt lat="48.3201" lon="-1.46939">
        <ele>43</ele>
        <time>2007-12-23T21:00:35Z</time>
      </trkpt>
      <trkpt lat="48.32045" lon="-1.46962">
        <ele>41</ele>
        <time>2007-12-23T21:00:51Z</time>
      </trkpt>
      <trkpt lat="48.32145" lon="-1.47215">
        <ele>41</ele>
        <time>2007-12-23T21:02:09Z</time>
      </trkpt>
      <trkpt lat="48.32095" lon="-1.47232">
        <ele>39</ele>
        <time>2007-12-23T21:02:29Z</time>
      </trkpt>
      <trkpt lat="48.32206" lon="-1.47625">
        <ele>37</ele>
        <time>2007-12-23T21:04:23Z</time>
      </trkpt>
      <trkpt lat="48.32303" lon="-1.47618">
        <ele>57</ele>
        <time>2007-12-23T21:05:02Z</time>
      </trkpt>
      <trkpt lat="48.32325" lon="-1.47505">
        <ele>66</ele>
        <time>2007-12-23T21:05:33Z</time>
      </trkpt>
      <trkpt lat="48.32424" lon="-1.473">
        <ele>71</ele>
        <time>2007-12-23T21:06:41Z</time>
      </trkpt>
      <trkpt lat="48.32429" lon="-1.47128">
        <ele>73</ele>
        <time>2007-12-23T21:07:27Z</time>
      </trkpt>
      <trkpt lat="48.32569" lon="-1.47047">
        <ele>79</ele>
        <time>2007-12-23T21:08:26Z</time>
      </trkpt>
      <trkpt lat="48.32643" lon="-1.4712">
        <ele>76</ele>
        <time>2007-12-23T21:09:02Z</time>
      </trkpt>
      <trkpt lat="48.32764" lon="-1.47146">
        <ele>76</ele>
        <time>2007-12-23T21:09:51Z</time>
      </trkpt>
      <trkpt lat="48.32863" lon="-1.47089">
        <ele>84</ele>
        <time>2007-12-23T21:10:33Z</time>
      </trkpt>
      <trkpt lat="48.3297" lon="-1.47232">
        <ele>85</ele>
        <time>2007-12-23T21:11:31Z</time>
      </trkpt>
      <trkpt lat="48.33025" lon="-1.4707">
        <ele>92</ele>
        <time>2007-12-23T21:12:19Z</time>
      </trkpt>
      <trkpt lat="48.33387" lon="-1.4682">
        <ele>102</ele>
        <time>2007-12-23T21:14:58Z</time>
      </trkpt>
      <trkpt lat="48.33683" lon="-1.46548">
        <ele>95</ele>
        <time>2007-12-23T21:17:17Z</time>
      </trkpt>
      <trkpt lat="48.33892" lon="-1.46279">
        <ele>85</ele>
        <time>2007-12-23T21:19:07Z</time>
      </trkpt>
      <trkpt lat="48.34052" lon="-1.46223">
        <ele>80</ele>
        <time>2007-12-23T21:20:13Z</time>
      </trkpt>
      <trkpt lat="48.34059" lon="-1.46271">
        <ele>80</ele>
        <time>2007-12-23T21:20:26Z</time>
      </trkpt>
      <trkpt lat="48.34195" lon="-1.46173">
        <ele>75</ele>
        <time>2007-12-23T21:21:26Z</time>
      </trkpt>
      <trkpt lat="48.34182" lon="-1.46007">
        <ele>75</ele>
        <time>2007-12-23T21:22:11Z</time>
      </trkpt>
      <trkpt lat="48.34366" lon="-1.46037">
        <ele>71</ele>
        <time>2007-12-23T21:23:25Z</time>
      </trkpt>
      <trkpt lat="48.34396" lon="-1.46076">
        <ele>70</ele>
        <time>2007-12-23T21:23:41Z</time>
      </trkpt>
      <trkpt lat="48.3465" lon="-1.45966">
        <ele>71</ele>
        <time>2007-12-23T21:25:26Z</time>
      </trkpt>
      <trkpt lat="48.34584" lon="-1.45553">
        <ele>71</ele>
        <time>2007-12-23T21:27:19Z</time>
      </trkpt>
      <trkpt lat="48.34522" lon="-1.45468">
        <ele>71</ele>
        <time>2007-12-23T21:27:53Z</time>
      </trkpt>
      <trkpt lat="48.34485" lon="-1.45219">
        <ele>69</ele>
        <time>2007-12-23T21:29:01Z</time>
      </trkpt>
      <trkpt lat="48.34456" lon="-1.44973">
        <ele>70</ele>
        <time>2007-12-23T21:30:07Z</time>
      </trkpt>
      <trkpt lat="48.34528" lon="-1.44925">
        <ele>66</ele>
        <time>2007-12-23T21:30:38Z</time>
      </trkpt>
      <trkpt lat="48.34597" lon="-1.44788">
        <ele>54</ele>
        <time>2007-12-23T21:31:24Z</time>
      </trkpt>
      <trkpt lat="48.34663" lon="-1.44917">
        <ele>52</ele>
        <time>2007-12-23T21:32:08Z</time>
      </trkpt>
      <trkpt lat="48.34691" lon="-1.44892">
        <ele>52</ele>
        <time>2007-12-23T21:32:20Z</time>
      </trkpt>
      <trkpt lat="48.34641" lon="-1.44693">
        <ele>54</ele>
        <time>2007-12-23T21:33:17Z</time>
      </trkpt>
      <trkpt lat="48.34717" lon="-1.44699">
        <ele>64</ele>
        <time>2007-12-23T21:33:48Z</time>
      </trkpt>
      <trkpt lat="48.3479" lon="-1.44886">
        <ele>66</ele>
        <time>2007-12-23T21:34:45Z</time>
      </trkpt>
      <trkpt lat="48.34921" lon="-1.44872">
        <ele>77</ele>
        <time>2007-12-23T21:35:38Z</time>
      </trkpt>
      <trkpt lat="48.34952" lon="-1.44969">
        <ele>76</ele>
        <time>2007-12-23T21:36:07Z</time>
      </trkpt>
      <trkpt lat="48.35059" lon="-1.45047">
        <ele>72</ele>
        <time>2007-12-23T21:36:55Z</time>
      </trkpt>
      <trkpt lat="48.35074" lon="-1.45153">
        <ele>70</ele>
        <time>2007-12-23T21:37:23Z</time>
      </trkpt>
      <trkpt lat="48.3527" lon="-1.45437">
        <ele>71</ele>
        <time>2007-12-23T21:39:12Z</time>
      </trkpt>
      <trkpt lat="48.35269" lon="-1.45599">
        <ele>74</ele>
        <time>2007-12-23T21:39:55Z</time>
      </trkpt>
      <trkpt lat="48.35307" lon="-1.4568">
        <ele>76</ele>
        <time>2007-12-23T21:40:21Z</time>
      </trkpt>
      <trkpt lat="48.35681" lon="-1.45856">
        <ele>75</ele>
        <time>2007-12-23T21:42:59Z</time>
      </trkpt>
      <trkpt lat="48.35755" lon="-1.4581">
        <ele>76</ele>
        <time>2007-12-23T21:43:30Z</time>
      </trkpt>
      <trkpt lat="48.35852" lon="-1.46071">
        <ele>79</ele>
        <time>2007-12-23T21:44:50Z</time>
      </trkpt>
      <trkpt lat="48.35749" lon="-1.46482">
        <ele>73</ele>
        <time>2007-12-23T21:46:47Z</time>
      </trkpt>
      <trkpt lat="48.35673" lon="-1.46665">
        <ele>67</ele>
        <time>2007-12-23T21:47:44Z</time>
      </trkpt>
      <trkpt lat="48.35689" lon="-1.46801">
        <ele>65</ele>
        <time>2007-12-23T21:48:21Z</time>
      </trkpt>
      <trkpt lat="48.35588" lon="-1.46798">
        <ele>63</ele>
        <time>2007-12-23T21:49:01Z</time>
      </trkpt>
      <trkpt lat="48.35631" lon="-1.47064">
        <ele>56</ele>
        <time>2007-12-23T21:50:14Z</time>
      </trkpt>
      <trkpt lat="48.35838" lon="-1.4714">
        <ele>53</ele>
        <time>2007-12-23T21:51:40Z</time>
      </trkpt>
      <trkpt lat="48.35967" lon="-1.47126">
        <ele>47</ele>
        <time>2007-12-23T21:52:31Z</time>
      </trkpt>
      <trkpt lat="48.35864" lon="-1.4723">
        <ele>43</ele>
        <time>2007-12-23T21:53:21Z</time>
      </trkpt>
      <trkpt lat="48.35907" lon="-1.4751">
        <ele>60</ele>
        <time>2007-12-23T21:54:37Z</time>
      </trkpt>
      <trkpt lat="48.35959" lon="-1.47648">
        <ele>66</ele>
        <time>2007-12-23T21:55:20Z</time>
      </trkpt>
      <trkpt lat="48.35961" lon="-1.47858">
        <ele>74</ele>
        <time>2007-12-23T21:56:15Z</time>
      </trkpt>
      <trkpt lat="48.36019" lon="-1.47953">
        <ele>77</ele>
        <time>2007-12-23T21:56:50Z</time>
      </trkpt>
      <trkpt lat="48.36079" lon="-1.47968">
        <ele>78</ele>
        <time>2007-12-23T21:57:14Z</time>
      </trkpt>
      <trkpt lat="48.36182" lon="-1.48323">
        <ele>77</ele>
        <time>2007-12-23T21:58:57Z</time>
      </trkpt>
      <trkpt lat="48.36268" lon="-1.48397">
        <ele>74</ele>
        <time>2007-12-23T21:59:37Z</time>
      </trkpt>
      <trkpt lat="48.36245" lon="-1.48537">
        <ele>75</ele>
        <time>2007-12-23T22:00:15Z</time>
      </trkpt>
      <trkpt lat="48.36292" lon="-1.48763">
        <ele>73</ele>
        <time>2007-12-23T22:01:18Z</time>
      </trkpt>
      <trkpt lat="48.36386" lon="-1.4877">
        <ele>56</ele>
        <time>2007-12-23T22:01:56Z</time>
      </trkpt>
      <trkpt lat="48.36475" lon="-1.48878">
        <ele>41</ele>
        <time>2007-12-23T22:02:41Z</time>
      </trkpt>
      <trkpt lat="48.36473" lon="-1.48939">
        <ele>45</ele>
        <time>2007-12-23T22:02:57Z</time>
      </trkpt>
      <trkpt lat="48.3652" lon="-1.4901">
        <ele>53</ele>
        <time>2007-12-23T22:03:24Z</time>
      </trkpt>
      <trkpt lat="48.36605" lon="-1.49023">
        <ele>63</ele>
        <time>2007-12-23T22:03:58Z</time>
      </trkpt>
      <trkpt lat="48.37149" lon="-1.49735">
        <ele>74</ele>
        <time>2007-12-23T22:08:47Z</time>
      </trkpt>
      <trkpt lat="48.37361" lon="-1.49862">
        <ele>64</ele>
        <time>2007-12-23T22:10:18Z</time>
      </trkpt>
      <trkpt lat="48.37416" lon="-1.49839">
        <ele>68</ele>
        <time>2007-12-23T22:10:41Z</time>
      </trkpt>
      <trkpt lat="48.37507" lon="-1.49886">
        <ele>64</ele>
        <time>2007-12-23T22:11:19Z</time>
      </trkpt>
      <trkpt lat="48.37561" lon="-1.49792">
        <ele>70</ele>
        <time>2007-12-23T22:11:53Z</time>
      </trkpt>
      <trkpt lat="48.37589" lon="-1.49834">
        <ele>67</ele>
        <time>2007-12-23T22:12:09Z</time>
      </trkpt>
      <trkpt lat="48.37627" lon="-1.4978">
        <ele>70</ele>
        <time>2007-12-23T22:12:30Z</time>
      </trkpt>
      <trkpt lat="48.37854" lon="-1.49705">
        <ele>68</ele>
        <time>2007-12-23T22:14:03Z</time>
      </trkpt>
      <trkpt lat="48.37883" lon="-1.49869">
        <ele>53</ele>
        <time>2007-12-23T22:14:48Z</time>
      </trkpt>
      <trkpt lat="48.3798" lon="-1.49931">
        <ele>40</ele>
        <time>2007-12-23T22:15:30Z</time>
      </trkpt>
      <trkpt lat="48.38072" lon="-1.49863">
        <ele>42</ele>
        <time>2007-12-23T22:16:11Z</time>
      </trkpt>
      <trkpt lat="48.38166" lon="-1.49873">
        <ele>32</ele>
        <time>2007-12-23T22:16:49Z</time>
      </trkpt>
      <trkpt lat="48.38301" lon="-1.49799">
        <ele>43</ele>
        <time>2007-12-23T22:17:46Z</time>
      </trkpt>
      <trkpt lat="48.38585" lon="-1.49867">
        <ele>25</ele>
        <time>2007-12-23T22:19:41Z</time>
      </trkpt>
      <trkpt lat="48.38705" lon="-1.49842">
        <ele>24</ele>
        <time>2007-12-23T22:20:30Z</time>
      </trkpt>
      <trkpt lat="48.38889" lon="-1.50001">
        <ele>28</ele>
        <time>2007-12-23T22:21:55Z</time>
      </trkpt>
      <trkpt lat="48.39002" lon="-1.5011">
        <ele>25</ele>
        <time>2007-12-23T22:22:49Z</time>
      </trkpt>
      <trkpt lat="48.39054" lon="-1.50104">
        <ele>27</ele>
        <time>2007-12-23T22:23:10Z</time>
      </trkpt>
      <trkpt lat="48.39212" lon="-1.50322">
        <ele>27</ele>
        <time>2007-12-23T22:24:35Z</time>
      </trkpt>
      <trkpt lat="48.39261" lon="-1.50332">
        <ele>33</ele>
        <time>2007-12-23T22:24:55Z</time>
      </trkpt>
      <trkpt lat="48.39566" lon="-1.50574">
        <ele>25</ele>
        <time>2007-12-23T22:27:13Z</time>
      </trkpt>
      <trkpt lat="48.39721" lon="-1.50585">
        <ele>41</ele>
        <time>2007-12-23T22:28:15Z</time>
      </trkpt>
      <trkpt lat="48.39776" lon="-1.50532">
        <ele>50</ele>
        <time>2007-12-23T22:28:41Z</time>
      </trkpt>
      <trkpt lat="48.39923" lon="-1.50523">
        <ele>47</ele>
        <time>2007-12-23T22:29:40Z</time>
      </trkpt>
      <trkpt lat="48.39927" lon="-1.50388">
        <ele>47</ele>
        <time>2007-12-23T22:30:16Z</time>
      </trkpt>
      <trkpt lat="48.40033" lon="-1.50311">
        <ele>42</ele>
        <time>2007-12-23T22:31:03Z</time>
      </trkpt>
      <trkpt lat="48.40099" lon="-1.50427">
        <ele>36</ele>
        <time>2007-12-23T22:31:44Z</time>
      </trkpt>
      <trkpt lat="48.40144" lon="-1.50502">
        <ele>28</ele>
        <time>2007-12-23T22:32:10Z</time>
      </trkpt>
      <trkpt lat="48.40376" lon="-1.50296">
        <ele>21</ele>
        <time>2007-12-23T22:33:58Z</time>
      </trkpt>
      <trkpt lat="48.40555" lon="-1.50326">
        <ele>19</ele>
        <time>2007-12-23T22:35:10Z</time>
      </trkpt>
      <trkpt lat="48.40609" lon="-1.50309">
        <ele>19</ele>
        <time>2007-12-23T22:35:33Z</time>
      </trkpt>
      <trkpt lat="48.40628" lon="-1.50307">
        <ele>19</ele>
        <time>2007-12-23T18:24:32Z</time>
      </trkpt>
      <trkpt lat="48.40638" lon="-1.50183">
        <ele>37</ele>
        <time>2007-12-23T18:25:05Z</time>
      </trkpt>
      <trkpt lat="48.40594" lon="-1.49896">
        <ele>48</ele>
        <time>2007-12-23T18:26:24Z</time>
      </trkpt>
      <trkpt lat="48.41118" lon="-1.49539">
        <ele>50</ele>
        <time>2007-12-23T18:30:14Z</time>
      </trkpt>
      <trkpt lat="48.41168" lon="-1.49617">
        <ele>48</ele>
        <time>2007-12-23T18:30:43Z</time>
      </trkpt>
      <trkpt lat="48.41224" lon="-1.49553">
        <ele>47</ele>
        <time>2007-12-23T18:31:11Z</time>
      </trkpt>
      <trkpt lat="48.41127" lon="-1.49002">
        <ele>54</ele>
        <time>2007-12-23T18:33:42Z</time>
      </trkpt>
      <trkpt lat="48.41234" lon="-1.48814">
        <ele>43</ele>
        <time>2007-12-23T18:34:48Z</time>
      </trkpt>
      <trkpt lat="48.41268" lon="-1.48884">
        <ele>43</ele>
        <time>2007-12-23T18:35:11Z</time>
      </trkpt>
      <trkpt lat="48.41392" lon="-1.48792">
        <ele>51</ele>
        <time>2007-12-23T18:36:07Z</time>
      </trkpt>
      <trkpt lat="48.41428" lon="-1.48815">
        <ele>47</ele>
        <time>2007-12-23T18:36:22Z</time>
      </trkpt>
      <trkpt lat="48.41542" lon="-1.48681">
        <ele>35</ele>
        <time>2007-12-23T18:37:20Z</time>
      </trkpt>
      <trkpt lat="48.41622" lon="-1.48508">
        <ele>39</ele>
        <time>2007-12-23T18:38:16Z</time>
      </trkpt>
      <trkpt lat="48.41566" lon="-1.48487">
        <ele>49</ele>
        <time>2007-12-23T18:38:39Z</time>
      </trkpt>
      <trkpt lat="48.41665" lon="-1.48305">
        <ele>43</ele>
        <time>2007-12-23T18:39:41Z</time>
      </trkpt>
      <trkpt lat="48.41699" lon="-1.48077">
        <ele>45</ele>
        <time>2007-12-23T18:40:43Z</time>
      </trkpt>
      <trkpt lat="48.41781" lon="-1.48036">
        <ele>49</ele>
        <time>2007-12-23T18:41:18Z</time>
      </trkpt>
      <trkpt lat="48.41874" lon="-1.48175">
        <ele>56</ele>
        <time>2007-12-23T18:42:10Z</time>
      </trkpt>
      <trkpt lat="48.41896" lon="-1.48115">
        <ele>58</ele>
        <time>2007-12-23T18:42:28Z</time>
      </trkpt>
      <trkpt lat="48.4207" lon="-1.48223">
        <ele>79</ele>
        <time>2007-12-23T18:43:44Z</time>
      </trkpt>
      <trkpt lat="48.42134" lon="-1.47977">
        <ele>69</ele>
        <time>2007-12-23T18:44:54Z</time>
      </trkpt>
      <trkpt lat="48.42214" lon="-1.47794">
        <ele>77</ele>
        <time>2007-12-23T18:45:52Z</time>
      </trkpt>
      <trkpt lat="48.42238" lon="-1.47613">
        <ele>78</ele>
        <time>2007-12-23T18:46:41Z</time>
      </trkpt>
      <trkpt lat="48.42391" lon="-1.47638">
        <ele>91</ele>
        <time>2007-12-23T18:47:42Z</time>
      </trkpt>
      <trkpt lat="48.42379" lon="-1.4786">
        <ele>85</ele>
        <time>2007-12-23T18:48:42Z</time>
      </trkpt>
      <trkpt lat="48.42441" lon="-1.4804">
        <ele>88</ele>
        <time>2007-12-23T18:49:36Z</time>
      </trkpt>
      <trkpt lat="48.42478" lon="-1.48212">
        <ele>91</ele>
        <time>2007-12-23T18:50:24Z</time>
      </trkpt>
      <trkpt lat="48.42377" lon="-1.48478">
        <ele>90</ele>
        <time>2007-12-23T18:51:45Z</time>
      </trkpt>
      <trkpt lat="48.42375" lon="-1.48546">
        <ele>92</ele>
        <time>2007-12-23T18:52:03Z</time>
      </trkpt>
      <trkpt lat="48.42211" lon="-1.48936">
        <ele>90</ele>
        <time>2007-12-23T18:54:06Z</time>
      </trkpt>
      <trkpt lat="48.42086" lon="-1.49042">
        <ele>87</ele>
        <time>2007-12-23T18:55:03Z</time>
      </trkpt>
      <trkpt lat="48.42103" lon="-1.49277">
        <ele>75</ele>
        <time>2007-12-23T18:56:06Z</time>
      </trkpt>
      <trkpt lat="48.42018" lon="-1.49351">
        <ele>64</ele>
        <time>2007-12-23T18:56:45Z</time>
      </trkpt>
      <trkpt lat="48.42093" lon="-1.49746">
        <ele>50</ele>
        <time>2007-12-23T18:58:34Z</time>
      </trkpt>
      <trkpt lat="48.42087" lon="-1.49911">
        <ele>48</ele>
        <time>2007-12-23T18:59:18Z</time>
      </trkpt>
      <trkpt lat="48.42062" lon="-1.50207">
        <ele>34</ele>
        <time>2007-12-23T19:00:37Z</time>
      </trkpt>
      <trkpt lat="48.42181" lon="-1.50148">
        <ele>41</ele>
        <time>2007-12-23T19:01:28Z</time>
      </trkpt>
      <trkpt lat="48.42262" lon="-1.50204">
        <ele>41</ele>
        <time>2007-12-23T19:02:03Z</time>
      </trkpt>
      <trkpt lat="48.42433" lon="-1.50217">
        <ele>57</ele>
        <time>2007-12-23T19:03:12Z</time>
      </trkpt>
      <trkpt lat="48.42568" lon="-1.50294">
        <ele>60</ele>
        <time>2007-12-23T19:04:10Z</time>
      </trkpt>
      <trkpt lat="48.42653" lon="-1.50297">
        <ele>60</ele>
        <time>2007-12-23T19:04:44Z</time>
      </trkpt>
      <trkpt lat="48.42913" lon="-1.50117">
        <ele>83</ele>
        <time>2007-12-23T19:06:38Z</time>
      </trkpt>
      <trkpt lat="48.43052" lon="-1.49995">
        <ele>74</ele>
        <time>2007-12-23T19:07:43Z</time>
      </trkpt>
      <trkpt lat="48.43268" lon="-1.4972">
        <ele>54</ele>
        <time>2007-12-23T19:09:36Z</time>
      </trkpt>
      <trkpt lat="48.43333" lon="-1.49952">
        <ele>40</ele>
        <time>2007-12-23T19:10:43Z</time>
      </trkpt>
      <trkpt lat="48.43341" lon="-1.50054">
        <ele>37</ele>
        <time>2007-12-23T19:11:10Z</time>
      </trkpt>
      <trkpt lat="48.43474" lon="-1.49975">
        <ele>28</ele>
        <time>2007-12-23T19:12:07Z</time>
      </trkpt>
      <trkpt lat="48.43576" lon="-1.4981">
        <ele>36</ele>
        <time>2007-12-23T19:13:07Z</time>
      </trkpt>
      <trkpt lat="48.43564" lon="-1.49674">
        <ele>41</ele>
        <time>2007-12-23T19:13:43Z</time>
      </trkpt>
      <trkpt lat="48.43381" lon="-1.49499">
        <ele>55</ele>
        <time>2007-12-23T19:15:10Z</time>
      </trkpt>
      <trkpt lat="48.43304" lon="-1.49243">
        <ele>77</ele>
        <time>2007-12-23T19:16:25Z</time>
      </trkpt>
      <trkpt lat="48.4324" lon="-1.48988">
        <ele>87</ele>
        <time>2007-12-23T19:17:37Z</time>
      </trkpt>
      <trkpt lat="48.43199" lon="-1.48938">
        <ele>92</ele>
        <time>2007-12-23T19:17:59Z</time>
      </trkpt>
      <trkpt lat="48.43142" lon="-1.48818">
        <ele>97</ele>
        <time>2007-12-23T19:18:38Z</time>
      </trkpt>
      <trkpt lat="48.4318" lon="-1.4876">
        <ele>96</ele>
        <time>2007-12-23T19:18:59Z</time>
      </trkpt>
      <trkpt lat="48.43289" lon="-1.48579">
        <ele>89</ele>
        <time>2007-12-23T19:20:04Z</time>
      </trkpt>
      <trkpt lat="48.43304" lon="-1.48485">
        <ele>78</ele>
        <time>2007-12-23T19:20:30Z</time>
      </trkpt>
      <trkpt lat="48.43269" lon="-1.48449">
        <ele>82</ele>
        <time>2007-12-23T19:20:47Z</time>
      </trkpt>
      <trkpt lat="48.43276" lon="-1.48094">
        <ele>86</ele>
        <time>2007-12-23T19:22:21Z</time>
      </trkpt>
      <trkpt lat="48.43494" lon="-1.48168">
        <ele>74</ele>
        <time>2007-12-23T19:23:50Z</time>
      </trkpt>
      <trkpt lat="48.43713" lon="-1.48228">
        <ele>58</ele>
        <time>2007-12-23T19:25:19Z</time>
      </trkpt>
      <trkpt lat="48.43768" lon="-1.48195">
        <ele>54</ele>
        <time>2007-12-23T19:25:43Z</time>
      </trkpt>
      <trkpt lat="48.4381" lon="-1.48198">
        <ele>56</ele>
        <time>2007-12-23T19:26:00Z</time>
      </trkpt>
      <trkpt lat="48.43977" lon="-1.48119">
        <ele>60</ele>
        <time>2007-12-23T19:27:10Z</time>
      </trkpt>
      <trkpt lat="48.4401" lon="-1.48077">
        <ele>60</ele>
        <time>2007-12-23T19:27:27Z</time>
      </trkpt>
      <trkpt lat="48.44159" lon="-1.48213">
        <ele>58</ele>
        <time>2007-12-23T19:28:37Z</time>
      </trkpt>
      <trkpt lat="48.44741" lon="-1.48634">
        <ele>35</ele>
        <time>2007-12-23T19:32:56Z</time>
      </trkpt>
      <trkpt lat="48.44923" lon="-1.48651">
        <ele>47</ele>
        <time>2007-12-23T19:34:09Z</time>
      </trkpt>
      <trkpt lat="48.45192" lon="-1.48552">
        <ele>49</ele>
        <time>2007-12-23T19:35:59Z</time>
      </trkpt>
      <trkpt lat="48.45398" lon="-1.48574">
        <ele>44</ele>
        <time>2007-12-23T19:37:22Z</time>
      </trkpt>
      <trkpt lat="48.45552" lon="-1.48948">
        <ele>29</ele>
        <time>2007-12-23T19:39:19Z</time>
      </trkpt>
      <trkpt lat="48.45751" lon="-1.48847">
        <ele>30</ele>
        <time>2007-12-23T19:40:43Z</time>
      </trkpt>
      <trkpt lat="48.4581" lon="-1.48834">
        <ele>31</ele>
        <time>2007-12-23T19:41:07Z</time>
      </trkpt>
      <trkpt lat="48.45938" lon="-1.48729">
        <ele>37</ele>
        <time>2007-12-23T19:42:05Z</time>
      </trkpt>
      <trkpt lat="48.4597" lon="-1.48569">
        <ele>42</ele>
        <time>2007-12-23T19:42:49Z</time>
      </trkpt>
      <trkpt lat="48.46153" lon="-1.48667">
        <ele>40</ele>
        <time>2007-12-23T19:44:07Z</time>
      </trkpt>
      <trkpt lat="48.46148" lon="-1.48707">
        <ele>40</ele>
        <time>2007-12-23T18:24:32Z</time>
      </trkpt>
      <trkpt lat="48.46126" lon="-1.48946">
        <ele>34</ele>
        <time>2007-12-23T18:25:36Z</time>
      </trkpt>
      <trkpt lat="48.46128" lon="-1.49172">
        <ele>20</ele>
        <time>2007-12-23T18:26:36Z</time>
      </trkpt>
      <trkpt lat="48.46133" lon="-1.49369">
        <ele>10</ele>
        <time>2007-12-23T18:27:28Z</time>
      </trkpt>
      <trkpt lat="48.46182" lon="-1.49586">
        <ele>14</ele>
        <time>2007-12-23T18:28:29Z</time>
      </trkpt>
      <trkpt lat="48.46269" lon="-1.49538">
        <ele>17</ele>
        <time>2007-12-23T18:29:06Z</time>
      </trkpt>
      <trkpt lat="48.4632" lon="-1.49501">
        <ele>15</ele>
        <time>2007-12-23T18:29:29Z</time>
      </trkpt>
      <trkpt lat="48.46578" lon="-1.49581">
        <ele>26</ele>
        <time>2007-12-23T18:31:14Z</time>
      </trkpt>
      <trkpt lat="48.46647" lon="-1.49671">
        <ele>44</ele>
        <time>2007-12-23T18:31:51Z</time>
      </trkpt>
      <trkpt lat="48.46816" lon="-1.49676">
        <ele>51</ele>
        <time>2007-12-23T18:32:58Z</time>
      </trkpt>
      <trkpt lat="48.46825" lon="-1.49592">
        <ele>42</ele>
        <time>2007-12-23T18:33:21Z</time>
      </trkpt>
      <trkpt lat="48.46951" lon="-1.49527">
        <ele>57</ele>
        <time>2007-12-23T18:34:14Z</time>
      </trkpt>
      <trkpt lat="48.4701" lon="-1.4944">
        <ele>62</ele>
        <time>2007-12-23T18:34:47Z</time>
      </trkpt>
      <trkpt lat="48.47044" lon="-1.49575">
        <ele>66</ele>
        <time>2007-12-23T18:35:25Z</time>
      </trkpt>
      <trkpt lat="48.47215" lon="-1.49513">
        <ele>66</ele>
        <time>2007-12-23T18:36:36Z</time>
      </trkpt>
      <trkpt lat="48.4732" lon="-1.49663">
        <ele>63</ele>
        <time>2007-12-23T18:37:34Z</time>
      </trkpt>
      <trkpt lat="48.47434" lon="-1.49505">
        <ele>52</ele>
        <time>2007-12-23T18:38:35Z</time>
      </trkpt>
      <trkpt lat="48.47457" lon="-1.49341">
        <ele>50</ele>
        <time>2007-12-23T18:39:20Z</time>
      </trkpt>
      <trkpt lat="48.47458" lon="-1.49585">
        <ele>46</ele>
        <time>2007-12-23T18:40:24Z</time>
      </trkpt>
      <trkpt lat="48.47551" lon="-1.49476">
        <ele>51</ele>
        <time>2007-12-23T18:41:12Z</time>
      </trkpt>
      <trkpt lat="48.47656" lon="-1.49454">
        <ele>51</ele>
        <time>2007-12-23T18:41:54Z</time>
      </trkpt>
      <trkpt lat="48.47684" lon="-1.49547">
        <ele>57</ele>
        <time>2007-12-23T18:42:21Z</time>
      </trkpt>
      <trkpt lat="48.4757" lon="-1.49809">
        <ele>66</ele>
        <time>2007-12-23T18:43:44Z</time>
      </trkpt>
      <trkpt lat="48.47789" lon="-1.49927">
        <ele>66</ele>
        <time>2007-12-23T18:45:17Z</time>
      </trkpt>
      <trkpt lat="48.47661" lon="-1.50263">
        <ele>98</ele>
        <time>2007-12-23T18:47:00Z</time>
      </trkpt>
      <trkpt lat="48.47626" lon="-1.50707">
        <ele>101</ele>
        <time>2007-12-23T18:48:59Z</time>
      </trkpt>
      <trkpt lat="48.47728" lon="-1.50755">
        <ele>100</ele>
        <time>2007-12-23T18:49:42Z</time>
      </trkpt>
      <trkpt lat="48.47785" lon="-1.50885">
        <ele>104</ele>
        <time>2007-12-23T18:50:23Z</time>
      </trkpt>
      <trkpt lat="48.48098" lon="-1.506">
        <ele>88</ele>
        <time>2007-12-23T18:52:49Z</time>
      </trkpt>
      <trkpt lat="48.48086" lon="-1.50812">
        <ele>90</ele>
        <time>2007-12-23T18:53:46Z</time>
      </trkpt>
      <trkpt lat="48.48089" lon="-1.51208">
        <ele>84</ele>
        <time>2007-12-23T18:55:31Z</time>
      </trkpt>
      <trkpt lat="48.48026" lon="-1.51298">
        <ele>80</ele>
        <time>2007-12-23T18:56:06Z</time>
      </trkpt>
      <trkpt lat="48.47924" lon="-1.5124">
        <ele>82</ele>
        <time>2007-12-23T18:56:49Z</time>
      </trkpt>
      <trkpt lat="48.47868" lon="-1.51442">
        <ele>84</ele>
        <time>2007-12-23T18:57:47Z</time>
      </trkpt>
      <trkpt lat="48.47662" lon="-1.51407">
        <ele>92</ele>
        <time>2007-12-23T18:59:10Z</time>
      </trkpt>
      <trkpt lat="48.47586" lon="-1.51323">
        <ele>94</ele>
        <time>2007-12-23T18:59:48Z</time>
      </trkpt>
      <trkpt lat="48.4738" lon="-1.51274">
        <ele>98</ele>
        <time>2007-12-23T19:01:11Z</time>
      </trkpt>
      <trkpt lat="48.47329" lon="-1.51396">
        <ele>96</ele>
        <time>2007-12-23T19:01:50Z</time>
      </trkpt>
      <trkpt lat="48.47126" lon="-1.51489">
        <ele>109</ele>
        <time>2007-12-23T19:03:15Z</time>
      </trkpt>
      <trkpt lat="48.47187" lon="-1.51971">
        <ele>109</ele>
        <time>2007-12-23T19:05:25Z</time>
      </trkpt>
      <trkpt lat="48.47216" lon="-1.52169">
        <ele>111</ele>
        <time>2007-12-23T19:06:19Z</time>
      </trkpt>
      <trkpt lat="48.47171" lon="-1.52247">
        <ele>110</ele>
        <time>2007-12-23T19:06:46Z</time>
      </trkpt>
      <trkpt lat="48.4717" lon="-1.52409">
        <ele>106</ele>
        <time>2007-12-23T19:07:29Z</time>
      </trkpt>
      <trkpt lat="48.4715" lon="-1.52421">
        <ele>107</ele>
        <time>2007-12-23T19:07:38Z</time>
      </trkpt>
      <trkpt lat="48.46892" lon="-1.5225">
        <ele>109</ele>
        <time>2007-12-23T19:09:31Z</time>
      </trkpt>
      <trkpt lat="48.46728" lon="-1.52231">
        <ele>109</ele>
        <time>2007-12-23T19:10:37Z</time>
      </trkpt>
      <trkpt lat="48.46695" lon="-1.5188">
        <ele>108</ele>
        <time>2007-12-23T19:12:11Z</time>
      </trkpt>
      <trkpt lat="48.46587" lon="-1.51656">
        <ele>110</ele>
        <time>2007-12-23T19:13:24Z</time>
      </trkpt>
      <trkpt lat="48.46381" lon="-1.51911">
        <ele>110</ele>
        <time>2007-12-23T19:15:11Z</time>
      </trkpt>
      <trkpt lat="48.46305" lon="-1.51963">
        <ele>112</ele>
        <time>2007-12-23T19:15:44Z</time>
      </trkpt>
      <trkpt lat="48.46352" lon="-1.52396">
        <ele>106</ele>
        <time>2007-12-23T19:17:41Z</time>
      </trkpt>
      <trkpt lat="48.46278" lon="-1.52526">
        <ele>105</ele>
        <time>2007-12-23T19:18:26Z</time>
      </trkpt>
      <trkpt lat="48.46223" lon="-1.52488">
        <ele>107</ele>
        <time>2007-12-23T19:18:51Z</time>
      </trkpt>
      <trkpt lat="48.46221" lon="-1.52532">
        <ele>105</ele>
        <time>2007-12-23T19:19:02Z</time>
      </trkpt>
      <trkpt lat="48.46407" lon="-1.52698">
        <ele>102</ele>
        <time>2007-12-23T19:20:29Z</time>
      </trkpt>
      <trkpt lat="48.46315" lon="-1.5283">
        <ele>102</ele>
        <time>2007-12-23T19:21:20Z</time>
      </trkpt>
      <trkpt lat="48.46273" lon="-1.53016">
        <ele>105</ele>
        <time>2007-12-23T19:22:12Z</time>
      </trkpt>
      <trkpt lat="48.46215" lon="-1.53056">
        <ele>106</ele>
        <time>2007-12-23T19:22:37Z</time>
      </trkpt>
      <trkpt lat="48.46172" lon="-1.53127">
        <ele>105</ele>
        <time>2007-12-23T19:23:03Z</time>
      </trkpt>
      <trkpt lat="48.46109" lon="-1.53123">
        <ele>106</ele>
        <time>2007-12-23T19:23:28Z</time>
      </trkpt>
      <trkpt lat="48.46085" lon="-1.53175">
        <ele>105</ele>
        <time>2007-12-23T19:23:45Z</time>
      </trkpt>
      <trkpt lat="48.46084" lon="-1.53337">
        <ele>101</ele>
        <time>2007-12-23T19:24:28Z</time>
      </trkpt>
      <trkpt lat="48.46029" lon="-1.53394">
        <ele>100</ele>
        <time>2007-12-23T19:24:55Z</time>
      </trkpt>
      <trkpt lat="48.46156" lon="-1.53488">
        <ele>102</ele>
        <time>2007-12-23T19:25:52Z</time>
      </trkpt>
      <trkpt lat="48.46163" lon="-1.53631">
        <ele>102</ele>
        <time>2007-12-23T19:26:30Z</time>
      </trkpt>
      <trkpt lat="48.46323" lon="-1.53605">
        <ele>104</ele>
        <time>2007-12-23T19:27:34Z</time>
      </trkpt>
      <trkpt lat="48.46448" lon="-1.53655">
        <ele>106</ele>
        <time>2007-12-23T19:28:26Z</time>
      </trkpt>
      <trkpt lat="48.4649" lon="-1.53878">
        <ele>107</ele>
        <time>2007-12-23T19:29:27Z</time>
      </trkpt>
      <trkpt lat="48.46423" lon="-1.54415">
        <ele>105</ele>
        <time>2007-12-23T19:31:52Z</time>
      </trkpt>
      <trkpt lat="48.46411" lon="-1.55185">
        <ele>101</ele>
        <time>2007-12-23T19:35:17Z</time>
      </trkpt>
      <trkpt lat="48.4653" lon="-1.55394">
        <ele>100</ele>
        <time>2007-12-23T19:36:30Z</time>
      </trkpt>
      <trkpt lat="48.46559" lon="-1.55538">
        <ele>101</ele>
        <time>2007-12-23T19:37:10Z</time>
      </trkpt>
      <trkpt lat="48.46641" lon="-1.55642">
        <ele>101</ele>
        <time>2007-12-23T19:37:53Z</time>
      </trkpt>
      <trkpt lat="48.467" lon="-1.55769">
        <ele>102</ele>
        <time>2007-12-23T19:38:34Z</time>
      </trkpt>
      <trkpt lat="48.46709" lon="-1.55827">
        <ele>103</ele>
        <time>2007-12-23T19:38:50Z</time>
      </trkpt>
      <trkpt lat="48.46798" lon="-1.55854">
        <ele>109</ele>
        <time>2007-12-23T19:39:26Z</time>
      </trkpt>
      <trkpt lat="48.46812" lon="-1.55926">
        <ele>104</ele>
        <time>2007-12-23T19:39:46Z</time>
      </trkpt>
      <trkpt lat="48.46904" lon="-1.55983">
        <ele>103</ele>
        <time>2007-12-23T19:40:26Z</time>
      </trkpt>
      <trkpt lat="48.47024" lon="-1.55959">
        <ele>104</ele>
        <time>2007-12-23T19:41:15Z</time>
      </trkpt>
      <trkpt lat="48.4712" lon="-1.56006">
        <ele>106</ele>
        <time>2007-12-23T19:41:55Z</time>
      </trkpt>
      <trkpt lat="48.47171" lon="-1.56081">
        <ele>108</ele>
        <time>2007-12-23T19:42:23Z</time>
      </trkpt>
      <trkpt lat="48.47214" lon="-1.56084">
        <ele>109</ele>
        <time>2007-12-23T19:42:41Z</time>
      </trkpt>
      <trkpt lat="48.47277" lon="-1.55994">
        <ele>108</ele>
        <time>2007-12-23T19:43:15Z</time>
      </trkpt>
      <trkpt lat="48.47334" lon="-1.56043">
        <ele>109</ele>
        <time>2007-12-23T19:43:42Z</time>
      </trkpt>
      <trkpt lat="48.47385" lon="-1.56158">
        <ele>108</ele>
        <time>2007-12-23T19:44:18Z</time>
      </trkpt>
      <trkpt lat="48.47583" lon="-1.5622">
        <ele>94</ele>
        <time>2007-12-23T19:45:39Z</time>
      </trkpt>
      <trkpt lat="48.47651" lon="-1.56134">
        <ele>85</ele>
        <time>2007-12-23T19:46:15Z</time>
      </trkpt>
      <trkpt lat="48.47795" lon="-1.56409">
        <ele>83</ele>
        <time>2007-12-23T19:47:48Z</time>
      </trkpt>
      <trkpt lat="48.4796" lon="-1.56526">
        <ele>83</ele>
        <time>2007-12-23T19:49:01Z</time>
      </trkpt>
      <trkpt lat="48.48065" lon="-1.56534">
        <ele>82</ele>
        <time>2007-12-23T19:49:43Z</time>
      </trkpt>
      <trkpt lat="48.48072" lon="-1.5646">
        <ele>83</ele>
        <time>2007-12-23T19:50:03Z</time>
      </trkpt>
      <trkpt lat="48.4806" lon="-1.56408">
        <ele>85</ele>
        <time>2007-12-23T19:50:17Z</time>
      </trkpt>
      <trkpt lat="48.48085" lon="-1.56407">
        <ele>84</ele>
        <time>2007-12-23T19:50:27Z</time>
      </trkpt>
      <trkpt lat="48.48106" lon="-1.56459">
        <ele>84</ele>
        <time>2007-12-23T19:50:43Z</time>
      </trkpt>
      <trkpt lat="48.48172" lon="-1.56234">
        <ele>91</ele>
        <time>2007-12-23T19:51:49Z</time>
      </trkpt>
      <trkpt lat="48.48277" lon="-1.56123">
        <ele>95</ele>
        <time>2007-12-23T19:52:40Z</time>
      </trkpt>
      <trkpt lat="48.48316" lon="-1.56038">
        <ele>97</ele>
        <time>2007-12-23T19:53:07Z</time>
      </trkpt>
      <trkpt lat="48.48428" lon="-1.55962">
        <ele>98</ele>
        <time>2007-12-23T19:53:57Z</time>
      </trkpt>
      <trkpt lat="48.48535" lon="-1.5579">
        <ele>100</ele>
        <time>2007-12-23T19:54:59Z</time>
      </trkpt>
      <trkpt lat="48.48533" lon="-1.55455">
        <ele>101</ele>
        <time>2007-12-23T19:56:28Z</time>
      </trkpt>
      <trkpt lat="48.4861" lon="-1.55359">
        <ele>103</ele>
        <time>2007-12-23T19:57:08Z</time>
      </trkpt>
      <trkpt lat="48.49066" lon="-1.55322">
        <ele>106</ele>
        <time>2007-12-23T20:00:11Z</time>
      </trkpt>
      <trkpt lat="48.49148" lon="-1.5542">
        <ele>106</ele>
        <time>2007-12-23T20:00:53Z</time>
      </trkpt>
      <trkpt lat="48.49366" lon="-1.55497">
        <ele>100</ele>
        <time>2007-12-23T20:02:23Z</time>
      </trkpt>
      <trkpt lat="48.49435" lon="-1.55736">
        <ele>99</ele>
        <time>2007-12-23T20:03:32Z</time>
      </trkpt>
      <trkpt lat="48.49487" lon="-1.55807">
        <ele>100</ele>
        <time>2007-12-23T20:04:00Z</time>
      </trkpt>
      <trkpt lat="48.495" lon="-1.55937">
        <ele>102</ele>
        <time>2007-12-23T20:04:35Z</time>
      </trkpt>
      <trkpt lat="48.49542" lon="-1.56045">
        <ele>103</ele>
        <time>2007-12-23T20:05:08Z</time>
      </trkpt>
      <trkpt lat="48.49567" lon="-1.56179">
        <ele>101</ele>
        <time>2007-12-23T20:05:45Z</time>
      </trkpt>
      <trkpt lat="48.49655" lon="-1.56216">
        <ele>99</ele>
        <time>2007-12-23T20:06:22Z</time>
      </trkpt>
      <trkpt lat="48.49952" lon="-1.56103">
        <ele>103</ele>
        <time>2007-12-23T20:08:24Z</time>
      </trkpt>
      <trkpt lat="48.49977" lon="-1.55207">
        <ele>97</ele>
        <time>2007-12-23T20:12:22Z</time>
      </trkpt>
      <trkpt lat="48.50079" lon="-1.55242">
        <ele>95</ele>
        <time>2007-12-23T20:13:04Z</time>
      </trkpt>
      <trkpt lat="48.50399" lon="-1.55157">
        <ele>76</ele>
        <time>2007-12-23T20:15:14Z</time>
      </trkpt>
      <trkpt lat="48.50428" lon="-1.55017">
        <ele>65</ele>
        <time>2007-12-23T20:15:53Z</time>
      </trkpt>
      <trkpt lat="48.50582" lon="-1.54924">
        <ele>45</ele>
        <time>2007-12-23T20:16:59Z</time>
      </trkpt>
      <trkpt lat="48.50886" lon="-1.54787">
        <ele>35</ele>
        <time>2007-12-23T20:19:06Z</time>
      </trkpt>
      <trkpt lat="48.51005" lon="-1.54732">
        <ele>33</ele>
        <time>2007-12-23T20:19:56Z</time>
      </trkpt>
      <trkpt lat="48.51061" lon="-1.5454">
        <ele>30</ele>
        <time>2007-12-23T20:20:51Z</time>
      </trkpt>
      <trkpt lat="48.51126" lon="-1.54477">
        <ele>29</ele>
        <time>2007-12-23T20:21:22Z</time>
      </trkpt>
      <trkpt lat="48.51329" lon="-1.54512">
        <ele>28</ele>
        <time>2007-12-23T20:22:44Z</time>
      </trkpt>
      <trkpt lat="48.51512" lon="-1.54444">
        <ele>26</ele>
        <time>2007-12-23T20:23:59Z</time>
      </trkpt>
      <trkpt lat="48.51683" lon="-1.54501">
        <ele>27</ele>
        <time>2007-12-23T20:25:10Z</time>
      </trkpt>
      <trkpt lat="48.51761" lon="-1.54602">
        <ele>27</ele>
        <time>2007-12-23T20:25:51Z</time>
      </trkpt>
      <trkpt lat="48.51835" lon="-1.54614">
        <ele>26</ele>
        <time>2007-12-23T20:26:20Z</time>
      </trkpt>
      <trkpt lat="48.51857" lon="-1.54758">
        <ele>25</ele>
        <time>2007-12-23T20:27:00Z</time>
      </trkpt>
      <trkpt lat="48.52062" lon="-1.54621">
        <ele>23</ele>
        <time>2007-12-23T20:28:29Z</time>
      </trkpt>
      <trkpt lat="48.52143" lon="-1.54617">
        <ele>23</ele>
        <time>2007-12-23T20:29:02Z</time>
      </trkpt>
      <trkpt lat="48.52607" lon="-1.54678">
        <ele>17</ele>
        <time>2007-12-23T20:32:08Z</time>
      </trkpt>
      <trkpt lat="48.52572" lon="-1.54767">
        <ele>17</ele>
        <time>2007-12-23T20:32:35Z</time>
      </trkpt>
      <trkpt lat="48.52798" lon="-1.55075">
        <ele>11</ele>
        <time>2007-12-23T20:34:37Z</time>
      </trkpt>
      <trkpt lat="48.52921" lon="-1.55115">
        <ele>17</ele>
        <time>2007-12-23T20:35:27Z</time>
      </trkpt>
      <trkpt lat="48.52923" lon="-1.55173">
        <ele>18</ele>
        <time>2007-12-23T20:35:43Z</time>
      </trkpt>
      <trkpt lat="48.52829" lon="-1.55291">
        <ele>13</ele>
        <time>2007-12-23T20:36:32Z</time>
      </trkpt>
      <trkpt lat="48.52793" lon="-1.55512">
        <ele>13</ele>
        <time>2007-12-23T20:37:32Z</time>
      </trkpt>
      <trkpt lat="48.52809" lon="-1.55649">
        <ele>15</ele>
        <time>2007-12-23T20:38:09Z</time>
      </trkpt>
      <trkpt lat="48.52895" lon="-1.55774">
        <ele>15</ele>
        <time>2007-12-23T20:38:57Z</time>
      </trkpt>
      <trkpt lat="48.53038" lon="-1.56049">
        <ele>19</ele>
        <time>2007-12-23T20:40:30Z</time>
      </trkpt>
      <trkpt lat="48.53193" lon="-1.56287">
        <ele>30</ele>
        <time>2007-12-23T20:41:58Z</time>
      </trkpt>
      <trkpt lat="48.53336" lon="-1.55905">
        <ele>31</ele>
        <time>2007-12-23T20:43:54Z</time>
      </trkpt>
      <trkpt lat="48.53397" lon="-1.56177">
        <ele>39</ele>
        <time>2007-12-23T20:45:11Z</time>
      </trkpt>
      <trkpt lat="48.53358" lon="-1.56317">
        <ele>38</ele>
        <time>2007-12-23T20:45:51Z</time>
      </trkpt>
      <trkpt lat="48.53365" lon="-1.56388">
        <ele>39</ele>
        <time>2007-12-23T20:46:10Z</time>
      </trkpt>
      <trkpt lat="48.5338" lon="-1.56406">
        <ele>39</ele>
        <time>2007-12-23T18:24:32Z</time>
      </trkpt>
      <trkpt lat="48.53464" lon="-1.56389">
        <ele>44</ele>
        <time>2007-12-23T18:25:06Z</time>
      </trkpt>
      <trkpt lat="48.53496" lon="-1.56445">
        <ele>46</ele>
        <time>2007-12-23T18:25:25Z</time>
      </trkpt>
      <trkpt lat="48.53648" lon="-1.56399">
        <ele>49</ele>
        <time>2007-12-23T18:26:28Z</time>
      </trkpt>
      <trkpt lat="48.53655" lon="-1.56308">
        <ele>47</ele>
        <time>2007-12-23T18:26:52Z</time>
      </trkpt>
      <trkpt lat="48.53779" lon="-1.56175">
        <ele>47</ele>
        <time>2007-12-23T18:27:53Z</time>
      </trkpt>
      <trkpt lat="48.53885" lon="-1.5597">
        <ele>45</ele>
        <time>2007-12-23T18:29:02Z</time>
      </trkpt>
      <trkpt lat="48.54132" lon="-1.55832">
        <ele>32</ele>
        <time>2007-12-23T18:30:47Z</time>
      </trkpt>
      <trkpt lat="48.54357" lon="-1.55724">
        <ele>24</ele>
        <time>2007-12-23T18:32:21Z</time>
      </trkpt>
      <trkpt lat="48.54623" lon="-1.55432">
        <ele>14</ele>
        <time>2007-12-23T18:34:33Z</time>
      </trkpt>
      <trkpt lat="48.54682" lon="-1.5567">
        <ele>13</ele>
        <time>2007-12-23T18:35:41Z</time>
      </trkpt>
      <trkpt lat="48.54661" lon="-1.55713">
        <ele>14</ele>
        <time>2007-12-23T18:35:55Z</time>
      </trkpt>
      <trkpt lat="48.547" lon="-1.5582">
        <ele>15</ele>
        <time>2007-12-23T18:36:27Z</time>
      </trkpt>
      <trkpt lat="48.54713" lon="-1.55896">
        <ele>16</ele>
        <time>2007-12-23T18:36:48Z</time>
      </trkpt>
      <trkpt lat="48.54786" lon="-1.56013">
        <ele>16</ele>
        <time>2007-12-23T18:37:31Z</time>
      </trkpt>
      <trkpt lat="48.54841" lon="-1.55973">
        <ele>14</ele>
        <time>2007-12-23T18:37:55Z</time>
      </trkpt>
      <trkpt lat="48.54786" lon="-1.55871">
        <ele>16</ele>
        <time>2007-12-23T18:38:30Z</time>
      </trkpt>
      <trkpt lat="48.54745" lon="-1.55668">
        <ele>18</ele>
        <time>2007-12-23T18:39:26Z</time>
      </trkpt>
      <trkpt lat="48.54873" lon="-1.55606">
        <ele>28</ele>
        <time>2007-12-23T18:40:20Z</time>
      </trkpt>
      <trkpt lat="48.54809" lon="-1.55452">
        <ele>25</ele>
        <time>2007-12-23T18:41:09Z</time>
      </trkpt>
      <trkpt lat="48.54748" lon="-1.55123">
        <ele>18</ele>
        <time>2007-12-23T18:42:39Z</time>
      </trkpt>
      <trkpt lat="48.54999" lon="-1.54921">
        <ele>26</ele>
        <time>2007-12-23T18:44:33Z</time>
      </trkpt>
      <trkpt lat="48.55073" lon="-1.55089">
        <ele>29</ele>
        <time>2007-12-23T18:45:27Z</time>
      </trkpt>
      <trkpt lat="48.55315" lon="-1.54989">
        <ele>32</ele>
        <time>2007-12-23T18:47:07Z</time>
      </trkpt>
      <trkpt lat="48.55283" lon="-1.54518">
        <ele>36</ele>
        <time>2007-12-23T18:49:12Z</time>
      </trkpt>
      <trkpt lat="48.55256" lon="-1.54445">
        <ele>36</ele>
        <time>2007-12-23T18:49:35Z</time>
      </trkpt>
      <trkpt lat="48.5527" lon="-1.54013">
        <ele>26</ele>
        <time>2007-12-23T18:51:29Z</time>
      </trkpt>
      <trkpt lat="48.55556" lon="-1.53949">
        <ele>8</ele>
        <time>2007-12-23T18:53:25Z</time>
      </trkpt>
      <trkpt lat="48.5554" lon="-1.53819">
        <ele>7</ele>
        <time>2007-12-23T18:54:00Z</time>
      </trkpt>
      <trkpt lat="48.55516" lon="-1.5378">
        <ele>9</ele>
        <time>2007-12-23T18:54:14Z</time>
      </trkpt>
      <trkpt lat="48.55535" lon="-1.53629">
        <ele>8</ele>
        <time>2007-12-23T18:54:55Z</time>
      </trkpt>
      <trkpt lat="48.55511" lon="-1.53532">
        <ele>7</ele>
        <time>2007-12-23T18:55:22Z</time>
      </trkpt>
      <trkpt lat="48.55384" lon="-1.5336">
        <ele>7</ele>
        <time>2007-12-23T18:56:30Z</time>
      </trkpt>
      <trkpt lat="48.55325" lon="-1.53376">
        <ele>9</ele>
        <time>2007-12-23T18:56:54Z</time>
      </trkpt>
      <trkpt lat="48.55402" lon="-1.53063">
        <ele>7</ele>
        <time>2007-12-23T18:58:23Z</time>
      </trkpt>
      <trkpt lat="48.55668" lon="-1.52649">
        <ele>8</ele>
        <time>2007-12-23T19:00:56Z</time>
      </trkpt>
      <trkpt lat="48.55633" lon="-1.52419">
        <ele>8</ele>
        <time>2007-12-23T19:01:58Z</time>
      </trkpt>
      <trkpt lat="48.55819" lon="-1.52216">
        <ele>7</ele>
        <time>2007-12-23T19:03:30Z</time>
      </trkpt>
      <trkpt lat="48.55822" lon="-1.52132">
        <ele>7</ele>
        <time>2007-12-23T19:03:53Z</time>
      </trkpt>
      <trkpt lat="48.5573" lon="-1.52047">
        <ele>8</ele>
        <time>2007-12-23T19:04:36Z</time>
      </trkpt>
      <trkpt lat="48.55704" lon="-1.5195">
        <ele>7</ele>
        <time>2007-12-23T19:05:03Z</time>
      </trkpt>
      <trkpt lat="48.55477" lon="-1.51682">
        <ele>7</ele>
        <time>2007-12-23T19:06:59Z</time>
      </trkpt>
      <trkpt lat="48.55408" lon="-1.51498">
        <ele>8</ele>
        <time>2007-12-23T19:07:55Z</time>
      </trkpt>
      <trkpt lat="48.55267" lon="-1.51426">
        <ele>8</ele>
        <time>2007-12-23T19:08:55Z</time>
      </trkpt>
      <trkpt lat="48.55271" lon="-1.51291">
        <ele>9</ele>
        <time>2007-12-23T19:09:31Z</time>
      </trkpt>
      <trkpt lat="48.55318" lon="-1.51291">
        <ele>9</ele>
        <time>2007-12-23T19:09:49Z</time>
      </trkpt>
      <trkpt lat="48.55339" lon="-1.51354">
        <ele>8</ele>
        <time>2007-12-23T19:10:08Z</time>
      </trkpt>
      <trkpt lat="48.55378" lon="-1.51397">
        <ele>8</ele>
        <time>2007-12-23T19:10:27Z</time>
      </trkpt>
      <trkpt lat="48.55671" lon="-1.51507">
        <ele>8</ele>
        <time>2007-12-23T19:12:28Z</time>
      </trkpt>
      <trkpt lat="48.55966" lon="-1.51658">
        <ele>7</ele>
        <time>2007-12-23T19:14:33Z</time>
      </trkpt>
      <trkpt lat="48.562" lon="-1.51705">
        <ele>7</ele>
        <time>2007-12-23T19:16:08Z</time>
      </trkpt>
      <trkpt lat="48.56517" lon="-1.51786">
        <ele>7</ele>
        <time>2007-12-23T19:18:16Z</time>
      </trkpt>
      <trkpt lat="48.56789" lon="-1.51946">
        <ele>7</ele>
        <time>2007-12-23T19:20:13Z</time>
      </trkpt>
      <trkpt lat="48.56984" lon="-1.52177">
        <ele>7</ele>
        <time>2007-12-23T19:21:52Z</time>
      </trkpt>
      <trkpt lat="48.57181" lon="-1.52276">
        <ele>7</ele>
        <time>2007-12-23T19:23:15Z</time>
      </trkpt>
      <trkpt lat="48.57408" lon="-1.52202">
        <ele>8</ele>
        <time>2007-12-23T19:24:48Z</time>
      </trkpt>
      <trkpt lat="48.57604" lon="-1.52053">
        <ele>8</ele>
        <time>2007-12-23T19:26:16Z</time>
      </trkpt>
      <trkpt lat="48.57732" lon="-1.52005">
        <ele>7</ele>
        <time>2007-12-23T19:27:09Z</time>
      </trkpt>
      <trkpt lat="48.57884" lon="-1.5183">
        <ele>6</ele>
        <time>2007-12-23T19:28:25Z</time>
      </trkpt>
      <trkpt lat="48.57861" lon="-1.51716">
        <ele>7</ele>
        <time>2007-12-23T19:28:57Z</time>
      </trkpt>
      <trkpt lat="48.57886" lon="-1.51698">
        <ele>7</ele>
        <time>2007-12-23T19:29:08Z</time>
      </trkpt>
      <trkpt lat="48.57985" lon="-1.51559">
        <ele>7</ele>
        <time>2007-12-23T19:30:02Z</time>
      </trkpt>
      <trkpt lat="48.5798" lon="-1.51495">
        <ele>7</ele>
        <time>2007-12-23T19:30:19Z</time>
      </trkpt>
      <trkpt lat="48.58032" lon="-1.51437">
        <ele>7</ele>
        <time>2007-12-23T19:30:45Z</time>
      </trkpt>
      <trkpt lat="48.58133" lon="-1.51703">
        <ele>7</ele>
        <time>2007-12-23T19:32:06Z</time>
      </trkpt>
      <trkpt lat="48.58543" lon="-1.51573">
        <ele>7</ele>
        <time>2007-12-23T19:34:53Z</time>
      </trkpt>
      <trkpt lat="48.58929" lon="-1.51517">
        <ele>8</ele>
        <time>2007-12-23T19:37:29Z</time>
      </trkpt>
      <trkpt lat="48.59815" lon="-1.51396">
        <ele>8</ele>
        <time>2007-12-23T19:43:25Z</time>
      </trkpt>
      <trkpt lat="48.59832" lon="-1.51564">
        <ele>8</ele>
        <time>2007-12-23T19:44:10Z</time>
      </trkpt>
      <trkpt lat="48.59953" lon="-1.51528">
        <ele>8</ele>
        <time>2007-12-23T19:44:59Z</time>
      </trkpt>
      <trkpt lat="48.60245" lon="-1.51516">
        <ele>8</ele>
        <time>2007-12-23T19:46:56Z</time>
      </trkpt>
      <trkpt lat="48.61775" lon="-1.51334">
        <ele>8</ele>
        <time>2007-12-23T19:57:10Z</time>
      </trkpt>
      <trkpt lat="48.61797" lon="-1.51621">
        <ele>8</ele>
        <time>2007-12-23T19:58:27Z</time>
      </trkpt>
      <trkpt lat="48.62269" lon="-1.51771">
        <ele>6</ele>
        <time>2007-12-23T20:01:40Z</time>
      </trkpt>
      <trkpt lat="48.62701" lon="-1.51905">
        <ele>6</ele>
        <time>2007-12-23T20:04:36Z</time>
      </trkpt>
      <trkpt lat="48.62902" lon="-1.52724">
        <ele>6</ele>
        <time>2007-12-23T20:08:28Z</time>
      </trkpt>
      <trkpt lat="48.63097" lon="-1.54239">
        <ele>6</ele>
        <time>2007-12-23T20:15:16Z</time>
      </trkpt>
      <trkpt lat="48.62596" lon="-1.57161">
        <ele>7</ele>
        <time>2007-12-23T20:28:35Z</time>
      </trkpt>
      <trkpt lat="48.62027" lon="-1.60428">
        <ele>8</ele>
        <time>2007-12-23T20:43:28Z</time>
      </trkpt>
      <trkpt lat="48.62008" lon="-1.60443">
        <ele>8</ele>
        <time>2007-12-23T18:24:32Z</time>
      </trkpt>
      <trkpt lat="48.61638" lon="-1.60469">
        <ele>7</ele>
        <time>2007-12-23T18:27:00Z</time>
      </trkpt>
      <trkpt lat="48.61652" lon="-1.60209">
        <ele>7</ele>
        <time>2007-12-23T18:28:09Z</time>
      </trkpt>
      <trkpt lat="48.61634" lon="-1.59865">
        <ele>7</ele>
        <time>2007-12-23T18:29:41Z</time>
      </trkpt>
      <trkpt lat="48.6151" lon="-1.5933">
        <ele>8</ele>
        <time>2007-12-23T18:32:11Z</time>
      </trkpt>
      <trkpt lat="48.60474" lon="-1.59408">
        <ele>8</ele>
        <time>2007-12-23T18:39:06Z</time>
      </trkpt>
      <trkpt lat="48.60439" lon="-1.5931">
        <ele>8</ele>
        <time>2007-12-23T18:39:35Z</time>
      </trkpt>
      <trkpt lat="48.60442" lon="-1.59151">
        <ele>8</ele>
        <time>2007-12-23T18:40:17Z</time>
      </trkpt>
      <trkpt lat="48.60426" lon="-1.59038">
        <ele>8</ele>
        <time>2007-12-23T18:40:48Z</time>
      </trkpt>
      <trkpt lat="48.60305" lon="-1.58964">
        <ele>9</ele>
        <time>2007-12-23T18:41:40Z</time>
      </trkpt>
      <trkpt lat="48.602" lon="-1.5899">
        <ele>9</ele>
        <time>2007-12-23T18:42:22Z</time>
      </trkpt>
      <trkpt lat="48.59977" lon="-1.58878">
        <ele>8</ele>
        <time>2007-12-23T18:43:57Z</time>
      </trkpt>
      <trkpt lat="48.59866" lon="-1.58755">
        <ele>7</ele>
        <time>2007-12-23T18:44:52Z</time>
      </trkpt>
      <trkpt lat="48.59619" lon="-1.58956">
        <ele>7</ele>
        <time>2007-12-23T18:46:44Z</time>
      </trkpt>
      <trkpt lat="48.59534" lon="-1.58981">
        <ele>6</ele>
        <time>2007-12-23T18:47:19Z</time>
      </trkpt>
      <trkpt lat="48.59146" lon="-1.59033">
        <ele>9</ele>
        <time>2007-12-23T18:49:55Z</time>
      </trkpt>
      <trkpt lat="48.59026" lon="-1.58983">
        <ele>19</ele>
        <time>2007-12-23T18:50:45Z</time>
      </trkpt>
      <trkpt lat="48.58938" lon="-1.59058">
        <ele>51</ele>
        <time>2007-12-23T18:51:25Z</time>
      </trkpt>
      <trkpt lat="48.58929" lon="-1.59115">
        <ele>54</ele>
        <time>2007-12-23T18:51:41Z</time>
      </trkpt>
      <trkpt lat="48.58848" lon="-1.59136">
        <ele>57</ele>
        <time>2007-12-23T18:52:14Z</time>
      </trkpt>
      <trkpt lat="48.58872" lon="-1.59216">
        <ele>58</ele>
        <time>2007-12-23T18:52:37Z</time>
      </trkpt>
      <trkpt lat="48.5892" lon="-1.59328">
        <ele>61</ele>
        <time>2007-12-23T18:53:12Z</time>
      </trkpt>
      <trkpt lat="48.58985" lon="-1.5955">
        <ele>66</ele>
        <time>2007-12-23T18:54:17Z</time>
      </trkpt>
      <trkpt lat="48.58973" lon="-1.59684">
        <ele>67</ele>
        <time>2007-12-23T18:54:53Z</time>
      </trkpt>
      <trkpt lat="48.58979" lon="-1.60048">
        <ele>60</ele>
        <time>2007-12-23T18:56:29Z</time>
      </trkpt>
      <trkpt lat="48.59162" lon="-1.60028">
        <ele>73</ele>
        <time>2007-12-23T18:57:42Z</time>
      </trkpt>
      <trkpt lat="48.59261" lon="-1.6009">
        <ele>75</ele>
        <time>2007-12-23T18:58:25Z</time>
      </trkpt>
      <trkpt lat="48.59212" lon="-1.60293">
        <ele>68</ele>
        <time>2007-12-23T18:59:22Z</time>
      </trkpt>
      <trkpt lat="48.5923" lon="-1.60423">
        <ele>66</ele>
        <time>2007-12-23T18:59:58Z</time>
      </trkpt>
      <trkpt lat="48.59325" lon="-1.6041">
        <ele>70</ele>
        <time>2007-12-23T19:00:36Z</time>
      </trkpt>
      <trkpt lat="48.59365" lon="-1.60565">
        <ele>70</ele>
        <time>2007-12-23T19:01:20Z</time>
      </trkpt>
      <trkpt lat="48.59338" lon="-1.60686">
        <ele>66</ele>
        <time>2007-12-23T19:01:54Z</time>
      </trkpt>
      <trkpt lat="48.59365" lon="-1.60827">
        <ele>60</ele>
        <time>2007-12-23T19:02:32Z</time>
      </trkpt>
      <trkpt lat="48.59344" lon="-1.60927">
        <ele>55</ele>
        <time>2007-12-23T19:03:00Z</time>
      </trkpt>
      <trkpt lat="48.59306" lon="-1.6091">
        <ele>51</ele>
        <time>2007-12-23T19:03:16Z</time>
      </trkpt>
      <trkpt lat="48.59283" lon="-1.61075">
        <ele>39</ele>
        <time>2007-12-23T19:04:01Z</time>
      </trkpt>
      <trkpt lat="48.59431" lon="-1.61201">
        <ele>15</ele>
        <time>2007-12-23T19:05:09Z</time>
      </trkpt>
      <trkpt lat="48.59438" lon="-1.6127">
        <ele>10</ele>
        <time>2007-12-23T19:05:27Z</time>
      </trkpt>
      <trkpt lat="48.59408" lon="-1.6144">
        <ele>21</ele>
        <time>2007-12-23T19:06:14Z</time>
      </trkpt>
      <trkpt lat="48.59341" lon="-1.61429">
        <ele>36</ele>
        <time>2007-12-23T19:06:41Z</time>
      </trkpt>
      <trkpt lat="48.59182" lon="-1.61586">
        <ele>46</ele>
        <time>2007-12-23T19:07:57Z</time>
      </trkpt>
      <trkpt lat="48.59111" lon="-1.61625">
        <ele>50</ele>
        <time>2007-12-23T19:08:27Z</time>
      </trkpt>
      <trkpt lat="48.59086" lon="-1.61701">
        <ele>52</ele>
        <time>2007-12-23T19:08:50Z</time>
      </trkpt>
      <trkpt lat="48.58992" lon="-1.61748">
        <ele>50</ele>
        <time>2007-12-23T19:09:29Z</time>
      </trkpt>
      <trkpt lat="48.58928" lon="-1.61726">
        <ele>55</ele>
        <time>2007-12-23T19:09:56Z</time>
      </trkpt>
      <trkpt lat="48.58762" lon="-1.62046">
        <ele>70</ele>
        <time>2007-12-23T19:11:43Z</time>
      </trkpt>
      <trkpt lat="48.58994" lon="-1.62047">
        <ele>63</ele>
        <time>2007-12-23T19:13:16Z</time>
      </trkpt>
      <trkpt lat="48.59107" lon="-1.62032">
        <ele>64</ele>
        <time>2007-12-23T19:14:02Z</time>
      </trkpt>
      <trkpt lat="48.5913" lon="-1.62064">
        <ele>66</ele>
        <time>2007-12-23T19:14:14Z</time>
      </trkpt>
      <trkpt lat="48.59229" lon="-1.62071">
        <ele>64</ele>
        <time>2007-12-23T19:14:54Z</time>
      </trkpt>
      <trkpt lat="48.59282" lon="-1.62225">
        <ele>61</ele>
        <time>2007-12-23T19:15:40Z</time>
      </trkpt>
      <trkpt lat="48.59331" lon="-1.62252">
        <ele>54</ele>
        <time>2007-12-23T19:16:01Z</time>
      </trkpt>
      <trkpt lat="48.59327" lon="-1.62374">
        <ele>56</ele>
        <time>2007-12-23T19:16:33Z</time>
      </trkpt>
      <trkpt lat="48.59392" lon="-1.62382">
        <ele>29</ele>
        <time>2007-12-23T19:16:59Z</time>
      </trkpt>
      <trkpt lat="48.59364" lon="-1.62489">
        <ele>33</ele>
        <time>2007-12-23T19:17:29Z</time>
      </trkpt>
      <trkpt lat="48.5932" lon="-1.62506">
        <ele>51</ele>
        <time>2007-12-23T19:17:47Z</time>
      </trkpt>
      <trkpt lat="48.59273" lon="-1.62648">
        <ele>57</ele>
        <time>2007-12-23T19:18:29Z</time>
      </trkpt>
      <trkpt lat="48.59233" lon="-1.62699">
        <ele>64</ele>
        <time>2007-12-23T19:18:50Z</time>
      </trkpt>
      <trkpt lat="48.59177" lon="-1.62875">
        <ele>57</ele>
        <time>2007-12-23T19:19:42Z</time>
      </trkpt>
      <trkpt lat="48.5912" lon="-1.62976">
        <ele>57</ele>
        <time>2007-12-23T19:20:17Z</time>
      </trkpt>
      <trkpt lat="48.591" lon="-1.62974">
        <ele>59</ele>
        <time>2007-12-23T19:20:25Z</time>
      </trkpt>
      <trkpt lat="48.59008" lon="-1.6316">
        <ele>60</ele>
        <time>2007-12-23T19:21:27Z</time>
      </trkpt>
      <trkpt lat="48.58923" lon="-1.6314">
        <ele>63</ele>
        <time>2007-12-23T19:22:01Z</time>
      </trkpt>
      <trkpt lat="48.5887" lon="-1.63323">
        <ele>47</ele>
        <time>2007-12-23T19:22:54Z</time>
      </trkpt>
      <trkpt lat="48.58814" lon="-1.63305">
        <ele>48</ele>
        <time>2007-12-23T19:23:17Z</time>
      </trkpt>
      <trkpt lat="48.58771" lon="-1.63264">
        <ele>52</ele>
        <time>2007-12-23T19:23:37Z</time>
      </trkpt>
      <trkpt lat="48.58773" lon="-1.63119">
        <ele>56</ele>
        <time>2007-12-23T19:24:16Z</time>
      </trkpt>
      <trkpt lat="48.58705" lon="-1.62795">
        <ele>67</ele>
        <time>2007-12-23T19:25:46Z</time>
      </trkpt>
      <trkpt lat="48.58442" lon="-1.62876">
        <ele>83</ele>
        <time>2007-12-23T19:27:34Z</time>
      </trkpt>
      <trkpt lat="48.58525" lon="-1.63076">
        <ele>76</ele>
        <time>2007-12-23T19:28:36Z</time>
      </trkpt>
      <trkpt lat="48.58707" lon="-1.63219">
        <ele>58</ele>
        <time>2007-12-23T19:29:58Z</time>
      </trkpt>
      <trkpt lat="48.58712" lon="-1.63328">
        <ele>55</ele>
        <time>2007-12-23T19:30:27Z</time>
      </trkpt>
      <trkpt lat="48.58606" lon="-1.63469">
        <ele>57</ele>
        <time>2007-12-23T19:31:24Z</time>
      </trkpt>
      <trkpt lat="48.5858" lon="-1.63575">
        <ele>49</ele>
        <time>2007-12-23T19:31:54Z</time>
      </trkpt>
      <trkpt lat="48.58654" lon="-1.63652">
        <ele>55</ele>
        <time>2007-12-23T19:32:30Z</time>
      </trkpt>
      <trkpt lat="48.58686" lon="-1.6378">
        <ele>57</ele>
        <time>2007-12-23T19:33:06Z</time>
      </trkpt>
      <trkpt lat="48.5852" lon="-1.64012">
        <ele>63</ele>
        <time>2007-12-23T19:34:36Z</time>
      </trkpt>
      <trkpt lat="48.58364" lon="-1.64037">
        <ele>67</ele>
        <time>2007-12-23T19:35:39Z</time>
      </trkpt>
      <trkpt lat="48.58254" lon="-1.64107">
        <ele>68</ele>
        <time>2007-12-23T19:36:27Z</time>
      </trkpt>
      <trkpt lat="48.58125" lon="-1.64324">
        <ele>68</ele>
        <time>2007-12-23T19:37:44Z</time>
      </trkpt>
      <trkpt lat="48.5805" lon="-1.64691">
        <ele>60</ele>
        <time>2007-12-23T19:39:26Z</time>
      </trkpt>
      <trkpt lat="48.57902" lon="-1.65141">
        <ele>53</ele>
        <time>2007-12-23T19:41:39Z</time>
      </trkpt>
      <trkpt lat="48.57973" lon="-1.65371">
        <ele>48</ele>
        <time>2007-12-23T19:42:46Z</time>
      </trkpt>
      <trkpt lat="48.57998" lon="-1.65423">
        <ele>49</ele>
        <time>2007-12-23T19:43:03Z</time>
      </trkpt>
      <trkpt lat="48.58094" lon="-1.65448">
        <ele>44</ele>
        <time>2007-12-23T19:43:42Z</time>
      </trkpt>
      <trkpt lat="48.58127" lon="-1.65416">
        <ele>46</ele>
        <time>2007-12-23T19:43:58Z</time>
      </trkpt>
      <trkpt lat="48.58213" lon="-1.65443">
        <ele>33</ele>
        <time>2007-12-23T19:44:33Z</time>
      </trkpt>
      <trkpt lat="48.58246" lon="-1.65493">
        <ele>32</ele>
        <time>2007-12-23T19:44:51Z</time>
      </trkpt>
      <trkpt lat="48.58356" lon="-1.65546">
        <ele>24</ele>
        <time>2007-12-23T19:45:38Z</time>
      </trkpt>
      <trkpt lat="48.58514" lon="-1.65531">
        <ele>22</ele>
        <time>2007-12-23T19:46:41Z</time>
      </trkpt>
      <trkpt lat="48.58667" lon="-1.65739">
        <ele>8</ele>
        <time>2007-12-23T19:48:04Z</time>
      </trkpt>
      <trkpt lat="48.58655" lon="-1.65908">
        <ele>10</ele>
        <time>2007-12-23T19:48:49Z</time>
      </trkpt>
      <trkpt lat="48.58369" lon="-1.66235">
        <ele>9</ele>
        <time>2007-12-23T19:51:12Z</time>
      </trkpt>
      <trkpt lat="48.58228" lon="-1.66275">
        <ele>20</ele>
        <time>2007-12-23T19:52:10Z</time>
      </trkpt>
      <trkpt lat="48.58148" lon="-1.66381">
        <ele>25</ele>
        <time>2007-12-23T19:52:52Z</time>
      </trkpt>
      <trkpt lat="48.58127" lon="-1.66478">
        <ele>26</ele>
        <time>2007-12-23T19:53:19Z</time>
      </trkpt>
      <trkpt lat="48.57936" lon="-1.66545">
        <ele>40</ele>
        <time>2007-12-23T19:54:38Z</time>
      </trkpt>
      <trkpt lat="48.57689" lon="-1.66522">
        <ele>50</ele>
        <time>2007-12-23T19:56:17Z</time>
      </trkpt>
      <trkpt lat="48.57595" lon="-1.66959">
        <ele>60</ele>
        <time>2007-12-23T19:58:18Z</time>
      </trkpt>
      <trkpt lat="48.57495" lon="-1.67203">
        <ele>52</ele>
        <time>2007-12-23T19:59:34Z</time>
      </trkpt>
      <trkpt lat="48.5749" lon="-1.67331">
        <ele>50</ele>
        <time>2007-12-23T20:00:08Z</time>
      </trkpt>
      <trkpt lat="48.57436" lon="-1.67415">
        <ele>55</ele>
        <time>2007-12-23T20:00:39Z</time>
      </trkpt>
      <trkpt lat="48.57352" lon="-1.67832">
        <ele>55</ele>
        <time>2007-12-23T20:02:35Z</time>
      </trkpt>
      <trkpt lat="48.57355" lon="-1.68012">
        <ele>60</ele>
        <time>2007-12-23T20:03:23Z</time>
      </trkpt>
      <trkpt lat="48.57162" lon="-1.68713">
        <ele>57</ele>
        <time>2007-12-23T20:06:44Z</time>
      </trkpt>
      <trkpt lat="48.5718" lon="-1.6886">
        <ele>54</ele>
        <time>2007-12-23T20:07:23Z</time>
      </trkpt>
      <trkpt lat="48.56928" lon="-1.69302">
        <ele>52</ele>
        <time>2007-12-23T20:09:58Z</time>
      </trkpt>
      <trkpt lat="48.56731" lon="-1.69734">
        <ele>44</ele>
        <time>2007-12-23T20:12:17Z</time>
      </trkpt>
      <trkpt lat="48.5685" lon="-1.6995">
        <ele>32</ele>
        <time>2007-12-23T20:13:31Z</time>
      </trkpt>
      <trkpt lat="48.56948" lon="-1.70168">
        <ele>11</ele>
        <time>2007-12-23T20:14:41Z</time>
      </trkpt>
      <trkpt lat="48.57073" lon="-1.70151">
        <ele>12</ele>
        <time>2007-12-23T20:15:31Z</time>
      </trkpt>
      <trkpt lat="48.57139" lon="-1.70308">
        <ele>5</ele>
        <time>2007-12-23T20:16:20Z</time>
      </trkpt>
      <trkpt lat="48.57247" lon="-1.70435">
        <ele>3</ele>
        <time>2007-12-23T20:17:15Z</time>
      </trkpt>
      <trkpt lat="48.57082" lon="-1.70863">
        <ele>2</ele>
        <time>2007-12-23T20:19:27Z</time>
      </trkpt>
      <trkpt lat="48.56825" lon="-1.7122">
        <ele>3</ele>
        <time>2007-12-23T20:21:46Z</time>
      </trkpt>
      <trkpt lat="48.57327" lon="-1.7193">
        <ele>2</ele>
        <time>2007-12-23T20:26:22Z</time>
      </trkpt>
      <trkpt lat="48.56984" lon="-1.72351">
        <ele>2</ele>
        <time>2007-12-23T20:29:19Z</time>
      </trkpt>
      <trkpt lat="48.56721" lon="-1.72724">
        <ele>3</ele>
        <time>2007-12-23T20:31:43Z</time>
      </trkpt>
      <trkpt lat="48.56633" lon="-1.72921">
        <ele>3</ele>
        <time>2007-12-23T20:32:46Z</time>
      </trkpt>
      <trkpt lat="48.56444" lon="-1.73079">
        <ele>3</ele>
        <time>2007-12-23T20:34:12Z</time>
      </trkpt>
      <trkpt lat="48.5627" lon="-1.7336">
        <ele>3</ele>
        <time>2007-12-23T20:35:54Z</time>
      </trkpt>
      <trkpt lat="48.55994" lon="-1.73969">
        <ele>3</ele>
        <time>2007-12-23T20:39:10Z</time>
      </trkpt>
      <trkpt lat="48.55533" lon="-1.7378">
        <ele>4</ele>
        <time>2007-12-23T20:42:21Z</time>
      </trkpt>
      <trkpt lat="48.55553" lon="-1.73707">
        <ele>4</ele>
        <time>2007-12-23T20:42:42Z</time>
      </trkpt>
      <trkpt lat="48.55445" lon="-1.73706">
        <ele>7</ele>
        <time>2007-12-23T20:43:25Z</time>
      </trkpt>
      <trkpt lat="48.55298" lon="-1.74203">
        <ele>8</ele>
        <time>2007-12-23T20:45:50Z</time>
      </trkpt>
      <trkpt lat="48.55222" lon="-1.74187">
        <ele>11</ele>
        <time>2007-12-23T20:46:20Z</time>
      </trkpt>
      <trkpt lat="48.55199" lon="-1.74334">
        <ele>14</ele>
        <time>2007-12-23T20:47:01Z</time>
      </trkpt>
      <trkpt lat="48.55239" lon="-1.7452">
        <ele>16</ele>
        <time>2007-12-23T20:47:53Z</time>
      </trkpt>
      <trkpt lat="48.55185" lon="-1.7498">
        <ele>19</ele>
        <time>2007-12-23T20:49:56Z</time>
      </trkpt>
      <trkpt lat="48.55274" lon="-1.75075">
        <ele>12</ele>
        <time>2007-12-23T20:50:40Z</time>
      </trkpt>
      <trkpt lat="48.55144" lon="-1.75336">
        <ele>16</ele>
        <time>2007-12-23T20:52:07Z</time>
      </trkpt>
      <trkpt lat="48.55223" lon="-1.75448">
        <ele>7</ele>
        <time>2007-12-23T20:52:50Z</time>
      </trkpt>
      <trkpt lat="48.55247" lon="-1.75467">
        <ele>6</ele>
        <time>2007-12-23T18:24:32Z</time>
      </trkpt>
      <trkpt lat="48.5552" lon="-1.75773">
        <ele>4</ele>
        <time>2007-12-23T18:26:48Z</time>
      </trkpt>
      <trkpt lat="48.55705" lon="-1.75841">
        <ele>3</ele>
        <time>2007-12-23T18:28:04Z</time>
      </trkpt>
      <trkpt lat="48.55725" lon="-1.75955">
        <ele>3</ele>
        <time>2007-12-23T18:28:35Z</time>
      </trkpt>
      <trkpt lat="48.55768" lon="-1.75972">
        <ele>3</ele>
        <time>2007-12-23T18:28:53Z</time>
      </trkpt>
      <trkpt lat="48.5579" lon="-1.75923">
        <ele>3</ele>
        <time>2007-12-23T18:29:08Z</time>
      </trkpt>
      <trkpt lat="48.55901" lon="-1.76009">
        <ele>4</ele>
        <time>2007-12-23T18:29:59Z</time>
      </trkpt>
      <trkpt lat="48.55906" lon="-1.76145">
        <ele>4</ele>
        <time>2007-12-23T18:30:35Z</time>
      </trkpt>
      <trkpt lat="48.56132" lon="-1.76489">
        <ele>4</ele>
        <time>2007-12-23T18:32:43Z</time>
      </trkpt>
      <trkpt lat="48.56161" lon="-1.76572">
        <ele>4</ele>
        <time>2007-12-23T18:33:08Z</time>
      </trkpt>
      <trkpt lat="48.5636" lon="-1.7673">
        <ele>4</ele>
        <time>2007-12-23T18:34:38Z</time>
      </trkpt>
      <trkpt lat="48.56699" lon="-1.76825">
        <ele>4</ele>
        <time>2007-12-23T18:36:56Z</time>
      </trkpt>
      <trkpt lat="48.56726" lon="-1.76763">
        <ele>4</ele>
        <time>2007-12-23T18:37:16Z</time>
      </trkpt>
      <trkpt lat="48.56883" lon="-1.76785">
        <ele>5</ele>
        <time>2007-12-23T18:38:19Z</time>
      </trkpt>
      <trkpt lat="48.56919" lon="-1.76893">
        <ele>6</ele>
        <time>2007-12-23T18:38:51Z</time>
      </trkpt>
      <trkpt lat="48.56958" lon="-1.76818">
        <ele>15</ele>
        <time>2007-12-23T18:39:16Z</time>
      </trkpt>
      <trkpt lat="48.56959" lon="-1.76788">
        <ele>14</ele>
        <time>2007-12-23T18:39:24Z</time>
      </trkpt>
      <trkpt lat="48.57041" lon="-1.76767">
        <ele>37</ele>
        <time>2007-12-23T18:39:57Z</time>
      </trkpt>
      <trkpt lat="48.57077" lon="-1.76631">
        <ele>45</ele>
        <time>2007-12-23T18:40:36Z</time>
      </trkpt>
      <trkpt lat="48.57167" lon="-1.76774">
        <ele>59</ele>
        <time>2007-12-23T18:41:28Z</time>
      </trkpt>
      <trkpt lat="48.5722" lon="-1.76927">
        <ele>61</ele>
        <time>2007-12-23T18:42:14Z</time>
      </trkpt>
      <trkpt lat="48.57276" lon="-1.76928">
        <ele>53</ele>
        <time>2007-12-23T18:42:37Z</time>
      </trkpt>
      <trkpt lat="48.5729" lon="-1.7698">
        <ele>54</ele>
        <time>2007-12-23T18:42:52Z</time>
      </trkpt>
      <trkpt lat="48.57391" lon="-1.76988">
        <ele>8</ele>
        <time>2007-12-23T18:43:32Z</time>
      </trkpt>
      <trkpt lat="48.57389" lon="-1.77056">
        <ele>7</ele>
        <time>2007-12-23T18:43:50Z</time>
      </trkpt>
      <trkpt lat="48.57449" lon="-1.77071">
        <ele>4</ele>
        <time>2007-12-23T18:44:15Z</time>
      </trkpt>
      <trkpt lat="48.5779" lon="-1.77487">
        <ele>4</ele>
        <time>2007-12-23T18:47:10Z</time>
      </trkpt>
      <trkpt lat="48.57829" lon="-1.77657">
        <ele>4</ele>
        <time>2007-12-23T18:47:58Z</time>
      </trkpt>
      <trkpt lat="48.57876" lon="-1.77674">
        <ele>4</ele>
        <time>2007-12-23T18:48:17Z</time>
      </trkpt>
      <trkpt lat="48.57871" lon="-1.77799">
        <ele>5</ele>
        <time>2007-12-23T18:48:50Z</time>
      </trkpt>
      <trkpt lat="48.57916" lon="-1.77999">
        <ele>5</ele>
        <time>2007-12-23T18:49:46Z</time>
      </trkpt>
      <trkpt lat="48.57952" lon="-1.78138">
        <ele>5</ele>
        <time>2007-12-23T18:50:25Z</time>
      </trkpt>
      <trkpt lat="48.58232" lon="-1.78167">
        <ele>5</ele>
        <time>2007-12-23T18:52:18Z</time>
      </trkpt>
      <trkpt lat="48.58315" lon="-1.78231">
        <ele>5</ele>
        <time>2007-12-23T18:52:55Z</time>
      </trkpt>
      <trkpt lat="48.58411" lon="-1.78208">
        <ele>5</ele>
        <time>2007-12-23T18:53:34Z</time>
      </trkpt>
      <trkpt lat="48.58707" lon="-1.78486">
        <ele>5</ele>
        <time>2007-12-23T18:55:53Z</time>
      </trkpt>
      <trkpt lat="48.5877" lon="-1.78491">
        <ele>5</ele>
        <time>2007-12-23T18:56:19Z</time>
      </trkpt>
      <trkpt lat="48.58814" lon="-1.78569">
        <ele>5</ele>
        <time>2007-12-23T18:56:46Z</time>
      </trkpt>
      <trkpt lat="48.58854" lon="-1.78545">
        <ele>5</ele>
        <time>2007-12-23T18:57:03Z</time>
      </trkpt>
      <trkpt lat="48.59141" lon="-1.78819">
        <ele>4</ele>
        <time>2007-12-23T18:59:19Z</time>
      </trkpt>
      <trkpt lat="48.59622" lon="-1.78965">
        <ele>5</ele>
        <time>2007-12-23T19:02:35Z</time>
      </trkpt>
      <trkpt lat="48.59907" lon="-1.78934">
        <ele>6</ele>
        <time>2007-12-23T19:04:30Z</time>
      </trkpt>
      <trkpt lat="48.59941" lon="-1.78919">
        <ele>6</ele>
        <time>2007-12-23T19:04:44Z</time>
      </trkpt>
      <trkpt lat="48.59976" lon="-1.78946">
        <ele>6</ele>
        <time>2007-12-23T19:04:59Z</time>
      </trkpt>
      <trkpt lat="48.601" lon="-1.78935">
        <ele>6</ele>
        <time>2007-12-23T19:05:49Z</time>
      </trkpt>
      <trkpt lat="48.60286" lon="-1.79096">
        <ele>7</ele>
        <time>2007-12-23T19:07:15Z</time>
      </trkpt>
      <trkpt lat="48.60601" lon="-1.79094">
        <ele>8</ele>
        <time>2007-12-23T19:09:21Z</time>
      </trkpt>
      <trkpt lat="48.60693" lon="-1.79929">
        <ele>7</ele>
        <time>2007-12-23T19:13:05Z</time>
      </trkpt>
      <trkpt lat="48.60811" lon="-1.8112">
        <ele>8</ele>
        <time>2007-12-23T19:18:24Z</time>
      </trkpt>
      <trkpt lat="48.60992" lon="-1.82206">
        <ele>8</ele>
        <time>2007-12-23T19:23:20Z</time>
      </trkpt>
      <trkpt lat="48.61117" lon="-1.82752">
        <ele>7</ele>
        <time>2007-12-23T19:25:53Z</time>
      </trkpt>
      <trkpt lat="48.61202" lon="-1.83133">
        <ele>8</ele>
        <time>2007-12-23T19:27:40Z</time>
      </trkpt>
      <trkpt lat="48.61304" lon="-1.83562">
        <ele>8</ele>
        <time>2007-12-23T19:29:40Z</time>
      </trkpt>
      <trkpt lat="48.61346" lon="-1.83843">
        <ele>8</ele>
        <time>2007-12-23T19:30:57Z</time>
      </trkpt>
      <trkpt lat="48.61464" lon="-1.84134">
        <ele>7</ele>
        <time>2007-12-23T19:32:27Z</time>
      </trkpt>
      <trkpt lat="48.61515" lon="-1.84346">
        <ele>8</ele>
        <time>2007-12-23T19:33:26Z</time>
      </trkpt>
      <trkpt lat="48.61787" lon="-1.84744">
        <ele>7</ele>
        <time>2007-12-23T19:35:58Z</time>
      </trkpt>
      <trkpt lat="48.61893" lon="-1.84739">
        <ele>7</ele>
        <time>2007-12-23T19:36:40Z</time>
      </trkpt>
      <trkpt lat="48.62227" lon="-1.85326">
        <ele>6</ele>
        <time>2007-12-23T19:40:06Z</time>
      </trkpt>
      <trkpt lat="48.62176" lon="-1.85383">
        <ele>8</ele>
        <time>2007-12-23T19:40:31Z</time>
      </trkpt>
      <trkpt lat="48.62456" lon="-1.85748">
        <ele>8</ele>
        <time>2007-12-23T19:42:59Z</time>
      </trkpt>
      <trkpt lat="48.62365" lon="-1.85962">
        <ele>7</ele>
        <time>2007-12-23T19:44:06Z</time>
      </trkpt>
      <trkpt lat="48.63161" lon="-1.86596">
        <ele>8</ele>
        <time>2007-12-23T19:50:07Z</time>
      </trkpt>
      <trkpt lat="48.63452" lon="-1.86847">
        <ele>9</ele>
        <time>2007-12-23T19:52:20Z</time>
      </trkpt>
      <trkpt lat="48.63646" lon="-1.8688">
        <ele>9</ele>
        <time>2007-12-23T19:53:39Z</time>
      </trkpt>
      <trkpt lat="48.63701" lon="-1.8681">
        <ele>7</ele>
        <time>2007-12-23T19:54:07Z</time>
      </trkpt>
      <trkpt lat="48.63829" lon="-1.86925">
        <ele>8</ele>
        <time>2007-12-23T19:55:07Z</time>
      </trkpt>
      <trkpt lat="48.63843" lon="-1.86855">
        <ele>7</ele>
        <time>2007-12-23T19:55:27Z</time>
      </trkpt>
      <trkpt lat="48.64239" lon="-1.86989">
        <ele>7</ele>
        <time>2007-12-23T19:58:09Z</time>
      </trkpt>
      <trkpt lat="48.6426" lon="-1.87225">
        <ele>18</ele>
        <time>2007-12-23T19:59:12Z</time>
      </trkpt>
      <trkpt lat="48.64462" lon="-1.87421">
        <ele>25</ele>
        <time>2007-12-23T20:00:48Z</time>
      </trkpt>
      <trkpt lat="48.64552" lon="-1.87816">
        <ele>22</ele>
        <time>2007-12-23T20:02:39Z</time>
      </trkpt>
      <trkpt lat="48.64586" lon="-1.87859">
        <ele>26</ele>
        <time>2007-12-23T20:02:57Z</time>
      </trkpt>
      <trkpt lat="48.64891" lon="-1.87942">
        <ele>37</ele>
        <time>2007-12-23T20:05:01Z</time>
      </trkpt>
      <trkpt lat="48.64928" lon="-1.8787">
        <ele>36</ele>
        <time>2007-12-23T20:05:25Z</time>
      </trkpt>
      <trkpt lat="48.64981" lon="-1.87895">
        <ele>37</ele>
        <time>2007-12-23T20:05:47Z</time>
      </trkpt>
      <trkpt lat="48.65441" lon="-1.8762">
        <ele>38</ele>
        <time>2007-12-23T20:09:05Z</time>
      </trkpt>
      <trkpt lat="48.65364" lon="-1.87308">
        <ele>30</ele>
        <time>2007-12-23T20:10:33Z</time>
      </trkpt>
      <trkpt lat="48.65434" lon="-1.87249">
        <ele>35</ele>
        <time>2007-12-23T20:11:05Z</time>
      </trkpt>
      <trkpt lat="48.65385" lon="-1.86973">
        <ele>26</ele>
        <time>2007-12-23T20:12:20Z</time>
      </trkpt>
      <trkpt lat="48.65684" lon="-1.86797">
        <ele>39</ele>
        <time>2007-12-23T20:14:29Z</time>
      </trkpt>
      <trkpt lat="48.65856" lon="-1.86777">
        <ele>46</ele>
        <time>2007-12-23T20:15:38Z</time>
      </trkpt>
      <trkpt lat="48.65872" lon="-1.86622">
        <ele>44</ele>
        <time>2007-12-23T20:16:19Z</time>
      </trkpt>
      <trkpt lat="48.65982" lon="-1.86502">
        <ele>36</ele>
        <time>2007-12-23T20:17:13Z</time>
      </trkpt>
      <trkpt lat="48.66204" lon="-1.86594">
        <ele>26</ele>
        <time>2007-12-23T20:18:45Z</time>
      </trkpt>
      <trkpt lat="48.66424" lon="-1.86425">
        <ele>17</ele>
        <time>2007-12-23T20:20:24Z</time>
      </trkpt>
      <trkpt lat="48.66621" lon="-1.86387">
        <ele>21</ele>
        <time>2007-12-23T20:21:44Z</time>
      </trkpt>
      <trkpt lat="48.66819" lon="-1.86199">
        <ele>9</ele>
        <time>2007-12-23T20:23:17Z</time>
      </trkpt>
      <trkpt lat="48.66889" lon="-1.86133">
        <ele>14</ele>
        <time>2007-12-23T20:23:50Z</time>
      </trkpt>
      <trkpt lat="48.6691" lon="-1.85965">
        <ele>9</ele>
        <time>2007-12-23T20:24:35Z</time>
      </trkpt>
      <trkpt lat="48.66949" lon="-1.85829">
        <ele>9</ele>
        <time>2007-12-23T20:25:15Z</time>
      </trkpt>
      <trkpt lat="48.67083" lon="-1.85544">
        <ele>9</ele>
        <time>2007-12-23T20:26:47Z</time>
      </trkpt>
      <trkpt lat="48.67111" lon="-1.85308">
        <ele>10</ele>
        <time>2007-12-23T20:27:50Z</time>
      </trkpt>
      <trkpt lat="48.65854" lon="-1.86817">
        <ele>47</ele>
        <time>2007-12-23T18:24:32Z</time>
      </trkpt>
      <trkpt lat="48.65902" lon="-1.86923">
        <ele>49</ele>
        <time>2007-12-23T18:25:06Z</time>
      </trkpt>
      <trkpt lat="48.66085" lon="-1.87149">
        <ele>53</ele>
        <time>2007-12-23T18:26:40Z</time>
      </trkpt>
      <trkpt lat="48.66164" lon="-1.87607">
        <ele>53</ele>
        <time>2007-12-23T18:28:45Z</time>
      </trkpt>
      <trkpt lat="48.66195" lon="-1.87867">
        <ele>49</ele>
        <time>2007-12-23T18:29:55Z</time>
      </trkpt>
      <trkpt lat="48.66261" lon="-1.87856">
        <ele>49</ele>
        <time>2007-12-23T18:30:22Z</time>
      </trkpt>
      <trkpt lat="48.66271" lon="-1.87931">
        <ele>49</ele>
        <time>2007-12-23T18:30:42Z</time>
      </trkpt>
      <trkpt lat="48.66361" lon="-1.87884">
        <ele>49</ele>
        <time>2007-12-23T18:31:20Z</time>
      </trkpt>
      <trkpt lat="48.66374" lon="-1.8796">
        <ele>49</ele>
        <time>2007-12-23T18:31:41Z</time>
      </trkpt>
      <trkpt lat="48.66681" lon="-1.87982">
        <ele>49</ele>
        <time>2007-12-23T18:33:44Z</time>
      </trkpt>
      <trkpt lat="48.66759" lon="-1.88012">
        <ele>48</ele>
        <time>2007-12-23T18:34:16Z</time>
      </trkpt>
      <trkpt lat="48.67015" lon="-1.87971">
        <ele>44</ele>
        <time>2007-12-23T18:35:59Z</time>
      </trkpt>
      <trkpt lat="48.67026" lon="-1.88108">
        <ele>43</ele>
        <time>2007-12-23T18:36:36Z</time>
      </trkpt>
      <trkpt lat="48.67119" lon="-1.88133">
        <ele>40</ele>
        <time>2007-12-23T18:37:14Z</time>
      </trkpt>
      <trkpt lat="48.67146" lon="-1.8808">
        <ele>41</ele>
        <time>2007-12-23T18:37:31Z</time>
      </trkpt>
      <trkpt lat="48.67233" lon="-1.88043">
        <ele>40</ele>
        <time>2007-12-23T18:38:07Z</time>
      </trkpt>
      <trkpt lat="48.67297" lon="-1.88076">
        <ele>39</ele>
        <time>2007-12-23T18:38:34Z</time>
      </trkpt>
      <trkpt lat="48.67368" lon="-1.88044">
        <ele>38</ele>
        <time>2007-12-23T18:39:04Z</time>
      </trkpt>
      <trkpt lat="48.67481" lon="-1.87972">
        <ele>37</ele>
        <time>2007-12-23T18:39:53Z</time>
      </trkpt>
      <trkpt lat="48.6756" lon="-1.87964">
        <ele>36</ele>
        <time>2007-12-23T18:40:25Z</time>
      </trkpt>
      <trkpt lat="48.67579" lon="-1.88061">
        <ele>37</ele>
        <time>2007-12-23T18:40:51Z</time>
      </trkpt>
      <trkpt lat="48.67865" lon="-1.88061">
        <ele>37</ele>
        <time>2007-12-23T18:42:46Z</time>
      </trkpt>
      <trkpt lat="48.67866" lon="-1.882">
        <ele>40</ele>
        <time>2007-12-23T18:43:23Z</time>
      </trkpt>
      <trkpt lat="48.68056" lon="-1.88195">
        <ele>38</ele>
        <time>2007-12-23T18:44:38Z</time>
      </trkpt>
      <trkpt lat="48.68064" lon="-1.88097">
        <ele>36</ele>
        <time>2007-12-23T18:45:04Z</time>
      </trkpt>
      <trkpt lat="48.68169" lon="-1.88119">
        <ele>35</ele>
        <time>2007-12-23T18:45:47Z</time>
      </trkpt>
      <trkpt lat="48.68174" lon="-1.88086">
        <ele>34</ele>
        <time>2007-12-23T18:45:56Z</time>
      </trkpt>
      <trkpt lat="48.68339" lon="-1.88069">
        <ele>31</ele>
        <time>2007-12-23T18:47:02Z</time>
      </trkpt>
      <trkpt lat="48.68334" lon="-1.8816">
        <ele>31</ele>
        <time>2007-12-23T18:47:26Z</time>
      </trkpt>
      <trkpt lat="48.68419" lon="-1.8817">
        <ele>23</ele>
        <time>2007-12-23T18:48:01Z</time>
      </trkpt>
      <trkpt lat="48.68465" lon="-1.88313">
        <ele>16</ele>
        <time>2007-12-23T18:48:43Z</time>
      </trkpt>
      <trkpt lat="48.68576" lon="-1.88244">
        <ele>22</ele>
        <time>2007-12-23T18:49:31Z</time>
      </trkpt>
      <trkpt lat="48.68702" lon="-1.88295">
        <ele>26</ele>
        <time>2007-12-23T18:50:23Z</time>
      </trkpt>
      <trkpt lat="48.68735" lon="-1.88376">
        <ele>19</ele>
        <time>2007-12-23T18:50:48Z</time>
      </trkpt>
      <trkpt lat="48.68967" lon="-1.88578">
        <ele>22</ele>
        <time>2007-12-23T18:52:35Z</time>
      </trkpt>
      <trkpt lat="48.68986" lon="-1.88661">
        <ele>18</ele>
        <time>2007-12-23T18:52:58Z</time>
      </trkpt>
      <trkpt lat="48.69306" lon="-1.88728">
        <ele>27</ele>
        <time>2007-12-23T18:55:08Z</time>
      </trkpt>
      <trkpt lat="48.69322" lon="-1.88709">
        <ele>26</ele>
        <time>2007-12-23T18:55:16Z</time>
      </trkpt>
      <trkpt lat="48.69369" lon="-1.88784">
        <ele>21</ele>
        <time>2007-12-23T18:55:43Z</time>
      </trkpt>
      <trkpt lat="48.69275" lon="-1.88821">
        <ele>19</ele>
        <time>2007-12-23T18:56:22Z</time>
      </trkpt>
      <trkpt lat="48.69238" lon="-1.88937">
        <ele>7</ele>
        <time>2007-12-23T18:56:56Z</time>
      </trkpt>
      <trkpt lat="48.6922" lon="-1.89418">
        <ele>6</ele>
        <time>2007-12-23T18:59:03Z</time>
      </trkpt>
    </trkseg>
  </trk>
  <trk>
    <name><![CDATA[tour de bretagne_13]]></name>
    <trkseg>
      <trkpt lat="47.99497" lon="-4.0939">
        <ele>2.2176</ele>
      </trkpt>
      <trkpt lat="47.99549" lon="-4.09536">
        <ele>2.96</ele>
      </trkpt>
      <trkpt lat="47.99524" lon="-4.09985">
        <ele>2.4888</ele>
      </trkpt>
      <trkpt lat="47.99482" lon="-4.10245">
        <ele>1.34</ele>
      </trkpt>
      <trkpt lat="47.9956" lon="-4.10269">
        <ele>4.3168</ele>
      </trkpt>
      <trkpt lat="47.99613" lon="-4.10582">
        <ele>4.0576</ele>
      </trkpt>
      <trkpt lat="47.99628" lon="-4.1073">
        <ele>2.3116</ele>
      </trkpt>
      <trkpt lat="47.99688" lon="-4.10744">
        <ele>1.7084</ele>
      </trkpt>
      <trkpt lat="47.99736" lon="-4.10812">
        <ele>2.3384</ele>
      </trkpt>
      <trkpt lat="47.99816" lon="-4.10803">
        <ele>1.6096</ele>
      </trkpt>
      <trkpt lat="48.0006" lon="-4.11">
        <ele>5.704</ele>
      </trkpt>
      <trkpt lat="48.00124" lon="-4.11087">
        <ele>5.14</ele>
      </trkpt>
      <trkpt lat="48.00188" lon="-4.11178">
        <ele>5.0172</ele>
      </trkpt>
      <trkpt lat="48.00223" lon="-4.11387">
        <ele>4.86</ele>
      </trkpt>
      <trkpt lat="48.00292" lon="-4.11452">
        <ele>4.88</ele>
      </trkpt>
      <trkpt lat="48.00391" lon="-4.11696">
        <ele>6.3464</ele>
      </trkpt>
      <trkpt lat="48.00426" lon="-4.11803">
        <ele>11.5696</ele>
      </trkpt>
      <trkpt lat="48.00512" lon="-4.11938">
        <ele>23.7056</ele>
      </trkpt>
      <trkpt lat="48.0085" lon="-4.12695">
        <ele>72.00481</ele>
      </trkpt>
      <trkpt lat="48.00968" lon="-4.12645">
        <ele>67.488</ele>
      </trkpt>
      <trkpt lat="48.0102" lon="-4.12381">
        <ele>56.1544</ele>
      </trkpt>
      <trkpt lat="48.01095" lon="-4.12218">
        <ele>37.7728</ele>
      </trkpt>
      <trkpt lat="48.01297" lon="-4.12188">
        <ele>24.3232</ele>
      </trkpt>
      <trkpt lat="48.0136" lon="-4.12233">
        <ele>23.1144</ele>
      </trkpt>
      <trkpt lat="48.01416" lon="-4.12291">
        <ele>14.7776</ele>
      </trkpt>
      <trkpt lat="48.01395" lon="-4.12386">
        <ele>14.424</ele>
      </trkpt>
      <trkpt lat="48.01553" lon="-4.12507">
        <ele>13.38</ele>
      </trkpt>
      <trkpt lat="48.01693" lon="-4.12506">
        <ele>25.4</ele>
      </trkpt>
      <trkpt lat="48.01777" lon="-4.12739">
        <ele>37.3</ele>
      </trkpt>
      <trkpt lat="48.01779" lon="-4.12823">
        <ele>38.7048</ele>
      </trkpt>
      <trkpt lat="48.01849" lon="-4.12901">
        <ele>47.9096</ele>
      </trkpt>
      <trkpt lat="48.0196" lon="-4.12716">
        <ele>62.6448</ele>
      </trkpt>
      <trkpt lat="48.02354" lon="-4.12848">
        <ele>78.672</ele>
      </trkpt>
      <trkpt lat="48.02585" lon="-4.1296">
        <ele>96.2216</ele>
      </trkpt>
      <trkpt lat="48.0289" lon="-4.12927">
        <ele>99.9856</ele>
      </trkpt>
      <trkpt lat="48.02816" lon="-4.13137">
        <ele>99.776</ele>
      </trkpt>
      <trkpt lat="48.02808" lon="-4.1328">
        <ele>96.05</ele>
      </trkpt>
      <trkpt lat="48.029" lon="-4.13566">
        <ele>87.7384</ele>
      </trkpt>
      <trkpt lat="48.02877" lon="-4.13828">
        <ele>79.92</ele>
      </trkpt>
      <trkpt lat="48.02699" lon="-4.14219">
        <ele>35.2696</ele>
      </trkpt>
      <trkpt lat="48.02793" lon="-4.14272">
        <ele>38.3632</ele>
      </trkpt>
      <trkpt lat="48.02946" lon="-4.14282">
        <ele>33.1168</ele>
      </trkpt>
      <trkpt lat="48.02972" lon="-4.14434">
        <ele>28.0752</ele>
      </trkpt>
      <trkpt lat="48.03068" lon="-4.14543">
        <ele>35.14</ele>
      </trkpt>
      <trkpt lat="48.0322" lon="-4.1419">
        <ele>51.8616</ele>
      </trkpt>
      <trkpt lat="48.03255" lon="-4.14284">
        <ele>46.088</ele>
      </trkpt>
      <trkpt lat="48.03276" lon="-4.14127">
        <ele>39.3316</ele>
      </trkpt>
      <trkpt lat="48.03382" lon="-4.14029">
        <ele>26.536</ele>
      </trkpt>
      <trkpt lat="48.03442" lon="-4.1412">
        <ele>27.152</ele>
      </trkpt>
      <trkpt lat="48.03418" lon="-4.14224">
        <ele>31.54</ele>
      </trkpt>
      <trkpt lat="48.03469" lon="-4.14319">
        <ele>44.4016</ele>
      </trkpt>
      <trkpt lat="48.03509" lon="-4.14203">
        <ele>45.1228</ele>
      </trkpt>
      <trkpt lat="48.03563" lon="-4.14075">
        <ele>50.7</ele>
      </trkpt>
      <trkpt lat="48.03615" lon="-4.14146">
        <ele>58.3776</ele>
      </trkpt>
      <trkpt lat="48.03619" lon="-4.14064">
        <ele>60.3312</ele>
      </trkpt>
      <trkpt lat="48.03737" lon="-4.14008">
        <ele>81.048</ele>
      </trkpt>
      <trkpt lat="48.0373" lon="-4.13969">
        <ele>78.7872</ele>
      </trkpt>
      <trkpt lat="48.03767" lon="-4.13914">
        <ele>78.9792</ele>
      </trkpt>
      <trkpt lat="48.03785" lon="-4.13669">
        <ele>38.136</ele>
      </trkpt>
      <trkpt lat="48.0388" lon="-4.13463">
        <ele>58.5792</ele>
      </trkpt>
      <trkpt lat="48.03983" lon="-4.13508">
        <ele>70.5136</ele>
      </trkpt>
      <trkpt lat="48.04066" lon="-4.13598">
        <ele>79.146</ele>
      </trkpt>
      <trkpt lat="48.04145" lon="-4.13788">
        <ele>101.744</ele>
      </trkpt>
      <trkpt lat="48.04331" lon="-4.13877">
        <ele>106.4272</ele>
      </trkpt>
      <trkpt lat="48.04732" lon="-4.14279">
        <ele>127.064</ele>
      </trkpt>
      <trkpt lat="48.04951" lon="-4.14214">
        <ele>128.1072</ele>
      </trkpt>
      <trkpt lat="48.05114" lon="-4.13884">
        <ele>118.1684</ele>
      </trkpt>
      <trkpt lat="48.05182" lon="-4.13509">
        <ele>104.662</ele>
      </trkpt>
      <trkpt lat="48.05104" lon="-4.13486">
        <ele>113.0992</ele>
      </trkpt>
      <trkpt lat="48.05111" lon="-4.13285">
        <ele>100.1344</ele>
      </trkpt>
      <trkpt lat="48.05019" lon="-4.13232">
        <ele>97.4952</ele>
      </trkpt>
      <trkpt lat="48.05087" lon="-4.13197">
        <ele>84.272</ele>
      </trkpt>
      <trkpt lat="48.04965" lon="-4.13037">
        <ele>76.4976</ele>
      </trkpt>
      <trkpt lat="48.04953" lon="-4.12924">
        <ele>91.912</ele>
      </trkpt>
      <trkpt lat="48.04775" lon="-4.12832">
        <ele>95.02</ele>
      </trkpt>
      <trkpt lat="48.04724" lon="-4.12728">
        <ele>91.98</ele>
      </trkpt>
      <trkpt lat="48.04768" lon="-4.12364">
        <ele>101.39</ele>
      </trkpt>
      <trkpt lat="48.04902" lon="-4.12499">
        <ele>116.3</ele>
      </trkpt>
      <trkpt lat="48.04921" lon="-4.12403">
        <ele>116.3532</ele>
      </trkpt>
      <trkpt lat="48.04839" lon="-4.12351">
        <ele>109.76</ele>
      </trkpt>
      <trkpt lat="48.04619" lon="-4.11591">
        <ele>77.2352</ele>
      </trkpt>
      <trkpt lat="48.04588" lon="-4.11971">
        <ele>66.3224</ele>
      </trkpt>
      <trkpt lat="48.04557" lon="-4.12029">
        <ele>62.2384</ele>
      </trkpt>
      <trkpt lat="48.04525" lon="-4.12018">
        <ele>48.208</ele>
      </trkpt>
      <trkpt lat="48.04553" lon="-4.11771">
        <ele>43.9032</ele>
      </trkpt>
      <trkpt lat="48.04522" lon="-4.11494">
        <ele>49.1716</ele>
      </trkpt>
      <trkpt lat="48.0463" lon="-4.11404">
        <ele>63.6664</ele>
      </trkpt>
      <trkpt lat="48.04557" lon="-4.11373">
        <ele>56.366</ele>
      </trkpt>
      <trkpt lat="48.04548" lon="-4.11261">
        <ele>62.836</ele>
      </trkpt>
      <trkpt lat="48.04592" lon="-4.11154">
        <ele>66.7504</ele>
      </trkpt>
      <trkpt lat="48.04555" lon="-4.11053">
        <ele>53.644</ele>
      </trkpt>
      <trkpt lat="48.04829" lon="-4.1126">
        <ele>38.9552</ele>
      </trkpt>
      <trkpt lat="48.05002" lon="-4.11255">
        <ele>45.7648</ele>
      </trkpt>
      <trkpt lat="48.05143" lon="-4.10992">
        <ele>44.9652</ele>
      </trkpt>
      <trkpt lat="48.0515" lon="-4.10868">
        <ele>37.5456</ele>
      </trkpt>
      <trkpt lat="48.05209" lon="-4.10805">
        <ele>42.1</ele>
      </trkpt>
      <trkpt lat="48.05223" lon="-4.10646">
        <ele>35.8904</ele>
      </trkpt>
      <trkpt lat="48.05314" lon="-4.10539">
        <ele>50.384</ele>
      </trkpt>
      <trkpt lat="48.05355" lon="-4.10544">
        <ele>52.8768</ele>
      </trkpt>
      <trkpt lat="48.05335" lon="-4.1073">
        <ele>75.9864</ele>
      </trkpt>
      <trkpt lat="48.05416" lon="-4.10858">
        <ele>73.6528</ele>
      </trkpt>
      <trkpt lat="48.05359" lon="-4.1157">
        <ele>105.8608</ele>
      </trkpt>
      <trkpt lat="48.05474" lon="-4.11598">
        <ele>104.024</ele>
      </trkpt>
      <trkpt lat="48.05476" lon="-4.11486">
        <ele>100.62</ele>
      </trkpt>
      <trkpt lat="48.05665" lon="-4.11447">
        <ele>89.0624</ele>
      </trkpt>
      <trkpt lat="48.0573" lon="-4.11377">
        <ele>82.18</ele>
      </trkpt>
      <trkpt lat="48.05804" lon="-4.11401">
        <ele>76.36</ele>
      </trkpt>
      <trkpt lat="48.05861" lon="-4.11534">
        <ele>66.3596</ele>
      </trkpt>
      <trkpt lat="48.05916" lon="-4.11665">
        <ele>53.78</ele>
      </trkpt>
      <trkpt lat="48.05885" lon="-4.1153">
        <ele>57.6224</ele>
      </trkpt>
      <trkpt lat="48.05898" lon="-4.11378">
        <ele>44.0628</ele>
      </trkpt>
      <trkpt lat="48.05695" lon="-4.11248">
        <ele>47.6</ele>
      </trkpt>
      <trkpt lat="48.05899" lon="-4.10924">
        <ele>56.5688</ele>
      </trkpt>
      <trkpt lat="48.05945" lon="-4.10881">
        <ele>64.9</ele>
      </trkpt>
      <trkpt lat="48.05999" lon="-4.10735">
        <ele>62.0728</ele>
      </trkpt>
      <trkpt lat="48.0623" lon="-4.10958">
        <ele>86.088</ele>
      </trkpt>
      <trkpt lat="48.0683" lon="-4.1101">
        <ele>80.1</ele>
      </trkpt>
      <trkpt lat="48.07229" lon="-4.11513">
        <ele>104.5668</ele>
      </trkpt>
      <trkpt lat="48.07319" lon="-4.11831">
        <ele>114.9</ele>
      </trkpt>
      <trkpt lat="48.07728" lon="-4.12126">
        <ele>111.8296</ele>
      </trkpt>
      <trkpt lat="48.07837" lon="-4.12342">
        <ele>117.0432</ele>
      </trkpt>
      <trkpt lat="48.07818" lon="-4.12611">
        <ele>111.212</ele>
      </trkpt>
      <trkpt lat="48.07717" lon="-4.12746">
        <ele>109.0232</ele>
      </trkpt>
      <trkpt lat="48.07843" lon="-4.12928">
        <ele>98.5248</ele>
      </trkpt>
      <trkpt lat="48.07823" lon="-4.13121">
        <ele>99.0384</ele>
      </trkpt>
      <trkpt lat="48.08004" lon="-4.13298">
        <ele>119.44</ele>
      </trkpt>
      <trkpt lat="48.08177" lon="-4.13396">
        <ele>128.7504</ele>
      </trkpt>
      <trkpt lat="48.08143" lon="-4.13579">
        <ele>138.764</ele>
      </trkpt>
      <trkpt lat="48.0796" lon="-4.13683">
        <ele>120.4224</ele>
      </trkpt>
      <trkpt lat="48.07974" lon="-4.13935">
        <ele>103.7648</ele>
      </trkpt>
      <trkpt lat="48.07755" lon="-4.14173">
        <ele>96.58801</ele>
      </trkpt>
      <trkpt lat="48.07778" lon="-4.14428">
        <ele>116.92</ele>
      </trkpt>
      <trkpt lat="48.07731" lon="-4.14963">
        <ele>135.46</ele>
      </trkpt>
      <trkpt lat="48.07753" lon="-4.15385">
        <ele>126.2</ele>
      </trkpt>
      <trkpt lat="48.07769" lon="-4.15624">
        <ele>131.1636</ele>
      </trkpt>
      <trkpt lat="48.07656" lon="-4.16049">
        <ele>126.56</ele>
      </trkpt>
      <trkpt lat="48.07609" lon="-4.16065">
        <ele>124.2772</ele>
      </trkpt>
      <trkpt lat="48.07635" lon="-4.16179">
        <ele>126.3256</ele>
      </trkpt>
      <trkpt lat="48.07681" lon="-4.16171">
        <ele>124.5056</ele>
      </trkpt>
      <trkpt lat="48.07664" lon="-4.16322">
        <ele>118.736</ele>
      </trkpt>
      <trkpt lat="48.07703" lon="-4.16453">
        <ele>114.286</ele>
      </trkpt>
      <trkpt lat="48.07929" lon="-4.16613">
        <ele>128.74</ele>
      </trkpt>
      <trkpt lat="48.08115" lon="-4.17132">
        <ele>117.2032</ele>
      </trkpt>
      <trkpt lat="48.08222" lon="-4.17173">
        <ele>120.36</ele>
      </trkpt>
      <trkpt lat="48.083" lon="-4.1712">
        <ele>132.06</ele>
      </trkpt>
      <trkpt lat="48.08404" lon="-4.17349">
        <ele>139.198</ele>
      </trkpt>
      <trkpt lat="48.08525" lon="-4.1779">
        <ele>138.0392</ele>
      </trkpt>
      <trkpt lat="48.08757" lon="-4.17805">
        <ele>152.8</ele>
      </trkpt>
      <trkpt lat="48.08661" lon="-4.17883">
        <ele>141.2608</ele>
      </trkpt>
      <trkpt lat="48.08582" lon="-4.17874">
        <ele>133.816</ele>
      </trkpt>
      <trkpt lat="48.08398" lon="-4.18053">
        <ele>114.0812</ele>
      </trkpt>
      <trkpt lat="48.0838" lon="-4.18379">
        <ele>118.6312</ele>
      </trkpt>
      <trkpt lat="48.085" lon="-4.18394">
        <ele>124.9504</ele>
      </trkpt>
      <trkpt lat="48.08604" lon="-4.1847">
        <ele>133.8392</ele>
      </trkpt>
      <trkpt lat="48.08621" lon="-4.18249">
        <ele>145.18</ele>
      </trkpt>
      <trkpt lat="48.08631" lon="-4.17991">
        <ele>150.828</ele>
      </trkpt>
      <trkpt lat="48.08734" lon="-4.17984">
        <ele>163.7</ele>
      </trkpt>
      <trkpt lat="48.08771" lon="-4.18253">
        <ele>166.562</ele>
      </trkpt>
      <trkpt lat="48.08936" lon="-4.18301">
        <ele>175.8108</ele>
      </trkpt>
      <trkpt lat="48.08936" lon="-4.18231">
        <ele>171.74</ele>
      </trkpt>
      <trkpt lat="48.08882" lon="-4.18093">
        <ele>164.4104</ele>
      </trkpt>
      <trkpt lat="48.08896" lon="-4.17843">
        <ele>154.12</ele>
      </trkpt>
      <trkpt lat="48.08875" lon="-4.17787">
        <ele>155.568</ele>
      </trkpt>
      <trkpt lat="48.09248" lon="-4.17401">
        <ele>175.94</ele>
      </trkpt>
      <trkpt lat="48.09301" lon="-4.17268">
        <ele>176.44</ele>
      </trkpt>
      <trkpt lat="48.09451" lon="-4.17363">
        <ele>187.048</ele>
      </trkpt>
      <trkpt lat="48.09405" lon="-4.17421">
        <ele>191.824</ele>
      </trkpt>
      <trkpt lat="48.09507" lon="-4.17594">
        <ele>217.488</ele>
      </trkpt>
      <trkpt lat="48.09577" lon="-4.17609">
        <ele>227.4672</ele>
      </trkpt>
      <trkpt lat="48.09686" lon="-4.17923">
        <ele>268.3216</ele>
      </trkpt>
      <trkpt lat="48.09758" lon="-4.18044">
        <ele>275.9</ele>
      </trkpt>
      <trkpt lat="48.09884" lon="-4.18059">
        <ele>280</ele>
      </trkpt>
      <trkpt lat="48.09868" lon="-4.18274">
        <ele>277.44</ele>
      </trkpt>
      <trkpt lat="48.09697" lon="-4.18742">
        <ele>245.98</ele>
      </trkpt>
      <trkpt lat="48.09521" lon="-4.19209">
        <ele>226.3712</ele>
      </trkpt>
      <trkpt lat="48.09348" lon="-4.18872">
        <ele>220.7404</ele>
      </trkpt>
      <trkpt lat="48.09256" lon="-4.19253">
        <ele>203.616</ele>
      </trkpt>
      <trkpt lat="48.09197" lon="-4.19391">
        <ele>188.5248</ele>
      </trkpt>
      <trkpt lat="48.09304" lon="-4.19496">
        <ele>192.894</ele>
      </trkpt>
      <trkpt lat="48.0926" lon="-4.19679">
        <ele>199.912</ele>
      </trkpt>
      <trkpt lat="48.09297" lon="-4.19711">
        <ele>206.332</ele>
      </trkpt>
      <trkpt lat="48.0928" lon="-4.19765">
        <ele>205.7864</ele>
      </trkpt>
      <trkpt lat="48.0935" lon="-4.19829">
        <ele>211.9876</ele>
      </trkpt>
      <trkpt lat="48.09339" lon="-4.19877">
        <ele>212.83</ele>
      </trkpt>
      <trkpt lat="48.09457" lon="-4.19912">
        <ele>207.768</ele>
      </trkpt>
      <trkpt lat="48.0966" lon="-4.20319">
        <ele>202.1892</ele>
      </trkpt>
      <trkpt lat="48.09689" lon="-4.20546">
        <ele>180.3856</ele>
      </trkpt>
      <trkpt lat="48.09861" lon="-4.20651">
        <ele>156.764</ele>
      </trkpt>
      <trkpt lat="48.09837" lon="-4.20822">
        <ele>151.4544</ele>
      </trkpt>
    </trkseg>
  </trk>
</gpx>